<?xml version='1.0' encoding='UTF-8'?><gpx version="1.1" creator="JPX - https://github.com/jenetics/jpx" xmlns="http://www.topografix.com/GPX/1/1"><trk><trkseg><trkpt lat="45.108803500504635" lon="10.07692222757625"><ele>41.0</ele><time>2026-04-19T06:02:54.998Z</time></trkpt><trkpt lat="45.108837600391695" lon="10.077017801617748"><ele>41.0</ele><time>2026-04-19T06:02:56.998Z</time></trkpt><trkpt lat="45.10884559362894" lon="10.077140668101269"><ele>41.0</ele><time>2026-04-19T06:02:58.999Z</time></trkpt><trkpt lat="45.10883537430032" lon="10.077280119619433"><ele>41.0</ele><time>2026-04-19T06:03:00.999Z</time></trkpt><trkpt lat="45.108826326139315" lon="10.07741239456247"><ele>41.0</ele><time>2026-04-19T06:03:02.999Z</time></trkpt><trkpt lat="45.10879508199571" lon="10.077550254055161"><ele>41.25</ele><time>2026-04-19T06:03:04.999Z</time></trkpt><trkpt lat="45.108768274742495" lon="10.077691424053311"><ele>41.5</ele><time>2026-04-19T06:03:06.999Z</time></trkpt><trkpt lat="45.10874438025572" lon="10.077848112587679"><ele>41.75</ele><time>2026-04-19T06:03:08.999Z</time></trkpt><trkpt lat="45.10861841337287" lon="10.077859606501264"><ele>42.0</ele><time>2026-04-19T06:03:10.999Z</time></trkpt><trkpt lat="45.10849671102584" lon="10.07784178991505"><ele>42.0</ele><time>2026-04-19T06:03:12.999Z</time></trkpt><trkpt lat="45.10837292979382" lon="10.07783809458822"><ele>42.0</ele><time>2026-04-19T06:03:15Z</time></trkpt><trkpt lat="45.108309514140174" lon="10.077811550657028"><ele>42.0</ele><time>2026-04-19T06:03:16Z</time></trkpt><trkpt lat="45.108236472607004" lon="10.077797320442285"><ele>42.0</ele><time>2026-04-19T06:03:17Z</time></trkpt><trkpt lat="45.10816697981842" lon="10.07777501877401"><ele>42.0</ele><time>2026-04-19T06:03:18Z</time></trkpt><trkpt lat="45.108098321823086" lon="10.077756040663283"><ele>42.0</ele><time>2026-04-19T06:03:19Z</time></trkpt><trkpt lat="45.10802925889491" lon="10.077741209254324"><ele>41.857142857142854</ele><time>2026-04-19T06:03:20Z</time></trkpt><trkpt lat="45.10795947871822" lon="10.077723340280931"><ele>41.714285714285715</ele><time>2026-04-19T06:03:21Z</time></trkpt><trkpt lat="45.10789129029564" lon="10.077700270062628"><ele>41.57142857142857</ele><time>2026-04-19T06:03:22Z</time></trkpt><trkpt lat="45.107825094718066" lon="10.0776858055582"><ele>41.42857142857143</ele><time>2026-04-19T06:03:23Z</time></trkpt><trkpt lat="45.10775524783356" lon="10.077666671896647"><ele>41.285714285714285</ele><time>2026-04-19T06:03:24Z</time></trkpt><trkpt lat="45.10768595377511" lon="10.07764471288232"><ele>41.14285714285714</ele><time>2026-04-19T06:03:25Z</time></trkpt><trkpt lat="45.10761925073326" lon="10.077626651173569"><ele>41.0</ele><time>2026-04-19T06:03:26Z</time></trkpt><trkpt lat="45.1075559311832" lon="10.07759523248943"><ele>40.99999999999999</ele><time>2026-04-19T06:03:27Z</time></trkpt><trkpt lat="45.10749553626668" lon="10.077565136740184"><ele>41.0</ele><time>2026-04-19T06:03:28Z</time></trkpt><trkpt lat="45.107434489259745" lon="10.077532663998404"><ele>41.0</ele><time>2026-04-19T06:03:29Z</time></trkpt><trkpt lat="45.107371117589615" lon="10.077505274806137"><ele>41.0</ele><time>2026-04-19T06:03:30Z</time></trkpt><trkpt lat="45.10731541402212" lon="10.077460528774004"><ele>41.0</ele><time>2026-04-19T06:03:31Z</time></trkpt><trkpt lat="45.10722671479694" lon="10.07742930414939"><ele>40.99999999999999</ele><time>2026-04-19T06:03:33Z</time></trkpt><trkpt lat="45.10725674363549" lon="10.077328722885735"><ele>41.0</ele><time>2026-04-19T06:03:35Z</time></trkpt><trkpt lat="45.107335861024836" lon="10.077197931650163"><ele>40.857142857142854</ele><time>2026-04-19T06:03:37Z</time></trkpt><trkpt lat="45.107389778618774" lon="10.077133642608388"><ele>40.714285714285715</ele><time>2026-04-19T06:03:38Z</time></trkpt><trkpt lat="45.10744176836781" lon="10.077062015431945"><ele>40.57142857142857</ele><time>2026-04-19T06:03:39Z</time></trkpt><trkpt lat="45.107486647333175" lon="10.076987167276101"><ele>40.42857142857143</ele><time>2026-04-19T06:03:40Z</time></trkpt><trkpt lat="45.1075285870613" lon="10.07690907146541"><ele>40.285714285714285</ele><time>2026-04-19T06:03:41Z</time></trkpt><trkpt lat="45.10757318991936" lon="10.076827217349718"><ele>40.14285714285714</ele><time>2026-04-19T06:03:42Z</time></trkpt><trkpt lat="45.10761917934529" lon="10.076750152866031"><ele>40.0</ele><time>2026-04-19T06:03:43Z</time></trkpt><trkpt lat="45.10767614616349" lon="10.07667387136084"><ele>40.0</ele><time>2026-04-19T06:03:44Z</time></trkpt><trkpt lat="45.107724038633194" lon="10.076604931454215"><ele>40.0</ele><time>2026-04-19T06:03:45Z</time></trkpt><trkpt lat="45.10777699572729" lon="10.076539613356953"><ele>40.0</ele><time>2026-04-19T06:03:46Z</time></trkpt><trkpt lat="45.107841271072765" lon="10.076480694358427"><ele>40.0</ele><time>2026-04-19T06:03:47Z</time></trkpt><trkpt lat="45.107901868717825" lon="10.07642561108662"><ele>40.0</ele><time>2026-04-19T06:03:48Z</time></trkpt><trkpt lat="45.1079652203931" lon="10.076373204464266"><ele>40.0</ele><time>2026-04-19T06:03:49Z</time></trkpt><trkpt lat="45.108028072502606" lon="10.076328091878054"><ele>40.0</ele><time>2026-04-19T06:03:50Z</time></trkpt><trkpt lat="45.10809257382495" lon="10.076288598540543"><ele>40.0</ele><time>2026-04-19T06:03:51Z</time></trkpt><trkpt lat="45.1081576026484" lon="10.076251318029351"><ele>40.0</ele><time>2026-04-19T06:03:52Z</time></trkpt><trkpt lat="45.10828356490051" lon="10.076174754602622"><ele>40.0</ele><time>2026-04-19T06:03:54Z</time></trkpt><trkpt lat="45.10834367155042" lon="10.076133303659805"><ele>40.0</ele><time>2026-04-19T06:03:55Z</time></trkpt><trkpt lat="45.10840294901931" lon="10.076092130615402"><ele>40.0</ele><time>2026-04-19T06:03:56Z</time></trkpt><trkpt lat="45.10846387403812" lon="10.076055951569103"><ele>40.0</ele><time>2026-04-19T06:03:57Z</time></trkpt><trkpt lat="45.108525097416454" lon="10.07601690243371"><ele>40.0</ele><time>2026-04-19T06:03:58Z</time></trkpt><trkpt lat="45.108585633863804" lon="10.075977106587278"><ele>40.0</ele><time>2026-04-19T06:03:58.999Z</time></trkpt><trkpt lat="45.10864410372934" lon="10.075924500949242"><ele>40.0</ele><time>2026-04-19T06:03:59.999Z</time></trkpt><trkpt lat="45.10869565235969" lon="10.075866786161336"><ele>40.0</ele><time>2026-04-19T06:04:00.999Z</time></trkpt><trkpt lat="45.10874503029099" lon="10.075799859874095"><ele>40.0</ele><time>2026-04-19T06:04:01.999Z</time></trkpt><trkpt lat="45.108790803701226" lon="10.075726788314329"><ele>40.0</ele><time>2026-04-19T06:04:02.999Z</time></trkpt><trkpt lat="45.108840247177596" lon="10.075655817941911"><ele>40.0</ele><time>2026-04-19T06:04:03.999Z</time></trkpt><trkpt lat="45.10887689459777" lon="10.07557286909686"><ele>39.857142857142854</ele><time>2026-04-19T06:04:04.999Z</time></trkpt><trkpt lat="45.10890977776941" lon="10.075479989867391"><ele>39.714285714285715</ele><time>2026-04-19T06:04:05.999Z</time></trkpt><trkpt lat="45.10893995421731" lon="10.075385646865382"><ele>39.57142857142857</ele><time>2026-04-19T06:04:06.999Z</time></trkpt><trkpt lat="45.108964391327945" lon="10.075289814032839"><ele>39.42857142857143</ele><time>2026-04-19T06:04:07.999Z</time></trkpt><trkpt lat="45.10898786237156" lon="10.075194040496646"><ele>39.285714285714285</ele><time>2026-04-19T06:04:08.999Z</time></trkpt><trkpt lat="45.109012152841366" lon="10.075102676139794"><ele>39.142857142857146</ele><time>2026-04-19T06:04:09.999Z</time></trkpt><trkpt lat="45.10903749199674" lon="10.075015732173545"><ele>39.0</ele><time>2026-04-19T06:04:10.999Z</time></trkpt><trkpt lat="45.10906169090143" lon="10.074926338078592"><ele>39.0</ele><time>2026-04-19T06:04:11.999Z</time></trkpt><trkpt lat="45.10908722733072" lon="10.074830783241522"><ele>39.0</ele><time>2026-04-19T06:04:12.999Z</time></trkpt><trkpt lat="45.10911333733225" lon="10.074743062320383"><ele>39.0</ele><time>2026-04-19T06:04:13.999Z</time></trkpt><trkpt lat="45.10914054843932" lon="10.07465514221104"><ele>39.0</ele><time>2026-04-19T06:04:14.999Z</time></trkpt><trkpt lat="45.10916294447175" lon="10.074554014704306"><ele>39.0</ele><time>2026-04-19T06:04:15.999Z</time></trkpt><trkpt lat="45.1091878585054" lon="10.074462174540255"><ele>39.0</ele><time>2026-04-19T06:04:16.999Z</time></trkpt><trkpt lat="45.10921685365889" lon="10.074380984534153"><ele>39.0</ele><time>2026-04-19T06:04:17.999Z</time></trkpt><trkpt lat="45.10925139814964" lon="10.074296411074728"><ele>39.0</ele><time>2026-04-19T06:04:18.999Z</time></trkpt><trkpt lat="45.10928903074635" lon="10.074218478900349"><ele>39.0</ele><time>2026-04-19T06:04:19.999Z</time></trkpt><trkpt lat="45.10937373741051" lon="10.074079687065307"><ele>39.0</ele><time>2026-04-19T06:04:21.999Z</time></trkpt><trkpt lat="45.10941294707564" lon="10.074005249026259"><ele>39.0</ele><time>2026-04-19T06:04:22.999Z</time></trkpt><trkpt lat="45.10945397443535" lon="10.073929400041356"><ele>39.0</ele><time>2026-04-19T06:04:23.999Z</time></trkpt><trkpt lat="45.10949477937572" lon="10.073854298667113"><ele>39.0</ele><time>2026-04-19T06:04:24.999Z</time></trkpt><trkpt lat="45.10953375180732" lon="10.073782570016313"><ele>39.285714285714285</ele><time>2026-04-19T06:04:25.999Z</time></trkpt><trkpt lat="45.109574205941236" lon="10.073708114300336"><ele>39.57142857142857</ele><time>2026-04-19T06:04:26.999Z</time></trkpt><trkpt lat="45.10961659308272" lon="10.073630100867843"><ele>39.857142857142854</ele><time>2026-04-19T06:04:27.999Z</time></trkpt><trkpt lat="45.109660332766296" lon="10.073549597927677"><ele>40.14285714285714</ele><time>2026-04-19T06:04:28.999Z</time></trkpt><trkpt lat="45.109704419842394" lon="10.07347086763379"><ele>40.42857142857143</ele><time>2026-04-19T06:04:30.001Z</time></trkpt><trkpt lat="45.109748362576056" lon="10.073391134997198"><ele>40.71428571428571</ele><time>2026-04-19T06:04:31.001Z</time></trkpt><trkpt lat="45.109777388607014" lon="10.073304548962419"><ele>41.0</ele><time>2026-04-19T06:04:32.001Z</time></trkpt><trkpt lat="45.10982584260089" lon="10.073232519145904"><ele>40.99999999999999</ele><time>2026-04-19T06:04:33.001Z</time></trkpt><trkpt lat="45.10986947406" lon="10.07315730174026"><ele>41.0</ele><time>2026-04-19T06:04:34.001Z</time></trkpt><trkpt lat="45.10991241959288" lon="10.073083006512412"><ele>41.0</ele><time>2026-04-19T06:04:35.001Z</time></trkpt><trkpt lat="45.10995807829253" lon="10.07300900675409"><ele>41.0</ele><time>2026-04-19T06:04:36.001Z</time></trkpt><trkpt lat="45.110001091298834" lon="10.072931909610142"><ele>41.0</ele><time>2026-04-19T06:04:37.001Z</time></trkpt><trkpt lat="45.11004591419494" lon="10.072848531050115"><ele>40.99999999999999</ele><time>2026-04-19T06:04:38.001Z</time></trkpt><trkpt lat="45.110087074051826" lon="10.072772400766244"><ele>41.0</ele><time>2026-04-19T06:04:39.001Z</time></trkpt><trkpt lat="45.1101641332867" lon="10.07262579508987"><ele>40.99999999999999</ele><time>2026-04-19T06:04:41.001Z</time></trkpt><trkpt lat="45.110201279105894" lon="10.072541393534209"><ele>41.0</ele><time>2026-04-19T06:04:42.001Z</time></trkpt><trkpt lat="45.11023313119919" lon="10.072455772312956"><ele>41.0</ele><time>2026-04-19T06:04:43.001Z</time></trkpt><trkpt lat="45.11026903349503" lon="10.072371366545505"><ele>41.0</ele><time>2026-04-19T06:04:44.001Z</time></trkpt><trkpt lat="45.11030641388486" lon="10.072290123264775"><ele>41.0</ele><time>2026-04-19T06:04:45.001Z</time></trkpt><trkpt lat="45.11034737734042" lon="10.07219754060112"><ele>40.99999999999999</ele><time>2026-04-19T06:04:46.001Z</time></trkpt><trkpt lat="45.1103796590995" lon="10.072110654245558"><ele>41.0</ele><time>2026-04-19T06:04:47.001Z</time></trkpt><trkpt lat="45.11041050372992" lon="10.072018302113415"><ele>40.99999999999999</ele><time>2026-04-19T06:04:48.001Z</time></trkpt><trkpt lat="45.11043761047097" lon="10.071930419871027"><ele>41.0</ele><time>2026-04-19T06:04:49.001Z</time></trkpt><trkpt lat="45.1104707672504" lon="10.071840720984344"><ele>41.0</ele><time>2026-04-19T06:04:50Z</time></trkpt><trkpt lat="45.11050487509102" lon="10.07175013635478"><ele>41.0</ele><time>2026-04-19T06:04:51Z</time></trkpt><trkpt lat="45.11053607653308" lon="10.071660125542445"><ele>41.0</ele><time>2026-04-19T06:04:52Z</time></trkpt><trkpt lat="45.11056710011862" lon="10.071563621499852"><ele>40.99999999999999</ele><time>2026-04-19T06:04:53Z</time></trkpt><trkpt lat="45.110594079324294" lon="10.07147262207803"><ele>41.0</ele><time>2026-04-19T06:04:54Z</time></trkpt><trkpt lat="45.110627566726876" lon="10.071386821471227"><ele>41.0</ele><time>2026-04-19T06:04:55Z</time></trkpt><trkpt lat="45.11066149690023" lon="10.071301333664657"><ele>41.0</ele><time>2026-04-19T06:04:56Z</time></trkpt><trkpt lat="45.11069416538997" lon="10.071224762261654"><ele>41.0</ele><time>2026-04-19T06:04:57Z</time></trkpt><trkpt lat="45.110734226596925" lon="10.071155412435285"><ele>41.0</ele><time>2026-04-19T06:04:58Z</time></trkpt><trkpt lat="45.110790941739545" lon="10.071021615014258"><ele>41.0</ele><time>2026-04-19T06:05:00Z</time></trkpt><trkpt lat="45.11067908776543" lon="10.070872258025977"><ele>41.5</ele><time>2026-04-19T06:05:02Z</time></trkpt><trkpt lat="45.11060848757016" lon="10.070829663320284"><ele>42.0</ele><time>2026-04-19T06:05:03Z</time></trkpt><trkpt lat="45.11053994914074" lon="10.07079650155788"><ele>42.5</ele><time>2026-04-19T06:05:04Z</time></trkpt><trkpt lat="45.11046917988944" lon="10.070738576994541"><ele>43.0</ele><time>2026-04-19T06:05:05Z</time></trkpt><trkpt lat="45.11038867812213" lon="10.070691068764884"><ele>43.5</ele><time>2026-04-19T06:05:06Z</time></trkpt><trkpt lat="45.110304270815334" lon="10.070643486843348"><ele>44.0</ele><time>2026-04-19T06:05:07Z</time></trkpt><trkpt lat="45.11023224783421" lon="10.070592484809364"><ele>42.83333333333333</ele><time>2026-04-19T06:05:08Z</time></trkpt><trkpt lat="45.1101623060013" lon="10.07052387794171"><ele>41.666666666666664</ele><time>2026-04-19T06:05:09Z</time></trkpt><trkpt lat="45.110098219034754" lon="10.070439607708664"><ele>40.5</ele><time>2026-04-19T06:05:10Z</time></trkpt><trkpt lat="45.11005873770293" lon="10.070328165793004"><ele>39.333333333333336</ele><time>2026-04-19T06:05:11Z</time></trkpt><trkpt lat="45.1100173432589" lon="10.070218174986543"><ele>38.16666666666667</ele><time>2026-04-19T06:05:12Z</time></trkpt><trkpt lat="45.10997847005519" lon="10.07010886487789"><ele>37.0</ele><time>2026-04-19T06:05:13Z</time></trkpt><trkpt lat="45.10994087662906" lon="10.069996204073732"><ele>36.333333333333336</ele><time>2026-04-19T06:05:14Z</time></trkpt><trkpt lat="45.10990397706608" lon="10.069882731767471"><ele>35.66666666666667</ele><time>2026-04-19T06:05:15Z</time></trkpt><trkpt lat="45.10986791197488" lon="10.069771825606315"><ele>35.0</ele><time>2026-04-19T06:05:16Z</time></trkpt><trkpt lat="45.10982016035898" lon="10.069671752567979"><ele>34.333333333333336</ele><time>2026-04-19T06:05:17Z</time></trkpt><trkpt lat="45.10978793951415" lon="10.069564677335148"><ele>33.666666666666664</ele><time>2026-04-19T06:05:18Z</time></trkpt><trkpt lat="45.109750944268605" lon="10.06946186256559"><ele>33.0</ele><time>2026-04-19T06:05:19Z</time></trkpt><trkpt lat="45.10970663708028" lon="10.069365756787768"><ele>33.0</ele><time>2026-04-19T06:05:20Z</time></trkpt><trkpt lat="45.10968173971443" lon="10.06925285443506"><ele>33.0</ele><time>2026-04-19T06:05:21Z</time></trkpt><trkpt lat="45.10964096911147" lon="10.069152962598956"><ele>33.0</ele><time>2026-04-19T06:05:22Z</time></trkpt><trkpt lat="45.10958313081592" lon="10.069073865918522"><ele>33.0</ele><time>2026-04-19T06:05:23Z</time></trkpt><trkpt lat="45.10953571366111" lon="10.068987432770797"><ele>33.0</ele><time>2026-04-19T06:05:24Z</time></trkpt><trkpt lat="45.109483267715966" lon="10.068901793972621"><ele>33.0</ele><time>2026-04-19T06:05:25Z</time></trkpt><trkpt lat="45.10944507878012" lon="10.068805532033096"><ele>33.0</ele><time>2026-04-19T06:05:26Z</time></trkpt><trkpt lat="45.109395332871486" lon="10.0687217877381"><ele>33.0</ele><time>2026-04-19T06:05:27Z</time></trkpt><trkpt lat="45.10934545341095" lon="10.068637818640306"><ele>33.0</ele><time>2026-04-19T06:05:28Z</time></trkpt><trkpt lat="45.1092890597331" lon="10.068570356701715"><ele>33.0</ele><time>2026-04-19T06:05:29Z</time></trkpt><trkpt lat="45.109237610794565" lon="10.06848837340362"><ele>33.0</ele><time>2026-04-19T06:05:30Z</time></trkpt><trkpt lat="45.10919030217617" lon="10.06840541382214"><ele>33.0</ele><time>2026-04-19T06:05:31Z</time></trkpt><trkpt lat="45.10914260360478" lon="10.068320818143425"><ele>33.166666666666664</ele><time>2026-04-19T06:05:32Z</time></trkpt><trkpt lat="45.10909316858796" lon="10.06823793495462"><ele>33.333333333333336</ele><time>2026-04-19T06:05:33Z</time></trkpt><trkpt lat="45.10904144029615" lon="10.068155897244283"><ele>33.5</ele><time>2026-04-19T06:05:34Z</time></trkpt><trkpt lat="45.108990699248565" lon="10.068071658801614"><ele>33.66666666666667</ele><time>2026-04-19T06:05:34.999Z</time></trkpt><trkpt lat="45.10893836653715" lon="10.067986946259099"><ele>33.833333333333336</ele><time>2026-04-19T06:05:35.999Z</time></trkpt><trkpt lat="45.10888807049561" lon="10.067902210231479"><ele>34.0</ele><time>2026-04-19T06:05:36.999Z</time></trkpt><trkpt lat="45.10883913113738" lon="10.067816124100203"><ele>34.0</ele><time>2026-04-19T06:05:37.999Z</time></trkpt><trkpt lat="45.10878842741156" lon="10.067733349706518"><ele>34.0</ele><time>2026-04-19T06:05:38.999Z</time></trkpt><trkpt lat="45.10873957678657" lon="10.067652246403293"><ele>34.0</ele><time>2026-04-19T06:05:39.999Z</time></trkpt><trkpt lat="45.10870077534113" lon="10.067553275660748"><ele>34.0</ele><time>2026-04-19T06:05:40.999Z</time></trkpt><trkpt lat="45.10865111988623" lon="10.067469772022642"><ele>34.0</ele><time>2026-04-19T06:05:41.999Z</time></trkpt><trkpt lat="45.10859980589814" lon="10.06738322439131"><ele>34.0</ele><time>2026-04-19T06:05:42.999Z</time></trkpt><trkpt lat="45.10854759705312" lon="10.067294828961263"><ele>33.833333333333336</ele><time>2026-04-19T06:05:43.999Z</time></trkpt><trkpt lat="45.10849717832491" lon="10.067209464384757"><ele>33.66666666666667</ele><time>2026-04-19T06:05:44.999Z</time></trkpt><trkpt lat="45.10844964915754" lon="10.067128992198253"><ele>33.5</ele><time>2026-04-19T06:05:45.999Z</time></trkpt><trkpt lat="45.10839854597403" lon="10.067042468764983"><ele>33.333333333333336</ele><time>2026-04-19T06:05:46.999Z</time></trkpt><trkpt lat="45.10834908763546" lon="10.066958730252006"><ele>33.166666666666664</ele><time>2026-04-19T06:05:47.999Z</time></trkpt><trkpt lat="45.10830094684861" lon="10.066877407206949"><ele>33.0</ele><time>2026-04-19T06:05:48.999Z</time></trkpt><trkpt lat="45.10825072103897" lon="10.06679258093105"><ele>33.0</ele><time>2026-04-19T06:05:49.999Z</time></trkpt><trkpt lat="45.108199015275844" lon="10.066705255162278"><ele>33.0</ele><time>2026-04-19T06:05:50.999Z</time></trkpt><trkpt lat="45.10814895230944" lon="10.066620703913374"><ele>33.0</ele><time>2026-04-19T06:05:51.999Z</time></trkpt><trkpt lat="45.10809916534699" lon="10.066536775029427"><ele>33.0</ele><time>2026-04-19T06:05:52.999Z</time></trkpt><trkpt lat="45.10804710117354" lon="10.066450805826396"><ele>33.0</ele><time>2026-04-19T06:05:53.999Z</time></trkpt><trkpt lat="45.107997038881" lon="10.066368142197085"><ele>33.0</ele><time>2026-04-19T06:05:54.999Z</time></trkpt><trkpt lat="45.10794623514443" lon="10.06628449463738"><ele>33.0</ele><time>2026-04-19T06:05:55.999Z</time></trkpt><trkpt lat="45.107896575835724" lon="10.066202966335359"><ele>33.0</ele><time>2026-04-19T06:05:56.999Z</time></trkpt><trkpt lat="45.10784722560905" lon="10.066123716593369"><ele>33.0</ele><time>2026-04-19T06:05:57.999Z</time></trkpt><trkpt lat="45.107796961663695" lon="10.06604310060551"><ele>33.0</ele><time>2026-04-19T06:05:58.999Z</time></trkpt><trkpt lat="45.107746423597895" lon="10.065962044985117"><ele>33.0</ele><time>2026-04-19T06:05:59.999Z</time></trkpt><trkpt lat="45.10769687186366" lon="10.065882571299067"><ele>33.0</ele><time>2026-04-19T06:06:00.999Z</time></trkpt><trkpt lat="45.10764602168445" lon="10.065801015076342"><ele>33.0</ele><time>2026-04-19T06:06:01.999Z</time></trkpt><trkpt lat="45.10759605061705" lon="10.065720868834804"><ele>33.0</ele><time>2026-04-19T06:06:02.999Z</time></trkpt><trkpt lat="45.10754507753901" lon="10.065639115509281"><ele>33.0</ele><time>2026-04-19T06:06:03.999Z</time></trkpt><trkpt lat="45.10749413690688" lon="10.065557414225664"><ele>33.0</ele><time>2026-04-19T06:06:04.999Z</time></trkpt><trkpt lat="45.10744271332625" lon="10.065474938355823"><ele>33.0</ele><time>2026-04-19T06:06:05.999Z</time></trkpt><trkpt lat="45.10739158768132" lon="10.065393197297789"><ele>33.0</ele><time>2026-04-19T06:06:06.999Z</time></trkpt><trkpt lat="45.10732758139691" lon="10.06532624534153"><ele>33.0</ele><time>2026-04-19T06:06:07.999Z</time></trkpt><trkpt lat="45.10727643650805" lon="10.065244178065905"><ele>33.0</ele><time>2026-04-19T06:06:08.999Z</time></trkpt><trkpt lat="45.107237630610335" lon="10.065147053088005"><ele>33.0</ele><time>2026-04-19T06:06:09.999Z</time></trkpt><trkpt lat="45.107187429729606" lon="10.065066792698284"><ele>33.0</ele><time>2026-04-19T06:06:10.999Z</time></trkpt><trkpt lat="45.10713701939638" lon="10.064986197430366"><ele>33.0</ele><time>2026-04-19T06:06:11.999Z</time></trkpt><trkpt lat="45.10707421989462" lon="10.064918256422295"><ele>33.0</ele><time>2026-04-19T06:06:12.999Z</time></trkpt><trkpt lat="45.10703403758033" lon="10.064821551679671"><ele>33.0</ele><time>2026-04-19T06:06:13.999Z</time></trkpt><trkpt lat="45.10698233057646" lon="10.064738883319556"><ele>33.0</ele><time>2026-04-19T06:06:14.999Z</time></trkpt><trkpt lat="45.106930798668834" lon="10.064656494889139"><ele>33.0</ele><time>2026-04-19T06:06:15.999Z</time></trkpt><trkpt lat="45.106878626050474" lon="10.064573082103315"><ele>33.0</ele><time>2026-04-19T06:06:16.999Z</time></trkpt><trkpt lat="45.106826539256986" lon="10.064489806527673"><ele>33.0</ele><time>2026-04-19T06:06:17.999Z</time></trkpt><trkpt lat="45.10677601806266" lon="10.064408605554913"><ele>33.0</ele><time>2026-04-19T06:06:18.999Z</time></trkpt><trkpt lat="45.106724283635536" lon="10.06432498814804"><ele>33.0</ele><time>2026-04-19T06:06:19.999Z</time></trkpt><trkpt lat="45.106674146717985" lon="10.064243952747038"><ele>33.0</ele><time>2026-04-19T06:06:20.999Z</time></trkpt><trkpt lat="45.106623773191586" lon="10.06416253496233"><ele>33.0</ele><time>2026-04-19T06:06:21.999Z</time></trkpt><trkpt lat="45.10657394423628" lon="10.064081997329398"><ele>33.0</ele><time>2026-04-19T06:06:22.999Z</time></trkpt><trkpt lat="45.10651437874028" lon="10.064019399046428"><ele>33.0</ele><time>2026-04-19T06:06:23.999Z</time></trkpt><trkpt lat="45.10646678829725" lon="10.06394202089819"><ele>33.0</ele><time>2026-04-19T06:06:24.999Z</time></trkpt><trkpt lat="45.10642022035134" lon="10.06386786488421"><ele>33.0</ele><time>2026-04-19T06:06:25.999Z</time></trkpt><trkpt lat="45.10638571242636" lon="10.06377776169193"><ele>33.285714285714285</ele><time>2026-04-19T06:06:26.999Z</time></trkpt><trkpt lat="45.106341618307745" lon="10.063706648993469"><ele>33.57142857142857</ele><time>2026-04-19T06:06:27.999Z</time></trkpt><trkpt lat="45.10628474429331" lon="10.063649348492099"><ele>33.85714285714286</ele><time>2026-04-19T06:06:28.999Z</time></trkpt><trkpt lat="45.106241463590784" lon="10.063579964003301"><ele>34.14285714285714</ele><time>2026-04-19T06:06:29.999Z</time></trkpt><trkpt lat="45.106198049092896" lon="10.0635098733719"><ele>34.42857142857143</ele><time>2026-04-19T06:06:30.999Z</time></trkpt><trkpt lat="45.10615429184659" lon="10.063440076079349"><ele>34.714285714285715</ele><time>2026-04-19T06:06:31.999Z</time></trkpt><trkpt lat="45.10611349136477" lon="10.063370609668121"><ele>35.0</ele><time>2026-04-19T06:06:32.999Z</time></trkpt><trkpt lat="45.10607128309919" lon="10.063300765401168"><ele>34.83333333333333</ele><time>2026-04-19T06:06:33.998Z</time></trkpt><trkpt lat="45.106029371590104" lon="10.06322977488714"><ele>34.666666666666664</ele><time>2026-04-19T06:06:34.998Z</time></trkpt><trkpt lat="45.10594810237767" lon="10.063098100117285"><ele>34.5</ele><time>2026-04-19T06:06:37.001Z</time></trkpt><trkpt lat="45.105903209631286" lon="10.063031528886363"><ele>34.333333333333336</ele><time>2026-04-19T06:06:38.001Z</time></trkpt><trkpt lat="45.105856588037646" lon="10.062963538276195"><ele>34.16666666666667</ele><time>2026-04-19T06:06:39.001Z</time></trkpt><trkpt lat="45.10582088940535" lon="10.062880463694738"><ele>34.0</ele><time>2026-04-19T06:06:40.001Z</time></trkpt><trkpt lat="45.10577383112421" lon="10.06280774136297"><ele>34.0</ele><time>2026-04-19T06:06:41Z</time></trkpt><trkpt lat="45.10572571013632" lon="10.062733376755107"><ele>34.0</ele><time>2026-04-19T06:06:42Z</time></trkpt><trkpt lat="45.10566518731849" lon="10.062668999090967"><ele>34.0</ele><time>2026-04-19T06:06:43Z</time></trkpt><trkpt lat="45.10561159821904" lon="10.06259061297828"><ele>34.0</ele><time>2026-04-19T06:06:44Z</time></trkpt><trkpt lat="45.10557225645718" lon="10.062493069976112"><ele>34.0</ele><time>2026-04-19T06:06:45Z</time></trkpt><trkpt lat="45.10551711825043" lon="10.062407086128916"><ele>34.0</ele><time>2026-04-19T06:06:46Z</time></trkpt><trkpt lat="45.10545704562541" lon="10.062325210849071"><ele>33.66666666666667</ele><time>2026-04-19T06:06:47Z</time></trkpt><trkpt lat="45.105393811728916" lon="10.062250476149014"><ele>33.333333333333336</ele><time>2026-04-19T06:06:48Z</time></trkpt><trkpt lat="45.10532388965436" lon="10.062182516224977"><ele>33.0</ele><time>2026-04-19T06:06:49Z</time></trkpt><trkpt lat="45.10525313245247" lon="10.062122967725562"><ele>32.666666666666664</ele><time>2026-04-19T06:06:50Z</time></trkpt><trkpt lat="45.10517828897766" lon="10.062070763846403"><ele>32.33333333333333</ele><time>2026-04-19T06:06:51Z</time></trkpt><trkpt lat="45.105100829826796" lon="10.062047363368285"><ele>32.0</ele><time>2026-04-19T06:06:52Z</time></trkpt><trkpt lat="45.10503164589738" lon="10.06200569116366"><ele>32.0</ele><time>2026-04-19T06:06:53Z</time></trkpt><trkpt lat="45.104957698440984" lon="10.061978580203267"><ele>31.999999999999996</ele><time>2026-04-19T06:06:54Z</time></trkpt><trkpt lat="45.10488449428947" lon="10.061964602228905"><ele>32.0</ele><time>2026-04-19T06:06:55Z</time></trkpt><trkpt lat="45.10481226184539" lon="10.061966885609387"><ele>32.0</ele><time>2026-04-19T06:06:56Z</time></trkpt><trkpt lat="45.104742783369545" lon="10.06197926895075"><ele>31.999999999999996</ele><time>2026-04-19T06:06:57Z</time></trkpt><trkpt lat="45.10467191919505" lon="10.062001026334915"><ele>32.0</ele><time>2026-04-19T06:06:58Z</time></trkpt><trkpt lat="45.10460590641136" lon="10.062032368196308"><ele>32.0</ele><time>2026-04-19T06:06:59Z</time></trkpt><trkpt lat="45.104539902288806" lon="10.062066055681939"><ele>32.0</ele><time>2026-04-19T06:07:00Z</time></trkpt><trkpt lat="45.1044761261226" lon="10.06210351799455"><ele>31.999999999999996</ele><time>2026-04-19T06:07:01Z</time></trkpt><trkpt lat="45.10440646806407" lon="10.062120169753085"><ele>32.0</ele><time>2026-04-19T06:07:02Z</time></trkpt><trkpt lat="45.10434350724153" lon="10.062156183780557"><ele>32.0</ele><time>2026-04-19T06:07:03Z</time></trkpt><trkpt lat="45.10428571361882" lon="10.062214907921986"><ele>31.999999999999996</ele><time>2026-04-19T06:07:04Z</time></trkpt><trkpt lat="45.10422156606657" lon="10.062251543529905"><ele>32.0</ele><time>2026-04-19T06:07:05Z</time></trkpt><trkpt lat="45.10415692801795" lon="10.06228883941745"><ele>32.0</ele><time>2026-04-19T06:07:06Z</time></trkpt><trkpt lat="45.10408607630907" lon="10.06230531988992"><ele>32.285714285714285</ele><time>2026-04-19T06:07:07Z</time></trkpt><trkpt lat="45.10402684227812" lon="10.062364950687753"><ele>32.57142857142857</ele><time>2026-04-19T06:07:08Z</time></trkpt><trkpt lat="45.10395603448976" lon="10.062380656271305"><ele>32.857142857142854</ele><time>2026-04-19T06:07:09Z</time></trkpt><trkpt lat="45.103891021933215" lon="10.062418319632998"><ele>33.14285714285714</ele><time>2026-04-19T06:07:10Z</time></trkpt><trkpt lat="45.10382687999562" lon="10.062454793287628"><ele>33.42857142857143</ele><time>2026-04-19T06:07:11Z</time></trkpt><trkpt lat="45.10376186036753" lon="10.06249177150792"><ele>33.71428571428571</ele><time>2026-04-19T06:07:12Z</time></trkpt><trkpt lat="45.10369629583535" lon="10.0625290596294"><ele>34.0</ele><time>2026-04-19T06:07:13Z</time></trkpt><trkpt lat="45.1036319079519" lon="10.062565678532998"><ele>34.0</ele><time>2026-04-19T06:07:14Z</time></trkpt><trkpt lat="45.103568897471455" lon="10.06260168875137"><ele>34.0</ele><time>2026-04-19T06:07:15Z</time></trkpt><trkpt lat="45.10351227788568" lon="10.062658281640651"><ele>34.0</ele><time>2026-04-19T06:07:16Z</time></trkpt><trkpt lat="45.10344666273704" lon="10.062689115977738"><ele>34.0</ele><time>2026-04-19T06:07:17Z</time></trkpt><trkpt lat="45.10338314597327" lon="10.062721927076158"><ele>34.0</ele><time>2026-04-19T06:07:18Z</time></trkpt><trkpt lat="45.103264920393556" lon="10.06269749193061"><ele>34.0</ele><time>2026-04-19T06:07:20Z</time></trkpt><trkpt lat="45.10324335977989" lon="10.062593263576376"><ele>33.99999999999999</ele><time>2026-04-19T06:07:21Z</time></trkpt><trkpt lat="45.10325661351741" lon="10.06250522350753"><ele>34.0</ele><time>2026-04-19T06:07:22Z</time></trkpt><trkpt lat="45.10325307598554" lon="10.062413630905905"><ele>34.0</ele><time>2026-04-19T06:07:23Z</time></trkpt><trkpt lat="45.10326152458967" lon="10.062316176842858"><ele>34.0</ele><time>2026-04-19T06:07:24Z</time></trkpt><trkpt lat="45.10328076341988" lon="10.06222037044421"><ele>34.0</ele><time>2026-04-19T06:07:25Z</time></trkpt><trkpt lat="45.10328401013256" lon="10.062121563784332"><ele>33.99999999999999</ele><time>2026-04-19T06:07:26Z</time></trkpt><trkpt lat="45.103276782947574" lon="10.06202187724363"><ele>34.0</ele><time>2026-04-19T06:07:27Z</time></trkpt><trkpt lat="45.1032844994645" lon="10.061921135189142"><ele>34.14285714285714</ele><time>2026-04-19T06:07:28Z</time></trkpt><trkpt lat="45.10328862509281" lon="10.061823042450213"><ele>34.285714285714285</ele><time>2026-04-19T06:07:29Z</time></trkpt><trkpt lat="45.10328924228349" lon="10.061722742310284"><ele>34.42857142857143</ele><time>2026-04-19T06:07:30Z</time></trkpt><trkpt lat="45.10328826922819" lon="10.061619967629714"><ele>34.57142857142857</ele><time>2026-04-19T06:07:31Z</time></trkpt><trkpt lat="45.103286291878206" lon="10.061519742933555"><ele>34.714285714285715</ele><time>2026-04-19T06:07:32Z</time></trkpt><trkpt lat="45.10328621211937" lon="10.061420092978878"><ele>34.857142857142854</ele><time>2026-04-19T06:07:33Z</time></trkpt><trkpt lat="45.10328869125519" lon="10.06131963318699"><ele>35.0</ele><time>2026-04-19T06:07:34Z</time></trkpt><trkpt lat="45.103290447940296" lon="10.06122069780644"><ele>35.142857142857146</ele><time>2026-04-19T06:07:34.999Z</time></trkpt><trkpt lat="45.10329050360435" lon="10.061119432296042"><ele>35.285714285714285</ele><time>2026-04-19T06:07:35.999Z</time></trkpt><trkpt lat="45.10329373874918" lon="10.061020132422913"><ele>35.42857142857143</ele><time>2026-04-19T06:07:36.999Z</time></trkpt><trkpt lat="45.10329316043191" lon="10.060917356042205"><ele>35.57142857142857</ele><time>2026-04-19T06:07:37.999Z</time></trkpt><trkpt lat="45.10329446291443" lon="10.060814570185173"><ele>35.714285714285715</ele><time>2026-04-19T06:07:38.999Z</time></trkpt><trkpt lat="45.10329733224627" lon="10.060710853356545"><ele>35.85714285714286</ele><time>2026-04-19T06:07:39.999Z</time></trkpt><trkpt lat="45.10330049200378" lon="10.060607178776227"><ele>36.0</ele><time>2026-04-19T06:07:40.999Z</time></trkpt><trkpt lat="45.10330584253437" lon="10.060502363973963"><ele>35.85714285714286</ele><time>2026-04-19T06:07:41.999Z</time></trkpt><trkpt lat="45.10330698842262" lon="10.06039820579605"><ele>35.714285714285715</ele><time>2026-04-19T06:07:42.999Z</time></trkpt><trkpt lat="45.1033090322086" lon="10.060293528997851"><ele>35.57142857142857</ele><time>2026-04-19T06:07:43.999Z</time></trkpt><trkpt lat="45.103307271227834" lon="10.060190120514452"><ele>35.42857142857143</ele><time>2026-04-19T06:07:44.999Z</time></trkpt><trkpt lat="45.10330815743907" lon="10.060086888387517"><ele>35.285714285714285</ele><time>2026-04-19T06:07:45.999Z</time></trkpt><trkpt lat="45.103310210125166" lon="10.05998166174336"><ele>35.142857142857146</ele><time>2026-04-19T06:07:46.999Z</time></trkpt><trkpt lat="45.103314001143225" lon="10.059878844615838"><ele>35.0</ele><time>2026-04-19T06:07:47.999Z</time></trkpt><trkpt lat="45.103317154101134" lon="10.059773089923782"><ele>35.0</ele><time>2026-04-19T06:07:48.999Z</time></trkpt><trkpt lat="45.10331648845223" lon="10.059669179199757"><ele>35.0</ele><time>2026-04-19T06:07:49.999Z</time></trkpt><trkpt lat="45.10331485836562" lon="10.059565259390597"><ele>35.0</ele><time>2026-04-19T06:07:50.999Z</time></trkpt><trkpt lat="45.10330904064086" lon="10.05946224286937"><ele>35.0</ele><time>2026-04-19T06:07:51.999Z</time></trkpt><trkpt lat="45.10331272485808" lon="10.059357860984976"><ele>35.0</ele><time>2026-04-19T06:07:52.999Z</time></trkpt><trkpt lat="45.10327532663183" lon="10.05925943801577"><ele>35.0</ele><time>2026-04-19T06:07:53.999Z</time></trkpt><trkpt lat="45.10322267687009" lon="10.059179318761156"><ele>35.166666666666664</ele><time>2026-04-19T06:07:54.999Z</time></trkpt><trkpt lat="45.103170826503806" lon="10.059109957469774"><ele>35.33333333333333</ele><time>2026-04-19T06:07:55.999Z</time></trkpt><trkpt lat="45.10307468360654" lon="10.059117543747229"><ele>35.5</ele><time>2026-04-19T06:07:56.999Z</time></trkpt><trkpt lat="45.10300060351693" lon="10.059105055464762"><ele>35.666666666666664</ele><time>2026-04-19T06:07:57.999Z</time></trkpt><trkpt lat="45.10293115384594" lon="10.059090183123207"><ele>35.833333333333336</ele><time>2026-04-19T06:07:58.999Z</time></trkpt><trkpt lat="45.1028643670875" lon="10.059065817637824"><ele>36.0</ele><time>2026-04-19T06:07:59.999Z</time></trkpt><trkpt lat="45.10280869853693" lon="10.058999980081397"><ele>36.166666666666664</ele><time>2026-04-19T06:08:00.999Z</time></trkpt><trkpt lat="45.102773846350246" lon="10.058899753698467"><ele>36.333333333333336</ele><time>2026-04-19T06:08:01.999Z</time></trkpt><trkpt lat="45.10276134738605" lon="10.058789618530481"><ele>36.5</ele><time>2026-04-19T06:08:02.999Z</time></trkpt><trkpt lat="45.10275090390252" lon="10.058686651990289"><ele>36.66666666666667</ele><time>2026-04-19T06:08:03.999Z</time></trkpt><trkpt lat="45.1027323731093" lon="10.05858484714882"><ele>36.833333333333336</ele><time>2026-04-19T06:08:04.999Z</time></trkpt><trkpt lat="45.10271541288404" lon="10.058480244422569"><ele>37.0</ele><time>2026-04-19T06:08:05.999Z</time></trkpt><trkpt lat="45.10269842648592" lon="10.058379829456724"><ele>37.42857142857143</ele><time>2026-04-19T06:08:06.999Z</time></trkpt><trkpt lat="45.10268043875524" lon="10.058279187299597"><ele>37.857142857142854</ele><time>2026-04-19T06:08:07.999Z</time></trkpt><trkpt lat="45.10265549348483" lon="10.058180870004668"><ele>38.285714285714285</ele><time>2026-04-19T06:08:08.999Z</time></trkpt><trkpt lat="45.10262903855506" lon="10.058079481795007"><ele>38.714285714285715</ele><time>2026-04-19T06:08:09.999Z</time></trkpt><trkpt lat="45.10260559475849" lon="10.057986012987993"><ele>39.142857142857146</ele><time>2026-04-19T06:08:10.999Z</time></trkpt><trkpt lat="45.102584188749006" lon="10.057892505906803"><ele>39.57142857142857</ele><time>2026-04-19T06:08:11.999Z</time></trkpt><trkpt lat="45.102562594331914" lon="10.057794167383063"><ele>40.0</ele><time>2026-04-19T06:08:12.999Z</time></trkpt><trkpt lat="45.10253385637813" lon="10.057701329685136"><ele>40.0</ele><time>2026-04-19T06:08:13.999Z</time></trkpt><trkpt lat="45.102507819223916" lon="10.057605638890283"><ele>40.0</ele><time>2026-04-19T06:08:14.999Z</time></trkpt><trkpt lat="45.102470149050184" lon="10.057516382375052"><ele>40.0</ele><time>2026-04-19T06:08:15.999Z</time></trkpt><trkpt lat="45.10243596343801" lon="10.057426856404104"><ele>40.0</ele><time>2026-04-19T06:08:16.999Z</time></trkpt><trkpt lat="45.10240404958147" lon="10.057334524299392"><ele>40.0</ele><time>2026-04-19T06:08:17.999Z</time></trkpt><trkpt lat="45.10237721154649" lon="10.057238868173497"><ele>40.0</ele><time>2026-04-19T06:08:18.999Z</time></trkpt><trkpt lat="45.10235024024605" lon="10.057142832099602"><ele>40.0</ele><time>2026-04-19T06:08:19.999Z</time></trkpt><trkpt lat="45.10231616922522" lon="10.057052044290963"><ele>39.714285714285715</ele><time>2026-04-19T06:08:20.999Z</time></trkpt><trkpt lat="45.10228241631971" lon="10.056959339040825"><ele>39.42857142857143</ele><time>2026-04-19T06:08:21.999Z</time></trkpt><trkpt lat="45.102248030727424" lon="10.056866615363594"><ele>39.14285714285714</ele><time>2026-04-19T06:08:22.999Z</time></trkpt><trkpt lat="45.10221776078437" lon="10.056774785325024"><ele>38.85714285714286</ele><time>2026-04-19T06:08:23.999Z</time></trkpt><trkpt lat="45.10218709366702" lon="10.056679628174443"><ele>38.57142857142858</ele><time>2026-04-19T06:08:24.999Z</time></trkpt><trkpt lat="45.102152307967984" lon="10.056585389770419"><ele>38.285714285714285</ele><time>2026-04-19T06:08:25.999Z</time></trkpt><trkpt lat="45.10212037767481" lon="10.056492721586041"><ele>38.0</ele><time>2026-04-19T06:08:26.999Z</time></trkpt><trkpt lat="45.10209038826908" lon="10.056399002786142"><ele>37.714285714285715</ele><time>2026-04-19T06:08:27.999Z</time></trkpt><trkpt lat="45.1020621268447" lon="10.05630480323978"><ele>37.42857142857143</ele><time>2026-04-19T06:08:28.999Z</time></trkpt><trkpt lat="45.10203395911952" lon="10.056210756366784"><ele>37.142857142857146</ele><time>2026-04-19T06:08:29.999Z</time></trkpt><trkpt lat="45.1020053566879" lon="10.056112476188591"><ele>36.85714285714286</ele><time>2026-04-19T06:08:30.998Z</time></trkpt><trkpt lat="45.10197163966926" lon="10.056017639687141"><ele>36.57142857142857</ele><time>2026-04-19T06:08:31.998Z</time></trkpt><trkpt lat="45.101933694205314" lon="10.055924593148749"><ele>36.28571428571429</ele><time>2026-04-19T06:08:32.998Z</time></trkpt><trkpt lat="45.10190315011967" lon="10.055827682871893"><ele>36.0</ele><time>2026-04-19T06:08:33.998Z</time></trkpt><trkpt lat="45.10187094884418" lon="10.055732884697447"><ele>35.714285714285715</ele><time>2026-04-19T06:08:34.998Z</time></trkpt><trkpt lat="45.10183982821026" lon="10.055636949014296"><ele>35.42857142857143</ele><time>2026-04-19T06:08:35.998Z</time></trkpt><trkpt lat="45.101808557755334" lon="10.055540958141009"><ele>35.14285714285714</ele><time>2026-04-19T06:08:36.998Z</time></trkpt><trkpt lat="45.10177406288957" lon="10.055448836974657"><ele>34.85714285714286</ele><time>2026-04-19T06:08:37.998Z</time></trkpt><trkpt lat="45.10174118867166" lon="10.055355138806485"><ele>34.57142857142857</ele><time>2026-04-19T06:08:38.998Z</time></trkpt><trkpt lat="45.10170859245879" lon="10.055260538636983"><ele>34.285714285714285</ele><time>2026-04-19T06:08:39.998Z</time></trkpt><trkpt lat="45.10167540651437" lon="10.05516684595175"><ele>34.0</ele><time>2026-04-19T06:08:40.998Z</time></trkpt><trkpt lat="45.10164406888049" lon="10.05507259492868"><ele>33.99999999999999</ele><time>2026-04-19T06:08:42Z</time></trkpt><trkpt lat="45.10161359213423" lon="10.054978628632266"><ele>34.0</ele><time>2026-04-19T06:08:43Z</time></trkpt><trkpt lat="45.10159784482422" lon="10.054873897310243"><ele>34.0</ele><time>2026-04-19T06:08:44Z</time></trkpt><trkpt lat="45.101555918815635" lon="10.054789092270585"><ele>34.0</ele><time>2026-04-19T06:08:45Z</time></trkpt><trkpt lat="45.10152453212559" lon="10.054694823709308"><ele>34.0</ele><time>2026-04-19T06:08:46Z</time></trkpt><trkpt lat="45.10149360882251" lon="10.054598262755606"><ele>33.99999999999999</ele><time>2026-04-19T06:08:47Z</time></trkpt><trkpt lat="45.10146487176765" lon="10.05450377727844"><ele>34.0</ele><time>2026-04-19T06:08:48Z</time></trkpt><trkpt lat="45.101436897000006" lon="10.054408175541608"><ele>34.14285714285714</ele><time>2026-04-19T06:08:49Z</time></trkpt><trkpt lat="45.101410153085176" lon="10.054308171164537"><ele>34.285714285714285</ele><time>2026-04-19T06:08:50Z</time></trkpt><trkpt lat="45.10140294768641" lon="10.054202925831563"><ele>34.42857142857143</ele><time>2026-04-19T06:08:51Z</time></trkpt><trkpt lat="45.10138829776753" lon="10.054102708383153"><ele>34.57142857142857</ele><time>2026-04-19T06:08:52Z</time></trkpt><trkpt lat="45.101382528133406" lon="10.05400070047365"><ele>34.714285714285715</ele><time>2026-04-19T06:08:53Z</time></trkpt><trkpt lat="45.10136929927" lon="10.053898232381577"><ele>34.857142857142854</ele><time>2026-04-19T06:08:54Z</time></trkpt><trkpt lat="45.101373086815244" lon="10.053792721124468"><ele>35.0</ele><time>2026-04-19T06:08:55Z</time></trkpt><trkpt lat="45.10137984403531" lon="10.05369026356889"><ele>35.0</ele><time>2026-04-19T06:08:56Z</time></trkpt><trkpt lat="45.10138550932491" lon="10.053589443067882"><ele>35.0</ele><time>2026-04-19T06:08:57Z</time></trkpt><trkpt lat="45.10139383609279" lon="10.053486664892118"><ele>35.0</ele><time>2026-04-19T06:08:58Z</time></trkpt><trkpt lat="45.10140215188112" lon="10.053383163664202"><ele>35.0</ele><time>2026-04-19T06:08:59Z</time></trkpt><trkpt lat="45.10140838147636" lon="10.053281996085078"><ele>35.0</ele><time>2026-04-19T06:09:00Z</time></trkpt><trkpt lat="45.101414935916196" lon="10.053179267618852"><ele>35.0</ele><time>2026-04-19T06:09:01Z</time></trkpt><trkpt lat="45.101423638576556" lon="10.053075488943128"><ele>35.0</ele><time>2026-04-19T06:09:02Z</time></trkpt><trkpt lat="45.1014337190921" lon="10.052976412644156"><ele>35.0</ele><time>2026-04-19T06:09:03Z</time></trkpt><trkpt lat="45.10144391749393" lon="10.052873575904636"><ele>35.0</ele><time>2026-04-19T06:09:04Z</time></trkpt><trkpt lat="45.101452502922044" lon="10.05276945226668"><ele>35.0</ele><time>2026-04-19T06:09:05Z</time></trkpt><trkpt lat="45.10145964779855" lon="10.052668418269281"><ele>35.0</ele><time>2026-04-19T06:09:06Z</time></trkpt><trkpt lat="45.10146628767899" lon="10.052566351108522"><ele>35.0</ele><time>2026-04-19T06:09:07Z</time></trkpt><trkpt lat="45.10147434797886" lon="10.052462285622996"><ele>35.0</ele><time>2026-04-19T06:09:08Z</time></trkpt><trkpt lat="45.10148121366962" lon="10.052361416736169"><ele>35.0</ele><time>2026-04-19T06:09:09Z</time></trkpt><trkpt lat="45.101492318113394" lon="10.052259757619783"><ele>35.142857142857146</ele><time>2026-04-19T06:09:10Z</time></trkpt><trkpt lat="45.10150263307575" lon="10.052158851679193"><ele>35.285714285714285</ele><time>2026-04-19T06:09:11Z</time></trkpt><trkpt lat="45.101510629913555" lon="10.052057533209679"><ele>35.42857142857143</ele><time>2026-04-19T06:09:12Z</time></trkpt><trkpt lat="45.101520564676015" lon="10.051956830009955"><ele>35.57142857142857</ele><time>2026-04-19T06:09:13Z</time></trkpt><trkpt lat="45.10152721101693" lon="10.051854570460188"><ele>35.714285714285715</ele><time>2026-04-19T06:09:14Z</time></trkpt><trkpt lat="45.10153601677303" lon="10.051753501057535"><ele>35.85714285714286</ele><time>2026-04-19T06:09:15Z</time></trkpt><trkpt lat="45.10154376266156" lon="10.051650752363528"><ele>36.0</ele><time>2026-04-19T06:09:16Z</time></trkpt><trkpt lat="45.10155325629586" lon="10.051552027689501"><ele>36.166666666666664</ele><time>2026-04-19T06:09:17Z</time></trkpt><trkpt lat="45.101561612062426" lon="10.051451994701003"><ele>36.333333333333336</ele><time>2026-04-19T06:09:18Z</time></trkpt><trkpt lat="45.10156684710571" lon="10.051355004402376"><ele>36.5</ele><time>2026-04-19T06:09:19Z</time></trkpt><trkpt lat="45.101572969214274" lon="10.051261028788169"><ele>36.66666666666667</ele><time>2026-04-19T06:09:20Z</time></trkpt><trkpt lat="45.10158877003688" lon="10.051172749700335"><ele>36.833333333333336</ele><time>2026-04-19T06:09:21Z</time></trkpt><trkpt lat="45.101653993241115" lon="10.051034577356813"><ele>37.0</ele><time>2026-04-19T06:09:23Z</time></trkpt><trkpt lat="45.10177918998825" lon="10.05103259485137"><ele>37.0</ele><time>2026-04-19T06:09:25Z</time></trkpt><trkpt lat="45.1018430527301" lon="10.051045360303014"><ele>37.0</ele><time>2026-04-19T06:09:26Z</time></trkpt><trkpt lat="45.101907976520245" lon="10.051054638296378"><ele>37.0</ele><time>2026-04-19T06:09:27Z</time></trkpt><trkpt lat="45.10197369655568" lon="10.051059587921488"><ele>37.0</ele><time>2026-04-19T06:09:28Z</time></trkpt><trkpt lat="45.102040576619444" lon="10.051066263272343"><ele>37.0</ele><time>2026-04-19T06:09:29Z</time></trkpt><trkpt lat="45.10211011185436" lon="10.051071664031197"><ele>37.0</ele><time>2026-04-19T06:09:30Z</time></trkpt><trkpt lat="45.10217958146605" lon="10.051074522754622"><ele>37.0</ele><time>2026-04-19T06:09:31Z</time></trkpt><trkpt lat="45.102251671187865" lon="10.051079539952871"><ele>37.0</ele><time>2026-04-19T06:09:32Z</time></trkpt><trkpt lat="45.102321921216024" lon="10.051081963232015"><ele>37.0</ele><time>2026-04-19T06:09:33Z</time></trkpt><trkpt lat="45.102394972308815" lon="10.051088636581971"><ele>37.0</ele><time>2026-04-19T06:09:34Z</time></trkpt><trkpt lat="45.10246763818665" lon="10.051099340609396"><ele>37.0</ele><time>2026-04-19T06:09:34.999Z</time></trkpt><trkpt lat="45.102543786207306" lon="10.051115034554224"><ele>37.0</ele><time>2026-04-19T06:09:35.999Z</time></trkpt><trkpt lat="45.10261715177921" lon="10.05112775854919"><ele>37.0</ele><time>2026-04-19T06:09:37Z</time></trkpt><trkpt lat="45.10269171900424" lon="10.051137961573184"><ele>37.0</ele><time>2026-04-19T06:09:37.999Z</time></trkpt><trkpt lat="45.10276556650859" lon="10.051146288217229"><ele>36.714285714285715</ele><time>2026-04-19T06:09:38.999Z</time></trkpt><trkpt lat="45.102839493855875" lon="10.051155466119932"><ele>36.42857142857143</ele><time>2026-04-19T06:09:39.999Z</time></trkpt><trkpt lat="45.10291339967936" lon="10.051165045866181"><ele>36.14285714285714</ele><time>2026-04-19T06:09:40.999Z</time></trkpt><trkpt lat="45.102987582633155" lon="10.05117759389729"><ele>35.85714285714286</ele><time>2026-04-19T06:09:41.999Z</time></trkpt><trkpt lat="45.10305987435825" lon="10.051187253504633"><ele>35.57142857142857</ele><time>2026-04-19T06:09:42.999Z</time></trkpt><trkpt lat="45.10313394580241" lon="10.051197899038495"><ele>35.285714285714285</ele><time>2026-04-19T06:09:43.999Z</time></trkpt><trkpt lat="45.10320801807906" lon="10.051210009869713"><ele>35.0</ele><time>2026-04-19T06:09:44.999Z</time></trkpt><trkpt lat="45.10328075682594" lon="10.051221352762605"><ele>34.857142857142854</ele><time>2026-04-19T06:09:45.999Z</time></trkpt><trkpt lat="45.10335306671765" lon="10.051233656858779"><ele>34.714285714285715</ele><time>2026-04-19T06:09:46.999Z</time></trkpt><trkpt lat="45.103424938499245" lon="10.051245694162695"><ele>34.57142857142857</ele><time>2026-04-19T06:09:47.999Z</time></trkpt><trkpt lat="45.103499011171934" lon="10.051258683103127"><ele>34.42857142857143</ele><time>2026-04-19T06:09:48.999Z</time></trkpt><trkpt lat="45.10356837954799" lon="10.051268302595561"><ele>34.285714285714285</ele><time>2026-04-19T06:09:49.999Z</time></trkpt><trkpt lat="45.103641574460205" lon="10.05127977753223"><ele>34.14285714285714</ele><time>2026-04-19T06:09:50.999Z</time></trkpt><trkpt lat="45.10371464806404" lon="10.051295384626894"><ele>34.0</ele><time>2026-04-19T06:09:51.999Z</time></trkpt><trkpt lat="45.10378673643414" lon="10.051307902754836"><ele>33.99999999999999</ele><time>2026-04-19T06:09:52.999Z</time></trkpt><trkpt lat="45.10386057807994" lon="10.05131998522599"><ele>34.0</ele><time>2026-04-19T06:09:53.999Z</time></trkpt><trkpt lat="45.103935009592725" lon="10.05133248398916"><ele>34.0</ele><time>2026-04-19T06:09:54.999Z</time></trkpt><trkpt lat="45.10400655436401" lon="10.051343291202704"><ele>34.0</ele><time>2026-04-19T06:09:55.999Z</time></trkpt><trkpt lat="45.10408022858463" lon="10.051358454332632"><ele>34.0</ele><time>2026-04-19T06:09:56.999Z</time></trkpt><trkpt lat="45.104151362882625" lon="10.05137718401556"><ele>33.99999999999999</ele><time>2026-04-19T06:09:57.999Z</time></trkpt><trkpt lat="45.10422500604958" lon="10.051395052084915"><ele>34.0</ele><time>2026-04-19T06:09:58.999Z</time></trkpt><trkpt lat="45.104296033364776" lon="10.051410715936875"><ele>33.857142857142854</ele><time>2026-04-19T06:09:59.999Z</time></trkpt><trkpt lat="45.10436922904918" lon="10.051426648776506"><ele>33.714285714285715</ele><time>2026-04-19T06:10:00.999Z</time></trkpt><trkpt lat="45.104439984663756" lon="10.051443624551247"><ele>33.57142857142857</ele><time>2026-04-19T06:10:01.999Z</time></trkpt><trkpt lat="45.10450990699619" lon="10.051457356133415"><ele>33.42857142857143</ele><time>2026-04-19T06:10:02.999Z</time></trkpt><trkpt lat="45.104583727002904" lon="10.05146911321396"><ele>33.285714285714285</ele><time>2026-04-19T06:10:03.999Z</time></trkpt><trkpt lat="45.10465484538015" lon="10.051479254162192"><ele>33.14285714285714</ele><time>2026-04-19T06:10:04.999Z</time></trkpt><trkpt lat="45.10472498613523" lon="10.051484206747068"><ele>33.0</ele><time>2026-04-19T06:10:05.999Z</time></trkpt><trkpt lat="45.10479316844027" lon="10.051490201087827"><ele>33.0</ele><time>2026-04-19T06:10:06.999Z</time></trkpt><trkpt lat="45.10486488461797" lon="10.051495415342588"><ele>33.0</ele><time>2026-04-19T06:10:07.999Z</time></trkpt><trkpt lat="45.10493465370516" lon="10.051496912931642"><ele>33.0</ele><time>2026-04-19T06:10:08.999Z</time></trkpt><trkpt lat="45.105001836193125" lon="10.051488645168622"><ele>33.0</ele><time>2026-04-19T06:10:09.999Z</time></trkpt><trkpt lat="45.105066898726" lon="10.051484519862468"><ele>33.0</ele><time>2026-04-19T06:10:10.999Z</time></trkpt><trkpt lat="45.10513234835483" lon="10.051478090269903"><ele>33.0</ele><time>2026-04-19T06:10:11.999Z</time></trkpt><trkpt lat="45.10522744412642" lon="10.051368760477326"><ele>33.0</ele><time>2026-04-19T06:10:13.999Z</time></trkpt><trkpt lat="45.10524295126643" lon="10.051271981213391"><ele>33.0</ele><time>2026-04-19T06:10:14.999Z</time></trkpt><trkpt lat="45.10524286318499" lon="10.051164652038288"><ele>33.0</ele><time>2026-04-19T06:10:15.999Z</time></trkpt><trkpt lat="45.10523915300131" lon="10.051062283655993"><ele>33.0</ele><time>2026-04-19T06:10:16.999Z</time></trkpt><trkpt lat="45.10523538229374" lon="10.050958712021421"><ele>33.0</ele><time>2026-04-19T06:10:17.999Z</time></trkpt><trkpt lat="45.10523242813182" lon="10.05085541202207"><ele>33.0</ele><time>2026-04-19T06:10:18.999Z</time></trkpt><trkpt lat="45.10523193609133" lon="10.050750558761218"><ele>33.0</ele><time>2026-04-19T06:10:19.999Z</time></trkpt><trkpt lat="45.10522992393922" lon="10.050650368651919"><ele>33.0</ele><time>2026-04-19T06:10:20.999Z</time></trkpt><trkpt lat="45.10522907614296" lon="10.050545740360235"><ele>33.0</ele><time>2026-04-19T06:10:21.999Z</time></trkpt><trkpt lat="45.105227307749864" lon="10.050446481277618"><ele>33.0</ele><time>2026-04-19T06:10:22.999Z</time></trkpt><trkpt lat="45.10522766180773" lon="10.050345330077842"><ele>33.0</ele><time>2026-04-19T06:10:23.999Z</time></trkpt><trkpt lat="45.10522670976478" lon="10.050244403365518"><ele>33.0</ele><time>2026-04-19T06:10:24.999Z</time></trkpt><trkpt lat="45.105227094284764" lon="10.050142253405902"><ele>33.0</ele><time>2026-04-19T06:10:25.999Z</time></trkpt><trkpt lat="45.10522615947921" lon="10.050043028903499"><ele>33.0</ele><time>2026-04-19T06:10:26.999Z</time></trkpt><trkpt lat="45.105225325800916" lon="10.049939710554439"><ele>33.0</ele><time>2026-04-19T06:10:27.999Z</time></trkpt><trkpt lat="45.105226076064355" lon="10.049838983574986"><ele>33.0</ele><time>2026-04-19T06:10:28.998Z</time></trkpt><trkpt lat="45.1052255717597" lon="10.049738262928797"><ele>33.0</ele><time>2026-04-19T06:10:29.998Z</time></trkpt><trkpt lat="45.10522408740625" lon="10.049636416470628"><ele>33.0</ele><time>2026-04-19T06:10:30.998Z</time></trkpt><trkpt lat="45.1052204762778" lon="10.04953220835533"><ele>33.0</ele><time>2026-04-19T06:10:31.998Z</time></trkpt><trkpt lat="45.10521394479512" lon="10.04943174931841"><ele>33.0</ele><time>2026-04-19T06:10:32.998Z</time></trkpt><trkpt lat="45.10520874478757" lon="10.04932858787153"><ele>33.0</ele><time>2026-04-19T06:10:33.998Z</time></trkpt><trkpt lat="45.10520428089997" lon="10.049227961839506"><ele>33.0</ele><time>2026-04-19T06:10:34.998Z</time></trkpt><trkpt lat="45.10519982789809" lon="10.049125900243686"><ele>33.0</ele><time>2026-04-19T06:10:35.998Z</time></trkpt><trkpt lat="45.1051911214567" lon="10.0490260221774"><ele>33.0</ele><time>2026-04-19T06:10:36.998Z</time></trkpt><trkpt lat="45.10518208980999" lon="10.048924567897101"><ele>33.0</ele><time>2026-04-19T06:10:37.998Z</time></trkpt><trkpt lat="45.10517117370854" lon="10.048825390173066"><ele>33.0</ele><time>2026-04-19T06:10:38.998Z</time></trkpt><trkpt lat="45.1051616130194" lon="10.048723853871167"><ele>33.0</ele><time>2026-04-19T06:10:39.998Z</time></trkpt><trkpt lat="45.10515166659847" lon="10.048621202203483"><ele>33.0</ele><time>2026-04-19T06:10:40.998Z</time></trkpt><trkpt lat="45.10514002623214" lon="10.048520366680991"><ele>33.285714285714285</ele><time>2026-04-19T06:10:41.998Z</time></trkpt><trkpt lat="45.10512632091997" lon="10.048421468966078"><ele>33.57142857142857</ele><time>2026-04-19T06:10:42.998Z</time></trkpt><trkpt lat="45.10511575490888" lon="10.048319296566342"><ele>33.85714285714286</ele><time>2026-04-19T06:10:43.998Z</time></trkpt><trkpt lat="45.105102722077355" lon="10.048220714475852"><ele>34.14285714285714</ele><time>2026-04-19T06:10:44.998Z</time></trkpt><trkpt lat="45.10509114509455" lon="10.04811969073575"><ele>34.42857142857143</ele><time>2026-04-19T06:10:45.998Z</time></trkpt><trkpt lat="45.10507877494551" lon="10.048021443628999"><ele>34.714285714285715</ele><time>2026-04-19T06:10:47Z</time></trkpt><trkpt lat="45.10506455486796" lon="10.047923957202995"><ele>35.0</ele><time>2026-04-19T06:10:48Z</time></trkpt><trkpt lat="45.10504842731773" lon="10.047826111000246"><ele>35.0</ele><time>2026-04-19T06:10:49Z</time></trkpt><trkpt lat="45.10502680586117" lon="10.04773507155254"><ele>35.0</ele><time>2026-04-19T06:10:50Z</time></trkpt><trkpt lat="45.105003134715716" lon="10.047642191388993"><ele>35.0</ele><time>2026-04-19T06:10:51Z</time></trkpt><trkpt lat="45.104982101757884" lon="10.047551666187932"><ele>35.0</ele><time>2026-04-19T06:10:52Z</time></trkpt><trkpt lat="45.10495855087211" lon="10.047461499173405"><ele>35.0</ele><time>2026-04-19T06:10:53Z</time></trkpt><trkpt lat="45.1049342044962" lon="10.047372283360357"><ele>35.0</ele><time>2026-04-19T06:10:54Z</time></trkpt><trkpt lat="45.10491429001329" lon="10.047279515084526"><ele>35.0</ele><time>2026-04-19T06:10:55Z</time></trkpt><trkpt lat="45.104892848963296" lon="10.047187145426978"><ele>34.714285714285715</ele><time>2026-04-19T06:10:56Z</time></trkpt><trkpt lat="45.10487088927879" lon="10.047093240844589"><ele>34.42857142857143</ele><time>2026-04-19T06:10:57Z</time></trkpt><trkpt lat="45.10484818153939" lon="10.046999612131106"><ele>34.14285714285714</ele><time>2026-04-19T06:10:58Z</time></trkpt><trkpt lat="45.104825057732306" lon="10.046903053368693"><ele>33.85714285714286</ele><time>2026-04-19T06:10:59Z</time></trkpt><trkpt lat="45.10480221979255" lon="10.046808329367392"><ele>33.57142857142857</ele><time>2026-04-19T06:11:00Z</time></trkpt><trkpt lat="45.10478094183987" lon="10.046709389688314"><ele>33.285714285714285</ele><time>2026-04-19T06:11:01Z</time></trkpt><trkpt lat="45.104759131053385" lon="10.046611076697296"><ele>33.0</ele><time>2026-04-19T06:11:02Z</time></trkpt><trkpt lat="45.10473776337062" lon="10.046517767593755"><ele>33.0</ele><time>2026-04-19T06:11:03Z</time></trkpt><trkpt lat="45.10471589143983" lon="10.046417479282484"><ele>33.0</ele><time>2026-04-19T06:11:04Z</time></trkpt><trkpt lat="45.1046920913993" lon="10.04632182905607"><ele>33.0</ele><time>2026-04-19T06:11:05Z</time></trkpt><trkpt lat="45.10467070408766" lon="10.046223332270683"><ele>33.0</ele><time>2026-04-19T06:11:06Z</time></trkpt><trkpt lat="45.10464981496651" lon="10.046125463322165"><ele>33.0</ele><time>2026-04-19T06:11:07Z</time></trkpt><trkpt lat="45.104627641883404" lon="10.046028766813054"><ele>33.0</ele><time>2026-04-19T06:11:08Z</time></trkpt><trkpt lat="45.1046050152315" lon="10.045931467918429"><ele>33.0</ele><time>2026-04-19T06:11:09Z</time></trkpt><trkpt lat="45.10458232862654" lon="10.045834698570427"><ele>33.285714285714285</ele><time>2026-04-19T06:11:10Z</time></trkpt><trkpt lat="45.10456095322697" lon="10.045736722218656"><ele>33.57142857142857</ele><time>2026-04-19T06:11:11Z</time></trkpt><trkpt lat="45.104538500634085" lon="10.045639266197314"><ele>33.85714285714286</ele><time>2026-04-19T06:11:12Z</time></trkpt><trkpt lat="45.1045156781209" lon="10.045543550050681"><ele>34.14285714285714</ele><time>2026-04-19T06:11:13Z</time></trkpt><trkpt lat="45.1044947363034" lon="10.045446584386324"><ele>34.42857142857143</ele><time>2026-04-19T06:11:14Z</time></trkpt><trkpt lat="45.10447338578721" lon="10.045352828104786"><ele>34.714285714285715</ele><time>2026-04-19T06:11:15Z</time></trkpt><trkpt lat="45.104453015944124" lon="10.045255539670993"><ele>35.0</ele><time>2026-04-19T06:11:16Z</time></trkpt><trkpt lat="45.10443136165753" lon="10.045161066588538"><ele>35.0</ele><time>2026-04-19T06:11:17Z</time></trkpt><trkpt lat="45.10440932432089" lon="10.045066651490234"><ele>35.0</ele><time>2026-04-19T06:11:18Z</time></trkpt><trkpt lat="45.104386627307164" lon="10.044972065905583"><ele>35.0</ele><time>2026-04-19T06:11:19Z</time></trkpt><trkpt lat="45.10436504207397" lon="10.044879794957579"><ele>35.0</ele><time>2026-04-19T06:11:20Z</time></trkpt><trkpt lat="45.10434201330322" lon="10.044785852512462"><ele>35.0</ele><time>2026-04-19T06:11:21Z</time></trkpt><trkpt lat="45.10431977481049" lon="10.044691981803801"><ele>35.0</ele><time>2026-04-19T06:11:22Z</time></trkpt><trkpt lat="45.10429960530811" lon="10.044599939126185"><ele>35.0</ele><time>2026-04-19T06:11:23Z</time></trkpt><trkpt lat="45.10429353587644" lon="10.04450066342177"><ele>35.142857142857146</ele><time>2026-04-19T06:11:24Z</time></trkpt><trkpt lat="45.10425738941039" lon="10.04441579948582"><ele>35.285714285714285</ele><time>2026-04-19T06:11:25Z</time></trkpt><trkpt lat="45.10423543436598" lon="10.044322211492759"><ele>35.42857142857143</ele><time>2026-04-19T06:11:26Z</time></trkpt><trkpt lat="45.10421164548934" lon="10.044229200998375"><ele>35.57142857142857</ele><time>2026-04-19T06:11:27Z</time></trkpt><trkpt lat="45.10418529573161" lon="10.044138651888497"><ele>35.714285714285715</ele><time>2026-04-19T06:11:28Z</time></trkpt><trkpt lat="45.10415825431149" lon="10.044051196567361"><ele>35.85714285714286</ele><time>2026-04-19T06:11:29Z</time></trkpt><trkpt lat="45.10412924586958" lon="10.043965564530074"><ele>36.0</ele><time>2026-04-19T06:11:30Z</time></trkpt><trkpt lat="45.10409882877232" lon="10.04388028529977"><ele>36.0</ele><time>2026-04-19T06:11:31Z</time></trkpt><trkpt lat="45.104068941890056" lon="10.0437962324382"><ele>36.0</ele><time>2026-04-19T06:11:32Z</time></trkpt><trkpt lat="45.10404171602013" lon="10.043713666321912"><ele>36.0</ele><time>2026-04-19T06:11:33Z</time></trkpt><trkpt lat="45.10401364231038" lon="10.04363361730398"><ele>36.0</ele><time>2026-04-19T06:11:34Z</time></trkpt><trkpt lat="45.10395207339881" lon="10.043478611124137"><ele>36.0</ele><time>2026-04-19T06:11:36Z</time></trkpt><trkpt lat="45.103908171467666" lon="10.043327837161877"><ele>36.0</ele><time>2026-04-19T06:11:37.999Z</time></trkpt><trkpt lat="45.10398685380272" lon="10.04320746992228"><ele>36.0</ele><time>2026-04-19T06:11:39.999Z</time></trkpt><trkpt lat="45.10405297632827" lon="10.043063368427337"><ele>36.0</ele><time>2026-04-19T06:11:41.999Z</time></trkpt><trkpt lat="45.10413667424173" lon="10.042939373283172"><ele>36.0</ele><time>2026-04-19T06:11:43.999Z</time></trkpt><trkpt lat="45.10421494494064" lon="10.042803729983522"><ele>36.0</ele><time>2026-04-19T06:11:45.999Z</time></trkpt><trkpt lat="45.104291004873126" lon="10.042668156099365"><ele>36.166666666666664</ele><time>2026-04-19T06:11:47.999Z</time></trkpt><trkpt lat="45.10437091364045" lon="10.042538853749798"><ele>36.333333333333336</ele><time>2026-04-19T06:11:49.999Z</time></trkpt><trkpt lat="45.104413777844265" lon="10.042469209931218"><ele>36.5</ele><time>2026-04-19T06:11:50.999Z</time></trkpt><trkpt lat="45.10445767621081" lon="10.042398187207734"><ele>36.66666666666667</ele><time>2026-04-19T06:11:51.999Z</time></trkpt><trkpt lat="45.10450335171739" lon="10.042324411193476"><ele>36.833333333333336</ele><time>2026-04-19T06:11:52.999Z</time></trkpt><trkpt lat="45.10454833516154" lon="10.042246634463202"><ele>37.0</ele><time>2026-04-19T06:11:53.999Z</time></trkpt><trkpt lat="45.10459225487044" lon="10.042169448903284"><ele>37.0</ele><time>2026-04-19T06:11:54.999Z</time></trkpt><trkpt lat="45.10463847445197" lon="10.042091104148232"><ele>37.0</ele><time>2026-04-19T06:11:55.999Z</time></trkpt><trkpt lat="45.104683347634584" lon="10.042013528442078"><ele>37.0</ele><time>2026-04-19T06:11:56.999Z</time></trkpt><trkpt lat="45.10472752522825" lon="10.041936782189257"><ele>37.0</ele><time>2026-04-19T06:11:57.999Z</time></trkpt><trkpt lat="45.10477254587667" lon="10.04185813022855"><ele>37.0</ele><time>2026-04-19T06:11:58.999Z</time></trkpt><trkpt lat="45.10481536718014" lon="10.041781414783543"><ele>37.0</ele><time>2026-04-19T06:11:59.999Z</time></trkpt><trkpt lat="45.10485761219802" lon="10.041705017650976"><ele>37.0</ele><time>2026-04-19T06:12:00.999Z</time></trkpt><trkpt lat="45.10490033068014" lon="10.041629102054658"><ele>37.16666666666667</ele><time>2026-04-19T06:12:01.999Z</time></trkpt><trkpt lat="45.10494295982634" lon="10.041561179434249"><ele>37.333333333333336</ele><time>2026-04-19T06:12:02.999Z</time></trkpt><trkpt lat="45.10501843524317" lon="10.041430046055739"><ele>37.5</ele><time>2026-04-19T06:12:04.999Z</time></trkpt><trkpt lat="45.10508962924358" lon="10.041297404382787"><ele>37.666666666666664</ele><time>2026-04-19T06:12:06.999Z</time></trkpt><trkpt lat="45.10513356645193" lon="10.041227880333077"><ele>37.83333333333333</ele><time>2026-04-19T06:12:07.999Z</time></trkpt><trkpt lat="45.10517847094513" lon="10.041157526293153"><ele>38.0</ele><time>2026-04-19T06:12:08.999Z</time></trkpt><trkpt lat="45.10523587245564" lon="10.041061280685197"><ele>38.0</ele><time>2026-04-19T06:12:10.999Z</time></trkpt><trkpt lat="45.1050910512128" lon="10.040926787091374"><ele>38.0</ele><time>2026-04-19T06:12:12.999Z</time></trkpt><trkpt lat="45.10497786163982" lon="10.040878893487868"><ele>38.0</ele><time>2026-04-19T06:12:14.999Z</time></trkpt><trkpt lat="45.10485952162801" lon="10.040834955824957"><ele>38.0</ele><time>2026-04-19T06:12:16.999Z</time></trkpt><trkpt lat="45.10473668223398" lon="10.040793805514813"><ele>38.14285714285714</ele><time>2026-04-19T06:12:18.999Z</time></trkpt><trkpt lat="45.104674387416765" lon="10.04077247392847"><ele>38.28571428571429</ele><time>2026-04-19T06:12:19.999Z</time></trkpt><trkpt lat="45.10461289075769" lon="10.040751415653673"><ele>38.42857142857143</ele><time>2026-04-19T06:12:20.999Z</time></trkpt><trkpt lat="45.10449227331863" lon="10.040709648174836"><ele>38.57142857142857</ele><time>2026-04-19T06:12:22.999Z</time></trkpt><trkpt lat="45.10443019605914" lon="10.040687893864217"><ele>38.71428571428571</ele><time>2026-04-19T06:12:23.999Z</time></trkpt><trkpt lat="45.10436804874148" lon="10.040666115008483"><ele>38.85714285714286</ele><time>2026-04-19T06:12:24.999Z</time></trkpt><trkpt lat="45.104306888189996" lon="10.040644681952712"><ele>39.0</ele><time>2026-04-19T06:12:25.999Z</time></trkpt><trkpt lat="45.10424234322087" lon="10.04062206286052"><ele>39.0</ele><time>2026-04-19T06:12:26.999Z</time></trkpt><trkpt lat="45.10417965953694" lon="10.0406000960431"><ele>39.0</ele><time>2026-04-19T06:12:27.999Z</time></trkpt><trkpt lat="45.10411779837522" lon="10.040578417460926"><ele>39.0</ele><time>2026-04-19T06:12:28.999Z</time></trkpt><trkpt lat="45.10405119574964" lon="10.040575478502316"><ele>39.0</ele><time>2026-04-19T06:12:29.999Z</time></trkpt><trkpt lat="45.10398808800467" lon="10.04055443741052"><ele>39.0</ele><time>2026-04-19T06:12:30.998Z</time></trkpt><trkpt lat="45.1039216344506" lon="10.040528226091844"><ele>39.0</ele><time>2026-04-19T06:12:31.998Z</time></trkpt><trkpt lat="45.10385680465008" lon="10.040501476597"><ele>39.0</ele><time>2026-04-19T06:12:32.998Z</time></trkpt><trkpt lat="45.1037920966454" lon="10.040473636117836"><ele>38.714285714285715</ele><time>2026-04-19T06:12:33.998Z</time></trkpt><trkpt lat="45.10372549771501" lon="10.040450300083673"><ele>38.42857142857142</ele><time>2026-04-19T06:12:34.998Z</time></trkpt><trkpt lat="45.103661456510174" lon="10.040424977460052"><ele>38.14285714285714</ele><time>2026-04-19T06:12:35.998Z</time></trkpt><trkpt lat="45.10359114205008" lon="10.04040386424077"><ele>37.85714285714286</ele><time>2026-04-19T06:12:36.998Z</time></trkpt><trkpt lat="45.10352257142686" lon="10.040384734232974"><ele>37.57142857142857</ele><time>2026-04-19T06:12:37.998Z</time></trkpt><trkpt lat="45.1034544593328" lon="10.040365974626303"><ele>37.285714285714285</ele><time>2026-04-19T06:12:38.998Z</time></trkpt><trkpt lat="45.10338876683386" lon="10.04034905143762"><ele>37.0</ele><time>2026-04-19T06:12:39.998Z</time></trkpt><trkpt lat="45.10332448289092" lon="10.040326387962669"><ele>37.0</ele><time>2026-04-19T06:12:40.998Z</time></trkpt><trkpt lat="45.10325955714265" lon="10.040301814820294"><ele>37.0</ele><time>2026-04-19T06:12:41.998Z</time></trkpt><trkpt lat="45.10319616752286" lon="10.040277050308058"><ele>37.0</ele><time>2026-04-19T06:12:42.998Z</time></trkpt><trkpt lat="45.103130116193746" lon="10.04025250084464"><ele>37.0</ele><time>2026-04-19T06:12:43.998Z</time></trkpt><trkpt lat="45.103064105885146" lon="10.040226687726514"><ele>37.0</ele><time>2026-04-19T06:12:44.998Z</time></trkpt><trkpt lat="45.10299759696991" lon="10.040200516456894"><ele>37.0</ele><time>2026-04-19T06:12:45.998Z</time></trkpt><trkpt lat="45.10293334270085" lon="10.040172480547342"><ele>37.0</ele><time>2026-04-19T06:12:46.998Z</time></trkpt><trkpt lat="45.102868719167134" lon="10.040142460321139"><ele>36.714285714285715</ele><time>2026-04-19T06:12:47.998Z</time></trkpt><trkpt lat="45.102804375258714" lon="10.040115335835644"><ele>36.42857142857143</ele><time>2026-04-19T06:12:48.998Z</time></trkpt><trkpt lat="45.10273806211358" lon="10.040091327616992"><ele>36.14285714285714</ele><time>2026-04-19T06:12:49.998Z</time></trkpt><trkpt lat="45.10267421393889" lon="10.040063430114076"><ele>35.85714285714286</ele><time>2026-04-19T06:12:50.998Z</time></trkpt><trkpt lat="45.10260949682423" lon="10.040032262364942"><ele>35.57142857142857</ele><time>2026-04-19T06:12:51.998Z</time></trkpt><trkpt lat="45.10254527510342" lon="10.040000231086395"><ele>35.285714285714285</ele><time>2026-04-19T06:12:53Z</time></trkpt><trkpt lat="45.10248062783043" lon="10.039969425119848"><ele>35.0</ele><time>2026-04-19T06:12:54Z</time></trkpt><trkpt lat="45.10241691923296" lon="10.03993868605074"><ele>35.142857142857146</ele><time>2026-04-19T06:12:55Z</time></trkpt><trkpt lat="45.10234956652058" lon="10.039910160481147"><ele>35.285714285714285</ele><time>2026-04-19T06:12:56Z</time></trkpt><trkpt lat="45.10228506151696" lon="10.039882737242616"><ele>35.42857142857143</ele><time>2026-04-19T06:12:57Z</time></trkpt><trkpt lat="45.10222069558832" lon="10.039852267156302"><ele>35.57142857142857</ele><time>2026-04-19T06:12:58Z</time></trkpt><trkpt lat="45.10215541387177" lon="10.039822574199755"><ele>35.714285714285715</ele><time>2026-04-19T06:12:59Z</time></trkpt><trkpt lat="45.10208877877325" lon="10.039790917996333"><ele>35.85714285714286</ele><time>2026-04-19T06:13:00Z</time></trkpt><trkpt lat="45.102025979290886" lon="10.039753573757421"><ele>36.0</ele><time>2026-04-19T06:13:01Z</time></trkpt><trkpt lat="45.10196308699583" lon="10.039716938667965"><ele>36.00000000000001</ele><time>2026-04-19T06:13:02Z</time></trkpt><trkpt lat="45.101902231687355" lon="10.039674465876304"><ele>36.0</ele><time>2026-04-19T06:13:03Z</time></trkpt><trkpt lat="45.10183937290756" lon="10.039637198235866"><ele>36.0</ele><time>2026-04-19T06:13:04Z</time></trkpt><trkpt lat="45.10177665417921" lon="10.039596316519388"><ele>36.0</ele><time>2026-04-19T06:13:05Z</time></trkpt><trkpt lat="45.1017151615598" lon="10.039553034900221"><ele>36.0</ele><time>2026-04-19T06:13:06Z</time></trkpt><trkpt lat="45.10165205199807" lon="10.039509334695337"><ele>36.00000000000001</ele><time>2026-04-19T06:13:07Z</time></trkpt><trkpt lat="45.1015888084361" lon="10.03946980305552"><ele>36.0</ele><time>2026-04-19T06:13:08Z</time></trkpt><trkpt lat="45.10152437025898" lon="10.039441549188787"><ele>36.142857142857146</ele><time>2026-04-19T06:13:09Z</time></trkpt><trkpt lat="45.10146193575312" lon="10.039406859169924"><ele>36.285714285714285</ele><time>2026-04-19T06:13:10Z</time></trkpt><trkpt lat="45.101398002525066" lon="10.039370018428588"><ele>36.42857142857143</ele><time>2026-04-19T06:13:11Z</time></trkpt><trkpt lat="45.10133756039787" lon="10.03932809468417"><ele>36.57142857142857</ele><time>2026-04-19T06:13:12Z</time></trkpt><trkpt lat="45.10127329480477" lon="10.039287013534825"><ele>36.714285714285715</ele><time>2026-04-19T06:13:13Z</time></trkpt><trkpt lat="45.10120892410571" lon="10.039250149020972"><ele>36.85714285714286</ele><time>2026-04-19T06:13:14Z</time></trkpt><trkpt lat="45.10114530381335" lon="10.039212148543225"><ele>37.0</ele><time>2026-04-19T06:13:15Z</time></trkpt><trkpt lat="45.1010826426759" lon="10.039178834317557"><ele>37.0</ele><time>2026-04-19T06:13:16Z</time></trkpt><trkpt lat="45.10102021092482" lon="10.039140482627676"><ele>37.0</ele><time>2026-04-19T06:13:17Z</time></trkpt><trkpt lat="45.10095747562781" lon="10.039103085424474"><ele>37.0</ele><time>2026-04-19T06:13:18Z</time></trkpt><trkpt lat="45.1008980823131" lon="10.03907201669684"><ele>37.0</ele><time>2026-04-19T06:13:19Z</time></trkpt><trkpt lat="45.100836346967284" lon="10.039035677437935"><ele>37.0</ele><time>2026-04-19T06:13:20Z</time></trkpt><trkpt lat="45.10077242412519" lon="10.03898677443846"><ele>37.0</ele><time>2026-04-19T06:13:21Z</time></trkpt><trkpt lat="45.10070808643247" lon="10.038943980174903"><ele>37.0</ele><time>2026-04-19T06:13:22Z</time></trkpt><trkpt lat="45.10064586297021" lon="10.038896516282154"><ele>37.142857142857146</ele><time>2026-04-19T06:13:23Z</time></trkpt><trkpt lat="45.10058244856906" lon="10.038855332510474"><ele>37.285714285714285</ele><time>2026-04-19T06:13:24Z</time></trkpt><trkpt lat="45.10051685894211" lon="10.038818157385181"><ele>37.42857142857143</ele><time>2026-04-19T06:13:25Z</time></trkpt><trkpt lat="45.10045289436736" lon="10.038779217010653"><ele>37.57142857142857</ele><time>2026-04-19T06:13:26Z</time></trkpt><trkpt lat="45.10039183324664" lon="10.038733244884694"><ele>37.714285714285715</ele><time>2026-04-19T06:13:27Z</time></trkpt><trkpt lat="45.10033004724839" lon="10.038698085565434"><ele>37.857142857142854</ele><time>2026-04-19T06:13:28Z</time></trkpt><trkpt lat="45.100270519295876" lon="10.038659475923598"><ele>38.0</ele><time>2026-04-19T06:13:29Z</time></trkpt><trkpt lat="45.10021323175948" lon="10.038616045383892"><ele>38.0</ele><time>2026-04-19T06:13:30Z</time></trkpt><trkpt lat="45.10015271969867" lon="10.038564132281778"><ele>38.0</ele><time>2026-04-19T06:13:31Z</time></trkpt><trkpt lat="45.10008791282394" lon="10.038509501353833"><ele>38.0</ele><time>2026-04-19T06:13:32Z</time></trkpt><trkpt lat="45.100022963012144" lon="10.038452830436023"><ele>38.0</ele><time>2026-04-19T06:13:33Z</time></trkpt><trkpt lat="45.099957248268" lon="10.038401659203261"><ele>38.0</ele><time>2026-04-19T06:13:34Z</time></trkpt><trkpt lat="45.09989336167909" lon="10.03834782854108"><ele>38.0</ele><time>2026-04-19T06:13:35Z</time></trkpt><trkpt lat="45.09983103765795" lon="10.038295227812851"><ele>38.0</ele><time>2026-04-19T06:13:36Z</time></trkpt><trkpt lat="45.099769483802966" lon="10.038243751968476"><ele>37.714285714285715</ele><time>2026-04-19T06:13:37Z</time></trkpt><trkpt lat="45.099708435040455" lon="10.038189132045515"><ele>37.42857142857143</ele><time>2026-04-19T06:13:38Z</time></trkpt><trkpt lat="45.09964636336179" lon="10.038136465021466"><ele>37.142857142857146</ele><time>2026-04-19T06:13:39Z</time></trkpt><trkpt lat="45.09958456102341" lon="10.038088571221838"><ele>36.85714285714286</ele><time>2026-04-19T06:13:39.999Z</time></trkpt><trkpt lat="45.09952137658024" lon="10.03803032410049"><ele>36.57142857142857</ele><time>2026-04-19T06:13:40.999Z</time></trkpt><trkpt lat="45.099462470940594" lon="10.037974617469782"><ele>36.28571428571429</ele><time>2026-04-19T06:13:41.999Z</time></trkpt><trkpt lat="45.09940077910113" lon="10.037919844540092"><ele>36.0</ele><time>2026-04-19T06:13:42.999Z</time></trkpt><trkpt lat="45.099339452605676" lon="10.037868263784224"><ele>36.00000000000001</ele><time>2026-04-19T06:13:43.999Z</time></trkpt><trkpt lat="45.09927550417594" lon="10.037813881874008"><ele>36.0</ele><time>2026-04-19T06:13:44.999Z</time></trkpt><trkpt lat="45.09921603150861" lon="10.037758523527087"><ele>36.0</ele><time>2026-04-19T06:13:45.999Z</time></trkpt><trkpt lat="45.09915644409332" lon="10.037700059499405"><ele>36.0</ele><time>2026-04-19T06:13:46.999Z</time></trkpt><trkpt lat="45.0990967483856" lon="10.037642225313737"><ele>36.0</ele><time>2026-04-19T06:13:47.999Z</time></trkpt><trkpt lat="45.09903842070797" lon="10.037576665268785"><ele>36.00000000000001</ele><time>2026-04-19T06:13:48.999Z</time></trkpt><trkpt lat="45.09898368239136" lon="10.037513204538856"><ele>36.0</ele><time>2026-04-19T06:13:49.999Z</time></trkpt><trkpt lat="45.09892792712832" lon="10.03744438477749"><ele>35.714285714285715</ele><time>2026-04-19T06:13:50.999Z</time></trkpt><trkpt lat="45.09887365827102" lon="10.037376989657464"><ele>35.42857142857143</ele><time>2026-04-19T06:13:51.999Z</time></trkpt><trkpt lat="45.098818089672456" lon="10.037312194457435"><ele>35.14285714285714</ele><time>2026-04-19T06:13:52.999Z</time></trkpt><trkpt lat="45.09876350711304" lon="10.037246689058215"><ele>34.85714285714286</ele><time>2026-04-19T06:13:53.999Z</time></trkpt><trkpt lat="45.098708466112114" lon="10.03718030762655"><ele>34.57142857142857</ele><time>2026-04-19T06:13:54.999Z</time></trkpt><trkpt lat="45.09865083338631" lon="10.03711266996511"><ele>34.285714285714285</ele><time>2026-04-19T06:13:55.999Z</time></trkpt><trkpt lat="45.09859525763759" lon="10.037048440492788"><ele>34.0</ele><time>2026-04-19T06:13:56.999Z</time></trkpt><trkpt lat="45.0985416597153" lon="10.036984819837254"><ele>33.99999999999999</ele><time>2026-04-19T06:13:57.999Z</time></trkpt><trkpt lat="45.09848702493838" lon="10.036921904346315"><ele>34.0</ele><time>2026-04-19T06:13:58.999Z</time></trkpt><trkpt lat="45.09842985236547" lon="10.03686036487473"><ele>34.0</ele><time>2026-04-19T06:13:59.999Z</time></trkpt><trkpt lat="45.09837592095971" lon="10.036800383474883"><ele>34.0</ele><time>2026-04-19T06:14:00.999Z</time></trkpt><trkpt lat="45.0983182808123" lon="10.036746431119278"><ele>34.0</ele><time>2026-04-19T06:14:01.999Z</time></trkpt><trkpt lat="45.0982556722737" lon="10.036703579449826"><ele>33.99999999999999</ele><time>2026-04-19T06:14:02.999Z</time></trkpt><trkpt lat="45.09819578628297" lon="10.036661793097426"><ele>34.0</ele><time>2026-04-19T06:14:03.999Z</time></trkpt><trkpt lat="45.098134380559856" lon="10.036617780029287"><ele>34.57142857142857</ele><time>2026-04-19T06:14:04.999Z</time></trkpt><trkpt lat="45.098074419418055" lon="10.036579042605947"><ele>35.14285714285714</ele><time>2026-04-19T06:14:05.999Z</time></trkpt><trkpt lat="45.098013076103584" lon="10.036543150214708"><ele>35.71428571428571</ele><time>2026-04-19T06:14:06.999Z</time></trkpt><trkpt lat="45.0979504989359" lon="10.036509993616825"><ele>36.285714285714285</ele><time>2026-04-19T06:14:07.999Z</time></trkpt><trkpt lat="45.09788741233595" lon="10.036473905398747"><ele>36.85714285714286</ele><time>2026-04-19T06:14:08.999Z</time></trkpt><trkpt lat="45.09782858564237" lon="10.036437038024303"><ele>37.42857142857142</ele><time>2026-04-19T06:14:09.999Z</time></trkpt><trkpt lat="45.09777221200618" lon="10.036383524649258"><ele>38.0</ele><time>2026-04-19T06:14:10.999Z</time></trkpt><trkpt lat="45.0977264937564" lon="10.036319786112786"><ele>38.0</ele><time>2026-04-19T06:14:11.999Z</time></trkpt><trkpt lat="45.09768152423907" lon="10.03624816864624"><ele>38.0</ele><time>2026-04-19T06:14:12.999Z</time></trkpt><trkpt lat="45.09763640636593" lon="10.036181777214813"><ele>38.0</ele><time>2026-04-19T06:14:13.999Z</time></trkpt><trkpt lat="45.097588838136296" lon="10.036116458518805"><ele>38.0</ele><time>2026-04-19T06:14:14.999Z</time></trkpt><trkpt lat="45.09753918384318" lon="10.036050336423404"><ele>38.0</ele><time>2026-04-19T06:14:15.999Z</time></trkpt><trkpt lat="45.097492083135805" lon="10.035985470747525"><ele>38.0</ele><time>2026-04-19T06:14:16.999Z</time></trkpt><trkpt lat="45.09744172163118" lon="10.035914985516422"><ele>38.0</ele><time>2026-04-19T06:14:17.999Z</time></trkpt><trkpt lat="45.09739573524184" lon="10.03584386120636"><ele>37.5</ele><time>2026-04-19T06:14:18.999Z</time></trkpt><trkpt lat="45.09735167743162" lon="10.035769294614612"><ele>37.0</ele><time>2026-04-19T06:14:19.999Z</time></trkpt><trkpt lat="45.09730744890181" lon="10.035692474858942"><ele>36.5</ele><time>2026-04-19T06:14:20.999Z</time></trkpt><trkpt lat="45.0972671327115" lon="10.03561506623127"><ele>36.0</ele><time>2026-04-19T06:14:21.999Z</time></trkpt><trkpt lat="45.09722999098755" lon="10.035536927211718"><ele>35.5</ele><time>2026-04-19T06:14:22.999Z</time></trkpt><trkpt lat="45.09719401642511" lon="10.03546234330642"><ele>35.0</ele><time>2026-04-19T06:14:23.999Z</time></trkpt><trkpt lat="45.09713857924713" lon="10.035314896581637"><ele>35.0</ele><time>2026-04-19T06:14:25.999Z</time></trkpt><trkpt lat="45.09708066007006" lon="10.035176629688598"><ele>35.0</ele><time>2026-04-19T06:14:27.999Z</time></trkpt><trkpt lat="45.09705194906404" lon="10.03506739005949"><ele>35.0</ele><time>2026-04-19T06:14:29.999Z</time></trkpt><trkpt lat="45.09716510809443" lon="10.034966112247162"><ele>35.0</ele><time>2026-04-19T06:14:32.999Z</time></trkpt><trkpt lat="45.09727242384262" lon="10.034976806149105"><ele>35.0</ele><time>2026-04-19T06:14:34.998Z</time></trkpt><trkpt lat="45.0973804084961" lon="10.034965549983763"><ele>35.25</ele><time>2026-04-19T06:14:36.998Z</time></trkpt><trkpt lat="45.09749511676558" lon="10.034947939810516"><ele>35.5</ele><time>2026-04-19T06:14:38.998Z</time></trkpt><trkpt lat="45.0976183655396" lon="10.0349377083887"><ele>35.75</ele><time>2026-04-19T06:14:40.998Z</time></trkpt><trkpt lat="45.097737707651454" lon="10.034917172724832"><ele>36.0</ele><time>2026-04-19T06:14:42.998Z</time></trkpt><trkpt lat="45.09785444126729" lon="10.03487350803643"><ele>36.0</ele><time>2026-04-19T06:14:44.998Z</time></trkpt><trkpt lat="45.09797593417626" lon="10.03485285911995"><ele>36.0</ele><time>2026-04-19T06:14:46.998Z</time></trkpt><trkpt lat="45.09809700083747" lon="10.034866785249378"><ele>36.0</ele><time>2026-04-19T06:14:48.998Z</time></trkpt><trkpt lat="45.09820987587601" lon="10.034854520577978"><ele>36.0</ele><time>2026-04-19T06:14:50.998Z</time></trkpt><trkpt lat="45.098327472379644" lon="10.034843258270614"><ele>35.5</ele><time>2026-04-19T06:14:52.998Z</time></trkpt><trkpt lat="45.09845265638108" lon="10.034822763694034"><ele>35.0</ele><time>2026-04-19T06:14:54.998Z</time></trkpt><trkpt lat="45.09851603181678" lon="10.034806033352428"><ele>34.5</ele><time>2026-04-19T06:14:55.998Z</time></trkpt><trkpt lat="45.098580927659654" lon="10.034790063386865"><ele>34.0</ele><time>2026-04-19T06:14:56.998Z</time></trkpt><trkpt lat="45.098648379300585" lon="10.03477733300283"><ele>33.5</ele><time>2026-04-19T06:14:57.998Z</time></trkpt><trkpt lat="45.098716534433066" lon="10.034763977955397"><ele>33.0</ele><time>2026-04-19T06:14:59Z</time></trkpt><trkpt lat="45.09878322242657" lon="10.03475274420811"><ele>33.0</ele><time>2026-04-19T06:15:00Z</time></trkpt><trkpt lat="45.09885061366047" lon="10.034739529870008"><ele>33.0</ele><time>2026-04-19T06:15:01Z</time></trkpt><trkpt lat="45.09891866717088" lon="10.034729083006868"><ele>33.0</ele><time>2026-04-19T06:15:02Z</time></trkpt><trkpt lat="45.09898367906412" lon="10.034719122688976"><ele>33.0</ele><time>2026-04-19T06:15:03Z</time></trkpt><trkpt lat="45.09904884981475" lon="10.034707511578462"><ele>33.0</ele><time>2026-04-19T06:15:04Z</time></trkpt><trkpt lat="45.09911869903887" lon="10.034697010417721"><ele>33.0</ele><time>2026-04-19T06:15:05Z</time></trkpt><trkpt lat="45.099187175394015" lon="10.034684798992458"><ele>33.0</ele><time>2026-04-19T06:15:06Z</time></trkpt><trkpt lat="45.09925566160418" lon="10.03467305335057"><ele>32.714285714285715</ele><time>2026-04-19T06:15:07Z</time></trkpt><trkpt lat="45.09932444700197" lon="10.034663624951765"><ele>32.42857142857143</ele><time>2026-04-19T06:15:08Z</time></trkpt><trkpt lat="45.0993923627237" lon="10.034658583841"><ele>32.142857142857146</ele><time>2026-04-19T06:15:09Z</time></trkpt><trkpt lat="45.09946132432611" lon="10.034654559335127"><ele>31.857142857142858</ele><time>2026-04-19T06:15:10Z</time></trkpt><trkpt lat="45.09952984199656" lon="10.034652862408224"><ele>31.571428571428577</ele><time>2026-04-19T06:15:11Z</time></trkpt><trkpt lat="45.09959892220052" lon="10.034647263711163"><ele>31.28571428571429</ele><time>2026-04-19T06:15:12Z</time></trkpt><trkpt lat="45.09966604560496" lon="10.03463715994931"><ele>31.0</ele><time>2026-04-19T06:15:13Z</time></trkpt><trkpt lat="45.09973229852755" lon="10.03461955492409"><ele>31.0</ele><time>2026-04-19T06:15:14Z</time></trkpt><trkpt lat="45.09979842125486" lon="10.034593972023432"><ele>31.000000000000004</ele><time>2026-04-19T06:15:15Z</time></trkpt><trkpt lat="45.0998630357744" lon="10.034558893503913"><ele>31.0</ele><time>2026-04-19T06:15:16Z</time></trkpt><trkpt lat="45.099928567892945" lon="10.034516324330632"><ele>31.0</ele><time>2026-04-19T06:15:17Z</time></trkpt><trkpt lat="45.09999210153228" lon="10.034470746487878"><ele>31.000000000000004</ele><time>2026-04-19T06:15:18Z</time></trkpt><trkpt lat="45.100055145276336" lon="10.03442686905109"><ele>31.0</ele><time>2026-04-19T06:15:19Z</time></trkpt><trkpt lat="45.1001198116986" lon="10.034384087678507"><ele>31.0</ele><time>2026-04-19T06:15:20Z</time></trkpt><trkpt lat="45.10018503341669" lon="10.034341121472472"><ele>31.28571428571429</ele><time>2026-04-19T06:15:21Z</time></trkpt><trkpt lat="45.1002486536662" lon="10.03430029916254"><ele>31.571428571428577</ele><time>2026-04-19T06:15:22Z</time></trkpt><trkpt lat="45.1003139499774" lon="10.034258989827764"><ele>31.857142857142858</ele><time>2026-04-19T06:15:23Z</time></trkpt><trkpt lat="45.10037864250431" lon="10.034214995474096"><ele>32.142857142857146</ele><time>2026-04-19T06:15:24Z</time></trkpt><trkpt lat="45.10044215918954" lon="10.034174748702918"><ele>32.42857142857143</ele><time>2026-04-19T06:15:25Z</time></trkpt><trkpt lat="45.10050667892303" lon="10.034132485034938"><ele>32.714285714285715</ele><time>2026-04-19T06:15:26Z</time></trkpt><trkpt lat="45.10057029578201" lon="10.034090127115473"><ele>33.0</ele><time>2026-04-19T06:15:27Z</time></trkpt><trkpt lat="45.10063437118418" lon="10.034048599080052"><ele>33.0</ele><time>2026-04-19T06:15:28Z</time></trkpt><trkpt lat="45.10069951031986" lon="10.034007485701611"><ele>33.0</ele><time>2026-04-19T06:15:29Z</time></trkpt><trkpt lat="45.10076362719947" lon="10.033967452641646"><ele>33.0</ele><time>2026-04-19T06:15:30Z</time></trkpt><trkpt lat="45.100827061955314" lon="10.033927715959113"><ele>33.0</ele><time>2026-04-19T06:15:31Z</time></trkpt><trkpt lat="45.10089210065384" lon="10.03388874474536"><ele>33.0</ele><time>2026-04-19T06:15:32Z</time></trkpt><trkpt lat="45.1009565100679" lon="10.033847570239697"><ele>33.0</ele><time>2026-04-19T06:15:33Z</time></trkpt><trkpt lat="45.101019507196426" lon="10.033808094900765"><ele>33.0</ele><time>2026-04-19T06:15:34Z</time></trkpt><trkpt lat="45.10108420526069" lon="10.033768583796181"><ele>33.0</ele><time>2026-04-19T06:15:35Z</time></trkpt><trkpt lat="45.10115044578462" lon="10.033731458821205"><ele>33.0</ele><time>2026-04-19T06:15:36Z</time></trkpt><trkpt lat="45.10121522285485" lon="10.033695756258497"><ele>33.0</ele><time>2026-04-19T06:15:37Z</time></trkpt><trkpt lat="45.10128145279976" lon="10.033659971260718"><ele>33.0</ele><time>2026-04-19T06:15:38Z</time></trkpt><trkpt lat="45.10134884735838" lon="10.033622167881848"><ele>33.0</ele><time>2026-04-19T06:15:39Z</time></trkpt><trkpt lat="45.10141473740635" lon="10.03358127720062"><ele>33.0</ele><time>2026-04-19T06:15:40Z</time></trkpt><trkpt lat="45.10148245263399" lon="10.033538924556865"><ele>33.0</ele><time>2026-04-19T06:15:41Z</time></trkpt><trkpt lat="45.1015465525826" lon="10.03349770568229"><ele>33.0</ele><time>2026-04-19T06:15:42Z</time></trkpt><trkpt lat="45.10161420996145" lon="10.033457964439904"><ele>33.0</ele><time>2026-04-19T06:15:43Z</time></trkpt><trkpt lat="45.101680429902444" lon="10.033417498169467"><ele>33.0</ele><time>2026-04-19T06:15:43.999Z</time></trkpt><trkpt lat="45.10174494145069" lon="10.033378525108583"><ele>33.0</ele><time>2026-04-19T06:15:44.999Z</time></trkpt><trkpt lat="45.101809968953084" lon="10.033337793099538"><ele>33.0</ele><time>2026-04-19T06:15:45.999Z</time></trkpt><trkpt lat="45.10187623503433" lon="10.033298105083666"><ele>33.0</ele><time>2026-04-19T06:15:46.999Z</time></trkpt><trkpt lat="45.101940108737345" lon="10.033257630851791"><ele>33.0</ele><time>2026-04-19T06:15:47.999Z</time></trkpt><trkpt lat="45.10200487220739" lon="10.03321414547938"><ele>33.0</ele><time>2026-04-19T06:15:48.999Z</time></trkpt><trkpt lat="45.10207009798792" lon="10.03317195721667"><ele>33.0</ele><time>2026-04-19T06:15:49.999Z</time></trkpt><trkpt lat="45.10213484016019" lon="10.033126330746155"><ele>33.0</ele><time>2026-04-19T06:15:50.999Z</time></trkpt><trkpt lat="45.10219749812245" lon="10.033075149448496"><ele>33.0</ele><time>2026-04-19T06:15:51.999Z</time></trkpt><trkpt lat="45.10225610683406" lon="10.033017956454373"><ele>33.0</ele><time>2026-04-19T06:15:52.999Z</time></trkpt><trkpt lat="45.10231122826979" lon="10.032952332985381"><ele>33.0</ele><time>2026-04-19T06:15:53.999Z</time></trkpt><trkpt lat="45.10236310846854" lon="10.032882697346752"><ele>33.0</ele><time>2026-04-19T06:15:54.999Z</time></trkpt><trkpt lat="45.10241141880799" lon="10.032809962353147"><ele>33.14285714285714</ele><time>2026-04-19T06:15:55.999Z</time></trkpt><trkpt lat="45.10246030598425" lon="10.032737799642883"><ele>33.285714285714285</ele><time>2026-04-19T06:15:56.999Z</time></trkpt><trkpt lat="45.10250828443469" lon="10.032664295050767"><ele>33.42857142857143</ele><time>2026-04-19T06:15:57.999Z</time></trkpt><trkpt lat="45.10255575074778" lon="10.032591742876606"><ele>33.57142857142857</ele><time>2026-04-19T06:15:58.999Z</time></trkpt><trkpt lat="45.10260402079317" lon="10.03251749089127"><ele>33.714285714285715</ele><time>2026-04-19T06:15:59.999Z</time></trkpt><trkpt lat="45.10265047642778" lon="10.032442851721253"><ele>33.857142857142854</ele><time>2026-04-19T06:16:00.999Z</time></trkpt><trkpt lat="45.10269664415585" lon="10.032367883840172"><ele>34.0</ele><time>2026-04-19T06:16:01.999Z</time></trkpt><trkpt lat="45.102744002978525" lon="10.032292318903053"><ele>33.99999999999999</ele><time>2026-04-19T06:16:02.999Z</time></trkpt><trkpt lat="45.102790091343294" lon="10.032217520149407"><ele>34.0</ele><time>2026-04-19T06:16:03.999Z</time></trkpt><trkpt lat="45.102836294475516" lon="10.032142332553148"><ele>34.0</ele><time>2026-04-19T06:16:04.999Z</time></trkpt><trkpt lat="45.10288342265615" lon="10.03206474583095"><ele>34.0</ele><time>2026-04-19T06:16:05.999Z</time></trkpt><trkpt lat="45.10292732451077" lon="10.03198804134788"><ele>34.0</ele><time>2026-04-19T06:16:06.999Z</time></trkpt><trkpt lat="45.10297269559529" lon="10.031907234920256"><ele>33.99999999999999</ele><time>2026-04-19T06:16:07.999Z</time></trkpt><trkpt lat="45.10301213282839" lon="10.031827004220554"><ele>34.0</ele><time>2026-04-19T06:16:08.999Z</time></trkpt><trkpt lat="45.103053901226865" lon="10.031746023195286"><ele>33.99999999999999</ele><time>2026-04-19T06:16:09.999Z</time></trkpt><trkpt lat="45.103097538259846" lon="10.031667290726954"><ele>34.0</ele><time>2026-04-19T06:16:10.999Z</time></trkpt><trkpt lat="45.1031428932557" lon="10.03159135787419"><ele>34.0</ele><time>2026-04-19T06:16:11.999Z</time></trkpt><trkpt lat="45.10318737564142" lon="10.03151340765122"><ele>34.0</ele><time>2026-04-19T06:16:12.999Z</time></trkpt><trkpt lat="45.10323498263124" lon="10.031435819226203"><ele>34.0</ele><time>2026-04-19T06:16:13.999Z</time></trkpt><trkpt lat="45.10328258153398" lon="10.031354248331489"><ele>33.99999999999999</ele><time>2026-04-19T06:16:14.999Z</time></trkpt><trkpt lat="45.10333092117992" lon="10.031272562992434"><ele>34.0</ele><time>2026-04-19T06:16:15.999Z</time></trkpt><trkpt lat="45.10338194403686" lon="10.031186672253973"><ele>34.333333333333336</ele><time>2026-04-19T06:16:16.999Z</time></trkpt><trkpt lat="45.10343072944987" lon="10.03109772944924"><ele>34.66666666666667</ele><time>2026-04-19T06:16:17.999Z</time></trkpt><trkpt lat="45.10347891583016" lon="10.031008914129176"><ele>35.0</ele><time>2026-04-19T06:16:18.999Z</time></trkpt><trkpt lat="45.10353130922817" lon="10.030916073411051"><ele>35.333333333333336</ele><time>2026-04-19T06:16:19.999Z</time></trkpt><trkpt lat="45.103587514286936" lon="10.03083044288957"><ele>35.666666666666664</ele><time>2026-04-19T06:16:20.999Z</time></trkpt><trkpt lat="45.10366634059863" lon="10.030775832554966"><ele>36.0</ele><time>2026-04-19T06:16:21.999Z</time></trkpt><trkpt lat="45.10374228195515" lon="10.030719354737485"><ele>36.333333333333336</ele><time>2026-04-19T06:16:22.999Z</time></trkpt><trkpt lat="45.103819113911044" lon="10.030658761724576"><ele>36.666666666666664</ele><time>2026-04-19T06:16:23.999Z</time></trkpt><trkpt lat="45.103892228894956" lon="10.030599343344301"><ele>37.0</ele><time>2026-04-19T06:16:24.999Z</time></trkpt><trkpt lat="45.10396482248801" lon="10.030539537927059"><ele>37.33333333333333</ele><time>2026-04-19T06:16:25.999Z</time></trkpt><trkpt lat="45.104036663896885" lon="10.030452408453513"><ele>37.666666666666664</ele><time>2026-04-19T06:16:26.999Z</time></trkpt><trkpt lat="45.10411094269274" lon="10.030395725215703"><ele>38.0</ele><time>2026-04-19T06:16:27.999Z</time></trkpt><trkpt lat="45.10415692465236" lon="10.030323973792665"><ele>38.0</ele><time>2026-04-19T06:16:28.999Z</time></trkpt><trkpt lat="45.10420442343025" lon="10.030252855660313"><ele>38.0</ele><time>2026-04-19T06:16:29.999Z</time></trkpt><trkpt lat="45.104255838747086" lon="10.03017850872724"><ele>38.0</ele><time>2026-04-19T06:16:30.999Z</time></trkpt><trkpt lat="45.10426978179172" lon="10.030078302916948"><ele>38.0</ele><time>2026-04-19T06:16:31.999Z</time></trkpt><trkpt lat="45.10428333626259" lon="10.029983524435718"><ele>38.0</ele><time>2026-04-19T06:16:32.999Z</time></trkpt><trkpt lat="45.104267546512936" lon="10.02988684442151"><ele>38.0</ele><time>2026-04-19T06:16:33.999Z</time></trkpt><trkpt lat="45.10428131533373" lon="10.02979296516718"><ele>38.0</ele><time>2026-04-19T06:16:34.999Z</time></trkpt><trkpt lat="45.10426580635589" lon="10.029698378284778"><ele>38.0</ele><time>2026-04-19T06:16:35.999Z</time></trkpt><trkpt lat="45.10428095001179" lon="10.029606724316812"><ele>38.0</ele><time>2026-04-19T06:16:36.999Z</time></trkpt><trkpt lat="45.104283238155" lon="10.02943231239562"><ele>38.0</ele><time>2026-04-19T06:16:38.998Z</time></trkpt><trkpt lat="45.104318903142435" lon="10.029275081103433"><ele>38.0</ele><time>2026-04-19T06:16:40.998Z</time></trkpt><trkpt lat="45.10435969336537" lon="10.029118418171699"><ele>38.0</ele><time>2026-04-19T06:16:42.998Z</time></trkpt><trkpt lat="45.10440698893799" lon="10.028987723729362"><ele>37.83333333333333</ele><time>2026-04-19T06:16:44.998Z</time></trkpt><trkpt lat="45.10449155938905" lon="10.02889674275599"><ele>37.666666666666664</ele><time>2026-04-19T06:16:46.998Z</time></trkpt><trkpt lat="45.10454800664674" lon="10.028854646240918"><ele>37.5</ele><time>2026-04-19T06:16:47.998Z</time></trkpt><trkpt lat="45.104607372815316" lon="10.028808520450088"><ele>37.333333333333336</ele><time>2026-04-19T06:16:48.998Z</time></trkpt><trkpt lat="45.104715413003404" lon="10.028715147103203"><ele>37.16666666666667</ele><time>2026-04-19T06:16:50.998Z</time></trkpt><trkpt lat="45.10477300155727" lon="10.028668939488453"><ele>37.0</ele><time>2026-04-19T06:16:51.998Z</time></trkpt><trkpt lat="45.10483065807674" lon="10.028624105452744"><ele>37.0</ele><time>2026-04-19T06:16:52.998Z</time></trkpt><trkpt lat="45.10489206055933" lon="10.028576946520708"><ele>37.0</ele><time>2026-04-19T06:16:53.998Z</time></trkpt><trkpt lat="45.104951056048776" lon="10.028531635950511"><ele>37.0</ele><time>2026-04-19T06:16:54.998Z</time></trkpt><trkpt lat="45.10501258905599" lon="10.028491486050493"><ele>37.0</ele><time>2026-04-19T06:16:55.998Z</time></trkpt><trkpt lat="45.10507451266585" lon="10.028452151373964"><ele>37.0</ele><time>2026-04-19T06:16:56.998Z</time></trkpt><trkpt lat="45.10513673078382" lon="10.028415828551442"><ele>37.0</ele><time>2026-04-19T06:16:57.998Z</time></trkpt><trkpt lat="45.10520122589489" lon="10.028379993517103"><ele>37.0</ele><time>2026-04-19T06:16:58.998Z</time></trkpt><trkpt lat="45.105266511021405" lon="10.028343910732913"><ele>36.142857142857146</ele><time>2026-04-19T06:16:59.998Z</time></trkpt><trkpt lat="45.105330746175525" lon="10.028309459850366"><ele>35.285714285714285</ele><time>2026-04-19T06:17:00.998Z</time></trkpt><trkpt lat="45.105397334884664" lon="10.02827374663569"><ele>34.42857142857143</ele><time>2026-04-19T06:17:01.998Z</time></trkpt><trkpt lat="45.10546161673338" lon="10.028239270704598"><ele>33.57142857142857</ele><time>2026-04-19T06:17:02.998Z</time></trkpt><trkpt lat="45.105525317620156" lon="10.02820510631936"><ele>32.714285714285715</ele><time>2026-04-19T06:17:03.998Z</time></trkpt><trkpt lat="45.1055890367387" lon="10.028170932154973"><ele>31.857142857142858</ele><time>2026-04-19T06:17:05Z</time></trkpt><trkpt lat="45.10565272490084" lon="10.02813851940646"><ele>31.0</ele><time>2026-04-19T06:17:06Z</time></trkpt><trkpt lat="45.10571711378426" lon="10.028106532543454"><ele>31.28571428571429</ele><time>2026-04-19T06:17:07Z</time></trkpt><trkpt lat="45.105782888094446" lon="10.028075044814017"><ele>31.571428571428577</ele><time>2026-04-19T06:17:08Z</time></trkpt><trkpt lat="45.10584779458736" lon="10.028045878158794"><ele>31.857142857142858</ele><time>2026-04-19T06:17:09Z</time></trkpt><trkpt lat="45.10591433753687" lon="10.028019702014698"><ele>32.142857142857146</ele><time>2026-04-19T06:17:10Z</time></trkpt><trkpt lat="45.105980988084795" lon="10.027999244117629"><ele>32.42857142857143</ele><time>2026-04-19T06:17:11Z</time></trkpt><trkpt lat="45.1060464821442" lon="10.027987091364846"><ele>32.714285714285715</ele><time>2026-04-19T06:17:12Z</time></trkpt><trkpt lat="45.10611377291235" lon="10.027979509011315"><ele>33.0</ele><time>2026-04-19T06:17:13Z</time></trkpt><trkpt lat="45.10618199749565" lon="10.02797911416917"><ele>33.0</ele><time>2026-04-19T06:17:14Z</time></trkpt><trkpt lat="45.106252437561004" lon="10.027981753613918"><ele>33.0</ele><time>2026-04-19T06:17:15Z</time></trkpt><trkpt lat="45.106320961984586" lon="10.027983826555277"><ele>33.0</ele><time>2026-04-19T06:17:16Z</time></trkpt><trkpt lat="45.106392554938324" lon="10.027986723968874"><ele>33.0</ele><time>2026-04-19T06:17:17Z</time></trkpt><trkpt lat="45.10646348073535" lon="10.027989995091001"><ele>33.0</ele><time>2026-04-19T06:17:18Z</time></trkpt><trkpt lat="45.106534372502736" lon="10.027993264642156"><ele>33.0</ele><time>2026-04-19T06:17:19Z</time></trkpt><trkpt lat="45.10660587796122" lon="10.027996562488003"><ele>33.0</ele><time>2026-04-19T06:17:20Z</time></trkpt><trkpt lat="45.106677781638304" lon="10.027999805077082"><ele>33.285714285714285</ele><time>2026-04-19T06:17:21Z</time></trkpt><trkpt lat="45.1067501756498" lon="10.028002635438405"><ele>33.57142857142857</ele><time>2026-04-19T06:17:22Z</time></trkpt><trkpt lat="45.106823638362705" lon="10.028005507584918"><ele>33.85714285714286</ele><time>2026-04-19T06:17:23Z</time></trkpt><trkpt lat="45.106896100070436" lon="10.028008340593182"><ele>34.14285714285714</ele><time>2026-04-19T06:17:24Z</time></trkpt><trkpt lat="45.10696744376092" lon="10.028011129893887"><ele>34.42857142857143</ele><time>2026-04-19T06:17:25Z</time></trkpt><trkpt lat="45.107039602436636" lon="10.028013951055321"><ele>34.714285714285715</ele><time>2026-04-19T06:17:26Z</time></trkpt><trkpt lat="45.10711189552076" lon="10.028016564009333"><ele>35.0</ele><time>2026-04-19T06:17:27Z</time></trkpt><trkpt lat="45.107182860739464" lon="10.02801887551013"><ele>35.0</ele><time>2026-04-19T06:17:28Z</time></trkpt><trkpt lat="45.107255250840076" lon="10.028021233420942"><ele>35.0</ele><time>2026-04-19T06:17:29Z</time></trkpt><trkpt lat="45.10732884845079" lon="10.028023630664325"><ele>35.0</ele><time>2026-04-19T06:17:30Z</time></trkpt><trkpt lat="45.10740116168964" lon="10.028025986073214"><ele>35.0</ele><time>2026-04-19T06:17:31Z</time></trkpt><trkpt lat="45.10747338539713" lon="10.028027947979428"><ele>35.0</ele><time>2026-04-19T06:17:32Z</time></trkpt><trkpt lat="45.10754425692676" lon="10.02802983467543"><ele>35.0</ele><time>2026-04-19T06:17:33Z</time></trkpt><trkpt lat="45.10761583655721" lon="10.028031740221637"><ele>35.0</ele><time>2026-04-19T06:17:34Z</time></trkpt><trkpt lat="45.10768932358763" lon="10.02803369654491"><ele>34.57142857142857</ele><time>2026-04-19T06:17:35Z</time></trkpt><trkpt lat="45.10776059774113" lon="10.028035593960373"><ele>34.14285714285714</ele><time>2026-04-19T06:17:36Z</time></trkpt><trkpt lat="45.10783274225896" lon="10.028037514545552"><ele>33.714285714285715</ele><time>2026-04-19T06:17:37Z</time></trkpt><trkpt lat="45.107903451440286" lon="10.028039396918722"><ele>33.285714285714285</ele><time>2026-04-19T06:17:38Z</time></trkpt><trkpt lat="45.10797614169182" lon="10.028041332033395"><ele>32.857142857142854</ele><time>2026-04-19T06:17:39Z</time></trkpt><trkpt lat="45.108048379850544" lon="10.028043255108392"><ele>32.42857142857143</ele><time>2026-04-19T06:17:40Z</time></trkpt><trkpt lat="45.108120285914936" lon="10.028045080831966"><ele>32.0</ele><time>2026-04-19T06:17:41Z</time></trkpt><trkpt lat="45.10819273216996" lon="10.02804597778811"><ele>32.14285714285714</ele><time>2026-04-19T06:17:42Z</time></trkpt><trkpt lat="45.108264918068244" lon="10.028044913285848"><ele>32.285714285714285</ele><time>2026-04-19T06:17:43Z</time></trkpt><trkpt lat="45.10833927959473" lon="10.028042345833603"><ele>32.42857142857143</ele><time>2026-04-19T06:17:44Z</time></trkpt><trkpt lat="45.10841609238566" lon="10.028035217127627"><ele>32.57142857142857</ele><time>2026-04-19T06:17:45Z</time></trkpt><trkpt lat="45.108490398047564" lon="10.028020755341773"><ele>32.714285714285715</ele><time>2026-04-19T06:17:46Z</time></trkpt><trkpt lat="45.10856453881712" lon="10.028004908155776"><ele>32.857142857142854</ele><time>2026-04-19T06:17:47Z</time></trkpt><trkpt lat="45.10863913555046" lon="10.027984433584871"><ele>33.0</ele><time>2026-04-19T06:17:47.999Z</time></trkpt><trkpt lat="45.10871277001209" lon="10.027962718028439"><ele>33.0</ele><time>2026-04-19T06:17:48.999Z</time></trkpt><trkpt lat="45.10878454401686" lon="10.027940994146459"><ele>33.0</ele><time>2026-04-19T06:17:49.999Z</time></trkpt><trkpt lat="45.10885719846606" lon="10.027918586901563"><ele>33.0</ele><time>2026-04-19T06:17:50.999Z</time></trkpt><trkpt lat="45.10892934096141" lon="10.02789584674322"><ele>33.0</ele><time>2026-04-19T06:17:51.999Z</time></trkpt><trkpt lat="45.10900223362557" lon="10.027872870119838"><ele>33.0</ele><time>2026-04-19T06:17:52.999Z</time></trkpt><trkpt lat="45.109072645055434" lon="10.02784960186073"><ele>33.0</ele><time>2026-04-19T06:17:53.999Z</time></trkpt><trkpt lat="45.109144514662326" lon="10.027825598969732"><ele>33.0</ele><time>2026-04-19T06:17:54.999Z</time></trkpt><trkpt lat="45.109215261998024" lon="10.027801970888339"><ele>32.857142857142854</ele><time>2026-04-19T06:17:55.999Z</time></trkpt><trkpt lat="45.10928495791308" lon="10.027778693962313"><ele>32.714285714285715</ele><time>2026-04-19T06:17:56.999Z</time></trkpt><trkpt lat="45.109356067148774" lon="10.027754945021705"><ele>32.57142857142857</ele><time>2026-04-19T06:17:57.999Z</time></trkpt><trkpt lat="45.10942584050591" lon="10.027731642232899"><ele>32.42857142857143</ele><time>2026-04-19T06:17:58.999Z</time></trkpt><trkpt lat="45.10949633888335" lon="10.027708097308047"><ele>32.285714285714285</ele><time>2026-04-19T06:17:59.999Z</time></trkpt><trkpt lat="45.109565702749734" lon="10.027684931278646"><ele>32.14285714285714</ele><time>2026-04-19T06:18:00.999Z</time></trkpt><trkpt lat="45.10963411340064" lon="10.027662083602616"><ele>32.0</ele><time>2026-04-19T06:18:01.999Z</time></trkpt><trkpt lat="45.109706802380884" lon="10.027637807060703"><ele>32.0</ele><time>2026-04-19T06:18:02.999Z</time></trkpt><trkpt lat="45.10977794149882" lon="10.027614048134684"><ele>31.999999999999996</ele><time>2026-04-19T06:18:03.999Z</time></trkpt><trkpt lat="45.10985022688721" lon="10.027589585462316"><ele>32.0</ele><time>2026-04-19T06:18:04.999Z</time></trkpt><trkpt lat="45.1099205804236" lon="10.027565709235253"><ele>32.0</ele><time>2026-04-19T06:18:05.999Z</time></trkpt><trkpt lat="45.10999152563715" lon="10.027541632192923"><ele>31.999999999999996</ele><time>2026-04-19T06:18:06.999Z</time></trkpt><trkpt lat="45.110061001145255" lon="10.027518053948906"><ele>32.0</ele><time>2026-04-19T06:18:07.999Z</time></trkpt><trkpt lat="45.11013305649212" lon="10.027492933078815"><ele>32.0</ele><time>2026-04-19T06:18:08.999Z</time></trkpt><trkpt lat="45.11020359770616" lon="10.027466864279898"><ele>32.14285714285714</ele><time>2026-04-19T06:18:09.999Z</time></trkpt><trkpt lat="45.11027323755395" lon="10.027441128569903"><ele>32.285714285714285</ele><time>2026-04-19T06:18:10.999Z</time></trkpt><trkpt lat="45.11034300735283" lon="10.027414720085954"><ele>32.42857142857143</ele><time>2026-04-19T06:18:11.999Z</time></trkpt><trkpt lat="45.11041272057225" lon="10.027387600042147"><ele>32.57142857142857</ele><time>2026-04-19T06:18:12.999Z</time></trkpt><trkpt lat="45.110483541744486" lon="10.027360048953637"><ele>32.714285714285715</ele><time>2026-04-19T06:18:13.999Z</time></trkpt><trkpt lat="45.110551640773274" lon="10.027333556862441"><ele>32.857142857142854</ele><time>2026-04-19T06:18:14.999Z</time></trkpt><trkpt lat="45.1106226945427" lon="10.02730523175185"><ele>33.0</ele><time>2026-04-19T06:18:15.999Z</time></trkpt><trkpt lat="45.11068787416002" lon="10.027254360558256"><ele>33.285714285714285</ele><time>2026-04-19T06:18:16.999Z</time></trkpt><trkpt lat="45.11075615274935" lon="10.027224819673751"><ele>33.57142857142857</ele><time>2026-04-19T06:18:17.999Z</time></trkpt><trkpt lat="45.11082512505596" lon="10.027192021930468"><ele>33.85714285714286</ele><time>2026-04-19T06:18:18.999Z</time></trkpt><trkpt lat="45.11089128245386" lon="10.027156066588741"><ele>34.14285714285714</ele><time>2026-04-19T06:18:19.999Z</time></trkpt><trkpt lat="45.11096750162803" lon="10.02714146241976"><ele>34.42857142857143</ele><time>2026-04-19T06:18:20.999Z</time></trkpt><trkpt lat="45.11103678434532" lon="10.027105393895088"><ele>34.714285714285715</ele><time>2026-04-19T06:18:21.999Z</time></trkpt><trkpt lat="45.111104511914974" lon="10.027069754931414"><ele>35.0</ele><time>2026-04-19T06:18:22.999Z</time></trkpt><trkpt lat="45.11117333532975" lon="10.027033539336351"><ele>35.0</ele><time>2026-04-19T06:18:23.999Z</time></trkpt><trkpt lat="45.111240400979206" lon="10.02699824867336"><ele>35.0</ele><time>2026-04-19T06:18:24.999Z</time></trkpt><trkpt lat="45.111307466253656" lon="10.026962310680924"><ele>35.0</ele><time>2026-04-19T06:18:25.999Z</time></trkpt><trkpt lat="45.11137530931035" lon="10.026925812130418"><ele>35.0</ele><time>2026-04-19T06:18:26.999Z</time></trkpt><trkpt lat="45.11144264503771" lon="10.02688958651575"><ele>35.0</ele><time>2026-04-19T06:18:27.999Z</time></trkpt><trkpt lat="45.11151097208366" lon="10.026852827590629"><ele>35.0</ele><time>2026-04-19T06:18:28.999Z</time></trkpt><trkpt lat="45.111579100341096" lon="10.026815983618992"><ele>35.0</ele><time>2026-04-19T06:18:29.999Z</time></trkpt><trkpt lat="45.11164527515085" lon="10.02677974177003"><ele>34.57142857142857</ele><time>2026-04-19T06:18:30.999Z</time></trkpt><trkpt lat="45.11171314391837" lon="10.026742572228295"><ele>34.14285714285714</ele><time>2026-04-19T06:18:31.999Z</time></trkpt><trkpt lat="45.11178150604394" lon="10.026705132451976"><ele>33.714285714285715</ele><time>2026-04-19T06:18:32.999Z</time></trkpt><trkpt lat="45.111849454553" lon="10.026667284645491"><ele>33.285714285714285</ele><time>2026-04-19T06:18:33.999Z</time></trkpt><trkpt lat="45.111917838850644" lon="10.026628924382566"><ele>32.857142857142854</ele><time>2026-04-19T06:18:34.999Z</time></trkpt><trkpt lat="45.11198568139719" lon="10.026590868002945"><ele>32.42857142857143</ele><time>2026-04-19T06:18:35.999Z</time></trkpt><trkpt lat="45.11205340761399" lon="10.026552876887578"><ele>32.0</ele><time>2026-04-19T06:18:36.999Z</time></trkpt><trkpt lat="45.112121921040995" lon="10.026514444157872"><ele>32.0</ele><time>2026-04-19T06:18:37.999Z</time></trkpt><trkpt lat="45.11219004499542" lon="10.026476229946216"><ele>31.999999999999996</ele><time>2026-04-19T06:18:38.999Z</time></trkpt><trkpt lat="45.11225877908202" lon="10.026437673463752"><ele>32.0</ele><time>2026-04-19T06:18:39.999Z</time></trkpt><trkpt lat="45.11232526260954" lon="10.02640077031672"><ele>32.0</ele><time>2026-04-19T06:18:40.999Z</time></trkpt><trkpt lat="45.112393738209896" lon="10.026363759103463"><ele>31.999999999999996</ele><time>2026-04-19T06:18:41.998Z</time></trkpt><trkpt lat="45.11246241118184" lon="10.02632664122795"><ele>32.0</ele><time>2026-04-19T06:18:42.998Z</time></trkpt><trkpt lat="45.11252922613106" lon="10.026290993892749"><ele>32.0</ele><time>2026-04-19T06:18:43.998Z</time></trkpt><trkpt lat="45.11260023439616" lon="10.026255314521602"><ele>32.0</ele><time>2026-04-19T06:18:44.998Z</time></trkpt><trkpt lat="45.112667029043656" lon="10.026224638409714"><ele>31.999999999999996</ele><time>2026-04-19T06:18:45.998Z</time></trkpt><trkpt lat="45.112737455682904" lon="10.026196169559782"><ele>32.0</ele><time>2026-04-19T06:18:46.998Z</time></trkpt><trkpt lat="45.11280657654208" lon="10.02616981562433"><ele>32.0</ele><time>2026-04-19T06:18:47.998Z</time></trkpt><trkpt lat="45.11287573050728" lon="10.026145154988402"><ele>31.999999999999996</ele><time>2026-04-19T06:18:48.998Z</time></trkpt><trkpt lat="45.11294829663105" lon="10.02611996959994"><ele>32.0</ele><time>2026-04-19T06:18:49.998Z</time></trkpt><trkpt lat="45.113019067630404" lon="10.02609540724077"><ele>32.0</ele><time>2026-04-19T06:18:50.998Z</time></trkpt><trkpt lat="45.1130905758871" lon="10.026072046102604"><ele>32.0</ele><time>2026-04-19T06:18:51.998Z</time></trkpt><trkpt lat="45.11316054577794" lon="10.026049232693465"><ele>31.999999999999996</ele><time>2026-04-19T06:18:52.998Z</time></trkpt><trkpt lat="45.11323218223956" lon="10.026027061075826"><ele>32.0</ele><time>2026-04-19T06:18:53.998Z</time></trkpt><trkpt lat="45.113304377434076" lon="10.026004716530224"><ele>32.0</ele><time>2026-04-19T06:18:54.998Z</time></trkpt><trkpt lat="45.11337774699134" lon="10.025982134550905"><ele>31.999999999999996</ele><time>2026-04-19T06:18:55.998Z</time></trkpt><trkpt lat="45.11344884390087" lon="10.025961344611064"><ele>32.0</ele><time>2026-04-19T06:18:56.998Z</time></trkpt><trkpt lat="45.1135203031857" lon="10.025940450574629"><ele>32.0</ele><time>2026-04-19T06:18:57.998Z</time></trkpt><trkpt lat="45.11358875159341" lon="10.02592006545841"><ele>32.14285714285714</ele><time>2026-04-19T06:18:58.998Z</time></trkpt><trkpt lat="45.113655548027985" lon="10.025897101582899"><ele>32.285714285714285</ele><time>2026-04-19T06:18:59.998Z</time></trkpt><trkpt lat="45.11372035377089" lon="10.025874821889456"><ele>32.42857142857143</ele><time>2026-04-19T06:19:00.998Z</time></trkpt><trkpt lat="45.11378979936858" lon="10.02585246817975"><ele>32.57142857142857</ele><time>2026-04-19T06:19:01.998Z</time></trkpt><trkpt lat="45.11386123479989" lon="10.025830002075491"><ele>32.714285714285715</ele><time>2026-04-19T06:19:02.998Z</time></trkpt><trkpt lat="45.11393283387401" lon="10.025807484423341"><ele>32.857142857142854</ele><time>2026-04-19T06:19:03.998Z</time></trkpt><trkpt lat="45.11400512461816" lon="10.025784749264826"><ele>33.0</ele><time>2026-04-19T06:19:04.998Z</time></trkpt><trkpt lat="45.114077985951624" lon="10.025761834632764"><ele>32.714285714285715</ele><time>2026-04-19T06:19:05.998Z</time></trkpt><trkpt lat="45.114149936194885" lon="10.025739206556391"><ele>32.42857142857143</ele><time>2026-04-19T06:19:06.998Z</time></trkpt><trkpt lat="45.114221181370404" lon="10.025716800233647"><ele>32.142857142857146</ele><time>2026-04-19T06:19:07.998Z</time></trkpt><trkpt lat="45.11429100032095" lon="10.025694842405409"><ele>31.857142857142858</ele><time>2026-04-19T06:19:08.998Z</time></trkpt><trkpt lat="45.114362327007974" lon="10.02567241043188"><ele>31.571428571428577</ele><time>2026-04-19T06:19:09.998Z</time></trkpt><trkpt lat="45.11443215998318" lon="10.025650448222652"><ele>31.28571428571429</ele><time>2026-04-19T06:19:11Z</time></trkpt><trkpt lat="45.11450478295404" lon="10.025627608552531"><ele>31.0</ele><time>2026-04-19T06:19:12Z</time></trkpt><trkpt lat="45.114574727520825" lon="10.025605611250919"><ele>31.0</ele><time>2026-04-19T06:19:13Z</time></trkpt><trkpt lat="45.11464534177316" lon="10.025582929424852"><ele>31.000000000000004</ele><time>2026-04-19T06:19:14Z</time></trkpt><trkpt lat="45.11471474395199" lon="10.025558363784958"><ele>31.0</ele><time>2026-04-19T06:19:15Z</time></trkpt><trkpt lat="45.11478413267055" lon="10.025533258124703"><ele>31.0</ele><time>2026-04-19T06:19:16Z</time></trkpt><trkpt lat="45.11485288597214" lon="10.025507643146941"><ele>31.000000000000004</ele><time>2026-04-19T06:19:17Z</time></trkpt><trkpt lat="45.1149232290228" lon="10.025480978071052"><ele>31.0</ele><time>2026-04-19T06:19:18Z</time></trkpt><trkpt lat="45.11499101728647" lon="10.025454831168883"><ele>31.0</ele><time>2026-04-19T06:19:19Z</time></trkpt><trkpt lat="45.11506062615275" lon="10.02542798202469"><ele>31.0</ele><time>2026-04-19T06:19:20Z</time></trkpt><trkpt lat="45.11512761091168" lon="10.025402145046527"><ele>31.000000000000004</ele><time>2026-04-19T06:19:21Z</time></trkpt><trkpt lat="45.11519711914303" lon="10.025375334723542"><ele>31.0</ele><time>2026-04-19T06:19:22Z</time></trkpt><trkpt lat="45.115265921409254" lon="10.025348796718665"><ele>31.0</ele><time>2026-04-19T06:19:23Z</time></trkpt><trkpt lat="45.11533593974116" lon="10.0253217896387"><ele>31.000000000000004</ele><time>2026-04-19T06:19:24Z</time></trkpt><trkpt lat="45.11540235142799" lon="10.025296173701852"><ele>31.0</ele><time>2026-04-19T06:19:25Z</time></trkpt><trkpt lat="45.11547160609928" lon="10.025268241901674"><ele>31.0</ele><time>2026-04-19T06:19:26Z</time></trkpt><trkpt lat="45.11554043671194" lon="10.025239156618206"><ele>31.0</ele><time>2026-04-19T06:19:27Z</time></trkpt><trkpt lat="45.11560906409261" lon="10.025207918460167"><ele>31.000000000000004</ele><time>2026-04-19T06:19:28Z</time></trkpt><trkpt lat="45.11567664986904" lon="10.025166226469395"><ele>31.0</ele><time>2026-04-19T06:19:29Z</time></trkpt><trkpt lat="45.11574024532114" lon="10.025114799696185"><ele>31.0</ele><time>2026-04-19T06:19:30Z</time></trkpt><trkpt lat="45.11578985760071" lon="10.025038394898386"><ele>31.000000000000004</ele><time>2026-04-19T06:19:31Z</time></trkpt><trkpt lat="45.11584427177326" lon="10.02497130247627"><ele>31.0</ele><time>2026-04-19T06:19:32Z</time></trkpt><trkpt lat="45.11589247295889" lon="10.024893001997327"><ele>31.0</ele><time>2026-04-19T06:19:33Z</time></trkpt><trkpt lat="45.115931581226896" lon="10.024806724247146"><ele>31.142857142857146</ele><time>2026-04-19T06:19:34Z</time></trkpt><trkpt lat="45.11596216021878" lon="10.024713249980692"><ele>31.28571428571429</ele><time>2026-04-19T06:19:35Z</time></trkpt><trkpt lat="45.115992803727835" lon="10.02461977901002"><ele>31.42857142857143</ele><time>2026-04-19T06:19:36Z</time></trkpt><trkpt lat="45.11602290943399" lon="10.024527852112572"><ele>31.57142857142857</ele><time>2026-04-19T06:19:37Z</time></trkpt><trkpt lat="45.116072149620976" lon="10.024445775559471"><ele>31.71428571428571</ele><time>2026-04-19T06:19:38Z</time></trkpt><trkpt lat="45.1161063252541" lon="10.024353775835024"><ele>31.857142857142854</ele><time>2026-04-19T06:19:39Z</time></trkpt><trkpt lat="45.11614001736481" lon="10.024263077854028"><ele>32.0</ele><time>2026-04-19T06:19:40Z</time></trkpt><trkpt lat="45.116174641299445" lon="10.024169871525752"><ele>32.0</ele><time>2026-04-19T06:19:41Z</time></trkpt><trkpt lat="45.11620773705935" lon="10.024080778729363"><ele>31.999999999999996</ele><time>2026-04-19T06:19:42Z</time></trkpt><trkpt lat="45.11624167719833" lon="10.02398941296469"><ele>32.0</ele><time>2026-04-19T06:19:43Z</time></trkpt><trkpt lat="45.11627528127958" lon="10.023898952050835"><ele>32.0</ele><time>2026-04-19T06:19:44Z</time></trkpt><trkpt lat="45.116309128358104" lon="10.023809459790861"><ele>31.999999999999996</ele><time>2026-04-19T06:19:45Z</time></trkpt><trkpt lat="45.116344003965644" lon="10.023720551498114"><ele>32.0</ele><time>2026-04-19T06:19:46Z</time></trkpt><trkpt lat="45.11637813783473" lon="10.023635622401532"><ele>32.0</ele><time>2026-04-19T06:19:47Z</time></trkpt><trkpt lat="45.11641542280417" lon="10.023548655812938"><ele>32.0</ele><time>2026-04-19T06:19:48Z</time></trkpt><trkpt lat="45.11645455069996" lon="10.023467554147283"><ele>31.999999999999996</ele><time>2026-04-19T06:19:49Z</time></trkpt><trkpt lat="45.1164953382341" lon="10.023384057382172"><ele>32.0</ele><time>2026-04-19T06:19:50Z</time></trkpt><trkpt lat="45.11653798661821" lon="10.023302778437248"><ele>32.0</ele><time>2026-04-19T06:19:51Z</time></trkpt><trkpt lat="45.11658114512279" lon="10.023223606261563"><ele>31.999999999999996</ele><time>2026-04-19T06:19:51.999Z</time></trkpt><trkpt lat="45.116625273679354" lon="10.023144305878471"><ele>32.0</ele><time>2026-04-19T06:19:52.999Z</time></trkpt><trkpt lat="45.11666946761673" lon="10.023064887940054"><ele>32.0</ele><time>2026-04-19T06:19:53.999Z</time></trkpt><trkpt lat="45.11671377883065" lon="10.022985259296705"><ele>32.0</ele><time>2026-04-19T06:19:54.999Z</time></trkpt><trkpt lat="45.116758749645804" lon="10.022904445338245"><ele>31.999999999999996</ele><time>2026-04-19T06:19:55.999Z</time></trkpt><trkpt lat="45.1168032275238" lon="10.022825649386169"><ele>32.0</ele><time>2026-04-19T06:19:56.999Z</time></trkpt><trkpt lat="45.116847246903156" lon="10.022750214741492"><ele>32.0</ele><time>2026-04-19T06:19:57.999Z</time></trkpt><trkpt lat="45.11689547551513" lon="10.022671690149979"><ele>31.999999999999996</ele><time>2026-04-19T06:19:58.999Z</time></trkpt><trkpt lat="45.11694346659751" lon="10.02259898956495"><ele>32.0</ele><time>2026-04-19T06:19:59.999Z</time></trkpt><trkpt lat="45.116993646658074" lon="10.022532167163597"><ele>32.0</ele><time>2026-04-19T06:20:00.999Z</time></trkpt><trkpt lat="45.117046466029706" lon="10.02246288907783"><ele>32.0</ele><time>2026-04-19T06:20:01.999Z</time></trkpt><trkpt lat="45.11710109003319" lon="10.022399250070187"><ele>31.999999999999996</ele><time>2026-04-19T06:20:02.999Z</time></trkpt><trkpt lat="45.11715692711529" lon="10.02233533244049"><ele>32.0</ele><time>2026-04-19T06:20:03.999Z</time></trkpt><trkpt lat="45.11721239923033" lon="10.022271832606469"><ele>32.0</ele><time>2026-04-19T06:20:04.999Z</time></trkpt><trkpt lat="45.11726843892207" lon="10.022206804377737"><ele>31.999999999999996</ele><time>2026-04-19T06:20:05.999Z</time></trkpt><trkpt lat="45.117323059544084" lon="10.022142241679585"><ele>32.0</ele><time>2026-04-19T06:20:06.999Z</time></trkpt><trkpt lat="45.11737734091033" lon="10.022078080029132"><ele>32.0</ele><time>2026-04-19T06:20:07.999Z</time></trkpt><trkpt lat="45.11743411684619" lon="10.022010969751106"><ele>32.0</ele><time>2026-04-19T06:20:08.999Z</time></trkpt><trkpt lat="45.117488855255836" lon="10.021946267862399"><ele>31.999999999999996</ele><time>2026-04-19T06:20:09.999Z</time></trkpt><trkpt lat="45.11754349525315" lon="10.021881682297444"><ele>32.0</ele><time>2026-04-19T06:20:10.999Z</time></trkpt><trkpt lat="45.117597452691015" lon="10.021817903514913"><ele>32.0</ele><time>2026-04-19T06:20:11.999Z</time></trkpt><trkpt lat="45.117651908938484" lon="10.021753535172078"><ele>31.999999999999996</ele><time>2026-04-19T06:20:12.999Z</time></trkpt><trkpt lat="45.11770565549808" lon="10.02169022791381"><ele>32.0</ele><time>2026-04-19T06:20:13.999Z</time></trkpt><trkpt lat="45.11776094958552" lon="10.021626070611882"><ele>32.0</ele><time>2026-04-19T06:20:14.999Z</time></trkpt><trkpt lat="45.117816518368016" lon="10.021561737705852"><ele>32.0</ele><time>2026-04-19T06:20:15.999Z</time></trkpt><trkpt lat="45.11787217877312" lon="10.021497854770278"><ele>31.999999999999996</ele><time>2026-04-19T06:20:16.999Z</time></trkpt><trkpt lat="45.11792796764231" lon="10.021433824280987"><ele>32.0</ele><time>2026-04-19T06:20:17.999Z</time></trkpt><trkpt lat="45.117983001681196" lon="10.021369701360149"><ele>32.0</ele><time>2026-04-19T06:20:18.999Z</time></trkpt><trkpt lat="45.11803824102641" lon="10.021304424001269"><ele>31.999999999999996</ele><time>2026-04-19T06:20:19.999Z</time></trkpt><trkpt lat="45.11809148035027" lon="10.021239510892599"><ele>32.0</ele><time>2026-04-19T06:20:20.999Z</time></trkpt><trkpt lat="45.118146250308" lon="10.02117239135965"><ele>32.0</ele><time>2026-04-19T06:20:21.999Z</time></trkpt><trkpt lat="45.118199829054824" lon="10.021105187767468"><ele>32.14285714285714</ele><time>2026-04-19T06:20:22.999Z</time></trkpt><trkpt lat="45.118252532524444" lon="10.021038242679976"><ele>32.285714285714285</ele><time>2026-04-19T06:20:23.999Z</time></trkpt><trkpt lat="45.11829460013168" lon="10.0209514991508"><ele>32.42857142857143</ele><time>2026-04-19T06:20:24.999Z</time></trkpt><trkpt lat="45.11834575302339" lon="10.020880605757366"><ele>32.57142857142857</ele><time>2026-04-19T06:20:25.999Z</time></trkpt><trkpt lat="45.1184079974936" lon="10.020824102088893"><ele>32.714285714285715</ele><time>2026-04-19T06:20:26.999Z</time></trkpt><trkpt lat="45.11845813165089" lon="10.020751109104808"><ele>32.857142857142854</ele><time>2026-04-19T06:20:27.999Z</time></trkpt><trkpt lat="45.11850789194803" lon="10.020678264460516"><ele>33.0</ele><time>2026-04-19T06:20:28.999Z</time></trkpt><trkpt lat="45.11855665347715" lon="10.02060679982555"><ele>33.0</ele><time>2026-04-19T06:20:29.999Z</time></trkpt><trkpt lat="45.118594664044736" lon="10.020517915211713"><ele>33.0</ele><time>2026-04-19T06:20:30.999Z</time></trkpt><trkpt lat="45.118643557855435" lon="10.0204459801634"><ele>33.0</ele><time>2026-04-19T06:20:31.999Z</time></trkpt><trkpt lat="45.118692740618265" lon="10.020374039915566"><ele>33.0</ele><time>2026-04-19T06:20:32.999Z</time></trkpt><trkpt lat="45.118741582247395" lon="10.020301538633246"><ele>33.0</ele><time>2026-04-19T06:20:33.999Z</time></trkpt><trkpt lat="45.11880158290006" lon="10.020246937092367"><ele>33.0</ele><time>2026-04-19T06:20:34.999Z</time></trkpt><trkpt lat="45.1188396812557" lon="10.020157736695518"><ele>33.0</ele><time>2026-04-19T06:20:35.999Z</time></trkpt><trkpt lat="45.1188887572322" lon="10.020084813729868"><ele>33.0</ele><time>2026-04-19T06:20:36.999Z</time></trkpt><trkpt lat="45.11893790527186" lon="10.020012697041592"><ele>33.0</ele><time>2026-04-19T06:20:37.999Z</time></trkpt><trkpt lat="45.11899974415704" lon="10.01995427061847"><ele>33.0</ele><time>2026-04-19T06:20:38.999Z</time></trkpt><trkpt lat="45.1190477340341" lon="10.019881017681278"><ele>33.0</ele><time>2026-04-19T06:20:39.999Z</time></trkpt><trkpt lat="45.11909681084642" lon="10.019806070047686"><ele>33.0</ele><time>2026-04-19T06:20:40.999Z</time></trkpt><trkpt lat="45.11913299632271" lon="10.019716878447392"><ele>33.0</ele><time>2026-04-19T06:20:41.999Z</time></trkpt><trkpt lat="45.11917954190458" lon="10.01964046473957"><ele>33.0</ele><time>2026-04-19T06:20:42.999Z</time></trkpt><trkpt lat="45.11923752172223" lon="10.019577375193936"><ele>33.0</ele><time>2026-04-19T06:20:43.999Z</time></trkpt><trkpt lat="45.11928122112973" lon="10.01949549378199"><ele>33.0</ele><time>2026-04-19T06:20:44.999Z</time></trkpt><trkpt lat="45.11932213238617" lon="10.019412168166712"><ele>33.0</ele><time>2026-04-19T06:20:45.998Z</time></trkpt><trkpt lat="45.119349268851096" lon="10.019315033901528"><ele>33.0</ele><time>2026-04-19T06:20:46.998Z</time></trkpt><trkpt lat="45.11938715082997" lon="10.019230673440802"><ele>33.0</ele><time>2026-04-19T06:20:47.998Z</time></trkpt><trkpt lat="45.11942394909654" lon="10.019143868200768"><ele>33.0</ele><time>2026-04-19T06:20:48.998Z</time></trkpt><trkpt lat="45.11946155908129" lon="10.019056887803316"><ele>33.0</ele><time>2026-04-19T06:20:49.998Z</time></trkpt><trkpt lat="45.11949679925637" lon="10.018970764727337"><ele>32.857142857142854</ele><time>2026-04-19T06:20:50.998Z</time></trkpt><trkpt lat="45.11953314564082" lon="10.01888336029441"><ele>32.714285714285715</ele><time>2026-04-19T06:20:51.998Z</time></trkpt><trkpt lat="45.119570432774914" lon="10.018797862545393"><ele>32.57142857142857</ele><time>2026-04-19T06:20:52.998Z</time></trkpt><trkpt lat="45.119605232116214" lon="10.01870927301824"><ele>32.42857142857143</ele><time>2026-04-19T06:20:53.998Z</time></trkpt><trkpt lat="45.11964141026218" lon="10.018625814283903"><ele>32.285714285714285</ele><time>2026-04-19T06:20:54.998Z</time></trkpt><trkpt lat="45.11967724346142" lon="10.018539537134378"><ele>32.14285714285714</ele><time>2026-04-19T06:20:55.998Z</time></trkpt><trkpt lat="45.11971249102348" lon="10.018454368709065"><ele>32.0</ele><time>2026-04-19T06:20:56.998Z</time></trkpt><trkpt lat="45.11974712789314" lon="10.018367569184786"><ele>32.285714285714285</ele><time>2026-04-19T06:20:57.998Z</time></trkpt><trkpt lat="45.11978358635658" lon="10.018282369586958"><ele>32.57142857142857</ele><time>2026-04-19T06:20:58.998Z</time></trkpt><trkpt lat="45.11983328616322" lon="10.018210070178199"><ele>32.857142857142854</ele><time>2026-04-19T06:20:59.998Z</time></trkpt><trkpt lat="45.11986913636989" lon="10.018126511641714"><ele>33.14285714285714</ele><time>2026-04-19T06:21:00.998Z</time></trkpt><trkpt lat="45.11990555987828" lon="10.018040922572862"><ele>33.42857142857143</ele><time>2026-04-19T06:21:01.998Z</time></trkpt><trkpt lat="45.11994108893535" lon="10.017957435159932"><ele>33.71428571428571</ele><time>2026-04-19T06:21:02.998Z</time></trkpt><trkpt lat="45.11997669030528" lon="10.017873777842961"><ele>34.0</ele><time>2026-04-19T06:21:03.998Z</time></trkpt><trkpt lat="45.120012004858346" lon="10.017790794561815"><ele>33.99999999999999</ele><time>2026-04-19T06:21:04.998Z</time></trkpt><trkpt lat="45.120047595909945" lon="10.01770720448951"><ele>34.0</ele><time>2026-04-19T06:21:05.998Z</time></trkpt><trkpt lat="45.12008241457587" lon="10.017625514334739"><ele>34.0</ele><time>2026-04-19T06:21:06.998Z</time></trkpt><trkpt lat="45.12011746928291" lon="10.017543061760554"><ele>34.0</ele><time>2026-04-19T06:21:07.998Z</time></trkpt><trkpt lat="45.12015205059578" lon="10.017461722584862"><ele>34.0</ele><time>2026-04-19T06:21:08.998Z</time></trkpt><trkpt lat="45.12017277646843" lon="10.017367306259416"><ele>33.99999999999999</ele><time>2026-04-19T06:21:09.998Z</time></trkpt><trkpt lat="45.120207702079234" lon="10.017285757657913"><ele>34.0</ele><time>2026-04-19T06:21:10.998Z</time></trkpt><trkpt lat="45.12024273258744" lon="10.017204636762829"><ele>33.99999999999999</ele><time>2026-04-19T06:21:11.998Z</time></trkpt><trkpt lat="45.12027729524072" lon="10.017122869522094"><ele>34.0</ele><time>2026-04-19T06:21:12.998Z</time></trkpt><trkpt lat="45.12031325416802" lon="10.017042333475393"><ele>34.0</ele><time>2026-04-19T06:21:13.998Z</time></trkpt><trkpt lat="45.12034757194136" lon="10.016960583698097"><ele>34.0</ele><time>2026-04-19T06:21:14.998Z</time></trkpt><trkpt lat="45.120383686456684" lon="10.016878959513388"><ele>34.0</ele><time>2026-04-19T06:21:15.998Z</time></trkpt><trkpt lat="45.120420772442976" lon="10.016796229743745"><ele>33.99999999999999</ele><time>2026-04-19T06:21:17Z</time></trkpt><trkpt lat="45.120456378231786" lon="10.01671171785993"><ele>34.0</ele><time>2026-04-19T06:21:18Z</time></trkpt><trkpt lat="45.120491597521486" lon="10.016627101068298"><ele>33.857142857142854</ele><time>2026-04-19T06:21:19Z</time></trkpt><trkpt lat="45.120542807031654" lon="10.016553789942096"><ele>33.714285714285715</ele><time>2026-04-19T06:21:20Z</time></trkpt><trkpt lat="45.1205788922758" lon="10.016471742665685"><ele>33.57142857142857</ele><time>2026-04-19T06:21:21Z</time></trkpt><trkpt lat="45.120616445223945" lon="10.016387674775622"><ele>33.42857142857143</ele><time>2026-04-19T06:21:22Z</time></trkpt><trkpt lat="45.120654872168096" lon="10.01630530222157"><ele>33.285714285714285</ele><time>2026-04-19T06:21:23Z</time></trkpt><trkpt lat="45.12069725886871" lon="10.016224496553653"><ele>33.14285714285714</ele><time>2026-04-19T06:21:24Z</time></trkpt><trkpt lat="45.12074066532175" lon="10.016144229905704"><ele>33.0</ele><time>2026-04-19T06:21:25Z</time></trkpt><trkpt lat="45.12077147977344" lon="10.016050039272525"><ele>33.0</ele><time>2026-04-19T06:21:26Z</time></trkpt><trkpt lat="45.12082675066753" lon="10.01598504197663"><ele>33.0</ele><time>2026-04-19T06:21:27Z</time></trkpt><trkpt lat="45.12086914363323" lon="10.015906649434168"><ele>33.0</ele><time>2026-04-19T06:21:28Z</time></trkpt><trkpt lat="45.12089785425804" lon="10.015817554577358"><ele>33.0</ele><time>2026-04-19T06:21:29Z</time></trkpt><trkpt lat="45.120939730597236" lon="10.015743923183829"><ele>33.0</ele><time>2026-04-19T06:21:30Z</time></trkpt><trkpt lat="45.12098214427857" lon="10.015661723293865"><ele>33.0</ele><time>2026-04-19T06:21:31Z</time></trkpt><trkpt lat="45.12103921381591" lon="10.01559263413356"><ele>33.0</ele><time>2026-04-19T06:21:32Z</time></trkpt><trkpt lat="45.121082625280806" lon="10.015513625348175"><ele>33.14285714285714</ele><time>2026-04-19T06:21:33Z</time></trkpt><trkpt lat="45.12111514025862" lon="10.0154181519134"><ele>33.285714285714285</ele><time>2026-04-19T06:21:34Z</time></trkpt><trkpt lat="45.121159898668324" lon="10.015339422312707"><ele>33.42857142857143</ele><time>2026-04-19T06:21:35Z</time></trkpt><trkpt lat="45.121205791234985" lon="10.015258119907504"><ele>33.57142857142857</ele><time>2026-04-19T06:21:36Z</time></trkpt><trkpt lat="45.12126221400737" lon="10.015192519832462"><ele>33.714285714285715</ele><time>2026-04-19T06:21:37Z</time></trkpt><trkpt lat="45.12130785045193" lon="10.01511100943642"><ele>33.857142857142854</ele><time>2026-04-19T06:21:38Z</time></trkpt><trkpt lat="45.12135250686725" lon="10.015032597777314"><ele>34.0</ele><time>2026-04-19T06:21:39Z</time></trkpt><trkpt lat="45.121397714966534" lon="10.014954108404806"><ele>33.99999999999999</ele><time>2026-04-19T06:21:40Z</time></trkpt><trkpt lat="45.12144362623381" lon="10.014874398274799"><ele>34.0</ele><time>2026-04-19T06:21:41Z</time></trkpt><trkpt lat="45.12148891090565" lon="10.014796635267995"><ele>34.0</ele><time>2026-04-19T06:21:42Z</time></trkpt><trkpt lat="45.121536110274064" lon="10.014716651789582"><ele>34.0</ele><time>2026-04-19T06:21:43Z</time></trkpt><trkpt lat="45.1215816725741" lon="10.014642077227778"><ele>34.0</ele><time>2026-04-19T06:21:44Z</time></trkpt><trkpt lat="45.12162814866252" lon="10.014566720851903"><ele>33.99999999999999</ele><time>2026-04-19T06:21:45Z</time></trkpt><trkpt lat="45.12167570902917" lon="10.014489606354308"><ele>34.0</ele><time>2026-04-19T06:21:46Z</time></trkpt><trkpt lat="45.12171042577961" lon="10.014400394227053"><ele>33.71428571428571</ele><time>2026-04-19T06:21:47Z</time></trkpt><trkpt lat="45.12175895346594" lon="10.014323828363455"><ele>33.42857142857143</ele><time>2026-04-19T06:21:48Z</time></trkpt><trkpt lat="45.121806624016784" lon="10.014250657391363"><ele>33.14285714285714</ele><time>2026-04-19T06:21:49Z</time></trkpt><trkpt lat="45.121853020068656" lon="10.01417145402992"><ele>32.857142857142854</ele><time>2026-04-19T06:21:50Z</time></trkpt><trkpt lat="45.12189839699211" lon="10.014097094224207"><ele>32.57142857142857</ele><time>2026-04-19T06:21:51Z</time></trkpt><trkpt lat="45.12195796367333" lon="10.014038230286138"><ele>32.285714285714285</ele><time>2026-04-19T06:21:52Z</time></trkpt><trkpt lat="45.12200525293799" lon="10.01396408622418"><ele>32.0</ele><time>2026-04-19T06:21:53Z</time></trkpt><trkpt lat="45.12205205497034" lon="10.01388781537649"><ele>32.0</ele><time>2026-04-19T06:21:54Z</time></trkpt><trkpt lat="45.12209817734698" lon="10.013812316626597"><ele>31.999999999999996</ele><time>2026-04-19T06:21:55Z</time></trkpt><trkpt lat="45.1221341413238" lon="10.013721361386883"><ele>32.0</ele><time>2026-04-19T06:21:56Z</time></trkpt><trkpt lat="45.12217934981683" lon="10.013647425517505"><ele>32.0</ele><time>2026-04-19T06:21:56.999Z</time></trkpt><trkpt lat="45.12222753578037" lon="10.013571763359792"><ele>31.999999999999996</ele><time>2026-04-19T06:21:57.999Z</time></trkpt><trkpt lat="45.12227395212692" lon="10.01349713284986"><ele>32.0</ele><time>2026-04-19T06:21:58.999Z</time></trkpt><trkpt lat="45.12232287206966" lon="10.013420033337635"><ele>32.0</ele><time>2026-04-19T06:21:59.999Z</time></trkpt><trkpt lat="45.12236867856423" lon="10.01334576493988"><ele>31.857142857142854</ele><time>2026-04-19T06:22:00.999Z</time></trkpt><trkpt lat="45.122411892063134" lon="10.013268115773274"><ele>31.71428571428571</ele><time>2026-04-19T06:22:01.999Z</time></trkpt><trkpt lat="45.12247010729646" lon="10.013204634633198"><ele>31.57142857142857</ele><time>2026-04-19T06:22:02.999Z</time></trkpt><trkpt lat="45.122514475314475" lon="10.013124681634245"><ele>31.42857142857143</ele><time>2026-04-19T06:22:03.999Z</time></trkpt><trkpt lat="45.12255718318124" lon="10.013041394815444"><ele>31.28571428571429</ele><time>2026-04-19T06:22:04.999Z</time></trkpt><trkpt lat="45.122596325406086" lon="10.012955431349857"><ele>31.142857142857146</ele><time>2026-04-19T06:22:05.999Z</time></trkpt><trkpt lat="45.1226326244395" lon="10.012869454610767"><ele>31.0</ele><time>2026-04-19T06:22:06.999Z</time></trkpt><trkpt lat="45.12265605080272" lon="10.012771403479068"><ele>31.0</ele><time>2026-04-19T06:22:07.999Z</time></trkpt><trkpt lat="45.12269233908927" lon="10.012686758231293"><ele>31.000000000000004</ele><time>2026-04-19T06:22:08.999Z</time></trkpt><trkpt lat="45.12272757224088" lon="10.01260126911282"><ele>31.0</ele><time>2026-04-19T06:22:09.999Z</time></trkpt><trkpt lat="45.122760104776525" lon="10.012512453604561"><ele>31.0</ele><time>2026-04-19T06:22:10.999Z</time></trkpt><trkpt lat="45.12280556179955" lon="10.012434327278863"><ele>31.000000000000004</ele><time>2026-04-19T06:22:11.999Z</time></trkpt><trkpt lat="45.12283641671347" lon="10.012346070576633"><ele>31.0</ele><time>2026-04-19T06:22:12.999Z</time></trkpt><trkpt lat="45.12285472978027" lon="10.012244993475463"><ele>31.0</ele><time>2026-04-19T06:22:13.999Z</time></trkpt><trkpt lat="45.122884177276774" lon="10.01215567396894"><ele>31.42857142857143</ele><time>2026-04-19T06:22:14.999Z</time></trkpt><trkpt lat="45.12291506468115" lon="10.012064285557186"><ele>31.85714285714286</ele><time>2026-04-19T06:22:15.999Z</time></trkpt><trkpt lat="45.12294505303106" lon="10.011974631730105"><ele>32.285714285714285</ele><time>2026-04-19T06:22:16.999Z</time></trkpt><trkpt lat="45.122975112891254" lon="10.01188286885843"><ele>32.714285714285715</ele><time>2026-04-19T06:22:17.999Z</time></trkpt><trkpt lat="45.123005730474404" lon="10.011792223493606"><ele>33.14285714285714</ele><time>2026-04-19T06:22:18.999Z</time></trkpt><trkpt lat="45.12303607776962" lon="10.01169976949387"><ele>33.57142857142857</ele><time>2026-04-19T06:22:19.999Z</time></trkpt><trkpt lat="45.12306479605941" lon="10.011609455592598"><ele>34.0</ele><time>2026-04-19T06:22:20.999Z</time></trkpt><trkpt lat="45.12310902415383" lon="10.011528242144243"><ele>33.99999999999999</ele><time>2026-04-19T06:22:21.999Z</time></trkpt><trkpt lat="45.12312384803179" lon="10.011429491107565"><ele>34.0</ele><time>2026-04-19T06:22:22.999Z</time></trkpt><trkpt lat="45.123155768086775" lon="10.01134263096295"><ele>34.0</ele><time>2026-04-19T06:22:23.999Z</time></trkpt><trkpt lat="45.12318550655035" lon="10.011253658881916"><ele>34.0</ele><time>2026-04-19T06:22:24.999Z</time></trkpt><trkpt lat="45.123214102875224" lon="10.011164561879731"><ele>34.0</ele><time>2026-04-19T06:22:25.999Z</time></trkpt><trkpt lat="45.12324285731342" lon="10.011078085858594"><ele>33.99999999999999</ele><time>2026-04-19T06:22:26.999Z</time></trkpt><trkpt lat="45.123274008928746" lon="10.01099141862603"><ele>34.0</ele><time>2026-04-19T06:22:27.999Z</time></trkpt><trkpt lat="45.12330375880769" lon="10.01090329518016"><ele>33.99999999999999</ele><time>2026-04-19T06:22:28.999Z</time></trkpt><trkpt lat="45.123333587370006" lon="10.010813334884375"><ele>34.0</ele><time>2026-04-19T06:22:29.999Z</time></trkpt><trkpt lat="45.12336284669404" lon="10.010726538249491"><ele>34.0</ele><time>2026-04-19T06:22:30.999Z</time></trkpt><trkpt lat="45.123392461641245" lon="10.01063478798134"><ele>34.0</ele><time>2026-04-19T06:22:31.999Z</time></trkpt><trkpt lat="45.123421966518116" lon="10.010547776790084"><ele>34.0</ele><time>2026-04-19T06:22:32.999Z</time></trkpt><trkpt lat="45.123451990974786" lon="10.010457872573784"><ele>33.99999999999999</ele><time>2026-04-19T06:22:33.999Z</time></trkpt><trkpt lat="45.123481007030975" lon="10.010369565577765"><ele>34.0</ele><time>2026-04-19T06:22:34.999Z</time></trkpt><trkpt lat="45.123511760603506" lon="10.010282443634626"><ele>33.99999999999999</ele><time>2026-04-19T06:22:35.999Z</time></trkpt><trkpt lat="45.123542162687954" lon="10.010195744940585"><ele>34.0</ele><time>2026-04-19T06:22:36.999Z</time></trkpt><trkpt lat="45.123571877427864" lon="10.010106874007153"><ele>34.0</ele><time>2026-04-19T06:22:37.999Z</time></trkpt><trkpt lat="45.12360079181342" lon="10.010017389690463"><ele>34.0</ele><time>2026-04-19T06:22:38.999Z</time></trkpt><trkpt lat="45.12363070220432" lon="10.009929064061383"><ele>34.0</ele><time>2026-04-19T06:22:39.999Z</time></trkpt><trkpt lat="45.123659962833834" lon="10.009841508459719"><ele>33.99999999999999</ele><time>2026-04-19T06:22:40.999Z</time></trkpt><trkpt lat="45.12368877391026" lon="10.00975471315017"><ele>34.0</ele><time>2026-04-19T06:22:41.999Z</time></trkpt><trkpt lat="45.123718500880216" lon="10.009666564308372"><ele>33.99999999999999</ele><time>2026-04-19T06:22:42.999Z</time></trkpt><trkpt lat="45.12374691779566" lon="10.009578620948501"><ele>34.0</ele><time>2026-04-19T06:22:43.999Z</time></trkpt><trkpt lat="45.12377646995353" lon="10.00949258619198"><ele>34.0</ele><time>2026-04-19T06:22:44.999Z</time></trkpt><trkpt lat="45.12380387372452" lon="10.009408830485842"><ele>34.0</ele><time>2026-04-19T06:22:45.999Z</time></trkpt><trkpt lat="45.123834263339376" lon="10.009323397986138"><ele>34.0</ele><time>2026-04-19T06:22:46.999Z</time></trkpt><trkpt lat="45.12386173481715" lon="10.009240888276572"><ele>33.99999999999999</ele><time>2026-04-19T06:22:47.999Z</time></trkpt><trkpt lat="45.12388952319677" lon="10.009158076285415"><ele>34.0</ele><time>2026-04-19T06:22:48.999Z</time></trkpt><trkpt lat="45.123941470110275" lon="10.00899747333041"><ele>34.0</ele><time>2026-04-19T06:22:50.998Z</time></trkpt><trkpt lat="45.123969348818655" lon="10.00891722354895"><ele>34.0</ele><time>2026-04-19T06:22:51.998Z</time></trkpt><trkpt lat="45.12402055306799" lon="10.008761976965944"><ele>34.0</ele><time>2026-04-19T06:22:53.998Z</time></trkpt><trkpt lat="45.12407239204564" lon="10.0086069330972"><ele>34.0</ele><time>2026-04-19T06:22:55.998Z</time></trkpt><trkpt lat="45.124121783406686" lon="10.00845339080261"><ele>34.0</ele><time>2026-04-19T06:22:57.998Z</time></trkpt><trkpt lat="45.124172078925824" lon="10.00830749309734"><ele>34.6</ele><time>2026-04-19T06:22:59.998Z</time></trkpt><trkpt lat="45.12421754164776" lon="10.008173824256305"><ele>35.2</ele><time>2026-04-19T06:23:01.998Z</time></trkpt><trkpt lat="45.12427570645166" lon="10.008047872934029"><ele>35.800000000000004</ele><time>2026-04-19T06:23:03.998Z</time></trkpt><trkpt lat="45.12432367742896" lon="10.007902859898836"><ele>36.4</ele><time>2026-04-19T06:23:05.998Z</time></trkpt><trkpt lat="45.12435772106543" lon="10.007745293494974"><ele>37.0</ele><time>2026-04-19T06:23:07.998Z</time></trkpt><trkpt lat="45.124408291864036" lon="10.007603595339779"><ele>37.8</ele><time>2026-04-19T06:23:09.998Z</time></trkpt><trkpt lat="45.12445416030512" lon="10.00746589253769"><ele>38.6</ele><time>2026-04-19T06:23:11.998Z</time></trkpt><trkpt lat="45.124495989407684" lon="10.007333590498932"><ele>39.4</ele><time>2026-04-19T06:23:13.998Z</time></trkpt><trkpt lat="45.12453504650718" lon="10.007212367801044"><ele>40.199999999999996</ele><time>2026-04-19T06:23:15.998Z</time></trkpt><trkpt lat="45.124569352739655" lon="10.007114833977251"><ele>41.0</ele><time>2026-04-19T06:23:17.998Z</time></trkpt><trkpt lat="45.12461496708869" lon="10.007023396699035"><ele>41.0</ele><time>2026-04-19T06:23:25Z</time></trkpt><trkpt lat="45.12464323847348" lon="10.00692497426622"><ele>41.0</ele><time>2026-04-19T06:23:28Z</time></trkpt><trkpt lat="45.124640350363364" lon="10.007043826104498"><ele>41.0</ele><time>2026-04-19T06:23:29Z</time></trkpt><trkpt lat="45.12470616692838" lon="10.007131226233332"><ele>41.0</ele><time>2026-04-19T06:23:31Z</time></trkpt><trkpt lat="45.12485648259678" lon="10.007079878981273"><ele>41.0</ele><time>2026-04-19T06:23:33Z</time></trkpt><trkpt lat="45.12486856855578" lon="10.00730265306458"><ele>39.5</ele><time>2026-04-19T06:23:35Z</time></trkpt><trkpt lat="45.12495941939424" lon="10.007398000691785"><ele>38.0</ele><time>2026-04-19T06:23:37Z</time></trkpt><trkpt lat="45.12505299758222" lon="10.007495688187328"><ele>36.5</ele><time>2026-04-19T06:23:39Z</time></trkpt><trkpt lat="45.12515203997348" lon="10.007599108456233"><ele>35.0</ele><time>2026-04-19T06:23:41Z</time></trkpt><trkpt lat="45.12525034422544" lon="10.00770226821203"><ele>35.0</ele><time>2026-04-19T06:23:43Z</time></trkpt><trkpt lat="45.125349657231425" lon="10.007806730159176"><ele>35.0</ele><time>2026-04-19T06:23:45Z</time></trkpt><trkpt lat="45.12540157417095" lon="10.007861338737564"><ele>35.0</ele><time>2026-04-19T06:23:46Z</time></trkpt><trkpt lat="45.125508957489956" lon="10.007974289354006"><ele>35.0</ele><time>2026-04-19T06:23:48Z</time></trkpt><trkpt lat="45.12556343822423" lon="10.008031594687864"><ele>35.0</ele><time>2026-04-19T06:23:49Z</time></trkpt><trkpt lat="45.125618837695825" lon="10.008089866347905"><ele>35.0</ele><time>2026-04-19T06:23:50Z</time></trkpt><trkpt lat="45.12567005495554" lon="10.008143774204273"><ele>35.0</ele><time>2026-04-19T06:23:51Z</time></trkpt><trkpt lat="45.12576776120656" lon="10.008246773284027"><ele>35.0</ele><time>2026-04-19T06:23:53Z</time></trkpt><trkpt lat="45.1258183893127" lon="10.008300144003973"><ele>35.0</ele><time>2026-04-19T06:23:54Z</time></trkpt><trkpt lat="45.125911783013535" lon="10.008398597005387"><ele>35.0</ele><time>2026-04-19T06:23:56Z</time></trkpt><trkpt lat="45.1260059696603" lon="10.00849788589532"><ele>35.8</ele><time>2026-04-19T06:23:58Z</time></trkpt><trkpt lat="45.12609258979207" lon="10.00859034941685"><ele>36.6</ele><time>2026-04-19T06:24:00Z</time></trkpt><trkpt lat="45.12618465715586" lon="10.008687778953343"><ele>37.4</ele><time>2026-04-19T06:24:01.999Z</time></trkpt><trkpt lat="45.126275964133335" lon="10.008784347141962"><ele>38.2</ele><time>2026-04-19T06:24:03.999Z</time></trkpt><trkpt lat="45.126364698134125" lon="10.00887819407863"><ele>39.0</ele><time>2026-04-19T06:24:05.999Z</time></trkpt><trkpt lat="45.1264550276637" lon="10.008973728435064"><ele>39.0</ele><time>2026-04-19T06:24:07.999Z</time></trkpt><trkpt lat="45.12653678457953" lon="10.009061529252062"><ele>39.0</ele><time>2026-04-19T06:24:09.999Z</time></trkpt><trkpt lat="45.12662071972703" lon="10.009151990207327"><ele>39.0</ele><time>2026-04-19T06:24:11.999Z</time></trkpt><trkpt lat="45.12669453287198" lon="10.009231542285162"><ele>39.0</ele><time>2026-04-19T06:24:13.999Z</time></trkpt><trkpt lat="45.12677379636115" lon="10.009317256464552"><ele>39.0</ele><time>2026-04-19T06:24:15.999Z</time></trkpt><trkpt lat="45.126842857007816" lon="10.009391968615935"><ele>38.5</ele><time>2026-04-19T06:24:17.999Z</time></trkpt><trkpt lat="45.12691812418828" lon="10.009474175787311"><ele>38.0</ele><time>2026-04-19T06:24:19.999Z</time></trkpt><trkpt lat="45.12701666562197" lon="10.009589169268684"><ele>37.5</ele><time>2026-04-19T06:24:22.999Z</time></trkpt><trkpt lat="45.12709665993203" lon="10.009627482590588"><ele>37.0</ele><time>2026-04-19T06:24:24.999Z</time></trkpt><trkpt lat="45.12730538168095" lon="10.009577392911874"><ele>37.0</ele><time>2026-04-19T06:24:25.999Z</time></trkpt><trkpt lat="45.12718258367414" lon="10.009336922326066"><ele>37.0</ele><time>2026-04-19T06:24:26.999Z</time></trkpt><trkpt lat="45.12726000365408" lon="10.009353355836248"><ele>37.0</ele><time>2026-04-19T06:24:28.999Z</time></trkpt><trkpt lat="45.1273204641487" lon="10.009250616721292"><ele>37.0</ele><time>2026-04-19T06:24:30.999Z</time></trkpt><trkpt lat="45.12735711994422" lon="10.009100336999552"><ele>37.0</ele><time>2026-04-19T06:24:32.999Z</time></trkpt><trkpt lat="45.12740224555748" lon="10.008963040107554"><ele>37.0</ele><time>2026-04-19T06:24:34.999Z</time></trkpt><trkpt lat="45.127443487096365" lon="10.008817966794972"><ele>37.0</ele><time>2026-04-19T06:24:36.999Z</time></trkpt><trkpt lat="45.127488347067676" lon="10.008666179467793"><ele>37.0</ele><time>2026-04-19T06:24:38.999Z</time></trkpt><trkpt lat="45.127532138030084" lon="10.008517545086365"><ele>37.0</ele><time>2026-04-19T06:24:40.999Z</time></trkpt><trkpt lat="45.1275774588454" lon="10.008371982697705"><ele>36.75</ele><time>2026-04-19T06:24:42.999Z</time></trkpt><trkpt lat="45.12762891060541" lon="10.008232327497675"><ele>36.5</ele><time>2026-04-19T06:24:44.999Z</time></trkpt><trkpt lat="45.12768174584979" lon="10.008089126698563"><ele>36.25</ele><time>2026-04-19T06:24:46.999Z</time></trkpt><trkpt lat="45.12772747595605" lon="10.007940346256667"><ele>36.0</ele><time>2026-04-19T06:24:48.999Z</time></trkpt><trkpt lat="45.127780159787676" lon="10.007793770761038"><ele>36.0</ele><time>2026-04-19T06:24:50.999Z</time></trkpt><trkpt lat="45.12783092144892" lon="10.007647245862305"><ele>36.0</ele><time>2026-04-19T06:24:52.999Z</time></trkpt><trkpt lat="45.127880049365174" lon="10.007497719315907"><ele>36.0</ele><time>2026-04-19T06:24:54.998Z</time></trkpt><trkpt lat="45.12793379336866" lon="10.007349333556744"><ele>36.0</ele><time>2026-04-19T06:24:56.998Z</time></trkpt><trkpt lat="45.12798299760388" lon="10.007197903199978"><ele>36.0</ele><time>2026-04-19T06:24:58.998Z</time></trkpt><trkpt lat="45.128033326648115" lon="10.007051258942322"><ele>36.0</ele><time>2026-04-19T06:25:00.998Z</time></trkpt><trkpt lat="45.128084919146175" lon="10.006904023184958"><ele>36.0</ele><time>2026-04-19T06:25:02.998Z</time></trkpt><trkpt lat="45.12813757822069" lon="10.00675630312911"><ele>36.0</ele><time>2026-04-19T06:25:04.998Z</time></trkpt><trkpt lat="45.12818870872417" lon="10.006607006611965"><ele>36.75</ele><time>2026-04-19T06:25:06.998Z</time></trkpt><trkpt lat="45.12824793716846" lon="10.006461721001838"><ele>37.5</ele><time>2026-04-19T06:25:08.998Z</time></trkpt><trkpt lat="45.12830384911175" lon="10.006313766066077"><ele>38.25</ele><time>2026-04-19T06:25:10.998Z</time></trkpt><trkpt lat="45.1283539129367" lon="10.00616528124877"><ele>39.0</ele><time>2026-04-19T06:25:12.998Z</time></trkpt><trkpt lat="45.12841215259888" lon="10.00601776742001"><ele>39.0</ele><time>2026-04-19T06:25:14.998Z</time></trkpt><trkpt lat="45.12846508048534" lon="10.005868880647068"><ele>39.0</ele><time>2026-04-19T06:25:16.998Z</time></trkpt><trkpt lat="45.128516506161574" lon="10.00572078167611"><ele>39.0</ele><time>2026-04-19T06:25:18.998Z</time></trkpt><trkpt lat="45.128570952455824" lon="10.005572279582825"><ele>39.0</ele><time>2026-04-19T06:25:20.998Z</time></trkpt><trkpt lat="45.12862496355268" lon="10.005423121821936"><ele>37.75</ele><time>2026-04-19T06:25:22.998Z</time></trkpt><trkpt lat="45.12867780132517" lon="10.005272720163019"><ele>36.5</ele><time>2026-04-19T06:25:24.998Z</time></trkpt><trkpt lat="45.128729861719904" lon="10.005125485818773"><ele>35.25</ele><time>2026-04-19T06:25:26.998Z</time></trkpt><trkpt lat="45.12877959739959" lon="10.004979078581359"><ele>34.0</ele><time>2026-04-19T06:25:29Z</time></trkpt><trkpt lat="45.128828637504874" lon="10.004830823772137"><ele>33.75</ele><time>2026-04-19T06:25:31Z</time></trkpt><trkpt lat="45.12888153790781" lon="10.004687514113158"><ele>33.5</ele><time>2026-04-19T06:25:33Z</time></trkpt><trkpt lat="45.1289358010385" lon="10.004548836805949"><ele>33.25</ele><time>2026-04-19T06:25:35Z</time></trkpt><trkpt lat="45.128992433100855" lon="10.004407345369449"><ele>33.0</ele><time>2026-04-19T06:25:37Z</time></trkpt><trkpt lat="45.12904981719804" lon="10.004269620133675"><ele>34.75</ele><time>2026-04-19T06:25:39Z</time></trkpt><trkpt lat="45.12910440633576" lon="10.004128822120826"><ele>36.5</ele><time>2026-04-19T06:25:41Z</time></trkpt><trkpt lat="45.129161637894484" lon="10.003990382573278"><ele>38.25</ele><time>2026-04-19T06:25:43Z</time></trkpt><trkpt lat="45.12921632202708" lon="10.003853583711951"><ele>40.0</ele><time>2026-04-19T06:25:45Z</time></trkpt><trkpt lat="45.12927547012707" lon="10.003717099393436"><ele>40.0</ele><time>2026-04-19T06:25:47Z</time></trkpt><trkpt lat="45.12933545697104" lon="10.003584197331167"><ele>40.0</ele><time>2026-04-19T06:25:49Z</time></trkpt><trkpt lat="45.12939446032349" lon="10.003450948541907"><ele>40.0</ele><time>2026-04-19T06:25:51Z</time></trkpt><trkpt lat="45.12945015491877" lon="10.003312700302892"><ele>40.0</ele><time>2026-04-19T06:25:53Z</time></trkpt><trkpt lat="45.12950386297392" lon="10.003176475049427"><ele>40.0</ele><time>2026-04-19T06:25:55Z</time></trkpt><trkpt lat="45.12956313087741" lon="10.003036908892478"><ele>39.4</ele><time>2026-04-19T06:25:57Z</time></trkpt><trkpt lat="45.129622781638716" lon="10.00290285145741"><ele>38.8</ele><time>2026-04-19T06:25:59Z</time></trkpt><trkpt lat="45.129677480308544" lon="10.00276742541606"><ele>38.2</ele><time>2026-04-19T06:26:01Z</time></trkpt><trkpt lat="45.12972382734303" lon="10.002625230544163"><ele>37.6</ele><time>2026-04-19T06:26:03Z</time></trkpt><trkpt lat="45.12977571517941" lon="10.00249325398668"><ele>37.0</ele><time>2026-04-19T06:26:04.999Z</time></trkpt><trkpt lat="45.12983273910665" lon="10.002367818244222"><ele>36.800000000000004</ele><time>2026-04-19T06:26:06.999Z</time></trkpt><trkpt lat="45.12988594017111" lon="10.002245102571077"><ele>36.6</ele><time>2026-04-19T06:26:08.999Z</time></trkpt><trkpt lat="45.12993708118698" lon="10.00212290135507"><ele>36.400000000000006</ele><time>2026-04-19T06:26:10.999Z</time></trkpt><trkpt lat="45.12997324975477" lon="10.002043252282302"><ele>36.2</ele><time>2026-04-19T06:26:12.999Z</time></trkpt><trkpt lat="45.130054759442274" lon="10.001888917539189"><ele>36.0</ele><time>2026-04-19T06:26:14.999Z</time></trkpt><trkpt lat="45.13012397154543" lon="10.001806696327773"><ele>36.57142857142858</ele><time>2026-04-19T06:26:16.999Z</time></trkpt><trkpt lat="45.13018351765612" lon="10.001745029616364"><ele>37.142857142857146</ele><time>2026-04-19T06:26:18.999Z</time></trkpt><trkpt lat="45.130161015540736" lon="10.00164614066662"><ele>37.714285714285715</ele><time>2026-04-19T06:26:20.999Z</time></trkpt><trkpt lat="45.130094437346656" lon="10.001597039845917"><ele>38.28571428571429</ele><time>2026-04-19T06:26:22.999Z</time></trkpt><trkpt lat="45.13004800647664" lon="10.001533413207598"><ele>38.85714285714286</ele><time>2026-04-19T06:32:37.999Z</time></trkpt><trkpt lat="45.13005916672" lon="10.001431967787672"><ele>39.42857142857143</ele><time>2026-04-19T06:34:09Z</time></trkpt><trkpt lat="45.13009065751145" lon="10.001354224739684"><ele>40.0</ele><time>2026-04-19T06:34:12Z</time></trkpt><trkpt lat="45.130160892691556" lon="10.001299185020386"><ele>40.0</ele><time>2026-04-19T06:34:13.999Z</time></trkpt><trkpt lat="45.13021335418728" lon="10.00122429713469"><ele>40.0</ele><time>2026-04-19T06:34:15.999Z</time></trkpt><trkpt lat="45.13025565968515" lon="10.001103275497186"><ele>40.0</ele><time>2026-04-19T06:34:17.999Z</time></trkpt><trkpt lat="45.130305612781896" lon="10.000984808185148"><ele>40.0</ele><time>2026-04-19T06:34:19.999Z</time></trkpt><trkpt lat="45.130346903682565" lon="10.000854289086487"><ele>40.0</ele><time>2026-04-19T06:34:21.999Z</time></trkpt><trkpt lat="45.13038758980096" lon="10.0007219076797"><ele>40.25</ele><time>2026-04-19T06:34:23.999Z</time></trkpt><trkpt lat="45.130413635831026" lon="10.000611034604034"><ele>40.5</ele><time>2026-04-19T06:34:25.999Z</time></trkpt><trkpt lat="45.130456686034684" lon="10.000341638384382"><ele>40.75</ele><time>2026-04-19T06:34:28.999Z</time></trkpt><trkpt lat="45.13048426647417" lon="10.000183246285143"><ele>41.0</ele><time>2026-04-19T06:34:30.999Z</time></trkpt><trkpt lat="45.130468192654035" lon="10.000030611993306"><ele>41.0</ele><time>2026-04-19T06:34:32.999Z</time></trkpt><trkpt lat="45.130451331673775" lon="9.999875527575071"><ele>41.0</ele><time>2026-04-19T06:34:34.999Z</time></trkpt><trkpt lat="45.130435111367674" lon="9.999726337620201"><ele>41.0</ele><time>2026-04-19T06:34:36.999Z</time></trkpt><trkpt lat="45.1304191280475" lon="9.999579630358836"><ele>41.0</ele><time>2026-04-19T06:34:38.999Z</time></trkpt><trkpt lat="45.13040299841363" lon="9.999431495986057"><ele>41.0</ele><time>2026-04-19T06:34:40.999Z</time></trkpt><trkpt lat="45.130341483039906" lon="9.999293420795295"><ele>41.0</ele><time>2026-04-19T06:34:42.999Z</time></trkpt><trkpt lat="45.13032742516853" lon="9.99914228863593"><ele>41.0</ele><time>2026-04-19T06:34:44.999Z</time></trkpt><trkpt lat="45.130354076049514" lon="9.99898291685514"><ele>41.0</ele><time>2026-04-19T06:34:46.999Z</time></trkpt><trkpt lat="45.13033784087231" lon="9.9988342256108"><ele>41.0</ele><time>2026-04-19T06:34:48.999Z</time></trkpt><trkpt lat="45.130321032820675" lon="9.998680287516319"><ele>41.0</ele><time>2026-04-19T06:34:50.999Z</time></trkpt><trkpt lat="45.13030474108231" lon="9.998530624712448"><ele>41.0</ele><time>2026-04-19T06:34:52.999Z</time></trkpt><trkpt lat="45.13028842981042" lon="9.998380474932121"><ele>41.0</ele><time>2026-04-19T06:34:54.999Z</time></trkpt><trkpt lat="45.130271633549135" lon="9.998225860677035"><ele>41.0</ele><time>2026-04-19T06:34:56.999Z</time></trkpt><trkpt lat="45.13025608977405" lon="9.998082775876783"><ele>41.0</ele><time>2026-04-19T06:34:58.999Z</time></trkpt><trkpt lat="45.1302464828134" lon="9.997994349729124"><ele>41.0</ele><time>2026-04-19T06:35:00.999Z</time></trkpt><trkpt lat="45.130224924371376" lon="9.997795082259369"><ele>40.8</ele><time>2026-04-19T06:35:02.999Z</time></trkpt><trkpt lat="45.130209220734" lon="9.997649931604485"><ele>40.599999999999994</ele><time>2026-04-19T06:35:04.999Z</time></trkpt><trkpt lat="45.130193391362326" lon="9.99750332277838"><ele>40.4</ele><time>2026-04-19T06:35:06.999Z</time></trkpt><trkpt lat="45.130177686706574" lon="9.99735732763097"><ele>40.2</ele><time>2026-04-19T06:35:08.998Z</time></trkpt><trkpt lat="45.13016230706338" lon="9.997214353930602"><ele>40.0</ele><time>2026-04-19T06:35:10.998Z</time></trkpt><trkpt lat="45.130147804070944" lon="9.997079529800807"><ele>40.0</ele><time>2026-04-19T06:35:12.998Z</time></trkpt><trkpt lat="45.13006741561709" lon="9.996946766656794"><ele>40.0</ele><time>2026-04-19T06:35:14.998Z</time></trkpt><trkpt lat="45.13004709737975" lon="9.99680074779412"><ele>40.0</ele><time>2026-04-19T06:35:16.998Z</time></trkpt><trkpt lat="45.13003067915689" lon="9.996649975497876"><ele>40.0</ele><time>2026-04-19T06:35:18.998Z</time></trkpt><trkpt lat="45.13001443540898" lon="9.996512024115079"><ele>40.0</ele><time>2026-04-19T06:35:20.998Z</time></trkpt><trkpt lat="45.12998534807531" lon="9.99637666016226"><ele>39.6</ele><time>2026-04-19T06:35:22.998Z</time></trkpt><trkpt lat="45.12994192689886" lon="9.996262973688594"><ele>39.2</ele><time>2026-04-19T06:35:24.998Z</time></trkpt><trkpt lat="45.12988229515618" lon="9.996146646685839"><ele>38.8</ele><time>2026-04-19T06:35:26.998Z</time></trkpt><trkpt lat="45.12982547189635" lon="9.996048824569767"><ele>38.4</ele><time>2026-04-19T06:35:28.998Z</time></trkpt><trkpt lat="45.12976521474733" lon="9.995971876332685"><ele>38.0</ele><time>2026-04-19T06:35:30.998Z</time></trkpt><trkpt lat="45.129683418114226" lon="9.995916281970407"><ele>38.0</ele><time>2026-04-19T06:35:32.998Z</time></trkpt><trkpt lat="45.12960098355111" lon="9.995857952100266"><ele>38.0</ele><time>2026-04-19T06:35:34.998Z</time></trkpt><trkpt lat="45.1295141360457" lon="9.995782117246652"><ele>38.0</ele><time>2026-04-19T06:35:36.998Z</time></trkpt><trkpt lat="45.12942516725254" lon="9.995706520785095"><ele>38.0</ele><time>2026-04-19T06:35:38.998Z</time></trkpt><trkpt lat="45.12933663712271" lon="9.99562689899878"><ele>38.0</ele><time>2026-04-19T06:35:40.998Z</time></trkpt><trkpt lat="45.12932562763536" lon="9.995512122585865"><ele>37.4</ele><time>2026-04-19T06:35:41.998Z</time></trkpt><trkpt lat="45.12923488307269" lon="9.995434299398918"><ele>36.8</ele><time>2026-04-19T06:35:43.998Z</time></trkpt><trkpt lat="45.1291474754549" lon="9.99535933801168"><ele>36.2</ele><time>2026-04-19T06:35:45.998Z</time></trkpt><trkpt lat="45.12906098825823" lon="9.995285165932534"><ele>35.6</ele><time>2026-04-19T06:35:47.998Z</time></trkpt><trkpt lat="45.12897619522092" lon="9.995212446789411"><ele>35.0</ele><time>2026-04-19T06:35:49.998Z</time></trkpt><trkpt lat="45.12888990034872" lon="9.995138439777834"><ele>34.6</ele><time>2026-04-19T06:35:51.998Z</time></trkpt><trkpt lat="45.128802999501794" lon="9.99506391285717"><ele>34.2</ele><time>2026-04-19T06:35:53.998Z</time></trkpt><trkpt lat="45.128716373024524" lon="9.994989455684586"><ele>33.8</ele><time>2026-04-19T06:35:56Z</time></trkpt><trkpt lat="45.1286283403474" lon="9.994912966823021"><ele>33.4</ele><time>2026-04-19T06:35:58Z</time></trkpt><trkpt lat="45.1285368507923" lon="9.99483347430776"><ele>33.0</ele><time>2026-04-19T06:36:00Z</time></trkpt><trkpt lat="45.128448143371536" lon="9.994756399091308"><ele>32.0</ele><time>2026-04-19T06:36:02Z</time></trkpt><trkpt lat="45.12835575855037" lon="9.99467612873275"><ele>30.999999999999996</ele><time>2026-04-19T06:36:04Z</time></trkpt><trkpt lat="45.128266627869976" lon="9.994599367940795"><ele>29.999999999999996</ele><time>2026-04-19T06:36:06Z</time></trkpt><trkpt lat="45.12817424592716" lon="9.994519857815689"><ele>29.0</ele><time>2026-04-19T06:36:08Z</time></trkpt><trkpt lat="45.12808004391042" lon="9.9944387810754"><ele>28.0</ele><time>2026-04-19T06:36:10Z</time></trkpt><trkpt lat="45.12798768759685" lon="9.994359332706141"><ele>28.0</ele><time>2026-04-19T06:36:12Z</time></trkpt><trkpt lat="45.12789554743043" lon="9.99428023895425"><ele>27.999999999999996</ele><time>2026-04-19T06:36:14Z</time></trkpt><trkpt lat="45.12780396498123" lon="9.994201587236946"><ele>27.999999999999996</ele><time>2026-04-19T06:36:16Z</time></trkpt><trkpt lat="45.12770978362207" lon="9.994120365189675"><ele>28.0</ele><time>2026-04-19T06:36:18Z</time></trkpt><trkpt lat="45.12761745815587" lon="9.99404074368862"><ele>28.0</ele><time>2026-04-19T06:36:20Z</time></trkpt><trkpt lat="45.12752287960029" lon="9.993959179008428"><ele>28.0</ele><time>2026-04-19T06:36:22Z</time></trkpt><trkpt lat="45.12742850591424" lon="9.993877791105076"><ele>27.999999999999996</ele><time>2026-04-19T06:36:24Z</time></trkpt><trkpt lat="45.127334282773845" lon="9.993796532958733"><ele>27.999999999999996</ele><time>2026-04-19T06:36:25.999Z</time></trkpt><trkpt lat="45.12724208085733" lon="9.993717017962213"><ele>28.0</ele><time>2026-04-19T06:36:27.999Z</time></trkpt><trkpt lat="45.12714632445792" lon="9.993634477485193"><ele>28.0</ele><time>2026-04-19T06:36:29.999Z</time></trkpt><trkpt lat="45.127051647695225" lon="9.993553141888915"><ele>30.25</ele><time>2026-04-19T06:36:31.999Z</time></trkpt><trkpt lat="45.12695554775886" lon="9.993470583662827"><ele>32.5</ele><time>2026-04-19T06:36:33.999Z</time></trkpt><trkpt lat="45.12685785057779" lon="9.99338628946214"><ele>34.75</ele><time>2026-04-19T06:36:35.999Z</time></trkpt><trkpt lat="45.126763263842385" lon="9.9933043529315"><ele>37.0</ele><time>2026-04-19T06:36:37.999Z</time></trkpt><trkpt lat="45.12666757203197" lon="9.993221459110774"><ele>37.5</ele><time>2026-04-19T06:36:39.999Z</time></trkpt><trkpt lat="45.126572250151156" lon="9.993138885709781"><ele>38.0</ele><time>2026-04-19T06:36:41.999Z</time></trkpt><trkpt lat="45.12647584827725" lon="9.993055791877152"><ele>38.5</ele><time>2026-04-19T06:36:43.999Z</time></trkpt><trkpt lat="45.126379876280474" lon="9.992973628945355"><ele>39.0</ele><time>2026-04-19T06:36:45.999Z</time></trkpt><trkpt lat="45.126282646345615" lon="9.9928903890981"><ele>39.0</ele><time>2026-04-19T06:36:47.999Z</time></trkpt><trkpt lat="45.12618435319901" lon="9.992806238949028"><ele>39.0</ele><time>2026-04-19T06:36:49.999Z</time></trkpt><trkpt lat="45.126088996056964" lon="9.99272460240772"><ele>39.0</ele><time>2026-04-19T06:36:51.999Z</time></trkpt><trkpt lat="45.12599579290095" lon="9.99264470168197"><ele>39.0</ele><time>2026-04-19T06:36:53.999Z</time></trkpt><trkpt lat="45.12590027977889" lon="9.992562445518729"><ele>39.0</ele><time>2026-04-19T06:36:55.999Z</time></trkpt><trkpt lat="45.125802617494145" lon="9.992478338290693"><ele>39.4</ele><time>2026-04-19T06:36:57.999Z</time></trkpt><trkpt lat="45.12570556754041" lon="9.99239489330519"><ele>39.8</ele><time>2026-04-19T06:36:59.999Z</time></trkpt><trkpt lat="45.12560870507445" lon="9.992312523398073"><ele>40.199999999999996</ele><time>2026-04-19T06:37:01.999Z</time></trkpt><trkpt lat="45.12551277386209" lon="9.99223094535554"><ele>40.599999999999994</ele><time>2026-04-19T06:37:03.999Z</time></trkpt><trkpt lat="45.12542150240362" lon="9.992151773204048"><ele>41.0</ele><time>2026-04-19T06:37:05.999Z</time></trkpt><trkpt lat="45.12532466015853" lon="9.992066907238701"><ele>41.0</ele><time>2026-04-19T06:37:07.999Z</time></trkpt><trkpt lat="45.125232590434216" lon="9.991986223551146"><ele>41.0</ele><time>2026-04-19T06:37:09.999Z</time></trkpt><trkpt lat="45.12513906306737" lon="9.991905139119249"><ele>41.0</ele><time>2026-04-19T06:37:11.999Z</time></trkpt><trkpt lat="45.12504375731989" lon="9.991823588899504"><ele>41.0</ele><time>2026-04-19T06:37:13.999Z</time></trkpt><trkpt lat="45.12494858435569" lon="9.99174215218015"><ele>41.0</ele><time>2026-04-19T06:37:15.999Z</time></trkpt><trkpt lat="45.12485503536351" lon="9.991661871134747"><ele>40.599999999999994</ele><time>2026-04-19T06:37:17.999Z</time></trkpt><trkpt lat="45.12476039799587" lon="9.99157951225107"><ele>40.199999999999996</ele><time>2026-04-19T06:37:19.998Z</time></trkpt><trkpt lat="45.12466797299451" lon="9.991499078987918"><ele>39.8</ele><time>2026-04-19T06:37:21.998Z</time></trkpt><trkpt lat="45.12457382656175" lon="9.991417641793614"><ele>39.4</ele><time>2026-04-19T06:37:23.998Z</time></trkpt><trkpt lat="45.124478542972106" lon="9.99133562385843"><ele>39.0</ele><time>2026-04-19T06:37:25.998Z</time></trkpt><trkpt lat="45.12438111676743" lon="9.991251761730377"><ele>39.0</ele><time>2026-04-19T06:37:27.998Z</time></trkpt><trkpt lat="45.1242867776071" lon="9.99117055687967"><ele>39.0</ele><time>2026-04-19T06:37:29.998Z</time></trkpt><trkpt lat="45.12419443939073" lon="9.991091074113742"><ele>39.0</ele><time>2026-04-19T06:37:31.998Z</time></trkpt><trkpt lat="45.124099148071664" lon="9.991009049556826"><ele>39.0</ele><time>2026-04-19T06:37:33.998Z</time></trkpt><trkpt lat="45.12400774709715" lon="9.990930373749281"><ele>39.0</ele><time>2026-04-19T06:37:35.998Z</time></trkpt><trkpt lat="45.12391001781787" lon="9.990846250530723"><ele>39.25</ele><time>2026-04-19T06:37:37.998Z</time></trkpt><trkpt lat="45.12381203030444" lon="9.990761906922144"><ele>39.5</ele><time>2026-04-19T06:37:39.998Z</time></trkpt><trkpt lat="45.12371341734389" lon="9.990677023126278"><ele>39.75</ele><time>2026-04-19T06:37:41.998Z</time></trkpt><trkpt lat="45.123616488225935" lon="9.99059358883859"><ele>40.0</ele><time>2026-04-19T06:37:43.998Z</time></trkpt><trkpt lat="45.12351942778013" lon="9.990509476473774"><ele>40.0</ele><time>2026-04-19T06:37:45.998Z</time></trkpt><trkpt lat="45.12342341358114" lon="9.990426187395654"><ele>40.0</ele><time>2026-04-19T06:37:47.998Z</time></trkpt><trkpt lat="45.12332429603908" lon="9.990340206345612"><ele>40.0</ele><time>2026-04-19T06:37:49.998Z</time></trkpt><trkpt lat="45.12322498840392" lon="9.99025406028166"><ele>40.0</ele><time>2026-04-19T06:37:51.998Z</time></trkpt><trkpt lat="45.123125182585234" lon="9.990167482079562"><ele>40.0</ele><time>2026-04-19T06:37:53.998Z</time></trkpt><trkpt lat="45.12302626178255" lon="9.990081671611794"><ele>40.0</ele><time>2026-04-19T06:37:55.998Z</time></trkpt><trkpt lat="45.12292867273961" lon="9.989997138895776"><ele>40.0</ele><time>2026-04-19T06:37:57.998Z</time></trkpt><trkpt lat="45.122832112105975" lon="9.989914092103493"><ele>40.0</ele><time>2026-04-19T06:37:59.998Z</time></trkpt><trkpt lat="45.122734415007585" lon="9.989830067789626"><ele>40.0</ele><time>2026-04-19T06:38:02Z</time></trkpt><trkpt lat="45.12263408492655" lon="9.9897437790579"><ele>40.0</ele><time>2026-04-19T06:38:04Z</time></trkpt><trkpt lat="45.122534812385936" lon="9.9896583998813"><ele>40.0</ele><time>2026-04-19T06:38:06Z</time></trkpt><trkpt lat="45.122435679275206" lon="9.98957186927744"><ele>40.0</ele><time>2026-04-19T06:38:08Z</time></trkpt><trkpt lat="45.12233981823613" lon="9.98948659524366"><ele>39.4</ele><time>2026-04-19T06:38:10Z</time></trkpt><trkpt lat="45.12223812193259" lon="9.989401250725841"><ele>38.8</ele><time>2026-04-19T06:38:12Z</time></trkpt><trkpt lat="45.12213022484752" lon="9.989319068337867"><ele>38.2</ele><time>2026-04-19T06:38:14Z</time></trkpt><trkpt lat="45.12202909596224" lon="9.989245022029552"><ele>37.6</ele><time>2026-04-19T06:38:16Z</time></trkpt><trkpt lat="45.12196541054548" lon="9.98920823576257"><ele>37.0</ele><time>2026-04-19T06:38:17Z</time></trkpt><trkpt lat="45.121899160966215" lon="9.989182827544662"><ele>36.85714285714286</ele><time>2026-04-19T06:38:18Z</time></trkpt><trkpt lat="45.12183614274096" lon="9.989165671776547"><ele>36.714285714285715</ele><time>2026-04-19T06:38:19Z</time></trkpt><trkpt lat="45.12176260318008" lon="9.989157073471938"><ele>36.57142857142857</ele><time>2026-04-19T06:38:20Z</time></trkpt><trkpt lat="45.12169266481895" lon="9.98915575092022"><ele>36.42857142857143</ele><time>2026-04-19T06:38:21Z</time></trkpt><trkpt lat="45.12162386096853" lon="9.989162901631563"><ele>36.285714285714285</ele><time>2026-04-19T06:38:22Z</time></trkpt><trkpt lat="45.12155397486719" lon="9.989183863415155"><ele>36.142857142857146</ele><time>2026-04-19T06:38:23Z</time></trkpt><trkpt lat="45.12148741776953" lon="9.989214328893437"><ele>36.0</ele><time>2026-04-19T06:38:24Z</time></trkpt><trkpt lat="45.121424670858474" lon="9.989248073706955"><ele>36.0</ele><time>2026-04-19T06:38:25Z</time></trkpt><trkpt lat="45.12136504783272" lon="9.989282701327019"><ele>36.0</ele><time>2026-04-19T06:38:26Z</time></trkpt><trkpt lat="45.12130606138266" lon="9.989317488170384"><ele>36.0</ele><time>2026-04-19T06:38:27Z</time></trkpt><trkpt lat="45.12124660628072" lon="9.98935255144775"><ele>36.0</ele><time>2026-04-19T06:38:28Z</time></trkpt><trkpt lat="45.12118719648902" lon="9.989388113247214"><ele>36.0</ele><time>2026-04-19T06:38:28.999Z</time></trkpt><trkpt lat="45.12107520358657" lon="9.989456127018308"><ele>36.0</ele><time>2026-04-19T06:38:30.999Z</time></trkpt><trkpt lat="45.120982224915316" lon="9.989512593414862"><ele>36.0</ele><time>2026-04-19T06:38:32.999Z</time></trkpt><trkpt lat="45.12091829651101" lon="9.989551417416"><ele>36.0</ele><time>2026-04-19T06:38:34.999Z</time></trkpt><trkpt lat="45.12090229361684" lon="9.989644216684296"><ele>36.0</ele><time>2026-04-19T06:39:13.999Z</time></trkpt><trkpt lat="45.12082167669249" lon="9.98958665714502"><ele>36.0</ele><time>2026-04-19T06:39:16.999Z</time></trkpt><trkpt lat="45.120720684967246" lon="9.989641767997298"><ele>36.0</ele><time>2026-04-19T06:39:18.999Z</time></trkpt><trkpt lat="45.12061785501561" lon="9.989710629303842"><ele>36.0</ele><time>2026-04-19T06:39:20.999Z</time></trkpt><trkpt lat="45.120505105313434" lon="9.989773554085831"><ele>36.5</ele><time>2026-04-19T06:39:22.998Z</time></trkpt><trkpt lat="45.12038998385978" lon="9.989839542745875"><ele>37.0</ele><time>2026-04-19T06:39:24.998Z</time></trkpt><trkpt lat="45.12027842725717" lon="9.989908778843926"><ele>37.5</ele><time>2026-04-19T06:39:26.998Z</time></trkpt><trkpt lat="45.1202172990573" lon="9.989947021419818"><ele>38.0</ele><time>2026-04-19T06:39:27.998Z</time></trkpt><trkpt lat="45.12015758976039" lon="9.9899831629617"><ele>38.5</ele><time>2026-04-19T06:39:28.998Z</time></trkpt><trkpt lat="45.12009581713428" lon="9.990020769470982"><ele>39.0</ele><time>2026-04-19T06:39:29.998Z</time></trkpt><trkpt lat="45.12003347956425" lon="9.990056738136923"><ele>39.0</ele><time>2026-04-19T06:39:30.998Z</time></trkpt><trkpt lat="45.11997389578242" lon="9.990091604438327"><ele>39.0</ele><time>2026-04-19T06:39:31.998Z</time></trkpt><trkpt lat="45.11991333291398" lon="9.990130239828282"><ele>39.0</ele><time>2026-04-19T06:39:32.998Z</time></trkpt><trkpt lat="45.11985197557682" lon="9.990167828902807"><ele>39.0</ele><time>2026-04-19T06:39:33.998Z</time></trkpt><trkpt lat="45.11978959570131" lon="9.99020589219989"><ele>39.0</ele><time>2026-04-19T06:39:34.998Z</time></trkpt><trkpt lat="45.11972912695919" lon="9.990242417213883"><ele>39.0</ele><time>2026-04-19T06:39:35.998Z</time></trkpt><trkpt lat="45.11966937074701" lon="9.99028138069548"><ele>39.0</ele><time>2026-04-19T06:39:36.998Z</time></trkpt><trkpt lat="45.119608376891755" lon="9.990319076060826"><ele>38.57142857142858</ele><time>2026-04-19T06:39:37.998Z</time></trkpt><trkpt lat="45.11954529713615" lon="9.990355130783385"><ele>38.14285714285714</ele><time>2026-04-19T06:39:38.998Z</time></trkpt><trkpt lat="45.11948302959738" lon="9.990392351880772"><ele>37.714285714285715</ele><time>2026-04-19T06:39:39.998Z</time></trkpt><trkpt lat="45.11942016814785" lon="9.99042906540107"><ele>37.28571428571429</ele><time>2026-04-19T06:39:40.998Z</time></trkpt><trkpt lat="45.11935734634354" lon="9.990471019278761"><ele>36.85714285714286</ele><time>2026-04-19T06:39:41.998Z</time></trkpt><trkpt lat="45.119295434567526" lon="9.990511218546086"><ele>36.42857142857143</ele><time>2026-04-19T06:39:42.998Z</time></trkpt><trkpt lat="45.11923254481376" lon="9.990547339913107"><ele>36.0</ele><time>2026-04-19T06:39:43.998Z</time></trkpt><trkpt lat="45.119168869850746" lon="9.990587314104358"><ele>36.00000000000001</ele><time>2026-04-19T06:39:44.998Z</time></trkpt><trkpt lat="45.1191083504254" lon="9.990625445327296"><ele>36.0</ele><time>2026-04-19T06:39:45.998Z</time></trkpt><trkpt lat="45.11904924459994" lon="9.990665797878234"><ele>36.0</ele><time>2026-04-19T06:39:46.998Z</time></trkpt><trkpt lat="45.11899127084665" lon="9.990705454177961"><ele>36.0</ele><time>2026-04-19T06:39:47.998Z</time></trkpt><trkpt lat="45.118930471122695" lon="9.99074364674917"><ele>36.0</ele><time>2026-04-19T06:39:48.998Z</time></trkpt><trkpt lat="45.11886872369696" lon="9.99077832550604"><ele>36.00000000000001</ele><time>2026-04-19T06:39:49.998Z</time></trkpt><trkpt lat="45.11880638818724" lon="9.990811936774687"><ele>36.0</ele><time>2026-04-19T06:39:50.998Z</time></trkpt><trkpt lat="45.11874611869464" lon="9.990845224894874"><ele>35.714285714285715</ele><time>2026-04-19T06:39:51.998Z</time></trkpt><trkpt lat="45.118687383695196" lon="9.990880731644667"><ele>35.42857142857143</ele><time>2026-04-19T06:39:52.998Z</time></trkpt><trkpt lat="45.11862797639244" lon="9.990918154932533"><ele>35.14285714285714</ele><time>2026-04-19T06:39:53.998Z</time></trkpt><trkpt lat="45.11856844834628" lon="9.990954567563229"><ele>34.85714285714286</ele><time>2026-04-19T06:39:54.998Z</time></trkpt><trkpt lat="45.11850463097137" lon="9.990989467683747"><ele>34.57142857142857</ele><time>2026-04-19T06:39:55.998Z</time></trkpt><trkpt lat="45.11844283191674" lon="9.991027105173133"><ele>34.285714285714285</ele><time>2026-04-19T06:39:56.998Z</time></trkpt><trkpt lat="45.11838013853236" lon="9.991064914115443"><ele>34.0</ele><time>2026-04-19T06:39:57.998Z</time></trkpt><trkpt lat="45.11831565409209" lon="9.991101341880684"><ele>33.99999999999999</ele><time>2026-04-19T06:39:58.998Z</time></trkpt><trkpt lat="45.11825165222494" lon="9.991139915598678"><ele>34.0</ele><time>2026-04-19T06:39:59.998Z</time></trkpt><trkpt lat="45.118187834636466" lon="9.991179800168792"><ele>34.0</ele><time>2026-04-19T06:40:00.998Z</time></trkpt><trkpt lat="45.11812227473215" lon="9.99121950550505"><ele>34.0</ele><time>2026-04-19T06:40:01.998Z</time></trkpt><trkpt lat="45.11805616477041" lon="9.991257416296955"><ele>34.0</ele><time>2026-04-19T06:40:02.998Z</time></trkpt><trkpt lat="45.1179906534377" lon="9.991296573936708"><ele>33.99999999999999</ele><time>2026-04-19T06:40:03.998Z</time></trkpt><trkpt lat="45.11792470361217" lon="9.99133511001806"><ele>34.0</ele><time>2026-04-19T06:40:04.998Z</time></trkpt><trkpt lat="45.117859053894314" lon="9.991374774253957"><ele>34.71428571428571</ele><time>2026-04-19T06:40:05.998Z</time></trkpt><trkpt lat="45.11779307439336" lon="9.991416910149828"><ele>35.42857142857143</ele><time>2026-04-19T06:40:07Z</time></trkpt><trkpt lat="45.117726721587026" lon="9.99145573272962"><ele>36.14285714285714</ele><time>2026-04-19T06:40:08Z</time></trkpt><trkpt lat="45.11765847760979" lon="9.991493065529756"><ele>36.857142857142854</ele><time>2026-04-19T06:40:09Z</time></trkpt><trkpt lat="45.11759192893956" lon="9.99153281399603"><ele>37.57142857142857</ele><time>2026-04-19T06:40:10Z</time></trkpt><trkpt lat="45.11752535359792" lon="9.991573374944883"><ele>38.285714285714285</ele><time>2026-04-19T06:40:11Z</time></trkpt><trkpt lat="45.11745856696936" lon="9.991613196596116"><ele>39.0</ele><time>2026-04-19T06:40:12Z</time></trkpt><trkpt lat="45.11739313163679" lon="9.991655785236947"><ele>39.0</ele><time>2026-04-19T06:40:13Z</time></trkpt><trkpt lat="45.11732759976001" lon="9.9916940971458"><ele>39.0</ele><time>2026-04-19T06:40:14Z</time></trkpt><trkpt lat="45.11726115072664" lon="9.99173537183208"><ele>39.0</ele><time>2026-04-19T06:40:15Z</time></trkpt><trkpt lat="45.11719553632866" lon="9.991774174702567"><ele>39.0</ele><time>2026-04-19T06:40:16Z</time></trkpt><trkpt lat="45.11712929067357" lon="9.991814224510339"><ele>39.0</ele><time>2026-04-19T06:40:17Z</time></trkpt><trkpt lat="45.11706449380584" lon="9.991852252348265"><ele>39.0</ele><time>2026-04-19T06:40:18Z</time></trkpt><trkpt lat="45.11699915774023" lon="9.991892573253542"><ele>39.0</ele><time>2026-04-19T06:40:19Z</time></trkpt><trkpt lat="45.116933676861706" lon="9.991932939123183"><ele>39.0</ele><time>2026-04-19T06:40:20Z</time></trkpt><trkpt lat="45.116868268800275" lon="9.991973071106438"><ele>39.0</ele><time>2026-04-19T06:40:21Z</time></trkpt><trkpt lat="45.116798169722536" lon="9.992012275788023"><ele>39.0</ele><time>2026-04-19T06:40:22Z</time></trkpt><trkpt lat="45.11673098051671" lon="9.992049444966971"><ele>39.0</ele><time>2026-04-19T06:40:23Z</time></trkpt><trkpt lat="45.11666742565247" lon="9.992092149718433"><ele>39.0</ele><time>2026-04-19T06:40:24Z</time></trkpt><trkpt lat="45.116600413154224" lon="9.992131828417795"><ele>39.0</ele><time>2026-04-19T06:40:25Z</time></trkpt><trkpt lat="45.11653141199151" lon="9.992172152984683"><ele>39.0</ele><time>2026-04-19T06:40:26Z</time></trkpt><trkpt lat="45.11646659941541" lon="9.992209536323816"><ele>39.285714285714285</ele><time>2026-04-19T06:40:27Z</time></trkpt><trkpt lat="45.116398436259345" lon="9.992249709787389"><ele>39.57142857142857</ele><time>2026-04-19T06:40:28Z</time></trkpt><trkpt lat="45.11633279717496" lon="9.99229008285373"><ele>39.857142857142854</ele><time>2026-04-19T06:40:29Z</time></trkpt><trkpt lat="45.11626883155165" lon="9.992329069218007"><ele>40.14285714285714</ele><time>2026-04-19T06:40:30Z</time></trkpt><trkpt lat="45.11620295746898" lon="9.992369391109392"><ele>40.42857142857143</ele><time>2026-04-19T06:40:31Z</time></trkpt><trkpt lat="45.11613768608307" lon="9.992410034526637"><ele>40.71428571428571</ele><time>2026-04-19T06:40:32Z</time></trkpt><trkpt lat="45.11607597762312" lon="9.992456586848732"><ele>41.0</ele><time>2026-04-19T06:40:32.999Z</time></trkpt><trkpt lat="45.11600980464597" lon="9.992489366532219"><ele>40.857142857142854</ele><time>2026-04-19T06:40:33.999Z</time></trkpt><trkpt lat="45.115944954654864" lon="9.992530351264234"><ele>40.714285714285715</ele><time>2026-04-19T06:40:34.999Z</time></trkpt><trkpt lat="45.11587841476478" lon="9.992570248551916"><ele>40.57142857142857</ele><time>2026-04-19T06:40:35.999Z</time></trkpt><trkpt lat="45.11581427071143" lon="9.992607299176944"><ele>40.42857142857143</ele><time>2026-04-19T06:40:36.999Z</time></trkpt><trkpt lat="45.115748715267394" lon="9.992647455872058"><ele>40.285714285714285</ele><time>2026-04-19T06:40:37.999Z</time></trkpt><trkpt lat="45.11568193850011" lon="9.992685554733423"><ele>40.14285714285714</ele><time>2026-04-19T06:40:38.999Z</time></trkpt><trkpt lat="45.11561329550916" lon="9.992724814379132"><ele>40.0</ele><time>2026-04-19T06:40:39.999Z</time></trkpt><trkpt lat="45.115546116668895" lon="9.992765804922787"><ele>40.0</ele><time>2026-04-19T06:40:40.999Z</time></trkpt><trkpt lat="45.11547809784701" lon="9.992805402067663"><ele>40.0</ele><time>2026-04-19T06:40:41.999Z</time></trkpt><trkpt lat="45.1154097566643" lon="9.992846534467327"><ele>40.0</ele><time>2026-04-19T06:40:42.999Z</time></trkpt><trkpt lat="45.11533883330163" lon="9.992887291341464"><ele>40.0</ele><time>2026-04-19T06:40:43.999Z</time></trkpt><trkpt lat="45.11526949153892" lon="9.992931272931571"><ele>40.0</ele><time>2026-04-19T06:40:44.999Z</time></trkpt><trkpt lat="45.1151995462711" lon="9.992974751547345"><ele>40.0</ele><time>2026-04-19T06:40:45.999Z</time></trkpt><trkpt lat="45.11512905213369" lon="9.993012084453513"><ele>40.0</ele><time>2026-04-19T06:40:46.999Z</time></trkpt><trkpt lat="45.1150599188312" lon="9.993056004857817"><ele>40.0</ele><time>2026-04-19T06:40:47.999Z</time></trkpt><trkpt lat="45.1149905809137" lon="9.99309715677524"><ele>40.0</ele><time>2026-04-19T06:40:48.999Z</time></trkpt><trkpt lat="45.1149218615716" lon="9.993139376321519"><ele>40.0</ele><time>2026-04-19T06:40:49.999Z</time></trkpt><trkpt lat="45.11485252163362" lon="9.993180286235742"><ele>40.0</ele><time>2026-04-19T06:40:50.999Z</time></trkpt><trkpt lat="45.11478335505096" lon="9.993221769439076"><ele>40.0</ele><time>2026-04-19T06:40:51.999Z</time></trkpt><trkpt lat="45.11471220531531" lon="9.993263547673616"><ele>39.857142857142854</ele><time>2026-04-19T06:40:52.999Z</time></trkpt><trkpt lat="45.11464261598677" lon="9.993304795116549"><ele>39.714285714285715</ele><time>2026-04-19T06:40:53.999Z</time></trkpt><trkpt lat="45.11457472748847" lon="9.993347313073082"><ele>39.57142857142857</ele><time>2026-04-19T06:40:54.999Z</time></trkpt><trkpt lat="45.11450400176474" lon="9.993386866704714"><ele>39.42857142857143</ele><time>2026-04-19T06:40:55.999Z</time></trkpt><trkpt lat="45.114435784561934" lon="9.993429032049633"><ele>39.285714285714285</ele><time>2026-04-19T06:40:56.999Z</time></trkpt><trkpt lat="45.11437016696981" lon="9.993473001399877"><ele>39.142857142857146</ele><time>2026-04-19T06:40:57.999Z</time></trkpt><trkpt lat="45.11430009411444" lon="9.993512362368227"><ele>39.0</ele><time>2026-04-19T06:40:58.999Z</time></trkpt><trkpt lat="45.114232193967766" lon="9.993552976684757"><ele>39.0</ele><time>2026-04-19T06:40:59.999Z</time></trkpt><trkpt lat="45.11416284940235" lon="9.993591900312477"><ele>39.0</ele><time>2026-04-19T06:41:00.999Z</time></trkpt><trkpt lat="45.114093460389" lon="9.993633643526003"><ele>39.0</ele><time>2026-04-19T06:41:01.999Z</time></trkpt><trkpt lat="45.11402522887" lon="9.993674674692896"><ele>39.0</ele><time>2026-04-19T06:41:02.999Z</time></trkpt><trkpt lat="45.11395791422465" lon="9.993719504488144"><ele>39.0</ele><time>2026-04-19T06:41:03.999Z</time></trkpt><trkpt lat="45.11388677584816" lon="9.993758870941585"><ele>39.0</ele><time>2026-04-19T06:41:04.999Z</time></trkpt><trkpt lat="45.11381771390878" lon="9.993799646218587"><ele>39.0</ele><time>2026-04-19T06:41:05.999Z</time></trkpt><trkpt lat="45.11374680206403" lon="9.993846270157876"><ele>39.0</ele><time>2026-04-19T06:41:06.999Z</time></trkpt><trkpt lat="45.11367862860155" lon="9.9938905028881"><ele>39.0</ele><time>2026-04-19T06:41:07.999Z</time></trkpt><trkpt lat="45.11360909351325" lon="9.993931445126574"><ele>39.0</ele><time>2026-04-19T06:41:08.999Z</time></trkpt><trkpt lat="45.113537517574116" lon="9.993971374222465"><ele>39.0</ele><time>2026-04-19T06:41:09.999Z</time></trkpt><trkpt lat="45.11346469938564" lon="9.994011597919881"><ele>39.0</ele><time>2026-04-19T06:41:10.999Z</time></trkpt><trkpt lat="45.11339323949274" lon="9.994052803733315"><ele>39.0</ele><time>2026-04-19T06:41:11.999Z</time></trkpt><trkpt lat="45.113320144476134" lon="9.994096941066061"><ele>39.0</ele><time>2026-04-19T06:41:12.999Z</time></trkpt><trkpt lat="45.11324723704817" lon="9.99413627611052"><ele>39.0</ele><time>2026-04-19T06:41:13.999Z</time></trkpt><trkpt lat="45.11317677431452" lon="9.994178863468445"><ele>39.0</ele><time>2026-04-19T06:41:14.999Z</time></trkpt><trkpt lat="45.1131093939189" lon="9.994225470211365"><ele>39.0</ele><time>2026-04-19T06:41:15.999Z</time></trkpt><trkpt lat="45.11303849774015" lon="9.99426592649007"><ele>39.0</ele><time>2026-04-19T06:41:16.999Z</time></trkpt><trkpt lat="45.11296985125587" lon="9.994310221351409"><ele>39.166666666666664</ele><time>2026-04-19T06:41:17.999Z</time></trkpt><trkpt lat="45.11289923934216" lon="9.99435033270081"><ele>39.333333333333336</ele><time>2026-04-19T06:41:18.999Z</time></trkpt><trkpt lat="45.11282927344281" lon="9.994392819739595"><ele>39.5</ele><time>2026-04-19T06:41:19.999Z</time></trkpt><trkpt lat="45.1127587826992" lon="9.994434362357062"><ele>39.66666666666667</ele><time>2026-04-19T06:41:20.999Z</time></trkpt><trkpt lat="45.11268962726882" lon="9.994475144537619"><ele>39.833333333333336</ele><time>2026-04-19T06:41:21.999Z</time></trkpt><trkpt lat="45.112620213174694" lon="9.994519914650011"><ele>40.0</ele><time>2026-04-19T06:41:22.999Z</time></trkpt><trkpt lat="45.112549390570294" lon="9.99455586480836"><ele>40.0</ele><time>2026-04-19T06:41:23.999Z</time></trkpt><trkpt lat="45.112476515835226" lon="9.994585765406306"><ele>40.0</ele><time>2026-04-19T06:41:24.999Z</time></trkpt><trkpt lat="45.112401085915714" lon="9.994600926949667"><ele>40.0</ele><time>2026-04-19T06:41:25.998Z</time></trkpt><trkpt lat="45.112324246697035" lon="9.994602564709403"><ele>40.0</ele><time>2026-04-19T06:41:26.998Z</time></trkpt><trkpt lat="45.112247811053706" lon="9.994596600878436"><ele>40.0</ele><time>2026-04-19T06:41:27.998Z</time></trkpt><trkpt lat="45.1121720670408" lon="9.994579963838925"><ele>40.0</ele><time>2026-04-19T06:41:28.998Z</time></trkpt><trkpt lat="45.11209775795398" lon="9.994546683183763"><ele>39.833333333333336</ele><time>2026-04-19T06:41:29.998Z</time></trkpt><trkpt lat="45.112025393610466" lon="9.994505917089395"><ele>39.66666666666667</ele><time>2026-04-19T06:41:30.998Z</time></trkpt><trkpt lat="45.11196224843223" lon="9.994452224253271"><ele>39.5</ele><time>2026-04-19T06:41:31.998Z</time></trkpt><trkpt lat="45.11189634680835" lon="9.994403931052823"><ele>39.333333333333336</ele><time>2026-04-19T06:41:32.998Z</time></trkpt><trkpt lat="45.11183641679685" lon="9.994340161581016"><ele>39.166666666666664</ele><time>2026-04-19T06:41:33.998Z</time></trkpt><trkpt lat="45.11177714376335" lon="9.994274638624754"><ele>39.0</ele><time>2026-04-19T06:41:34.998Z</time></trkpt><trkpt lat="45.11171668767467" lon="9.99421238908522"><ele>38.85714285714286</ele><time>2026-04-19T06:41:35.998Z</time></trkpt><trkpt lat="45.11165636154572" lon="9.994149194070596"><ele>38.71428571428571</ele><time>2026-04-19T06:41:36.998Z</time></trkpt><trkpt lat="45.11159705275706" lon="9.994085479077308"><ele>38.57142857142857</ele><time>2026-04-19T06:41:37.998Z</time></trkpt><trkpt lat="45.11153946234849" lon="9.994019925150917"><ele>38.42857142857143</ele><time>2026-04-19T06:41:38.998Z</time></trkpt><trkpt lat="45.11147951945469" lon="9.993955934352844"><ele>38.28571428571429</ele><time>2026-04-19T06:41:39.998Z</time></trkpt><trkpt lat="45.111421351724545" lon="9.993892637399258"><ele>38.14285714285714</ele><time>2026-04-19T06:41:40.998Z</time></trkpt><trkpt lat="45.111362449083316" lon="9.993826287206245"><ele>38.0</ele><time>2026-04-19T06:41:41.998Z</time></trkpt><trkpt lat="45.11130382276026" lon="9.993762364695309"><ele>38.0</ele><time>2026-04-19T06:41:42.998Z</time></trkpt><trkpt lat="45.11124561654434" lon="9.993696359098482"><ele>38.0</ele><time>2026-04-19T06:41:43.998Z</time></trkpt><trkpt lat="45.11118622707118" lon="9.993631306497447"><ele>38.0</ele><time>2026-04-19T06:41:44.998Z</time></trkpt><trkpt lat="45.11112720425625" lon="9.99356661190515"><ele>38.0</ele><time>2026-04-19T06:41:45.998Z</time></trkpt><trkpt lat="45.111067695102" lon="9.993502578608176"><ele>38.0</ele><time>2026-04-19T06:41:46.998Z</time></trkpt><trkpt lat="45.1110084542535" lon="9.9934366941723"><ele>38.0</ele><time>2026-04-19T06:41:47.998Z</time></trkpt><trkpt lat="45.1109495915416" lon="9.993372868522076"><ele>38.0</ele><time>2026-04-19T06:41:48.998Z</time></trkpt><trkpt lat="45.110891190838096" lon="9.993305726825142"><ele>38.0</ele><time>2026-04-19T06:41:49.998Z</time></trkpt><trkpt lat="45.11083333879065" lon="9.993241332288804"><ele>38.0</ele><time>2026-04-19T06:41:50.998Z</time></trkpt><trkpt lat="45.11077517051071" lon="9.99317678239764"><ele>38.0</ele><time>2026-04-19T06:41:51.998Z</time></trkpt><trkpt lat="45.11071728857888" lon="9.993111781830613"><ele>38.0</ele><time>2026-04-19T06:41:52.998Z</time></trkpt><trkpt lat="45.11065877980551" lon="9.993047306350558"><ele>38.0</ele><time>2026-04-19T06:41:53.998Z</time></trkpt><trkpt lat="45.1105998740161" lon="9.99298325870942"><ele>38.0</ele><time>2026-04-19T06:41:54.998Z</time></trkpt><trkpt lat="45.11054124651108" lon="9.992920133475822"><ele>38.0</ele><time>2026-04-19T06:41:55.998Z</time></trkpt><trkpt lat="45.11048370080668" lon="9.99285401753292"><ele>37.857142857142854</ele><time>2026-04-19T06:41:56.998Z</time></trkpt><trkpt lat="45.11042480748149" lon="9.992790798749695"><ele>37.714285714285715</ele><time>2026-04-19T06:41:57.998Z</time></trkpt><trkpt lat="45.11036774051947" lon="9.992729402212664"><ele>37.57142857142857</ele><time>2026-04-19T06:41:58.998Z</time></trkpt><trkpt lat="45.11031155541321" lon="9.992665116485563"><ele>37.42857142857143</ele><time>2026-04-19T06:41:59.998Z</time></trkpt><trkpt lat="45.110255259532344" lon="9.992601810406752"><ele>37.285714285714285</ele><time>2026-04-19T06:42:00.998Z</time></trkpt><trkpt lat="45.110199585736446" lon="9.99253818730358"><ele>37.142857142857146</ele><time>2026-04-19T06:42:01.998Z</time></trkpt><trkpt lat="45.11014450167098" lon="9.992477247037154"><ele>37.0</ele><time>2026-04-19T06:42:02.998Z</time></trkpt><trkpt lat="45.11008950663251" lon="9.992413058515101"><ele>37.0</ele><time>2026-04-19T06:42:03.998Z</time></trkpt><trkpt lat="45.11003345424738" lon="9.992352054316328"><ele>37.0</ele><time>2026-04-19T06:42:04.998Z</time></trkpt><trkpt lat="45.10997856926919" lon="9.992289356870819"><ele>37.0</ele><time>2026-04-19T06:42:05.998Z</time></trkpt><trkpt lat="45.10992355992089" lon="9.992228766127743"><ele>37.0</ele><time>2026-04-19T06:42:06.998Z</time></trkpt><trkpt lat="45.10986895851388" lon="9.992168863934447"><ele>37.0</ele><time>2026-04-19T06:42:07.998Z</time></trkpt><trkpt lat="45.109817443624415" lon="9.992110513879908"><ele>37.0</ele><time>2026-04-19T06:42:08.998Z</time></trkpt><trkpt lat="45.109763785888816" lon="9.992051924326477"><ele>37.0</ele><time>2026-04-19T06:42:09.998Z</time></trkpt><trkpt lat="45.10971227780267" lon="9.991993821770622"><ele>36.85714285714286</ele><time>2026-04-19T06:42:10.998Z</time></trkpt><trkpt lat="45.10965917957955" lon="9.991934245126721"><ele>36.714285714285715</ele><time>2026-04-19T06:42:12Z</time></trkpt><trkpt lat="45.10960689798386" lon="9.991877276690126"><ele>36.57142857142857</ele><time>2026-04-19T06:42:13Z</time></trkpt><trkpt lat="45.109554179388866" lon="9.991819321452446"><ele>36.42857142857143</ele><time>2026-04-19T06:42:14Z</time></trkpt><trkpt lat="45.1095001086425" lon="9.99175968412259"><ele>36.285714285714285</ele><time>2026-04-19T06:42:15Z</time></trkpt><trkpt lat="45.10944409537933" lon="9.991699974153072"><ele>36.142857142857146</ele><time>2026-04-19T06:42:16Z</time></trkpt><trkpt lat="45.10938856636136" lon="9.991636314118926"><ele>36.0</ele><time>2026-04-19T06:42:17Z</time></trkpt><trkpt lat="45.10933208282427" lon="9.99157053302454"><ele>36.5</ele><time>2026-04-19T06:42:18Z</time></trkpt><trkpt lat="45.1092730782248" lon="9.991504513227786"><ele>37.0</ele><time>2026-04-19T06:42:19Z</time></trkpt><trkpt lat="45.10921135295583" lon="9.991433926451709"><ele>37.5</ele><time>2026-04-19T06:42:20Z</time></trkpt><trkpt lat="45.10915288438828" lon="9.991366128678713"><ele>38.0</ele><time>2026-04-19T06:42:21Z</time></trkpt><trkpt lat="45.10909313258721" lon="9.99129393995392"><ele>38.5</ele><time>2026-04-19T06:42:22Z</time></trkpt><trkpt lat="45.1090327718764" lon="9.991222501432466"><ele>39.0</ele><time>2026-04-19T06:42:23Z</time></trkpt><trkpt lat="45.108970963480495" lon="9.991149609338414"><ele>39.0</ele><time>2026-04-19T06:42:24Z</time></trkpt><trkpt lat="45.10890648505393" lon="9.99107983794937"><ele>39.0</ele><time>2026-04-19T06:42:25Z</time></trkpt><trkpt lat="45.10884427209673" lon="9.99100818442076"><ele>39.0</ele><time>2026-04-19T06:42:26Z</time></trkpt><trkpt lat="45.10878342404239" lon="9.990935190880366"><ele>39.0</ele><time>2026-04-19T06:42:27Z</time></trkpt><trkpt lat="45.1087226006603" lon="9.990863015443397"><ele>39.0</ele><time>2026-04-19T06:42:28Z</time></trkpt><trkpt lat="45.10866017624226" lon="9.990790673384577"><ele>39.0</ele><time>2026-04-19T06:42:29Z</time></trkpt><trkpt lat="45.108599155038874" lon="9.990719692089897"><ele>39.0</ele><time>2026-04-19T06:42:30Z</time></trkpt><trkpt lat="45.108540217921544" lon="9.990649332847362"><ele>39.0</ele><time>2026-04-19T06:42:31Z</time></trkpt><trkpt lat="45.1084786843976" lon="9.990579495982454"><ele>39.0</ele><time>2026-04-19T06:42:32Z</time></trkpt><trkpt lat="45.10841697524253" lon="9.990512969332677"><ele>39.0</ele><time>2026-04-19T06:42:33Z</time></trkpt><trkpt lat="45.10835595131277" lon="9.990443968139529"><ele>39.0</ele><time>2026-04-19T06:42:34Z</time></trkpt><trkpt lat="45.10829680227731" lon="9.990374173633741"><ele>39.0</ele><time>2026-04-19T06:42:35Z</time></trkpt><trkpt lat="45.10823933485315" lon="9.990305001452858"><ele>39.0</ele><time>2026-04-19T06:42:36Z</time></trkpt><trkpt lat="45.10818038978585" lon="9.990238173046421"><ele>39.0</ele><time>2026-04-19T06:42:36.999Z</time></trkpt><trkpt lat="45.1081225916891" lon="9.990168964097938"><ele>39.0</ele><time>2026-04-19T06:42:37.999Z</time></trkpt><trkpt lat="45.1080640782803" lon="9.99010044423029"><ele>39.0</ele><time>2026-04-19T06:42:38.999Z</time></trkpt><trkpt lat="45.10800382374543" lon="9.990032124998393"><ele>39.0</ele><time>2026-04-19T06:42:39.999Z</time></trkpt><trkpt lat="45.10794140996626" lon="9.989965455400965"><ele>39.0</ele><time>2026-04-19T06:42:40.999Z</time></trkpt><trkpt lat="45.10788303931188" lon="9.989896216006077"><ele>38.85714285714286</ele><time>2026-04-19T06:42:41.999Z</time></trkpt><trkpt lat="45.10782306478336" lon="9.989829106396312"><ele>38.71428571428571</ele><time>2026-04-19T06:42:42.999Z</time></trkpt><trkpt lat="45.10776216280373" lon="9.989761233776363"><ele>38.57142857142857</ele><time>2026-04-19T06:42:43.999Z</time></trkpt><trkpt lat="45.107702761323424" lon="9.989695408339891"><ele>38.42857142857143</ele><time>2026-04-19T06:42:44.999Z</time></trkpt><trkpt lat="45.107646307254065" lon="9.989630203929359"><ele>38.28571428571429</ele><time>2026-04-19T06:42:45.999Z</time></trkpt><trkpt lat="45.10758996130375" lon="9.989565234006616"><ele>38.14285714285714</ele><time>2026-04-19T06:42:46.999Z</time></trkpt><trkpt lat="45.10753573677442" lon="9.989501317504747"><ele>38.0</ele><time>2026-04-19T06:42:47.999Z</time></trkpt><trkpt lat="45.10748285049369" lon="9.989439119512245"><ele>38.0</ele><time>2026-04-19T06:42:48.999Z</time></trkpt><trkpt lat="45.107432477555285" lon="9.989382417288526"><ele>38.0</ele><time>2026-04-19T06:42:49.999Z</time></trkpt><trkpt lat="45.10738322651437" lon="9.98932596402721"><ele>38.0</ele><time>2026-04-19T06:42:50.999Z</time></trkpt><trkpt lat="45.10729157110539" lon="9.989228251063862"><ele>38.0</ele><time>2026-04-19T06:42:52.999Z</time></trkpt><trkpt lat="45.10722259663238" lon="9.989150551273967"><ele>38.0</ele><time>2026-04-19T06:42:54.999Z</time></trkpt><trkpt lat="45.1071668094473" lon="9.989083661657894"><ele>38.0</ele><time>2026-04-19T06:42:56.999Z</time></trkpt><trkpt lat="45.10711011457979" lon="9.989021782320595"><ele>38.599999999999994</ele><time>2026-04-19T06:42:59.999Z</time></trkpt><trkpt lat="45.10704987382055" lon="9.988946712738482"><ele>39.199999999999996</ele><time>2026-04-19T06:43:04.999Z</time></trkpt><trkpt lat="45.10699329508735" lon="9.988876592816151"><ele>39.8</ele><time>2026-04-19T06:43:06.999Z</time></trkpt><trkpt lat="45.106912260866835" lon="9.988787454323868"><ele>40.4</ele><time>2026-04-19T06:43:08.999Z</time></trkpt><trkpt lat="45.10682647464937" lon="9.988693662468254"><ele>41.0</ele><time>2026-04-19T06:43:10.999Z</time></trkpt><trkpt lat="45.10673375549344" lon="9.988590884723141"><ele>40.99999999999999</ele><time>2026-04-19T06:43:12.999Z</time></trkpt><trkpt lat="45.106678808896135" lon="9.988535870700872"><ele>41.0</ele><time>2026-04-19T06:43:13.999Z</time></trkpt><trkpt lat="45.106626903149206" lon="9.988475786309897"><ele>41.0</ele><time>2026-04-19T06:43:14.999Z</time></trkpt><trkpt lat="45.10657255974805" lon="9.988417330992133"><ele>41.0</ele><time>2026-04-19T06:43:15.999Z</time></trkpt><trkpt lat="45.10651916598346" lon="9.98835842212857"><ele>41.0</ele><time>2026-04-19T06:43:16.999Z</time></trkpt><trkpt lat="45.10646963351467" lon="9.988301489145403"><ele>40.99999999999999</ele><time>2026-04-19T06:43:17.999Z</time></trkpt><trkpt lat="45.10641374560692" lon="9.988243463103982"><ele>41.0</ele><time>2026-04-19T06:43:18.999Z</time></trkpt><trkpt lat="45.10635789827444" lon="9.98818630406212"><ele>40.71428571428571</ele><time>2026-04-19T06:43:19.999Z</time></trkpt><trkpt lat="45.10630297989939" lon="9.988121761807054"><ele>40.42857142857143</ele><time>2026-04-19T06:43:20.999Z</time></trkpt><trkpt lat="45.1062462112782" lon="9.98806358828546"><ele>40.14285714285714</ele><time>2026-04-19T06:43:21.999Z</time></trkpt><trkpt lat="45.10619129172853" lon="9.988006152397109"><ele>39.857142857142854</ele><time>2026-04-19T06:43:22.999Z</time></trkpt><trkpt lat="45.10613252769267" lon="9.987957112837469"><ele>39.57142857142857</ele><time>2026-04-19T06:43:23.999Z</time></trkpt><trkpt lat="45.10607543385606" lon="9.987892916294493"><ele>39.285714285714285</ele><time>2026-04-19T06:43:24.999Z</time></trkpt><trkpt lat="45.10601448823045" lon="9.987835634271212"><ele>39.0</ele><time>2026-04-19T06:43:25.999Z</time></trkpt><trkpt lat="45.10595810150276" lon="9.98777831122771"><ele>39.0</ele><time>2026-04-19T06:43:26.999Z</time></trkpt><trkpt lat="45.10590047469019" lon="9.987718785447754"><ele>39.0</ele><time>2026-04-19T06:43:27.999Z</time></trkpt><trkpt lat="45.10584302659974" lon="9.987658605636785"><ele>39.0</ele><time>2026-04-19T06:43:28.999Z</time></trkpt><trkpt lat="45.105786611669664" lon="9.987595181408583"><ele>39.0</ele><time>2026-04-19T06:43:29.999Z</time></trkpt><trkpt lat="45.105728792036345" lon="9.987533507338837"><ele>39.0</ele><time>2026-04-19T06:43:30.998Z</time></trkpt><trkpt lat="45.10567234314348" lon="9.987473130935188"><ele>39.0</ele><time>2026-04-19T06:43:31.998Z</time></trkpt><trkpt lat="45.10561544443642" lon="9.987410739552251"><ele>39.0</ele><time>2026-04-19T06:43:32.998Z</time></trkpt><trkpt lat="45.10555881375886" lon="9.987347397930337"><ele>38.85714285714286</ele><time>2026-04-19T06:43:33.998Z</time></trkpt><trkpt lat="45.10550207053128" lon="9.987282227784439"><ele>38.71428571428571</ele><time>2026-04-19T06:43:34.998Z</time></trkpt><trkpt lat="45.10544647949358" lon="9.9872156929297"><ele>38.57142857142857</ele><time>2026-04-19T06:43:35.998Z</time></trkpt><trkpt lat="45.10539086883252" lon="9.987150526226035"><ele>38.42857142857143</ele><time>2026-04-19T06:43:36.998Z</time></trkpt><trkpt lat="45.10533320397742" lon="9.987085531841965"><ele>38.28571428571429</ele><time>2026-04-19T06:43:37.998Z</time></trkpt><trkpt lat="45.10528039287204" lon="9.987016581126113"><ele>38.14285714285714</ele><time>2026-04-19T06:43:38.998Z</time></trkpt><trkpt lat="45.10522585466683" lon="9.986947787555906"><ele>38.0</ele><time>2026-04-19T06:43:39.998Z</time></trkpt><trkpt lat="45.10517405979541" lon="9.986876823450089"><ele>38.0</ele><time>2026-04-19T06:43:40.998Z</time></trkpt><trkpt lat="45.10513866883623" lon="9.986787747127625"><ele>38.0</ele><time>2026-04-19T06:43:41.998Z</time></trkpt><trkpt lat="45.10509434806331" lon="9.986709094253321"><ele>38.0</ele><time>2026-04-19T06:43:42.998Z</time></trkpt><trkpt lat="45.105053300044816" lon="9.986626477066636"><ele>38.0</ele><time>2026-04-19T06:43:43.998Z</time></trkpt><trkpt lat="45.10501421351953" lon="9.986544576262002"><ele>38.0</ele><time>2026-04-19T06:43:44.998Z</time></trkpt><trkpt lat="45.10490882202602" lon="9.986524395155238"><ele>38.0</ele><time>2026-04-19T06:43:45.998Z</time></trkpt><trkpt lat="45.10484444591597" lon="9.986476366860018"><ele>38.0</ele><time>2026-04-19T06:43:46.998Z</time></trkpt><trkpt lat="45.10477588738408" lon="9.986433640301128"><ele>38.0</ele><time>2026-04-19T06:43:47.998Z</time></trkpt><trkpt lat="45.10470844090399" lon="9.986379237755639"><ele>38.0</ele><time>2026-04-19T06:43:48.998Z</time></trkpt><trkpt lat="45.10464992077901" lon="9.98631606167245"><ele>38.0</ele><time>2026-04-19T06:43:49.998Z</time></trkpt><trkpt lat="45.10458655202628" lon="9.986249277178032"><ele>38.0</ele><time>2026-04-19T06:43:50.998Z</time></trkpt><trkpt lat="45.10452630983437" lon="9.986191158395254"><ele>38.0</ele><time>2026-04-19T06:43:51.998Z</time></trkpt><trkpt lat="45.10446556986077" lon="9.986126286925428"><ele>38.0</ele><time>2026-04-19T06:43:52.998Z</time></trkpt><trkpt lat="45.10440674616631" lon="9.986056251865897"><ele>38.0</ele><time>2026-04-19T06:43:53.998Z</time></trkpt><trkpt lat="45.10434903373984" lon="9.985986079264652"><ele>38.0</ele><time>2026-04-19T06:43:54.998Z</time></trkpt><trkpt lat="45.10429508540833" lon="9.985912736829654"><ele>38.0</ele><time>2026-04-19T06:43:55.998Z</time></trkpt><trkpt lat="45.10423599471677" lon="9.985840199584132"><ele>38.0</ele><time>2026-04-19T06:43:56.998Z</time></trkpt><trkpt lat="45.104177929498846" lon="9.985771436357055"><ele>38.0</ele><time>2026-04-19T06:43:57.998Z</time></trkpt><trkpt lat="45.10411868126523" lon="9.985705153019307"><ele>38.14285714285714</ele><time>2026-04-19T06:43:58.998Z</time></trkpt><trkpt lat="45.10406074633282" lon="9.98563937838456"><ele>38.28571428571429</ele><time>2026-04-19T06:43:59.998Z</time></trkpt><trkpt lat="45.1040032387138" lon="9.985571483791965"><ele>38.42857142857143</ele><time>2026-04-19T06:44:00.998Z</time></trkpt><trkpt lat="45.10394387183762" lon="9.98550676599344"><ele>38.57142857142857</ele><time>2026-04-19T06:44:01.998Z</time></trkpt><trkpt lat="45.10388466275641" lon="9.985442216094587"><ele>38.71428571428571</ele><time>2026-04-19T06:44:02.998Z</time></trkpt><trkpt lat="45.10382650762735" lon="9.985378259768531"><ele>38.85714285714286</ele><time>2026-04-19T06:44:03.998Z</time></trkpt><trkpt lat="45.103769695979246" lon="9.985314094380975"><ele>39.0</ele><time>2026-04-19T06:44:04.998Z</time></trkpt><trkpt lat="45.103711864814905" lon="9.985253146748429"><ele>39.0</ele><time>2026-04-19T06:44:05.998Z</time></trkpt><trkpt lat="45.10365792253389" lon="9.985186009524744"><ele>39.0</ele><time>2026-04-19T06:44:06.998Z</time></trkpt><trkpt lat="45.10360303049369" lon="9.985121213257365"><ele>39.0</ele><time>2026-04-19T06:44:07.998Z</time></trkpt><trkpt lat="45.1035498337751" lon="9.985056355882168"><ele>39.0</ele><time>2026-04-19T06:44:08.998Z</time></trkpt><trkpt lat="45.103491602685104" lon="9.98498584254985"><ele>39.0</ele><time>2026-04-19T06:44:09.998Z</time></trkpt><trkpt lat="45.10343349816437" lon="9.984920373021376"><ele>39.0</ele><time>2026-04-19T06:44:10.998Z</time></trkpt><trkpt lat="45.10337796094271" lon="9.984854735070027"><ele>39.0</ele><time>2026-04-19T06:44:11.998Z</time></trkpt><trkpt lat="45.10331997019082" lon="9.98478940996815"><ele>39.0</ele><time>2026-04-19T06:44:12.998Z</time></trkpt><trkpt lat="45.10326039438541" lon="9.984724991109772"><ele>39.0</ele><time>2026-04-19T06:44:13.998Z</time></trkpt><trkpt lat="45.10320570507306" lon="9.984656364391666"><ele>39.0</ele><time>2026-04-19T06:44:14.998Z</time></trkpt><trkpt lat="45.10314639147442" lon="9.984592375248297"><ele>39.0</ele><time>2026-04-19T06:44:15.998Z</time></trkpt><trkpt lat="45.10308689319647" lon="9.984526953573871"><ele>39.0</ele><time>2026-04-19T06:44:16.998Z</time></trkpt><trkpt lat="45.1030284868022" lon="9.984461441102761"><ele>39.0</ele><time>2026-04-19T06:44:18Z</time></trkpt><trkpt lat="45.10296979446189" lon="9.98439773011063"><ele>39.0</ele><time>2026-04-19T06:44:19Z</time></trkpt><trkpt lat="45.10291075994634" lon="9.98433121770348"><ele>39.0</ele><time>2026-04-19T06:44:20Z</time></trkpt><trkpt lat="45.10285208765028" lon="9.984265515085385"><ele>39.0</ele><time>2026-04-19T06:44:21Z</time></trkpt><trkpt lat="45.10279401315" lon="9.984198626444398"><ele>39.0</ele><time>2026-04-19T06:44:22Z</time></trkpt><trkpt lat="45.10273311498217" lon="9.984131111991124"><ele>39.0</ele><time>2026-04-19T06:44:23Z</time></trkpt><trkpt lat="45.102674004468334" lon="9.984066172867726"><ele>39.0</ele><time>2026-04-19T06:44:24Z</time></trkpt><trkpt lat="45.10261409011097" lon="9.983996717809125"><ele>39.0</ele><time>2026-04-19T06:44:25Z</time></trkpt><trkpt lat="45.10255513839724" lon="9.983929781877414"><ele>39.0</ele><time>2026-04-19T06:44:26Z</time></trkpt><trkpt lat="45.102495265925356" lon="9.983863091398288"><ele>39.0</ele><time>2026-04-19T06:44:27Z</time></trkpt><trkpt lat="45.10243656067744" lon="9.983798787529452"><ele>39.0</ele><time>2026-04-19T06:44:28Z</time></trkpt><trkpt lat="45.1023751659433" lon="9.983733839626709"><ele>39.0</ele><time>2026-04-19T06:44:29Z</time></trkpt><trkpt lat="45.10231857132607" lon="9.983668471561892"><ele>39.0</ele><time>2026-04-19T06:44:30Z</time></trkpt><trkpt lat="45.10226029114512" lon="9.983599516194309"><ele>39.0</ele><time>2026-04-19T06:44:31Z</time></trkpt><trkpt lat="45.10219939738955" lon="9.983532683071699"><ele>39.166666666666664</ele><time>2026-04-19T06:44:32Z</time></trkpt><trkpt lat="45.10213997114408" lon="9.983466673092181"><ele>39.333333333333336</ele><time>2026-04-19T06:44:33Z</time></trkpt><trkpt lat="45.10207735623156" lon="9.983404023936798"><ele>39.5</ele><time>2026-04-19T06:44:34Z</time></trkpt><trkpt lat="45.10201151371436" lon="9.983344734691311"><ele>39.66666666666667</ele><time>2026-04-19T06:44:35Z</time></trkpt><trkpt lat="45.10194199197005" lon="9.983299985489188"><ele>39.833333333333336</ele><time>2026-04-19T06:44:36Z</time></trkpt><trkpt lat="45.10186983862664" lon="9.983262617811137"><ele>40.0</ele><time>2026-04-19T06:44:37Z</time></trkpt><trkpt lat="45.10179417508307" lon="9.983242650988066"><ele>40.0</ele><time>2026-04-19T06:44:38Z</time></trkpt><trkpt lat="45.101716951208694" lon="9.983240427409035"><ele>40.0</ele><time>2026-04-19T06:44:39Z</time></trkpt><trkpt lat="45.10163870194666" lon="9.983250306659782"><ele>40.0</ele><time>2026-04-19T06:44:40Z</time></trkpt><trkpt lat="45.101561787902256" lon="9.983270208813545"><ele>40.0</ele><time>2026-04-19T06:44:40.999Z</time></trkpt><trkpt lat="45.101487481501536" lon="9.983306931651406"><ele>40.0</ele><time>2026-04-19T06:44:41.999Z</time></trkpt><trkpt lat="45.10141725004227" lon="9.983356688293577"><ele>40.0</ele><time>2026-04-19T06:44:42.999Z</time></trkpt><trkpt lat="45.10135476038658" lon="9.983416283007674"><ele>39.5</ele><time>2026-04-19T06:44:43.999Z</time></trkpt><trkpt lat="45.101294311624976" lon="9.983490638598374"><ele>39.0</ele><time>2026-04-19T06:44:44.999Z</time></trkpt><trkpt lat="45.10124250824476" lon="9.983572936721576"><ele>38.5</ele><time>2026-04-19T06:44:45.999Z</time></trkpt><trkpt lat="45.10119760836419" lon="9.983664771923253"><ele>38.0</ele><time>2026-04-19T06:44:46.999Z</time></trkpt><trkpt lat="45.10115659212068" lon="9.983758399053444"><ele>37.5</ele><time>2026-04-19T06:44:47.999Z</time></trkpt><trkpt lat="45.10111648886866" lon="9.98384893773443"><ele>37.0</ele><time>2026-04-19T06:44:48.999Z</time></trkpt><trkpt lat="45.101075692138394" lon="9.983942524390889"><ele>37.0</ele><time>2026-04-19T06:44:49.999Z</time></trkpt><trkpt lat="45.10103654035231" lon="9.98403549834207"><ele>37.0</ele><time>2026-04-19T06:44:50.999Z</time></trkpt><trkpt lat="45.1009961119017" lon="9.984128166114385"><ele>37.0</ele><time>2026-04-19T06:44:51.999Z</time></trkpt><trkpt lat="45.10095474466924" lon="9.984222208069164"><ele>37.0</ele><time>2026-04-19T06:44:52.999Z</time></trkpt><trkpt lat="45.10091377146503" lon="9.984311766388696"><ele>37.0</ele><time>2026-04-19T06:44:53.999Z</time></trkpt><trkpt lat="45.10087527225198" lon="9.984403692922887"><ele>37.0</ele><time>2026-04-19T06:44:54.999Z</time></trkpt><trkpt lat="45.100834654110315" lon="9.984492912322702"><ele>37.333333333333336</ele><time>2026-04-19T06:44:55.999Z</time></trkpt><trkpt lat="45.10079620206593" lon="9.984584960117518"><ele>37.66666666666667</ele><time>2026-04-19T06:44:56.999Z</time></trkpt><trkpt lat="45.100755926572845" lon="9.98467631489758"><ele>38.0</ele><time>2026-04-19T06:44:57.999Z</time></trkpt><trkpt lat="45.100714612674636" lon="9.98476563830772"><ele>38.333333333333336</ele><time>2026-04-19T06:44:58.999Z</time></trkpt><trkpt lat="45.10067643785983" lon="9.984859439571848"><ele>38.666666666666664</ele><time>2026-04-19T06:44:59.999Z</time></trkpt><trkpt lat="45.10063844061192" lon="9.984952960516384"><ele>39.0</ele><time>2026-04-19T06:45:00.999Z</time></trkpt><trkpt lat="45.10059987949888" lon="9.985048298729103"><ele>39.0</ele><time>2026-04-19T06:45:01.999Z</time></trkpt><trkpt lat="45.100560159507204" lon="9.985140657347612"><ele>39.0</ele><time>2026-04-19T06:45:02.999Z</time></trkpt><trkpt lat="45.10051972966682" lon="9.985232201402535"><ele>39.0</ele><time>2026-04-19T06:45:03.999Z</time></trkpt><trkpt lat="45.10048111082559" lon="9.985323954344938"><ele>39.0</ele><time>2026-04-19T06:45:04.999Z</time></trkpt><trkpt lat="45.10044137731046" lon="9.985415556744076"><ele>39.0</ele><time>2026-04-19T06:45:05.999Z</time></trkpt><trkpt lat="45.10040227641273" lon="9.98550744051475"><ele>39.0</ele><time>2026-04-19T06:45:06.999Z</time></trkpt><trkpt lat="45.10036399037095" lon="9.985598058395247"><ele>39.0</ele><time>2026-04-19T06:45:07.999Z</time></trkpt><trkpt lat="45.10032242942343" lon="9.98568836337946"><ele>39.0</ele><time>2026-04-19T06:45:08.999Z</time></trkpt><trkpt lat="45.100280299691164" lon="9.985780384714328"><ele>39.0</ele><time>2026-04-19T06:45:09.999Z</time></trkpt><trkpt lat="45.10023818435226" lon="9.985870525090712"><ele>39.0</ele><time>2026-04-19T06:45:10.999Z</time></trkpt><trkpt lat="45.10019615953508" lon="9.985963328352575"><ele>39.0</ele><time>2026-04-19T06:45:11.999Z</time></trkpt><trkpt lat="45.100156761893444" lon="9.986057086728682"><ele>39.0</ele><time>2026-04-19T06:45:12.999Z</time></trkpt><trkpt lat="45.10011162537331" lon="9.986151068002355"><ele>39.0</ele><time>2026-04-19T06:45:13.999Z</time></trkpt><trkpt lat="45.100071296265995" lon="9.986241587198249"><ele>39.0</ele><time>2026-04-19T06:45:14.999Z</time></trkpt><trkpt lat="45.10002918886243" lon="9.986334025749334"><ele>39.0</ele><time>2026-04-19T06:45:15.999Z</time></trkpt><trkpt lat="45.099986600743286" lon="9.986427301245053"><ele>39.0</ele><time>2026-04-19T06:45:16.999Z</time></trkpt><trkpt lat="45.09994603398323" lon="9.986520957796687"><ele>39.0</ele><time>2026-04-19T06:45:17.999Z</time></trkpt><trkpt lat="45.09990157048321" lon="9.986609092480332"><ele>39.0</ele><time>2026-04-19T06:45:18.999Z</time></trkpt><trkpt lat="45.09986001930101" lon="9.986700043365815"><ele>39.166666666666664</ele><time>2026-04-19T06:45:19.999Z</time></trkpt><trkpt lat="45.09981470417087" lon="9.986788611533045"><ele>39.333333333333336</ele><time>2026-04-19T06:45:20.999Z</time></trkpt><trkpt lat="45.09976899376805" lon="9.986876045271947"><ele>39.5</ele><time>2026-04-19T06:45:21.999Z</time></trkpt><trkpt lat="45.09972565010658" lon="9.98696268127785"><ele>39.66666666666667</ele><time>2026-04-19T06:45:22.999Z</time></trkpt><trkpt lat="45.09967815944252" lon="9.987047676980664"><ele>39.833333333333336</ele><time>2026-04-19T06:45:23.999Z</time></trkpt><trkpt lat="45.0996318648198" lon="9.987131309700866"><ele>40.0</ele><time>2026-04-19T06:45:24.999Z</time></trkpt><trkpt lat="45.099581022440326" lon="9.98721206198778"><ele>40.0</ele><time>2026-04-19T06:45:25.999Z</time></trkpt><trkpt lat="45.09953452819401" lon="9.987295202784443"><ele>40.0</ele><time>2026-04-19T06:45:26.999Z</time></trkpt><trkpt lat="45.0994839548715" lon="9.987376381745955"><ele>40.0</ele><time>2026-04-19T06:45:27.999Z</time></trkpt><trkpt lat="45.09943328183393" lon="9.987454495263146"><ele>40.0</ele><time>2026-04-19T06:45:28.999Z</time></trkpt><trkpt lat="45.099382824904396" lon="9.987535270657366"><ele>40.0</ele><time>2026-04-19T06:45:29.999Z</time></trkpt><trkpt lat="45.09933378724202" lon="9.987611331323839"><ele>40.0</ele><time>2026-04-19T06:45:30.999Z</time></trkpt><trkpt lat="45.09928336154178" lon="9.98769153926184"><ele>39.857142857142854</ele><time>2026-04-19T06:45:31.999Z</time></trkpt><trkpt lat="45.099233878710656" lon="9.987767551137098"><ele>39.714285714285715</ele><time>2026-04-19T06:45:32.999Z</time></trkpt><trkpt lat="45.099182551654565" lon="9.987843730669072"><ele>39.57142857142857</ele><time>2026-04-19T06:45:33.998Z</time></trkpt><trkpt lat="45.099133001617496" lon="9.98792239318905"><ele>39.42857142857143</ele><time>2026-04-19T06:45:34.998Z</time></trkpt><trkpt lat="45.09908665899305" lon="9.988001716593276"><ele>39.285714285714285</ele><time>2026-04-19T06:45:35.998Z</time></trkpt><trkpt lat="45.09903417047621" lon="9.988083617649671"><ele>39.142857142857146</ele><time>2026-04-19T06:45:36.998Z</time></trkpt><trkpt lat="45.09898336326736" lon="9.988164357428403"><ele>39.0</ele><time>2026-04-19T06:45:37.998Z</time></trkpt><trkpt lat="45.098932824791355" lon="9.988238825209672"><ele>39.0</ele><time>2026-04-19T06:45:38.998Z</time></trkpt><trkpt lat="45.09888155556942" lon="9.988320586513025"><ele>39.0</ele><time>2026-04-19T06:45:39.998Z</time></trkpt><trkpt lat="45.09883196024403" lon="9.98839734780408"><ele>39.0</ele><time>2026-04-19T06:45:40.998Z</time></trkpt><trkpt lat="45.09878115403862" lon="9.988477077710893"><ele>39.0</ele><time>2026-04-19T06:45:41.998Z</time></trkpt><trkpt lat="45.09873038092004" lon="9.9885540200358"><ele>39.0</ele><time>2026-04-19T06:45:42.998Z</time></trkpt><trkpt lat="45.098678758854454" lon="9.988632642464651"><ele>39.0</ele><time>2026-04-19T06:45:43.998Z</time></trkpt><trkpt lat="45.09862745505661" lon="9.98871077799741"><ele>39.0</ele><time>2026-04-19T06:45:44.998Z</time></trkpt><trkpt lat="45.098576687211015" lon="9.98878846435841"><ele>39.0</ele><time>2026-04-19T06:45:45.998Z</time></trkpt><trkpt lat="45.098525185793704" lon="9.988867174467131"><ele>39.0</ele><time>2026-04-19T06:45:46.998Z</time></trkpt><trkpt lat="45.09847503811663" lon="9.988946081983164"><ele>39.0</ele><time>2026-04-19T06:45:47.998Z</time></trkpt><trkpt lat="45.09842591062072" lon="9.989023947396172"><ele>39.0</ele><time>2026-04-19T06:45:48.998Z</time></trkpt><trkpt lat="45.09837460605725" lon="9.989103768593239"><ele>39.0</ele><time>2026-04-19T06:45:49.998Z</time></trkpt><trkpt lat="45.09832605396327" lon="9.989182915317002"><ele>39.0</ele><time>2026-04-19T06:45:50.998Z</time></trkpt><trkpt lat="45.0982781216743" lon="9.98926573040047"><ele>38.85714285714286</ele><time>2026-04-19T06:45:51.998Z</time></trkpt><trkpt lat="45.09822831606567" lon="9.989345622674348"><ele>38.71428571428571</ele><time>2026-04-19T06:45:52.998Z</time></trkpt><trkpt lat="45.0981786295568" lon="9.989425098260972"><ele>38.57142857142857</ele><time>2026-04-19T06:45:53.998Z</time></trkpt><trkpt lat="45.0981301368297" lon="9.989507107877456"><ele>38.42857142857143</ele><time>2026-04-19T06:45:54.998Z</time></trkpt><trkpt lat="45.09807729913987" lon="9.98958421929116"><ele>38.28571428571429</ele><time>2026-04-19T06:45:55.998Z</time></trkpt><trkpt lat="45.098024829849955" lon="9.989655847750592"><ele>38.14285714285714</ele><time>2026-04-19T06:45:56.998Z</time></trkpt><trkpt lat="45.09796674904268" lon="9.989722433109502"><ele>38.0</ele><time>2026-04-19T06:45:57.998Z</time></trkpt><trkpt lat="45.09790654703162" lon="9.989781963386761"><ele>38.0</ele><time>2026-04-19T06:45:58.998Z</time></trkpt><trkpt lat="45.09784054033408" lon="9.989834197769433"><ele>38.0</ele><time>2026-04-19T06:45:59.998Z</time></trkpt><trkpt lat="45.09777025059319" lon="9.989874149408928"><ele>38.0</ele><time>2026-04-19T06:46:00.998Z</time></trkpt><trkpt lat="45.09769777731718" lon="9.989908357038065"><ele>38.0</ele><time>2026-04-19T06:46:01.998Z</time></trkpt><trkpt lat="45.09762555763565" lon="9.98993569513049"><ele>38.0</ele><time>2026-04-19T06:46:02.998Z</time></trkpt><trkpt lat="45.09755231973098" lon="9.989964762622401"><ele>38.0</ele><time>2026-04-19T06:46:03.998Z</time></trkpt><trkpt lat="45.097478961387736" lon="9.98999256930631"><ele>37.83333333333333</ele><time>2026-04-19T06:46:04.998Z</time></trkpt><trkpt lat="45.097408306465766" lon="9.990022322492095"><ele>37.666666666666664</ele><time>2026-04-19T06:46:05.998Z</time></trkpt><trkpt lat="45.097334769605354" lon="9.99004889400014"><ele>37.5</ele><time>2026-04-19T06:46:06.998Z</time></trkpt><trkpt lat="45.09726103175219" lon="9.990080087222061"><ele>37.333333333333336</ele><time>2026-04-19T06:46:07.998Z</time></trkpt><trkpt lat="45.0971904830828" lon="9.990105527965506"><ele>37.16666666666667</ele><time>2026-04-19T06:46:08.998Z</time></trkpt><trkpt lat="45.09711620509802" lon="9.990132459994474"><ele>37.0</ele><time>2026-04-19T06:46:09.998Z</time></trkpt><trkpt lat="45.09704321372809" lon="9.990158143024992"><ele>37.0</ele><time>2026-04-19T06:46:10.998Z</time></trkpt><trkpt lat="45.096968538383386" lon="9.990180866230897"><ele>37.0</ele><time>2026-04-19T06:46:11.998Z</time></trkpt><trkpt lat="45.09689654241147" lon="9.990204724396207"><ele>37.0</ele><time>2026-04-19T06:46:12.998Z</time></trkpt><trkpt lat="45.096820270441086" lon="9.9902260635808"><ele>37.0</ele><time>2026-04-19T06:46:13.998Z</time></trkpt><trkpt lat="45.096747725609255" lon="9.990245893896416"><ele>37.0</ele><time>2026-04-19T06:46:14.998Z</time></trkpt><trkpt lat="45.096673457661964" lon="9.990267963143962"><ele>37.0</ele><time>2026-04-19T06:46:15.998Z</time></trkpt><trkpt lat="45.09659557571757" lon="9.990291510022724"><ele>37.333333333333336</ele><time>2026-04-19T06:46:16.998Z</time></trkpt><trkpt lat="45.09652069683226" lon="9.990306868415413"><ele>37.66666666666667</ele><time>2026-04-19T06:46:17.998Z</time></trkpt><trkpt lat="45.096445462313085" lon="9.990327773334688"><ele>38.0</ele><time>2026-04-19T06:46:18.998Z</time></trkpt><trkpt lat="45.09636956381729" lon="9.990342940828466"><ele>38.333333333333336</ele><time>2026-04-19T06:46:19.998Z</time></trkpt><trkpt lat="45.09629664403747" lon="9.990357525933717"><ele>38.666666666666664</ele><time>2026-04-19T06:46:20.998Z</time></trkpt><trkpt lat="45.09621773218414" lon="9.990361480224514"><ele>39.0</ele><time>2026-04-19T06:46:21.998Z</time></trkpt><trkpt lat="45.09614409230335" lon="9.990366344443181"><ele>39.0</ele><time>2026-04-19T06:46:22.998Z</time></trkpt><trkpt lat="45.09606860938574" lon="9.990382084650223"><ele>39.0</ele><time>2026-04-19T06:46:24Z</time></trkpt><trkpt lat="45.09599324615225" lon="9.99039829524606"><ele>39.0</ele><time>2026-04-19T06:46:25Z</time></trkpt><trkpt lat="45.09591974416499" lon="9.990415590033688"><ele>39.0</ele><time>2026-04-19T06:46:26Z</time></trkpt><trkpt lat="45.0958465177961" lon="9.990438808868298"><ele>39.0</ele><time>2026-04-19T06:46:27Z</time></trkpt><trkpt lat="45.09577129776073" lon="9.990463220320418"><ele>39.0</ele><time>2026-04-19T06:46:28Z</time></trkpt><trkpt lat="45.09569732838959" lon="9.990482539675769"><ele>39.166666666666664</ele><time>2026-04-19T06:46:29Z</time></trkpt><trkpt lat="45.09562310998021" lon="9.99050799768894"><ele>39.333333333333336</ele><time>2026-04-19T06:46:30Z</time></trkpt><trkpt lat="45.095547793052745" lon="9.990530660272606"><ele>39.5</ele><time>2026-04-19T06:46:31Z</time></trkpt><trkpt lat="45.09547203908341" lon="9.990556066995044"><ele>39.66666666666667</ele><time>2026-04-19T06:46:32Z</time></trkpt><trkpt lat="45.09539615611242" lon="9.990582451898259"><ele>39.833333333333336</ele><time>2026-04-19T06:46:33Z</time></trkpt><trkpt lat="45.095318436080866" lon="9.990609534487414"><ele>40.0</ele><time>2026-04-19T06:46:34Z</time></trkpt><trkpt lat="45.095242900838684" lon="9.990639455076433"><ele>40.0</ele><time>2026-04-19T06:46:35Z</time></trkpt><trkpt lat="45.095166481752955" lon="9.99066788048322"><ele>40.0</ele><time>2026-04-19T06:46:36Z</time></trkpt><trkpt lat="45.09508922095752" lon="9.990693355614232"><ele>40.0</ele><time>2026-04-19T06:46:37Z</time></trkpt><trkpt lat="45.09501204483535" lon="9.990715688015648"><ele>40.0</ele><time>2026-04-19T06:46:38Z</time></trkpt><trkpt lat="45.0949340547288" lon="9.990727460888905"><ele>40.0</ele><time>2026-04-19T06:46:39Z</time></trkpt><trkpt lat="45.09485339001823" lon="9.990731292125245"><ele>40.0</ele><time>2026-04-19T06:46:40Z</time></trkpt><trkpt lat="45.09477202154582" lon="9.990736608102445"><ele>39.333333333333336</ele><time>2026-04-19T06:46:41Z</time></trkpt><trkpt lat="45.09469254713305" lon="9.990740140208327"><ele>38.66666666666667</ele><time>2026-04-19T06:46:42Z</time></trkpt><trkpt lat="45.094612499784304" lon="9.990741492027537"><ele>38.0</ele><time>2026-04-19T06:46:43Z</time></trkpt><trkpt lat="45.09453273030888" lon="9.990743270310483"><ele>37.333333333333336</ele><time>2026-04-19T06:46:43.999Z</time></trkpt><trkpt lat="45.094451959754096" lon="9.99074983901231"><ele>36.666666666666664</ele><time>2026-04-19T06:46:44.999Z</time></trkpt><trkpt lat="45.09437115127592" lon="9.990765691575358"><ele>36.0</ele><time>2026-04-19T06:46:45.999Z</time></trkpt><trkpt lat="45.094295215189604" lon="9.990793641778431"><ele>36.0</ele><time>2026-04-19T06:46:46.999Z</time></trkpt><trkpt lat="45.09421859716091" lon="9.990832128701912"><ele>36.0</ele><time>2026-04-19T06:46:47.999Z</time></trkpt><trkpt lat="45.094144343157" lon="9.99087742135735"><ele>36.0</ele><time>2026-04-19T06:46:48.999Z</time></trkpt><trkpt lat="45.09407282510361" lon="9.990931194484245"><ele>36.0</ele><time>2026-04-19T06:46:49.999Z</time></trkpt><trkpt lat="45.094001797587346" lon="9.990988421849158"><ele>36.0</ele><time>2026-04-19T06:46:50.999Z</time></trkpt><trkpt lat="45.09393369890573" lon="9.991050407743147"><ele>36.0</ele><time>2026-04-19T06:46:51.999Z</time></trkpt><trkpt lat="45.09386552134607" lon="9.991115315241975"><ele>36.333333333333336</ele><time>2026-04-19T06:46:52.999Z</time></trkpt><trkpt lat="45.09379975793259" lon="9.991183710667158"><ele>36.666666666666664</ele><time>2026-04-19T06:46:53.999Z</time></trkpt><trkpt lat="45.093733360642666" lon="9.99124669162177"><ele>37.0</ele><time>2026-04-19T06:46:54.999Z</time></trkpt><trkpt lat="45.09366723063193" lon="9.991310136521575"><ele>37.33333333333333</ele><time>2026-04-19T06:46:55.999Z</time></trkpt><trkpt lat="45.09359793049767" lon="9.991368155574872"><ele>37.666666666666664</ele><time>2026-04-19T06:46:56.999Z</time></trkpt><trkpt lat="45.09352756940801" lon="9.991423489342832"><ele>38.0</ele><time>2026-04-19T06:46:57.999Z</time></trkpt><trkpt lat="45.09345969138249" lon="9.991482409845368"><ele>38.0</ele><time>2026-04-19T06:46:58.999Z</time></trkpt><trkpt lat="45.09339164368159" lon="9.991541217597193"><ele>38.0</ele><time>2026-04-19T06:46:59.999Z</time></trkpt><trkpt lat="45.09331956673776" lon="9.991598186195699"><ele>38.0</ele><time>2026-04-19T06:47:00.999Z</time></trkpt><trkpt lat="45.09324957356365" lon="9.991650809753876"><ele>38.0</ele><time>2026-04-19T06:47:01.999Z</time></trkpt><trkpt lat="45.093174938184035" lon="9.991700223371838"><ele>38.0</ele><time>2026-04-19T06:47:02.999Z</time></trkpt><trkpt lat="45.09309980268242" lon="9.991743736363865"><ele>38.0</ele><time>2026-04-19T06:47:03.999Z</time></trkpt><trkpt lat="45.093023875769504" lon="9.991781919085405"><ele>37.83333333333333</ele><time>2026-04-19T06:47:04.999Z</time></trkpt><trkpt lat="45.09294777308857" lon="9.991816027983"><ele>37.666666666666664</ele><time>2026-04-19T06:47:05.999Z</time></trkpt><trkpt lat="45.09286938272236" lon="9.99184645965756"><ele>37.5</ele><time>2026-04-19T06:47:06.999Z</time></trkpt><trkpt lat="45.09279122319393" lon="9.991876238066162"><ele>37.333333333333336</ele><time>2026-04-19T06:47:07.999Z</time></trkpt><trkpt lat="45.092713565219746" lon="9.991899696939312"><ele>37.16666666666667</ele><time>2026-04-19T06:47:08.999Z</time></trkpt><trkpt lat="45.09263370031044" lon="9.991918018770575"><ele>37.0</ele><time>2026-04-19T06:47:09.999Z</time></trkpt><trkpt lat="45.09255314510561" lon="9.99193143079851"><ele>37.0</ele><time>2026-04-19T06:47:10.999Z</time></trkpt><trkpt lat="45.09247672711699" lon="9.991944902172532"><ele>37.0</ele><time>2026-04-19T06:47:11.999Z</time></trkpt><trkpt lat="45.09239302049242" lon="9.99195197028398"><ele>37.0</ele><time>2026-04-19T06:47:12.999Z</time></trkpt><trkpt lat="45.092314216983716" lon="9.991954372596524"><ele>37.0</ele><time>2026-04-19T06:47:13.999Z</time></trkpt><trkpt lat="45.09223622565625" lon="9.991954636952435"><ele>37.0</ele><time>2026-04-19T06:47:14.999Z</time></trkpt><trkpt lat="45.09215636889522" lon="9.991950737031162"><ele>37.0</ele><time>2026-04-19T06:47:15.999Z</time></trkpt><trkpt lat="45.0920787380981" lon="9.99194141281322"><ele>37.16666666666667</ele><time>2026-04-19T06:47:16.999Z</time></trkpt><trkpt lat="45.09200194052248" lon="9.991929028214967"><ele>37.333333333333336</ele><time>2026-04-19T06:47:17.999Z</time></trkpt><trkpt lat="45.091923596518555" lon="9.991909781431922"><ele>37.5</ele><time>2026-04-19T06:47:18.999Z</time></trkpt><trkpt lat="45.09184700369687" lon="9.99189076458466"><ele>37.666666666666664</ele><time>2026-04-19T06:47:19.999Z</time></trkpt><trkpt lat="45.09176905817597" lon="9.991870152421006"><ele>37.83333333333333</ele><time>2026-04-19T06:47:20.999Z</time></trkpt><trkpt lat="45.09169131123402" lon="9.991849775078116"><ele>38.0</ele><time>2026-04-19T06:47:21.999Z</time></trkpt><trkpt lat="45.09161324711744" lon="9.991830267924362"><ele>37.83333333333333</ele><time>2026-04-19T06:47:22.999Z</time></trkpt><trkpt lat="45.09153665155676" lon="9.991808696613054"><ele>37.666666666666664</ele><time>2026-04-19T06:47:23.999Z</time></trkpt><trkpt lat="45.0914549359776" lon="9.99178708720586"><ele>37.5</ele><time>2026-04-19T06:47:24.999Z</time></trkpt><trkpt lat="45.091377150535465" lon="9.99177100072641"><ele>37.333333333333336</ele><time>2026-04-19T06:47:25.999Z</time></trkpt><trkpt lat="45.091297317113614" lon="9.991748875962939"><ele>37.16666666666667</ele><time>2026-04-19T06:47:26.999Z</time></trkpt><trkpt lat="45.091220051697505" lon="9.991735023028292"><ele>37.0</ele><time>2026-04-19T06:47:27.999Z</time></trkpt><trkpt lat="45.09113891897099" lon="9.991715814015551"><ele>37.0</ele><time>2026-04-19T06:47:28.999Z</time></trkpt><trkpt lat="45.091061180408275" lon="9.991697862624065"><ele>37.0</ele><time>2026-04-19T06:47:29.999Z</time></trkpt><trkpt lat="45.09098231345626" lon="9.99168271935124"><ele>37.0</ele><time>2026-04-19T06:47:30.999Z</time></trkpt><trkpt lat="45.09090413822842" lon="9.991667501894248"><ele>37.0</ele><time>2026-04-19T06:47:31.999Z</time></trkpt><trkpt lat="45.09082436086562" lon="9.991651161054367"><ele>37.0</ele><time>2026-04-19T06:47:32.999Z</time></trkpt><trkpt lat="45.09074555026941" lon="9.99163586488121"><ele>37.0</ele><time>2026-04-19T06:47:33.999Z</time></trkpt><trkpt lat="45.090669081362655" lon="9.99161567241561"><ele>37.333333333333336</ele><time>2026-04-19T06:47:34.999Z</time></trkpt><trkpt lat="45.09058563575722" lon="9.991602565366414"><ele>37.66666666666667</ele><time>2026-04-19T06:47:35.999Z</time></trkpt><trkpt lat="45.09050939696321" lon="9.991581800614117"><ele>38.0</ele><time>2026-04-19T06:47:36.998Z</time></trkpt><trkpt lat="45.090429681888615" lon="9.991559366051952"><ele>38.333333333333336</ele><time>2026-04-19T06:47:37.998Z</time></trkpt><trkpt lat="45.09035492457885" lon="9.99153700081937"><ele>38.666666666666664</ele><time>2026-04-19T06:47:38.998Z</time></trkpt><trkpt lat="45.09027909001618" lon="9.991492748834888"><ele>39.0</ele><time>2026-04-19T06:47:39.998Z</time></trkpt><trkpt lat="45.09020177987748" lon="9.991459178936063"><ele>39.0</ele><time>2026-04-19T06:47:40.998Z</time></trkpt><trkpt lat="45.09012113652838" lon="9.99145077616246"><ele>39.0</ele><time>2026-04-19T06:47:41.998Z</time></trkpt><trkpt lat="45.090038778757894" lon="9.991448821681127"><ele>39.0</ele><time>2026-04-19T06:47:42.998Z</time></trkpt><trkpt lat="45.08995680441606" lon="9.991451476157737"><ele>39.0</ele><time>2026-04-19T06:47:43.998Z</time></trkpt><trkpt lat="45.089878120021424" lon="9.991442964281077"><ele>39.0</ele><time>2026-04-19T06:47:44.998Z</time></trkpt><trkpt lat="45.08979804033983" lon="9.991421031923702"><ele>39.0</ele><time>2026-04-19T06:47:45.998Z</time></trkpt><trkpt lat="45.08971729720755" lon="9.991402545799522"><ele>38.833333333333336</ele><time>2026-04-19T06:47:46.998Z</time></trkpt><trkpt lat="45.08963993065948" lon="9.991380509682205"><ele>38.666666666666664</ele><time>2026-04-19T06:47:47.998Z</time></trkpt><trkpt lat="45.08956056114126" lon="9.991354642440026"><ele>38.5</ele><time>2026-04-19T06:47:48.998Z</time></trkpt><trkpt lat="45.08948200795939" lon="9.991329744152736"><ele>38.33333333333333</ele><time>2026-04-19T06:47:49.998Z</time></trkpt><trkpt lat="45.08940263452051" lon="9.991302620595457"><ele>38.166666666666664</ele><time>2026-04-19T06:47:50.998Z</time></trkpt><trkpt lat="45.08932403182761" lon="9.991278477958305"><ele>38.0</ele><time>2026-04-19T06:47:51.998Z</time></trkpt><trkpt lat="45.08924399124403" lon="9.991252627330757"><ele>38.0</ele><time>2026-04-19T06:47:52.998Z</time></trkpt><trkpt lat="45.08916433728319" lon="9.991227207903501"><ele>38.0</ele><time>2026-04-19T06:47:53.998Z</time></trkpt><trkpt lat="45.08908568261557" lon="9.991196904159347"><ele>38.0</ele><time>2026-04-19T06:47:54.998Z</time></trkpt><trkpt lat="45.089009217327515" lon="9.991165631924655"><ele>38.0</ele><time>2026-04-19T06:47:55.998Z</time></trkpt><trkpt lat="45.088930616547316" lon="9.991131445965397"><ele>38.0</ele><time>2026-04-19T06:47:56.998Z</time></trkpt><trkpt lat="45.088852186427715" lon="9.991087353023437"><ele>38.0</ele><time>2026-04-19T06:47:57.998Z</time></trkpt><trkpt lat="45.08877420606552" lon="9.991040428604567"><ele>38.0</ele><time>2026-04-19T06:47:58.998Z</time></trkpt><trkpt lat="45.088699864134824" lon="9.990988684480763"><ele>38.0</ele><time>2026-04-19T06:47:59.998Z</time></trkpt><trkpt lat="45.088628050062674" lon="9.990932219482643"><ele>38.0</ele><time>2026-04-19T06:48:00.998Z</time></trkpt><trkpt lat="45.088556530211974" lon="9.990867860454067"><ele>38.0</ele><time>2026-04-19T06:48:01.998Z</time></trkpt><trkpt lat="45.08848770500875" lon="9.990795998097834"><ele>38.0</ele><time>2026-04-19T06:48:02.998Z</time></trkpt><trkpt lat="45.088421375298175" lon="9.990719041707251"><ele>38.0</ele><time>2026-04-19T06:48:03.998Z</time></trkpt><trkpt lat="45.08835127392747" lon="9.990635387352082"><ele>37.83333333333333</ele><time>2026-04-19T06:48:04.998Z</time></trkpt><trkpt lat="45.08828951357874" lon="9.99055416285441"><ele>37.666666666666664</ele><time>2026-04-19T06:48:05.998Z</time></trkpt><trkpt lat="45.08821825682196" lon="9.990470547290016"><ele>37.5</ele><time>2026-04-19T06:48:06.998Z</time></trkpt><trkpt lat="45.08815021965252" lon="9.990386890478973"><ele>37.333333333333336</ele><time>2026-04-19T06:48:07.998Z</time></trkpt><trkpt lat="45.08808336245693" lon="9.990306669557997"><ele>37.16666666666667</ele><time>2026-04-19T06:48:08.998Z</time></trkpt><trkpt lat="45.08801488783697" lon="9.99022043149746"><ele>37.0</ele><time>2026-04-19T06:48:09.998Z</time></trkpt><trkpt lat="45.08794439948053" lon="9.990137773781782"><ele>36.833333333333336</ele><time>2026-04-19T06:48:10.998Z</time></trkpt><trkpt lat="45.0878773977493" lon="9.990056689495372"><ele>36.66666666666667</ele><time>2026-04-19T06:48:11.998Z</time></trkpt><trkpt lat="45.08780920813982" lon="9.989974791028828"><ele>36.5</ele><time>2026-04-19T06:48:12.998Z</time></trkpt><trkpt lat="45.087743175813756" lon="9.989896056224513"><ele>36.333333333333336</ele><time>2026-04-19T06:48:13.998Z</time></trkpt><trkpt lat="45.08767372495616" lon="9.989816275250536"><ele>36.166666666666664</ele><time>2026-04-19T06:48:14.998Z</time></trkpt><trkpt lat="45.08761160546267" lon="9.9897345130616"><ele>36.0</ele><time>2026-04-19T06:48:15.998Z</time></trkpt><trkpt lat="45.08754650525779" lon="9.989654261106768"><ele>36.0</ele><time>2026-04-19T06:48:16.998Z</time></trkpt><trkpt lat="45.087482085842716" lon="9.989574403330069"><ele>36.0</ele><time>2026-04-19T06:48:17.998Z</time></trkpt><trkpt lat="45.08741676857446" lon="9.989497567529607"><ele>36.0</ele><time>2026-04-19T06:48:18.998Z</time></trkpt><trkpt lat="45.08735466232003" lon="9.989420313136904"><ele>36.0</ele><time>2026-04-19T06:48:19.998Z</time></trkpt><trkpt lat="45.087290271616446" lon="9.989342254186404"><ele>36.0</ele><time>2026-04-19T06:48:20.998Z</time></trkpt><trkpt lat="45.08722909106797" lon="9.989263016195181"><ele>36.0</ele><time>2026-04-19T06:48:21.998Z</time></trkpt><trkpt lat="45.08716561383144" lon="9.989186975415903"><ele>36.0</ele><time>2026-04-19T06:48:22.998Z</time></trkpt><trkpt lat="45.08710131909688" lon="9.9891107058869"><ele>36.0</ele><time>2026-04-19T06:48:23.998Z</time></trkpt><trkpt lat="45.08703844476092" lon="9.989033819249938"><ele>36.0</ele><time>2026-04-19T06:48:24.998Z</time></trkpt><trkpt lat="45.08697269688082" lon="9.988958460107899"><ele>36.0</ele><time>2026-04-19T06:48:25.998Z</time></trkpt><trkpt lat="45.08690870213771" lon="9.9888809556642"><ele>36.0</ele><time>2026-04-19T06:48:26.998Z</time></trkpt><trkpt lat="45.08684627011644" lon="9.988802668556183"><ele>36.0</ele><time>2026-04-19T06:48:27.998Z</time></trkpt><trkpt lat="45.08678202382577" lon="9.988727124168301"><ele>36.0</ele><time>2026-04-19T06:48:29Z</time></trkpt><trkpt lat="45.08671773365135" lon="9.98865098998402"><ele>36.0</ele><time>2026-04-19T06:48:30Z</time></trkpt><trkpt lat="45.08665634633035" lon="9.9885722845751"><ele>36.0</ele><time>2026-04-19T06:48:31Z</time></trkpt><trkpt lat="45.086591964244874" lon="9.988498009829478"><ele>36.0</ele><time>2026-04-19T06:48:32Z</time></trkpt><trkpt lat="45.08652846095206" lon="9.988420987896923"><ele>36.0</ele><time>2026-04-19T06:48:33Z</time></trkpt><trkpt lat="45.08646586481687" lon="9.988342924778996"><ele>36.0</ele><time>2026-04-19T06:48:34Z</time></trkpt><trkpt lat="45.086401307019806" lon="9.98826670740412"><ele>35.833333333333336</ele><time>2026-04-19T06:48:35Z</time></trkpt><trkpt lat="45.08633760406672" lon="9.988189445583144"><ele>35.666666666666664</ele><time>2026-04-19T06:48:36Z</time></trkpt><trkpt lat="45.08627378800574" lon="9.988113219145497"><ele>35.5</ele><time>2026-04-19T06:48:37Z</time></trkpt><trkpt lat="45.086211310417404" lon="9.98803763192836"><ele>35.33333333333333</ele><time>2026-04-19T06:48:38Z</time></trkpt><trkpt lat="45.08614857609273" lon="9.987959438906419"><ele>35.166666666666664</ele><time>2026-04-19T06:48:39Z</time></trkpt><trkpt lat="45.08608551489635" lon="9.98788163846818"><ele>35.0</ele><time>2026-04-19T06:48:40Z</time></trkpt><trkpt lat="45.086022923227844" lon="9.987804082615249"><ele>35.0</ele><time>2026-04-19T06:48:41Z</time></trkpt><trkpt lat="45.085959739176396" lon="9.987728728087394"><ele>35.0</ele><time>2026-04-19T06:48:42Z</time></trkpt><trkpt lat="45.08589648424977" lon="9.987650590732176"><ele>35.0</ele><time>2026-04-19T06:48:43Z</time></trkpt><trkpt lat="45.08583256824496" lon="9.987576975679733"><ele>35.0</ele><time>2026-04-19T06:48:44Z</time></trkpt><trkpt lat="45.085769503435266" lon="9.987498666930035"><ele>35.0</ele><time>2026-04-19T06:48:45Z</time></trkpt><trkpt lat="45.085706362589036" lon="9.98742147496833"><ele>35.0</ele><time>2026-04-19T06:48:46Z</time></trkpt><trkpt lat="45.08564356250806" lon="9.987344728551843"><ele>35.0</ele><time>2026-04-19T06:48:46.999Z</time></trkpt><trkpt lat="45.08558074346581" lon="9.987268048660601"><ele>35.0</ele><time>2026-04-19T06:48:47.999Z</time></trkpt><trkpt lat="45.08551764655403" lon="9.987191990702936"><ele>35.0</ele><time>2026-04-19T06:48:48.999Z</time></trkpt><trkpt lat="45.08545568136081" lon="9.987117459893964"><ele>35.0</ele><time>2026-04-19T06:48:49.999Z</time></trkpt><trkpt lat="45.08539240232322" lon="9.987041227762347"><ele>35.0</ele><time>2026-04-19T06:48:50.999Z</time></trkpt><trkpt lat="45.085331264634874" lon="9.986967521092701"><ele>35.0</ele><time>2026-04-19T06:48:51.999Z</time></trkpt><trkpt lat="45.085267313927645" lon="9.98689564372719"><ele>35.0</ele><time>2026-04-19T06:48:52.999Z</time></trkpt><trkpt lat="45.085200128907054" lon="9.986824072593418"><ele>35.0</ele><time>2026-04-19T06:48:53.999Z</time></trkpt><trkpt lat="45.08513007238018" lon="9.986760975333928"><ele>35.0</ele><time>2026-04-19T06:48:54.999Z</time></trkpt><trkpt lat="45.085058526270565" lon="9.986703827676713"><ele>35.0</ele><time>2026-04-19T06:48:55.999Z</time></trkpt><trkpt lat="45.0849850821821" lon="9.98664987963123"><ele>35.0</ele><time>2026-04-19T06:48:56.999Z</time></trkpt><trkpt lat="45.08490866363555" lon="9.986601050243097"><ele>35.0</ele><time>2026-04-19T06:48:57.999Z</time></trkpt><trkpt lat="45.08483205387909" lon="9.986559446520083"><ele>35.0</ele><time>2026-04-19T06:48:58.999Z</time></trkpt><trkpt lat="45.08475351655874" lon="9.986523560892628"><ele>35.0</ele><time>2026-04-19T06:48:59.999Z</time></trkpt><trkpt lat="45.08467140167702" lon="9.98649464611226"><ele>35.0</ele><time>2026-04-19T06:49:00.999Z</time></trkpt><trkpt lat="45.08459130752153" lon="9.986472368485853"><ele>35.0</ele><time>2026-04-19T06:49:01.999Z</time></trkpt><trkpt lat="45.08450895288412" lon="9.986455412696186"><ele>35.0</ele><time>2026-04-19T06:49:02.999Z</time></trkpt><trkpt lat="45.084425063236694" lon="9.986446705560098"><ele>35.0</ele><time>2026-04-19T06:49:03.999Z</time></trkpt><trkpt lat="45.08434197678821" lon="9.986447212826372"><ele>35.0</ele><time>2026-04-19T06:49:04.999Z</time></trkpt><trkpt lat="45.08425978464111" lon="9.986453510130495"><ele>35.0</ele><time>2026-04-19T06:49:05.999Z</time></trkpt><trkpt lat="45.084178417705566" lon="9.986466275057849"><ele>35.0</ele><time>2026-04-19T06:49:06.999Z</time></trkpt><trkpt lat="45.08409625567162" lon="9.986484830959169"><ele>35.0</ele><time>2026-04-19T06:49:07.999Z</time></trkpt><trkpt lat="45.08401454266731" lon="9.986509312997088"><ele>35.0</ele><time>2026-04-19T06:49:08.999Z</time></trkpt><trkpt lat="45.08393389242803" lon="9.986540072109994"><ele>35.0</ele><time>2026-04-19T06:49:09.999Z</time></trkpt><trkpt lat="45.083855305339355" lon="9.986577013599458"><ele>35.33333333333333</ele><time>2026-04-19T06:49:10.999Z</time></trkpt><trkpt lat="45.083777494119516" lon="9.986618239762093"><ele>35.666666666666664</ele><time>2026-04-19T06:49:11.999Z</time></trkpt><trkpt lat="45.08370051874493" lon="9.986663518424885"><ele>36.0</ele><time>2026-04-19T06:49:12.999Z</time></trkpt><trkpt lat="45.0836226911527" lon="9.986709015766754"><ele>36.333333333333336</ele><time>2026-04-19T06:49:13.999Z</time></trkpt><trkpt lat="45.08354395563989" lon="9.986755834942947"><ele>36.66666666666667</ele><time>2026-04-19T06:49:14.999Z</time></trkpt><trkpt lat="45.083466727395425" lon="9.986812513463665"><ele>37.0</ele><time>2026-04-19T06:49:15.999Z</time></trkpt><trkpt lat="45.08339024628789" lon="9.98686684613273"><ele>37.0</ele><time>2026-04-19T06:49:16.999Z</time></trkpt><trkpt lat="45.08331402183039" lon="9.986919511953229"><ele>37.0</ele><time>2026-04-19T06:49:17.999Z</time></trkpt><trkpt lat="45.08324159248039" lon="9.986968917633824"><ele>37.0</ele><time>2026-04-19T06:49:18.999Z</time></trkpt><trkpt lat="45.083173114197194" lon="9.987030600077016"><ele>37.0</ele><time>2026-04-19T06:49:19.999Z</time></trkpt><trkpt lat="45.08309887923271" lon="9.987085919735387"><ele>37.0</ele><time>2026-04-19T06:49:20.999Z</time></trkpt><trkpt lat="45.083024839640316" lon="9.987130266390798"><ele>37.0</ele><time>2026-04-19T06:49:21.999Z</time></trkpt><trkpt lat="45.08294765567545" lon="9.987169145708423"><ele>36.66666666666667</ele><time>2026-04-19T06:49:22.999Z</time></trkpt><trkpt lat="45.08287225075668" lon="9.987206157671128"><ele>36.333333333333336</ele><time>2026-04-19T06:49:23.999Z</time></trkpt><trkpt lat="45.08279632434809" lon="9.987238631039176"><ele>36.0</ele><time>2026-04-19T06:49:24.999Z</time></trkpt><trkpt lat="45.0827194783629" lon="9.987269555450052"><ele>35.666666666666664</ele><time>2026-04-19T06:49:25.999Z</time></trkpt><trkpt lat="45.082643518724154" lon="9.98730360902605"><ele>35.33333333333333</ele><time>2026-04-19T06:49:26.999Z</time></trkpt><trkpt lat="45.08256629033194" lon="9.987334107705703"><ele>35.0</ele><time>2026-04-19T06:49:27.999Z</time></trkpt><trkpt lat="45.082489765744505" lon="9.987367612371273"><ele>35.33333333333333</ele><time>2026-04-19T06:49:28.999Z</time></trkpt><trkpt lat="45.08241321037786" lon="9.987399687459776"><ele>35.666666666666664</ele><time>2026-04-19T06:49:29.999Z</time></trkpt><trkpt lat="45.08233396349307" lon="9.987429879394734"><ele>36.0</ele><time>2026-04-19T06:49:30.999Z</time></trkpt><trkpt lat="45.08225622060384" lon="9.98746357289635"><ele>36.333333333333336</ele><time>2026-04-19T06:49:31.999Z</time></trkpt><trkpt lat="45.08217861046617" lon="9.98749505282532"><ele>36.66666666666667</ele><time>2026-04-19T06:49:32.999Z</time></trkpt><trkpt lat="45.08210149107572" lon="9.987527963558092"><ele>37.0</ele><time>2026-04-19T06:49:33.999Z</time></trkpt><trkpt lat="45.082024577184185" lon="9.987561046813823"><ele>37.0</ele><time>2026-04-19T06:49:34.999Z</time></trkpt><trkpt lat="45.08194703495879" lon="9.987590856427492"><ele>37.0</ele><time>2026-04-19T06:49:35.999Z</time></trkpt><trkpt lat="45.081870520470304" lon="9.987623960542665"><ele>37.0</ele><time>2026-04-19T06:49:36.999Z</time></trkpt><trkpt lat="45.08179378027892" lon="9.987656518352367"><ele>37.0</ele><time>2026-04-19T06:49:37.999Z</time></trkpt><trkpt lat="45.08171430154506" lon="9.987689921289235"><ele>37.0</ele><time>2026-04-19T06:49:38.999Z</time></trkpt><trkpt lat="45.08163691890712" lon="9.987722275600163"><ele>37.0</ele><time>2026-04-19T06:49:39.999Z</time></trkpt><trkpt lat="45.08155798338751" lon="9.987753152056348"><ele>36.833333333333336</ele><time>2026-04-19T06:49:40.998Z</time></trkpt><trkpt lat="45.08148045256238" lon="9.987784134582059"><ele>36.66666666666667</ele><time>2026-04-19T06:49:41.998Z</time></trkpt><trkpt lat="45.08140255418048" lon="9.987818741503759"><ele>36.5</ele><time>2026-04-19T06:49:42.998Z</time></trkpt><trkpt lat="45.081324069196704" lon="9.987854992272114"><ele>36.333333333333336</ele><time>2026-04-19T06:49:43.998Z</time></trkpt><trkpt lat="45.08125049049024" lon="9.98790427412865"><ele>36.166666666666664</ele><time>2026-04-19T06:49:44.998Z</time></trkpt><trkpt lat="45.081175643963896" lon="9.987954925442272"><ele>36.0</ele><time>2026-04-19T06:49:45.998Z</time></trkpt><trkpt lat="45.08110091263275" lon="9.988001203549096"><ele>36.0</ele><time>2026-04-19T06:49:46.998Z</time></trkpt><trkpt lat="45.08102049471324" lon="9.988034810379938"><ele>36.0</ele><time>2026-04-19T06:49:47.998Z</time></trkpt><trkpt lat="45.08094027724106" lon="9.98806233685188"><ele>36.0</ele><time>2026-04-19T06:49:48.998Z</time></trkpt><trkpt lat="45.08085764671976" lon="9.988089478671315"><ele>36.0</ele><time>2026-04-19T06:49:49.998Z</time></trkpt><trkpt lat="45.080778939533275" lon="9.988126701908051"><ele>36.0</ele><time>2026-04-19T06:49:50.998Z</time></trkpt><trkpt lat="45.08069547935507" lon="9.988158881991163"><ele>36.0</ele><time>2026-04-19T06:49:51.998Z</time></trkpt><trkpt lat="45.08061266887651" lon="9.988174095183298"><ele>36.0</ele><time>2026-04-19T06:49:52.998Z</time></trkpt><trkpt lat="45.08052588102046" lon="9.988184840155915"><ele>36.0</ele><time>2026-04-19T06:49:53.998Z</time></trkpt><trkpt lat="45.08044242043878" lon="9.988206815820208"><ele>36.0</ele><time>2026-04-19T06:49:54.998Z</time></trkpt><trkpt lat="45.080354626356" lon="9.988238233425351"><ele>36.0</ele><time>2026-04-19T06:49:55.998Z</time></trkpt><trkpt lat="45.080274847503055" lon="9.988274232696122"><ele>36.0</ele><time>2026-04-19T06:49:56.998Z</time></trkpt><trkpt lat="45.08019287865403" lon="9.98830873391261"><ele>36.0</ele><time>2026-04-19T06:49:57.998Z</time></trkpt><trkpt lat="45.08010980413262" lon="9.988349164439247"><ele>36.0</ele><time>2026-04-19T06:49:58.998Z</time></trkpt><trkpt lat="45.08002780716765" lon="9.98838379411701"><ele>36.0</ele><time>2026-04-19T06:49:59.998Z</time></trkpt><trkpt lat="45.07994538677887" lon="9.988421803290372"><ele>36.0</ele><time>2026-04-19T06:50:00.998Z</time></trkpt><trkpt lat="45.07986406684402" lon="9.988452204264563"><ele>36.0</ele><time>2026-04-19T06:50:01.998Z</time></trkpt><trkpt lat="45.07977977846553" lon="9.988487367175956"><ele>36.0</ele><time>2026-04-19T06:50:02.998Z</time></trkpt><trkpt lat="45.07969736288968" lon="9.98852343985427"><ele>36.0</ele><time>2026-04-19T06:50:03.998Z</time></trkpt><trkpt lat="45.07961785432728" lon="9.988554140582291"><ele>36.333333333333336</ele><time>2026-04-19T06:50:04.998Z</time></trkpt><trkpt lat="45.07953304054993" lon="9.988588318864284"><ele>36.666666666666664</ele><time>2026-04-19T06:50:05.998Z</time></trkpt><trkpt lat="45.0794516402707" lon="9.988618792738997"><ele>37.0</ele><time>2026-04-19T06:50:06.998Z</time></trkpt><trkpt lat="45.07937032970094" lon="9.988650534610226"><ele>37.33333333333333</ele><time>2026-04-19T06:50:07.998Z</time></trkpt><trkpt lat="45.07928891956963" lon="9.988681152421465"><ele>37.666666666666664</ele><time>2026-04-19T06:50:08.998Z</time></trkpt><trkpt lat="45.07920577321895" lon="9.988711592184096"><ele>38.0</ele><time>2026-04-19T06:50:09.998Z</time></trkpt><trkpt lat="45.07912078827809" lon="9.988735732661265"><ele>37.83333333333333</ele><time>2026-04-19T06:50:10.998Z</time></trkpt><trkpt lat="45.079037727914034" lon="9.98875758762647"><ele>37.666666666666664</ele><time>2026-04-19T06:50:11.998Z</time></trkpt><trkpt lat="45.078953453773444" lon="9.988776635472043"><ele>37.5</ele><time>2026-04-19T06:50:12.998Z</time></trkpt><trkpt lat="45.078869558790004" lon="9.988795486310611"><ele>37.333333333333336</ele><time>2026-04-19T06:50:13.998Z</time></trkpt><trkpt lat="45.078788538349585" lon="9.98881225815521"><ele>37.16666666666667</ele><time>2026-04-19T06:50:14.998Z</time></trkpt><trkpt lat="45.07870527848642" lon="9.988826745123482"><ele>37.0</ele><time>2026-04-19T06:50:15.998Z</time></trkpt><trkpt lat="45.07862271969042" lon="9.988844653411785"><ele>37.0</ele><time>2026-04-19T06:50:16.998Z</time></trkpt><trkpt lat="45.0785435261529" lon="9.988861632692892"><ele>37.0</ele><time>2026-04-19T06:50:17.998Z</time></trkpt><trkpt lat="45.07846310230674" lon="9.9888784425991"><ele>37.0</ele><time>2026-04-19T06:50:18.998Z</time></trkpt><trkpt lat="45.07838393276156" lon="9.98889591180584"><ele>37.0</ele><time>2026-04-19T06:50:19.998Z</time></trkpt><trkpt lat="45.07830363133828" lon="9.98891133200133"><ele>37.0</ele><time>2026-04-19T06:50:20.998Z</time></trkpt><trkpt lat="45.07822096884652" lon="9.988919586491145"><ele>37.0</ele><time>2026-04-19T06:50:21.998Z</time></trkpt><trkpt lat="45.07814309802068" lon="9.988923678120807"><ele>36.833333333333336</ele><time>2026-04-19T06:50:22.998Z</time></trkpt><trkpt lat="45.07806044431713" lon="9.988921157142451"><ele>36.66666666666667</ele><time>2026-04-19T06:50:23.998Z</time></trkpt><trkpt lat="45.07797820395109" lon="9.988918692406804"><ele>36.5</ele><time>2026-04-19T06:50:24.998Z</time></trkpt><trkpt lat="45.07789623390557" lon="9.988918091338654"><ele>36.333333333333336</ele><time>2026-04-19T06:50:25.998Z</time></trkpt><trkpt lat="45.07781624656398" lon="9.988921516844217"><ele>36.166666666666664</ele><time>2026-04-19T06:50:26.998Z</time></trkpt><trkpt lat="45.07773564470958" lon="9.98892261976777"><ele>36.0</ele><time>2026-04-19T06:50:27.998Z</time></trkpt><trkpt lat="45.07765422703939" lon="9.98892299785859"><ele>36.0</ele><time>2026-04-19T06:50:28.998Z</time></trkpt><trkpt lat="45.077574821560475" lon="9.988923176275692"><ele>36.0</ele><time>2026-04-19T06:50:29.998Z</time></trkpt><trkpt lat="45.0774945260187" lon="9.988923814468796"><ele>36.0</ele><time>2026-04-19T06:50:30.998Z</time></trkpt><trkpt lat="45.07741264143753" lon="9.988922167143443"><ele>36.0</ele><time>2026-04-19T06:50:31.998Z</time></trkpt><trkpt lat="45.07733066529639" lon="9.988925235669617"><ele>36.0</ele><time>2026-04-19T06:50:32.998Z</time></trkpt><trkpt lat="45.07724960301057" lon="9.988928871531282"><ele>36.0</ele><time>2026-04-19T06:50:33.998Z</time></trkpt><trkpt lat="45.07717018695777" lon="9.988929974371423"><ele>36.0</ele><time>2026-04-19T06:50:35Z</time></trkpt><trkpt lat="45.07708915314232" lon="9.98892816724567"><ele>36.0</ele><time>2026-04-19T06:50:36Z</time></trkpt><trkpt lat="45.07700908381024" lon="9.988930801863907"><ele>36.0</ele><time>2026-04-19T06:50:37Z</time></trkpt><trkpt lat="45.076930175604446" lon="9.988930324876238"><ele>36.0</ele><time>2026-04-19T06:50:38Z</time></trkpt><trkpt lat="45.07685151876542" lon="9.988937986829571"><ele>36.0</ele><time>2026-04-19T06:50:39Z</time></trkpt><trkpt lat="45.07677359175849" lon="9.988973594279521"><ele>36.0</ele><time>2026-04-19T06:50:40Z</time></trkpt><trkpt lat="45.07671084470005" lon="9.98904889123499"><ele>36.0</ele><time>2026-04-19T06:50:41Z</time></trkpt><trkpt lat="45.07667337470989" lon="9.989155625783635"><ele>36.0</ele><time>2026-04-19T06:50:42Z</time></trkpt><trkpt lat="45.076659610494154" lon="9.989272381718639"><ele>36.0</ele><time>2026-04-19T06:50:43Z</time></trkpt><trkpt lat="45.07665470709561" lon="9.989392790187583"><ele>36.0</ele><time>2026-04-19T06:50:44Z</time></trkpt><trkpt lat="45.07664863718112" lon="9.98951006632252"><ele>36.0</ele><time>2026-04-19T06:50:45Z</time></trkpt><trkpt lat="45.0766388781882" lon="9.989624892936979"><ele>36.0</ele><time>2026-04-19T06:50:46Z</time></trkpt><trkpt lat="45.07663487027264" lon="9.989743826026395"><ele>36.166666666666664</ele><time>2026-04-19T06:50:47Z</time></trkpt><trkpt lat="45.07662439470895" lon="9.989859158472862"><ele>36.333333333333336</ele><time>2026-04-19T06:50:48Z</time></trkpt><trkpt lat="45.07661660151413" lon="9.98997606653535"><ele>36.5</ele><time>2026-04-19T06:50:49Z</time></trkpt><trkpt lat="45.0766068584182" lon="9.990090782846584"><ele>36.66666666666667</ele><time>2026-04-19T06:50:50Z</time></trkpt><trkpt lat="45.076596138695365" lon="9.990206108422123"><ele>36.833333333333336</ele><time>2026-04-19T06:50:50.999Z</time></trkpt><trkpt lat="45.07658204342817" lon="9.990321471165112"><ele>37.0</ele><time>2026-04-19T06:50:51.999Z</time></trkpt><trkpt lat="45.07656525527991" lon="9.990434966860265"><ele>37.16666666666667</ele><time>2026-04-19T06:50:52.999Z</time></trkpt><trkpt lat="45.07654200826442" lon="9.990546557185713"><ele>37.333333333333336</ele><time>2026-04-19T06:50:53.999Z</time></trkpt><trkpt lat="45.0765080664377" lon="9.99065241830092"><ele>37.5</ele><time>2026-04-19T06:50:54.999Z</time></trkpt><trkpt lat="45.07646573176108" lon="9.990752811499194"><ele>37.666666666666664</ele><time>2026-04-19T06:50:55.999Z</time></trkpt><trkpt lat="45.07641852927546" lon="9.990851210787147"><ele>37.83333333333333</ele><time>2026-04-19T06:50:56.999Z</time></trkpt><trkpt lat="45.076371735441924" lon="9.990948769908913"><ele>38.0</ele><time>2026-04-19T06:50:57.999Z</time></trkpt><trkpt lat="45.076328864966854" lon="9.99104932082794"><ele>38.0</ele><time>2026-04-19T06:50:58.999Z</time></trkpt><trkpt lat="45.076290976290515" lon="9.991155163099654"><ele>38.0</ele><time>2026-04-19T06:50:59.999Z</time></trkpt><trkpt lat="45.07625766655336" lon="9.99126148236212"><ele>38.0</ele><time>2026-04-19T06:51:00.999Z</time></trkpt><trkpt lat="45.07623466151247" lon="9.99137169389501"><ele>38.0</ele><time>2026-04-19T06:51:01.999Z</time></trkpt><trkpt lat="45.07621643157472" lon="9.991476272108475"><ele>38.0</ele><time>2026-04-19T06:51:02.999Z</time></trkpt><trkpt lat="45.07620092166618" lon="9.991574818544908"><ele>38.0</ele><time>2026-04-19T06:51:03.999Z</time></trkpt><trkpt lat="45.07610573305591" lon="9.991673909778417"><ele>38.0</ele><time>2026-04-19T06:51:05.999Z</time></trkpt><trkpt lat="45.07602943367603" lon="9.99168185355549"><ele>38.0</ele><time>2026-04-19T06:51:06.999Z</time></trkpt><trkpt lat="45.075952508277176" lon="9.99168982182965"><ele>38.0</ele><time>2026-04-19T06:51:07.999Z</time></trkpt><trkpt lat="45.075872756582264" lon="9.991703434848331"><ele>38.0</ele><time>2026-04-19T06:51:08.999Z</time></trkpt><trkpt lat="45.07579370167598" lon="9.991720277852426"><ele>38.0</ele><time>2026-04-19T06:51:09.999Z</time></trkpt><trkpt lat="45.075714669578225" lon="9.991732839826229"><ele>38.0</ele><time>2026-04-19T06:51:10.999Z</time></trkpt><trkpt lat="45.07563398848904" lon="9.99173142489058"><ele>38.0</ele><time>2026-04-19T06:51:11.999Z</time></trkpt><trkpt lat="45.07555338582877" lon="9.99172013492639"><ele>38.0</ele><time>2026-04-19T06:51:12.999Z</time></trkpt><trkpt lat="45.07547273509929" lon="9.991701916969681"><ele>38.0</ele><time>2026-04-19T06:51:13.999Z</time></trkpt><trkpt lat="45.07539276259077" lon="9.991680428594597"><ele>38.0</ele><time>2026-04-19T06:51:14.999Z</time></trkpt><trkpt lat="45.07531144585186" lon="9.991662314228034"><ele>38.0</ele><time>2026-04-19T06:51:15.999Z</time></trkpt><trkpt lat="45.07523101070497" lon="9.99165614323474"><ele>38.0</ele><time>2026-04-19T06:51:16.999Z</time></trkpt><trkpt lat="45.07514762563852" lon="9.991669965114433"><ele>38.0</ele><time>2026-04-19T06:51:17.999Z</time></trkpt><trkpt lat="45.075066607069544" lon="9.991711164288873"><ele>38.0</ele><time>2026-04-19T06:51:18.999Z</time></trkpt><trkpt lat="45.074989641443764" lon="9.991767476923192"><ele>38.0</ele><time>2026-04-19T06:51:19.999Z</time></trkpt><trkpt lat="45.074917744551534" lon="9.99182769806761"><ele>38.0</ele><time>2026-04-19T06:51:20.999Z</time></trkpt><trkpt lat="45.07484476193186" lon="9.991887586702127"><ele>38.0</ele><time>2026-04-19T06:51:21.999Z</time></trkpt><trkpt lat="45.07477188252693" lon="9.99194341789418"><ele>38.0</ele><time>2026-04-19T06:51:22.999Z</time></trkpt><trkpt lat="45.07469677010992" lon="9.9919982842447"><ele>38.166666666666664</ele><time>2026-04-19T06:51:23.999Z</time></trkpt><trkpt lat="45.07462486163057" lon="9.992054170747984"><ele>38.33333333333333</ele><time>2026-04-19T06:51:24.999Z</time></trkpt><trkpt lat="45.074551154749095" lon="9.992107242881408"><ele>38.5</ele><time>2026-04-19T06:51:25.999Z</time></trkpt><trkpt lat="45.07447805795813" lon="9.992161253263351"><ele>38.666666666666664</ele><time>2026-04-19T06:51:26.999Z</time></trkpt><trkpt lat="45.07440631386581" lon="9.992215714156275"><ele>38.833333333333336</ele><time>2026-04-19T06:51:27.999Z</time></trkpt><trkpt lat="45.07433374241638" lon="9.992268523226285"><ele>39.0</ele><time>2026-04-19T06:51:28.999Z</time></trkpt><trkpt lat="45.07426489840208" lon="9.992324400623778"><ele>39.0</ele><time>2026-04-19T06:51:29.999Z</time></trkpt><trkpt lat="45.074189993704884" lon="9.992374854877992"><ele>39.0</ele><time>2026-04-19T06:51:30.999Z</time></trkpt><trkpt lat="45.07412022532763" lon="9.992431298934092"><ele>39.0</ele><time>2026-04-19T06:51:31.999Z</time></trkpt><trkpt lat="45.07404467882447" lon="9.992481227929238"><ele>39.0</ele><time>2026-04-19T06:51:32.999Z</time></trkpt><trkpt lat="45.07397217510092" lon="9.992532324564715"><ele>39.0</ele><time>2026-04-19T06:51:33.999Z</time></trkpt><trkpt lat="45.07390049474588" lon="9.99258693478193"><ele>39.0</ele><time>2026-04-19T06:51:34.999Z</time></trkpt><trkpt lat="45.07382957461534" lon="9.992639307986849"><ele>38.666666666666664</ele><time>2026-04-19T06:51:35.999Z</time></trkpt><trkpt lat="45.0737589776557" lon="9.992690235075427"><ele>38.333333333333336</ele><time>2026-04-19T06:51:36.999Z</time></trkpt><trkpt lat="45.07368537146488" lon="9.992736738991592"><ele>38.0</ele><time>2026-04-19T06:51:37.999Z</time></trkpt><trkpt lat="45.07360843720096" lon="9.992774192367019"><ele>37.66666666666667</ele><time>2026-04-19T06:51:38.999Z</time></trkpt><trkpt lat="45.073530417478636" lon="9.992801930288598"><ele>37.333333333333336</ele><time>2026-04-19T06:51:39.999Z</time></trkpt><trkpt lat="45.07345075719513" lon="9.992816829827257"><ele>37.0</ele><time>2026-04-19T06:51:40.999Z</time></trkpt><trkpt lat="45.073368774726724" lon="9.992825789641046"><ele>37.0</ele><time>2026-04-19T06:51:41.999Z</time></trkpt><trkpt lat="45.073287133431435" lon="9.992832266321894"><ele>37.0</ele><time>2026-04-19T06:51:42.999Z</time></trkpt><trkpt lat="45.073205052037075" lon="9.992840583337378"><ele>37.0</ele><time>2026-04-19T06:51:43.999Z</time></trkpt><trkpt lat="45.07312259272615" lon="9.992850672353129"><ele>37.0</ele><time>2026-04-19T06:51:44.998Z</time></trkpt><trkpt lat="45.07304180956335" lon="9.992860030470109"><ele>37.0</ele><time>2026-04-19T06:51:45.998Z</time></trkpt><trkpt lat="45.07295892684415" lon="9.992866954640235"><ele>37.0</ele><time>2026-04-19T06:51:46.998Z</time></trkpt><trkpt lat="45.07287780868375" lon="9.992869722297804"><ele>36.833333333333336</ele><time>2026-04-19T06:51:47.998Z</time></trkpt><trkpt lat="45.07279729888332" lon="9.99287258893386"><ele>36.66666666666667</ele><time>2026-04-19T06:51:48.998Z</time></trkpt><trkpt lat="45.072716818254285" lon="9.992877566638208"><ele>36.5</ele><time>2026-04-19T06:51:49.998Z</time></trkpt><trkpt lat="45.07263514853608" lon="9.992887570215752"><ele>36.333333333333336</ele><time>2026-04-19T06:51:50.998Z</time></trkpt><trkpt lat="45.07255436823578" lon="9.992901086507768"><ele>36.166666666666664</ele><time>2026-04-19T06:51:51.998Z</time></trkpt><trkpt lat="45.07247823406695" lon="9.992931885795485"><ele>36.0</ele><time>2026-04-19T06:51:52.998Z</time></trkpt><trkpt lat="45.072406401055154" lon="9.992984071867712"><ele>36.166666666666664</ele><time>2026-04-19T06:51:53.998Z</time></trkpt><trkpt lat="45.07234176811377" lon="9.993048913659655"><ele>36.333333333333336</ele><time>2026-04-19T06:51:54.998Z</time></trkpt><trkpt lat="45.07228243008715" lon="9.99312308414555"><ele>36.5</ele><time>2026-04-19T06:51:55.998Z</time></trkpt><trkpt lat="45.072228349009826" lon="9.993202044525455"><ele>36.66666666666667</ele><time>2026-04-19T06:51:56.998Z</time></trkpt><trkpt lat="45.07217607996488" lon="9.99328474906804"><ele>36.833333333333336</ele><time>2026-04-19T06:51:57.998Z</time></trkpt><trkpt lat="45.072123001990796" lon="9.993362198096273"><ele>37.0</ele><time>2026-04-19T06:51:58.998Z</time></trkpt><trkpt lat="45.072060315530365" lon="9.99343020283497"><ele>37.0</ele><time>2026-04-19T06:51:59.998Z</time></trkpt><trkpt lat="45.071987365341094" lon="9.99347918888904"><ele>37.0</ele><time>2026-04-19T06:52:00.998Z</time></trkpt><trkpt lat="45.071906874673985" lon="9.99350577970176"><ele>37.0</ele><time>2026-04-19T06:52:01.998Z</time></trkpt><trkpt lat="45.07182279781377" lon="9.993504770351024"><ele>37.0</ele><time>2026-04-19T06:52:02.998Z</time></trkpt><trkpt lat="45.071740405043315" lon="9.993492491490922"><ele>37.0</ele><time>2026-04-19T06:52:03.998Z</time></trkpt><trkpt lat="45.071660823197085" lon="9.993470751903507"><ele>37.0</ele><time>2026-04-19T06:52:04.998Z</time></trkpt><trkpt lat="45.07158270384729" lon="9.993453201142897"><ele>37.16666666666667</ele><time>2026-04-19T06:52:05.998Z</time></trkpt><trkpt lat="45.07150330465319" lon="9.993436173791903"><ele>37.333333333333336</ele><time>2026-04-19T06:52:06.998Z</time></trkpt><trkpt lat="45.071423088384996" lon="9.99342293495062"><ele>37.5</ele><time>2026-04-19T06:52:07.998Z</time></trkpt><trkpt lat="45.07134144403622" lon="9.993408917083931"><ele>37.666666666666664</ele><time>2026-04-19T06:52:08.998Z</time></trkpt><trkpt lat="45.07126109086296" lon="9.993395029425164"><ele>37.83333333333333</ele><time>2026-04-19T06:52:09.998Z</time></trkpt><trkpt lat="45.071179499905845" lon="9.993383121818862"><ele>38.0</ele><time>2026-04-19T06:52:10.998Z</time></trkpt><trkpt lat="45.071099447983826" lon="9.993374594493053"><ele>38.0</ele><time>2026-04-19T06:52:11.998Z</time></trkpt><trkpt lat="45.071017678903466" lon="9.99336337338852"><ele>38.0</ele><time>2026-04-19T06:52:12.998Z</time></trkpt><trkpt lat="45.07093671427903" lon="9.993350374259935"><ele>38.0</ele><time>2026-04-19T06:52:13.998Z</time></trkpt><trkpt lat="45.07085696820603" lon="9.993346180418126"><ele>38.0</ele><time>2026-04-19T06:52:14.998Z</time></trkpt><trkpt lat="45.07077314579474" lon="9.99335224247348"><ele>38.0</ele><time>2026-04-19T06:52:15.998Z</time></trkpt><trkpt lat="45.07069270779039" lon="9.993379586218857"><ele>38.0</ele><time>2026-04-19T06:52:16.998Z</time></trkpt><trkpt lat="45.070612189509326" lon="9.993412320161163"><ele>38.166666666666664</ele><time>2026-04-19T06:52:17.998Z</time></trkpt><trkpt lat="45.07053517611069" lon="9.99342925744541"><ele>38.33333333333333</ele><time>2026-04-19T06:52:18.998Z</time></trkpt><trkpt lat="45.07045233081892" lon="9.9934179372925"><ele>38.5</ele><time>2026-04-19T06:52:19.998Z</time></trkpt><trkpt lat="45.07037318704687" lon="9.993369392175515"><ele>38.666666666666664</ele><time>2026-04-19T06:52:20.998Z</time></trkpt><trkpt lat="45.07030600093618" lon="9.993297425387281"><ele>38.833333333333336</ele><time>2026-04-19T06:52:21.998Z</time></trkpt><trkpt lat="45.070242680777376" lon="9.99321548729279"><ele>39.0</ele><time>2026-04-19T06:52:22.998Z</time></trkpt><trkpt lat="45.07018020139436" lon="9.993137560820145"><ele>39.0</ele><time>2026-04-19T06:52:23.998Z</time></trkpt><trkpt lat="45.07011468059995" lon="9.993064316642243"><ele>39.0</ele><time>2026-04-19T06:52:24.998Z</time></trkpt><trkpt lat="45.07004982541505" lon="9.992994564701222"><ele>39.0</ele><time>2026-04-19T06:52:25.998Z</time></trkpt><trkpt lat="45.06998255473805" lon="9.99292332624756"><ele>39.0</ele><time>2026-04-19T06:52:26.998Z</time></trkpt><trkpt lat="45.06991527397756" lon="9.992851619924156"><ele>39.0</ele><time>2026-04-19T06:52:27.998Z</time></trkpt><trkpt lat="45.06984948160489" lon="9.992783514673715"><ele>39.0</ele><time>2026-04-19T06:52:28.998Z</time></trkpt><trkpt lat="45.069784298648344" lon="9.992709568753295"><ele>38.833333333333336</ele><time>2026-04-19T06:52:29.998Z</time></trkpt><trkpt lat="45.06971804597417" lon="9.992640057850865"><ele>38.666666666666664</ele><time>2026-04-19T06:52:30.998Z</time></trkpt><trkpt lat="45.06965208971053" lon="9.992568947149602"><ele>38.5</ele><time>2026-04-19T06:52:31.998Z</time></trkpt><trkpt lat="45.069585628020185" lon="9.992496164476108"><ele>38.33333333333333</ele><time>2026-04-19T06:52:32.998Z</time></trkpt><trkpt lat="45.069519186981616" lon="9.992423868933528"><ele>38.166666666666664</ele><time>2026-04-19T06:52:33.998Z</time></trkpt><trkpt lat="45.06945446273374" lon="9.992351183595346"><ele>38.0</ele><time>2026-04-19T06:52:34.998Z</time></trkpt><trkpt lat="45.069389226041544" lon="9.992279377256729"><ele>38.0</ele><time>2026-04-19T06:52:35.998Z</time></trkpt><trkpt lat="45.06932363853399" lon="9.992209165321999"><ele>38.0</ele><time>2026-04-19T06:52:36.998Z</time></trkpt><trkpt lat="45.069256774515274" lon="9.992138703521835"><ele>38.0</ele><time>2026-04-19T06:52:37.998Z</time></trkpt><trkpt lat="45.06919076841611" lon="9.992065575992111"><ele>38.0</ele><time>2026-04-19T06:52:38.997Z</time></trkpt><trkpt lat="45.06912412715286" lon="9.991993362701816"><ele>38.0</ele><time>2026-04-19T06:52:39.997Z</time></trkpt><trkpt lat="45.069057516350995" lon="9.991920879792573"><ele>38.0</ele><time>2026-04-19T06:52:41Z</time></trkpt><trkpt lat="45.068986498682435" lon="9.991848401131762"><ele>38.0</ele><time>2026-04-19T06:52:42Z</time></trkpt><trkpt lat="45.068921292716155" lon="9.991774962808135"><ele>38.0</ele><time>2026-04-19T06:52:42.999Z</time></trkpt><trkpt lat="45.06885420195814" lon="9.991698965740596"><ele>38.0</ele><time>2026-04-19T06:52:44Z</time></trkpt><trkpt lat="45.06878827049418" lon="9.991624441762362"><ele>38.0</ele><time>2026-04-19T06:52:45Z</time></trkpt><trkpt lat="45.068720453200335" lon="9.991551767275077"><ele>38.0</ele><time>2026-04-19T06:52:45.999Z</time></trkpt><trkpt lat="45.06865388470294" lon="9.991480163943113"><ele>38.0</ele><time>2026-04-19T06:52:47Z</time></trkpt><trkpt lat="45.06858808253937" lon="9.991408215851973"><ele>38.0</ele><time>2026-04-19T06:52:48Z</time></trkpt><trkpt lat="45.068521906880726" lon="9.991334050851258"><ele>38.0</ele><time>2026-04-19T06:52:48.999Z</time></trkpt><trkpt lat="45.06845563324212" lon="9.991259328926338"><ele>38.0</ele><time>2026-04-19T06:52:50Z</time></trkpt><trkpt lat="45.06838964230926" lon="9.991188111355562"><ele>38.0</ele><time>2026-04-19T06:52:51Z</time></trkpt><trkpt lat="45.06832296026527" lon="9.99111582968086"><ele>38.0</ele><time>2026-04-19T06:52:52Z</time></trkpt><trkpt lat="45.068258047382805" lon="9.991043912447266"><ele>38.0</ele><time>2026-04-19T06:52:53Z</time></trkpt><trkpt lat="45.06819124392036" lon="9.990972461108747"><ele>38.0</ele><time>2026-04-19T06:52:54Z</time></trkpt><trkpt lat="45.068125805016216" lon="9.990903975542775"><ele>38.0</ele><time>2026-04-19T06:52:55Z</time></trkpt><trkpt lat="45.068057952700904" lon="9.990838398983946"><ele>38.0</ele><time>2026-04-19T06:52:55.999Z</time></trkpt><trkpt lat="45.06798582281119" lon="9.990785987891359"><ele>38.0</ele><time>2026-04-19T06:52:56.999Z</time></trkpt><trkpt lat="45.0679082329082" lon="9.99074698993017"><ele>38.0</ele><time>2026-04-19T06:52:57.999Z</time></trkpt><trkpt lat="45.067828830684206" lon="9.99072644211792"><ele>38.0</ele><time>2026-04-19T06:52:58.999Z</time></trkpt><trkpt lat="45.06774267688309" lon="9.990726662474987"><ele>38.0</ele><time>2026-04-19T06:52:59.999Z</time></trkpt><trkpt lat="45.067656626676495" lon="9.990743613260912"><ele>38.0</ele><time>2026-04-19T06:53:00.999Z</time></trkpt><trkpt lat="45.06757669021447" lon="9.990767323078982"><ele>38.0</ele><time>2026-04-19T06:53:01.999Z</time></trkpt><trkpt lat="45.06749300250698" lon="9.990789687825842"><ele>38.0</ele><time>2026-04-19T06:53:02.999Z</time></trkpt><trkpt lat="45.06740733713725" lon="9.990800518011632"><ele>38.0</ele><time>2026-04-19T06:53:03.999Z</time></trkpt><trkpt lat="45.067320767069134" lon="9.990801495280298"><ele>38.0</ele><time>2026-04-19T06:53:04.999Z</time></trkpt><trkpt lat="45.0672322617553" lon="9.990788301218839"><ele>37.83333333333333</ele><time>2026-04-19T06:53:05.999Z</time></trkpt><trkpt lat="45.067147136939035" lon="9.990765270041816"><ele>37.666666666666664</ele><time>2026-04-19T06:53:06.999Z</time></trkpt><trkpt lat="45.0670613928732" lon="9.990739366673466"><ele>37.5</ele><time>2026-04-19T06:53:07.999Z</time></trkpt><trkpt lat="45.06697891844133" lon="9.990703710022256"><ele>37.333333333333336</ele><time>2026-04-19T06:53:08.999Z</time></trkpt><trkpt lat="45.066894152592035" lon="9.990664777238377"><ele>37.16666666666667</ele><time>2026-04-19T06:53:09.999Z</time></trkpt><trkpt lat="45.0668105488695" lon="9.9906258056463"><ele>37.0</ele><time>2026-04-19T06:53:10.999Z</time></trkpt><trkpt lat="45.0667280589332" lon="9.990591118478704"><ele>37.0</ele><time>2026-04-19T06:53:11.999Z</time></trkpt><trkpt lat="45.06664288444908" lon="9.99056327796613"><ele>37.0</ele><time>2026-04-19T06:53:12.999Z</time></trkpt><trkpt lat="45.06655437075842" lon="9.990561594366241"><ele>37.0</ele><time>2026-04-19T06:53:13.999Z</time></trkpt><trkpt lat="45.06646428783771" lon="9.99058735748561"><ele>37.0</ele><time>2026-04-19T06:53:14.999Z</time></trkpt><trkpt lat="45.06638346834428" lon="9.990642561286865"><ele>37.0</ele><time>2026-04-19T06:53:15.999Z</time></trkpt><trkpt lat="45.06630722055111" lon="9.990707121370976"><ele>37.0</ele><time>2026-04-19T06:53:16.999Z</time></trkpt><trkpt lat="45.0662298740274" lon="9.990771091884424"><ele>36.833333333333336</ele><time>2026-04-19T06:53:17.999Z</time></trkpt><trkpt lat="45.0661537558554" lon="9.990829306391756"><ele>36.66666666666667</ele><time>2026-04-19T06:53:18.999Z</time></trkpt><trkpt lat="45.06607758565354" lon="9.990890500650686"><ele>36.5</ele><time>2026-04-19T06:53:19.999Z</time></trkpt><trkpt lat="45.06599989413424" lon="9.990948933440768"><ele>36.333333333333336</ele><time>2026-04-19T06:53:20.999Z</time></trkpt><trkpt lat="45.06592477341682" lon="9.991009520984932"><ele>36.166666666666664</ele><time>2026-04-19T06:53:21.999Z</time></trkpt><trkpt lat="45.0658496855562" lon="9.991076191358555"><ele>36.0</ele><time>2026-04-19T06:53:22.999Z</time></trkpt><trkpt lat="45.065783173221064" lon="9.991152981906456"><ele>36.0</ele><time>2026-04-19T06:53:23.999Z</time></trkpt><trkpt lat="45.06572531983298" lon="9.99124968229979"><ele>36.0</ele><time>2026-04-19T06:53:24.999Z</time></trkpt><trkpt lat="45.06568524109077" lon="9.991361496502615"><ele>36.0</ele><time>2026-04-19T06:53:25.999Z</time></trkpt><trkpt lat="45.06565503707595" lon="9.99148270026014"><ele>36.0</ele><time>2026-04-19T06:53:26.999Z</time></trkpt><trkpt lat="45.06562764686258" lon="9.991600810240746"><ele>36.0</ele><time>2026-04-19T06:53:27.999Z</time></trkpt><trkpt lat="45.065600972774504" lon="9.991716689147355"><ele>36.0</ele><time>2026-04-19T06:53:28.999Z</time></trkpt><trkpt lat="45.06557532893814" lon="9.991831956224697"><ele>36.0</ele><time>2026-04-19T06:53:29.999Z</time></trkpt><trkpt lat="45.06554891384722" lon="9.991948700512848"><ele>36.0</ele><time>2026-04-19T06:53:30.999Z</time></trkpt><trkpt lat="45.06552094422672" lon="9.99206538877962"><ele>36.0</ele><time>2026-04-19T06:53:31.999Z</time></trkpt><trkpt lat="45.06549428904754" lon="9.992179863102312"><ele>36.0</ele><time>2026-04-19T06:53:32.999Z</time></trkpt><trkpt lat="45.065465660277795" lon="9.992294540295646"><ele>36.0</ele><time>2026-04-19T06:53:33.999Z</time></trkpt><trkpt lat="45.06543684907131" lon="9.992407506017644"><ele>36.0</ele><time>2026-04-19T06:53:34.999Z</time></trkpt><trkpt lat="45.065407635205986" lon="9.992518562057658"><ele>35.833333333333336</ele><time>2026-04-19T06:53:35.999Z</time></trkpt><trkpt lat="45.06537751964441" lon="9.992631962732801"><ele>35.666666666666664</ele><time>2026-04-19T06:53:36.999Z</time></trkpt><trkpt lat="45.06534859825273" lon="9.992747561500089"><ele>35.5</ele><time>2026-04-19T06:53:37.999Z</time></trkpt><trkpt lat="45.065322723851644" lon="9.992860366081745"><ele>35.33333333333333</ele><time>2026-04-19T06:53:38.999Z</time></trkpt><trkpt lat="45.065296391836654" lon="9.992977207923536"><ele>35.166666666666664</ele><time>2026-04-19T06:53:39.999Z</time></trkpt><trkpt lat="45.06527082837749" lon="9.993089682743909"><ele>35.0</ele><time>2026-04-19T06:53:40.999Z</time></trkpt><trkpt lat="45.065240605027405" lon="9.993202588545659"><ele>35.0</ele><time>2026-04-19T06:53:41.999Z</time></trkpt><trkpt lat="45.065210340215316" lon="9.99331235385162"><ele>35.0</ele><time>2026-04-19T06:53:42.999Z</time></trkpt><trkpt lat="45.06517800477084" lon="9.993422269853385"><ele>35.0</ele><time>2026-04-19T06:53:43.999Z</time></trkpt><trkpt lat="45.065143795621196" lon="9.993530963124764"><ele>35.0</ele><time>2026-04-19T06:53:44.999Z</time></trkpt><trkpt lat="45.06511070382376" lon="9.99363723965986"><ele>35.0</ele><time>2026-04-19T06:53:45.999Z</time></trkpt><trkpt lat="45.0650783956737" lon="9.993748664303661"><ele>35.0</ele><time>2026-04-19T06:53:46.999Z</time></trkpt><trkpt lat="45.065046300907746" lon="9.993858883887652"><ele>35.0</ele><time>2026-04-19T06:53:47.999Z</time></trkpt><trkpt lat="45.06501048529524" lon="9.993963779496665"><ele>35.0</ele><time>2026-04-19T06:53:48.999Z</time></trkpt><trkpt lat="45.06497140156154" lon="9.994070398566715"><ele>35.0</ele><time>2026-04-19T06:53:49.998Z</time></trkpt><trkpt lat="45.064930436975615" lon="9.994172595674899"><ele>35.0</ele><time>2026-04-19T06:53:50.998Z</time></trkpt><trkpt lat="45.06489085378658" lon="9.99427705587839"><ele>35.0</ele><time>2026-04-19T06:53:51.998Z</time></trkpt><trkpt lat="45.06485028600181" lon="9.99437838286868"><ele>35.0</ele><time>2026-04-19T06:53:52.998Z</time></trkpt><trkpt lat="45.064809457618814" lon="9.994482141353302"><ele>35.0</ele><time>2026-04-19T06:53:53.998Z</time></trkpt><trkpt lat="45.06476752786991" lon="9.99458715546904"><ele>35.0</ele><time>2026-04-19T06:53:54.998Z</time></trkpt><trkpt lat="45.064727459557744" lon="9.994692883171119"><ele>35.0</ele><time>2026-04-19T06:53:55.998Z</time></trkpt><trkpt lat="45.0646831027943" lon="9.994791536499347"><ele>35.0</ele><time>2026-04-19T06:53:56.998Z</time></trkpt><trkpt lat="45.064638728758894" lon="9.994897023053205"><ele>35.0</ele><time>2026-04-19T06:53:57.998Z</time></trkpt><trkpt lat="45.06459461751984" lon="9.99499234017685"><ele>35.0</ele><time>2026-04-19T06:53:58.998Z</time></trkpt><trkpt lat="45.064547641892226" lon="9.995097444725074"><ele>35.0</ele><time>2026-04-19T06:53:59.998Z</time></trkpt><trkpt lat="45.06450376065749" lon="9.99519383663599"><ele>35.0</ele><time>2026-04-19T06:54:00.998Z</time></trkpt><trkpt lat="45.06445975905139" lon="9.995297695924926"><ele>35.0</ele><time>2026-04-19T06:54:01.998Z</time></trkpt><trkpt lat="45.06441473413739" lon="9.995396827823699"><ele>35.0</ele><time>2026-04-19T06:54:02.998Z</time></trkpt><trkpt lat="45.06436929651519" lon="9.995496707499267"><ele>35.0</ele><time>2026-04-19T06:54:03.998Z</time></trkpt><trkpt lat="45.06432492986474" lon="9.995598108691313"><ele>35.0</ele><time>2026-04-19T06:54:04.998Z</time></trkpt><trkpt lat="45.06428198898457" lon="9.995701959757591"><ele>35.0</ele><time>2026-04-19T06:54:05.998Z</time></trkpt><trkpt lat="45.06423899001212" lon="9.995803508024906"><ele>35.0</ele><time>2026-04-19T06:54:06.998Z</time></trkpt><trkpt lat="45.06419525201593" lon="9.99590404609678"><ele>35.0</ele><time>2026-04-19T06:54:07.998Z</time></trkpt><trkpt lat="45.064152279684954" lon="9.996001590281226"><ele>35.0</ele><time>2026-04-19T06:54:08.998Z</time></trkpt><trkpt lat="45.06410905920938" lon="9.996099104090607"><ele>35.0</ele><time>2026-04-19T06:54:09.998Z</time></trkpt><trkpt lat="45.064060153876056" lon="9.99618760243239"><ele>35.0</ele><time>2026-04-19T06:54:10.998Z</time></trkpt><trkpt lat="45.063996392642785" lon="9.996250459096135"><ele>35.166666666666664</ele><time>2026-04-19T06:54:11.998Z</time></trkpt><trkpt lat="45.063922794469434" lon="9.99627694071039"><ele>35.33333333333333</ele><time>2026-04-19T06:54:12.998Z</time></trkpt><trkpt lat="45.06385129597873" lon="9.996241019126055"><ele>35.5</ele><time>2026-04-19T06:54:13.998Z</time></trkpt><trkpt lat="45.06378235746548" lon="9.996156325039406"><ele>35.666666666666664</ele><time>2026-04-19T06:54:14.998Z</time></trkpt><trkpt lat="45.06372445068916" lon="9.996073618612124"><ele>35.833333333333336</ele><time>2026-04-19T06:54:15.998Z</time></trkpt><trkpt lat="45.0636648187152" lon="9.995994842965029"><ele>36.0</ele><time>2026-04-19T06:54:16.998Z</time></trkpt><trkpt lat="45.06360425177025" lon="9.99591978803801"><ele>36.0</ele><time>2026-04-19T06:54:17.998Z</time></trkpt><trkpt lat="45.06354490063115" lon="9.995844696313084"><ele>36.0</ele><time>2026-04-19T06:54:18.998Z</time></trkpt><trkpt lat="45.06348834438296" lon="9.995763923478812"><ele>36.0</ele><time>2026-04-19T06:54:19.998Z</time></trkpt><trkpt lat="45.06343337418874" lon="9.995681959141361"><ele>36.0</ele><time>2026-04-19T06:54:20.998Z</time></trkpt><trkpt lat="45.063380408651845" lon="9.995604769737056"><ele>36.0</ele><time>2026-04-19T06:54:21.998Z</time></trkpt><trkpt lat="45.063321284208286" lon="9.995528409070282"><ele>36.0</ele><time>2026-04-19T06:54:22.998Z</time></trkpt><trkpt lat="45.063252860189564" lon="9.995464592361818"><ele>36.0</ele><time>2026-04-19T06:54:23.998Z</time></trkpt><trkpt lat="45.06317817519889" lon="9.995412042078815"><ele>36.0</ele><time>2026-04-19T06:54:24.998Z</time></trkpt><trkpt lat="45.063098863772545" lon="9.995372264121071"><ele>36.0</ele><time>2026-04-19T06:54:25.998Z</time></trkpt><trkpt lat="45.06301875090009" lon="9.995337706030414"><ele>36.0</ele><time>2026-04-19T06:54:26.998Z</time></trkpt><trkpt lat="45.06293816895583" lon="9.995299008734742"><ele>36.0</ele><time>2026-04-19T06:54:27.998Z</time></trkpt><trkpt lat="45.06285776751582" lon="9.995258094729106"><ele>36.0</ele><time>2026-04-19T06:54:28.998Z</time></trkpt><trkpt lat="45.06277847331684" lon="9.995215085567551"><ele>36.0</ele><time>2026-04-19T06:54:29.998Z</time></trkpt><trkpt lat="45.06270260530224" lon="9.995165911086293"><ele>36.0</ele><time>2026-04-19T06:54:30.998Z</time></trkpt><trkpt lat="45.06262381597238" lon="9.995114174779049"><ele>36.0</ele><time>2026-04-19T06:54:31.998Z</time></trkpt><trkpt lat="45.062547725583705" lon="9.995064217019033"><ele>36.0</ele><time>2026-04-19T06:54:32.998Z</time></trkpt><trkpt lat="45.06247068175074" lon="9.99501223173332"><ele>36.0</ele><time>2026-04-19T06:54:33.998Z</time></trkpt><trkpt lat="45.06239441822743" lon="9.994960334297096"><ele>36.0</ele><time>2026-04-19T06:54:34.998Z</time></trkpt><trkpt lat="45.06231802189229" lon="9.994908294898924"><ele>35.833333333333336</ele><time>2026-04-19T06:54:35.998Z</time></trkpt><trkpt lat="45.06224083816279" lon="9.994855204195732"><ele>35.666666666666664</ele><time>2026-04-19T06:54:36.998Z</time></trkpt><trkpt lat="45.06216381131002" lon="9.994805316708115"><ele>35.5</ele><time>2026-04-19T06:54:37.998Z</time></trkpt><trkpt lat="45.06208570228968" lon="9.99475855232147"><ele>35.33333333333333</ele><time>2026-04-19T06:54:38.998Z</time></trkpt><trkpt lat="45.0620069356038" lon="9.994715129405707"><ele>35.166666666666664</ele><time>2026-04-19T06:54:39.998Z</time></trkpt><trkpt lat="45.06192647647212" lon="9.99467416576042"><ele>35.0</ele><time>2026-04-19T06:54:40.998Z</time></trkpt><trkpt lat="45.0618459486598" lon="9.99463953380086"><ele>35.0</ele><time>2026-04-19T06:54:41.998Z</time></trkpt><trkpt lat="45.06176572616446" lon="9.994601725379136"><ele>35.0</ele><time>2026-04-19T06:54:42.997Z</time></trkpt><trkpt lat="45.06168608925418" lon="9.994564832270676"><ele>35.0</ele><time>2026-04-19T06:54:43.997Z</time></trkpt><trkpt lat="45.06160650980426" lon="9.994530453856134"><ele>35.0</ele><time>2026-04-19T06:54:44.997Z</time></trkpt><trkpt lat="45.06152734078608" lon="9.994495589558236"><ele>35.0</ele><time>2026-04-19T06:54:45.997Z</time></trkpt><trkpt lat="45.0614465701379" lon="9.994456601165782"><ele>35.0</ele><time>2026-04-19T06:54:46.999Z</time></trkpt><trkpt lat="45.0613674772879" lon="9.994417301527042"><ele>35.33333333333333</ele><time>2026-04-19T06:54:47.999Z</time></trkpt><trkpt lat="45.06128684208069" lon="9.994381061638135"><ele>35.666666666666664</ele><time>2026-04-19T06:54:48.999Z</time></trkpt><trkpt lat="45.06120825366918" lon="9.994342643360799"><ele>36.0</ele><time>2026-04-19T06:54:49.999Z</time></trkpt><trkpt lat="45.06112499241457" lon="9.994305440691582"><ele>36.333333333333336</ele><time>2026-04-19T06:54:51Z</time></trkpt><trkpt lat="45.06104559226602" lon="9.99427081596582"><ele>36.66666666666667</ele><time>2026-04-19T06:54:51.999Z</time></trkpt><trkpt lat="45.060962295539646" lon="9.994229981531985"><ele>37.0</ele><time>2026-04-19T06:54:52.999Z</time></trkpt><trkpt lat="45.06087873767734" lon="9.994192891555434"><ele>36.5</ele><time>2026-04-19T06:54:54Z</time></trkpt><trkpt lat="45.0607959426859" lon="9.994150036814755"><ele>36.0</ele><time>2026-04-19T06:54:54.999Z</time></trkpt><trkpt lat="45.060714132012976" lon="9.994106750351861"><ele>35.5</ele><time>2026-04-19T06:54:55.999Z</time></trkpt><trkpt lat="45.06063253615675" lon="9.994060250737144"><ele>35.0</ele><time>2026-04-19T06:54:57Z</time></trkpt><trkpt lat="45.06055302832235" lon="9.99400994729473"><ele>34.5</ele><time>2026-04-19T06:54:57.999Z</time></trkpt><trkpt lat="45.06047450344916" lon="9.993953588410255"><ele>34.0</ele><time>2026-04-19T06:54:58.999Z</time></trkpt><trkpt lat="45.0603961459098" lon="9.993900098500761"><ele>34.0</ele><time>2026-04-19T06:55:00Z</time></trkpt><trkpt lat="45.060320145866704" lon="9.993834389327358"><ele>34.0</ele><time>2026-04-19T06:55:00.999Z</time></trkpt><trkpt lat="45.06024490318965" lon="9.993772844452176"><ele>34.0</ele><time>2026-04-19T06:55:01.999Z</time></trkpt><trkpt lat="45.06016898797903" lon="9.99370283031292"><ele>34.0</ele><time>2026-04-19T06:55:02.999Z</time></trkpt><trkpt lat="45.06009714474511" lon="9.99363838538487"><ele>34.0</ele><time>2026-04-19T06:55:03.999Z</time></trkpt><trkpt lat="45.06002212126344" lon="9.993571393920762"><ele>34.0</ele><time>2026-04-19T06:55:04.999Z</time></trkpt><trkpt lat="45.059949167512166" lon="9.993503616481817"><ele>34.0</ele><time>2026-04-19T06:55:05.999Z</time></trkpt><trkpt lat="45.05987551318991" lon="9.993438368799042"><ele>34.0</ele><time>2026-04-19T06:55:06.999Z</time></trkpt><trkpt lat="45.059800711089856" lon="9.993371686232203"><ele>34.0</ele><time>2026-04-19T06:55:07.999Z</time></trkpt><trkpt lat="45.05972693473746" lon="9.99331084885097"><ele>34.0</ele><time>2026-04-19T06:55:08.999Z</time></trkpt><trkpt lat="45.059653471643685" lon="9.993240927305957"><ele>34.0</ele><time>2026-04-19T06:55:09.999Z</time></trkpt><trkpt lat="45.059581020881794" lon="9.993171451146537"><ele>34.0</ele><time>2026-04-19T06:55:10.999Z</time></trkpt><trkpt lat="45.059509737865355" lon="9.99310093945984"><ele>34.0</ele><time>2026-04-19T06:55:11.999Z</time></trkpt><trkpt lat="45.05943688776926" lon="9.993029326632064"><ele>34.0</ele><time>2026-04-19T06:55:12.999Z</time></trkpt><trkpt lat="45.05936317813079" lon="9.992963186488735"><ele>34.0</ele><time>2026-04-19T06:55:13.999Z</time></trkpt><trkpt lat="45.05928933460981" lon="9.992893334116522"><ele>34.0</ele><time>2026-04-19T06:55:14.999Z</time></trkpt><trkpt lat="45.059218194449834" lon="9.99282518450527"><ele>34.0</ele><time>2026-04-19T06:55:15.999Z</time></trkpt><trkpt lat="45.059145509971195" lon="9.992750435307029"><ele>34.0</ele><time>2026-04-19T06:55:16.999Z</time></trkpt><trkpt lat="45.059073781837" lon="9.99267716565577"><ele>34.16666666666667</ele><time>2026-04-19T06:55:17.999Z</time></trkpt><trkpt lat="45.059002867767674" lon="9.992600596112922"><ele>34.333333333333336</ele><time>2026-04-19T06:55:18.999Z</time></trkpt><trkpt lat="45.058933190525046" lon="9.99251949496499"><ele>34.5</ele><time>2026-04-19T06:55:19.999Z</time></trkpt><trkpt lat="45.05886613705729" lon="9.992440521101184"><ele>34.666666666666664</ele><time>2026-04-19T06:55:20.999Z</time></trkpt><trkpt lat="45.05879829148543" lon="9.99235480064234"><ele>34.83333333333333</ele><time>2026-04-19T06:55:21.999Z</time></trkpt><trkpt lat="45.05873458578207" lon="9.992269154653279"><ele>35.0</ele><time>2026-04-19T06:55:22.999Z</time></trkpt><trkpt lat="45.058671053891324" lon="9.992181611482527"><ele>35.0</ele><time>2026-04-19T06:55:23.999Z</time></trkpt><trkpt lat="45.05860976501132" lon="9.992087778508232"><ele>35.0</ele><time>2026-04-19T06:55:24.999Z</time></trkpt><trkpt lat="45.05854893743653" lon="9.991997588844267"><ele>35.0</ele><time>2026-04-19T06:55:25.999Z</time></trkpt><trkpt lat="45.05849084642089" lon="9.991897704811304"><ele>35.0</ele><time>2026-04-19T06:55:26.999Z</time></trkpt><trkpt lat="45.05843564781032" lon="9.991808036373893"><ele>35.0</ele><time>2026-04-19T06:55:27.999Z</time></trkpt><trkpt lat="45.05837986809005" lon="9.991703444895132"><ele>35.0</ele><time>2026-04-19T06:55:28.999Z</time></trkpt><trkpt lat="45.05832611475632" lon="9.991608671718863"><ele>35.166666666666664</ele><time>2026-04-19T06:55:29.999Z</time></trkpt><trkpt lat="45.058269803663606" lon="9.99151099674844"><ele>35.33333333333333</ele><time>2026-04-19T06:55:30.999Z</time></trkpt><trkpt lat="45.05821115518959" lon="9.991420382336404"><ele>35.5</ele><time>2026-04-19T06:55:31.999Z</time></trkpt><trkpt lat="45.05814883446189" lon="9.991329466989539"><ele>35.666666666666664</ele><time>2026-04-19T06:55:32.999Z</time></trkpt><trkpt lat="45.05808053882561" lon="9.991245494429233"><ele>35.833333333333336</ele><time>2026-04-19T06:55:33.999Z</time></trkpt><trkpt lat="45.058012791533386" lon="9.991167262923694"><ele>36.0</ele><time>2026-04-19T06:55:34.999Z</time></trkpt><trkpt lat="45.0579384573898" lon="9.991091099976883"><ele>36.0</ele><time>2026-04-19T06:55:35.999Z</time></trkpt><trkpt lat="45.05786368110825" lon="9.991023754190802"><ele>36.0</ele><time>2026-04-19T06:55:36.999Z</time></trkpt><trkpt lat="45.05778612187878" lon="9.990958042648984"><ele>36.0</ele><time>2026-04-19T06:55:37.999Z</time></trkpt><trkpt lat="45.05770615558029" lon="9.990898087200701"><ele>36.0</ele><time>2026-04-19T06:55:38.999Z</time></trkpt><trkpt lat="45.05762519366052" lon="9.990841148964387"><ele>36.0</ele><time>2026-04-19T06:55:39.999Z</time></trkpt><trkpt lat="45.057544416036194" lon="9.99078673413151"><ele>36.0</ele><time>2026-04-19T06:55:40.999Z</time></trkpt><trkpt lat="45.05746112981177" lon="9.990727576487213"><ele>36.333333333333336</ele><time>2026-04-19T06:55:41.999Z</time></trkpt><trkpt lat="45.05738367177026" lon="9.99067241565521"><ele>36.666666666666664</ele><time>2026-04-19T06:55:42.999Z</time></trkpt><trkpt lat="45.05730155942569" lon="9.990612238028143"><ele>37.0</ele><time>2026-04-19T06:55:43.999Z</time></trkpt><trkpt lat="45.05722149558227" lon="9.99055806231892"><ele>37.33333333333333</ele><time>2026-04-19T06:55:44.999Z</time></trkpt><trkpt lat="45.057139845477465" lon="9.990502471474981"><ele>37.666666666666664</ele><time>2026-04-19T06:55:45.999Z</time></trkpt><trkpt lat="45.05705901334625" lon="9.990444975072458"><ele>38.0</ele><time>2026-04-19T06:55:46.999Z</time></trkpt><trkpt lat="45.0569768830438" lon="9.990390960238164"><ele>38.0</ele><time>2026-04-19T06:55:47.999Z</time></trkpt><trkpt lat="45.056894324035994" lon="9.990337611373173"><ele>38.0</ele><time>2026-04-19T06:55:48.999Z</time></trkpt><trkpt lat="45.05681255178505" lon="9.990283722522504"><ele>38.0</ele><time>2026-04-19T06:55:49.999Z</time></trkpt><trkpt lat="45.05672789164886" lon="9.990236530360578"><ele>38.0</ele><time>2026-04-19T06:55:50.999Z</time></trkpt><trkpt lat="45.056642912957315" lon="9.99019271424316"><ele>38.0</ele><time>2026-04-19T06:55:51.999Z</time></trkpt><trkpt lat="45.056556100251676" lon="9.990164471001334"><ele>37.83333333333333</ele><time>2026-04-19T06:55:52.999Z</time></trkpt><trkpt lat="45.056467341236036" lon="9.990155595895192"><ele>37.666666666666664</ele><time>2026-04-19T06:55:53.999Z</time></trkpt><trkpt lat="45.05638106670697" lon="9.990157843605413"><ele>37.5</ele><time>2026-04-19T06:55:54.998Z</time></trkpt><trkpt lat="45.05629623637044" lon="9.990179276097853"><ele>37.333333333333336</ele><time>2026-04-19T06:55:55.998Z</time></trkpt><trkpt lat="45.05621139355972" lon="9.990201697492045"><ele>37.16666666666667</ele><time>2026-04-19T06:55:56.998Z</time></trkpt><trkpt lat="45.05612686086655" lon="9.990226926373373"><ele>37.0</ele><time>2026-04-19T06:55:57.998Z</time></trkpt><trkpt lat="45.05604210071784" lon="9.99025415512163"><ele>37.0</ele><time>2026-04-19T06:55:58.998Z</time></trkpt><trkpt lat="45.05595755604566" lon="9.99027940379217"><ele>37.0</ele><time>2026-04-19T06:55:59.998Z</time></trkpt><trkpt lat="45.05587360672509" lon="9.990305827150154"><ele>37.0</ele><time>2026-04-19T06:56:00.998Z</time></trkpt><trkpt lat="45.0557904992194" lon="9.990328778112195"><ele>37.0</ele><time>2026-04-19T06:56:01.998Z</time></trkpt><trkpt lat="45.05570596311166" lon="9.990344357176383"><ele>37.0</ele><time>2026-04-19T06:56:02.998Z</time></trkpt><trkpt lat="45.055620619474695" lon="9.99035119802985"><ele>37.0</ele><time>2026-04-19T06:56:03.998Z</time></trkpt><trkpt lat="45.05553878523822" lon="9.990345941975926"><ele>37.0</ele><time>2026-04-19T06:56:04.998Z</time></trkpt><trkpt lat="45.055458776188395" lon="9.990323231325817"><ele>37.0</ele><time>2026-04-19T06:56:05.998Z</time></trkpt><trkpt lat="45.055381227741705" lon="9.990282213212808"><ele>37.0</ele><time>2026-04-19T06:56:06.998Z</time></trkpt><trkpt lat="45.055305803074695" lon="9.990233475262901"><ele>37.0</ele><time>2026-04-19T06:56:07.998Z</time></trkpt><trkpt lat="45.05522883266624" lon="9.990180311697525"><ele>37.0</ele><time>2026-04-19T06:56:08.998Z</time></trkpt><trkpt lat="45.05515444662754" lon="9.990119774522524"><ele>37.0</ele><time>2026-04-19T06:56:09.998Z</time></trkpt><trkpt lat="45.05509063845633" lon="9.990029646299165"><ele>37.0</ele><time>2026-04-19T06:56:10.998Z</time></trkpt><trkpt lat="45.055032494455" lon="9.989937591887987"><ele>37.0</ele><time>2026-04-19T06:56:11.998Z</time></trkpt><trkpt lat="45.05497425917726" lon="9.989843587753272"><ele>37.0</ele><time>2026-04-19T06:56:12.998Z</time></trkpt><trkpt lat="45.054914653183964" lon="9.98974871404359"><ele>37.0</ele><time>2026-04-19T06:56:13.998Z</time></trkpt><trkpt lat="45.05485710635435" lon="9.989655841908512"><ele>37.0</ele><time>2026-04-19T06:56:14.998Z</time></trkpt><trkpt lat="45.05479595787016" lon="9.989561931166028"><ele>37.0</ele><time>2026-04-19T06:56:15.998Z</time></trkpt><trkpt lat="45.05473580542383" lon="9.989469402095429"><ele>37.0</ele><time>2026-04-19T06:56:16.998Z</time></trkpt><trkpt lat="45.05467877557195" lon="9.989381266788042"><ele>37.0</ele><time>2026-04-19T06:56:17.998Z</time></trkpt><trkpt lat="45.054618747750254" lon="9.989283430573877"><ele>37.0</ele><time>2026-04-19T06:56:18.998Z</time></trkpt><trkpt lat="45.05456179695496" lon="9.989194208266728"><ele>37.0</ele><time>2026-04-19T06:56:19.998Z</time></trkpt><trkpt lat="45.05450186750932" lon="9.989102499625568"><ele>37.0</ele><time>2026-04-19T06:56:20.998Z</time></trkpt><trkpt lat="45.05444550849826" lon="9.989008153558022"><ele>37.0</ele><time>2026-04-19T06:56:21.998Z</time></trkpt><trkpt lat="45.05439013832236" lon="9.988914875108703"><ele>37.0</ele><time>2026-04-19T06:56:22.998Z</time></trkpt><trkpt lat="45.054334929495596" lon="9.98882759076122"><ele>37.0</ele><time>2026-04-19T06:56:23.998Z</time></trkpt><trkpt lat="45.0542755171489" lon="9.988738828588714"><ele>37.0</ele><time>2026-04-19T06:56:24.998Z</time></trkpt><trkpt lat="45.054218188613405" lon="9.988649548404998"><ele>37.0</ele><time>2026-04-19T06:56:25.998Z</time></trkpt><trkpt lat="45.054162947463375" lon="9.988569139628888"><ele>37.0</ele><time>2026-04-19T06:56:26.998Z</time></trkpt><trkpt lat="45.05411004236766" lon="9.988488817130692"><ele>37.0</ele><time>2026-04-19T06:56:27.998Z</time></trkpt><trkpt lat="45.05405665469158" lon="9.988406068402103"><ele>37.0</ele><time>2026-04-19T06:56:28.998Z</time></trkpt><trkpt lat="45.05400071199546" lon="9.98833110084419"><ele>37.0</ele><time>2026-04-19T06:56:29.998Z</time></trkpt><trkpt lat="45.05393577700107" lon="9.98827794460785"><ele>37.0</ele><time>2026-04-19T06:56:30.998Z</time></trkpt><trkpt lat="45.053857413853784" lon="9.988247972589718"><ele>37.0</ele><time>2026-04-19T06:56:31.998Z</time></trkpt><trkpt lat="45.053774210909296" lon="9.988237700704682"><ele>37.0</ele><time>2026-04-19T06:56:32.998Z</time></trkpt><trkpt lat="45.053685499586166" lon="9.988226092405814"><ele>37.0</ele><time>2026-04-19T06:56:33.998Z</time></trkpt><trkpt lat="45.053599745491006" lon="9.988214654731994"><ele>37.0</ele><time>2026-04-19T06:56:34.998Z</time></trkpt><trkpt lat="45.05351492099101" lon="9.98820079033662"><ele>37.0</ele><time>2026-04-19T06:56:35.998Z</time></trkpt><trkpt lat="45.05343210014763" lon="9.988186846975248"><ele>37.0</ele><time>2026-04-19T06:56:36.998Z</time></trkpt><trkpt lat="45.05334672382485" lon="9.988172367435515"><ele>37.0</ele><time>2026-04-19T06:56:37.998Z</time></trkpt><trkpt lat="45.05326098556808" lon="9.988156299615383"><ele>37.0</ele><time>2026-04-19T06:56:38.998Z</time></trkpt><trkpt lat="45.05317704645686" lon="9.98813873209589"><ele>37.0</ele><time>2026-04-19T06:56:39.998Z</time></trkpt><trkpt lat="45.05309236961512" lon="9.988123707668835"><ele>36.833333333333336</ele><time>2026-04-19T06:56:40.998Z</time></trkpt><trkpt lat="45.053008764494095" lon="9.988109305163817"><ele>36.66666666666667</ele><time>2026-04-19T06:56:41.998Z</time></trkpt><trkpt lat="45.05292648997701" lon="9.988094660246604"><ele>36.5</ele><time>2026-04-19T06:56:42.998Z</time></trkpt><trkpt lat="45.0528436048132" lon="9.988080180970643"><ele>36.333333333333336</ele><time>2026-04-19T06:56:43.998Z</time></trkpt><trkpt lat="45.0527624886936" lon="9.988065452835434"><ele>36.166666666666664</ele><time>2026-04-19T06:56:44.998Z</time></trkpt><trkpt lat="45.0526820763297" lon="9.988050520673829"><ele>36.0</ele><time>2026-04-19T06:56:45.998Z</time></trkpt><trkpt lat="45.05260255743752" lon="9.988035646857776"><ele>36.0</ele><time>2026-04-19T06:56:46.998Z</time></trkpt><trkpt lat="45.05252207976592" lon="9.98802028876112"><ele>36.0</ele><time>2026-04-19T06:56:47.998Z</time></trkpt><trkpt lat="45.05244077110841" lon="9.988005831976453"><ele>36.0</ele><time>2026-04-19T06:56:48.997Z</time></trkpt><trkpt lat="45.05236040677957" lon="9.98799213319857"><ele>36.0</ele><time>2026-04-19T06:56:49.997Z</time></trkpt><trkpt lat="45.0522791402658" lon="9.987978039591493"><ele>36.0</ele><time>2026-04-19T06:56:50.997Z</time></trkpt><trkpt lat="45.05220112770118" lon="9.987962908583246"><ele>36.0</ele><time>2026-04-19T06:56:51.997Z</time></trkpt><trkpt lat="45.052119405909046" lon="9.987947909194766"><ele>36.0</ele><time>2026-04-19T06:56:52.999Z</time></trkpt><trkpt lat="45.05204121502801" lon="9.987932833263955"><ele>36.0</ele><time>2026-04-19T06:56:53.999Z</time></trkpt><trkpt lat="45.051959278830175" lon="9.987917769952562"><ele>36.0</ele><time>2026-04-19T06:56:54.999Z</time></trkpt><trkpt lat="45.051878678244634" lon="9.987906345413423"><ele>36.0</ele><time>2026-04-19T06:56:55.999Z</time></trkpt><trkpt lat="45.05179876511266" lon="9.98789435093386"><ele>36.0</ele><time>2026-04-19T06:56:56.999Z</time></trkpt><trkpt lat="45.05171867700429" lon="9.987880099673399"><ele>36.0</ele><time>2026-04-19T06:56:57.999Z</time></trkpt><trkpt lat="45.05163813908803" lon="9.987863268431594"><ele>35.833333333333336</ele><time>2026-04-19T06:56:58.999Z</time></trkpt><trkpt lat="45.051556429752296" lon="9.987849857086076"><ele>35.666666666666664</ele><time>2026-04-19T06:56:59.999Z</time></trkpt><trkpt lat="45.051475671906196" lon="9.987835532453277"><ele>35.5</ele><time>2026-04-19T06:57:00.999Z</time></trkpt><trkpt lat="45.05139532348895" lon="9.987820702264491"><ele>35.33333333333333</ele><time>2026-04-19T06:57:01.999Z</time></trkpt><trkpt lat="45.051312292472645" lon="9.987804387251808"><ele>35.166666666666664</ele><time>2026-04-19T06:57:02.999Z</time></trkpt><trkpt lat="45.05123319676819" lon="9.987790994652658"><ele>35.0</ele><time>2026-04-19T06:57:03.999Z</time></trkpt><trkpt lat="45.051152121866615" lon="9.987777223891461"><ele>35.0</ele><time>2026-04-19T06:57:04.999Z</time></trkpt><trkpt lat="45.051071688450996" lon="9.98776456456351"><ele>35.0</ele><time>2026-04-19T06:57:05.999Z</time></trkpt><trkpt lat="45.0509908376223" lon="9.987751102587847"><ele>35.0</ele><time>2026-04-19T06:57:06.999Z</time></trkpt><trkpt lat="45.05090905767705" lon="9.987733698756426"><ele>35.0</ele><time>2026-04-19T06:57:08Z</time></trkpt><trkpt lat="45.05082931685201" lon="9.987721348562156"><ele>35.0</ele><time>2026-04-19T06:57:09Z</time></trkpt><trkpt lat="45.05074682927419" lon="9.987705241529822"><ele>35.0</ele><time>2026-04-19T06:57:10Z</time></trkpt><trkpt lat="45.050665439079516" lon="9.987689217780533"><ele>34.83333333333333</ele><time>2026-04-19T06:57:11Z</time></trkpt><trkpt lat="45.05058293556875" lon="9.987670942581362"><ele>34.666666666666664</ele><time>2026-04-19T06:57:12Z</time></trkpt><trkpt lat="45.050501253000725" lon="9.987657844525936"><ele>34.5</ele><time>2026-04-19T06:57:13Z</time></trkpt><trkpt lat="45.050418217855814" lon="9.987644803400984"><ele>34.333333333333336</ele><time>2026-04-19T06:57:14Z</time></trkpt><trkpt lat="45.050336043561906" lon="9.987632801903123"><ele>34.16666666666667</ele><time>2026-04-19T06:57:15Z</time></trkpt><trkpt lat="45.05025403516258" lon="9.987617565634146"><ele>34.0</ele><time>2026-04-19T06:57:16Z</time></trkpt><trkpt lat="45.05017335596433" lon="9.987602229857885"><ele>34.0</ele><time>2026-04-19T06:57:17Z</time></trkpt><trkpt lat="45.05008977737759" lon="9.987586807936975"><ele>34.0</ele><time>2026-04-19T06:57:18Z</time></trkpt><trkpt lat="45.050008975452975" lon="9.987573287527818"><ele>34.0</ele><time>2026-04-19T06:57:19Z</time></trkpt><trkpt lat="45.04992696767054" lon="9.987558401447496"><ele>34.0</ele><time>2026-04-19T06:57:20Z</time></trkpt><trkpt lat="45.049843741365144" lon="9.987543738364776"><ele>34.0</ele><time>2026-04-19T06:57:21Z</time></trkpt><trkpt lat="45.04975976878743" lon="9.987527774448452"><ele>34.0</ele><time>2026-04-19T06:57:22Z</time></trkpt><trkpt lat="45.04967614679427" lon="9.9875121680121"><ele>34.16666666666667</ele><time>2026-04-19T06:57:23Z</time></trkpt><trkpt lat="45.04959230240016" lon="9.98749754718226"><ele>34.333333333333336</ele><time>2026-04-19T06:57:24Z</time></trkpt><trkpt lat="45.049507970018546" lon="9.987484688214677"><ele>34.5</ele><time>2026-04-19T06:57:25Z</time></trkpt><trkpt lat="45.049423682651586" lon="9.987468910521669"><ele>34.666666666666664</ele><time>2026-04-19T06:57:26Z</time></trkpt><trkpt lat="45.04934021575261" lon="9.987453395223516"><ele>34.83333333333333</ele><time>2026-04-19T06:57:27Z</time></trkpt><trkpt lat="45.049257741480936" lon="9.987440832042065"><ele>35.0</ele><time>2026-04-19T06:57:28Z</time></trkpt><trkpt lat="45.04917464930942" lon="9.987430808166907"><ele>35.33333333333333</ele><time>2026-04-19T06:57:29Z</time></trkpt><trkpt lat="45.04909111214772" lon="9.987417908665003"><ele>35.666666666666664</ele><time>2026-04-19T06:57:30Z</time></trkpt><trkpt lat="45.04900746849243" lon="9.987405223703389"><ele>36.0</ele><time>2026-04-19T06:57:31Z</time></trkpt><trkpt lat="45.04892279013256" lon="9.987392403584304"><ele>36.333333333333336</ele><time>2026-04-19T06:57:32Z</time></trkpt><trkpt lat="45.04883836683226" lon="9.987380400069384"><ele>36.66666666666667</ele><time>2026-04-19T06:57:33Z</time></trkpt><trkpt lat="45.048752367437295" lon="9.98737006002895"><ele>37.0</ele><time>2026-04-19T06:57:34Z</time></trkpt><trkpt lat="45.04866740077466" lon="9.987357104042838"><ele>37.0</ele><time>2026-04-19T06:57:35Z</time></trkpt><trkpt lat="45.0485813816945" lon="9.98734517457204"><ele>37.0</ele><time>2026-04-19T06:57:36Z</time></trkpt><trkpt lat="45.048495285243824" lon="9.987331210259335"><ele>37.0</ele><time>2026-04-19T06:57:37Z</time></trkpt><trkpt lat="45.04840883816382" lon="9.987319375450317"><ele>37.0</ele><time>2026-04-19T06:57:38Z</time></trkpt><trkpt lat="45.04832547191587" lon="9.987307806477657"><ele>37.0</ele><time>2026-04-19T06:57:39Z</time></trkpt><trkpt lat="45.04824374689048" lon="9.98730043887096"><ele>37.0</ele><time>2026-04-19T06:57:40Z</time></trkpt><trkpt lat="45.04815633044197" lon="9.9872866214621"><ele>37.0</ele><time>2026-04-19T06:57:41Z</time></trkpt><trkpt lat="45.0480711386238" lon="9.987274442786285"><ele>37.0</ele><time>2026-04-19T06:57:42Z</time></trkpt><trkpt lat="45.04798461246087" lon="9.98726425890091"><ele>37.0</ele><time>2026-04-19T06:57:43Z</time></trkpt><trkpt lat="45.04789948905285" lon="9.98725363233809"><ele>37.0</ele><time>2026-04-19T06:57:44Z</time></trkpt><trkpt lat="45.047813907816604" lon="9.987244424805866"><ele>37.0</ele><time>2026-04-19T06:57:45Z</time></trkpt><trkpt lat="45.04772752958678" lon="9.987233958885989"><ele>37.0</ele><time>2026-04-19T06:57:46Z</time></trkpt><trkpt lat="45.0476441849468" lon="9.98721990384666"><ele>37.0</ele><time>2026-04-19T06:57:47Z</time></trkpt><trkpt lat="45.04755899205976" lon="9.987205419525903"><ele>37.0</ele><time>2026-04-19T06:57:48Z</time></trkpt><trkpt lat="45.047474053811726" lon="9.98719474479993"><ele>37.0</ele><time>2026-04-19T06:57:49Z</time></trkpt><trkpt lat="45.04739104874671" lon="9.987181380192704"><ele>37.0</ele><time>2026-04-19T06:57:50Z</time></trkpt><trkpt lat="45.04730502725329" lon="9.987170731668876"><ele>37.0</ele><time>2026-04-19T06:57:51Z</time></trkpt><trkpt lat="45.04722028814351" lon="9.987159372292432"><ele>37.0</ele><time>2026-04-19T06:57:52Z</time></trkpt><trkpt lat="45.04713462550795" lon="9.9871488476079"><ele>36.5</ele><time>2026-04-19T06:57:53Z</time></trkpt><trkpt lat="45.04704937210288" lon="9.987135531931868"><ele>36.0</ele><time>2026-04-19T06:57:54Z</time></trkpt><trkpt lat="45.04696600160411" lon="9.98712581795437"><ele>35.5</ele><time>2026-04-19T06:57:55Z</time></trkpt><trkpt lat="45.046880279794195" lon="9.987113944632107"><ele>35.0</ele><time>2026-04-19T06:57:56Z</time></trkpt><trkpt lat="45.04679531264122" lon="9.987103468670862"><ele>34.5</ele><time>2026-04-19T06:57:57Z</time></trkpt><trkpt lat="45.04670969337512" lon="9.987089515003671"><ele>34.0</ele><time>2026-04-19T06:57:58Z</time></trkpt><trkpt lat="45.046624292535235" lon="9.98707819540912"><ele>34.0</ele><time>2026-04-19T06:57:59Z</time></trkpt><trkpt lat="45.046541640864916" lon="9.987065947266947"><ele>34.0</ele><time>2026-04-19T06:58:00Z</time></trkpt><trkpt lat="45.04645706522166" lon="9.987055042721195"><ele>34.0</ele><time>2026-04-19T06:58:00.999Z</time></trkpt><trkpt lat="45.046373877897686" lon="9.987045217604074"><ele>34.0</ele><time>2026-04-19T06:58:01.999Z</time></trkpt><trkpt lat="45.0462899376459" lon="9.987038367218213"><ele>34.0</ele><time>2026-04-19T06:58:02.999Z</time></trkpt><trkpt lat="45.04620519872174" lon="9.98703263659993"><ele>34.0</ele><time>2026-04-19T06:58:03.999Z</time></trkpt><trkpt lat="45.046119070282074" lon="9.987029375204855"><ele>34.0</ele><time>2026-04-19T06:58:04.999Z</time></trkpt><trkpt lat="45.04603370095995" lon="9.98703231632355"><ele>34.0</ele><time>2026-04-19T06:58:05.999Z</time></trkpt><trkpt lat="45.04594880110787" lon="9.987043248795082"><ele>34.0</ele><time>2026-04-19T06:58:06.999Z</time></trkpt><trkpt lat="45.0458647680671" lon="9.987060700809435"><ele>34.0</ele><time>2026-04-19T06:58:07.999Z</time></trkpt><trkpt lat="45.04578023537173" lon="9.987084865256415"><ele>34.0</ele><time>2026-04-19T06:58:08.999Z</time></trkpt><trkpt lat="45.04569646898531" lon="9.987109757391424"><ele>34.0</ele><time>2026-04-19T06:58:09.999Z</time></trkpt><trkpt lat="45.04561260134501" lon="9.987134078591618"><ele>34.0</ele><time>2026-04-19T06:58:10.999Z</time></trkpt><trkpt lat="45.04552916000027" lon="9.987161459327726"><ele>34.0</ele><time>2026-04-19T06:58:11.999Z</time></trkpt><trkpt lat="45.04544620405836" lon="9.987190087537735"><ele>34.0</ele><time>2026-04-19T06:58:12.999Z</time></trkpt><trkpt lat="45.045361862887106" lon="9.987217283000339"><ele>34.0</ele><time>2026-04-19T06:58:13.999Z</time></trkpt><trkpt lat="45.045279825713656" lon="9.98724345610118"><ele>34.0</ele><time>2026-04-19T06:58:14.999Z</time></trkpt><trkpt lat="45.04519689803538" lon="9.987268587994018"><ele>34.0</ele><time>2026-04-19T06:58:15.999Z</time></trkpt><trkpt lat="45.045114726198136" lon="9.987297633736535"><ele>34.0</ele><time>2026-04-19T06:58:16.999Z</time></trkpt><trkpt lat="45.04503269322556" lon="9.987322878009603"><ele>34.0</ele><time>2026-04-19T06:58:17.999Z</time></trkpt><trkpt lat="45.04495033201878" lon="9.98734885112005"><ele>34.0</ele><time>2026-04-19T06:58:18.999Z</time></trkpt><trkpt lat="45.04486812877088" lon="9.987376425028012"><ele>34.0</ele><time>2026-04-19T06:58:19.999Z</time></trkpt><trkpt lat="45.04478584322893" lon="9.987402466111627"><ele>34.0</ele><time>2026-04-19T06:58:20.999Z</time></trkpt><trkpt lat="45.044704851507475" lon="9.987430463902156"><ele>34.0</ele><time>2026-04-19T06:58:21.999Z</time></trkpt><trkpt lat="45.04462383968391" lon="9.987455644613046"><ele>34.16666666666667</ele><time>2026-04-19T06:58:22.999Z</time></trkpt><trkpt lat="45.04454026934254" lon="9.987482458156366"><ele>34.333333333333336</ele><time>2026-04-19T06:58:23.999Z</time></trkpt><trkpt lat="45.04445773370426" lon="9.98750961588986"><ele>34.5</ele><time>2026-04-19T06:58:24.999Z</time></trkpt><trkpt lat="45.04437455140799" lon="9.98753777010415"><ele>34.666666666666664</ele><time>2026-04-19T06:58:25.999Z</time></trkpt><trkpt lat="45.04429139860893" lon="9.987562032455932"><ele>34.83333333333333</ele><time>2026-04-19T06:58:26.999Z</time></trkpt><trkpt lat="45.0442083619883" lon="9.987591558888846"><ele>35.0</ele><time>2026-04-19T06:58:27.999Z</time></trkpt><trkpt lat="45.04412655673578" lon="9.98761638145335"><ele>35.166666666666664</ele><time>2026-04-19T06:58:28.999Z</time></trkpt><trkpt lat="45.044043203025616" lon="9.987645646709836"><ele>35.33333333333333</ele><time>2026-04-19T06:58:29.999Z</time></trkpt><trkpt lat="45.043960754286836" lon="9.987672613710215"><ele>35.5</ele><time>2026-04-19T06:58:30.999Z</time></trkpt><trkpt lat="45.04387799002099" lon="9.987699705997867"><ele>35.666666666666664</ele><time>2026-04-19T06:58:31.999Z</time></trkpt><trkpt lat="45.043795478855294" lon="9.987726181095383"><ele>35.833333333333336</ele><time>2026-04-19T06:58:32.999Z</time></trkpt><trkpt lat="45.04371263688855" lon="9.987753474877708"><ele>36.0</ele><time>2026-04-19T06:58:33.999Z</time></trkpt><trkpt lat="45.04362906617124" lon="9.987781910959594"><ele>36.0</ele><time>2026-04-19T06:58:34.999Z</time></trkpt><trkpt lat="45.04354531204429" lon="9.987809282723536"><ele>36.0</ele><time>2026-04-19T06:58:35.999Z</time></trkpt><trkpt lat="45.04346152942404" lon="9.987834387290535"><ele>36.0</ele><time>2026-04-19T06:58:36.999Z</time></trkpt><trkpt lat="45.04337877542905" lon="9.98785976065687"><ele>36.0</ele><time>2026-04-19T06:58:37.999Z</time></trkpt><trkpt lat="45.043295296447646" lon="9.987888066712221"><ele>36.0</ele><time>2026-04-19T06:58:38.999Z</time></trkpt><trkpt lat="45.04321208470541" lon="9.987916981911315"><ele>36.0</ele><time>2026-04-19T06:58:39.999Z</time></trkpt><trkpt lat="45.043129366474886" lon="9.987945748162257"><ele>36.166666666666664</ele><time>2026-04-19T06:58:40.999Z</time></trkpt><trkpt lat="45.04304633145441" lon="9.987972930031242"><ele>36.333333333333336</ele><time>2026-04-19T06:58:41.999Z</time></trkpt><trkpt lat="45.042960693510594" lon="9.987999211126272"><ele>36.5</ele><time>2026-04-19T06:58:42.999Z</time></trkpt><trkpt lat="45.04287679924278" lon="9.988026671046477"><ele>36.66666666666667</ele><time>2026-04-19T06:58:43.999Z</time></trkpt><trkpt lat="45.04279306161973" lon="9.988053843030748"><ele>36.833333333333336</ele><time>2026-04-19T06:58:44.999Z</time></trkpt><trkpt lat="45.04270915774974" lon="9.988080011148257"><ele>37.0</ele><time>2026-04-19T06:58:45.999Z</time></trkpt><trkpt lat="45.04262575847035" lon="9.98810588924013"><ele>37.0</ele><time>2026-04-19T06:58:46.999Z</time></trkpt><trkpt lat="45.04254270285946" lon="9.98813502696179"><ele>37.0</ele><time>2026-04-19T06:58:47.999Z</time></trkpt><trkpt lat="45.04245898949957" lon="9.988161003406296"><ele>37.0</ele><time>2026-04-19T06:58:48.999Z</time></trkpt><trkpt lat="45.042376727296144" lon="9.988188961449032"><ele>37.0</ele><time>2026-04-19T06:58:49.999Z</time></trkpt><trkpt lat="45.042293600185126" lon="9.98821506413292"><ele>37.0</ele><time>2026-04-19T06:58:50.999Z</time></trkpt><trkpt lat="45.042209194134976" lon="9.988240112969708"><ele>37.0</ele><time>2026-04-19T06:58:51.999Z</time></trkpt><trkpt lat="45.04212509017137" lon="9.988266780014303"><ele>37.0</ele><time>2026-04-19T06:58:52.999Z</time></trkpt><trkpt lat="45.04204104586833" lon="9.98829310939213"><ele>37.0</ele><time>2026-04-19T06:58:53.999Z</time></trkpt><trkpt lat="45.04195610261198" lon="9.98832031767649"><ele>37.0</ele><time>2026-04-19T06:58:54.998Z</time></trkpt><trkpt lat="45.041873784865366" lon="9.988347312313314"><ele>37.0</ele><time>2026-04-19T06:58:55.998Z</time></trkpt><trkpt lat="45.04178944487581" lon="9.98837715802983"><ele>37.0</ele><time>2026-04-19T06:58:56.998Z</time></trkpt><trkpt lat="45.04170396605336" lon="9.988404652218126"><ele>37.0</ele><time>2026-04-19T06:58:58Z</time></trkpt><trkpt lat="45.04162050795084" lon="9.988433576521118"><ele>36.833333333333336</ele><time>2026-04-19T06:58:59Z</time></trkpt><trkpt lat="45.0415376459689" lon="9.988462185970999"><ele>36.66666666666667</ele><time>2026-04-19T06:59:00Z</time></trkpt><trkpt lat="45.04145336929495" lon="9.98848886267097"><ele>36.5</ele><time>2026-04-19T06:59:01Z</time></trkpt><trkpt lat="45.04137127573679" lon="9.988515613556062"><ele>36.333333333333336</ele><time>2026-04-19T06:59:02Z</time></trkpt><trkpt lat="45.04128799676691" lon="9.988543556648702"><ele>36.166666666666664</ele><time>2026-04-19T06:59:03Z</time></trkpt><trkpt lat="45.041205807161845" lon="9.988571560698617"><ele>36.0</ele><time>2026-04-19T06:59:04Z</time></trkpt><trkpt lat="45.04112171335863" lon="9.988596195583492"><ele>36.0</ele><time>2026-04-19T06:59:05Z</time></trkpt><trkpt lat="45.04103872800653" lon="9.988623165571076"><ele>36.0</ele><time>2026-04-19T06:59:06Z</time></trkpt><trkpt lat="45.04095332115442" lon="9.98864836987486"><ele>36.0</ele><time>2026-04-19T06:59:07Z</time></trkpt><trkpt lat="45.040869811319865" lon="9.98867491038027"><ele>36.0</ele><time>2026-04-19T06:59:08Z</time></trkpt><trkpt lat="45.04078425348467" lon="9.988698921665643"><ele>36.0</ele><time>2026-04-19T06:59:09Z</time></trkpt><trkpt lat="45.04070150577561" lon="9.988726049513343"><ele>36.0</ele><time>2026-04-19T06:59:10Z</time></trkpt><trkpt lat="45.04061873812853" lon="9.988753530655442"><ele>36.166666666666664</ele><time>2026-04-19T06:59:11Z</time></trkpt><trkpt lat="45.04053548821651" lon="9.988782473066207"><ele>36.333333333333336</ele><time>2026-04-19T06:59:12Z</time></trkpt><trkpt lat="45.04045165106931" lon="9.98880464020859"><ele>36.5</ele><time>2026-04-19T06:59:13Z</time></trkpt><trkpt lat="45.04036927187167" lon="9.988833678816711"><ele>36.66666666666667</ele><time>2026-04-19T06:59:14Z</time></trkpt><trkpt lat="45.04028388451128" lon="9.988859673256878"><ele>36.833333333333336</ele><time>2026-04-19T06:59:15Z</time></trkpt><trkpt lat="45.04020299761607" lon="9.98888753943829"><ele>37.0</ele><time>2026-04-19T06:59:16Z</time></trkpt><trkpt lat="45.04011737880588" lon="9.988913752956392"><ele>37.0</ele><time>2026-04-19T06:59:17Z</time></trkpt><trkpt lat="45.04003584012634" lon="9.988943926265689"><ele>37.0</ele><time>2026-04-19T06:59:18Z</time></trkpt><trkpt lat="45.03995156074874" lon="9.988968177803093"><ele>37.0</ele><time>2026-04-19T06:59:19Z</time></trkpt><trkpt lat="45.03986694638707" lon="9.98899702497782"><ele>37.0</ele><time>2026-04-19T06:59:20Z</time></trkpt><trkpt lat="45.039785043832914" lon="9.9890239388438"><ele>37.0</ele><time>2026-04-19T06:59:21Z</time></trkpt><trkpt lat="45.03969942187023" lon="9.989047887257568"><ele>37.0</ele><time>2026-04-19T06:59:22Z</time></trkpt><trkpt lat="45.039617624946274" lon="9.989075884931118"><ele>36.833333333333336</ele><time>2026-04-19T06:59:23Z</time></trkpt><trkpt lat="45.0395318650607" lon="9.989102874387097"><ele>36.66666666666667</ele><time>2026-04-19T06:59:24Z</time></trkpt><trkpt lat="45.03944976520149" lon="9.989131356989951"><ele>36.5</ele><time>2026-04-19T06:59:25Z</time></trkpt><trkpt lat="45.03936741342513" lon="9.989156937428868"><ele>36.333333333333336</ele><time>2026-04-19T06:59:26Z</time></trkpt><trkpt lat="45.03928297950854" lon="9.989184693053716"><ele>36.166666666666664</ele><time>2026-04-19T06:59:27Z</time></trkpt><trkpt lat="45.03920002907142" lon="9.989209340338878"><ele>36.0</ele><time>2026-04-19T06:59:28Z</time></trkpt><trkpt lat="45.03911739054954" lon="9.989236852025229"><ele>35.5</ele><time>2026-04-19T06:59:29Z</time></trkpt><trkpt lat="45.039032761988544" lon="9.989262768348945"><ele>35.0</ele><time>2026-04-19T06:59:30Z</time></trkpt><trkpt lat="45.03894988382764" lon="9.98929094373433"><ele>34.5</ele><time>2026-04-19T06:59:31Z</time></trkpt><trkpt lat="45.038865246458094" lon="9.989321491932591"><ele>34.0</ele><time>2026-04-19T06:59:32Z</time></trkpt><trkpt lat="45.03878502498781" lon="9.989348347571712"><ele>33.5</ele><time>2026-04-19T06:59:33Z</time></trkpt><trkpt lat="45.038701515535585" lon="9.989378226211203"><ele>33.0</ele><time>2026-04-19T06:59:34Z</time></trkpt><trkpt lat="45.038619298254325" lon="9.9894088566211"><ele>33.0</ele><time>2026-04-19T06:59:35Z</time></trkpt><trkpt lat="45.03853719333111" lon="9.989438054293542"><ele>33.0</ele><time>2026-04-19T06:59:36Z</time></trkpt><trkpt lat="45.03845344111388" lon="9.98946873147719"><ele>33.0</ele><time>2026-04-19T06:59:37Z</time></trkpt><trkpt lat="45.03836979936416" lon="9.989499091323705"><ele>33.0</ele><time>2026-04-19T06:59:38Z</time></trkpt><trkpt lat="45.038288580217674" lon="9.98953248226358"><ele>33.0</ele><time>2026-04-19T06:59:39Z</time></trkpt><trkpt lat="45.038204898805304" lon="9.989566541665486"><ele>33.0</ele><time>2026-04-19T06:59:40Z</time></trkpt><trkpt lat="45.03812319500765" lon="9.989599171395398"><ele>33.833333333333336</ele><time>2026-04-19T06:59:41Z</time></trkpt><trkpt lat="45.03804185599439" lon="9.989635142746746"><ele>34.666666666666664</ele><time>2026-04-19T06:59:42Z</time></trkpt><trkpt lat="45.03795872120617" lon="9.989671997579551"><ele>35.5</ele><time>2026-04-19T06:59:43Z</time></trkpt><trkpt lat="45.03787776231622" lon="9.989708666662215"><ele>36.33333333333333</ele><time>2026-04-19T06:59:44Z</time></trkpt><trkpt lat="45.03779601096609" lon="9.989741630248231"><ele>37.166666666666664</ele><time>2026-04-19T06:59:45Z</time></trkpt><trkpt lat="45.037719058677546" lon="9.989779012776795"><ele>38.0</ele><time>2026-04-19T06:59:46Z</time></trkpt><trkpt lat="45.03763610009118" lon="9.989816854265225"><ele>38.0</ele><time>2026-04-19T06:59:47Z</time></trkpt><trkpt lat="45.03755934703799" lon="9.98985340375858"><ele>38.0</ele><time>2026-04-19T06:59:48Z</time></trkpt><trkpt lat="45.03747954017376" lon="9.98989067024411"><ele>38.0</ele><time>2026-04-19T06:59:49Z</time></trkpt><trkpt lat="45.03739954194751" lon="9.989933138070487"><ele>38.0</ele><time>2026-04-19T06:59:50Z</time></trkpt><trkpt lat="45.037322995631314" lon="9.989978365371107"><ele>38.0</ele><time>2026-04-19T06:59:51Z</time></trkpt><trkpt lat="45.03724802930172" lon="9.990030977862164"><ele>38.0</ele><time>2026-04-19T06:59:52Z</time></trkpt><trkpt lat="45.037172088954144" lon="9.990081606206624"><ele>38.0</ele><time>2026-04-19T06:59:53Z</time></trkpt><trkpt lat="45.03709859845287" lon="9.990140574541096"><ele>38.0</ele><time>2026-04-19T06:59:54Z</time></trkpt><trkpt lat="45.037025773240536" lon="9.990196233791446"><ele>38.0</ele><time>2026-04-19T06:59:55Z</time></trkpt><trkpt lat="45.036951655796926" lon="9.990250049082992"><ele>38.0</ele><time>2026-04-19T06:59:56Z</time></trkpt><trkpt lat="45.03687583264795" lon="9.990305567329674"><ele>38.0</ele><time>2026-04-19T06:59:57Z</time></trkpt><trkpt lat="45.03680121559792" lon="9.990359691358647"><ele>38.0</ele><time>2026-04-19T06:59:58Z</time></trkpt><trkpt lat="45.03672463838521" lon="9.990407262695538"><ele>38.0</ele><time>2026-04-19T06:59:59Z</time></trkpt><trkpt lat="45.036645901129475" lon="9.990442146531972"><ele>38.0</ele><time>2026-04-19T07:00:00Z</time></trkpt><trkpt lat="45.03656106088091" lon="9.9904564125007"><ele>38.0</ele><time>2026-04-19T07:00:01Z</time></trkpt><trkpt lat="45.03647683678817" lon="9.99045583655748"><ele>38.0</ele><time>2026-04-19T07:00:01.999Z</time></trkpt><trkpt lat="45.03639247969315" lon="9.990434576987921"><ele>38.0</ele><time>2026-04-19T07:00:02.999Z</time></trkpt><trkpt lat="45.03630857720687" lon="9.990415893863595"><ele>38.0</ele><time>2026-04-19T07:00:03.999Z</time></trkpt><trkpt lat="45.036222595752186" lon="9.990391120138291"><ele>38.0</ele><time>2026-04-19T07:00:04.999Z</time></trkpt><trkpt lat="45.03614060540018" lon="9.990373606100578"><ele>38.0</ele><time>2026-04-19T07:00:05.999Z</time></trkpt><trkpt lat="45.036056980540934" lon="9.990353400488729"><ele>38.0</ele><time>2026-04-19T07:00:06.999Z</time></trkpt><trkpt lat="45.03597569097045" lon="9.990333092174872"><ele>38.0</ele><time>2026-04-19T07:00:07.999Z</time></trkpt><trkpt lat="45.03588883758943" lon="9.990314834219713"><ele>38.0</ele><time>2026-04-19T07:00:08.999Z</time></trkpt><trkpt lat="45.03580662112075" lon="9.99029858178015"><ele>38.0</ele><time>2026-04-19T07:00:09.999Z</time></trkpt><trkpt lat="45.03572338812945" lon="9.99027791966314"><ele>37.83333333333333</ele><time>2026-04-19T07:00:10.999Z</time></trkpt><trkpt lat="45.03563732052925" lon="9.990258108852219"><ele>37.666666666666664</ele><time>2026-04-19T07:00:11.999Z</time></trkpt><trkpt lat="45.035556572503644" lon="9.990232706871089"><ele>37.5</ele><time>2026-04-19T07:00:12.999Z</time></trkpt><trkpt lat="45.035474832398016" lon="9.990206223007204"><ele>37.333333333333336</ele><time>2026-04-19T07:00:13.999Z</time></trkpt><trkpt lat="45.03539078348776" lon="9.990175048686199"><ele>37.16666666666667</ele><time>2026-04-19T07:00:14.999Z</time></trkpt><trkpt lat="45.03530916874765" lon="9.990142818153688"><ele>37.0</ele><time>2026-04-19T07:00:15.999Z</time></trkpt><trkpt lat="45.035229172332016" lon="9.990106640758434"><ele>37.0</ele><time>2026-04-19T07:00:16.999Z</time></trkpt><trkpt lat="45.03515074561404" lon="9.99006780398667"><ele>37.0</ele><time>2026-04-19T07:00:17.999Z</time></trkpt><trkpt lat="45.035071700210224" lon="9.99002601916945"><ele>37.0</ele><time>2026-04-19T07:00:18.999Z</time></trkpt><trkpt lat="45.03499234245852" lon="9.98998562407668"><ele>37.0</ele><time>2026-04-19T07:00:19.999Z</time></trkpt><trkpt lat="45.03491715776245" lon="9.989937317755537"><ele>37.0</ele><time>2026-04-19T07:00:20.999Z</time></trkpt><trkpt lat="45.03484060219261" lon="9.98988951139176"><ele>37.0</ele><time>2026-04-19T07:00:21.999Z</time></trkpt><trkpt lat="45.03476456056471" lon="9.989844997061883"><ele>37.5</ele><time>2026-04-19T07:00:22.999Z</time></trkpt><trkpt lat="45.034689181608535" lon="9.989793635571573"><ele>38.0</ele><time>2026-04-19T07:00:23.999Z</time></trkpt><trkpt lat="45.03461527326296" lon="9.989747975600919"><ele>38.5</ele><time>2026-04-19T07:00:24.999Z</time></trkpt><trkpt lat="45.03453551989408" lon="9.989699732122181"><ele>39.0</ele><time>2026-04-19T07:00:25.999Z</time></trkpt><trkpt lat="45.034459614375685" lon="9.989649670151609"><ele>39.5</ele><time>2026-04-19T07:00:26.999Z</time></trkpt><trkpt lat="45.03438530053828" lon="9.98960397366841"><ele>40.0</ele><time>2026-04-19T07:00:27.999Z</time></trkpt><trkpt lat="45.03430960549407" lon="9.989552669159828"><ele>40.0</ele><time>2026-04-19T07:00:28.999Z</time></trkpt><trkpt lat="45.03423452562942" lon="9.989503034958604"><ele>40.0</ele><time>2026-04-19T07:00:29.999Z</time></trkpt><trkpt lat="45.03415827181138" lon="9.989454664174216"><ele>40.0</ele><time>2026-04-19T07:00:30.999Z</time></trkpt><trkpt lat="45.03407865425652" lon="9.989405581352132"><ele>40.0</ele><time>2026-04-19T07:00:31.999Z</time></trkpt><trkpt lat="45.034002088775125" lon="9.989359235002368"><ele>40.0</ele><time>2026-04-19T07:00:32.999Z</time></trkpt><trkpt lat="45.03392028176384" lon="9.989319951931096"><ele>40.0</ele><time>2026-04-19T07:00:33.999Z</time></trkpt><trkpt lat="45.03383819687354" lon="9.989280176781422"><ele>39.833333333333336</ele><time>2026-04-19T07:00:34.999Z</time></trkpt><trkpt lat="45.03375775932276" lon="9.989244247126043"><ele>39.66666666666667</ele><time>2026-04-19T07:00:35.999Z</time></trkpt><trkpt lat="45.033673548095926" lon="9.9892134318757"><ele>39.5</ele><time>2026-04-19T07:00:36.999Z</time></trkpt><trkpt lat="45.03358798320342" lon="9.98918874418594"><ele>39.333333333333336</ele><time>2026-04-19T07:00:37.999Z</time></trkpt><trkpt lat="45.033503962607305" lon="9.98916254103345"><ele>39.166666666666664</ele><time>2026-04-19T07:00:38.999Z</time></trkpt><trkpt lat="45.033420965499985" lon="9.989138805691384"><ele>39.0</ele><time>2026-04-19T07:00:39.999Z</time></trkpt><trkpt lat="45.033335656051136" lon="9.989117972651409"><ele>39.0</ele><time>2026-04-19T07:00:40.999Z</time></trkpt><trkpt lat="45.03324992938236" lon="9.989099905133559"><ele>39.0</ele><time>2026-04-19T07:00:41.999Z</time></trkpt><trkpt lat="45.03316552375634" lon="9.989081830039787"><ele>39.0</ele><time>2026-04-19T07:00:42.999Z</time></trkpt><trkpt lat="45.033080974963156" lon="9.98906427166541"><ele>39.0</ele><time>2026-04-19T07:00:43.999Z</time></trkpt><trkpt lat="45.03299724453443" lon="9.989048752464868"><ele>39.0</ele><time>2026-04-19T07:00:44.999Z</time></trkpt><trkpt lat="45.03291577479603" lon="9.98903084522541"><ele>39.0</ele><time>2026-04-19T07:00:45.999Z</time></trkpt><trkpt lat="45.032833824710025" lon="9.98901216163017"><ele>39.0</ele><time>2026-04-19T07:00:46.999Z</time></trkpt><trkpt lat="45.032751758542" lon="9.988989303846326"><ele>39.0</ele><time>2026-04-19T07:00:47.999Z</time></trkpt><trkpt lat="45.032669010385824" lon="9.988976728384351"><ele>39.0</ele><time>2026-04-19T07:00:48.999Z</time></trkpt><trkpt lat="45.03258629751392" lon="9.98896001217052"><ele>39.0</ele><time>2026-04-19T07:00:49.999Z</time></trkpt><trkpt lat="45.032503915180435" lon="9.988941261554855"><ele>39.0</ele><time>2026-04-19T07:00:50.999Z</time></trkpt><trkpt lat="45.032420054845424" lon="9.988923050197316"><ele>39.0</ele><time>2026-04-19T07:00:51.999Z</time></trkpt><trkpt lat="45.03233547687194" lon="9.988919180839899"><ele>39.0</ele><time>2026-04-19T07:00:52.999Z</time></trkpt><trkpt lat="45.032251475672034" lon="9.988917345735139"><ele>39.0</ele><time>2026-04-19T07:00:53.999Z</time></trkpt><trkpt lat="45.0321675331508" lon="9.988924050850711"><ele>39.0</ele><time>2026-04-19T07:00:54.999Z</time></trkpt><trkpt lat="45.03208270163248" lon="9.988934805612612"><ele>39.0</ele><time>2026-04-19T07:00:55.999Z</time></trkpt><trkpt lat="45.031997311415196" lon="9.988957904280705"><ele>39.0</ele><time>2026-04-19T07:00:56.998Z</time></trkpt><trkpt lat="45.03191506720892" lon="9.988991181761934"><ele>39.0</ele><time>2026-04-19T07:00:57.998Z</time></trkpt><trkpt lat="45.03183483363584" lon="9.989032004247068"><ele>39.0</ele><time>2026-04-19T07:00:58.998Z</time></trkpt><trkpt lat="45.03175769664359" lon="9.989081229359533"><ele>39.0</ele><time>2026-04-19T07:00:59.998Z</time></trkpt><trkpt lat="45.031685653964075" lon="9.989138179731384"><ele>39.0</ele><time>2026-04-19T07:01:00.998Z</time></trkpt><trkpt lat="45.03161634971709" lon="9.989201647941428"><ele>39.0</ele><time>2026-04-19T07:01:01.998Z</time></trkpt><trkpt lat="45.031550340765556" lon="9.9892730632135"><ele>39.0</ele><time>2026-04-19T07:01:03Z</time></trkpt><trkpt lat="45.031484884613775" lon="9.989348142106573"><ele>39.0</ele><time>2026-04-19T07:01:04Z</time></trkpt><trkpt lat="45.031427508619586" lon="9.989430310633404"><ele>38.333333333333336</ele><time>2026-04-19T07:01:05Z</time></trkpt><trkpt lat="45.03137188604279" lon="9.98951662035841"><ele>37.666666666666664</ele><time>2026-04-19T07:01:06Z</time></trkpt><trkpt lat="45.03132392900698" lon="9.98960893814939"><ele>37.0</ele><time>2026-04-19T07:01:07Z</time></trkpt><trkpt lat="45.031276887343076" lon="9.989705691801435"><ele>36.33333333333333</ele><time>2026-04-19T07:01:08Z</time></trkpt><trkpt lat="45.031235640135456" lon="9.989807052305082"><ele>35.666666666666664</ele><time>2026-04-19T07:01:09Z</time></trkpt><trkpt lat="45.03119794396802" lon="9.989910150144834"><ele>35.0</ele><time>2026-04-19T07:01:10Z</time></trkpt><trkpt lat="45.03116335960783" lon="9.990014522953473"><ele>35.0</ele><time>2026-04-19T07:01:11Z</time></trkpt><trkpt lat="45.03112849684496" lon="9.990116663665988"><ele>35.0</ele><time>2026-04-19T07:01:12Z</time></trkpt><trkpt lat="45.03109153634405" lon="9.990219132548296"><ele>35.0</ele><time>2026-04-19T07:01:13Z</time></trkpt><trkpt lat="45.03105296246562" lon="9.990320805834298"><ele>35.0</ele><time>2026-04-19T07:01:14Z</time></trkpt><trkpt lat="45.03101669293398" lon="9.990424730374512"><ele>35.0</ele><time>2026-04-19T07:01:15Z</time></trkpt><trkpt lat="45.03097902305269" lon="9.990527111159668"><ele>35.0</ele><time>2026-04-19T07:01:16Z</time></trkpt><trkpt lat="45.03094195643454" lon="9.990630705330613"><ele>35.0</ele><time>2026-04-19T07:01:17Z</time></trkpt><trkpt lat="45.030903396973" lon="9.99073394926503"><ele>35.0</ele><time>2026-04-19T07:01:18Z</time></trkpt><trkpt lat="45.030864491309615" lon="9.99084101419465"><ele>35.0</ele><time>2026-04-19T07:01:19Z</time></trkpt><trkpt lat="45.03082705423674" lon="9.99094339473382"><ele>35.0</ele><time>2026-04-19T07:01:20Z</time></trkpt><trkpt lat="45.030790555289215" lon="9.991045076194288"><ele>35.0</ele><time>2026-04-19T07:01:21Z</time></trkpt><trkpt lat="45.03075364580356" lon="9.991147872140152"><ele>35.0</ele><time>2026-04-19T07:01:22Z</time></trkpt><trkpt lat="45.03071797196041" lon="9.991255567881126"><ele>35.166666666666664</ele><time>2026-04-19T07:01:23Z</time></trkpt><trkpt lat="45.03068113356296" lon="9.991358854500897"><ele>35.33333333333333</ele><time>2026-04-19T07:01:24Z</time></trkpt><trkpt lat="45.0306432134558" lon="9.991463132187421"><ele>35.5</ele><time>2026-04-19T07:01:25Z</time></trkpt><trkpt lat="45.03060767344068" lon="9.991570777481394"><ele>35.666666666666664</ele><time>2026-04-19T07:01:26Z</time></trkpt><trkpt lat="45.03057117789296" lon="9.991675787413875"><ele>35.833333333333336</ele><time>2026-04-19T07:01:27Z</time></trkpt><trkpt lat="45.03053344423146" lon="9.991778280322722"><ele>36.0</ele><time>2026-04-19T07:01:28Z</time></trkpt><trkpt lat="45.030496275994665" lon="9.991884875479265"><ele>36.0</ele><time>2026-04-19T07:01:29Z</time></trkpt><trkpt lat="45.03045779358991" lon="9.991991134040155"><ele>36.0</ele><time>2026-04-19T07:01:30Z</time></trkpt><trkpt lat="45.030421361625045" lon="9.992093219603314"><ele>36.0</ele><time>2026-04-19T07:01:31Z</time></trkpt><trkpt lat="45.03038368664522" lon="9.992198492640382"><ele>36.0</ele><time>2026-04-19T07:01:32Z</time></trkpt><trkpt lat="45.030345824282485" lon="9.992303744218304"><ele>36.0</ele><time>2026-04-19T07:01:33Z</time></trkpt><trkpt lat="45.0303100674778" lon="9.99240468818838"><ele>36.0</ele><time>2026-04-19T07:01:34Z</time></trkpt><trkpt lat="45.03027340457908" lon="9.992506079997673"><ele>36.333333333333336</ele><time>2026-04-19T07:01:35Z</time></trkpt><trkpt lat="45.03023971196618" lon="9.992607081594507"><ele>36.666666666666664</ele><time>2026-04-19T07:01:36Z</time></trkpt><trkpt lat="45.030202520673" lon="9.992703704380222"><ele>37.0</ele><time>2026-04-19T07:01:37Z</time></trkpt><trkpt lat="45.03016615912374" lon="9.992805003563252"><ele>37.33333333333333</ele><time>2026-04-19T07:01:38Z</time></trkpt><trkpt lat="45.03012752512543" lon="9.992911401021486"><ele>37.666666666666664</ele><time>2026-04-19T07:01:39Z</time></trkpt><trkpt lat="45.03008896070579" lon="9.993011532143823"><ele>38.0</ele><time>2026-04-19T07:01:40Z</time></trkpt><trkpt lat="45.030049624907456" lon="9.993115238358222"><ele>38.0</ele><time>2026-04-19T07:01:41Z</time></trkpt><trkpt lat="45.030012260752116" lon="9.993221218102198"><ele>38.0</ele><time>2026-04-19T07:01:42Z</time></trkpt><trkpt lat="45.029974964656674" lon="9.993326183121933"><ele>38.0</ele><time>2026-04-19T07:01:43Z</time></trkpt><trkpt lat="45.02993742920187" lon="9.993431353129653"><ele>38.0</ele><time>2026-04-19T07:01:44Z</time></trkpt><trkpt lat="45.029899558091316" lon="9.993533468592796"><ele>38.0</ele><time>2026-04-19T07:01:45Z</time></trkpt><trkpt lat="45.029861515813444" lon="9.993636759505877"><ele>38.0</ele><time>2026-04-19T07:01:46Z</time></trkpt><trkpt lat="45.029823468271985" lon="9.993740032720703"><ele>38.33333333333333</ele><time>2026-04-19T07:01:47Z</time></trkpt><trkpt lat="45.02978644879811" lon="9.993843683085231"><ele>38.666666666666664</ele><time>2026-04-19T07:01:48Z</time></trkpt><trkpt lat="45.02975113778732" lon="9.993947542838583"><ele>39.0</ele><time>2026-04-19T07:01:49Z</time></trkpt><trkpt lat="45.029710206507744" lon="9.994053183706987"><ele>39.333333333333336</ele><time>2026-04-19T07:01:50Z</time></trkpt><trkpt lat="45.02967375871081" lon="9.994154323415922"><ele>39.66666666666667</ele><time>2026-04-19T07:01:51Z</time></trkpt><trkpt lat="45.02963844998458" lon="9.99425754442904"><ele>40.0</ele><time>2026-04-19T07:01:52Z</time></trkpt><trkpt lat="45.02959747869597" lon="9.994363832394857"><ele>40.0</ele><time>2026-04-19T07:01:53Z</time></trkpt><trkpt lat="45.029561438882354" lon="9.994466491862909"><ele>40.0</ele><time>2026-04-19T07:01:54Z</time></trkpt><trkpt lat="45.02952413681394" lon="9.99456854954747"><ele>40.0</ele><time>2026-04-19T07:01:55Z</time></trkpt><trkpt lat="45.02948568784007" lon="9.994673560909288"><ele>40.0</ele><time>2026-04-19T07:01:56Z</time></trkpt><trkpt lat="45.02944932261883" lon="9.994775488516385"><ele>40.0</ele><time>2026-04-19T07:01:57Z</time></trkpt><trkpt lat="45.02941064025161" lon="9.994880674936368"><ele>40.0</ele><time>2026-04-19T07:01:58Z</time></trkpt><trkpt lat="45.029375545473705" lon="9.9949801459074"><ele>39.833333333333336</ele><time>2026-04-19T07:01:59Z</time></trkpt><trkpt lat="45.02933825445664" lon="9.995083330014845"><ele>39.66666666666667</ele><time>2026-04-19T07:02:00Z</time></trkpt><trkpt lat="45.029300643557065" lon="9.995187367302073"><ele>39.5</ele><time>2026-04-19T07:02:01Z</time></trkpt><trkpt lat="45.029261866888646" lon="9.995284098305492"><ele>39.333333333333336</ele><time>2026-04-19T07:02:02Z</time></trkpt><trkpt lat="45.02922591850922" lon="9.99538931525756"><ele>39.166666666666664</ele><time>2026-04-19T07:02:03Z</time></trkpt><trkpt lat="45.029187523110345" lon="9.995490916620925"><ele>39.0</ele><time>2026-04-19T07:02:04Z</time></trkpt><trkpt lat="45.029152110454426" lon="9.99559325172416"><ele>39.166666666666664</ele><time>2026-04-19T07:02:05Z</time></trkpt><trkpt lat="45.02911528186596" lon="9.995695261378385"><ele>39.333333333333336</ele><time>2026-04-19T07:02:05.999Z</time></trkpt><trkpt lat="45.029079470410394" lon="9.995796608180974"><ele>39.5</ele><time>2026-04-19T07:02:06.999Z</time></trkpt><trkpt lat="45.02904249335424" lon="9.995899510189343"><ele>39.66666666666667</ele><time>2026-04-19T07:02:07.999Z</time></trkpt><trkpt lat="45.029004966382885" lon="9.99600059370408"><ele>39.833333333333336</ele><time>2026-04-19T07:02:08.999Z</time></trkpt><trkpt lat="45.02896949014304" lon="9.99610292746464"><ele>40.0</ele><time>2026-04-19T07:02:09.999Z</time></trkpt><trkpt lat="45.02893297472865" lon="9.996205557551674"><ele>40.0</ele><time>2026-04-19T07:02:10.999Z</time></trkpt><trkpt lat="45.02889316499306" lon="9.996310965129647"><ele>40.0</ele><time>2026-04-19T07:02:11.999Z</time></trkpt><trkpt lat="45.028858339384385" lon="9.996416263799574"><ele>40.0</ele><time>2026-04-19T07:02:12.999Z</time></trkpt><trkpt lat="45.028821437055534" lon="9.996517264772274"><ele>40.0</ele><time>2026-04-19T07:02:13.999Z</time></trkpt><trkpt lat="45.02878296993821" lon="9.99662153894162"><ele>40.0</ele><time>2026-04-19T07:02:14.999Z</time></trkpt><trkpt lat="45.02874476275127" lon="9.996724330753638"><ele>40.0</ele><time>2026-04-19T07:02:15.999Z</time></trkpt><trkpt lat="45.028706376082305" lon="9.996829832250917"><ele>40.16666666666667</ele><time>2026-04-19T07:02:16.999Z</time></trkpt><trkpt lat="45.02866977435903" lon="9.99693249151636"><ele>40.333333333333336</ele><time>2026-04-19T07:02:17.999Z</time></trkpt><trkpt lat="45.02863364216124" lon="9.997036415846047"><ele>40.5</ele><time>2026-04-19T07:02:18.999Z</time></trkpt><trkpt lat="45.02859623703115" lon="9.997140692708978"><ele>40.666666666666664</ele><time>2026-04-19T07:02:19.999Z</time></trkpt><trkpt lat="45.02855840739269" lon="9.99724384367192"><ele>40.83333333333333</ele><time>2026-04-19T07:02:20.999Z</time></trkpt><trkpt lat="45.028519977470836" lon="9.997347418102414"><ele>41.0</ele><time>2026-04-19T07:02:21.999Z</time></trkpt><trkpt lat="45.02848239377197" lon="9.997449817777436"><ele>41.0</ele><time>2026-04-19T07:02:22.999Z</time></trkpt><trkpt lat="45.028445330450964" lon="9.99755345829479"><ele>41.0</ele><time>2026-04-19T07:02:23.999Z</time></trkpt><trkpt lat="45.02840840050058" lon="9.997657378639394"><ele>41.0</ele><time>2026-04-19T07:02:24.999Z</time></trkpt><trkpt lat="45.02837013282086" lon="9.99776306053499"><ele>41.0</ele><time>2026-04-19T07:02:25.999Z</time></trkpt><trkpt lat="45.028332216113526" lon="9.997868556021817"><ele>41.0</ele><time>2026-04-19T07:02:26.999Z</time></trkpt><trkpt lat="45.02829676803338" lon="9.997970528644494"><ele>41.0</ele><time>2026-04-19T07:02:27.999Z</time></trkpt><trkpt lat="45.028259716564804" lon="9.998074612159092"><ele>41.166666666666664</ele><time>2026-04-19T07:02:28.999Z</time></trkpt><trkpt lat="45.0282211068407" lon="9.998177134363829"><ele>41.33333333333333</ele><time>2026-04-19T07:02:29.999Z</time></trkpt><trkpt lat="45.02817550509145" lon="9.998269608673947"><ele>41.5</ele><time>2026-04-19T07:02:30.999Z</time></trkpt><trkpt lat="45.028114663078476" lon="9.998344656086166"><ele>41.666666666666664</ele><time>2026-04-19T07:02:31.999Z</time></trkpt><trkpt lat="45.028034520756044" lon="9.99837634506816"><ele>41.833333333333336</ele><time>2026-04-19T07:02:32.999Z</time></trkpt><trkpt lat="45.02794933514507" lon="9.99834228957914"><ele>42.0</ele><time>2026-04-19T07:02:33.999Z</time></trkpt><trkpt lat="45.02787527082946" lon="9.998282553247703"><ele>42.0</ele><time>2026-04-19T07:02:34.999Z</time></trkpt><trkpt lat="45.027803364349495" lon="9.998217978389656"><ele>42.0</ele><time>2026-04-19T07:02:35.999Z</time></trkpt><trkpt lat="45.027730772402926" lon="9.998158810451164"><ele>42.0</ele><time>2026-04-19T07:02:36.999Z</time></trkpt><trkpt lat="45.0276584408814" lon="9.998102319004474"><ele>42.0</ele><time>2026-04-19T07:02:37.999Z</time></trkpt><trkpt lat="45.02758540502359" lon="9.998046410022804"><ele>42.0</ele><time>2026-04-19T07:02:38.999Z</time></trkpt><trkpt lat="45.02751260917234" lon="9.997993831696558"><ele>42.0</ele><time>2026-04-19T07:02:39.999Z</time></trkpt><trkpt lat="45.02743850223954" lon="9.997940579900586"><ele>41.833333333333336</ele><time>2026-04-19T07:02:40.999Z</time></trkpt><trkpt lat="45.02736602382991" lon="9.99788814300872"><ele>41.666666666666664</ele><time>2026-04-19T07:02:41.999Z</time></trkpt><trkpt lat="45.02729528895725" lon="9.997834042855729"><ele>41.5</ele><time>2026-04-19T07:02:42.999Z</time></trkpt><trkpt lat="45.02722261388384" lon="9.997780032060339"><ele>41.33333333333333</ele><time>2026-04-19T07:02:43.999Z</time></trkpt><trkpt lat="45.027148916485714" lon="9.997727303709794"><ele>41.166666666666664</ele><time>2026-04-19T07:02:44.999Z</time></trkpt><trkpt lat="45.02707589095167" lon="9.997676126517666"><ele>41.0</ele><time>2026-04-19T07:02:45.999Z</time></trkpt><trkpt lat="45.027002735511054" lon="9.997623151469684"><ele>41.0</ele><time>2026-04-19T07:02:46.999Z</time></trkpt><trkpt lat="45.02692752070486" lon="9.997570057822259"><ele>41.0</ele><time>2026-04-19T07:02:47.999Z</time></trkpt><trkpt lat="45.0268523367566" lon="9.997519621551964"><ele>41.0</ele><time>2026-04-19T07:02:48.999Z</time></trkpt><trkpt lat="45.02677450157671" lon="9.997476145486182"><ele>41.0</ele><time>2026-04-19T07:02:49.999Z</time></trkpt><trkpt lat="45.02669286158692" lon="9.99745667717559"><ele>41.0</ele><time>2026-04-19T07:02:50.999Z</time></trkpt><trkpt lat="45.02660746240454" lon="9.997487050590301"><ele>41.0</ele><time>2026-04-19T07:02:51.999Z</time></trkpt><trkpt lat="45.026530376702574" lon="9.997557674036983"><ele>41.33333333333333</ele><time>2026-04-19T07:02:52.999Z</time></trkpt><trkpt lat="45.02647758476827" lon="9.997664306921745"><ele>41.666666666666664</ele><time>2026-04-19T07:02:53.999Z</time></trkpt><trkpt lat="45.02643565505849" lon="9.99777345589728"><ele>42.0</ele><time>2026-04-19T07:02:54.999Z</time></trkpt><trkpt lat="45.026399921799324" lon="9.99787965258467"><ele>42.333333333333336</ele><time>2026-04-19T07:02:55.999Z</time></trkpt><trkpt lat="45.026357843754326" lon="9.99797914375291"><ele>42.66666666666667</ele><time>2026-04-19T07:02:56.999Z</time></trkpt><trkpt lat="45.02631416101937" lon="9.998077118857845"><ele>43.0</ele><time>2026-04-19T07:02:57.999Z</time></trkpt><trkpt lat="45.02627352171846" lon="9.998176497711816"><ele>43.0</ele><time>2026-04-19T07:02:58.999Z</time></trkpt><trkpt lat="45.026234874429456" lon="9.998280900456665"><ele>43.0</ele><time>2026-04-19T07:02:59.999Z</time></trkpt><trkpt lat="45.02619599636225" lon="9.998378618638522"><ele>43.0</ele><time>2026-04-19T07:03:00.998Z</time></trkpt><trkpt lat="45.026155077703194" lon="9.9984758386229"><ele>43.0</ele><time>2026-04-19T07:03:01.998Z</time></trkpt><trkpt lat="45.026113789867445" lon="9.99857286625453"><ele>43.0</ele><time>2026-04-19T07:03:02.998Z</time></trkpt><trkpt lat="45.0260702710936" lon="9.998670998733218"><ele>43.0</ele><time>2026-04-19T07:03:03.998Z</time></trkpt><trkpt lat="45.02602921376087" lon="9.998768108424507"><ele>43.0</ele><time>2026-04-19T07:03:04.998Z</time></trkpt><trkpt lat="45.02598658483288" lon="9.998862144968893"><ele>43.0</ele><time>2026-04-19T07:03:05.998Z</time></trkpt><trkpt lat="45.025947165553454" lon="9.998959478525892"><ele>43.0</ele><time>2026-04-19T07:03:06.998Z</time></trkpt><trkpt lat="45.02590662690106" lon="9.999057520516292"><ele>43.0</ele><time>2026-04-19T07:03:07.998Z</time></trkpt><trkpt lat="45.02586605146053" lon="9.9991534437021"><ele>43.0</ele><time>2026-04-19T07:03:09Z</time></trkpt><trkpt lat="45.025823427431455" lon="9.999249710905302"><ele>43.0</ele><time>2026-04-19T07:03:10Z</time></trkpt><trkpt lat="45.025781791816165" lon="9.999346050187615"><ele>43.0</ele><time>2026-04-19T07:03:11Z</time></trkpt><trkpt lat="45.025740204414944" lon="9.999442324899132"><ele>43.0</ele><time>2026-04-19T07:03:12Z</time></trkpt><trkpt lat="45.02570192022451" lon="9.999539472780233"><ele>43.0</ele><time>2026-04-19T07:03:13Z</time></trkpt><trkpt lat="45.02566189423388" lon="9.999635950513003"><ele>43.0</ele><time>2026-04-19T07:03:14Z</time></trkpt><trkpt lat="45.02562111447253" lon="9.999727923425741"><ele>43.0</ele><time>2026-04-19T07:03:15Z</time></trkpt><trkpt lat="45.02557626685171" lon="9.999813977208515"><ele>43.0</ele><time>2026-04-19T07:03:16Z</time></trkpt><trkpt lat="45.02552437507258" lon="9.999886877645661"><ele>43.0</ele><time>2026-04-19T07:03:17Z</time></trkpt><trkpt lat="45.02547126707771" lon="9.999960121567378"><ele>43.0</ele><time>2026-04-19T07:03:18Z</time></trkpt><trkpt lat="45.025413930955374" lon="10.000033387122528"><ele>43.0</ele><time>2026-04-19T07:03:19Z</time></trkpt><trkpt lat="45.02535779388851" lon="10.000101248669841"><ele>43.0</ele><time>2026-04-19T07:03:20Z</time></trkpt><trkpt lat="45.02529895894511" lon="10.000168869364312"><ele>43.0</ele><time>2026-04-19T07:03:21Z</time></trkpt><trkpt lat="45.02524146278331" lon="10.00023869800337"><ele>43.0</ele><time>2026-04-19T07:03:22Z</time></trkpt><trkpt lat="45.02517950897423" lon="10.000308284951249"><ele>43.0</ele><time>2026-04-19T07:03:23Z</time></trkpt><trkpt lat="45.02511519031722" lon="10.000378803032866"><ele>43.0</ele><time>2026-04-19T07:03:24Z</time></trkpt><trkpt lat="45.02505722343435" lon="10.000451399805565"><ele>43.0</ele><time>2026-04-19T07:03:25Z</time></trkpt><trkpt lat="45.02499324545353" lon="10.00052806072821"><ele>43.0</ele><time>2026-04-19T07:03:26Z</time></trkpt><trkpt lat="45.02492633258083" lon="10.000601549732815"><ele>43.0</ele><time>2026-04-19T07:03:27Z</time></trkpt><trkpt lat="45.024859699284995" lon="10.000671892479447"><ele>43.0</ele><time>2026-04-19T07:03:28Z</time></trkpt><trkpt lat="45.02479629077546" lon="10.000748295577644"><ele>42.833333333333336</ele><time>2026-04-19T07:03:29Z</time></trkpt><trkpt lat="45.02472948470025" lon="10.000823991493256"><ele>42.66666666666667</ele><time>2026-04-19T07:03:30Z</time></trkpt><trkpt lat="45.02466342145831" lon="10.000901689297056"><ele>42.5</ele><time>2026-04-19T07:03:31Z</time></trkpt><trkpt lat="45.02459543109073" lon="10.00098095960013"><ele>42.333333333333336</ele><time>2026-04-19T07:03:32Z</time></trkpt><trkpt lat="45.02452807494709" lon="10.001062131966828"><ele>42.166666666666664</ele><time>2026-04-19T07:03:33Z</time></trkpt><trkpt lat="45.02446070948705" lon="10.00113531362809"><ele>42.0</ele><time>2026-04-19T07:03:34Z</time></trkpt><trkpt lat="45.024393168045165" lon="10.001214042705552"><ele>41.666666666666664</ele><time>2026-04-19T07:03:35Z</time></trkpt><trkpt lat="45.02432706367976" lon="10.001288807229813"><ele>41.333333333333336</ele><time>2026-04-19T07:03:36Z</time></trkpt><trkpt lat="45.024260779993824" lon="10.001367174158844"><ele>41.0</ele><time>2026-04-19T07:03:37Z</time></trkpt><trkpt lat="45.024191033293775" lon="10.001441714621269"><ele>40.66666666666667</ele><time>2026-04-19T07:03:38Z</time></trkpt><trkpt lat="45.0241255307263" lon="10.001521999323534"><ele>40.333333333333336</ele><time>2026-04-19T07:03:39Z</time></trkpt><trkpt lat="45.024058255618506" lon="10.00160282767065"><ele>40.0</ele><time>2026-04-19T07:03:40Z</time></trkpt><trkpt lat="45.02398783710091" lon="10.001677998746954"><ele>39.5</ele><time>2026-04-19T07:03:41Z</time></trkpt><trkpt lat="45.02391965311094" lon="10.001755570257513"><ele>39.0</ele><time>2026-04-19T07:03:42Z</time></trkpt><trkpt lat="45.02385314193881" lon="10.001831945754459"><ele>38.5</ele><time>2026-04-19T07:03:43Z</time></trkpt><trkpt lat="45.02378515876382" lon="10.001912110903502"><ele>38.0</ele><time>2026-04-19T07:03:44Z</time></trkpt><trkpt lat="45.02371810730296" lon="10.001990862143764"><ele>37.5</ele><time>2026-04-19T07:03:45Z</time></trkpt><trkpt lat="45.0236536741654" lon="10.002067881804454"><ele>37.0</ele><time>2026-04-19T07:03:46Z</time></trkpt><trkpt lat="45.02358597989109" lon="10.00214603559748"><ele>37.0</ele><time>2026-04-19T07:03:47Z</time></trkpt><trkpt lat="45.023525125361864" lon="10.002225442825878"><ele>37.0</ele><time>2026-04-19T07:03:48Z</time></trkpt><trkpt lat="45.02345890776767" lon="10.002299703494389"><ele>37.0</ele><time>2026-04-19T07:03:49Z</time></trkpt><trkpt lat="45.023398831684396" lon="10.002383957139111"><ele>37.0</ele><time>2026-04-19T07:03:50Z</time></trkpt><trkpt lat="45.02334073351731" lon="10.002469472675843"><ele>37.0</ele><time>2026-04-19T07:03:51Z</time></trkpt><trkpt lat="45.023288097174294" lon="10.002561641363732"><ele>37.0</ele><time>2026-04-19T07:03:52Z</time></trkpt><trkpt lat="45.023235499139574" lon="10.002655930026421"><ele>36.5</ele><time>2026-04-19T07:03:53Z</time></trkpt><trkpt lat="45.023183245973755" lon="10.002751561316902"><ele>36.0</ele><time>2026-04-19T07:03:54Z</time></trkpt><trkpt lat="45.02313300024345" lon="10.002846107998602"><ele>35.5</ele><time>2026-04-19T07:03:55Z</time></trkpt><trkpt lat="45.023084595938535" lon="10.002943810459438"><ele>35.0</ele><time>2026-04-19T07:03:56Z</time></trkpt><trkpt lat="45.023036196201474" lon="10.003040116191926"><ele>34.5</ele><time>2026-04-19T07:03:57Z</time></trkpt><trkpt lat="45.02298869929971" lon="10.003135074655246"><ele>34.0</ele><time>2026-04-19T07:03:58Z</time></trkpt><trkpt lat="45.022938689546116" lon="10.003228475246198"><ele>34.0</ele><time>2026-04-19T07:03:59Z</time></trkpt><trkpt lat="45.02288922341025" lon="10.003323794757344"><ele>34.0</ele><time>2026-04-19T07:04:00Z</time></trkpt><trkpt lat="45.022839321869874" lon="10.00342001704584"><ele>34.0</ele><time>2026-04-19T07:04:01Z</time></trkpt><trkpt lat="45.02278985476238" lon="10.003515157528886"><ele>34.0</ele><time>2026-04-19T07:04:02Z</time></trkpt><trkpt lat="45.022742024902165" lon="10.00361273292347"><ele>34.0</ele><time>2026-04-19T07:04:03Z</time></trkpt><trkpt lat="45.0226942872637" lon="10.003708995653675"><ele>34.0</ele><time>2026-04-19T07:04:04Z</time></trkpt><trkpt lat="45.0226469061181" lon="10.003806210566152"><ele>33.833333333333336</ele><time>2026-04-19T07:04:05Z</time></trkpt><trkpt lat="45.022597741116776" lon="10.003899860289103"><ele>33.66666666666667</ele><time>2026-04-19T07:04:06Z</time></trkpt><trkpt lat="45.02254908609313" lon="10.003994719247606"><ele>33.5</ele><time>2026-04-19T07:04:07Z</time></trkpt><trkpt lat="45.02250059363757" lon="10.004089116388737"><ele>33.333333333333336</ele><time>2026-04-19T07:04:08Z</time></trkpt><trkpt lat="45.022452384908945" lon="10.004187651350707"><ele>33.166666666666664</ele><time>2026-04-19T07:04:09Z</time></trkpt><trkpt lat="45.02240410698492" lon="10.00428379511162"><ele>33.0</ele><time>2026-04-19T07:04:10Z</time></trkpt><trkpt lat="45.02235316474229" lon="10.004378501630974"><ele>33.0</ele><time>2026-04-19T07:04:11Z</time></trkpt><trkpt lat="45.02230423345693" lon="10.004474824632144"><ele>33.0</ele><time>2026-04-19T07:04:11.999Z</time></trkpt><trkpt lat="45.022254386414424" lon="10.004572331826099"><ele>33.0</ele><time>2026-04-19T07:04:12.999Z</time></trkpt><trkpt lat="45.02220415129873" lon="10.004666237462047"><ele>33.0</ele><time>2026-04-19T07:04:13.999Z</time></trkpt><trkpt lat="45.02215429164205" lon="10.004763165517508"><ele>33.0</ele><time>2026-04-19T07:04:14.999Z</time></trkpt><trkpt lat="45.0221068744293" lon="10.004854749658291"><ele>33.0</ele><time>2026-04-19T07:04:15.999Z</time></trkpt><trkpt lat="45.02205719018222" lon="10.004955140395547"><ele>33.666666666666664</ele><time>2026-04-19T07:04:16.999Z</time></trkpt><trkpt lat="45.02200842628804" lon="10.005052285905782"><ele>34.333333333333336</ele><time>2026-04-19T07:04:17.999Z</time></trkpt><trkpt lat="45.02195919283928" lon="10.005151441022274"><ele>35.0</ele><time>2026-04-19T07:04:18.999Z</time></trkpt><trkpt lat="45.02191045548548" lon="10.005249638283095"><ele>35.66666666666667</ele><time>2026-04-19T07:04:19.999Z</time></trkpt><trkpt lat="45.021860902258105" lon="10.00534490275596"><ele>36.333333333333336</ele><time>2026-04-19T07:04:20.999Z</time></trkpt><trkpt lat="45.021813167927334" lon="10.005444195593151"><ele>37.0</ele><time>2026-04-19T07:04:21.999Z</time></trkpt><trkpt lat="45.021764259043586" lon="10.005539228122464"><ele>37.0</ele><time>2026-04-19T07:04:22.999Z</time></trkpt><trkpt lat="45.021714930781926" lon="10.005635807823042"><ele>37.0</ele><time>2026-04-19T07:04:23.999Z</time></trkpt><trkpt lat="45.021664415131376" lon="10.005730027563526"><ele>37.0</ele><time>2026-04-19T07:04:24.999Z</time></trkpt><trkpt lat="45.02161649847729" lon="10.005828031568369"><ele>37.0</ele><time>2026-04-19T07:04:25.999Z</time></trkpt><trkpt lat="45.021567882693624" lon="10.00592390041417"><ele>37.0</ele><time>2026-04-19T07:04:26.999Z</time></trkpt><trkpt lat="45.02151970009364" lon="10.006022756732746"><ele>37.0</ele><time>2026-04-19T07:04:27.999Z</time></trkpt><trkpt lat="45.02146828700526" lon="10.006116641671348"><ele>37.16666666666667</ele><time>2026-04-19T07:04:28.999Z</time></trkpt><trkpt lat="45.0214190489807" lon="10.006214704027395"><ele>37.333333333333336</ele><time>2026-04-19T07:04:29.999Z</time></trkpt><trkpt lat="45.02137046308965" lon="10.00631267914776"><ele>37.5</ele><time>2026-04-19T07:04:30.999Z</time></trkpt><trkpt lat="45.02132239852594" lon="10.006406078400033"><ele>37.666666666666664</ele><time>2026-04-19T07:04:31.999Z</time></trkpt><trkpt lat="45.021273040935" lon="10.006506802829257"><ele>37.83333333333333</ele><time>2026-04-19T07:04:32.999Z</time></trkpt><trkpt lat="45.02122284771347" lon="10.00660426545484"><ele>38.0</ele><time>2026-04-19T07:04:33.999Z</time></trkpt><trkpt lat="45.021174225111395" lon="10.006702222445492"><ele>38.0</ele><time>2026-04-19T07:04:34.999Z</time></trkpt><trkpt lat="45.021124698737424" lon="10.006800638638921"><ele>38.0</ele><time>2026-04-19T07:04:35.999Z</time></trkpt><trkpt lat="45.02107737940366" lon="10.006898724678077"><ele>38.0</ele><time>2026-04-19T07:04:36.999Z</time></trkpt><trkpt lat="45.021025812405775" lon="10.006996422804837"><ele>38.0</ele><time>2026-04-19T07:04:37.999Z</time></trkpt><trkpt lat="45.020977330701335" lon="10.0070923053478"><ele>38.0</ele><time>2026-04-19T07:04:38.999Z</time></trkpt><trkpt lat="45.02092775338004" lon="10.007190964515596"><ele>38.0</ele><time>2026-04-19T07:04:39.999Z</time></trkpt><trkpt lat="45.020880204756075" lon="10.007287018062263"><ele>38.0</ele><time>2026-04-19T07:04:40.999Z</time></trkpt><trkpt lat="45.02082938622909" lon="10.007386795470197"><ele>38.0</ele><time>2026-04-19T07:04:41.999Z</time></trkpt><trkpt lat="45.02078035522025" lon="10.00748502087624"><ele>38.0</ele><time>2026-04-19T07:04:42.999Z</time></trkpt><trkpt lat="45.02072927620039" lon="10.007582629729363"><ele>38.0</ele><time>2026-04-19T07:04:43.999Z</time></trkpt><trkpt lat="45.02068101871559" lon="10.007678975690544"><ele>38.0</ele><time>2026-04-19T07:04:44.999Z</time></trkpt><trkpt lat="45.02062955000022" lon="10.007779701246333"><ele>38.0</ele><time>2026-04-19T07:04:45.999Z</time></trkpt><trkpt lat="45.020581608811895" lon="10.007876725664396"><ele>38.0</ele><time>2026-04-19T07:04:46.999Z</time></trkpt><trkpt lat="45.020531200358036" lon="10.007976986261891"><ele>38.0</ele><time>2026-04-19T07:04:47.999Z</time></trkpt><trkpt lat="45.02048156142043" lon="10.008074356056122"><ele>38.0</ele><time>2026-04-19T07:04:48.999Z</time></trkpt><trkpt lat="45.020433608098514" lon="10.0081726928285"><ele>38.0</ele><time>2026-04-19T07:04:49.999Z</time></trkpt><trkpt lat="45.02038499177128" lon="10.008268423311208"><ele>38.0</ele><time>2026-04-19T07:04:50.999Z</time></trkpt><trkpt lat="45.020337967233225" lon="10.008364009298393"><ele>38.0</ele><time>2026-04-19T07:04:51.999Z</time></trkpt><trkpt lat="45.02028944959504" lon="10.008457459146477"><ele>37.857142857142854</ele><time>2026-04-19T07:04:52.999Z</time></trkpt><trkpt lat="45.02024415907377" lon="10.008551197900012"><ele>37.714285714285715</ele><time>2026-04-19T07:04:53.999Z</time></trkpt><trkpt lat="45.020199478454" lon="10.008642224526525"><ele>37.57142857142857</ele><time>2026-04-19T07:04:54.999Z</time></trkpt><trkpt lat="45.02015470917285" lon="10.008728973057334"><ele>37.42857142857143</ele><time>2026-04-19T07:04:55.999Z</time></trkpt><trkpt lat="45.02011208403939" lon="10.008812372469395"><ele>37.285714285714285</ele><time>2026-04-19T07:04:56.999Z</time></trkpt><trkpt lat="45.020071793534726" lon="10.008894436435039"><ele>37.142857142857146</ele><time>2026-04-19T07:04:57.999Z</time></trkpt><trkpt lat="45.020032369387835" lon="10.008966587400892"><ele>37.0</ele><time>2026-04-19T07:04:58.999Z</time></trkpt><trkpt lat="45.01993267832311" lon="10.009016740830344"><ele>37.333333333333336</ele><time>2026-04-19T07:05:00.999Z</time></trkpt><trkpt lat="45.01985033532041" lon="10.00888854105577"><ele>37.66666666666667</ele><time>2026-04-19T07:05:02.999Z</time></trkpt><trkpt lat="45.019800497888255" lon="10.00883102698383"><ele>38.0</ele><time>2026-04-19T07:05:03.999Z</time></trkpt><trkpt lat="45.019759389668934" lon="10.00875651643221"><ele>38.333333333333336</ele><time>2026-04-19T07:05:04.999Z</time></trkpt><trkpt lat="45.01971452876201" lon="10.00868462839335"><ele>38.666666666666664</ele><time>2026-04-19T07:05:05.998Z</time></trkpt><trkpt lat="45.01966672830173" lon="10.008613977705588"><ele>39.0</ele><time>2026-04-19T07:05:06.998Z</time></trkpt><trkpt lat="45.01962163019059" lon="10.008537958000284"><ele>39.0</ele><time>2026-04-19T07:05:07.998Z</time></trkpt><trkpt lat="45.019576438100955" lon="10.008455577426114"><ele>39.0</ele><time>2026-04-19T07:05:08.998Z</time></trkpt><trkpt lat="45.019530778594685" lon="10.008376643451108"><ele>39.0</ele><time>2026-04-19T07:05:09.998Z</time></trkpt><trkpt lat="45.01948537668693" lon="10.008303017092679"><ele>39.0</ele><time>2026-04-19T07:05:10.998Z</time></trkpt><trkpt lat="45.01943661617617" lon="10.008226780124431"><ele>39.0</ele><time>2026-04-19T07:05:11.998Z</time></trkpt><trkpt lat="45.01938763460456" lon="10.008148499448959"><ele>39.0</ele><time>2026-04-19T07:05:12.998Z</time></trkpt><trkpt lat="45.01933979158003" lon="10.008070007350213"><ele>39.0</ele><time>2026-04-19T07:05:14Z</time></trkpt><trkpt lat="45.01929346725518" lon="10.00798922890592"><ele>38.833333333333336</ele><time>2026-04-19T07:05:15Z</time></trkpt><trkpt lat="45.01924365886265" lon="10.007913202630425"><ele>38.666666666666664</ele><time>2026-04-19T07:05:16Z</time></trkpt><trkpt lat="45.01919500773937" lon="10.007830934687808"><ele>38.5</ele><time>2026-04-19T07:05:17Z</time></trkpt><trkpt lat="45.01914628244922" lon="10.00774980142992"><ele>38.33333333333333</ele><time>2026-04-19T07:05:18Z</time></trkpt><trkpt lat="45.01909694495307" lon="10.007664849265076"><ele>38.166666666666664</ele><time>2026-04-19T07:05:19Z</time></trkpt><trkpt lat="45.01904736559131" lon="10.007579573615383"><ele>38.0</ele><time>2026-04-19T07:05:20Z</time></trkpt><trkpt lat="45.018995799358215" lon="10.007495841057697"><ele>38.0</ele><time>2026-04-19T07:05:21Z</time></trkpt><trkpt lat="45.018943920311386" lon="10.007411621572848"><ele>38.0</ele><time>2026-04-19T07:05:22Z</time></trkpt><trkpt lat="45.01888914129842" lon="10.007326437015347"><ele>38.0</ele><time>2026-04-19T07:05:23Z</time></trkpt><trkpt lat="45.018839463245136" lon="10.007244189198662"><ele>38.0</ele><time>2026-04-19T07:05:24Z</time></trkpt><trkpt lat="45.01878825676064" lon="10.007158770721537"><ele>38.0</ele><time>2026-04-19T07:05:25Z</time></trkpt><trkpt lat="45.01873430183324" lon="10.007075362976511"><ele>38.0</ele><time>2026-04-19T07:05:26Z</time></trkpt><trkpt lat="45.018681455151885" lon="10.00699144881871"><ele>38.0</ele><time>2026-04-19T07:05:27Z</time></trkpt><trkpt lat="45.01862946459756" lon="10.006907019501881"><ele>38.0</ele><time>2026-04-19T07:05:28Z</time></trkpt><trkpt lat="45.01857841757462" lon="10.006821548038928"><ele>38.0</ele><time>2026-04-19T07:05:29Z</time></trkpt><trkpt lat="45.01852586841674" lon="10.00673674399037"><ele>38.0</ele><time>2026-04-19T07:05:30Z</time></trkpt><trkpt lat="45.0184716436506" lon="10.006649557464728"><ele>38.0</ele><time>2026-04-19T07:05:31Z</time></trkpt><trkpt lat="45.01841874426987" lon="10.00656348595163"><ele>38.0</ele><time>2026-04-19T07:05:32Z</time></trkpt><trkpt lat="45.018365236987925" lon="10.006478327263626"><ele>38.166666666666664</ele><time>2026-04-19T07:05:33Z</time></trkpt><trkpt lat="45.01831210030369" lon="10.006390725918902"><ele>38.33333333333333</ele><time>2026-04-19T07:05:34Z</time></trkpt><trkpt lat="45.018259146146164" lon="10.006302165821394"><ele>38.5</ele><time>2026-04-19T07:05:35Z</time></trkpt><trkpt lat="45.01820547813912" lon="10.006214011775759"><ele>38.666666666666664</ele><time>2026-04-19T07:05:36Z</time></trkpt><trkpt lat="45.01815229369011" lon="10.00612749380635"><ele>38.833333333333336</ele><time>2026-04-19T07:05:37Z</time></trkpt><trkpt lat="45.01809862631485" lon="10.006038583090113"><ele>39.0</ele><time>2026-04-19T07:05:38Z</time></trkpt><trkpt lat="45.01804619168297" lon="10.005951343066101"><ele>39.0</ele><time>2026-04-19T07:05:39Z</time></trkpt><trkpt lat="45.01799143271776" lon="10.005864053972033"><ele>39.0</ele><time>2026-04-19T07:05:40Z</time></trkpt><trkpt lat="45.01793856949727" lon="10.005777227908352"><ele>39.0</ele><time>2026-04-19T07:05:41Z</time></trkpt><trkpt lat="45.01788602681635" lon="10.005692451389017"><ele>39.0</ele><time>2026-04-19T07:05:42Z</time></trkpt><trkpt lat="45.01783367796935" lon="10.00560530156276"><ele>39.0</ele><time>2026-04-19T07:05:43Z</time></trkpt><trkpt lat="45.017781587229734" lon="10.005517897178285"><ele>39.0</ele><time>2026-04-19T07:05:44Z</time></trkpt><trkpt lat="45.01772754271029" lon="10.005430711712267"><ele>39.0</ele><time>2026-04-19T07:05:45Z</time></trkpt><trkpt lat="45.01767417171795" lon="10.005347571186856"><ele>39.0</ele><time>2026-04-19T07:05:46Z</time></trkpt><trkpt lat="45.017620989098745" lon="10.005260875472878"><ele>39.0</ele><time>2026-04-19T07:05:47Z</time></trkpt><trkpt lat="45.01756779429144" lon="10.005172560386676"><ele>39.0</ele><time>2026-04-19T07:05:48Z</time></trkpt><trkpt lat="45.017514902468925" lon="10.005083260084243"><ele>39.0</ele><time>2026-04-19T07:05:49Z</time></trkpt><trkpt lat="45.017461743419666" lon="10.004994673118961"><ele>39.0</ele><time>2026-04-19T07:05:50Z</time></trkpt><trkpt lat="45.01740844989376" lon="10.004909081965847"><ele>38.833333333333336</ele><time>2026-04-19T07:05:51Z</time></trkpt><trkpt lat="45.01735352692295" lon="10.004822194628533"><ele>38.666666666666664</ele><time>2026-04-19T07:05:52Z</time></trkpt><trkpt lat="45.017298619533015" lon="10.004734345052794"><ele>38.5</ele><time>2026-04-19T07:05:53Z</time></trkpt><trkpt lat="45.01724650111001" lon="10.004647136232272"><ele>38.33333333333333</ele><time>2026-04-19T07:05:54Z</time></trkpt><trkpt lat="45.01719275559318" lon="10.004558818273255"><ele>38.166666666666664</ele><time>2026-04-19T07:05:55Z</time></trkpt><trkpt lat="45.017138784707605" lon="10.004472300287402"><ele>38.0</ele><time>2026-04-19T07:05:56Z</time></trkpt><trkpt lat="45.01708485258924" lon="10.004386718632189"><ele>38.0</ele><time>2026-04-19T07:05:57Z</time></trkpt><trkpt lat="45.01703133841356" lon="10.004297148348282"><ele>38.0</ele><time>2026-04-19T07:05:58Z</time></trkpt><trkpt lat="45.01697955250222" lon="10.004210145309097"><ele>38.0</ele><time>2026-04-19T07:05:59Z</time></trkpt><trkpt lat="45.01692504183242" lon="10.004124478907501"><ele>38.0</ele><time>2026-04-19T07:06:00Z</time></trkpt><trkpt lat="45.01687241596337" lon="10.004038965319767"><ele>38.0</ele><time>2026-04-19T07:06:01Z</time></trkpt><trkpt lat="45.01681651863703" lon="10.003951038042887"><ele>38.0</ele><time>2026-04-19T07:06:02Z</time></trkpt><trkpt lat="45.016762720898306" lon="10.00386253078399"><ele>38.0</ele><time>2026-04-19T07:06:03Z</time></trkpt><trkpt lat="45.01670755438835" lon="10.003772432079774"><ele>38.0</ele><time>2026-04-19T07:06:04Z</time></trkpt><trkpt lat="45.01665262831792" lon="10.003685829397805"><ele>38.0</ele><time>2026-04-19T07:06:05Z</time></trkpt><trkpt lat="45.01659680856451" lon="10.003594517271233"><ele>38.0</ele><time>2026-04-19T07:06:06Z</time></trkpt><trkpt lat="45.0165420434277" lon="10.003507321600093"><ele>38.0</ele><time>2026-04-19T07:06:07Z</time></trkpt><trkpt lat="45.0164878355222" lon="10.003418910725088"><ele>38.0</ele><time>2026-04-19T07:06:08Z</time></trkpt><trkpt lat="45.01643145842496" lon="10.003329287983652"><ele>38.0</ele><time>2026-04-19T07:06:09Z</time></trkpt><trkpt lat="45.01637707284902" lon="10.003240459488989"><ele>38.0</ele><time>2026-04-19T07:06:10Z</time></trkpt><trkpt lat="45.0163219875803" lon="10.003150793106396"><ele>38.0</ele><time>2026-04-19T07:06:11Z</time></trkpt><trkpt lat="45.01626938219889" lon="10.003059772637517"><ele>38.0</ele><time>2026-04-19T07:06:12Z</time></trkpt><trkpt lat="45.016217684451455" lon="10.002973272285628"><ele>38.0</ele><time>2026-04-19T07:06:13Z</time></trkpt><trkpt lat="45.016165694735086" lon="10.002887394930678"><ele>38.0</ele><time>2026-04-19T07:06:14Z</time></trkpt><trkpt lat="45.016112523004544" lon="10.002798728663512"><ele>38.0</ele><time>2026-04-19T07:06:15Z</time></trkpt><trkpt lat="45.01606105970657" lon="10.002716295673057"><ele>38.0</ele><time>2026-04-19T07:06:15.999Z</time></trkpt><trkpt lat="45.01600824304699" lon="10.002630327017691"><ele>38.0</ele><time>2026-04-19T07:06:16.999Z</time></trkpt><trkpt lat="45.015956191261395" lon="10.002544362992456"><ele>38.0</ele><time>2026-04-19T07:06:17.999Z</time></trkpt><trkpt lat="45.015905742761184" lon="10.002462155367448"><ele>38.0</ele><time>2026-04-19T07:06:18.999Z</time></trkpt><trkpt lat="45.01585278233564" lon="10.002377895586255"><ele>38.0</ele><time>2026-04-19T07:06:19.999Z</time></trkpt><trkpt lat="45.01580164895805" lon="10.002293086998195"><ele>38.5</ele><time>2026-04-19T07:06:20.999Z</time></trkpt><trkpt lat="45.015749922860664" lon="10.002208382001784"><ele>39.0</ele><time>2026-04-19T07:06:21.999Z</time></trkpt><trkpt lat="45.01569919785512" lon="10.002127408619701"><ele>39.5</ele><time>2026-04-19T07:06:22.999Z</time></trkpt><trkpt lat="45.015648045111774" lon="10.002040911219094"><ele>40.0</ele><time>2026-04-19T07:06:23.999Z</time></trkpt><trkpt lat="45.015595825391976" lon="10.001957155012425"><ele>40.5</ele><time>2026-04-19T07:06:24.999Z</time></trkpt><trkpt lat="45.01554279321903" lon="10.001874642572188"><ele>41.0</ele><time>2026-04-19T07:06:25.999Z</time></trkpt><trkpt lat="45.01549116352773" lon="10.001791364404685"><ele>41.0</ele><time>2026-04-19T07:06:26.999Z</time></trkpt><trkpt lat="45.01544340932404" lon="10.001712565397304"><ele>41.0</ele><time>2026-04-19T07:06:27.999Z</time></trkpt><trkpt lat="45.015396797650695" lon="10.001631530312793"><ele>41.0</ele><time>2026-04-19T07:06:28.999Z</time></trkpt><trkpt lat="45.01534117819267" lon="10.00154599414608"><ele>41.0</ele><time>2026-04-19T07:06:29.999Z</time></trkpt><trkpt lat="45.01528861622028" lon="10.001460278582003"><ele>41.0</ele><time>2026-04-19T07:06:30.999Z</time></trkpt><trkpt lat="45.015234117903994" lon="10.001372028000521"><ele>41.0</ele><time>2026-04-19T07:06:31.999Z</time></trkpt><trkpt lat="45.01517903137514" lon="10.001285989848425"><ele>40.666666666666664</ele><time>2026-04-19T07:06:32.999Z</time></trkpt><trkpt lat="45.01512441841187" lon="10.001197820356952"><ele>40.33333333333333</ele><time>2026-04-19T07:06:33.999Z</time></trkpt><trkpt lat="45.01507315105531" lon="10.001112927320916"><ele>40.0</ele><time>2026-04-19T07:06:34.999Z</time></trkpt><trkpt lat="45.01503361879833" lon="10.001012536095363"><ele>39.666666666666664</ele><time>2026-04-19T07:06:35.999Z</time></trkpt><trkpt lat="45.014981723794925" lon="10.000926006520288"><ele>39.333333333333336</ele><time>2026-04-19T07:06:36.999Z</time></trkpt><trkpt lat="45.014928746463326" lon="10.000837672074505"><ele>39.0</ele><time>2026-04-19T07:06:37.999Z</time></trkpt><trkpt lat="45.014876253055114" lon="10.000750144625464"><ele>39.0</ele><time>2026-04-19T07:06:38.999Z</time></trkpt><trkpt lat="45.01482195036211" lon="10.000660014138202"><ele>39.0</ele><time>2026-04-19T07:06:39.999Z</time></trkpt><trkpt lat="45.01476926491574" lon="10.000573791943548"><ele>39.0</ele><time>2026-04-19T07:06:40.999Z</time></trkpt><trkpt lat="45.01471577524202" lon="10.000486253602565"><ele>39.0</ele><time>2026-04-19T07:06:41.999Z</time></trkpt><trkpt lat="45.01466350678304" lon="10.000400713814091"><ele>39.0</ele><time>2026-04-19T07:06:42.999Z</time></trkpt><trkpt lat="45.014612111347795" lon="10.000316602777458"><ele>39.0</ele><time>2026-04-19T07:06:43.999Z</time></trkpt><trkpt lat="45.01455990372898" lon="10.000231162578963"><ele>39.0</ele><time>2026-04-19T07:06:44.999Z</time></trkpt><trkpt lat="45.014488020049804" lon="10.000169251941843"><ele>39.0</ele><time>2026-04-19T07:06:45.999Z</time></trkpt><trkpt lat="45.014435353455646" lon="10.000081557713942"><ele>39.0</ele><time>2026-04-19T07:06:46.999Z</time></trkpt><trkpt lat="45.01438296931313" lon="9.999997920955048"><ele>39.0</ele><time>2026-04-19T07:06:47.999Z</time></trkpt><trkpt lat="45.01433210276322" lon="9.99990862251486"><ele>39.0</ele><time>2026-04-19T07:06:48.999Z</time></trkpt><trkpt lat="45.014280365303016" lon="9.999822526442152"><ele>39.0</ele><time>2026-04-19T07:06:49.999Z</time></trkpt><trkpt lat="45.014228263490466" lon="9.999739344526803"><ele>39.0</ele><time>2026-04-19T07:06:50.999Z</time></trkpt><trkpt lat="45.0141740252167" lon="9.99965012003899"><ele>39.0</ele><time>2026-04-19T07:06:51.999Z</time></trkpt><trkpt lat="45.01412160601292" lon="9.999568695720027"><ele>39.0</ele><time>2026-04-19T07:06:52.999Z</time></trkpt><trkpt lat="45.01406920143002" lon="9.999480527136244"><ele>39.0</ele><time>2026-04-19T07:06:53.999Z</time></trkpt><trkpt lat="45.01401704668352" lon="9.999395665989503"><ele>39.0</ele><time>2026-04-19T07:06:54.999Z</time></trkpt><trkpt lat="45.01396484035892" lon="9.999310515453043"><ele>39.0</ele><time>2026-04-19T07:06:55.999Z</time></trkpt><trkpt lat="45.01391207353654" lon="9.999222057209952"><ele>38.833333333333336</ele><time>2026-04-19T07:06:56.999Z</time></trkpt><trkpt lat="45.013859810307785" lon="9.99913805765759"><ele>38.666666666666664</ele><time>2026-04-19T07:06:57.999Z</time></trkpt><trkpt lat="45.013806410805856" lon="9.999052526365922"><ele>38.5</ele><time>2026-04-19T07:06:58.999Z</time></trkpt><trkpt lat="45.01375243203872" lon="9.99896578817604"><ele>38.33333333333333</ele><time>2026-04-19T07:06:59.999Z</time></trkpt><trkpt lat="45.01369897955202" lon="9.998880759948655"><ele>38.166666666666664</ele><time>2026-04-19T07:07:00.999Z</time></trkpt><trkpt lat="45.013645600066276" lon="9.998792381914201"><ele>38.0</ele><time>2026-04-19T07:07:01.999Z</time></trkpt><trkpt lat="45.013594008861354" lon="9.998707475396206"><ele>38.0</ele><time>2026-04-19T07:07:02.999Z</time></trkpt><trkpt lat="45.01354287896992" lon="9.998620993760797"><ele>38.0</ele><time>2026-04-19T07:07:03.999Z</time></trkpt><trkpt lat="45.013490030776204" lon="9.998534747577791"><ele>38.0</ele><time>2026-04-19T07:07:04.999Z</time></trkpt><trkpt lat="45.013436739489194" lon="9.998450680052565"><ele>38.0</ele><time>2026-04-19T07:07:05.999Z</time></trkpt><trkpt lat="45.01338448954423" lon="9.998364567113038"><ele>38.0</ele><time>2026-04-19T07:07:06.999Z</time></trkpt><trkpt lat="45.0133341423447" lon="9.99827955575996"><ele>38.0</ele><time>2026-04-19T07:07:07.999Z</time></trkpt><trkpt lat="45.01328093513524" lon="9.998193582588929"><ele>38.5</ele><time>2026-04-19T07:07:08.999Z</time></trkpt><trkpt lat="45.01322962561505" lon="9.998106498270277"><ele>39.0</ele><time>2026-04-19T07:07:09.998Z</time></trkpt><trkpt lat="45.01317661144131" lon="9.998023582148033"><ele>39.5</ele><time>2026-04-19T07:07:10.998Z</time></trkpt><trkpt lat="45.01312517362907" lon="9.997937512747274"><ele>40.0</ele><time>2026-04-19T07:07:11.998Z</time></trkpt><trkpt lat="45.01307129173824" lon="9.997851144305788"><ele>40.5</ele><time>2026-04-19T07:07:12.998Z</time></trkpt><trkpt lat="45.01302159780493" lon="9.997761842685396"><ele>41.0</ele><time>2026-04-19T07:07:13.998Z</time></trkpt><trkpt lat="45.01296942567966" lon="9.997674192264993"><ele>41.0</ele><time>2026-04-19T07:07:14.998Z</time></trkpt><trkpt lat="45.01291613302485" lon="9.997585526725036"><ele>41.0</ele><time>2026-04-19T07:07:15.998Z</time></trkpt><trkpt lat="45.01286320594885" lon="9.997498235260904"><ele>41.0</ele><time>2026-04-19T07:07:16.998Z</time></trkpt><trkpt lat="45.01281034398996" lon="9.997412765134884"><ele>41.0</ele><time>2026-04-19T07:07:17.998Z</time></trkpt><trkpt lat="45.01275813998553" lon="9.99733044594023"><ele>41.0</ele><time>2026-04-19T07:07:18.998Z</time></trkpt><trkpt lat="45.01270206033969" lon="9.9972487394749"><ele>41.0</ele><time>2026-04-19T07:07:20Z</time></trkpt><trkpt lat="45.01264942239101" lon="9.997166951879427"><ele>40.83333333333333</ele><time>2026-04-19T07:07:21Z</time></trkpt><trkpt lat="45.01260398654688" lon="9.997077938693401"><ele>40.666666666666664</ele><time>2026-04-19T07:07:22Z</time></trkpt><trkpt lat="45.01255438832017" lon="9.996993705045144"><ele>40.5</ele><time>2026-04-19T07:07:23Z</time></trkpt><trkpt lat="45.0125028374492" lon="9.996910727996106"><ele>40.333333333333336</ele><time>2026-04-19T07:07:24Z</time></trkpt><trkpt lat="45.01245295422772" lon="9.996824818534089"><ele>40.16666666666667</ele><time>2026-04-19T07:07:25Z</time></trkpt><trkpt lat="45.01240432385971" lon="9.996745401048525"><ele>40.0</ele><time>2026-04-19T07:07:26Z</time></trkpt><trkpt lat="45.01235250373062" lon="9.99665899497657"><ele>40.0</ele><time>2026-04-19T07:07:27Z</time></trkpt><trkpt lat="45.01231152281816" lon="9.996578432767564"><ele>40.0</ele><time>2026-04-19T07:07:28Z</time></trkpt><trkpt lat="45.01227448957644" lon="9.996490257308075"><ele>40.0</ele><time>2026-04-19T07:07:29Z</time></trkpt><trkpt lat="45.01223577895111" lon="9.996414295993402"><ele>40.0</ele><time>2026-04-19T07:07:30Z</time></trkpt><trkpt lat="45.01218670342721" lon="9.996334828348592"><ele>40.0</ele><time>2026-04-19T07:07:31Z</time></trkpt><trkpt lat="45.01213892621728" lon="9.996249536198137"><ele>40.0</ele><time>2026-04-19T07:07:32Z</time></trkpt><trkpt lat="45.01209012403703" lon="9.996157728473246"><ele>40.0</ele><time>2026-04-19T07:07:33Z</time></trkpt><trkpt lat="45.012039289672394" lon="9.996067425291645"><ele>40.0</ele><time>2026-04-19T07:07:34Z</time></trkpt><trkpt lat="45.01198733940714" lon="9.995976567644746"><ele>40.0</ele><time>2026-04-19T07:07:35Z</time></trkpt><trkpt lat="45.0119312390733" lon="9.995884273168965"><ele>40.0</ele><time>2026-04-19T07:07:36Z</time></trkpt><trkpt lat="45.011876424896464" lon="9.99579267734931"><ele>40.0</ele><time>2026-04-19T07:07:37Z</time></trkpt><trkpt lat="45.01181787115019" lon="9.995704218127868"><ele>40.0</ele><time>2026-04-19T07:07:38Z</time></trkpt><trkpt lat="45.01176156889371" lon="9.995617126298093"><ele>40.0</ele><time>2026-04-19T07:07:39Z</time></trkpt><trkpt lat="45.01170497904211" lon="9.995528435429762"><ele>39.833333333333336</ele><time>2026-04-19T07:07:40Z</time></trkpt><trkpt lat="45.01164883797291" lon="9.995442880785335"><ele>39.66666666666667</ele><time>2026-04-19T07:07:41Z</time></trkpt><trkpt lat="45.01159493319613" lon="9.995360087568919"><ele>39.5</ele><time>2026-04-19T07:07:42Z</time></trkpt><trkpt lat="45.01154343449521" lon="9.995278018197792"><ele>39.333333333333336</ele><time>2026-04-19T07:07:43Z</time></trkpt><trkpt lat="45.011490174117334" lon="9.995197537015697"><ele>39.166666666666664</ele><time>2026-04-19T07:07:44Z</time></trkpt><trkpt lat="45.01143653559751" lon="9.995116838058726"><ele>39.0</ele><time>2026-04-19T07:07:45Z</time></trkpt><trkpt lat="45.01138117965595" lon="9.995035982967234"><ele>39.166666666666664</ele><time>2026-04-19T07:07:46Z</time></trkpt><trkpt lat="45.01132828599464" lon="9.994956884839036"><ele>39.333333333333336</ele><time>2026-04-19T07:07:47Z</time></trkpt><trkpt lat="45.0112744388051" lon="9.994876222132508"><ele>39.5</ele><time>2026-04-19T07:07:48Z</time></trkpt><trkpt lat="45.01121539055995" lon="9.994799088949105"><ele>39.66666666666667</ele><time>2026-04-19T07:07:49Z</time></trkpt><trkpt lat="45.01115562920605" lon="9.9947208310574"><ele>39.833333333333336</ele><time>2026-04-19T07:07:50Z</time></trkpt><trkpt lat="45.01109648920342" lon="9.994649505372292"><ele>40.0</ele><time>2026-04-19T07:07:51Z</time></trkpt><trkpt lat="45.01103927800185" lon="9.994575768936452"><ele>40.0</ele><time>2026-04-19T07:07:52Z</time></trkpt><trkpt lat="45.01097990336208" lon="9.994501533635887"><ele>40.0</ele><time>2026-04-19T07:07:53Z</time></trkpt><trkpt lat="45.01092279703619" lon="9.994425280287908"><ele>40.0</ele><time>2026-04-19T07:07:54Z</time></trkpt><trkpt lat="45.010865069335495" lon="9.994350167838842"><ele>40.0</ele><time>2026-04-19T07:07:55Z</time></trkpt><trkpt lat="45.010806742271384" lon="9.994274935817277"><ele>40.0</ele><time>2026-04-19T07:07:56Z</time></trkpt><trkpt lat="45.0107527513101" lon="9.994193027247206"><ele>40.0</ele><time>2026-04-19T07:07:57Z</time></trkpt><trkpt lat="45.010694490754034" lon="9.994115072619628"><ele>40.0</ele><time>2026-04-19T07:07:58Z</time></trkpt><trkpt lat="45.010639890631055" lon="9.994039356061325"><ele>40.0</ele><time>2026-04-19T07:07:59Z</time></trkpt><trkpt lat="45.01058123377849" lon="9.99396027888132"><ele>40.0</ele><time>2026-04-19T07:08:00Z</time></trkpt><trkpt lat="45.010542532291176" lon="9.993859798201864"><ele>40.0</ele><time>2026-04-19T07:08:01Z</time></trkpt><trkpt lat="45.010486793810415" lon="9.993777268432277"><ele>40.0</ele><time>2026-04-19T07:08:02Z</time></trkpt><trkpt lat="45.01043236109064" lon="9.993696671954659"><ele>40.0</ele><time>2026-04-19T07:08:03Z</time></trkpt><trkpt lat="45.01037755641573" lon="9.993615524824854"><ele>40.0</ele><time>2026-04-19T07:08:04Z</time></trkpt><trkpt lat="45.01032278599621" lon="9.993534428324622"><ele>40.0</ele><time>2026-04-19T07:08:05Z</time></trkpt><trkpt lat="45.01026945409418" lon="9.99345489463465"><ele>40.0</ele><time>2026-04-19T07:08:06Z</time></trkpt><trkpt lat="45.0102156457154" lon="9.993374235532437"><ele>40.0</ele><time>2026-04-19T07:08:07Z</time></trkpt><trkpt lat="45.01014980556854" lon="9.993308784688626"><ele>40.0</ele><time>2026-04-19T07:08:08Z</time></trkpt><trkpt lat="45.010096385527355" lon="9.993228697658965"><ele>40.0</ele><time>2026-04-19T07:08:09Z</time></trkpt><trkpt lat="45.01004428644766" lon="9.993145745007745"><ele>39.833333333333336</ele><time>2026-04-19T07:08:10Z</time></trkpt><trkpt lat="45.00999214528426" lon="9.993065941523271"><ele>39.66666666666667</ele><time>2026-04-19T07:08:11Z</time></trkpt><trkpt lat="45.009937660084645" lon="9.992986984966656"><ele>39.5</ele><time>2026-04-19T07:08:12Z</time></trkpt><trkpt lat="45.00988474443571" lon="9.992907778346542"><ele>39.333333333333336</ele><time>2026-04-19T07:08:13Z</time></trkpt><trkpt lat="45.009831216652216" lon="9.992826300875716"><ele>39.166666666666664</ele><time>2026-04-19T07:08:14Z</time></trkpt><trkpt lat="45.00977684214337" lon="9.992749114656066"><ele>39.0</ele><time>2026-04-19T07:08:15Z</time></trkpt><trkpt lat="45.00972320941414" lon="9.992667727475192"><ele>39.0</ele><time>2026-04-19T07:08:16Z</time></trkpt><trkpt lat="45.00966840977583" lon="9.99258783181602"><ele>39.0</ele><time>2026-04-19T07:08:17Z</time></trkpt><trkpt lat="45.00962706669531" lon="9.992490181921877"><ele>39.0</ele><time>2026-04-19T07:08:18Z</time></trkpt><trkpt lat="45.00957464983431" lon="9.992407567651178"><ele>39.0</ele><time>2026-04-19T07:08:19Z</time></trkpt><trkpt lat="45.009523424526535" lon="9.992326831390796"><ele>39.0</ele><time>2026-04-19T07:08:20Z</time></trkpt><trkpt lat="45.00947072315745" lon="9.99224236066296"><ele>39.0</ele><time>2026-04-19T07:08:20.999Z</time></trkpt><trkpt lat="45.00941952468863" lon="9.992159245630923"><ele>38.833333333333336</ele><time>2026-04-19T07:08:21.999Z</time></trkpt><trkpt lat="45.009354909379525" lon="9.992089129433309"><ele>38.666666666666664</ele><time>2026-04-19T07:08:22.999Z</time></trkpt><trkpt lat="45.009302637868174" lon="9.99200275643019"><ele>38.5</ele><time>2026-04-19T07:08:23.999Z</time></trkpt><trkpt lat="45.00926445158453" lon="9.991903337726239"><ele>38.33333333333333</ele><time>2026-04-19T07:08:24.999Z</time></trkpt><trkpt lat="45.00920155555083" lon="9.99183292493692"><ele>38.166666666666664</ele><time>2026-04-19T07:08:25.999Z</time></trkpt><trkpt lat="45.00914995676096" lon="9.991747945067107"><ele>38.0</ele><time>2026-04-19T07:08:26.999Z</time></trkpt><trkpt lat="45.009111539981774" lon="9.991647410938354"><ele>38.33333333333333</ele><time>2026-04-19T07:08:27.999Z</time></trkpt><trkpt lat="45.00906148571845" lon="9.991562228229043"><ele>38.666666666666664</ele><time>2026-04-19T07:08:28.999Z</time></trkpt><trkpt lat="45.00901062235731" lon="9.991475668596712"><ele>39.0</ele><time>2026-04-19T07:08:29.999Z</time></trkpt><trkpt lat="45.008959748803925" lon="9.991389091621416"><ele>39.333333333333336</ele><time>2026-04-19T07:08:30.999Z</time></trkpt><trkpt lat="45.00890909223851" lon="9.99130288392101"><ele>39.66666666666667</ele><time>2026-04-19T07:08:31.999Z</time></trkpt><trkpt lat="45.00885883292978" lon="9.99121800600938"><ele>40.0</ele><time>2026-04-19T07:08:32.999Z</time></trkpt><trkpt lat="45.0088069491798" lon="9.991131269977897"><ele>40.0</ele><time>2026-04-19T07:08:33.999Z</time></trkpt><trkpt lat="45.00875549526335" lon="9.991045252584945"><ele>40.0</ele><time>2026-04-19T07:08:34.999Z</time></trkpt><trkpt lat="45.00870447387328" lon="9.990959958251565"><ele>40.0</ele><time>2026-04-19T07:08:35.999Z</time></trkpt><trkpt lat="45.00865342911776" lon="9.990873436607021"><ele>40.0</ele><time>2026-04-19T07:08:36.999Z</time></trkpt><trkpt lat="45.008603440659826" lon="9.990787328086283"><ele>40.0</ele><time>2026-04-19T07:08:37.999Z</time></trkpt><trkpt lat="45.00855395153871" lon="9.990702079701707"><ele>40.0</ele><time>2026-04-19T07:08:38.999Z</time></trkpt><trkpt lat="45.008503624781994" lon="9.990615388393605"><ele>40.0</ele><time>2026-04-19T07:08:39.999Z</time></trkpt><trkpt lat="45.00845404511365" lon="9.990530687389446"><ele>40.0</ele><time>2026-04-19T07:08:40.999Z</time></trkpt><trkpt lat="45.008402534247786" lon="9.990444532901721"><ele>40.0</ele><time>2026-04-19T07:08:41.999Z</time></trkpt><trkpt lat="45.00835268508148" lon="9.990361157721923"><ele>40.0</ele><time>2026-04-19T07:08:42.999Z</time></trkpt><trkpt lat="45.008301732715424" lon="9.990275937410606"><ele>40.0</ele><time>2026-04-19T07:08:43.999Z</time></trkpt><trkpt lat="45.008252305891105" lon="9.99019326867743"><ele>40.0</ele><time>2026-04-19T07:08:44.999Z</time></trkpt><trkpt lat="45.00818477674369" lon="9.990129913143889"><ele>40.0</ele><time>2026-04-19T07:08:45.999Z</time></trkpt><trkpt lat="45.00813744427551" lon="9.99004196061136"><ele>40.0</ele><time>2026-04-19T07:08:46.999Z</time></trkpt><trkpt lat="45.00808378513485" lon="9.9899581118592"><ele>40.0</ele><time>2026-04-19T07:08:47.999Z</time></trkpt><trkpt lat="45.008033097661325" lon="9.989871516922006"><ele>40.0</ele><time>2026-04-19T07:08:48.999Z</time></trkpt><trkpt lat="45.00798193996813" lon="9.989786324194291"><ele>40.0</ele><time>2026-04-19T07:08:49.999Z</time></trkpt><trkpt lat="45.007929797940946" lon="9.989696278757112"><ele>40.0</ele><time>2026-04-19T07:08:50.999Z</time></trkpt><trkpt lat="45.00787861155696" lon="9.989606768968203"><ele>40.16666666666667</ele><time>2026-04-19T07:08:51.999Z</time></trkpt><trkpt lat="45.007827692123634" lon="9.98951876021794"><ele>40.333333333333336</ele><time>2026-04-19T07:08:52.999Z</time></trkpt><trkpt lat="45.00778121991527" lon="9.98942142438284"><ele>40.5</ele><time>2026-04-19T07:08:53.999Z</time></trkpt><trkpt lat="45.007735542204955" lon="9.989329454379522"><ele>40.666666666666664</ele><time>2026-04-19T07:08:54.999Z</time></trkpt><trkpt lat="45.0076922377569" lon="9.989230873219974"><ele>40.83333333333333</ele><time>2026-04-19T07:08:55.999Z</time></trkpt><trkpt lat="45.00764918651118" lon="9.989130951800377"><ele>41.0</ele><time>2026-04-19T07:08:56.999Z</time></trkpt><trkpt lat="45.0076349437578" lon="9.989012189913819"><ele>41.0</ele><time>2026-04-19T07:08:57.999Z</time></trkpt><trkpt lat="45.00760043837368" lon="9.988904462660862"><ele>41.0</ele><time>2026-04-19T07:08:58.999Z</time></trkpt><trkpt lat="45.0075410668362" lon="9.988813985558153"><ele>41.0</ele><time>2026-04-19T07:08:59.999Z</time></trkpt><trkpt lat="45.00750695479197" lon="9.988709811853465"><ele>41.0</ele><time>2026-04-19T07:09:00.999Z</time></trkpt><trkpt lat="45.00746887087561" lon="9.988602045774774"><ele>41.0</ele><time>2026-04-19T07:09:01.999Z</time></trkpt><trkpt lat="45.007429912314386" lon="9.988499070420303"><ele>41.0</ele><time>2026-04-19T07:09:02.999Z</time></trkpt><trkpt lat="45.00738434311366" lon="9.988402633409583"><ele>41.0</ele><time>2026-04-19T07:09:03.999Z</time></trkpt><trkpt lat="45.00733556548732" lon="9.98830700861054"><ele>41.0</ele><time>2026-04-19T07:09:04.999Z</time></trkpt><trkpt lat="45.0072863511685" lon="9.98821377844407"><ele>41.0</ele><time>2026-04-19T07:09:05.999Z</time></trkpt><trkpt lat="45.00723470299777" lon="9.988123585910872"><ele>41.0</ele><time>2026-04-19T07:09:06.999Z</time></trkpt><trkpt lat="45.0071970557238" lon="9.988015382138366"><ele>41.0</ele><time>2026-04-19T07:09:07.999Z</time></trkpt><trkpt lat="45.00714230428579" lon="9.987928575762435"><ele>41.0</ele><time>2026-04-19T07:09:08.999Z</time></trkpt><trkpt lat="45.00708935954439" lon="9.987844634047242"><ele>41.0</ele><time>2026-04-19T07:09:09.999Z</time></trkpt><trkpt lat="45.007034831672534" lon="9.987757761478717"><ele>41.0</ele><time>2026-04-19T07:09:10.999Z</time></trkpt><trkpt lat="45.00698212180268" lon="9.987672898926961"><ele>41.0</ele><time>2026-04-19T07:09:11.999Z</time></trkpt><trkpt lat="45.00692811468909" lon="9.987585947502831"><ele>41.0</ele><time>2026-04-19T07:09:12.999Z</time></trkpt><trkpt lat="45.006875702531715" lon="9.987501564207617"><ele>41.0</ele><time>2026-04-19T07:09:13.999Z</time></trkpt><trkpt lat="45.00682202673248" lon="9.987415146265668"><ele>41.0</ele><time>2026-04-19T07:09:14.999Z</time></trkpt><trkpt lat="45.00676647608983" lon="9.987326568371204"><ele>41.0</ele><time>2026-04-19T07:09:15.998Z</time></trkpt><trkpt lat="45.00671387021402" lon="9.98724331089048"><ele>41.0</ele><time>2026-04-19T07:09:16.998Z</time></trkpt><trkpt lat="45.00665962741032" lon="9.987158415712813"><ele>41.0</ele><time>2026-04-19T07:09:17.998Z</time></trkpt><trkpt lat="45.00660494548026" lon="9.987073858261121"><ele>41.0</ele><time>2026-04-19T07:09:18.998Z</time></trkpt><trkpt lat="45.00655077452938" lon="9.986990091038615"><ele>41.0</ele><time>2026-04-19T07:09:19.998Z</time></trkpt><trkpt lat="45.006484839928156" lon="9.986921437247558"><ele>41.0</ele><time>2026-04-19T07:09:20.998Z</time></trkpt><trkpt lat="45.00643089132967" lon="9.986834646572639"><ele>41.0</ele><time>2026-04-19T07:09:21.998Z</time></trkpt><trkpt lat="45.00639018094961" lon="9.986733307643508"><ele>41.0</ele><time>2026-04-19T07:09:22.998Z</time></trkpt><trkpt lat="45.00633515467807" lon="9.986646936527444"><ele>41.0</ele><time>2026-04-19T07:09:23.998Z</time></trkpt><trkpt lat="45.00627933958334" lon="9.986563916075022"><ele>41.0</ele><time>2026-04-19T07:09:24.998Z</time></trkpt><trkpt lat="45.00621968252448" lon="9.986482179536967"><ele>41.0</ele><time>2026-04-19T07:09:26Z</time></trkpt><trkpt lat="45.006159267213924" lon="9.986403589040489"><ele>41.0</ele><time>2026-04-19T07:09:27Z</time></trkpt><trkpt lat="45.00608818171087" lon="9.986334259562827"><ele>41.166666666666664</ele><time>2026-04-19T07:09:28Z</time></trkpt><trkpt lat="45.00600794189795" lon="9.986292067962326"><ele>41.33333333333333</ele><time>2026-04-19T07:09:29Z</time></trkpt><trkpt lat="45.00593542003617" lon="9.986235413919042"><ele>41.5</ele><time>2026-04-19T07:09:30Z</time></trkpt><trkpt lat="45.005860873047475" lon="9.986180284525718"><ele>41.666666666666664</ele><time>2026-04-19T07:09:31Z</time></trkpt><trkpt lat="45.005794987350484" lon="9.986101050663567"><ele>41.833333333333336</ele><time>2026-04-19T07:09:32Z</time></trkpt><trkpt lat="45.0057228153681" lon="9.98604323439427"><ele>42.0</ele><time>2026-04-19T07:09:33Z</time></trkpt><trkpt lat="45.00565036391766" lon="9.9859851942845"><ele>41.666666666666664</ele><time>2026-04-19T07:09:34Z</time></trkpt><trkpt lat="45.00556895438458" lon="9.985952280750372"><ele>41.333333333333336</ele><time>2026-04-19T07:09:35Z</time></trkpt><trkpt lat="45.005496608544775" lon="9.985894076023753"><ele>41.0</ele><time>2026-04-19T07:09:36Z</time></trkpt><trkpt lat="45.005434006986135" lon="9.985813018778046"><ele>40.66666666666667</ele><time>2026-04-19T07:09:37Z</time></trkpt><trkpt lat="45.00536123153002" lon="9.985755413532244"><ele>40.333333333333336</ele><time>2026-04-19T07:09:38Z</time></trkpt><trkpt lat="45.00528751011581" lon="9.9856970595256"><ele>40.0</ele><time>2026-04-19T07:09:39Z</time></trkpt><trkpt lat="45.00520724186523" lon="9.985658257102708"><ele>40.0</ele><time>2026-04-19T07:09:40Z</time></trkpt><trkpt lat="45.00513511989868" lon="9.985598611570762"><ele>40.0</ele><time>2026-04-19T07:09:41Z</time></trkpt><trkpt lat="45.00506359963098" lon="9.98553881837441"><ele>40.0</ele><time>2026-04-19T07:09:42Z</time></trkpt><trkpt lat="45.00499052188371" lon="9.985480261968164"><ele>40.0</ele><time>2026-04-19T07:09:43Z</time></trkpt><trkpt lat="45.004917962307005" lon="9.985422558133942"><ele>40.0</ele><time>2026-04-19T07:09:44Z</time></trkpt><trkpt lat="45.00484499586066" lon="9.985365430425228"><ele>40.0</ele><time>2026-04-19T07:09:45Z</time></trkpt><trkpt lat="45.00476902732351" lon="9.985307803825814"><ele>40.0</ele><time>2026-04-19T07:09:46Z</time></trkpt><trkpt lat="45.00469807916147" lon="9.98524987259519"><ele>40.0</ele><time>2026-04-19T07:09:47Z</time></trkpt><trkpt lat="45.00462605549923" lon="9.985192946590098"><ele>40.0</ele><time>2026-04-19T07:09:48Z</time></trkpt><trkpt lat="45.00455292549494" lon="9.985135093097776"><ele>40.0</ele><time>2026-04-19T07:09:49Z</time></trkpt><trkpt lat="45.00448083305185" lon="9.985074277684497"><ele>40.0</ele><time>2026-04-19T07:09:50Z</time></trkpt><trkpt lat="45.00440789377368" lon="9.985016460442559"><ele>40.0</ele><time>2026-04-19T07:09:51Z</time></trkpt><trkpt lat="45.00433452737727" lon="9.98495609476579"><ele>40.16666666666667</ele><time>2026-04-19T07:09:52Z</time></trkpt><trkpt lat="45.00425972854448" lon="9.984899125307646"><ele>40.333333333333336</ele><time>2026-04-19T07:09:53Z</time></trkpt><trkpt lat="45.00418695057246" lon="9.98483955243101"><ele>40.5</ele><time>2026-04-19T07:09:54Z</time></trkpt><trkpt lat="45.00411394608263" lon="9.984781675158855"><ele>40.666666666666664</ele><time>2026-04-19T07:09:55Z</time></trkpt><trkpt lat="45.004039461533885" lon="9.984723286317218"><ele>40.83333333333333</ele><time>2026-04-19T07:09:56Z</time></trkpt><trkpt lat="45.003967669662885" lon="9.984666014810125"><ele>41.0</ele><time>2026-04-19T07:09:57Z</time></trkpt><trkpt lat="45.00389375962077" lon="9.984607800724365"><ele>41.0</ele><time>2026-04-19T07:09:58Z</time></trkpt><trkpt lat="45.00381981094499" lon="9.984548055530603"><ele>41.0</ele><time>2026-04-19T07:09:59Z</time></trkpt><trkpt lat="45.00374637277243" lon="9.98448909807786"><ele>41.0</ele><time>2026-04-19T07:10:00Z</time></trkpt><trkpt lat="45.00367213375623" lon="9.98443031288506"><ele>41.0</ele><time>2026-04-19T07:10:01Z</time></trkpt><trkpt lat="45.00359962844385" lon="9.98436742363511"><ele>41.0</ele><time>2026-04-19T07:10:02Z</time></trkpt><trkpt lat="45.00352505967305" lon="9.984311049692732"><ele>41.0</ele><time>2026-04-19T07:10:03Z</time></trkpt><trkpt lat="45.00345272467168" lon="9.984252508729192"><ele>41.0</ele><time>2026-04-19T07:10:04Z</time></trkpt><trkpt lat="45.00337772493408" lon="9.98419650161391"><ele>41.0</ele><time>2026-04-19T07:10:05Z</time></trkpt><trkpt lat="45.00330493728737" lon="9.984135973156272"><ele>41.0</ele><time>2026-04-19T07:10:06Z</time></trkpt><trkpt lat="45.00323171063366" lon="9.984077409449846"><ele>41.0</ele><time>2026-04-19T07:10:07Z</time></trkpt><trkpt lat="45.00315716431773" lon="9.984019403043426"><ele>41.0</ele><time>2026-04-19T07:10:08Z</time></trkpt><trkpt lat="45.003082272052" lon="9.983961446239372"><ele>41.0</ele><time>2026-04-19T07:10:09Z</time></trkpt><trkpt lat="45.00300975563881" lon="9.983900301686502"><ele>40.83333333333333</ele><time>2026-04-19T07:10:10Z</time></trkpt><trkpt lat="45.002936656123225" lon="9.983838816414615"><ele>40.666666666666664</ele><time>2026-04-19T07:10:11Z</time></trkpt><trkpt lat="45.002863553097775" lon="9.983778471988654"><ele>40.5</ele><time>2026-04-19T07:10:12Z</time></trkpt><trkpt lat="45.0027900590649" lon="9.983717573131417"><ele>40.333333333333336</ele><time>2026-04-19T07:10:13Z</time></trkpt><trkpt lat="45.002718245672476" lon="9.983654034969476"><ele>40.16666666666667</ele><time>2026-04-19T07:10:14Z</time></trkpt><trkpt lat="45.00265282636878" lon="9.983581768336006"><ele>40.0</ele><time>2026-04-19T07:10:15Z</time></trkpt><trkpt lat="45.002597183555025" lon="9.98349370242319"><ele>40.0</ele><time>2026-04-19T07:10:16Z</time></trkpt><trkpt lat="45.00254675968109" lon="9.983397723103257"><ele>40.0</ele><time>2026-04-19T07:10:17Z</time></trkpt><trkpt lat="45.002494621969404" lon="9.983303220764418"><ele>40.0</ele><time>2026-04-19T07:10:18Z</time></trkpt><trkpt lat="45.00244252650564" lon="9.983210442538953"><ele>40.0</ele><time>2026-04-19T07:10:19Z</time></trkpt><trkpt lat="45.00237959682192" lon="9.98312948297292"><ele>40.0</ele><time>2026-04-19T07:10:20Z</time></trkpt><trkpt lat="45.00230971116217" lon="9.983059691761145"><ele>40.0</ele><time>2026-04-19T07:10:21Z</time></trkpt><trkpt lat="45.002238816589596" lon="9.982999128606107"><ele>40.333333333333336</ele><time>2026-04-19T07:10:22Z</time></trkpt><trkpt lat="45.0021588421935" lon="9.98294433547798"><ele>40.66666666666667</ele><time>2026-04-19T07:10:23Z</time></trkpt><trkpt lat="45.00208112685575" lon="9.982901323756273"><ele>41.0</ele><time>2026-04-19T07:10:24Z</time></trkpt><trkpt lat="45.001999073156696" lon="9.982860764352948"><ele>41.333333333333336</ele><time>2026-04-19T07:10:25Z</time></trkpt><trkpt lat="45.00192256133857" lon="9.982813015945073"><ele>41.666666666666664</ele><time>2026-04-19T07:10:26Z</time></trkpt><trkpt lat="45.00184678783372" lon="9.98276564084376"><ele>42.0</ele><time>2026-04-19T07:10:26.999Z</time></trkpt><trkpt lat="45.00176880126174" lon="9.982719839756907"><ele>42.0</ele><time>2026-04-19T07:10:27.999Z</time></trkpt><trkpt lat="45.00169245359797" lon="9.982672481301192"><ele>42.0</ele><time>2026-04-19T07:10:28.999Z</time></trkpt><trkpt lat="45.00161681847177" lon="9.982627453661927"><ele>42.0</ele><time>2026-04-19T07:10:29.999Z</time></trkpt><trkpt lat="45.00154072320291" lon="9.98258123046703"><ele>42.0</ele><time>2026-04-19T07:10:30.999Z</time></trkpt><trkpt lat="45.00146321014311" lon="9.982536111311141"><ele>42.0</ele><time>2026-04-19T07:10:31.999Z</time></trkpt><trkpt lat="45.00138614029628" lon="9.982489685749412"><ele>42.0</ele><time>2026-04-19T07:10:32.999Z</time></trkpt><trkpt lat="45.00130991812202" lon="9.982442470982678"><ele>42.0</ele><time>2026-04-19T07:10:33.999Z</time></trkpt><trkpt lat="45.00123312706619" lon="9.982396803296615"><ele>42.0</ele><time>2026-04-19T07:10:34.999Z</time></trkpt><trkpt lat="45.00115592535722" lon="9.982347235330243"><ele>42.0</ele><time>2026-04-19T07:10:35.999Z</time></trkpt><trkpt lat="45.00107876263603" lon="9.982298790827201"><ele>42.0</ele><time>2026-04-19T07:10:36.999Z</time></trkpt><trkpt lat="45.001002637799175" lon="9.982250493704981"><ele>42.0</ele><time>2026-04-19T07:10:37.999Z</time></trkpt><trkpt lat="45.000924609274215" lon="9.982205099096518"><ele>42.0</ele><time>2026-04-19T07:10:38.999Z</time></trkpt><trkpt lat="45.00084792779549" lon="9.982157263660895"><ele>42.0</ele><time>2026-04-19T07:10:39.999Z</time></trkpt><trkpt lat="45.000769181540726" lon="9.9821112481201"><ele>42.0</ele><time>2026-04-19T07:10:40.999Z</time></trkpt><trkpt lat="45.00069031982018" lon="9.98206640010551"><ele>42.0</ele><time>2026-04-19T07:10:41.999Z</time></trkpt><trkpt lat="45.00061124778988" lon="9.982022766264572"><ele>42.0</ele><time>2026-04-19T07:10:42.999Z</time></trkpt><trkpt lat="45.00053157771555" lon="9.981980071154029"><ele>42.0</ele><time>2026-04-19T07:10:43.999Z</time></trkpt><trkpt lat="45.00045155926854" lon="9.981937815172161"><ele>42.0</ele><time>2026-04-19T07:10:44.999Z</time></trkpt><trkpt lat="45.000370307579246" lon="9.981900336849574"><ele>42.0</ele><time>2026-04-19T07:10:45.999Z</time></trkpt><trkpt lat="45.000289787721776" lon="9.981861400519723"><ele>42.0</ele><time>2026-04-19T07:10:46.999Z</time></trkpt><trkpt lat="45.00020933734845" lon="9.981822281775818"><ele>42.0</ele><time>2026-04-19T07:10:47.999Z</time></trkpt><trkpt lat="45.00012862129007" lon="9.981782364878404"><ele>42.0</ele><time>2026-04-19T07:10:48.999Z</time></trkpt><trkpt lat="45.00004735874184" lon="9.981746361093304"><ele>42.0</ele><time>2026-04-19T07:10:49.999Z</time></trkpt><trkpt lat="44.99996519652147" lon="9.9817075897172"><ele>42.0</ele><time>2026-04-19T07:10:50.999Z</time></trkpt><trkpt lat="44.999883813049365" lon="9.981671594135852"><ele>42.166666666666664</ele><time>2026-04-19T07:10:51.999Z</time></trkpt><trkpt lat="44.99980070690149" lon="9.981631833769157"><ele>42.333333333333336</ele><time>2026-04-19T07:10:52.999Z</time></trkpt><trkpt lat="44.999719818899194" lon="9.981594064285371"><ele>42.5</ele><time>2026-04-19T07:10:53.999Z</time></trkpt><trkpt lat="44.999637929813105" lon="9.981558217017184"><ele>42.66666666666667</ele><time>2026-04-19T07:10:54.999Z</time></trkpt><trkpt lat="44.999556881374495" lon="9.981521965815636"><ele>42.833333333333336</ele><time>2026-04-19T07:10:55.999Z</time></trkpt><trkpt lat="44.99947443743027" lon="9.981482876908379"><ele>43.0</ele><time>2026-04-19T07:10:56.999Z</time></trkpt><trkpt lat="44.99939328499074" lon="9.981444244534993"><ele>43.0</ele><time>2026-04-19T07:10:57.999Z</time></trkpt><trkpt lat="44.9993128713464" lon="9.981404970905261"><ele>43.0</ele><time>2026-04-19T07:10:58.999Z</time></trkpt><trkpt lat="44.999232184056346" lon="9.981369813039372"><ele>43.0</ele><time>2026-04-19T07:10:59.999Z</time></trkpt><trkpt lat="44.99915048299536" lon="9.981333037198521"><ele>43.0</ele><time>2026-04-19T07:11:00.999Z</time></trkpt><trkpt lat="44.999070885527644" lon="9.981296384996979"><ele>43.0</ele><time>2026-04-19T07:11:01.999Z</time></trkpt><trkpt lat="44.99898902202646" lon="9.981258839195146"><ele>43.0</ele><time>2026-04-19T07:11:02.999Z</time></trkpt><trkpt lat="44.9989071890766" lon="9.981218471032873"><ele>43.0</ele><time>2026-04-19T07:11:03.999Z</time></trkpt><trkpt lat="44.99882519028887" lon="9.981179789605266"><ele>43.0</ele><time>2026-04-19T07:11:04.999Z</time></trkpt><trkpt lat="44.99874478440601" lon="9.98114460624255"><ele>43.0</ele><time>2026-04-19T07:11:05.999Z</time></trkpt><trkpt lat="44.99866240285005" lon="9.981107604439899"><ele>43.0</ele><time>2026-04-19T07:11:06.999Z</time></trkpt><trkpt lat="44.99858266948688" lon="9.981064480708802"><ele>43.0</ele><time>2026-04-19T07:11:07.999Z</time></trkpt><trkpt lat="44.99850064466615" lon="9.981029277632274"><ele>43.0</ele><time>2026-04-19T07:11:08.999Z</time></trkpt><trkpt lat="44.99841888701544" lon="9.980986731498579"><ele>43.0</ele><time>2026-04-19T07:11:09.999Z</time></trkpt><trkpt lat="44.99833553709928" lon="9.98094757655026"><ele>43.0</ele><time>2026-04-19T07:11:10.999Z</time></trkpt><trkpt lat="44.99825449515115" lon="9.980914280298078"><ele>43.0</ele><time>2026-04-19T07:11:11.999Z</time></trkpt><trkpt lat="44.99817080636988" lon="9.980875852704916"><ele>43.0</ele><time>2026-04-19T07:11:12.999Z</time></trkpt><trkpt lat="44.99808827164891" lon="9.980837788251774"><ele>43.0</ele><time>2026-04-19T07:11:13.999Z</time></trkpt><trkpt lat="44.998009825156615" lon="9.98080146160792"><ele>43.0</ele><time>2026-04-19T07:11:14.999Z</time></trkpt><trkpt lat="44.9979263747306" lon="9.980764700320812"><ele>42.5</ele><time>2026-04-19T07:11:15.999Z</time></trkpt><trkpt lat="44.99784407366991" lon="9.98072547676394"><ele>42.0</ele><time>2026-04-19T07:11:16.999Z</time></trkpt><trkpt lat="44.997761871224085" lon="9.980690839864996"><ele>41.5</ele><time>2026-04-19T07:11:17.999Z</time></trkpt><trkpt lat="44.997680600324856" lon="9.980651352027513"><ele>41.0</ele><time>2026-04-19T07:11:18.999Z</time></trkpt><trkpt lat="44.9975985904873" lon="9.980614913334742"><ele>40.5</ele><time>2026-04-19T07:11:19.999Z</time></trkpt><trkpt lat="44.997518481239375" lon="9.980575129803256"><ele>40.0</ele><time>2026-04-19T07:11:20.999Z</time></trkpt><trkpt lat="44.9974356053604" lon="9.980537497672401"><ele>39.833333333333336</ele><time>2026-04-19T07:11:21.998Z</time></trkpt><trkpt lat="44.99735415580144" lon="9.980498543312612"><ele>39.66666666666667</ele><time>2026-04-19T07:11:22.998Z</time></trkpt><trkpt lat="44.99727291123396" lon="9.980461845661216"><ele>39.5</ele><time>2026-04-19T07:11:23.998Z</time></trkpt><trkpt lat="44.99719128874749" lon="9.980421706405002"><ele>39.333333333333336</ele><time>2026-04-19T07:11:24.998Z</time></trkpt><trkpt lat="44.997109527063344" lon="9.980384402582406"><ele>39.166666666666664</ele><time>2026-04-19T07:11:25.998Z</time></trkpt><trkpt lat="44.997026269998415" lon="9.98034728048512"><ele>39.0</ele><time>2026-04-19T07:11:26.998Z</time></trkpt><trkpt lat="44.99694387552156" lon="9.980310955447068"><ele>39.0</ele><time>2026-04-19T07:11:27.998Z</time></trkpt><trkpt lat="44.99686243703606" lon="9.980279135997279"><ele>39.0</ele><time>2026-04-19T07:11:28.998Z</time></trkpt><trkpt lat="44.99677995633284" lon="9.98024227138136"><ele>39.0</ele><time>2026-04-19T07:11:29.998Z</time></trkpt><trkpt lat="44.99669654464182" lon="9.980207882968896"><ele>39.0</ele><time>2026-04-19T07:11:31Z</time></trkpt><trkpt lat="44.99661553724056" lon="9.980173751051845"><ele>39.0</ele><time>2026-04-19T07:11:32Z</time></trkpt><trkpt lat="44.99653253831155" lon="9.98013864255718"><ele>39.0</ele><time>2026-04-19T07:11:33Z</time></trkpt><trkpt lat="44.99644978574991" lon="9.98009800982593"><ele>39.166666666666664</ele><time>2026-04-19T07:11:34Z</time></trkpt><trkpt lat="44.99636746412044" lon="9.980063941960202"><ele>39.333333333333336</ele><time>2026-04-19T07:11:35Z</time></trkpt><trkpt lat="44.996282448875796" lon="9.980026926179242"><ele>39.5</ele><time>2026-04-19T07:11:36Z</time></trkpt><trkpt lat="44.996200587567806" lon="9.979992059526703"><ele>39.66666666666667</ele><time>2026-04-19T07:11:37Z</time></trkpt><trkpt lat="44.99611595202744" lon="9.979952707916349"><ele>39.833333333333336</ele><time>2026-04-19T07:11:38Z</time></trkpt><trkpt lat="44.996034640019886" lon="9.979915538481182"><ele>40.0</ele><time>2026-04-19T07:11:39Z</time></trkpt><trkpt lat="44.99595089318922" lon="9.979879533025098"><ele>40.0</ele><time>2026-04-19T07:11:40Z</time></trkpt><trkpt lat="44.995867760195054" lon="9.979839689273566"><ele>40.0</ele><time>2026-04-19T07:11:41Z</time></trkpt><trkpt lat="44.99578608727735" lon="9.979806777182974"><ele>40.0</ele><time>2026-04-19T07:11:42Z</time></trkpt><trkpt lat="44.99570198517524" lon="9.979765332713805"><ele>40.0</ele><time>2026-04-19T07:11:43Z</time></trkpt><trkpt lat="44.99562062377299" lon="9.979727249328556"><ele>40.0</ele><time>2026-04-19T07:11:44Z</time></trkpt><trkpt lat="44.995537227292424" lon="9.97969198071606"><ele>40.0</ele><time>2026-04-19T07:11:45Z</time></trkpt><trkpt lat="44.995455617055704" lon="9.979653582783865"><ele>40.333333333333336</ele><time>2026-04-19T07:11:46Z</time></trkpt><trkpt lat="44.995373304442815" lon="9.9796117134829"><ele>40.66666666666667</ele><time>2026-04-19T07:11:47Z</time></trkpt><trkpt lat="44.99529165035076" lon="9.979574631734053"><ele>41.0</ele><time>2026-04-19T07:11:48Z</time></trkpt><trkpt lat="44.995209545305606" lon="9.979537788761192"><ele>41.333333333333336</ele><time>2026-04-19T07:11:49Z</time></trkpt><trkpt lat="44.995128921154404" lon="9.979496888386084"><ele>41.666666666666664</ele><time>2026-04-19T07:11:50Z</time></trkpt><trkpt lat="44.995049015993146" lon="9.979453880017836"><ele>42.0</ele><time>2026-04-19T07:11:51Z</time></trkpt><trkpt lat="44.994968635306606" lon="9.979412576291327"><ele>42.166666666666664</ele><time>2026-04-19T07:11:52Z</time></trkpt><trkpt lat="44.99489053759452" lon="9.979369066385852"><ele>42.333333333333336</ele><time>2026-04-19T07:11:53Z</time></trkpt><trkpt lat="44.994811067848495" lon="9.97932478954986"><ele>42.5</ele><time>2026-04-19T07:11:54Z</time></trkpt><trkpt lat="44.99473150451256" lon="9.979282916698562"><ele>42.66666666666667</ele><time>2026-04-19T07:11:55Z</time></trkpt><trkpt lat="44.99465172943316" lon="9.97923670772403"><ele>42.833333333333336</ele><time>2026-04-19T07:11:56Z</time></trkpt><trkpt lat="44.9945741860494" lon="9.979197394847413"><ele>43.0</ele><time>2026-04-19T07:11:57Z</time></trkpt><trkpt lat="44.99449279975648" lon="9.97915033350554"><ele>43.16666666666667</ele><time>2026-04-19T07:11:58Z</time></trkpt><trkpt lat="44.99441596688501" lon="9.979105285216903"><ele>43.333333333333336</ele><time>2026-04-19T07:11:59Z</time></trkpt><trkpt lat="44.99433708256984" lon="9.979061323423096"><ele>43.5</ele><time>2026-04-19T07:12:00Z</time></trkpt><trkpt lat="44.9942561345942" lon="9.979019772457162"><ele>43.666666666666664</ele><time>2026-04-19T07:12:01Z</time></trkpt><trkpt lat="44.99417775372753" lon="9.978976836739303"><ele>43.83333333333333</ele><time>2026-04-19T07:12:02Z</time></trkpt><trkpt lat="44.994101515287475" lon="9.978931262808853"><ele>44.0</ele><time>2026-04-19T07:12:03Z</time></trkpt><trkpt lat="44.99402326552321" lon="9.97888509800823"><ele>44.0</ele><time>2026-04-19T07:12:04Z</time></trkpt><trkpt lat="44.9939475076694" lon="9.97883935437546"><ele>44.0</ele><time>2026-04-19T07:12:05Z</time></trkpt><trkpt lat="44.99386868124348" lon="9.978793691119606"><ele>44.0</ele><time>2026-04-19T07:12:06Z</time></trkpt><trkpt lat="44.99379157483874" lon="9.978750806412947"><ele>44.0</ele><time>2026-04-19T07:12:07Z</time></trkpt><trkpt lat="44.9937126624957" lon="9.97870668551055"><ele>44.0</ele><time>2026-04-19T07:12:08Z</time></trkpt><trkpt lat="44.99363703316646" lon="9.978664870018497"><ele>44.0</ele><time>2026-04-19T07:12:09Z</time></trkpt><trkpt lat="44.99356138916437" lon="9.978622725347293"><ele>44.0</ele><time>2026-04-19T07:12:10Z</time></trkpt><trkpt lat="44.99348527903048" lon="9.978587928023089"><ele>44.0</ele><time>2026-04-19T07:12:11Z</time></trkpt><trkpt lat="44.99341002187727" lon="9.978568940619242"><ele>44.0</ele><time>2026-04-19T07:12:12Z</time></trkpt><trkpt lat="44.99333065780437" lon="9.97856856725137"><ele>44.0</ele><time>2026-04-19T07:12:13Z</time></trkpt><trkpt lat="44.99325404169108" lon="9.978603817825732"><ele>44.0</ele><time>2026-04-19T07:12:14Z</time></trkpt><trkpt lat="44.99318513043355" lon="9.978662340291482"><ele>44.0</ele><time>2026-04-19T07:12:15Z</time></trkpt><trkpt lat="44.99313134272588" lon="9.978754143850864"><ele>44.166666666666664</ele><time>2026-04-19T07:12:16Z</time></trkpt><trkpt lat="44.9930858721694" lon="9.978851759885213"><ele>44.33333333333333</ele><time>2026-04-19T07:12:17Z</time></trkpt><trkpt lat="44.993046431598145" lon="9.978952125474562"><ele>44.5</ele><time>2026-04-19T07:12:18Z</time></trkpt><trkpt lat="44.99300413300481" lon="9.979047353924008"><ele>44.666666666666664</ele><time>2026-04-19T07:12:19Z</time></trkpt><trkpt lat="44.99295886466191" lon="9.979140877215608"><ele>44.833333333333336</ele><time>2026-04-19T07:12:20Z</time></trkpt><trkpt lat="44.992914818623134" lon="9.97923215748336"><ele>45.0</ele><time>2026-04-19T07:12:21Z</time></trkpt><trkpt lat="44.99286890628803" lon="9.979321606152848"><ele>44.57142857142857</ele><time>2026-04-19T07:12:22Z</time></trkpt><trkpt lat="44.99282535602404" lon="9.979407394189305"><ele>44.142857142857146</ele><time>2026-04-19T07:12:23Z</time></trkpt><trkpt lat="44.99278350352489" lon="9.979493849858997"><ele>43.714285714285715</ele><time>2026-04-19T07:12:24Z</time></trkpt><trkpt lat="44.99274375944587" lon="9.979581975118952"><ele>43.285714285714285</ele><time>2026-04-19T07:12:25Z</time></trkpt><trkpt lat="44.99270402010093" lon="9.979671822217334"><ele>42.85714285714286</ele><time>2026-04-19T07:12:26Z</time></trkpt><trkpt lat="44.99266267849622" lon="9.979761934605001"><ele>42.42857142857143</ele><time>2026-04-19T07:12:27Z</time></trkpt><trkpt lat="44.99262023236182" lon="9.979849038539209"><ele>42.0</ele><time>2026-04-19T07:12:28Z</time></trkpt><trkpt lat="44.99257781345387" lon="9.979942200639915"><ele>42.166666666666664</ele><time>2026-04-19T07:12:28.999Z</time></trkpt><trkpt lat="44.992534301935095" lon="9.980030404559047"><ele>42.333333333333336</ele><time>2026-04-19T07:12:29.999Z</time></trkpt><trkpt lat="44.99249031441531" lon="9.980121758300442"><ele>42.5</ele><time>2026-04-19T07:12:30.999Z</time></trkpt><trkpt lat="44.99244761219528" lon="9.980211002468696"><ele>42.66666666666667</ele><time>2026-04-19T07:12:31.999Z</time></trkpt><trkpt lat="44.99240333856531" lon="9.980302936853905"><ele>42.833333333333336</ele><time>2026-04-19T07:12:32.999Z</time></trkpt><trkpt lat="44.99235709559037" lon="9.980394956018998"><ele>43.0</ele><time>2026-04-19T07:12:33.999Z</time></trkpt><trkpt lat="44.992315077163525" lon="9.98048863941521"><ele>43.0</ele><time>2026-04-19T07:12:34.999Z</time></trkpt><trkpt lat="44.99227094969719" lon="9.980582382187857"><ele>43.0</ele><time>2026-04-19T07:12:35.999Z</time></trkpt><trkpt lat="44.992226310796426" lon="9.98067305333468"><ele>43.0</ele><time>2026-04-19T07:12:36.999Z</time></trkpt><trkpt lat="44.992179605620144" lon="9.98076460082093"><ele>43.0</ele><time>2026-04-19T07:12:37.999Z</time></trkpt><trkpt lat="44.992134520144134" lon="9.98085639665201"><ele>43.0</ele><time>2026-04-19T07:12:38.999Z</time></trkpt><trkpt lat="44.9920898827403" lon="9.980950327237682"><ele>43.0</ele><time>2026-04-19T07:12:39.999Z</time></trkpt><trkpt lat="44.99204594857014" lon="9.9810417744855"><ele>42.833333333333336</ele><time>2026-04-19T07:12:40.999Z</time></trkpt><trkpt lat="44.992001652412924" lon="9.981135939339374"><ele>42.66666666666667</ele><time>2026-04-19T07:12:41.999Z</time></trkpt><trkpt lat="44.991956637791986" lon="9.981228264296536"><ele>42.5</ele><time>2026-04-19T07:12:42.999Z</time></trkpt><trkpt lat="44.991909415732295" lon="9.98131922723903"><ele>42.333333333333336</ele><time>2026-04-19T07:12:43.999Z</time></trkpt><trkpt lat="44.99186471063062" lon="9.981407778235125"><ele>42.166666666666664</ele><time>2026-04-19T07:12:44.999Z</time></trkpt><trkpt lat="44.991818200405405" lon="9.981499510236144"><ele>42.0</ele><time>2026-04-19T07:12:45.999Z</time></trkpt><trkpt lat="44.99177678699542" lon="9.981592557447934"><ele>42.166666666666664</ele><time>2026-04-19T07:12:46.999Z</time></trkpt><trkpt lat="44.99173519001097" lon="9.98168632477644"><ele>42.333333333333336</ele><time>2026-04-19T07:12:47.999Z</time></trkpt><trkpt lat="44.99168962883035" lon="9.981778803717143"><ele>42.5</ele><time>2026-04-19T07:12:48.999Z</time></trkpt><trkpt lat="44.99164520313386" lon="9.981870887876944"><ele>42.66666666666667</ele><time>2026-04-19T07:12:49.999Z</time></trkpt><trkpt lat="44.991602918133175" lon="9.981958571607487"><ele>42.833333333333336</ele><time>2026-04-19T07:12:50.999Z</time></trkpt><trkpt lat="44.99155981797735" lon="9.982053063821704"><ele>43.0</ele><time>2026-04-19T07:12:51.999Z</time></trkpt><trkpt lat="44.99151990951213" lon="9.982148547991608"><ele>43.0</ele><time>2026-04-19T07:12:52.999Z</time></trkpt><trkpt lat="44.99148072448878" lon="9.982238620316414"><ele>43.0</ele><time>2026-04-19T07:12:53.999Z</time></trkpt><trkpt lat="44.991434258604976" lon="9.98233212074599"><ele>43.0</ele><time>2026-04-19T07:12:54.999Z</time></trkpt><trkpt lat="44.991391226375725" lon="9.982423963747177"><ele>43.0</ele><time>2026-04-19T07:12:55.999Z</time></trkpt><trkpt lat="44.99134927564247" lon="9.982513866774305"><ele>43.0</ele><time>2026-04-19T07:12:56.999Z</time></trkpt><trkpt lat="44.991305335254005" lon="9.982606190709843"><ele>43.0</ele><time>2026-04-19T07:12:57.999Z</time></trkpt><trkpt lat="44.99126415120519" lon="9.982694923334455"><ele>43.0</ele><time>2026-04-19T07:12:58.999Z</time></trkpt><trkpt lat="44.99121858097269" lon="9.982784263158818"><ele>43.0</ele><time>2026-04-19T07:12:59.999Z</time></trkpt><trkpt lat="44.991178686326435" lon="9.98287688984701"><ele>43.0</ele><time>2026-04-19T07:13:00.999Z</time></trkpt><trkpt lat="44.99113708071992" lon="9.982968656194016"><ele>43.0</ele><time>2026-04-19T07:13:01.999Z</time></trkpt><trkpt lat="44.9910930506688" lon="9.983063030342425"><ele>43.0</ele><time>2026-04-19T07:13:02.999Z</time></trkpt><trkpt lat="44.99104708352475" lon="9.983153059841946"><ele>43.0</ele><time>2026-04-19T07:13:03.999Z</time></trkpt><trkpt lat="44.99100170152528" lon="9.98324461225241"><ele>43.0</ele><time>2026-04-19T07:13:04.999Z</time></trkpt><trkpt lat="44.99095932308117" lon="9.983336921800074"><ele>43.0</ele><time>2026-04-19T07:13:05.999Z</time></trkpt><trkpt lat="44.99091711911638" lon="9.983429392412408"><ele>43.0</ele><time>2026-04-19T07:13:06.999Z</time></trkpt><trkpt lat="44.9908733958583" lon="9.98352255355439"><ele>43.0</ele><time>2026-04-19T07:13:07.999Z</time></trkpt><trkpt lat="44.990829315223436" lon="9.983618407776632"><ele>43.0</ele><time>2026-04-19T07:13:08.999Z</time></trkpt><trkpt lat="44.990786519825804" lon="9.983712223977385"><ele>43.0</ele><time>2026-04-19T07:13:09.999Z</time></trkpt><trkpt lat="44.99074163747157" lon="9.983807221489316"><ele>43.0</ele><time>2026-04-19T07:13:10.999Z</time></trkpt><trkpt lat="44.99069888761819" lon="9.9839017639962"><ele>43.0</ele><time>2026-04-19T07:13:11.999Z</time></trkpt><trkpt lat="44.99065759773934" lon="9.9839962397313"><ele>43.0</ele><time>2026-04-19T07:13:12.999Z</time></trkpt><trkpt lat="44.99061529735913" lon="9.984087286856724"><ele>43.0</ele><time>2026-04-19T07:13:13.999Z</time></trkpt><trkpt lat="44.99057395048279" lon="9.984181643279914"><ele>43.0</ele><time>2026-04-19T07:13:14.999Z</time></trkpt><trkpt lat="44.99052963270944" lon="9.984274507759718"><ele>43.0</ele><time>2026-04-19T07:13:15.999Z</time></trkpt><trkpt lat="44.99048911613179" lon="9.984367400482785"><ele>43.16666666666667</ele><time>2026-04-19T07:13:16.999Z</time></trkpt><trkpt lat="44.99045203551221" lon="9.98445471086197"><ele>43.333333333333336</ele><time>2026-04-19T07:13:17.999Z</time></trkpt><trkpt lat="44.990412059295416" lon="9.984539108858147"><ele>43.5</ele><time>2026-04-19T07:13:18.999Z</time></trkpt><trkpt lat="44.99037541471206" lon="9.984622291731489"><ele>43.666666666666664</ele><time>2026-04-19T07:13:19.999Z</time></trkpt><trkpt lat="44.9903423412514" lon="9.984701790181415"><ele>43.83333333333333</ele><time>2026-04-19T07:13:20.999Z</time></trkpt><trkpt lat="44.990308887190494" lon="9.98478466487204"><ele>44.0</ele><time>2026-04-19T07:13:21.999Z</time></trkpt><trkpt lat="44.99024084286881" lon="9.984895411110115"><ele>44.0</ele><time>2026-04-19T07:13:23.998Z</time></trkpt><trkpt lat="44.99016950517905" lon="9.984839095724896"><ele>44.0</ele><time>2026-04-19T07:13:25.998Z</time></trkpt><trkpt lat="44.990128392991174" lon="9.984765341292565"><ele>44.0</ele><time>2026-04-19T07:13:27.998Z</time></trkpt><trkpt lat="44.990066969718626" lon="9.984667922045686"><ele>44.0</ele><time>2026-04-19T07:13:30.998Z</time></trkpt><trkpt lat="44.989997872620194" lon="9.98459305027962"><ele>44.0</ele><time>2026-04-19T07:13:33.998Z</time></trkpt><trkpt lat="44.989945874153015" lon="9.984514992055061"><ele>44.0</ele><time>2026-04-19T07:13:37Z</time></trkpt><trkpt lat="44.98989166028555" lon="9.984453719577683"><ele>44.0</ele><time>2026-04-19T07:13:40Z</time></trkpt><trkpt lat="44.989838410099324" lon="9.98439251506869"><ele>44.0</ele><time>2026-04-19T07:13:43Z</time></trkpt><trkpt lat="44.98978634024596" lon="9.98433024691091"><ele>44.0</ele><time>2026-04-19T07:13:46Z</time></trkpt><trkpt lat="44.98971924831222" lon="9.98424937054954"><ele>44.0</ele><time>2026-04-19T07:13:49Z</time></trkpt><trkpt lat="44.98967321707243" lon="9.984188454924293"><ele>44.0</ele><time>2026-04-19T07:13:51Z</time></trkpt><trkpt lat="44.98962658739506" lon="9.984126399948224"><ele>44.0</ele><time>2026-04-19T07:13:53Z</time></trkpt><trkpt lat="44.989578814045366" lon="9.984066601431051"><ele>44.0</ele><time>2026-04-19T07:13:55Z</time></trkpt><trkpt lat="44.989506395036365" lon="9.983982630894273"><ele>44.0</ele><time>2026-04-19T07:13:58Z</time></trkpt><trkpt lat="44.989457181348165" lon="9.98392048746193"><ele>44.0</ele><time>2026-04-19T07:14:00Z</time></trkpt><trkpt lat="44.98938833357646" lon="9.983844363186853"><ele>44.0</ele><time>2026-04-19T07:14:03Z</time></trkpt><trkpt lat="44.98933704116745" lon="9.983777688489075"><ele>44.0</ele><time>2026-04-19T07:14:05Z</time></trkpt><trkpt lat="44.98928325886008" lon="9.983713105508444"><ele>44.0</ele><time>2026-04-19T07:14:07Z</time></trkpt><trkpt lat="44.989226481474276" lon="9.983648046718187"><ele>44.0</ele><time>2026-04-19T07:14:09Z</time></trkpt><trkpt lat="44.98916619366362" lon="9.98358217853184"><ele>44.0</ele><time>2026-04-19T07:14:11Z</time></trkpt><trkpt lat="44.98910329071526" lon="9.983514749809052"><ele>44.0</ele><time>2026-04-19T07:14:13Z</time></trkpt><trkpt lat="44.989037211232564" lon="9.983444688109842"><ele>44.0</ele><time>2026-04-19T07:14:15Z</time></trkpt><trkpt lat="44.98896424204167" lon="9.983378151552612"><ele>44.0</ele><time>2026-04-19T07:14:17Z</time></trkpt><trkpt lat="44.9888827290327" lon="9.983314227755448"><ele>44.0</ele><time>2026-04-19T07:14:19Z</time></trkpt><trkpt lat="44.98879895866855" lon="9.983251385227225"><ele>44.0</ele><time>2026-04-19T07:14:21Z</time></trkpt><trkpt lat="44.98870709216894" lon="9.98319569787678"><ele>43.800000000000004</ele><time>2026-04-19T07:14:23Z</time></trkpt><trkpt lat="44.988614810392455" lon="9.983142125697585"><ele>43.6</ele><time>2026-04-19T07:14:25Z</time></trkpt><trkpt lat="44.98852482306325" lon="9.983089100478226"><ele>43.4</ele><time>2026-04-19T07:14:27Z</time></trkpt><trkpt lat="44.988429540868374" lon="9.983033558170733"><ele>43.2</ele><time>2026-04-19T07:14:29Z</time></trkpt><trkpt lat="44.98833738530299" lon="9.982987493064844"><ele>43.0</ele><time>2026-04-19T07:14:31Z</time></trkpt><trkpt lat="44.98823987900708" lon="9.982939783001353"><ele>42.8</ele><time>2026-04-19T07:14:32.999Z</time></trkpt><trkpt lat="44.98814346761301" lon="9.982895353406155"><ele>42.599999999999994</ele><time>2026-04-19T07:14:34.999Z</time></trkpt><trkpt lat="44.98805206568883" lon="9.982842537433388"><ele>42.400000000000006</ele><time>2026-04-19T07:14:36.999Z</time></trkpt><trkpt lat="44.98795335227249" lon="9.98279031792355"><ele>42.2</ele><time>2026-04-19T07:14:38.999Z</time></trkpt><trkpt lat="44.987853567485004" lon="9.982738130625332"><ele>42.0</ele><time>2026-04-19T07:14:40.999Z</time></trkpt><trkpt lat="44.98775241143363" lon="9.982686305855665"><ele>42.0</ele><time>2026-04-19T07:14:42.999Z</time></trkpt><trkpt lat="44.987650649168664" lon="9.982634069958802"><ele>42.0</ele><time>2026-04-19T07:14:44.999Z</time></trkpt><trkpt lat="44.987548348140194" lon="9.982580797003465"><ele>42.0</ele><time>2026-04-19T07:14:46.999Z</time></trkpt><trkpt lat="44.987447505848735" lon="9.982528979542575"><ele>42.0</ele><time>2026-04-19T07:14:48.999Z</time></trkpt><trkpt lat="44.98734664562782" lon="9.98247721336563"><ele>42.0</ele><time>2026-04-19T07:14:50.999Z</time></trkpt><trkpt lat="44.987247256820474" lon="9.982421929767934"><ele>42.400000000000006</ele><time>2026-04-19T07:14:52.999Z</time></trkpt><trkpt lat="44.987164892725154" lon="9.982378097015673"><ele>42.800000000000004</ele><time>2026-04-19T07:14:54.999Z</time></trkpt><trkpt lat="44.987064805199324" lon="9.982325566504146"><ele>43.2</ele><time>2026-04-19T07:14:56.999Z</time></trkpt><trkpt lat="44.98696368804069" lon="9.982276134019497"><ele>43.6</ele><time>2026-04-19T07:14:58.999Z</time></trkpt><trkpt lat="44.98686288218211" lon="9.982221053115572"><ele>44.0</ele><time>2026-04-19T07:15:00.999Z</time></trkpt><trkpt lat="44.986767363979254" lon="9.982163607348726"><ele>44.0</ele><time>2026-04-19T07:15:02.999Z</time></trkpt><trkpt lat="44.986664651633184" lon="9.982114296927584"><ele>44.0</ele><time>2026-04-19T07:15:04.999Z</time></trkpt><trkpt lat="44.986566810334665" lon="9.982058653321587"><ele>44.0</ele><time>2026-04-19T07:15:06.999Z</time></trkpt><trkpt lat="44.98646523329435" lon="9.982005538895084"><ele>44.0</ele><time>2026-04-19T07:15:08.999Z</time></trkpt><trkpt lat="44.98636150290632" lon="9.981951382933948"><ele>44.0</ele><time>2026-04-19T07:15:10.999Z</time></trkpt><trkpt lat="44.986260179686724" lon="9.981900982828126"><ele>44.0</ele><time>2026-04-19T07:15:12.999Z</time></trkpt><trkpt lat="44.98619078057878" lon="9.981874733274879"><ele>44.0</ele><time>2026-04-19T07:15:13.999Z</time></trkpt><trkpt lat="44.986090417407176" lon="9.981821298116767"><ele>44.0</ele><time>2026-04-19T07:15:15.999Z</time></trkpt><trkpt lat="44.98599306056933" lon="9.981767490953866"><ele>44.0</ele><time>2026-04-19T07:15:17.999Z</time></trkpt><trkpt lat="44.985889544120916" lon="9.981713924761888"><ele>44.0</ele><time>2026-04-19T07:15:19.999Z</time></trkpt><trkpt lat="44.98577433363372" lon="9.981657157438775"><ele>44.166666666666664</ele><time>2026-04-19T07:15:21.999Z</time></trkpt><trkpt lat="44.98565525264409" lon="9.981597442528196"><ele>44.33333333333333</ele><time>2026-04-19T07:15:23.999Z</time></trkpt><trkpt lat="44.98559277981436" lon="9.981567776589502"><ele>44.5</ele><time>2026-04-19T07:15:24.999Z</time></trkpt><trkpt lat="44.98553052096241" lon="9.981537515774422"><ele>44.666666666666664</ele><time>2026-04-19T07:15:25.999Z</time></trkpt><trkpt lat="44.98546733492424" lon="9.981506113785814"><ele>44.833333333333336</ele><time>2026-04-19T07:15:26.998Z</time></trkpt><trkpt lat="44.98540360651249" lon="9.981478018918308"><ele>45.0</ele><time>2026-04-19T07:15:27.998Z</time></trkpt><trkpt lat="44.98533841521395" lon="9.981449427104339"><ele>45.0</ele><time>2026-04-19T07:15:28.998Z</time></trkpt><trkpt lat="44.98527307386231" lon="9.981416519892372"><ele>45.0</ele><time>2026-04-19T07:15:29.998Z</time></trkpt><trkpt lat="44.985206855156804" lon="9.981382024203821"><ele>45.0</ele><time>2026-04-19T07:15:30.998Z</time></trkpt><trkpt lat="44.98514024812403" lon="9.981350290255223"><ele>45.0</ele><time>2026-04-19T07:15:31.998Z</time></trkpt><trkpt lat="44.985074599325046" lon="9.98131931163536"><ele>45.0</ele><time>2026-04-19T07:15:32.998Z</time></trkpt><trkpt lat="44.9850077254511" lon="9.98128418127993"><ele>45.0</ele><time>2026-04-19T07:15:33.998Z</time></trkpt><trkpt lat="44.98494229395406" lon="9.981251211759522"><ele>45.0</ele><time>2026-04-19T07:15:34.998Z</time></trkpt><trkpt lat="44.98487514761221" lon="9.98121589853725"><ele>45.285714285714285</ele><time>2026-04-19T07:15:35.998Z</time></trkpt><trkpt lat="44.984808602996424" lon="9.981183573415164"><ele>45.57142857142858</ele><time>2026-04-19T07:15:36.998Z</time></trkpt><trkpt lat="44.98474303595813" lon="9.981149513607713"><ele>45.85714285714286</ele><time>2026-04-19T07:15:37.998Z</time></trkpt><trkpt lat="44.98467792667023" lon="9.981116403371486"><ele>46.14285714285714</ele><time>2026-04-19T07:15:38.998Z</time></trkpt><trkpt lat="44.98461330782036" lon="9.981085718198681"><ele>46.42857142857143</ele><time>2026-04-19T07:15:39.998Z</time></trkpt><trkpt lat="44.984548622156446" lon="9.98105360908463"><ele>46.714285714285715</ele><time>2026-04-19T07:15:40.998Z</time></trkpt><trkpt lat="44.98448233639077" lon="9.981021175740706"><ele>47.0</ele><time>2026-04-19T07:15:42Z</time></trkpt><trkpt lat="44.984419018756974" lon="9.980990204659117"><ele>47.0</ele><time>2026-04-19T07:15:43Z</time></trkpt><trkpt lat="44.98435227090681" lon="9.980956663387223"><ele>47.0</ele><time>2026-04-19T07:15:44Z</time></trkpt><trkpt lat="44.98428788288755" lon="9.980925501818486"><ele>47.0</ele><time>2026-04-19T07:15:45Z</time></trkpt><trkpt lat="44.98422294162203" lon="9.980895430252543"><ele>47.0</ele><time>2026-04-19T07:15:46Z</time></trkpt><trkpt lat="44.98415873840143" lon="9.980862507072702"><ele>47.0</ele><time>2026-04-19T07:15:47Z</time></trkpt><trkpt lat="44.984105669484755" lon="9.980805524725685"><ele>47.0</ele><time>2026-04-19T07:15:48Z</time></trkpt><trkpt lat="44.98400990569105" lon="9.980721302176422"><ele>47.0</ele><time>2026-04-19T07:15:50Z</time></trkpt><trkpt lat="44.98385436637604" lon="9.980928364474684"><ele>47.0</ele><time>2026-04-19T07:15:52Z</time></trkpt><trkpt lat="44.983828033045995" lon="9.981027445565273"><ele>47.0</ele><time>2026-04-19T07:15:53Z</time></trkpt><trkpt lat="44.9838173416864" lon="9.981130168538769"><ele>47.0</ele><time>2026-04-19T07:15:54Z</time></trkpt><trkpt lat="44.98380636984781" lon="9.98123274153595"><ele>47.0</ele><time>2026-04-19T07:15:55Z</time></trkpt><trkpt lat="44.98378973607559" lon="9.981328863265137"><ele>47.0</ele><time>2026-04-19T07:15:56Z</time></trkpt><trkpt lat="44.98377094196726" lon="9.981429672663582"><ele>47.0</ele><time>2026-04-19T07:15:57Z</time></trkpt><trkpt lat="44.983755804651906" lon="9.981531557523256"><ele>47.0</ele><time>2026-04-19T07:15:58Z</time></trkpt><trkpt lat="44.983738492074984" lon="9.981634191237879"><ele>47.0</ele><time>2026-04-19T07:15:59Z</time></trkpt><trkpt lat="44.98372294756046" lon="9.981736760642766"><ele>47.0</ele><time>2026-04-19T07:16:00Z</time></trkpt><trkpt lat="44.98370588745122" lon="9.981837991273304"><ele>47.0</ele><time>2026-04-19T07:16:01Z</time></trkpt><trkpt lat="44.983688256185495" lon="9.98194020708604"><ele>47.0</ele><time>2026-04-19T07:16:02Z</time></trkpt><trkpt lat="44.98367051594753" lon="9.982041675967274"><ele>47.0</ele><time>2026-04-19T07:16:03Z</time></trkpt><trkpt lat="44.98365325763758" lon="9.982142301342773"><ele>47.0</ele><time>2026-04-19T07:16:04Z</time></trkpt><trkpt lat="44.98363475520079" lon="9.982244382772539"><ele>47.0</ele><time>2026-04-19T07:16:05Z</time></trkpt><trkpt lat="44.983617746403354" lon="9.98234647684671"><ele>47.0</ele><time>2026-04-19T07:16:06Z</time></trkpt><trkpt lat="44.98360337494301" lon="9.982447433209067"><ele>47.0</ele><time>2026-04-19T07:16:07Z</time></trkpt><trkpt lat="44.983586688298146" lon="9.98255075460328"><ele>47.0</ele><time>2026-04-19T07:16:08Z</time></trkpt><trkpt lat="44.98357072259987" lon="9.98265290371003"><ele>47.0</ele><time>2026-04-19T07:16:09Z</time></trkpt><trkpt lat="44.983551849760865" lon="9.982756601599055"><ele>47.0</ele><time>2026-04-19T07:16:10Z</time></trkpt><trkpt lat="44.983535819793694" lon="9.98286172807297"><ele>47.0</ele><time>2026-04-19T07:16:11Z</time></trkpt><trkpt lat="44.98351911553155" lon="9.982967127310635"><ele>47.0</ele><time>2026-04-19T07:16:12Z</time></trkpt><trkpt lat="44.98350232482354" lon="9.983072754616904"><ele>47.0</ele><time>2026-04-19T07:16:13Z</time></trkpt><trkpt lat="44.983483578013484" lon="9.983179496473838"><ele>47.0</ele><time>2026-04-19T07:16:14Z</time></trkpt><trkpt lat="44.9834655387278" lon="9.983284771646662"><ele>47.0</ele><time>2026-04-19T07:16:15Z</time></trkpt><trkpt lat="44.98344782001346" lon="9.983389694728922"><ele>46.857142857142854</ele><time>2026-04-19T07:16:16Z</time></trkpt><trkpt lat="44.983428979644465" lon="9.983494261289241"><ele>46.71428571428571</ele><time>2026-04-19T07:16:17Z</time></trkpt><trkpt lat="44.98341137953675" lon="9.98359781710458"><ele>46.57142857142857</ele><time>2026-04-19T07:16:18Z</time></trkpt><trkpt lat="44.983396558232506" lon="9.983697026063632"><ele>46.42857142857143</ele><time>2026-04-19T07:16:19Z</time></trkpt><trkpt lat="44.98338037323186" lon="9.98379451319888"><ele>46.285714285714285</ele><time>2026-04-19T07:16:20Z</time></trkpt><trkpt lat="44.98336433616769" lon="9.983889258562057"><ele>46.142857142857146</ele><time>2026-04-19T07:16:21Z</time></trkpt><trkpt lat="44.983347453033964" lon="9.983983614833074"><ele>46.0</ele><time>2026-04-19T07:16:22Z</time></trkpt><trkpt lat="44.98332950171617" lon="9.984078147777065"><ele>45.714285714285715</ele><time>2026-04-19T07:16:23Z</time></trkpt><trkpt lat="44.983313096853045" lon="9.98416981550488"><ele>45.42857142857142</ele><time>2026-04-19T07:16:24Z</time></trkpt><trkpt lat="44.983298791823145" lon="9.984261335340824"><ele>45.14285714285714</ele><time>2026-04-19T07:16:25Z</time></trkpt><trkpt lat="44.983282434877" lon="9.984353229413658"><ele>44.85714285714286</ele><time>2026-04-19T07:16:26Z</time></trkpt><trkpt lat="44.98326622278783" lon="9.984440597133554"><ele>44.57142857142857</ele><time>2026-04-19T07:16:27Z</time></trkpt><trkpt lat="44.98324872507218" lon="9.984532550805184"><ele>44.285714285714285</ele><time>2026-04-19T07:16:28Z</time></trkpt><trkpt lat="44.98323354711619" lon="9.984621595609534"><ele>44.0</ele><time>2026-04-19T07:16:29Z</time></trkpt><trkpt lat="44.983218900324104" lon="9.984711276927982"><ele>44.0</ele><time>2026-04-19T07:16:30Z</time></trkpt><trkpt lat="44.98318975178735" lon="9.984886466475391"><ele>44.0</ele><time>2026-04-19T07:16:32Z</time></trkpt><trkpt lat="44.98317541892159" lon="9.984975673572155"><ele>44.0</ele><time>2026-04-19T07:16:33Z</time></trkpt><trkpt lat="44.98315957810523" lon="9.985063280380604"><ele>44.0</ele><time>2026-04-19T07:16:34Z</time></trkpt><trkpt lat="44.98314403058244" lon="9.985150442581123"><ele>44.0</ele><time>2026-04-19T07:16:35Z</time></trkpt><trkpt lat="44.983128928560795" lon="9.985238635174529"><ele>44.0</ele><time>2026-04-19T07:16:36Z</time></trkpt><trkpt lat="44.98311434648391" lon="9.985328052125627"><ele>44.0</ele><time>2026-04-19T07:16:36.999Z</time></trkpt><trkpt lat="44.98309957226801" lon="9.985417981960056"><ele>44.0</ele><time>2026-04-19T07:16:37.999Z</time></trkpt><trkpt lat="44.98308506085826" lon="9.985508755631203"><ele>44.0</ele><time>2026-04-19T07:16:38.999Z</time></trkpt><trkpt lat="44.98306869679918" lon="9.985602101954449"><ele>44.0</ele><time>2026-04-19T07:16:39.999Z</time></trkpt><trkpt lat="44.98305370533964" lon="9.985691592673748"><ele>44.0</ele><time>2026-04-19T07:16:40.999Z</time></trkpt><trkpt lat="44.98303739120661" lon="9.985781982933267"><ele>44.0</ele><time>2026-04-19T07:16:41.999Z</time></trkpt><trkpt lat="44.983022916933955" lon="9.985874079347987"><ele>44.0</ele><time>2026-04-19T07:16:42.999Z</time></trkpt><trkpt lat="44.98300724723311" lon="9.985965005786088"><ele>44.0</ele><time>2026-04-19T07:16:43.999Z</time></trkpt><trkpt lat="44.982992005784986" lon="9.986057446684997"><ele>44.0</ele><time>2026-04-19T07:16:44.999Z</time></trkpt><trkpt lat="44.982975944439666" lon="9.98615103961883"><ele>44.0</ele><time>2026-04-19T07:16:45.999Z</time></trkpt><trkpt lat="44.98296085454705" lon="9.986243189895058"><ele>44.0</ele><time>2026-04-19T07:16:46.999Z</time></trkpt><trkpt lat="44.982943440272834" lon="9.986335813648877"><ele>44.0</ele><time>2026-04-19T07:16:47.999Z</time></trkpt><trkpt lat="44.982927044188706" lon="9.986429666857479"><ele>44.0</ele><time>2026-04-19T07:16:48.999Z</time></trkpt><trkpt lat="44.98291169032826" lon="9.986521615939484"><ele>44.0</ele><time>2026-04-19T07:16:49.999Z</time></trkpt><trkpt lat="44.982895784799176" lon="9.986615882147204"><ele>44.0</ele><time>2026-04-19T07:16:50.999Z</time></trkpt><trkpt lat="44.98287975058713" lon="9.98670765491833"><ele>44.285714285714285</ele><time>2026-04-19T07:16:51.999Z</time></trkpt><trkpt lat="44.9828644095627" lon="9.9868028881394"><ele>44.57142857142857</ele><time>2026-04-19T07:16:52.999Z</time></trkpt><trkpt lat="44.98284936336348" lon="9.986896544182997"><ele>44.85714285714286</ele><time>2026-04-19T07:16:53.999Z</time></trkpt><trkpt lat="44.98283304354405" lon="9.986990689904424"><ele>45.14285714285714</ele><time>2026-04-19T07:16:54.999Z</time></trkpt><trkpt lat="44.98281781994" lon="9.987084353398432"><ele>45.42857142857142</ele><time>2026-04-19T07:16:55.999Z</time></trkpt><trkpt lat="44.98280212204562" lon="9.987179965847533"><ele>45.714285714285715</ele><time>2026-04-19T07:16:56.999Z</time></trkpt><trkpt lat="44.98278471944106" lon="9.987274515286618"><ele>46.0</ele><time>2026-04-19T07:16:57.999Z</time></trkpt><trkpt lat="44.98276824072845" lon="9.987367690849618"><ele>46.0</ele><time>2026-04-19T07:16:58.999Z</time></trkpt><trkpt lat="44.98275186205557" lon="9.987461104498715"><ele>46.0</ele><time>2026-04-19T07:16:59.999Z</time></trkpt><trkpt lat="44.98273242690605" lon="9.98755349438309"><ele>46.0</ele><time>2026-04-19T07:17:00.999Z</time></trkpt><trkpt lat="44.982701740189896" lon="9.987642399829205"><ele>46.0</ele><time>2026-04-19T07:17:01.999Z</time></trkpt><trkpt lat="44.98265149821503" lon="9.987709576510316"><ele>46.0</ele><time>2026-04-19T07:17:02.999Z</time></trkpt><trkpt lat="44.982592964611484" lon="9.987762217040114"><ele>46.0</ele><time>2026-04-19T07:17:03.999Z</time></trkpt><trkpt lat="44.98251946275063" lon="9.987758146154738"><ele>46.0</ele><time>2026-04-19T07:17:04.999Z</time></trkpt><trkpt lat="44.982450518983896" lon="9.987728882721418"><ele>46.0</ele><time>2026-04-19T07:17:05.999Z</time></trkpt><trkpt lat="44.982387218184776" lon="9.987649780011315"><ele>46.0</ele><time>2026-04-19T07:17:06.999Z</time></trkpt><trkpt lat="44.98231727497591" lon="9.98763209308991"><ele>46.0</ele><time>2026-04-19T07:17:07.999Z</time></trkpt><trkpt lat="44.9822502871501" lon="9.98758969120443"><ele>46.0</ele><time>2026-04-19T07:17:08.999Z</time></trkpt><trkpt lat="44.98218042752931" lon="9.987549288056297"><ele>46.0</ele><time>2026-04-19T07:17:09.999Z</time></trkpt><trkpt lat="44.98211115560614" lon="9.987510686408797"><ele>46.0</ele><time>2026-04-19T07:17:10.999Z</time></trkpt><trkpt lat="44.9820426845475" lon="9.987471005184679"><ele>46.0</ele><time>2026-04-19T07:17:11.999Z</time></trkpt><trkpt lat="44.98197335149344" lon="9.987436673018326"><ele>46.0</ele><time>2026-04-19T07:17:12.999Z</time></trkpt><trkpt lat="44.98190068236342" lon="9.987406653417478"><ele>46.0</ele><time>2026-04-19T07:17:13.999Z</time></trkpt><trkpt lat="44.98182374150468" lon="9.987407172219287"><ele>46.0</ele><time>2026-04-19T07:17:14.999Z</time></trkpt><trkpt lat="44.98175061645397" lon="9.987464714678246"><ele>46.0</ele><time>2026-04-19T07:17:15.999Z</time></trkpt><trkpt lat="44.98169904018183" lon="9.987558383643718"><ele>46.0</ele><time>2026-04-19T07:17:16.999Z</time></trkpt><trkpt lat="44.98166547914018" lon="9.987663277295223"><ele>45.66666666666667</ele><time>2026-04-19T07:17:17.999Z</time></trkpt><trkpt lat="44.98164284506253" lon="9.98776985841457"><ele>45.333333333333336</ele><time>2026-04-19T07:17:18.999Z</time></trkpt><trkpt lat="44.98161724503528" lon="9.987870772703063"><ele>45.0</ele><time>2026-04-19T07:17:19.999Z</time></trkpt><trkpt lat="44.98158976722605" lon="9.987968848361524"><ele>44.666666666666664</ele><time>2026-04-19T07:17:20.999Z</time></trkpt><trkpt lat="44.981559976147004" lon="9.988069407956495"><ele>44.33333333333333</ele><time>2026-04-19T07:17:21.999Z</time></trkpt><trkpt lat="44.9815300055474" lon="9.98816972734496"><ele>44.0</ele><time>2026-04-19T07:17:22.999Z</time></trkpt><trkpt lat="44.98149916888452" lon="9.988270293233224"><ele>43.666666666666664</ele><time>2026-04-19T07:17:23.999Z</time></trkpt><trkpt lat="44.98146949550581" lon="9.988369981657653"><ele>43.33333333333333</ele><time>2026-04-19T07:17:24.999Z</time></trkpt><trkpt lat="44.98143832573685" lon="9.988468281477525"><ele>43.0</ele><time>2026-04-19T07:17:25.999Z</time></trkpt><trkpt lat="44.98140777894063" lon="9.98856889277313"><ele>42.666666666666664</ele><time>2026-04-19T07:17:26.999Z</time></trkpt><trkpt lat="44.98137782305383" lon="9.988669138764353"><ele>42.333333333333336</ele><time>2026-04-19T07:17:27.999Z</time></trkpt><trkpt lat="44.98134681947612" lon="9.988770927685037"><ele>42.0</ele><time>2026-04-19T07:17:28.999Z</time></trkpt><trkpt lat="44.98131746081778" lon="9.988869915066966"><ele>42.0</ele><time>2026-04-19T07:17:29.999Z</time></trkpt><trkpt lat="44.981287499817846" lon="9.988970343846532"><ele>42.0</ele><time>2026-04-19T07:17:30.998Z</time></trkpt><trkpt lat="44.98125740534837" lon="9.989072103518287"><ele>42.0</ele><time>2026-04-19T07:17:31.998Z</time></trkpt><trkpt lat="44.981227455099535" lon="9.989174953668657"><ele>42.0</ele><time>2026-04-19T07:17:32.998Z</time></trkpt><trkpt lat="44.9811959948251" lon="9.989276812051454"><ele>42.0</ele><time>2026-04-19T07:17:33.998Z</time></trkpt><trkpt lat="44.98116519699257" lon="9.989378459250672"><ele>42.0</ele><time>2026-04-19T07:17:34.998Z</time></trkpt><trkpt lat="44.9811358506637" lon="9.989478951171344"><ele>42.166666666666664</ele><time>2026-04-19T07:17:35.998Z</time></trkpt><trkpt lat="44.981105544810056" lon="9.989580235761135"><ele>42.333333333333336</ele><time>2026-04-19T07:17:36.998Z</time></trkpt><trkpt lat="44.98107488127607" lon="9.989682349522921"><ele>42.5</ele><time>2026-04-19T07:17:37.998Z</time></trkpt><trkpt lat="44.9810439120991" lon="9.989783516115676"><ele>42.66666666666667</ele><time>2026-04-19T07:17:38.998Z</time></trkpt><trkpt lat="44.98101357159838" lon="9.98988610911938"><ele>42.833333333333336</ele><time>2026-04-19T07:17:39.998Z</time></trkpt><trkpt lat="44.980985772196625" lon="9.989986069388507"><ele>43.0</ele><time>2026-04-19T07:17:40.998Z</time></trkpt><trkpt lat="44.98095792423905" lon="9.990088952388632"><ele>43.16666666666667</ele><time>2026-04-19T07:17:41.998Z</time></trkpt><trkpt lat="44.98092817082108" lon="9.990190028461171"><ele>43.333333333333336</ele><time>2026-04-19T07:17:42.998Z</time></trkpt><trkpt lat="44.98089646764945" lon="9.990289753260965"><ele>43.5</ele><time>2026-04-19T07:17:43.998Z</time></trkpt><trkpt lat="44.98086716721085" lon="9.990388853355856"><ele>43.666666666666664</ele><time>2026-04-19T07:17:44.998Z</time></trkpt><trkpt lat="44.9808381580592" lon="9.990491124333644"><ele>43.83333333333333</ele><time>2026-04-19T07:17:45.998Z</time></trkpt><trkpt lat="44.980806177760265" lon="9.990594226802601"><ele>44.0</ele><time>2026-04-19T07:17:46.998Z</time></trkpt><trkpt lat="44.980776886217626" lon="9.990696471272342"><ele>44.0</ele><time>2026-04-19T07:17:48Z</time></trkpt><trkpt lat="44.98074632839931" lon="9.99080123498458"><ele>44.0</ele><time>2026-04-19T07:17:49Z</time></trkpt><trkpt lat="44.98071754966276" lon="9.990900538417689"><ele>44.0</ele><time>2026-04-19T07:17:50Z</time></trkpt><trkpt lat="44.98068801697259" lon="9.991001025504174"><ele>44.0</ele><time>2026-04-19T07:17:51Z</time></trkpt><trkpt lat="44.980656726390386" lon="9.991103528077595"><ele>44.0</ele><time>2026-04-19T07:17:52Z</time></trkpt><trkpt lat="44.98062441631466" lon="9.99120295728954"><ele>44.0</ele><time>2026-04-19T07:17:53Z</time></trkpt><trkpt lat="44.98059645138055" lon="9.991302660390696"><ele>43.83333333333333</ele><time>2026-04-19T07:17:54Z</time></trkpt><trkpt lat="44.980566080098576" lon="9.991407219634985"><ele>43.666666666666664</ele><time>2026-04-19T07:17:55Z</time></trkpt><trkpt lat="44.98053640434135" lon="9.991509210548355"><ele>43.5</ele><time>2026-04-19T07:17:56Z</time></trkpt><trkpt lat="44.980506046245075" lon="9.99161110427248"><ele>43.333333333333336</ele><time>2026-04-19T07:17:57Z</time></trkpt><trkpt lat="44.980474327281655" lon="9.991711208079458"><ele>43.16666666666667</ele><time>2026-04-19T07:17:58Z</time></trkpt><trkpt lat="44.98044368050697" lon="9.991812751790249"><ele>43.0</ele><time>2026-04-19T07:17:59Z</time></trkpt><trkpt lat="44.98041376044344" lon="9.991915347271224"><ele>43.0</ele><time>2026-04-19T07:18:00Z</time></trkpt><trkpt lat="44.98038316164703" lon="9.992016680217212"><ele>43.0</ele><time>2026-04-19T07:18:01Z</time></trkpt><trkpt lat="44.98035316627015" lon="9.992119965811638"><ele>43.0</ele><time>2026-04-19T07:18:02Z</time></trkpt><trkpt lat="44.98032183975067" lon="9.99222289327567"><ele>43.0</ele><time>2026-04-19T07:18:03Z</time></trkpt><trkpt lat="44.98029393705604" lon="9.992326020913818"><ele>43.0</ele><time>2026-04-19T07:18:04Z</time></trkpt><trkpt lat="44.9802644738579" lon="9.992429478386414"><ele>43.0</ele><time>2026-04-19T07:18:05Z</time></trkpt><trkpt lat="44.980235997250986" lon="9.99253346944797"><ele>43.0</ele><time>2026-04-19T07:18:06Z</time></trkpt><trkpt lat="44.98020639488807" lon="9.992634341384651"><ele>43.0</ele><time>2026-04-19T07:18:07Z</time></trkpt><trkpt lat="44.98017377125906" lon="9.992736953153806"><ele>43.0</ele><time>2026-04-19T07:18:08Z</time></trkpt><trkpt lat="44.98014486433164" lon="9.99283916978965"><ele>43.0</ele><time>2026-04-19T07:18:09Z</time></trkpt><trkpt lat="44.980113506563775" lon="9.99294193220415"><ele>43.0</ele><time>2026-04-19T07:18:10Z</time></trkpt><trkpt lat="44.980085519058235" lon="9.993045963494705"><ele>43.0</ele><time>2026-04-19T07:18:11Z</time></trkpt><trkpt lat="44.980055960032836" lon="9.993147600952298"><ele>43.0</ele><time>2026-04-19T07:18:12Z</time></trkpt><trkpt lat="44.98002686579542" lon="9.99325203923719"><ele>43.0</ele><time>2026-04-19T07:18:13Z</time></trkpt><trkpt lat="44.979995255046774" lon="9.993355490932185"><ele>43.0</ele><time>2026-04-19T07:18:14Z</time></trkpt><trkpt lat="44.979967427384565" lon="9.993457394212694"><ele>43.0</ele><time>2026-04-19T07:18:15Z</time></trkpt><trkpt lat="44.97993988632701" lon="9.993558797873364"><ele>43.0</ele><time>2026-04-19T07:18:16Z</time></trkpt><trkpt lat="44.97991254808738" lon="9.993660966047484"><ele>43.0</ele><time>2026-04-19T07:18:17Z</time></trkpt><trkpt lat="44.97988430371151" lon="9.99375987730049"><ele>43.0</ele><time>2026-04-19T07:18:18Z</time></trkpt><trkpt lat="44.97986169305564" lon="9.993855213587334"><ele>43.0</ele><time>2026-04-19T07:18:19Z</time></trkpt><trkpt lat="44.97981356794779" lon="9.993990542653222"><ele>43.0</ele><time>2026-04-19T07:18:21Z</time></trkpt><trkpt lat="44.97972495870092" lon="9.993966044647431"><ele>43.0</ele><time>2026-04-19T07:18:22Z</time></trkpt><trkpt lat="44.979670352046526" lon="9.993901303810528"><ele>43.0</ele><time>2026-04-19T07:18:23Z</time></trkpt><trkpt lat="44.97960292139395" lon="9.993873426631987"><ele>43.0</ele><time>2026-04-19T07:18:24Z</time></trkpt><trkpt lat="44.97954190581445" lon="9.993827292787627"><ele>43.00000000000001</ele><time>2026-04-19T07:18:25Z</time></trkpt><trkpt lat="44.97947565295235" lon="9.993784907413175"><ele>43.0</ele><time>2026-04-19T07:18:26Z</time></trkpt><trkpt lat="44.97940805785251" lon="9.99374577370196"><ele>43.0</ele><time>2026-04-19T07:18:27Z</time></trkpt><trkpt lat="44.97933850356887" lon="9.993704873390424"><ele>43.0</ele><time>2026-04-19T07:18:28Z</time></trkpt><trkpt lat="44.97926993810586" lon="9.993664201002082"><ele>43.0</ele><time>2026-04-19T07:18:29Z</time></trkpt><trkpt lat="44.97919937364951" lon="9.993622602636218"><ele>43.00000000000001</ele><time>2026-04-19T07:18:30Z</time></trkpt><trkpt lat="44.9791287993032" lon="9.993581180530313"><ele>43.0</ele><time>2026-04-19T07:18:31Z</time></trkpt><trkpt lat="44.979057776422415" lon="9.993541503317303"><ele>43.0</ele><time>2026-04-19T07:18:32Z</time></trkpt><trkpt lat="44.97898656865569" lon="9.993500556301184"><ele>43.0</ele><time>2026-04-19T07:18:33Z</time></trkpt><trkpt lat="44.97891462509422" lon="9.993461191822755"><ele>43.0</ele><time>2026-04-19T07:18:34Z</time></trkpt><trkpt lat="44.978844063271005" lon="9.993417468280372"><ele>43.0</ele><time>2026-04-19T07:18:35Z</time></trkpt><trkpt lat="44.97877243966464" lon="9.993369538172127"><ele>43.0</ele><time>2026-04-19T07:18:36Z</time></trkpt><trkpt lat="44.97870097981678" lon="9.993325600400246"><ele>43.0</ele><time>2026-04-19T07:18:37Z</time></trkpt><trkpt lat="44.9786291293732" lon="9.993282819025383"><ele>43.0</ele><time>2026-04-19T07:18:38Z</time></trkpt><trkpt lat="44.97855725770007" lon="9.993240223684703"><ele>43.0</ele><time>2026-04-19T07:18:39Z</time></trkpt><trkpt lat="44.97848445060481" lon="9.993198861461213"><ele>43.0</ele><time>2026-04-19T07:18:40Z</time></trkpt><trkpt lat="44.978411785620736" lon="9.99315544774483"><ele>43.0</ele><time>2026-04-19T07:18:40.999Z</time></trkpt><trkpt lat="44.97833834333413" lon="9.993111957069805"><ele>43.0</ele><time>2026-04-19T07:18:41.999Z</time></trkpt><trkpt lat="44.9782631842707" lon="9.993068305908736"><ele>43.0</ele><time>2026-04-19T07:18:42.999Z</time></trkpt><trkpt lat="44.97819013319741" lon="9.993027657079436"><ele>42.833333333333336</ele><time>2026-04-19T07:18:43.999Z</time></trkpt><trkpt lat="44.978115540458404" lon="9.992984409626024"><ele>42.66666666666667</ele><time>2026-04-19T07:18:44.999Z</time></trkpt><trkpt lat="44.978041745128316" lon="9.992944636498054"><ele>42.5</ele><time>2026-04-19T07:18:45.999Z</time></trkpt><trkpt lat="44.97796617397492" lon="9.992908580889413"><ele>42.333333333333336</ele><time>2026-04-19T07:18:46.999Z</time></trkpt><trkpt lat="44.977888781842545" lon="9.992877778829248"><ele>42.166666666666664</ele><time>2026-04-19T07:18:47.999Z</time></trkpt><trkpt lat="44.97781016557429" lon="9.992851672457697"><ele>42.0</ele><time>2026-04-19T07:18:48.999Z</time></trkpt><trkpt lat="44.977731311160674" lon="9.992829727831431"><ele>42.0</ele><time>2026-04-19T07:18:49.999Z</time></trkpt><trkpt lat="44.977651742641015" lon="9.992809049733285"><ele>42.0</ele><time>2026-04-19T07:18:50.999Z</time></trkpt><trkpt lat="44.97757387524118" lon="9.992781608856557"><ele>42.0</ele><time>2026-04-19T07:18:51.999Z</time></trkpt><trkpt lat="44.97749622886713" lon="9.99274943460627"><ele>42.0</ele><time>2026-04-19T07:18:52.999Z</time></trkpt><trkpt lat="44.97741869221414" lon="9.992715787272049"><ele>42.0</ele><time>2026-04-19T07:18:53.999Z</time></trkpt><trkpt lat="44.97734215766645" lon="9.992679724425024"><ele>42.0</ele><time>2026-04-19T07:18:54.999Z</time></trkpt><trkpt lat="44.977266725418815" lon="9.992639100500913"><ele>42.166666666666664</ele><time>2026-04-19T07:18:55.999Z</time></trkpt><trkpt lat="44.977190673957864" lon="9.992603584465806"><ele>42.333333333333336</ele><time>2026-04-19T07:18:56.999Z</time></trkpt><trkpt lat="44.977114582182764" lon="9.992566099659696"><ele>42.5</ele><time>2026-04-19T07:18:57.999Z</time></trkpt><trkpt lat="44.97703805372429" lon="9.992529476792292"><ele>42.66666666666667</ele><time>2026-04-19T07:18:58.999Z</time></trkpt><trkpt lat="44.97696124034699" lon="9.992493628229173"><ele>42.833333333333336</ele><time>2026-04-19T07:18:59.999Z</time></trkpt><trkpt lat="44.97688508305192" lon="9.992459643537591"><ele>43.0</ele><time>2026-04-19T07:19:00.999Z</time></trkpt><trkpt lat="44.97680991485467" lon="9.992421251285442"><ele>43.16666666666667</ele><time>2026-04-19T07:19:01.999Z</time></trkpt><trkpt lat="44.97673284536092" lon="9.99238539733097"><ele>43.333333333333336</ele><time>2026-04-19T07:19:02.999Z</time></trkpt><trkpt lat="44.97665834703732" lon="9.992343799812462"><ele>43.5</ele><time>2026-04-19T07:19:03.999Z</time></trkpt><trkpt lat="44.9765824403572" lon="9.992302681256367"><ele>43.666666666666664</ele><time>2026-04-19T07:19:04.999Z</time></trkpt><trkpt lat="44.9765085662529" lon="9.992260719798882"><ele>43.83333333333333</ele><time>2026-04-19T07:19:05.999Z</time></trkpt><trkpt lat="44.97643376547807" lon="9.992220831808858"><ele>44.0</ele><time>2026-04-19T07:19:06.999Z</time></trkpt><trkpt lat="44.97635742098697" lon="9.992173948694177"><ele>44.0</ele><time>2026-04-19T07:19:07.999Z</time></trkpt><trkpt lat="44.976282929739554" lon="9.992128079008557"><ele>44.0</ele><time>2026-04-19T07:19:08.999Z</time></trkpt><trkpt lat="44.97620895896451" lon="9.992086031434452"><ele>44.0</ele><time>2026-04-19T07:19:09.999Z</time></trkpt><trkpt lat="44.97613377088873" lon="9.99204422475717"><ele>44.0</ele><time>2026-04-19T07:19:10.999Z</time></trkpt><trkpt lat="44.97605761494167" lon="9.991996569302996"><ele>44.0</ele><time>2026-04-19T07:19:11.999Z</time></trkpt><trkpt lat="44.97598390266272" lon="9.991949685978346"><ele>44.0</ele><time>2026-04-19T07:19:12.999Z</time></trkpt><trkpt lat="44.97591028568792" lon="9.991902489999557"><ele>43.666666666666664</ele><time>2026-04-19T07:19:13.999Z</time></trkpt><trkpt lat="44.975837206778344" lon="9.991858592762563"><ele>43.33333333333333</ele><time>2026-04-19T07:19:14.999Z</time></trkpt><trkpt lat="44.97576011018918" lon="9.99181129353443"><ele>43.0</ele><time>2026-04-19T07:19:15.999Z</time></trkpt><trkpt lat="44.97568688668702" lon="9.991763762620165"><ele>42.666666666666664</ele><time>2026-04-19T07:19:16.999Z</time></trkpt><trkpt lat="44.97561314345758" lon="9.991710336091531"><ele>42.333333333333336</ele><time>2026-04-19T07:19:17.999Z</time></trkpt><trkpt lat="44.97554113887819" lon="9.991655111315326"><ele>42.0</ele><time>2026-04-19T07:19:18.999Z</time></trkpt><trkpt lat="44.97546930095369" lon="9.991606674007585"><ele>42.0</ele><time>2026-04-19T07:19:19.999Z</time></trkpt><trkpt lat="44.97539663967752" lon="9.991556239904806"><ele>42.0</ele><time>2026-04-19T07:19:20.999Z</time></trkpt><trkpt lat="44.97532359992236" lon="9.991505915312798"><ele>42.0</ele><time>2026-04-19T07:19:21.999Z</time></trkpt><trkpt lat="44.97524938233389" lon="9.991457046189723"><ele>42.0</ele><time>2026-04-19T07:19:22.999Z</time></trkpt><trkpt lat="44.97517615317255" lon="9.991410191704164"><ele>42.0</ele><time>2026-04-19T07:19:23.999Z</time></trkpt><trkpt lat="44.97510121201344" lon="9.991364270376634"><ele>42.0</ele><time>2026-04-19T07:19:24.999Z</time></trkpt><trkpt lat="44.97502759602596" lon="9.991311038386982"><ele>42.0</ele><time>2026-04-19T07:19:25.999Z</time></trkpt><trkpt lat="44.97495575751305" lon="9.991262377623931"><ele>42.0</ele><time>2026-04-19T07:19:26.999Z</time></trkpt><trkpt lat="44.97488379786118" lon="9.991214676355243"><ele>42.0</ele><time>2026-04-19T07:19:27.999Z</time></trkpt><trkpt lat="44.97480829966625" lon="9.991166047066573"><ele>42.0</ele><time>2026-04-19T07:19:28.999Z</time></trkpt><trkpt lat="44.97473598103838" lon="9.991122953380794"><ele>42.0</ele><time>2026-04-19T07:19:29.999Z</time></trkpt><trkpt lat="44.97466069136028" lon="9.991079459311644"><ele>42.0</ele><time>2026-04-19T07:19:30.999Z</time></trkpt><trkpt lat="44.97458622005813" lon="9.991035789245606"><ele>42.0</ele><time>2026-04-19T07:19:31.999Z</time></trkpt><trkpt lat="44.974510043159945" lon="9.990998179760943"><ele>42.0</ele><time>2026-04-19T07:19:32.999Z</time></trkpt><trkpt lat="44.97443942585894" lon="9.99095537174929"><ele>42.0</ele><time>2026-04-19T07:19:33.999Z</time></trkpt><trkpt lat="44.974362653740656" lon="9.990911561081473"><ele>42.0</ele><time>2026-04-19T07:19:34.999Z</time></trkpt><trkpt lat="44.97428932215918" lon="9.990872526683406"><ele>42.0</ele><time>2026-04-19T07:19:35.998Z</time></trkpt><trkpt lat="44.97421606055525" lon="9.990833435595816"><ele>42.0</ele><time>2026-04-19T07:19:36.998Z</time></trkpt><trkpt lat="44.97414248587124" lon="9.990798337904142"><ele>41.833333333333336</ele><time>2026-04-19T07:19:37.998Z</time></trkpt><trkpt lat="44.97406892964345" lon="9.990759652649347"><ele>41.666666666666664</ele><time>2026-04-19T07:19:38.998Z</time></trkpt><trkpt lat="44.9739958374351" lon="9.990718150585739"><ele>41.5</ele><time>2026-04-19T07:19:39.998Z</time></trkpt><trkpt lat="44.97392253696348" lon="9.990679006946337"><ele>41.33333333333333</ele><time>2026-04-19T07:19:40.998Z</time></trkpt><trkpt lat="44.97384878753651" lon="9.990639382194772"><ele>41.166666666666664</ele><time>2026-04-19T07:19:41.998Z</time></trkpt><trkpt lat="44.97377453677541" lon="9.990603559827756"><ele>41.0</ele><time>2026-04-19T07:19:42.998Z</time></trkpt><trkpt lat="44.97369884128955" lon="9.990564360655496"><ele>41.0</ele><time>2026-04-19T07:19:43.998Z</time></trkpt><trkpt lat="44.97362567132335" lon="9.990527238225138"><ele>41.0</ele><time>2026-04-19T07:19:44.998Z</time></trkpt><trkpt lat="44.973550040892825" lon="9.99048919991518"><ele>41.0</ele><time>2026-04-19T07:19:45.998Z</time></trkpt><trkpt lat="44.97347613895745" lon="9.990452912134254"><ele>41.0</ele><time>2026-04-19T07:19:46.998Z</time></trkpt><trkpt lat="44.97340179951683" lon="9.990417055333664"><ele>41.0</ele><time>2026-04-19T07:19:47.998Z</time></trkpt><trkpt lat="44.97332683964071" lon="9.99038082933856"><ele>41.0</ele><time>2026-04-19T07:19:48.998Z</time></trkpt><trkpt lat="44.97325429016565" lon="9.99034573911534"><ele>41.166666666666664</ele><time>2026-04-19T07:19:49.998Z</time></trkpt><trkpt lat="44.97317857685204" lon="9.99030533079378"><ele>41.33333333333333</ele><time>2026-04-19T07:19:50.998Z</time></trkpt><trkpt lat="44.973104431396045" lon="9.99027171963161"><ele>41.5</ele><time>2026-04-19T07:19:51.998Z</time></trkpt><trkpt lat="44.97302865865777" lon="9.990233730146311"><ele>41.666666666666664</ele><time>2026-04-19T07:19:52.998Z</time></trkpt><trkpt lat="44.972953928146545" lon="9.990199855943553"><ele>41.833333333333336</ele><time>2026-04-19T07:19:54Z</time></trkpt><trkpt lat="44.97287937361637" lon="9.990162576959342"><ele>42.0</ele><time>2026-04-19T07:19:55Z</time></trkpt><trkpt lat="44.972806037216316" lon="9.990127315653293"><ele>42.0</ele><time>2026-04-19T07:19:56Z</time></trkpt><trkpt lat="44.972733992244805" lon="9.990087224578128"><ele>42.0</ele><time>2026-04-19T07:19:57Z</time></trkpt><trkpt lat="44.972661737118905" lon="9.990043608155677"><ele>42.0</ele><time>2026-04-19T07:19:58Z</time></trkpt><trkpt lat="44.97259058097669" lon="9.989989719078913"><ele>42.0</ele><time>2026-04-19T07:19:59Z</time></trkpt><trkpt lat="44.972524199559544" lon="9.989935168662173"><ele>42.0</ele><time>2026-04-19T07:20:00Z</time></trkpt><trkpt lat="44.97245885624736" lon="9.989873120382555"><ele>42.0</ele><time>2026-04-19T07:20:01Z</time></trkpt><trkpt lat="44.97239111577278" lon="9.98980969467918"><ele>42.5</ele><time>2026-04-19T07:20:02Z</time></trkpt><trkpt lat="44.97232509669966" lon="9.989749713246999"><ele>43.0</ele><time>2026-04-19T07:20:03Z</time></trkpt><trkpt lat="44.972257330015594" lon="9.989689958025508"><ele>43.5</ele><time>2026-04-19T07:20:04Z</time></trkpt><trkpt lat="44.97218992803997" lon="9.989630340887121"><ele>44.0</ele><time>2026-04-19T07:20:05Z</time></trkpt><trkpt lat="44.972122176685545" lon="9.989567934861144"><ele>44.5</ele><time>2026-04-19T07:20:06Z</time></trkpt><trkpt lat="44.97205368901294" lon="9.98950467351926"><ele>45.0</ele><time>2026-04-19T07:20:07Z</time></trkpt><trkpt lat="44.97198753511679" lon="9.989445246101631"><ele>45.0</ele><time>2026-04-19T07:20:08Z</time></trkpt><trkpt lat="44.97191914195887" lon="9.989383661698623"><ele>45.0</ele><time>2026-04-19T07:20:09Z</time></trkpt><trkpt lat="44.971849590113266" lon="9.989322814549688"><ele>45.0</ele><time>2026-04-19T07:20:10Z</time></trkpt><trkpt lat="44.971782094547194" lon="9.98926404175939"><ele>45.0</ele><time>2026-04-19T07:20:11Z</time></trkpt><trkpt lat="44.97171591179869" lon="9.989201514726897"><ele>45.0</ele><time>2026-04-19T07:20:12Z</time></trkpt><trkpt lat="44.971649152580504" lon="9.989136200823623"><ele>45.0</ele><time>2026-04-19T07:20:13Z</time></trkpt><trkpt lat="44.971582701618246" lon="9.98907823307494"><ele>44.833333333333336</ele><time>2026-04-19T07:20:14Z</time></trkpt><trkpt lat="44.97151720213369" lon="9.989014812857999"><ele>44.666666666666664</ele><time>2026-04-19T07:20:15Z</time></trkpt><trkpt lat="44.97145034479186" lon="9.988955866667622"><ele>44.5</ele><time>2026-04-19T07:20:16Z</time></trkpt><trkpt lat="44.97138564871901" lon="9.988894046238546"><ele>44.33333333333333</ele><time>2026-04-19T07:20:17Z</time></trkpt><trkpt lat="44.971315367093354" lon="9.988834325164296"><ele>44.166666666666664</ele><time>2026-04-19T07:20:18Z</time></trkpt><trkpt lat="44.971250725686794" lon="9.98877309190027"><ele>44.0</ele><time>2026-04-19T07:20:19Z</time></trkpt><trkpt lat="44.971183926215446" lon="9.988716625767104"><ele>44.0</ele><time>2026-04-19T07:20:20Z</time></trkpt><trkpt lat="44.97111574740344" lon="9.988653184018014"><ele>44.0</ele><time>2026-04-19T07:20:21Z</time></trkpt><trkpt lat="44.97104741922419" lon="9.98859636612662"><ele>44.0</ele><time>2026-04-19T07:20:22Z</time></trkpt><trkpt lat="44.97097943972592" lon="9.988535369135075"><ele>44.0</ele><time>2026-04-19T07:20:23Z</time></trkpt><trkpt lat="44.97091261428215" lon="9.9884776501639"><ele>44.0</ele><time>2026-04-19T07:20:24Z</time></trkpt><trkpt lat="44.970843731817254" lon="9.988415016527831"><ele>44.0</ele><time>2026-04-19T07:20:25Z</time></trkpt><trkpt lat="44.97077381377463" lon="9.9883643649237"><ele>44.0</ele><time>2026-04-19T07:20:26Z</time></trkpt><trkpt lat="44.970702854726845" lon="9.988309411032475"><ele>44.0</ele><time>2026-04-19T07:20:27Z</time></trkpt><trkpt lat="44.97062990604306" lon="9.988260951219376"><ele>44.0</ele><time>2026-04-19T07:20:28Z</time></trkpt><trkpt lat="44.97055512802324" lon="9.9882208595264"><ele>44.0</ele><time>2026-04-19T07:20:29Z</time></trkpt><trkpt lat="44.97047897358279" lon="9.988183224182466"><ele>44.0</ele><time>2026-04-19T07:20:30Z</time></trkpt><trkpt lat="44.97040207223113" lon="9.988156583123118"><ele>44.0</ele><time>2026-04-19T07:20:31Z</time></trkpt><trkpt lat="44.97032207080022" lon="9.988131881626318"><ele>44.0</ele><time>2026-04-19T07:20:32Z</time></trkpt><trkpt lat="44.97024192859106" lon="9.988108986028676"><ele>44.0</ele><time>2026-04-19T07:20:33Z</time></trkpt><trkpt lat="44.97016546157231" lon="9.988086375374726"><ele>44.0</ele><time>2026-04-19T07:20:34Z</time></trkpt><trkpt lat="44.97008780267938" lon="9.988065880614938"><ele>44.0</ele><time>2026-04-19T07:20:35Z</time></trkpt><trkpt lat="44.97000802765739" lon="9.988045246265767"><ele>44.0</ele><time>2026-04-19T07:20:36Z</time></trkpt><trkpt lat="44.96992763034219" lon="9.98802738147315"><ele>44.0</ele><time>2026-04-19T07:20:37Z</time></trkpt><trkpt lat="44.96984882797116" lon="9.988009940486576"><ele>44.33333333333333</ele><time>2026-04-19T07:20:38Z</time></trkpt><trkpt lat="44.969769359576844" lon="9.98799982824839"><ele>44.666666666666664</ele><time>2026-04-19T07:20:39Z</time></trkpt><trkpt lat="44.96968780412048" lon="9.987995503413579"><ele>45.0</ele><time>2026-04-19T07:20:40Z</time></trkpt><trkpt lat="44.96960946226897" lon="9.987999196796542"><ele>45.333333333333336</ele><time>2026-04-19T07:20:41Z</time></trkpt><trkpt lat="44.9695289843552" lon="9.98800970274238"><ele>45.66666666666667</ele><time>2026-04-19T07:20:42Z</time></trkpt><trkpt lat="44.96944807558136" lon="9.98801944600736"><ele>46.0</ele><time>2026-04-19T07:20:43Z</time></trkpt><trkpt lat="44.9693707073026" lon="9.988038048682919"><ele>46.0</ele><time>2026-04-19T07:20:44Z</time></trkpt><trkpt lat="44.96928834138938" lon="9.98805452210484"><ele>46.0</ele><time>2026-04-19T07:20:45Z</time></trkpt><trkpt lat="44.9692104048894" lon="9.988073098979298"><ele>46.0</ele><time>2026-04-19T07:20:45.999Z</time></trkpt><trkpt lat="44.969130480492865" lon="9.988091545866261"><ele>46.0</ele><time>2026-04-19T07:20:46.999Z</time></trkpt><trkpt lat="44.96905126659435" lon="9.988109579916717"><ele>46.0</ele><time>2026-04-19T07:20:47.999Z</time></trkpt><trkpt lat="44.96897470052351" lon="9.988133042444325"><ele>46.0</ele><time>2026-04-19T07:20:48.999Z</time></trkpt><trkpt lat="44.968893116255295" lon="9.98814996449479"><ele>46.0</ele><time>2026-04-19T07:20:49.999Z</time></trkpt><trkpt lat="44.96881541932336" lon="9.98817186213302"><ele>46.0</ele><time>2026-04-19T07:20:50.999Z</time></trkpt><trkpt lat="44.968734619919374" lon="9.988190111352584"><ele>46.0</ele><time>2026-04-19T07:20:51.999Z</time></trkpt><trkpt lat="44.96865592783346" lon="9.9882055005452"><ele>46.0</ele><time>2026-04-19T07:20:52.999Z</time></trkpt><trkpt lat="44.96857605927237" lon="9.988224242900744"><ele>46.0</ele><time>2026-04-19T07:20:53.999Z</time></trkpt><trkpt lat="44.96849485103117" lon="9.9882452708338"><ele>46.0</ele><time>2026-04-19T07:20:54.999Z</time></trkpt><trkpt lat="44.96841597311698" lon="9.988265479873"><ele>45.833333333333336</ele><time>2026-04-19T07:20:55.999Z</time></trkpt><trkpt lat="44.96833595873362" lon="9.988286889183184"><ele>45.66666666666667</ele><time>2026-04-19T07:20:56.999Z</time></trkpt><trkpt lat="44.96825727044413" lon="9.98830894449386"><ele>45.5</ele><time>2026-04-19T07:20:57.999Z</time></trkpt><trkpt lat="44.96817706940186" lon="9.988328163713868"><ele>45.333333333333336</ele><time>2026-04-19T07:20:58.999Z</time></trkpt><trkpt lat="44.96809572068742" lon="9.988347037522797"><ele>45.166666666666664</ele><time>2026-04-19T07:20:59.999Z</time></trkpt><trkpt lat="44.96801597406079" lon="9.98836927407534"><ele>45.0</ele><time>2026-04-19T07:21:00.999Z</time></trkpt><trkpt lat="44.96793754349872" lon="9.988390868913813"><ele>44.833333333333336</ele><time>2026-04-19T07:21:01.999Z</time></trkpt><trkpt lat="44.967858093839965" lon="9.988409862429021"><ele>44.666666666666664</ele><time>2026-04-19T07:21:02.999Z</time></trkpt><trkpt lat="44.96777983104124" lon="9.988431267145913"><ele>44.5</ele><time>2026-04-19T07:21:03.999Z</time></trkpt><trkpt lat="44.967699824379366" lon="9.988450501057198"><ele>44.33333333333333</ele><time>2026-04-19T07:21:04.999Z</time></trkpt><trkpt lat="44.96761987747976" lon="9.988470987081408"><ele>44.166666666666664</ele><time>2026-04-19T07:21:05.999Z</time></trkpt><trkpt lat="44.96753957663921" lon="9.988490832458249"><ele>44.0</ele><time>2026-04-19T07:21:06.999Z</time></trkpt><trkpt lat="44.9674581781934" lon="9.98851354064355"><ele>44.33333333333333</ele><time>2026-04-19T07:21:07.999Z</time></trkpt><trkpt lat="44.967377313696694" lon="9.988533026262802"><ele>44.666666666666664</ele><time>2026-04-19T07:21:08.999Z</time></trkpt><trkpt lat="44.96729600297835" lon="9.988553025090399"><ele>45.0</ele><time>2026-04-19T07:21:09.999Z</time></trkpt><trkpt lat="44.96721407545674" lon="9.988573594281242"><ele>45.333333333333336</ele><time>2026-04-19T07:21:10.999Z</time></trkpt><trkpt lat="44.9671327653293" lon="9.988593863351344"><ele>45.66666666666667</ele><time>2026-04-19T07:21:11.999Z</time></trkpt><trkpt lat="44.96705135249656" lon="9.988613554812753"><ele>46.0</ele><time>2026-04-19T07:21:12.999Z</time></trkpt><trkpt lat="44.96697210522836" lon="9.988636981874066"><ele>46.0</ele><time>2026-04-19T07:21:13.999Z</time></trkpt><trkpt lat="44.96689036485383" lon="9.988653909521174"><ele>46.0</ele><time>2026-04-19T07:21:14.999Z</time></trkpt><trkpt lat="44.96680857034279" lon="9.988672967147497"><ele>46.0</ele><time>2026-04-19T07:21:15.999Z</time></trkpt><trkpt lat="44.96672936330206" lon="9.98869299205474"><ele>46.0</ele><time>2026-04-19T07:21:16.999Z</time></trkpt><trkpt lat="44.96664872242234" lon="9.988709888177274"><ele>46.0</ele><time>2026-04-19T07:21:17.999Z</time></trkpt><trkpt lat="44.9665664650395" lon="9.98872624755636"><ele>46.0</ele><time>2026-04-19T07:21:18.999Z</time></trkpt><trkpt lat="44.96648561783456" lon="9.988749243114635"><ele>46.0</ele><time>2026-04-19T07:21:19.999Z</time></trkpt><trkpt lat="44.96640634384933" lon="9.988765618989502"><ele>46.0</ele><time>2026-04-19T07:21:20.999Z</time></trkpt><trkpt lat="44.96632423762014" lon="9.988786815900896"><ele>46.0</ele><time>2026-04-19T07:21:21.999Z</time></trkpt><trkpt lat="44.966243354480724" lon="9.988806824814864"><ele>46.0</ele><time>2026-04-19T07:21:22.999Z</time></trkpt><trkpt lat="44.966162413853944" lon="9.988820467641007"><ele>46.0</ele><time>2026-04-19T07:21:23.999Z</time></trkpt><trkpt lat="44.966080869234695" lon="9.988838669087954"><ele>46.0</ele><time>2026-04-19T07:21:24.999Z</time></trkpt><trkpt lat="44.96599933323943" lon="9.988861311989556"><ele>46.0</ele><time>2026-04-19T07:21:25.999Z</time></trkpt><trkpt lat="44.96591737327802" lon="9.988878890782646"><ele>46.0</ele><time>2026-04-19T07:21:26.999Z</time></trkpt><trkpt lat="44.965838141395494" lon="9.988896237542457"><ele>46.0</ele><time>2026-04-19T07:21:27.999Z</time></trkpt><trkpt lat="44.965757128748116" lon="9.98891678201446"><ele>46.0</ele><time>2026-04-19T07:21:28.999Z</time></trkpt><trkpt lat="44.96567803510178" lon="9.988937512232297"><ele>46.0</ele><time>2026-04-19T07:21:29.999Z</time></trkpt><trkpt lat="44.96559992648205" lon="9.988959303588857"><ele>46.0</ele><time>2026-04-19T07:21:30.999Z</time></trkpt><trkpt lat="44.96552547509013" lon="9.98897931074907"><ele>46.333333333333336</ele><time>2026-04-19T07:21:31.999Z</time></trkpt><trkpt lat="44.96544481232699" lon="9.988995839785447"><ele>46.66666666666667</ele><time>2026-04-19T07:21:32.999Z</time></trkpt><trkpt lat="44.96536663956568" lon="9.989010084752849"><ele>47.0</ele><time>2026-04-19T07:21:33.999Z</time></trkpt><trkpt lat="44.965288563202" lon="9.98903275317383"><ele>47.333333333333336</ele><time>2026-04-19T07:21:34.999Z</time></trkpt><trkpt lat="44.965211977082504" lon="9.989054320503069"><ele>47.666666666666664</ele><time>2026-04-19T07:21:35.999Z</time></trkpt><trkpt lat="44.96513255445115" lon="9.989079975988759"><ele>48.0</ele><time>2026-04-19T07:21:36.999Z</time></trkpt><trkpt lat="44.96505970138924" lon="9.98913091258933"><ele>47.333333333333336</ele><time>2026-04-19T07:21:37.999Z</time></trkpt><trkpt lat="44.96500495043894" lon="9.989210456798164"><ele>46.666666666666664</ele><time>2026-04-19T07:21:38.999Z</time></trkpt><trkpt lat="44.964958483821746" lon="9.98930202110036"><ele>46.0</ele><time>2026-04-19T07:21:39.998Z</time></trkpt><trkpt lat="44.964925637354554" lon="9.989402543390515"><ele>45.33333333333333</ele><time>2026-04-19T07:21:40.998Z</time></trkpt><trkpt lat="44.964892829852296" lon="9.989506350436457"><ele>44.666666666666664</ele><time>2026-04-19T07:21:41.998Z</time></trkpt><trkpt lat="44.964861138343196" lon="9.989606713935679"><ele>44.0</ele><time>2026-04-19T07:21:42.998Z</time></trkpt><trkpt lat="44.96482623310558" lon="9.989709670282739"><ele>44.0</ele><time>2026-04-19T07:21:43.998Z</time></trkpt><trkpt lat="44.96479125830891" lon="9.989806535847903"><ele>44.0</ele><time>2026-04-19T07:21:44.998Z</time></trkpt><trkpt lat="44.964756634644516" lon="9.989906572277242"><ele>44.0</ele><time>2026-04-19T07:21:45.998Z</time></trkpt><trkpt lat="44.964721408005424" lon="9.990005482128645"><ele>44.0</ele><time>2026-04-19T07:21:46.998Z</time></trkpt><trkpt lat="44.964689091788046" lon="9.990099574152364"><ele>44.0</ele><time>2026-04-19T07:21:47.998Z</time></trkpt><trkpt lat="44.964657961779956" lon="9.990190115192911"><ele>44.0</ele><time>2026-04-19T07:21:48.998Z</time></trkpt><trkpt lat="44.96461921739956" lon="9.990269963104254"><ele>44.0</ele><time>2026-04-19T07:21:49.998Z</time></trkpt><trkpt lat="44.96456600572389" lon="9.990329401523365"><ele>44.142857142857146</ele><time>2026-04-19T07:21:50.998Z</time></trkpt><trkpt lat="44.96449594311517" lon="9.99034183053219"><ele>44.285714285714285</ele><time>2026-04-19T07:21:51.998Z</time></trkpt><trkpt lat="44.964424267170685" lon="9.990317137822494"><ele>44.42857142857143</ele><time>2026-04-19T07:21:52.998Z</time></trkpt><trkpt lat="44.96436180099677" lon="9.990260883323696"><ele>44.57142857142857</ele><time>2026-04-19T07:21:53.998Z</time></trkpt><trkpt lat="44.96430450759756" lon="9.99020078628601"><ele>44.714285714285715</ele><time>2026-04-19T07:21:54.998Z</time></trkpt><trkpt lat="44.96424527033289" lon="9.990144642646515"><ele>44.857142857142854</ele><time>2026-04-19T07:21:55.998Z</time></trkpt><trkpt lat="44.964180794884044" lon="9.990089667468869"><ele>45.0</ele><time>2026-04-19T07:21:56.998Z</time></trkpt><trkpt lat="44.964115770919896" lon="9.990037552706141"><ele>44.666666666666664</ele><time>2026-04-19T07:21:57.998Z</time></trkpt><trkpt lat="44.964051237588734" lon="9.989986087461562"><ele>44.333333333333336</ele><time>2026-04-19T07:21:58.998Z</time></trkpt><trkpt lat="44.96398795207055" lon="9.98992893903383"><ele>44.0</ele><time>2026-04-19T07:22:00Z</time></trkpt><trkpt lat="44.963921593103706" lon="9.989873387478148"><ele>43.66666666666667</ele><time>2026-04-19T07:22:01Z</time></trkpt><trkpt lat="44.963854709687304" lon="9.989821928766153"><ele>43.333333333333336</ele><time>2026-04-19T07:22:02Z</time></trkpt><trkpt lat="44.96378867025903" lon="9.98976767993283"><ele>43.0</ele><time>2026-04-19T07:22:03Z</time></trkpt><trkpt lat="44.963723321075236" lon="9.989711981198814"><ele>43.0</ele><time>2026-04-19T07:22:04Z</time></trkpt><trkpt lat="44.963655919761806" lon="9.989656062898318"><ele>43.0</ele><time>2026-04-19T07:22:05Z</time></trkpt><trkpt lat="44.96358688499692" lon="9.989603233382256"><ele>43.0</ele><time>2026-04-19T07:22:06Z</time></trkpt><trkpt lat="44.963518307518314" lon="9.989547026873772"><ele>43.0</ele><time>2026-04-19T07:22:07Z</time></trkpt><trkpt lat="44.96344733669354" lon="9.989485222076286"><ele>43.0</ele><time>2026-04-19T07:22:08Z</time></trkpt><trkpt lat="44.963380439784544" lon="9.98943297899546"><ele>43.0</ele><time>2026-04-19T07:22:09Z</time></trkpt><trkpt lat="44.963311082241084" lon="9.989372836431231"><ele>43.333333333333336</ele><time>2026-04-19T07:22:10Z</time></trkpt><trkpt lat="44.96324277292494" lon="9.989316060831124"><ele>43.66666666666667</ele><time>2026-04-19T07:22:11Z</time></trkpt><trkpt lat="44.963172441411565" lon="9.989257860508301"><ele>44.0</ele><time>2026-04-19T07:22:12Z</time></trkpt><trkpt lat="44.96310097303172" lon="9.98920055835166"><ele>44.333333333333336</ele><time>2026-04-19T07:22:13Z</time></trkpt><trkpt lat="44.96303060628219" lon="9.989142756285677"><ele>44.666666666666664</ele><time>2026-04-19T07:22:14Z</time></trkpt><trkpt lat="44.962958987161024" lon="9.989085493884698"><ele>45.0</ele><time>2026-04-19T07:22:15Z</time></trkpt><trkpt lat="44.96288636216182" lon="9.98902811337662"><ele>45.0</ele><time>2026-04-19T07:22:16Z</time></trkpt><trkpt lat="44.96281737299158" lon="9.988970426530472"><ele>45.0</ele><time>2026-04-19T07:22:17Z</time></trkpt><trkpt lat="44.96274719662949" lon="9.9889122669251"><ele>45.0</ele><time>2026-04-19T07:22:18Z</time></trkpt><trkpt lat="44.96267835551437" lon="9.988854242113694"><ele>45.0</ele><time>2026-04-19T07:22:19Z</time></trkpt><trkpt lat="44.96260767452439" lon="9.98879843346371"><ele>45.0</ele><time>2026-04-19T07:22:20Z</time></trkpt><trkpt lat="44.96253733830599" lon="9.988739165620839"><ele>45.0</ele><time>2026-04-19T07:22:21Z</time></trkpt><trkpt lat="44.96246623259688" lon="9.98868112953535"><ele>45.0</ele><time>2026-04-19T07:22:22Z</time></trkpt><trkpt lat="44.96239693375225" lon="9.988623669730957"><ele>45.0</ele><time>2026-04-19T07:22:23Z</time></trkpt><trkpt lat="44.962327337391464" lon="9.988565954312707"><ele>45.0</ele><time>2026-04-19T07:22:24Z</time></trkpt><trkpt lat="44.96225620090515" lon="9.988507228073344"><ele>45.0</ele><time>2026-04-19T07:22:25Z</time></trkpt><trkpt lat="44.96218376539119" lon="9.988449726165497"><ele>45.0</ele><time>2026-04-19T07:22:26Z</time></trkpt><trkpt lat="44.9621127140948" lon="9.988391913133556"><ele>45.0</ele><time>2026-04-19T07:22:27Z</time></trkpt><trkpt lat="44.96204221548161" lon="9.988331227844698"><ele>45.0</ele><time>2026-04-19T07:22:28Z</time></trkpt><trkpt lat="44.96197077515159" lon="9.988271119687985"><ele>45.0</ele><time>2026-04-19T07:22:29Z</time></trkpt><trkpt lat="44.96189767761925" lon="9.988213175712191"><ele>45.0</ele><time>2026-04-19T07:22:30Z</time></trkpt><trkpt lat="44.96182543210034" lon="9.988153558568003"><ele>45.0</ele><time>2026-04-19T07:22:31Z</time></trkpt><trkpt lat="44.96175185434197" lon="9.98809376354652"><ele>45.0</ele><time>2026-04-19T07:22:32Z</time></trkpt><trkpt lat="44.961680062104605" lon="9.988033748351512"><ele>45.0</ele><time>2026-04-19T07:22:33Z</time></trkpt><trkpt lat="44.96160762590054" lon="9.987975083358643"><ele>45.0</ele><time>2026-04-19T07:22:34Z</time></trkpt><trkpt lat="44.96153512673177" lon="9.987914679862305"><ele>45.0</ele><time>2026-04-19T07:22:35Z</time></trkpt><trkpt lat="44.96146200589616" lon="9.987854590246318"><ele>45.0</ele><time>2026-04-19T07:22:36Z</time></trkpt><trkpt lat="44.96139057866463" lon="9.987796833697008"><ele>45.0</ele><time>2026-04-19T07:22:37Z</time></trkpt><trkpt lat="44.9613188476082" lon="9.987737798097877"><ele>45.0</ele><time>2026-04-19T07:22:38Z</time></trkpt><trkpt lat="44.9612467631418" lon="9.987678219993732"><ele>45.0</ele><time>2026-04-19T07:22:39Z</time></trkpt><trkpt lat="44.961175408282685" lon="9.987620232678845"><ele>45.0</ele><time>2026-04-19T07:22:40Z</time></trkpt><trkpt lat="44.96110247020357" lon="9.987561228405173"><ele>45.0</ele><time>2026-04-19T07:22:41Z</time></trkpt><trkpt lat="44.96103032572452" lon="9.987503033728018"><ele>45.0</ele><time>2026-04-19T07:22:42Z</time></trkpt><trkpt lat="44.96095896371594" lon="9.987440883841701"><ele>45.0</ele><time>2026-04-19T07:22:43Z</time></trkpt><trkpt lat="44.96088661453848" lon="9.987381550899597"><ele>45.0</ele><time>2026-04-19T07:22:44Z</time></trkpt><trkpt lat="44.96081364140663" lon="9.987322865155933"><ele>45.0</ele><time>2026-04-19T07:22:45Z</time></trkpt><trkpt lat="44.960741158350885" lon="9.987263511371049"><ele>44.666666666666664</ele><time>2026-04-19T07:22:46Z</time></trkpt><trkpt lat="44.960667909459595" lon="9.987203132583115"><ele>44.333333333333336</ele><time>2026-04-19T07:22:47Z</time></trkpt><trkpt lat="44.960595918377166" lon="9.987144456886316"><ele>44.0</ele><time>2026-04-19T07:22:48Z</time></trkpt><trkpt lat="44.96052462953497" lon="9.987084329832568"><ele>43.66666666666667</ele><time>2026-04-19T07:22:49Z</time></trkpt><trkpt lat="44.9604519335379" lon="9.987021999649885"><ele>43.333333333333336</ele><time>2026-04-19T07:22:50Z</time></trkpt><trkpt lat="44.96037883913314" lon="9.986963829101084"><ele>43.0</ele><time>2026-04-19T07:22:51Z</time></trkpt><trkpt lat="44.960306299001736" lon="9.986905814717893"><ele>43.0</ele><time>2026-04-19T07:22:51.999Z</time></trkpt><trkpt lat="44.96023179624753" lon="9.986846520164587"><ele>43.0</ele><time>2026-04-19T07:22:52.999Z</time></trkpt><trkpt lat="44.96015951347306" lon="9.98678588371533"><ele>43.0</ele><time>2026-04-19T07:22:53.999Z</time></trkpt><trkpt lat="44.960087429408226" lon="9.986724394268826"><ele>43.0</ele><time>2026-04-19T07:22:54.999Z</time></trkpt><trkpt lat="44.96001177865999" lon="9.986666076965633"><ele>43.0</ele><time>2026-04-19T07:22:55.999Z</time></trkpt><trkpt lat="44.959940330668964" lon="9.986604690311623"><ele>43.0</ele><time>2026-04-19T07:22:56.999Z</time></trkpt><trkpt lat="44.959866708805066" lon="9.98654345524795"><ele>43.333333333333336</ele><time>2026-04-19T07:22:57.999Z</time></trkpt><trkpt lat="44.9597933518623" lon="9.986484995705649"><ele>43.66666666666667</ele><time>2026-04-19T07:22:58.999Z</time></trkpt><trkpt lat="44.95971805191858" lon="9.986424948121327"><ele>44.0</ele><time>2026-04-19T07:22:59.999Z</time></trkpt><trkpt lat="44.95964515576074" lon="9.98636545499294"><ele>44.333333333333336</ele><time>2026-04-19T07:23:00.999Z</time></trkpt><trkpt lat="44.95957211357009" lon="9.986306930904698"><ele>44.666666666666664</ele><time>2026-04-19T07:23:01.999Z</time></trkpt><trkpt lat="44.95949936350873" lon="9.986247840939331"><ele>45.0</ele><time>2026-04-19T07:23:02.999Z</time></trkpt><trkpt lat="44.95942672707066" lon="9.986187969511374"><ele>45.0</ele><time>2026-04-19T07:23:03.999Z</time></trkpt><trkpt lat="44.95935239669963" lon="9.986128703585942"><ele>45.0</ele><time>2026-04-19T07:23:04.999Z</time></trkpt><trkpt lat="44.95927999284375" lon="9.986069376312258"><ele>45.0</ele><time>2026-04-19T07:23:05.999Z</time></trkpt><trkpt lat="44.959205360338224" lon="9.986009730200005"><ele>45.0</ele><time>2026-04-19T07:23:06.999Z</time></trkpt><trkpt lat="44.95913193726626" lon="9.9859509125444"><ele>45.0</ele><time>2026-04-19T07:23:07.999Z</time></trkpt><trkpt lat="44.959058931679884" lon="9.98589005274396"><ele>45.0</ele><time>2026-04-19T07:23:08.999Z</time></trkpt><trkpt lat="44.9589849198935" lon="9.985830319193276"><ele>45.166666666666664</ele><time>2026-04-19T07:23:09.999Z</time></trkpt><trkpt lat="44.95891133403339" lon="9.985771679420248"><ele>45.333333333333336</ele><time>2026-04-19T07:23:10.999Z</time></trkpt><trkpt lat="44.95883797957424" lon="9.985710587152571"><ele>45.5</ele><time>2026-04-19T07:23:11.999Z</time></trkpt><trkpt lat="44.95876395595746" lon="9.985650074496027"><ele>45.66666666666667</ele><time>2026-04-19T07:23:12.999Z</time></trkpt><trkpt lat="44.95869125208194" lon="9.985592038177108"><ele>45.833333333333336</ele><time>2026-04-19T07:23:13.999Z</time></trkpt><trkpt lat="44.95861729324752" lon="9.985532066775813"><ele>46.0</ele><time>2026-04-19T07:23:14.999Z</time></trkpt><trkpt lat="44.95854412782529" lon="9.985472947367281"><ele>46.0</ele><time>2026-04-19T07:23:15.999Z</time></trkpt><trkpt lat="44.958468820871374" lon="9.985413458374946"><ele>46.0</ele><time>2026-04-19T07:23:16.999Z</time></trkpt><trkpt lat="44.95839444676581" lon="9.985353776592559"><ele>46.0</ele><time>2026-04-19T07:23:17.999Z</time></trkpt><trkpt lat="44.95832039293414" lon="9.985295514627897"><ele>46.0</ele><time>2026-04-19T07:23:18.999Z</time></trkpt><trkpt lat="44.95824807215858" lon="9.985233911490905"><ele>46.0</ele><time>2026-04-19T07:23:19.999Z</time></trkpt><trkpt lat="44.9581746638537" lon="9.98517501886373"><ele>46.0</ele><time>2026-04-19T07:23:20.999Z</time></trkpt><trkpt lat="44.958101243003604" lon="9.985117859594752"><ele>45.833333333333336</ele><time>2026-04-19T07:23:21.999Z</time></trkpt><trkpt lat="44.958027710138424" lon="9.985059402070586"><ele>45.66666666666667</ele><time>2026-04-19T07:23:22.999Z</time></trkpt><trkpt lat="44.957954573516595" lon="9.98500073275421"><ele>45.5</ele><time>2026-04-19T07:23:23.999Z</time></trkpt><trkpt lat="44.95788106126774" lon="9.984942106732582"><ele>45.333333333333336</ele><time>2026-04-19T07:23:24.999Z</time></trkpt><trkpt lat="44.95780768972147" lon="9.984882508120837"><ele>45.166666666666664</ele><time>2026-04-19T07:23:25.999Z</time></trkpt><trkpt lat="44.95773410473855" lon="9.984824845163446"><ele>45.0</ele><time>2026-04-19T07:23:26.999Z</time></trkpt><trkpt lat="44.95766006048419" lon="9.984767578842757"><ele>45.0</ele><time>2026-04-19T07:23:27.999Z</time></trkpt><trkpt lat="44.95758687648222" lon="9.98470947061986"><ele>45.0</ele><time>2026-04-19T07:23:28.999Z</time></trkpt><trkpt lat="44.95751533694071" lon="9.984650786931248"><ele>45.0</ele><time>2026-04-19T07:23:29.999Z</time></trkpt><trkpt lat="44.957441804552204" lon="9.98459214548018"><ele>45.0</ele><time>2026-04-19T07:23:30.999Z</time></trkpt><trkpt lat="44.957368453273546" lon="9.984532888763122"><ele>45.0</ele><time>2026-04-19T07:23:31.999Z</time></trkpt><trkpt lat="44.957294196930505" lon="9.984473659343264"><ele>45.0</ele><time>2026-04-19T07:23:32.999Z</time></trkpt><trkpt lat="44.957219988161455" lon="9.984416572863738"><ele>45.166666666666664</ele><time>2026-04-19T07:23:33.999Z</time></trkpt><trkpt lat="44.95714623217358" lon="9.98436113409876"><ele>45.333333333333336</ele><time>2026-04-19T07:23:34.999Z</time></trkpt><trkpt lat="44.95707348687667" lon="9.98430389297479"><ele>45.5</ele><time>2026-04-19T07:23:35.999Z</time></trkpt><trkpt lat="44.95700004212291" lon="9.984246206808168"><ele>45.66666666666667</ele><time>2026-04-19T07:23:36.999Z</time></trkpt><trkpt lat="44.95692511062501" lon="9.984187440878213"><ele>45.833333333333336</ele><time>2026-04-19T07:23:37.999Z</time></trkpt><trkpt lat="44.95685251918182" lon="9.984131061968636"><ele>46.0</ele><time>2026-04-19T07:23:38.999Z</time></trkpt><trkpt lat="44.956778706804386" lon="9.984073399702957"><ele>45.66666666666667</ele><time>2026-04-19T07:23:39.999Z</time></trkpt><trkpt lat="44.956705288614884" lon="9.9840167420489"><ele>45.333333333333336</ele><time>2026-04-19T07:23:40.999Z</time></trkpt><trkpt lat="44.956632273889966" lon="9.983960262849898"><ele>45.0</ele><time>2026-04-19T07:23:41.999Z</time></trkpt><trkpt lat="44.9565605995323" lon="9.983903636159255"><ele>44.666666666666664</ele><time>2026-04-19T07:23:42.999Z</time></trkpt><trkpt lat="44.956486543866504" lon="9.983839463838773"><ele>44.33333333333333</ele><time>2026-04-19T07:23:43.999Z</time></trkpt><trkpt lat="44.95641274571" lon="9.983775869054757"><ele>44.0</ele><time>2026-04-19T07:23:44.999Z</time></trkpt><trkpt lat="44.956337628179966" lon="9.983711333883548"><ele>44.0</ele><time>2026-04-19T07:23:45.998Z</time></trkpt><trkpt lat="44.956264189165886" lon="9.983649340325966"><ele>44.0</ele><time>2026-04-19T07:23:46.998Z</time></trkpt><trkpt lat="44.95618822355365" lon="9.983583833417862"><ele>44.0</ele><time>2026-04-19T07:23:47.998Z</time></trkpt><trkpt lat="44.95611408110337" lon="9.983517810304281"><ele>44.0</ele><time>2026-04-19T07:23:48.998Z</time></trkpt><trkpt lat="44.95604250421075" lon="9.983455971560307"><ele>44.0</ele><time>2026-04-19T07:23:49.998Z</time></trkpt><trkpt lat="44.955969164768476" lon="9.983392972707158"><ele>44.0</ele><time>2026-04-19T07:23:50.998Z</time></trkpt><trkpt lat="44.9558949855189" lon="9.983331975780553"><ele>44.166666666666664</ele><time>2026-04-19T07:23:51.998Z</time></trkpt><trkpt lat="44.95582200301262" lon="9.983270122241926"><ele>44.33333333333333</ele><time>2026-04-19T07:23:52.998Z</time></trkpt><trkpt lat="44.95574760729759" lon="9.983208071982245"><ele>44.5</ele><time>2026-04-19T07:23:53.998Z</time></trkpt><trkpt lat="44.955677766252286" lon="9.98314409282767"><ele>44.666666666666664</ele><time>2026-04-19T07:23:54.998Z</time></trkpt><trkpt lat="44.95560621941548" lon="9.983084579410287"><ele>44.833333333333336</ele><time>2026-04-19T07:23:55.998Z</time></trkpt><trkpt lat="44.95553319058628" lon="9.983022822881098"><ele>45.0</ele><time>2026-04-19T07:23:56.998Z</time></trkpt><trkpt lat="44.95546251712289" lon="9.982962309563376"><ele>45.0</ele><time>2026-04-19T07:23:57.998Z</time></trkpt><trkpt lat="44.95538921167784" lon="9.982899091912198"><ele>45.0</ele><time>2026-04-19T07:23:58.998Z</time></trkpt><trkpt lat="44.95531670480959" lon="9.982836927036322"><ele>45.0</ele><time>2026-04-19T07:23:59.998Z</time></trkpt><trkpt lat="44.95524508285273" lon="9.982775286254986"><ele>45.0</ele><time>2026-04-19T07:24:00.998Z</time></trkpt><trkpt lat="44.95517443732162" lon="9.982711654404826"><ele>45.0</ele><time>2026-04-19T07:24:01.998Z</time></trkpt><trkpt lat="44.955100863651374" lon="9.982650950672678"><ele>45.0</ele><time>2026-04-19T07:24:02.998Z</time></trkpt><trkpt lat="44.95502931143052" lon="9.982589638760787"><ele>45.166666666666664</ele><time>2026-04-19T07:24:03.998Z</time></trkpt><trkpt lat="44.954956903728124" lon="9.98253007996573"><ele>45.333333333333336</ele><time>2026-04-19T07:24:04.998Z</time></trkpt><trkpt lat="44.95488446988683" lon="9.982471641907606"><ele>45.5</ele><time>2026-04-19T07:24:06Z</time></trkpt><trkpt lat="44.95481300757526" lon="9.982404834975586"><ele>45.66666666666667</ele><time>2026-04-19T07:24:07Z</time></trkpt><trkpt lat="44.95473862831676" lon="9.982343762834882"><ele>45.833333333333336</ele><time>2026-04-19T07:24:08Z</time></trkpt><trkpt lat="44.95466607595975" lon="9.982280207237618"><ele>46.0</ele><time>2026-04-19T07:24:09Z</time></trkpt><trkpt lat="44.95459154426597" lon="9.982220528828263"><ele>46.16666666666667</ele><time>2026-04-19T07:24:10Z</time></trkpt><trkpt lat="44.95451585852135" lon="9.982159986396967"><ele>46.333333333333336</ele><time>2026-04-19T07:24:11Z</time></trkpt><trkpt lat="44.95444236340345" lon="9.982102117185445"><ele>46.5</ele><time>2026-04-19T07:24:12Z</time></trkpt><trkpt lat="44.954368002037526" lon="9.982042035539818"><ele>46.666666666666664</ele><time>2026-04-19T07:24:13Z</time></trkpt><trkpt lat="44.95429116024712" lon="9.981982883077626"><ele>46.83333333333333</ele><time>2026-04-19T07:24:14Z</time></trkpt><trkpt lat="44.95421575449923" lon="9.981928248494201"><ele>47.0</ele><time>2026-04-19T07:24:15Z</time></trkpt><trkpt lat="44.95414024465463" lon="9.981871741387673"><ele>47.166666666666664</ele><time>2026-04-19T07:24:16Z</time></trkpt><trkpt lat="44.954064020920306" lon="9.98181565399647"><ele>47.33333333333333</ele><time>2026-04-19T07:24:17Z</time></trkpt><trkpt lat="44.95398682847995" lon="9.981754824784037"><ele>47.5</ele><time>2026-04-19T07:24:18Z</time></trkpt><trkpt lat="44.953913877347766" lon="9.98169780901143"><ele>47.666666666666664</ele><time>2026-04-19T07:24:19Z</time></trkpt><trkpt lat="44.953836288160836" lon="9.981641070440812"><ele>47.833333333333336</ele><time>2026-04-19T07:24:20Z</time></trkpt><trkpt lat="44.95376003550519" lon="9.981583589933326"><ele>48.0</ele><time>2026-04-19T07:24:21Z</time></trkpt><trkpt lat="44.95368442980963" lon="9.98152388730602"><ele>47.666666666666664</ele><time>2026-04-19T07:24:22Z</time></trkpt><trkpt lat="44.95360823527617" lon="9.98146628582665"><ele>47.333333333333336</ele><time>2026-04-19T07:24:23Z</time></trkpt><trkpt lat="44.953533118434365" lon="9.981407885483641"><ele>47.0</ele><time>2026-04-19T07:24:24Z</time></trkpt><trkpt lat="44.95345583624646" lon="9.981348104586747"><ele>46.66666666666667</ele><time>2026-04-19T07:24:25Z</time></trkpt><trkpt lat="44.953379447415614" lon="9.981289019784205"><ele>46.333333333333336</ele><time>2026-04-19T07:24:26Z</time></trkpt><trkpt lat="44.95330289094482" lon="9.98123022358068"><ele>46.0</ele><time>2026-04-19T07:24:27Z</time></trkpt><trkpt lat="44.95322842835482" lon="9.981169270839644"><ele>46.0</ele><time>2026-04-19T07:24:28Z</time></trkpt><trkpt lat="44.953153831900366" lon="9.98110859778786"><ele>46.0</ele><time>2026-04-19T07:24:29Z</time></trkpt><trkpt lat="44.95307885816765" lon="9.981051667224314"><ele>46.0</ele><time>2026-04-19T07:24:30Z</time></trkpt><trkpt lat="44.95300425053325" lon="9.980991076204823"><ele>46.0</ele><time>2026-04-19T07:24:31Z</time></trkpt><trkpt lat="44.95292929611927" lon="9.980929877006265"><ele>46.0</ele><time>2026-04-19T07:24:32Z</time></trkpt><trkpt lat="44.952852932912" lon="9.98086812264766"><ele>46.0</ele><time>2026-04-19T07:24:33Z</time></trkpt><trkpt lat="44.952777781158396" lon="9.980807339392689"><ele>46.0</ele><time>2026-04-19T07:24:34Z</time></trkpt><trkpt lat="44.95270150608973" lon="9.980747377879123"><ele>46.0</ele><time>2026-04-19T07:24:35Z</time></trkpt><trkpt lat="44.9526246404575" lon="9.98068423255358"><ele>46.0</ele><time>2026-04-19T07:24:36Z</time></trkpt><trkpt lat="44.952549310676794" lon="9.980624977372829"><ele>46.0</ele><time>2026-04-19T07:24:37Z</time></trkpt><trkpt lat="44.952474534264454" lon="9.980565989203614"><ele>46.0</ele><time>2026-04-19T07:24:38Z</time></trkpt><trkpt lat="44.952398975767146" lon="9.980505190882337"><ele>46.0</ele><time>2026-04-19T07:24:39Z</time></trkpt><trkpt lat="44.952323608781526" lon="9.980444312508492"><ele>46.16666666666667</ele><time>2026-04-19T07:24:40Z</time></trkpt><trkpt lat="44.95224935277091" lon="9.980385904676428"><ele>46.333333333333336</ele><time>2026-04-19T07:24:41Z</time></trkpt><trkpt lat="44.952173593231244" lon="9.980326956003372"><ele>46.5</ele><time>2026-04-19T07:24:42Z</time></trkpt><trkpt lat="44.95209788094983" lon="9.980267641962648"><ele>46.666666666666664</ele><time>2026-04-19T07:24:43Z</time></trkpt><trkpt lat="44.95202478275342" lon="9.980209048214327"><ele>46.83333333333333</ele><time>2026-04-19T07:24:44Z</time></trkpt><trkpt lat="44.9519497455221" lon="9.980149983771202"><ele>47.0</ele><time>2026-04-19T07:24:45Z</time></trkpt><trkpt lat="44.95187442644127" lon="9.980090855578384"><ele>47.0</ele><time>2026-04-19T07:24:46Z</time></trkpt><trkpt lat="44.95179913437667" lon="9.98003041992367"><ele>47.0</ele><time>2026-04-19T07:24:47Z</time></trkpt><trkpt lat="44.951722526553496" lon="9.979970658094683"><ele>47.0</ele><time>2026-04-19T07:24:48Z</time></trkpt><trkpt lat="44.95164858346793" lon="9.979910822478644"><ele>47.0</ele><time>2026-04-19T07:24:49Z</time></trkpt><trkpt lat="44.95157353894616" lon="9.979851391814798"><ele>47.0</ele><time>2026-04-19T07:24:50Z</time></trkpt><trkpt lat="44.95149714690375" lon="9.979792724933128"><ele>47.0</ele><time>2026-04-19T07:24:51Z</time></trkpt><trkpt lat="44.951420952616424" lon="9.979737068966429"><ele>46.83333333333333</ele><time>2026-04-19T07:24:52Z</time></trkpt><trkpt lat="44.95134382130558" lon="9.97968505165861"><ele>46.666666666666664</ele><time>2026-04-19T07:24:53Z</time></trkpt><trkpt lat="44.95126640959029" lon="9.979641352788445"><ele>46.5</ele><time>2026-04-19T07:24:54Z</time></trkpt><trkpt lat="44.95118391175282" lon="9.979605606907555"><ele>46.333333333333336</ele><time>2026-04-19T07:24:54.999Z</time></trkpt><trkpt lat="44.9511007190545" lon="9.979581520796211"><ele>46.16666666666667</ele><time>2026-04-19T07:24:55.999Z</time></trkpt><trkpt lat="44.95101544043164" lon="9.979566054703247"><ele>46.0</ele><time>2026-04-19T07:24:56.999Z</time></trkpt><trkpt lat="44.950929007717555" lon="9.979557838604954"><ele>45.66666666666667</ele><time>2026-04-19T07:24:57.999Z</time></trkpt><trkpt lat="44.95084431688469" lon="9.979556142890358"><ele>45.333333333333336</ele><time>2026-04-19T07:24:58.999Z</time></trkpt><trkpt lat="44.95076089424818" lon="9.979553238740312"><ele>45.0</ele><time>2026-04-19T07:24:59.999Z</time></trkpt><trkpt lat="44.95067237814284" lon="9.979553803110633"><ele>44.666666666666664</ele><time>2026-04-19T07:25:00.999Z</time></trkpt><trkpt lat="44.95058792695578" lon="9.979552572951645"><ele>44.33333333333333</ele><time>2026-04-19T07:25:01.999Z</time></trkpt><trkpt lat="44.95050141291864" lon="9.979551422254882"><ele>44.0</ele><time>2026-04-19T07:25:02.999Z</time></trkpt><trkpt lat="44.950415560035474" lon="9.979548925200305"><ele>44.0</ele><time>2026-04-19T07:25:03.999Z</time></trkpt><trkpt lat="44.950331770541005" lon="9.979550077836231"><ele>44.0</ele><time>2026-04-19T07:25:04.999Z</time></trkpt><trkpt lat="44.95024601368359" lon="9.979546795909352"><ele>44.0</ele><time>2026-04-19T07:25:05.999Z</time></trkpt><trkpt lat="44.95016263274268" lon="9.97954738047056"><ele>44.0</ele><time>2026-04-19T07:25:06.999Z</time></trkpt><trkpt lat="44.95007676139046" lon="9.979543593166404"><ele>44.0</ele><time>2026-04-19T07:25:07.999Z</time></trkpt><trkpt lat="44.949991219118544" lon="9.979542923120416"><ele>44.0</ele><time>2026-04-19T07:25:08.999Z</time></trkpt><trkpt lat="44.94990657773927" lon="9.979541479935238"><ele>44.166666666666664</ele><time>2026-04-19T07:25:09.999Z</time></trkpt><trkpt lat="44.94982099909412" lon="9.979541697098028"><ele>44.33333333333333</ele><time>2026-04-19T07:25:10.999Z</time></trkpt><trkpt lat="44.94973417660298" lon="9.979538510679689"><ele>44.5</ele><time>2026-04-19T07:25:11.999Z</time></trkpt><trkpt lat="44.949649197954194" lon="9.979535981562071"><ele>44.666666666666664</ele><time>2026-04-19T07:25:12.999Z</time></trkpt><trkpt lat="44.94956320648036" lon="9.979537234442436"><ele>44.833333333333336</ele><time>2026-04-19T07:25:13.999Z</time></trkpt><trkpt lat="44.94947522305071" lon="9.979538796822613"><ele>45.0</ele><time>2026-04-19T07:25:14.999Z</time></trkpt><trkpt lat="44.94939007379288" lon="9.979537690786415"><ele>45.0</ele><time>2026-04-19T07:25:15.999Z</time></trkpt><trkpt lat="44.94930731047094" lon="9.979534714001842"><ele>45.0</ele><time>2026-04-19T07:25:16.999Z</time></trkpt><trkpt lat="44.94922278355515" lon="9.979533936234425"><ele>45.0</ele><time>2026-04-19T07:25:17.999Z</time></trkpt><trkpt lat="44.949138056176764" lon="9.979531104977111"><ele>45.0</ele><time>2026-04-19T07:25:18.999Z</time></trkpt><trkpt lat="44.949055779207924" lon="9.979527230228795"><ele>45.0</ele><time>2026-04-19T07:25:19.999Z</time></trkpt><trkpt lat="44.948975436869375" lon="9.979522622141552"><ele>45.0</ele><time>2026-04-19T07:25:20.999Z</time></trkpt><trkpt lat="44.94889263893764" lon="9.97951581591447"><ele>45.166666666666664</ele><time>2026-04-19T07:25:21.999Z</time></trkpt><trkpt lat="44.948815555577546" lon="9.979499271743146"><ele>45.333333333333336</ele><time>2026-04-19T07:25:22.999Z</time></trkpt><trkpt lat="44.94873728790363" lon="9.979477202127148"><ele>45.5</ele><time>2026-04-19T07:25:23.999Z</time></trkpt><trkpt lat="44.94866212211645" lon="9.979444029436861"><ele>45.66666666666667</ele><time>2026-04-19T07:25:24.999Z</time></trkpt><trkpt lat="44.94859053581448" lon="9.97940975582823"><ele>45.833333333333336</ele><time>2026-04-19T07:25:25.999Z</time></trkpt><trkpt lat="44.948512363190595" lon="9.97936448352273"><ele>46.0</ele><time>2026-04-19T07:25:26.999Z</time></trkpt><trkpt lat="44.948440607556044" lon="9.979328028656386"><ele>46.16666666666667</ele><time>2026-04-19T07:25:27.999Z</time></trkpt><trkpt lat="44.94836420645164" lon="9.979282143539749"><ele>46.333333333333336</ele><time>2026-04-19T07:25:28.999Z</time></trkpt><trkpt lat="44.94829083485471" lon="9.979243222867517"><ele>46.5</ele><time>2026-04-19T07:25:29.999Z</time></trkpt><trkpt lat="44.94821528559858" lon="9.979206416568424"><ele>46.666666666666664</ele><time>2026-04-19T07:25:30.999Z</time></trkpt><trkpt lat="44.94813713391641" lon="9.97916262429799"><ele>46.83333333333333</ele><time>2026-04-19T07:25:31.999Z</time></trkpt><trkpt lat="44.948061962557425" lon="9.979124528490928"><ele>47.0</ele><time>2026-04-19T07:25:32.999Z</time></trkpt><trkpt lat="44.947987413509814" lon="9.979085661955532"><ele>47.166666666666664</ele><time>2026-04-19T07:25:33.999Z</time></trkpt><trkpt lat="44.947913034710076" lon="9.979040635883196"><ele>47.33333333333333</ele><time>2026-04-19T07:25:34.999Z</time></trkpt><trkpt lat="44.94783772803608" lon="9.979000898966586"><ele>47.5</ele><time>2026-04-19T07:25:35.999Z</time></trkpt><trkpt lat="44.9477629188746" lon="9.978961442401685"><ele>47.666666666666664</ele><time>2026-04-19T07:25:36.999Z</time></trkpt><trkpt lat="44.94768614503797" lon="9.978921457305162"><ele>47.833333333333336</ele><time>2026-04-19T07:25:37.999Z</time></trkpt><trkpt lat="44.9476125848494" lon="9.978881967545718"><ele>48.0</ele><time>2026-04-19T07:25:38.999Z</time></trkpt><trkpt lat="44.947533964058785" lon="9.978841811330886"><ele>48.0</ele><time>2026-04-19T07:25:39.999Z</time></trkpt><trkpt lat="44.94746003364968" lon="9.978799328940314"><ele>48.0</ele><time>2026-04-19T07:25:40.999Z</time></trkpt><trkpt lat="44.947383009629554" lon="9.978760633399181"><ele>48.0</ele><time>2026-04-19T07:25:41.999Z</time></trkpt><trkpt lat="44.94731005466598" lon="9.978721476475872"><ele>48.0</ele><time>2026-04-19T07:25:42.999Z</time></trkpt><trkpt lat="44.94723374906554" lon="9.978678258624145"><ele>48.0</ele><time>2026-04-19T07:25:43.999Z</time></trkpt><trkpt lat="44.947157512095345" lon="9.978635234320572"><ele>48.0</ele><time>2026-04-19T07:25:44.999Z</time></trkpt><trkpt lat="44.947081078596206" lon="9.97859622046036"><ele>48.0</ele><time>2026-04-19T07:25:45.999Z</time></trkpt><trkpt lat="44.947007019682715" lon="9.978555520165076"><ele>48.0</ele><time>2026-04-19T07:25:46.999Z</time></trkpt><trkpt lat="44.94693007087313" lon="9.978512047896421"><ele>48.0</ele><time>2026-04-19T07:25:47.999Z</time></trkpt><trkpt lat="44.94685596634165" lon="9.978472780083337"><ele>48.0</ele><time>2026-04-19T07:25:48.998Z</time></trkpt><trkpt lat="44.94678154805429" lon="9.978431027885803"><ele>48.0</ele><time>2026-04-19T07:25:49.998Z</time></trkpt><trkpt lat="44.946704544632404" lon="9.978391211506077"><ele>48.0</ele><time>2026-04-19T07:25:50.998Z</time></trkpt><trkpt lat="44.946628280943926" lon="9.978350379892214"><ele>48.0</ele><time>2026-04-19T07:25:51.998Z</time></trkpt><trkpt lat="44.946554909823575" lon="9.978309883947375"><ele>48.0</ele><time>2026-04-19T07:25:52.998Z</time></trkpt><trkpt lat="44.94647978602553" lon="9.978267660740993"><ele>48.0</ele><time>2026-04-19T07:25:53.998Z</time></trkpt><trkpt lat="44.946406455786466" lon="9.97822637981241"><ele>48.0</ele><time>2026-04-19T07:25:54.998Z</time></trkpt><trkpt lat="44.94632996922396" lon="9.978186586305851"><ele>48.0</ele><time>2026-04-19T07:25:55.998Z</time></trkpt><trkpt lat="44.94625599303219" lon="9.97814913389268"><ele>48.0</ele><time>2026-04-19T07:25:56.998Z</time></trkpt><trkpt lat="44.946181288245555" lon="9.978108745637028"><ele>48.0</ele><time>2026-04-19T07:25:57.998Z</time></trkpt><trkpt lat="44.946106127829296" lon="9.978066726043982"><ele>48.0</ele><time>2026-04-19T07:25:58.998Z</time></trkpt><trkpt lat="44.94602974082758" lon="9.978027637882223"><ele>48.0</ele><time>2026-04-19T07:25:59.998Z</time></trkpt><trkpt lat="44.945956716551215" lon="9.977986353931973"><ele>48.0</ele><time>2026-04-19T07:26:00.998Z</time></trkpt><trkpt lat="44.945877523585054" lon="9.977945880176907"><ele>48.0</ele><time>2026-04-19T07:26:01.998Z</time></trkpt><trkpt lat="44.945802766253074" lon="9.97790456777484"><ele>48.0</ele><time>2026-04-19T07:26:02.998Z</time></trkpt><trkpt lat="44.945726373937575" lon="9.977865425438724"><ele>48.333333333333336</ele><time>2026-04-19T07:26:03.998Z</time></trkpt><trkpt lat="44.945648903115966" lon="9.97782520940804"><ele>48.66666666666667</ele><time>2026-04-19T07:26:04.998Z</time></trkpt><trkpt lat="44.945572346879054" lon="9.977782908407343"><ele>49.0</ele><time>2026-04-19T07:26:05.998Z</time></trkpt><trkpt lat="44.94549589846803" lon="9.977741370281654"><ele>49.333333333333336</ele><time>2026-04-19T07:26:06.998Z</time></trkpt><trkpt lat="44.94541949831089" lon="9.977702339661464"><ele>49.66666666666667</ele><time>2026-04-19T07:26:07.998Z</time></trkpt><trkpt lat="44.94534313428562" lon="9.977662068810256"><ele>50.0</ele><time>2026-04-19T07:26:08.998Z</time></trkpt><trkpt lat="44.94526656921253" lon="9.977621997962093"><ele>50.00000000000001</ele><time>2026-04-19T07:26:09.998Z</time></trkpt><trkpt lat="44.945189171735116" lon="9.977579136226105"><ele>50.0</ele><time>2026-04-19T07:26:10.998Z</time></trkpt><trkpt lat="44.945112359492335" lon="9.977539732951893"><ele>50.0</ele><time>2026-04-19T07:26:12Z</time></trkpt><trkpt lat="44.94503662274391" lon="9.977500202717385"><ele>50.0</ele><time>2026-04-19T07:26:13Z</time></trkpt><trkpt lat="44.944961465420086" lon="9.977461257129557"><ele>50.00000000000001</ele><time>2026-04-19T07:26:14Z</time></trkpt><trkpt lat="44.94488547679238" lon="9.977422116441273"><ele>50.0</ele><time>2026-04-19T07:26:15Z</time></trkpt><trkpt lat="44.94480974583978" lon="9.97738167024967"><ele>50.00000000000001</ele><time>2026-04-19T07:26:16Z</time></trkpt><trkpt lat="44.944734519734475" lon="9.977340738329877"><ele>50.0</ele><time>2026-04-19T07:26:17Z</time></trkpt><trkpt lat="44.94465957480428" lon="9.977300657070144"><ele>50.0</ele><time>2026-04-19T07:26:18Z</time></trkpt><trkpt lat="44.9445838780217" lon="9.977260420408951"><ele>50.0</ele><time>2026-04-19T07:26:19Z</time></trkpt><trkpt lat="44.9445093506708" lon="9.977221704324778"><ele>50.00000000000001</ele><time>2026-04-19T07:26:20Z</time></trkpt><trkpt lat="44.94443436940082" lon="9.97718023038935"><ele>50.0</ele><time>2026-04-19T07:26:21Z</time></trkpt><trkpt lat="44.9443604005122" lon="9.977141784865088"><ele>50.00000000000001</ele><time>2026-04-19T07:26:22Z</time></trkpt><trkpt lat="44.944285656367505" lon="9.977101796684426"><ele>50.0</ele><time>2026-04-19T07:26:23Z</time></trkpt><trkpt lat="44.944209951120214" lon="9.977064275664"><ele>50.0</ele><time>2026-04-19T07:26:24Z</time></trkpt><trkpt lat="44.94413488083784" lon="9.977026676846474"><ele>50.0</ele><time>2026-04-19T07:26:25Z</time></trkpt><trkpt lat="44.94405968130645" lon="9.976985369934166"><ele>50.00000000000001</ele><time>2026-04-19T07:26:26Z</time></trkpt><trkpt lat="44.94398452217585" lon="9.976948748465444"><ele>50.0</ele><time>2026-04-19T07:26:27Z</time></trkpt><trkpt lat="44.943909703424794" lon="9.976909586554175"><ele>50.00000000000001</ele><time>2026-04-19T07:26:28Z</time></trkpt><trkpt lat="44.94383245690847" lon="9.976870739377544"><ele>50.0</ele><time>2026-04-19T07:26:29Z</time></trkpt><trkpt lat="44.94375696610977" lon="9.976836029363469"><ele>50.0</ele><time>2026-04-19T07:26:30Z</time></trkpt><trkpt lat="44.94368096490921" lon="9.976797370984604"><ele>50.0</ele><time>2026-04-19T07:26:31Z</time></trkpt><trkpt lat="44.94360508835181" lon="9.976757823504407"><ele>50.00000000000001</ele><time>2026-04-19T07:26:32Z</time></trkpt><trkpt lat="44.94352963942386" lon="9.976719563786277"><ele>50.0</ele><time>2026-04-19T07:26:33Z</time></trkpt><trkpt lat="44.943454264423615" lon="9.976678949013513"><ele>49.50000000000001</ele><time>2026-04-19T07:26:34Z</time></trkpt><trkpt lat="44.943378754177076" lon="9.976641810180135"><ele>49.0</ele><time>2026-04-19T07:26:35Z</time></trkpt><trkpt lat="44.94330337795354" lon="9.976604730270726"><ele>48.5</ele><time>2026-04-19T07:26:36Z</time></trkpt><trkpt lat="44.94322718799088" lon="9.976567847814106"><ele>48.0</ele><time>2026-04-19T07:26:37Z</time></trkpt><trkpt lat="44.94315841811838" lon="9.976507575107012"><ele>47.5</ele><time>2026-04-19T07:26:38Z</time></trkpt><trkpt lat="44.94307563187122" lon="9.976490760076445"><ele>47.0</ele><time>2026-04-19T07:26:39Z</time></trkpt><trkpt lat="44.94299875542348" lon="9.976451314431188"><ele>47.0</ele><time>2026-04-19T07:26:40Z</time></trkpt><trkpt lat="44.94292476029959" lon="9.976410089624606"><ele>47.0</ele><time>2026-04-19T07:26:41Z</time></trkpt><trkpt lat="44.9428464715456" lon="9.976366278514977"><ele>47.0</ele><time>2026-04-19T07:26:42Z</time></trkpt><trkpt lat="44.942772705254924" lon="9.976323233978826"><ele>47.0</ele><time>2026-04-19T07:26:43Z</time></trkpt><trkpt lat="44.94269945525638" lon="9.976277736161508"><ele>47.0</ele><time>2026-04-19T07:26:44Z</time></trkpt><trkpt lat="44.9426223398891" lon="9.976234860006162"><ele>47.0</ele><time>2026-04-19T07:26:45Z</time></trkpt><trkpt lat="44.94254637391291" lon="9.976195471418132"><ele>46.83333333333333</ele><time>2026-04-19T07:26:46Z</time></trkpt><trkpt lat="44.9424703115287" lon="9.976155516938505"><ele>46.666666666666664</ele><time>2026-04-19T07:26:47Z</time></trkpt><trkpt lat="44.94239423621961" lon="9.976113579056463"><ele>46.5</ele><time>2026-04-19T07:26:48Z</time></trkpt><trkpt lat="44.94231889783293" lon="9.97607046398565"><ele>46.333333333333336</ele><time>2026-04-19T07:26:49Z</time></trkpt><trkpt lat="44.94224119571584" lon="9.976028867273993"><ele>46.16666666666667</ele><time>2026-04-19T07:26:50Z</time></trkpt><trkpt lat="44.94216703225616" lon="9.97599282207094"><ele>46.0</ele><time>2026-04-19T07:26:51Z</time></trkpt><trkpt lat="44.942088532207535" lon="9.97595146016907"><ele>46.0</ele><time>2026-04-19T07:26:52Z</time></trkpt><trkpt lat="44.94201459703753" lon="9.975909303914865"><ele>46.0</ele><time>2026-04-19T07:26:53Z</time></trkpt><trkpt lat="44.94193686015418" lon="9.975869605601634"><ele>46.0</ele><time>2026-04-19T07:26:54Z</time></trkpt><trkpt lat="44.94186032202849" lon="9.975829647048533"><ele>46.0</ele><time>2026-04-19T07:26:55Z</time></trkpt><trkpt lat="44.94178421532133" lon="9.975791241098026"><ele>46.0</ele><time>2026-04-19T07:26:56Z</time></trkpt><trkpt lat="44.94170932571992" lon="9.975749675255372"><ele>46.0</ele><time>2026-04-19T07:26:57Z</time></trkpt><trkpt lat="44.94163183871911" lon="9.975707114715291"><ele>45.833333333333336</ele><time>2026-04-19T07:26:58Z</time></trkpt><trkpt lat="44.94155622692674" lon="9.9756666154038"><ele>45.66666666666667</ele><time>2026-04-19T07:26:58.999Z</time></trkpt><trkpt lat="44.94148092816832" lon="9.975627198861902"><ele>45.5</ele><time>2026-04-19T07:26:59.999Z</time></trkpt><trkpt lat="44.94140426515934" lon="9.975586164073242"><ele>45.333333333333336</ele><time>2026-04-19T07:27:00.999Z</time></trkpt><trkpt lat="44.941328166690326" lon="9.975545940370743"><ele>45.166666666666664</ele><time>2026-04-19T07:27:01.999Z</time></trkpt><trkpt lat="44.94125066458874" lon="9.975503991000513"><ele>45.0</ele><time>2026-04-19T07:27:02.999Z</time></trkpt><trkpt lat="44.94117405127206" lon="9.97546506477706"><ele>45.0</ele><time>2026-04-19T07:27:03.999Z</time></trkpt><trkpt lat="44.941097498804645" lon="9.97542465673735"><ele>45.0</ele><time>2026-04-19T07:27:04.999Z</time></trkpt><trkpt lat="44.94101979590481" lon="9.975384319301211"><ele>45.0</ele><time>2026-04-19T07:27:05.999Z</time></trkpt><trkpt lat="44.94094222081059" lon="9.975344948899496"><ele>45.0</ele><time>2026-04-19T07:27:06.999Z</time></trkpt><trkpt lat="44.9408658135158" lon="9.975306012878454"><ele>45.0</ele><time>2026-04-19T07:27:07.999Z</time></trkpt><trkpt lat="44.94078995954536" lon="9.975265124049512"><ele>45.0</ele><time>2026-04-19T07:27:08.999Z</time></trkpt><trkpt lat="44.94071309101889" lon="9.975224479064888"><ele>45.5</ele><time>2026-04-19T07:27:09.999Z</time></trkpt><trkpt lat="44.94063691426654" lon="9.975183701254469"><ele>46.0</ele><time>2026-04-19T07:27:10.999Z</time></trkpt><trkpt lat="44.94056091427738" lon="9.975144963451243"><ele>46.5</ele><time>2026-04-19T07:27:11.999Z</time></trkpt><trkpt lat="44.94048337476946" lon="9.975104008111163"><ele>47.0</ele><time>2026-04-19T07:27:12.999Z</time></trkpt><trkpt lat="44.94040489079777" lon="9.975064054563239"><ele>47.5</ele><time>2026-04-19T07:27:13.999Z</time></trkpt><trkpt lat="44.940327751093804" lon="9.975025516660866"><ele>48.0</ele><time>2026-04-19T07:27:14.999Z</time></trkpt><trkpt lat="44.94024962606684" lon="9.974985470879936"><ele>48.0</ele><time>2026-04-19T07:27:15.999Z</time></trkpt><trkpt lat="44.940172699479724" lon="9.974946857286895"><ele>48.0</ele><time>2026-04-19T07:27:16.999Z</time></trkpt><trkpt lat="44.940094768044794" lon="9.974905717001915"><ele>48.0</ele><time>2026-04-19T07:27:17.999Z</time></trkpt><trkpt lat="44.94001767349687" lon="9.974865961139335"><ele>48.0</ele><time>2026-04-19T07:27:18.999Z</time></trkpt><trkpt lat="44.93994181225315" lon="9.974827305915095"><ele>48.0</ele><time>2026-04-19T07:27:19.999Z</time></trkpt><trkpt lat="44.939865574061976" lon="9.974791806525223"><ele>48.0</ele><time>2026-04-19T07:27:20.999Z</time></trkpt><trkpt lat="44.93978948367381" lon="9.974753071620917"><ele>47.833333333333336</ele><time>2026-04-19T07:27:21.999Z</time></trkpt><trkpt lat="44.93971472750834" lon="9.974715789170768"><ele>47.666666666666664</ele><time>2026-04-19T07:27:22.999Z</time></trkpt><trkpt lat="44.93963944926626" lon="9.97467967614128"><ele>47.5</ele><time>2026-04-19T07:27:23.999Z</time></trkpt><trkpt lat="44.93956311057797" lon="9.974640318371641"><ele>47.33333333333333</ele><time>2026-04-19T07:27:24.999Z</time></trkpt><trkpt lat="44.939487124651954" lon="9.974605843352276"><ele>47.166666666666664</ele><time>2026-04-19T07:27:25.999Z</time></trkpt><trkpt lat="44.93940953463575" lon="9.974565446137285"><ele>47.0</ele><time>2026-04-19T07:27:26.999Z</time></trkpt><trkpt lat="44.93933402343615" lon="9.97452963726078"><ele>47.0</ele><time>2026-04-19T07:27:27.999Z</time></trkpt><trkpt lat="44.9392598904289" lon="9.974492474246935"><ele>47.0</ele><time>2026-04-19T07:27:28.999Z</time></trkpt><trkpt lat="44.9391817109079" lon="9.974452582432134"><ele>47.0</ele><time>2026-04-19T07:27:29.999Z</time></trkpt><trkpt lat="44.93910837139386" lon="9.974418479795569"><ele>47.0</ele><time>2026-04-19T07:27:30.999Z</time></trkpt><trkpt lat="44.93902974660027" lon="9.974377991770194"><ele>47.0</ele><time>2026-04-19T07:27:31.999Z</time></trkpt><trkpt lat="44.93895575751768" lon="9.974344100375978"><ele>47.0</ele><time>2026-04-19T07:27:32.999Z</time></trkpt><trkpt lat="44.93887871545845" lon="9.974306635861085"><ele>47.166666666666664</ele><time>2026-04-19T07:27:33.999Z</time></trkpt><trkpt lat="44.93880483986247" lon="9.974268737685572"><ele>47.33333333333333</ele><time>2026-04-19T07:27:34.999Z</time></trkpt><trkpt lat="44.93873129405884" lon="9.974231902627766"><ele>47.5</ele><time>2026-04-19T07:27:35.999Z</time></trkpt><trkpt lat="44.938655933893465" lon="9.974190960709873"><ele>47.666666666666664</ele><time>2026-04-19T07:27:36.999Z</time></trkpt><trkpt lat="44.93858200216715" lon="9.974151670923595"><ele>47.833333333333336</ele><time>2026-04-19T07:27:37.999Z</time></trkpt><trkpt lat="44.938509721010355" lon="9.974108922100635"><ele>48.0</ele><time>2026-04-19T07:27:38.999Z</time></trkpt><trkpt lat="44.93843673296006" lon="9.974068013575824"><ele>48.0</ele><time>2026-04-19T07:27:39.999Z</time></trkpt><trkpt lat="44.9383642673657" lon="9.974026367283392"><ele>48.0</ele><time>2026-04-19T07:27:40.999Z</time></trkpt><trkpt lat="44.93829174931834" lon="9.97398717698356"><ele>48.0</ele><time>2026-04-19T07:27:41.999Z</time></trkpt><trkpt lat="44.93821721005348" lon="9.973949860988949"><ele>48.0</ele><time>2026-04-19T07:27:42.999Z</time></trkpt><trkpt lat="44.93814558015056" lon="9.973908511179415"><ele>48.0</ele><time>2026-04-19T07:27:43.999Z</time></trkpt><trkpt lat="44.93807463907628" lon="9.973872113697384"><ele>48.0</ele><time>2026-04-19T07:27:44.999Z</time></trkpt><trkpt lat="44.93799903876031" lon="9.973830638541864"><ele>48.0</ele><time>2026-04-19T07:27:45.999Z</time></trkpt><trkpt lat="44.93792858598378" lon="9.973789421449869"><ele>48.0</ele><time>2026-04-19T07:27:46.999Z</time></trkpt><trkpt lat="44.93785411456602" lon="9.973747204694098"><ele>48.0</ele><time>2026-04-19T07:27:47.999Z</time></trkpt><trkpt lat="44.93778060583691" lon="9.973705641476679"><ele>48.0</ele><time>2026-04-19T07:27:48.999Z</time></trkpt><trkpt lat="44.93771048034091" lon="9.973663478462871"><ele>48.0</ele><time>2026-04-19T07:27:49.999Z</time></trkpt><trkpt lat="44.937640190319776" lon="9.973616675046063"><ele>48.0</ele><time>2026-04-19T07:27:50.999Z</time></trkpt><trkpt lat="44.93757219101316" lon="9.973574975696634"><ele>47.99999999999999</ele><time>2026-04-19T07:27:51.998Z</time></trkpt><trkpt lat="44.93750117505996" lon="9.973531502450824"><ele>48.0</ele><time>2026-04-19T07:27:52.998Z</time></trkpt><trkpt lat="44.9374352863644" lon="9.97349128652689"><ele>48.0</ele><time>2026-04-19T07:27:53.998Z</time></trkpt><trkpt lat="44.93736882155574" lon="9.973451497445282"><ele>48.0</ele><time>2026-04-19T07:27:54.998Z</time></trkpt><trkpt lat="44.93730203795123" lon="9.973407502660876"><ele>48.0</ele><time>2026-04-19T07:27:55.998Z</time></trkpt><trkpt lat="44.937236463047775" lon="9.973367240673362"><ele>47.99999999999999</ele><time>2026-04-19T07:27:56.998Z</time></trkpt><trkpt lat="44.93717088354804" lon="9.97332601558995"><ele>48.0</ele><time>2026-04-19T07:27:57.998Z</time></trkpt><trkpt lat="44.937105273607976" lon="9.973284014363808"><ele>47.99999999999999</ele><time>2026-04-19T07:27:58.998Z</time></trkpt><trkpt lat="44.93704063182518" lon="9.973243962780778"><ele>48.0</ele><time>2026-04-19T07:27:59.998Z</time></trkpt><trkpt lat="44.936974404335565" lon="9.973202219986142"><ele>48.0</ele><time>2026-04-19T07:28:00.998Z</time></trkpt><trkpt lat="44.936911523300395" lon="9.973161053282157"><ele>48.0</ele><time>2026-04-19T07:28:01.998Z</time></trkpt><trkpt lat="44.93684688580907" lon="9.973121220994022"><ele>48.0</ele><time>2026-04-19T07:28:02.998Z</time></trkpt><trkpt lat="44.93678275202065" lon="9.973081486226082"><ele>47.99999999999999</ele><time>2026-04-19T07:28:03.998Z</time></trkpt><trkpt lat="44.93671836778462" lon="9.973040520641758"><ele>48.0</ele><time>2026-04-19T07:28:04.998Z</time></trkpt><trkpt lat="44.936655669850104" lon="9.972996938285565"><ele>47.99999999999999</ele><time>2026-04-19T07:28:05.998Z</time></trkpt><trkpt lat="44.936590943455535" lon="9.97295511752434"><ele>48.0</ele><time>2026-04-19T07:28:06.998Z</time></trkpt><trkpt lat="44.93652779848859" lon="9.972915864726236"><ele>48.0</ele><time>2026-04-19T07:28:07.998Z</time></trkpt><trkpt lat="44.93646586486715" lon="9.97287339961036"><ele>48.0</ele><time>2026-04-19T07:28:08.998Z</time></trkpt><trkpt lat="44.936402405824424" lon="9.972833787262633"><ele>48.0</ele><time>2026-04-19T07:28:09.998Z</time></trkpt><trkpt lat="44.93634045120183" lon="9.972793881453859"><ele>47.99999999999999</ele><time>2026-04-19T07:28:10.998Z</time></trkpt><trkpt lat="44.936279974592786" lon="9.972752780014341"><ele>48.0</ele><time>2026-04-19T07:28:11.998Z</time></trkpt><trkpt lat="44.93621926659119" lon="9.972714241224377"><ele>47.99999999999999</ele><time>2026-04-19T07:28:12.998Z</time></trkpt><trkpt lat="44.93615740608653" lon="9.972676589821472"><ele>48.0</ele><time>2026-04-19T07:28:13.998Z</time></trkpt><trkpt lat="44.936097909210254" lon="9.972635946680397"><ele>48.0</ele><time>2026-04-19T07:28:14.998Z</time></trkpt><trkpt lat="44.93603505967175" lon="9.972603063550098"><ele>48.0</ele><time>2026-04-19T07:28:15.998Z</time></trkpt><trkpt lat="44.935977287399574" lon="9.972562740067229"><ele>48.0</ele><time>2026-04-19T07:28:16.998Z</time></trkpt><trkpt lat="44.93591870597827" lon="9.97252253207386"><ele>47.99999999999999</ele><time>2026-04-19T07:28:18Z</time></trkpt><trkpt lat="44.935858350684256" lon="9.97249052753479"><ele>48.0</ele><time>2026-04-19T07:28:19Z</time></trkpt><trkpt lat="44.93579957965173" lon="9.972448251277454"><ele>47.8</ele><time>2026-04-19T07:28:20Z</time></trkpt><trkpt lat="44.935741756095176" lon="9.972411557523424"><ele>47.599999999999994</ele><time>2026-04-19T07:28:21Z</time></trkpt><trkpt lat="44.93562786741166" lon="9.972339375362923"><ele>47.400000000000006</ele><time>2026-04-19T07:28:23Z</time></trkpt><trkpt lat="44.93556916965096" lon="9.972303299662702"><ele>47.2</ele><time>2026-04-19T07:28:24Z</time></trkpt><trkpt lat="44.93545574388574" lon="9.972234067127578"><ele>47.0</ele><time>2026-04-19T07:28:26Z</time></trkpt><trkpt lat="44.935342498140095" lon="9.97216591448349"><ele>47.0</ele><time>2026-04-19T07:28:28Z</time></trkpt><trkpt lat="44.93528432170768" lon="9.972131411108718"><ele>47.0</ele><time>2026-04-19T07:28:29Z</time></trkpt><trkpt lat="44.935168416904574" lon="9.972073398577793"><ele>47.0</ele><time>2026-04-19T07:28:31Z</time></trkpt><trkpt lat="44.93510768924197" lon="9.972042969674302"><ele>47.0</ele><time>2026-04-19T07:28:32Z</time></trkpt><trkpt lat="44.934987421721814" lon="9.971990903993884"><ele>47.0</ele><time>2026-04-19T07:28:34Z</time></trkpt><trkpt lat="44.93492690215165" lon="9.971965121331062"><ele>47.0</ele><time>2026-04-19T07:28:35Z</time></trkpt><trkpt lat="44.93486485024972" lon="9.971940634520166"><ele>47.0</ele><time>2026-04-19T07:28:36Z</time></trkpt><trkpt lat="44.93474110425956" lon="9.971900401360106"><ele>47.0</ele><time>2026-04-19T07:28:38Z</time></trkpt><trkpt lat="44.9346790533389" lon="9.971880944581214"><ele>47.0</ele><time>2026-04-19T07:28:39Z</time></trkpt><trkpt lat="44.934615358062715" lon="9.971863038779516"><ele>47.0</ele><time>2026-04-19T07:28:40Z</time></trkpt><trkpt lat="44.934553324995285" lon="9.971843477578085"><ele>47.0</ele><time>2026-04-19T07:28:41Z</time></trkpt><trkpt lat="44.93443230765636" lon="9.971810540305217"><ele>47.0</ele><time>2026-04-19T07:28:43Z</time></trkpt><trkpt lat="44.934311604847046" lon="9.97178819221887"><ele>47.25</ele><time>2026-04-19T07:28:45Z</time></trkpt><trkpt lat="44.93419821481972" lon="9.97177025640003"><ele>47.5</ele><time>2026-04-19T07:28:47Z</time></trkpt><trkpt lat="44.93408032042102" lon="9.971757627172632"><ele>47.75</ele><time>2026-04-19T07:28:49Z</time></trkpt><trkpt lat="44.933971505243726" lon="9.971746359581394"><ele>48.0</ele><time>2026-04-19T07:28:51Z</time></trkpt><trkpt lat="44.93385121136114" lon="9.971732269227537"><ele>48.0</ele><time>2026-04-19T07:28:53Z</time></trkpt><trkpt lat="44.933730927381596" lon="9.971718354086473"><ele>48.0</ele><time>2026-04-19T07:28:55Z</time></trkpt><trkpt lat="44.93360787375042" lon="9.971709643121766"><ele>48.0</ele><time>2026-04-19T07:28:57Z</time></trkpt><trkpt lat="44.9335448631702" lon="9.971701244179282"><ele>48.0</ele><time>2026-04-19T07:28:58Z</time></trkpt><trkpt lat="44.93348128232946" lon="9.971690694717331"><ele>48.0</ele><time>2026-04-19T07:28:59Z</time></trkpt><trkpt lat="44.9333561033146" lon="9.971679504881447"><ele>47.99999999999999</ele><time>2026-04-19T07:29:01Z</time></trkpt><trkpt lat="44.93329253925553" lon="9.971669850174832"><ele>48.0</ele><time>2026-04-19T07:29:02Z</time></trkpt><trkpt lat="44.93322638464238" lon="9.971669397778163"><ele>48.0</ele><time>2026-04-19T07:29:03Z</time></trkpt><trkpt lat="44.93316027707539" lon="9.971664639045818"><ele>48.0</ele><time>2026-04-19T07:29:03.999Z</time></trkpt><trkpt lat="44.93309340632626" lon="9.971658946876603"><ele>48.0</ele><time>2026-04-19T07:29:04.999Z</time></trkpt><trkpt lat="44.933025908576084" lon="9.971654710122069"><ele>47.99999999999999</ele><time>2026-04-19T07:29:05.999Z</time></trkpt><trkpt lat="44.93295643404176" lon="9.971645250659357"><ele>48.0</ele><time>2026-04-19T07:29:06.999Z</time></trkpt><trkpt lat="44.93288483639791" lon="9.971641976126504"><ele>48.0</ele><time>2026-04-19T07:29:07.999Z</time></trkpt><trkpt lat="44.93281220948599" lon="9.971635081363166"><ele>48.0</ele><time>2026-04-19T07:29:08.999Z</time></trkpt><trkpt lat="44.93273727170443" lon="9.971626383857858"><ele>48.0</ele><time>2026-04-19T07:29:09.999Z</time></trkpt><trkpt lat="44.9326598404703" lon="9.971621105529731"><ele>48.0</ele><time>2026-04-19T07:29:10.999Z</time></trkpt><trkpt lat="44.93257979072325" lon="9.971615285473845"><ele>48.0</ele><time>2026-04-19T07:29:11.999Z</time></trkpt><trkpt lat="44.93249828853942" lon="9.971607968877597"><ele>48.0</ele><time>2026-04-19T07:29:12.999Z</time></trkpt><trkpt lat="44.93241344525851" lon="9.971598768486302"><ele>48.166666666666664</ele><time>2026-04-19T07:29:13.999Z</time></trkpt><trkpt lat="44.932327913189404" lon="9.971588343004301"><ele>48.33333333333333</ele><time>2026-04-19T07:29:14.999Z</time></trkpt><trkpt lat="44.932241439277014" lon="9.971580590933687"><ele>48.5</ele><time>2026-04-19T07:29:15.999Z</time></trkpt><trkpt lat="44.93215254901524" lon="9.971571830590868"><ele>48.666666666666664</ele><time>2026-04-19T07:29:16.999Z</time></trkpt><trkpt lat="44.932064920562524" lon="9.9715636225336"><ele>48.83333333333333</ele><time>2026-04-19T07:29:17.999Z</time></trkpt><trkpt lat="44.931975640468316" lon="9.971555979520673"><ele>49.0</ele><time>2026-04-19T07:29:18.999Z</time></trkpt><trkpt lat="44.931885203559595" lon="9.971546682904687"><ele>49.0</ele><time>2026-04-19T07:29:19.999Z</time></trkpt><trkpt lat="44.93179461944242" lon="9.971539561948717"><ele>49.0</ele><time>2026-04-19T07:29:20.999Z</time></trkpt><trkpt lat="44.9317038686128" lon="9.971537429805068"><ele>49.0</ele><time>2026-04-19T07:29:21.999Z</time></trkpt><trkpt lat="44.93161455045439" lon="9.97152613203471"><ele>49.0</ele><time>2026-04-19T07:29:22.999Z</time></trkpt><trkpt lat="44.93152215813101" lon="9.971512363507694"><ele>49.0</ele><time>2026-04-19T07:29:23.999Z</time></trkpt><trkpt lat="44.93143024570957" lon="9.971502244734099"><ele>48.99999999999999</ele><time>2026-04-19T07:29:24.999Z</time></trkpt><trkpt lat="44.931339330559766" lon="9.971494117019853"><ele>49.0</ele><time>2026-04-19T07:29:25.999Z</time></trkpt><trkpt lat="44.93124999520848" lon="9.971482351472723"><ele>49.0</ele><time>2026-04-19T07:29:26.999Z</time></trkpt><trkpt lat="44.93115977341769" lon="9.971473737919696"><ele>49.0</ele><time>2026-04-19T07:29:27.999Z</time></trkpt><trkpt lat="44.93107083679277" lon="9.97146356177059"><ele>48.99999999999999</ele><time>2026-04-19T07:29:28.999Z</time></trkpt><trkpt lat="44.93098247946983" lon="9.971451640977543"><ele>49.0</ele><time>2026-04-19T07:29:29.999Z</time></trkpt><trkpt lat="44.930893223825194" lon="9.971439114151927"><ele>49.166666666666664</ele><time>2026-04-19T07:29:30.999Z</time></trkpt><trkpt lat="44.93080659276162" lon="9.97142901223104"><ele>49.33333333333333</ele><time>2026-04-19T07:29:31.999Z</time></trkpt><trkpt lat="44.93072039569343" lon="9.97141682494365"><ele>49.5</ele><time>2026-04-19T07:29:32.999Z</time></trkpt><trkpt lat="44.93063505287262" lon="9.971404134668997"><ele>49.66666666666667</ele><time>2026-04-19T07:29:33.999Z</time></trkpt><trkpt lat="44.93055133063041" lon="9.97139037516217"><ele>49.833333333333336</ele><time>2026-04-19T07:29:34.999Z</time></trkpt><trkpt lat="44.930469508804364" lon="9.971378233440756"><ele>50.0</ele><time>2026-04-19T07:29:35.999Z</time></trkpt><trkpt lat="44.930388522101" lon="9.97136414691653"><ele>50.00000000000001</ele><time>2026-04-19T07:29:36.999Z</time></trkpt><trkpt lat="44.9303105204553" lon="9.97135007014989"><ele>50.0</ele><time>2026-04-19T07:29:37.999Z</time></trkpt><trkpt lat="44.93023461885207" lon="9.971332382603503"><ele>50.0</ele><time>2026-04-19T07:29:38.999Z</time></trkpt><trkpt lat="44.93015779017106" lon="9.971316961524273"><ele>50.0</ele><time>2026-04-19T07:29:39.999Z</time></trkpt><trkpt lat="44.93008159774204" lon="9.97130564230409"><ele>50.00000000000001</ele><time>2026-04-19T07:29:40.999Z</time></trkpt><trkpt lat="44.93000473823161" lon="9.97129040663887"><ele>50.0</ele><time>2026-04-19T07:29:41.999Z</time></trkpt><trkpt lat="44.92992913135045" lon="9.97127553383487"><ele>50.142857142857146</ele><time>2026-04-19T07:29:42.999Z</time></trkpt><trkpt lat="44.929854361989044" lon="9.971260183032003"><ele>50.285714285714285</ele><time>2026-04-19T07:29:43.999Z</time></trkpt><trkpt lat="44.92977960239627" lon="9.971245044712319"><ele>50.42857142857143</ele><time>2026-04-19T07:29:44.999Z</time></trkpt><trkpt lat="44.929706450870846" lon="9.97123155986981"><ele>50.57142857142857</ele><time>2026-04-19T07:29:45.999Z</time></trkpt><trkpt lat="44.929635126344685" lon="9.971216415666305"><ele>50.714285714285715</ele><time>2026-04-19T07:29:46.999Z</time></trkpt><trkpt lat="44.92956304259378" lon="9.971202303217009"><ele>50.85714285714286</ele><time>2026-04-19T07:29:47.999Z</time></trkpt><trkpt lat="44.92949166079496" lon="9.971191277810851"><ele>51.0</ele><time>2026-04-19T07:29:48.999Z</time></trkpt><trkpt lat="44.92941967682657" lon="9.971176378536072"><ele>51.0</ele><time>2026-04-19T07:29:49.999Z</time></trkpt><trkpt lat="44.92934825669305" lon="9.97116130356392"><ele>51.0</ele><time>2026-04-19T07:29:50.999Z</time></trkpt><trkpt lat="44.9292773759362" lon="9.97114614438326"><ele>51.0</ele><time>2026-04-19T07:29:51.999Z</time></trkpt><trkpt lat="44.92920765511402" lon="9.97113113686309"><ele>51.0</ele><time>2026-04-19T07:29:52.999Z</time></trkpt><trkpt lat="44.929137589472454" lon="9.971116015052795"><ele>51.0</ele><time>2026-04-19T07:29:53.999Z</time></trkpt><trkpt lat="44.92906786876654" lon="9.97110219654347"><ele>51.0</ele><time>2026-04-19T07:29:54.999Z</time></trkpt><trkpt lat="44.92899771520485" lon="9.971088870374562"><ele>51.0</ele><time>2026-04-19T07:29:55.999Z</time></trkpt><trkpt lat="44.928926824964776" lon="9.971074177217826"><ele>51.0</ele><time>2026-04-19T07:29:56.998Z</time></trkpt><trkpt lat="44.92885634474" lon="9.971058209730227"><ele>51.0</ele><time>2026-04-19T07:29:57.998Z</time></trkpt><trkpt lat="44.928786219166646" lon="9.971041075386248"><ele>51.0</ele><time>2026-04-19T07:29:58.998Z</time></trkpt><trkpt lat="44.92871632941825" lon="9.971024815445464"><ele>51.0</ele><time>2026-04-19T07:29:59.998Z</time></trkpt><trkpt lat="44.92864486324595" lon="9.97100996006267"><ele>51.0</ele><time>2026-04-19T07:30:00.998Z</time></trkpt><trkpt lat="44.92857458480665" lon="9.970995260855487"><ele>51.0</ele><time>2026-04-19T07:30:01.998Z</time></trkpt><trkpt lat="44.92850066787853" lon="9.970976986150452"><ele>51.0</ele><time>2026-04-19T07:30:02.998Z</time></trkpt><trkpt lat="44.928421749736536" lon="9.9709617533944"><ele>51.0</ele><time>2026-04-19T07:30:03.998Z</time></trkpt><trkpt lat="44.92834569958583" lon="9.970943969955567"><ele>51.0</ele><time>2026-04-19T07:30:04.998Z</time></trkpt><trkpt lat="44.92826493850188" lon="9.970925854006012"><ele>51.0</ele><time>2026-04-19T07:30:05.998Z</time></trkpt><trkpt lat="44.928184417273364" lon="9.970911199451802"><ele>51.0</ele><time>2026-04-19T07:30:06.998Z</time></trkpt><trkpt lat="44.928104683186874" lon="9.970893804191373"><ele>51.0</ele><time>2026-04-19T07:30:07.998Z</time></trkpt><trkpt lat="44.92802457283463" lon="9.97087755002033"><ele>51.0</ele><time>2026-04-19T07:30:08.998Z</time></trkpt><trkpt lat="44.92794388796282" lon="9.970859665623808"><ele>51.0</ele><time>2026-04-19T07:30:09.998Z</time></trkpt><trkpt lat="44.92786421513262" lon="9.970840791598192"><ele>51.0</ele><time>2026-04-19T07:30:10.998Z</time></trkpt><trkpt lat="44.927783388071035" lon="9.970822442894251"><ele>51.0</ele><time>2026-04-19T07:30:11.998Z</time></trkpt><trkpt lat="44.927703968192205" lon="9.970804173290837"><ele>51.0</ele><time>2026-04-19T07:30:12.998Z</time></trkpt><trkpt lat="44.92762341243093" lon="9.970787075356473"><ele>51.0</ele><time>2026-04-19T07:30:13.998Z</time></trkpt><trkpt lat="44.92754432897932" lon="9.970769198750608"><ele>51.0</ele><time>2026-04-19T07:30:14.998Z</time></trkpt><trkpt lat="44.92746546808398" lon="9.970753122489205"><ele>51.0</ele><time>2026-04-19T07:30:15.998Z</time></trkpt><trkpt lat="44.92739064427375" lon="9.970733927796894"><ele>51.0</ele><time>2026-04-19T07:30:16.998Z</time></trkpt><trkpt lat="44.927316702095084" lon="9.970715725348708"><ele>51.0</ele><time>2026-04-19T07:30:17.998Z</time></trkpt><trkpt lat="44.92724296379273" lon="9.97069920056878"><ele>51.0</ele><time>2026-04-19T07:30:18.998Z</time></trkpt><trkpt lat="44.9271710247191" lon="9.97068156191054"><ele>51.0</ele><time>2026-04-19T07:30:19.998Z</time></trkpt><trkpt lat="44.92709896062001" lon="9.970667445138222"><ele>51.0</ele><time>2026-04-19T07:30:20.998Z</time></trkpt><trkpt lat="44.92702563731291" lon="9.970650195976901"><ele>51.0</ele><time>2026-04-19T07:30:21.998Z</time></trkpt><trkpt lat="44.92695223088079" lon="9.970634999589892"><ele>51.0</ele><time>2026-04-19T07:30:23Z</time></trkpt><trkpt lat="44.926881492026645" lon="9.970621727368258"><ele>51.0</ele><time>2026-04-19T07:30:24Z</time></trkpt><trkpt lat="44.92680830095911" lon="9.970604361459293"><ele>51.0</ele><time>2026-04-19T07:30:25Z</time></trkpt><trkpt lat="44.92673731384135" lon="9.970588208328014"><ele>51.0</ele><time>2026-04-19T07:30:26Z</time></trkpt><trkpt lat="44.926664787049305" lon="9.970568590179353"><ele>51.0</ele><time>2026-04-19T07:30:27Z</time></trkpt><trkpt lat="44.92659049959702" lon="9.970551178478456"><ele>51.0</ele><time>2026-04-19T07:30:28Z</time></trkpt><trkpt lat="44.92651608355526" lon="9.9705381404782"><ele>51.0</ele><time>2026-04-19T07:30:29Z</time></trkpt><trkpt lat="44.92644092892055" lon="9.970519167397761"><ele>51.0</ele><time>2026-04-19T07:30:30Z</time></trkpt><trkpt lat="44.92636742833132" lon="9.970500709729038"><ele>51.0</ele><time>2026-04-19T07:30:31Z</time></trkpt><trkpt lat="44.92629208841972" lon="9.97048486379142"><ele>51.0</ele><time>2026-04-19T07:30:32Z</time></trkpt><trkpt lat="44.926216991649476" lon="9.970470964828312"><ele>51.0</ele><time>2026-04-19T07:30:33Z</time></trkpt><trkpt lat="44.92614238558456" lon="9.970452303064928"><ele>51.0</ele><time>2026-04-19T07:30:34Z</time></trkpt><trkpt lat="44.92606791542419" lon="9.970434308248755"><ele>51.0</ele><time>2026-04-19T07:30:35Z</time></trkpt><trkpt lat="44.92599385485116" lon="9.970416611293068"><ele>51.0</ele><time>2026-04-19T07:30:36Z</time></trkpt><trkpt lat="44.92591974242846" lon="9.97039724948578"><ele>51.0</ele><time>2026-04-19T07:30:37Z</time></trkpt><trkpt lat="44.925850784973925" lon="9.970382117680888"><ele>51.0</ele><time>2026-04-19T07:30:38Z</time></trkpt><trkpt lat="44.92578152770457" lon="9.970367599731254"><ele>51.0</ele><time>2026-04-19T07:30:39Z</time></trkpt><trkpt lat="44.92571381972718" lon="9.97035381429421"><ele>51.0</ele><time>2026-04-19T07:30:40Z</time></trkpt><trkpt lat="44.92564605532995" lon="9.97034700444627"><ele>51.0</ele><time>2026-04-19T07:30:41Z</time></trkpt><trkpt lat="44.92558390506371" lon="9.970361289781371"><ele>51.0</ele><time>2026-04-19T07:30:42Z</time></trkpt><trkpt lat="44.92552815139467" lon="9.97041490756223"><ele>51.42857142857143</ele><time>2026-04-19T07:30:43Z</time></trkpt><trkpt lat="44.92549567600125" lon="9.970500273545655"><ele>51.85714285714286</ele><time>2026-04-19T07:30:44Z</time></trkpt><trkpt lat="44.92549051315658" lon="9.970597244494336"><ele>52.285714285714285</ele><time>2026-04-19T07:30:45Z</time></trkpt><trkpt lat="44.92550353143906" lon="9.970691997640527"><ele>52.714285714285715</ele><time>2026-04-19T07:30:46Z</time></trkpt><trkpt lat="44.92552257471811" lon="9.970784756815828"><ele>53.14285714285714</ele><time>2026-04-19T07:30:47Z</time></trkpt><trkpt lat="44.925541260855475" lon="9.97087468250161"><ele>53.57142857142857</ele><time>2026-04-19T07:30:48Z</time></trkpt><trkpt lat="44.92555973878039" lon="9.970966340774302"><ele>54.0</ele><time>2026-04-19T07:30:49Z</time></trkpt><trkpt lat="44.92558021366383" lon="9.971056002623012"><ele>54.333333333333336</ele><time>2026-04-19T07:30:50Z</time></trkpt><trkpt lat="44.925598881661664" lon="9.97114536488535"><ele>54.66666666666667</ele><time>2026-04-19T07:30:51Z</time></trkpt><trkpt lat="44.92561338836955" lon="9.971233211827402"><ele>55.0</ele><time>2026-04-19T07:30:52Z</time></trkpt><trkpt lat="44.92557404913607" lon="9.971380862732055"><ele>55.333333333333336</ele><time>2026-04-19T07:30:54Z</time></trkpt><trkpt lat="44.925511408891936" lon="9.971407527271214"><ele>55.66666666666667</ele><time>2026-04-19T07:30:55Z</time></trkpt><trkpt lat="44.92544770578926" lon="9.97141640460306"><ele>56.0</ele><time>2026-04-19T07:30:56Z</time></trkpt><trkpt lat="44.92532458010962" lon="9.971450640429218"><ele>56.0</ele><time>2026-04-19T07:30:58Z</time></trkpt><trkpt lat="44.925257532446395" lon="9.971467272713646"><ele>56.0</ele><time>2026-04-19T07:30:59Z</time></trkpt><trkpt lat="44.92518911949487" lon="9.971483894681471"><ele>56.0</ele><time>2026-04-19T07:31:00Z</time></trkpt><trkpt lat="44.92511765011575" lon="9.971502919211442"><ele>56.0</ele><time>2026-04-19T07:31:01Z</time></trkpt><trkpt lat="44.92504664862848" lon="9.97152373815243"><ele>56.0</ele><time>2026-04-19T07:31:02Z</time></trkpt><trkpt lat="44.92497385669225" lon="9.971539341864192"><ele>56.0</ele><time>2026-04-19T07:31:03Z</time></trkpt><trkpt lat="44.92490178215508" lon="9.971553985921508"><ele>56.0</ele><time>2026-04-19T07:31:04Z</time></trkpt><trkpt lat="44.924829986585074" lon="9.97157195943776"><ele>55.857142857142854</ele><time>2026-04-19T07:31:05Z</time></trkpt><trkpt lat="44.924756290266735" lon="9.971586305901111"><ele>55.714285714285715</ele><time>2026-04-19T07:31:05.999Z</time></trkpt><trkpt lat="44.92468094765237" lon="9.971591824672938"><ele>55.57142857142857</ele><time>2026-04-19T07:31:06.999Z</time></trkpt><trkpt lat="44.924607740687975" lon="9.971592252641116"><ele>55.42857142857143</ele><time>2026-04-19T07:31:07.999Z</time></trkpt><trkpt lat="44.9245337587333" lon="9.97158774271532"><ele>55.285714285714285</ele><time>2026-04-19T07:31:08.999Z</time></trkpt><trkpt lat="44.924462403719644" lon="9.971574648320567"><ele>55.14285714285714</ele><time>2026-04-19T07:31:09.999Z</time></trkpt><trkpt lat="44.92439080553434" lon="9.971559321892627"><ele>55.0</ele><time>2026-04-19T07:31:10.999Z</time></trkpt><trkpt lat="44.924318415492344" lon="9.971543325941884"><ele>54.99999999999999</ele><time>2026-04-19T07:31:11.999Z</time></trkpt><trkpt lat="44.92424611454666" lon="9.971527975196176"><ele>55.0</ele><time>2026-04-19T07:31:12.999Z</time></trkpt><trkpt lat="44.92417427758699" lon="9.97151517980867"><ele>55.0</ele><time>2026-04-19T07:31:13.999Z</time></trkpt><trkpt lat="44.92410234733045" lon="9.971500473267897"><ele>55.0</ele><time>2026-04-19T07:31:14.999Z</time></trkpt><trkpt lat="44.924030520857976" lon="9.971483926338733"><ele>55.0</ele><time>2026-04-19T07:31:15.999Z</time></trkpt><trkpt lat="44.923959402035536" lon="9.97146697907356"><ele>54.99999999999999</ele><time>2026-04-19T07:31:16.999Z</time></trkpt><trkpt lat="44.92388699934728" lon="9.971449766844625"><ele>55.0</ele><time>2026-04-19T07:31:17.999Z</time></trkpt><trkpt lat="44.92381219594364" lon="9.97143181436169"><ele>54.857142857142854</ele><time>2026-04-19T07:31:18.999Z</time></trkpt><trkpt lat="44.9237375670278" lon="9.97141444601338"><ele>54.714285714285715</ele><time>2026-04-19T07:31:19.999Z</time></trkpt><trkpt lat="44.92366451670397" lon="9.971397277590368"><ele>54.57142857142857</ele><time>2026-04-19T07:31:20.999Z</time></trkpt><trkpt lat="44.92359176579499" lon="9.971381099723343"><ele>54.42857142857143</ele><time>2026-04-19T07:31:21.999Z</time></trkpt><trkpt lat="44.92351744870145" lon="9.971363149493053"><ele>54.285714285714285</ele><time>2026-04-19T07:31:22.999Z</time></trkpt><trkpt lat="44.92344456569154" lon="9.971345638647067"><ele>54.14285714285714</ele><time>2026-04-19T07:31:23.999Z</time></trkpt><trkpt lat="44.92336910014058" lon="9.971327946120061"><ele>54.0</ele><time>2026-04-19T07:31:24.999Z</time></trkpt><trkpt lat="44.92329303921667" lon="9.971313250341252"><ele>54.0</ele><time>2026-04-19T07:31:25.999Z</time></trkpt><trkpt lat="44.923216345713136" lon="9.971294890124105"><ele>54.0</ele><time>2026-04-19T07:31:26.999Z</time></trkpt><trkpt lat="44.92313936257432" lon="9.971278237892276"><ele>54.0</ele><time>2026-04-19T07:31:27.999Z</time></trkpt><trkpt lat="44.92306370881369" lon="9.971259919516745"><ele>54.0</ele><time>2026-04-19T07:31:28.999Z</time></trkpt><trkpt lat="44.92299205963381" lon="9.97124411816437"><ele>54.0</ele><time>2026-04-19T07:31:29.999Z</time></trkpt><trkpt lat="44.92291929332508" lon="9.97122915072732"><ele>54.0</ele><time>2026-04-19T07:31:30.999Z</time></trkpt><trkpt lat="44.92284774495448" lon="9.971213558978828"><ele>54.0</ele><time>2026-04-19T07:31:31.999Z</time></trkpt><trkpt lat="44.92277404049247" lon="9.971199902830264"><ele>54.0</ele><time>2026-04-19T07:31:32.999Z</time></trkpt><trkpt lat="44.92269914650839" lon="9.971186950022243"><ele>54.0</ele><time>2026-04-19T07:31:33.999Z</time></trkpt><trkpt lat="44.92262545658214" lon="9.971173647937668"><ele>54.0</ele><time>2026-04-19T07:31:34.999Z</time></trkpt><trkpt lat="44.9225538878813" lon="9.971156919262521"><ele>54.0</ele><time>2026-04-19T07:31:35.999Z</time></trkpt><trkpt lat="44.922481173461975" lon="9.971147469087477"><ele>54.0</ele><time>2026-04-19T07:31:36.999Z</time></trkpt><trkpt lat="44.922411743199504" lon="9.971136270297194"><ele>54.0</ele><time>2026-04-19T07:31:37.999Z</time></trkpt><trkpt lat="44.92233927076585" lon="9.971124580853251"><ele>54.0</ele><time>2026-04-19T07:31:38.999Z</time></trkpt><trkpt lat="44.922264080181485" lon="9.971111028325744"><ele>54.0</ele><time>2026-04-19T07:31:39.999Z</time></trkpt><trkpt lat="44.92218863392517" lon="9.971097615164997"><ele>54.0</ele><time>2026-04-19T07:31:40.999Z</time></trkpt><trkpt lat="44.92211368819203" lon="9.971087308864824"><ele>54.0</ele><time>2026-04-19T07:31:41.999Z</time></trkpt><trkpt lat="44.922038077590855" lon="9.971072413069944"><ele>54.0</ele><time>2026-04-19T07:31:42.999Z</time></trkpt><trkpt lat="44.921962704424956" lon="9.971056773332757"><ele>54.0</ele><time>2026-04-19T07:31:43.999Z</time></trkpt><trkpt lat="44.92188700634374" lon="9.971041854151004"><ele>54.0</ele><time>2026-04-19T07:31:44.999Z</time></trkpt><trkpt lat="44.921809561411884" lon="9.971028306884792"><ele>54.0</ele><time>2026-04-19T07:31:45.999Z</time></trkpt><trkpt lat="44.92173401584068" lon="9.971013726531618"><ele>54.0</ele><time>2026-04-19T07:31:46.999Z</time></trkpt><trkpt lat="44.92165780129967" lon="9.97100460451351"><ele>54.0</ele><time>2026-04-19T07:31:47.999Z</time></trkpt><trkpt lat="44.92158272208834" lon="9.97100445930137"><ele>54.0</ele><time>2026-04-19T07:31:48.999Z</time></trkpt><trkpt lat="44.92150680347183" lon="9.971020695100705"><ele>54.0</ele><time>2026-04-19T07:31:49.999Z</time></trkpt><trkpt lat="44.921434767681006" lon="9.971048535547862"><ele>54.0</ele><time>2026-04-19T07:31:50.999Z</time></trkpt><trkpt lat="44.921364668087776" lon="9.97108461430406"><ele>54.0</ele><time>2026-04-19T07:31:51.999Z</time></trkpt><trkpt lat="44.92129429199824" lon="9.971122515448952"><ele>54.0</ele><time>2026-04-19T07:31:52.999Z</time></trkpt><trkpt lat="44.92122524079563" lon="9.971159211559382"><ele>54.0</ele><time>2026-04-19T07:31:53.999Z</time></trkpt><trkpt lat="44.921156116642905" lon="9.971195045741672"><ele>54.0</ele><time>2026-04-19T07:31:54.999Z</time></trkpt><trkpt lat="44.92108557553685" lon="9.971229896247202"><ele>54.0</ele><time>2026-04-19T07:31:55.999Z</time></trkpt><trkpt lat="44.92101758403448" lon="9.971265485846288"><ele>54.0</ele><time>2026-04-19T07:31:56.999Z</time></trkpt><trkpt lat="44.92094799634681" lon="9.971302886680471"><ele>54.42857142857143</ele><time>2026-04-19T07:31:57.999Z</time></trkpt><trkpt lat="44.92087796671223" lon="9.97133703440987"><ele>54.857142857142854</ele><time>2026-04-19T07:31:58.998Z</time></trkpt><trkpt lat="44.92081058020815" lon="9.971370750512406"><ele>55.285714285714285</ele><time>2026-04-19T07:31:59.998Z</time></trkpt><trkpt lat="44.920740743670734" lon="9.97140549050519"><ele>55.71428571428571</ele><time>2026-04-19T07:32:00.998Z</time></trkpt><trkpt lat="44.92067198119412" lon="9.971440056016306"><ele>56.14285714285714</ele><time>2026-04-19T07:32:01.998Z</time></trkpt><trkpt lat="44.920601071693085" lon="9.97147440639919"><ele>56.57142857142857</ele><time>2026-04-19T07:32:02.998Z</time></trkpt><trkpt lat="44.920530180207294" lon="9.971505607824005"><ele>57.0</ele><time>2026-04-19T07:32:03.998Z</time></trkpt><trkpt lat="44.92045812172467" lon="9.97153362880854"><ele>57.0</ele><time>2026-04-19T07:32:04.998Z</time></trkpt><trkpt lat="44.920386998379286" lon="9.971557631288709"><ele>56.99999999999999</ele><time>2026-04-19T07:32:05.998Z</time></trkpt><trkpt lat="44.92031318758221" lon="9.971586189790402"><ele>57.0</ele><time>2026-04-19T07:32:06.998Z</time></trkpt><trkpt lat="44.92024215936759" lon="9.971610753646917"><ele>57.0</ele><time>2026-04-19T07:32:07.998Z</time></trkpt><trkpt lat="44.92017127797724" lon="9.971634748997776"><ele>56.99999999999999</ele><time>2026-04-19T07:32:08.998Z</time></trkpt><trkpt lat="44.920101609541916" lon="9.971656954617051"><ele>57.0</ele><time>2026-04-19T07:32:09.998Z</time></trkpt><trkpt lat="44.920030584276084" lon="9.971682438159048"><ele>57.0</ele><time>2026-04-19T07:32:10.998Z</time></trkpt><trkpt lat="44.919959132066886" lon="9.971708892616764"><ele>57.14285714285714</ele><time>2026-04-19T07:32:11.998Z</time></trkpt><trkpt lat="44.9198879873093" lon="9.971733514761153"><ele>57.28571428571428</ele><time>2026-04-19T07:32:12.998Z</time></trkpt><trkpt lat="44.919814803657715" lon="9.971759083285146"><ele>57.42857142857143</ele><time>2026-04-19T07:32:13.998Z</time></trkpt><trkpt lat="44.919742079908254" lon="9.971784193439127"><ele>57.57142857142857</ele><time>2026-04-19T07:32:14.998Z</time></trkpt><trkpt lat="44.919669860764756" lon="9.971809343405706"><ele>57.714285714285715</ele><time>2026-04-19T07:32:15.998Z</time></trkpt><trkpt lat="44.91959764351896" lon="9.971832374534918"><ele>57.85714285714286</ele><time>2026-04-19T07:32:16.998Z</time></trkpt><trkpt lat="44.919524689580136" lon="9.971857948089704"><ele>58.00000000000001</ele><time>2026-04-19T07:32:17.998Z</time></trkpt><trkpt lat="44.91944948907019" lon="9.971885323559821"><ele>57.99999999999999</ele><time>2026-04-19T07:32:18.998Z</time></trkpt><trkpt lat="44.919375361543544" lon="9.97191188950403"><ele>58.0</ele><time>2026-04-19T07:32:19.998Z</time></trkpt><trkpt lat="44.919300490491594" lon="9.971938179655814"><ele>58.0</ele><time>2026-04-19T07:32:20.998Z</time></trkpt><trkpt lat="44.91922690711254" lon="9.971965990875312"><ele>58.0</ele><time>2026-04-19T07:32:21.998Z</time></trkpt><trkpt lat="44.919152799751956" lon="9.9719958975688"><ele>57.99999999999999</ele><time>2026-04-19T07:32:22.998Z</time></trkpt><trkpt lat="44.91908120695326" lon="9.972025636162993"><ele>58.0</ele><time>2026-04-19T07:32:23.998Z</time></trkpt><trkpt lat="44.91901039142206" lon="9.972057587182398"><ele>57.99999999999999</ele><time>2026-04-19T07:32:24.998Z</time></trkpt><trkpt lat="44.91893977578921" lon="9.972088932908495"><ele>58.0</ele><time>2026-04-19T07:32:25.998Z</time></trkpt><trkpt lat="44.91886875720351" lon="9.972121094394478"><ele>58.0</ele><time>2026-04-19T07:32:26.998Z</time></trkpt><trkpt lat="44.91879726381521" lon="9.972155197245414"><ele>58.0</ele><time>2026-04-19T07:32:27.998Z</time></trkpt><trkpt lat="44.91872465665485" lon="9.97219081029548"><ele>57.99999999999999</ele><time>2026-04-19T07:32:29Z</time></trkpt><trkpt lat="44.918652326506496" lon="9.972226719685414"><ele>58.0</ele><time>2026-04-19T07:32:30Z</time></trkpt><trkpt lat="44.918578989559805" lon="9.972262550510987"><ele>57.99999999999999</ele><time>2026-04-19T07:32:31Z</time></trkpt><trkpt lat="44.91850731251858" lon="9.97229720037923"><ele>58.0</ele><time>2026-04-19T07:32:32Z</time></trkpt><trkpt lat="44.91843347633771" lon="9.972330709776779"><ele>58.0</ele><time>2026-04-19T07:32:33Z</time></trkpt><trkpt lat="44.918359068751826" lon="9.97236407174244"><ele>58.0</ele><time>2026-04-19T07:32:34Z</time></trkpt><trkpt lat="44.918286080923096" lon="9.972398510170871"><ele>57.99999999999999</ele><time>2026-04-19T07:32:35Z</time></trkpt><trkpt lat="44.918210348514926" lon="9.972433547369649"><ele>58.0</ele><time>2026-04-19T07:32:36Z</time></trkpt><trkpt lat="44.91813576351797" lon="9.972470711921458"><ele>57.49999999999999</ele><time>2026-04-19T07:32:37Z</time></trkpt><trkpt lat="44.918063321347205" lon="9.972508637451337"><ele>57.0</ele><time>2026-04-19T07:32:38Z</time></trkpt><trkpt lat="44.91798850258161" lon="9.97254399261891"><ele>56.5</ele><time>2026-04-19T07:32:39Z</time></trkpt><trkpt lat="44.91791530554312" lon="9.97257855797477"><ele>56.0</ele><time>2026-04-19T07:32:40Z</time></trkpt><trkpt lat="44.917839840330316" lon="9.972611413025122"><ele>55.49999999999999</ele><time>2026-04-19T07:32:41Z</time></trkpt><trkpt lat="44.91776467264577" lon="9.972645019193013"><ele>55.0</ele><time>2026-04-19T07:32:42Z</time></trkpt><trkpt lat="44.917690004986056" lon="9.972678829847483"><ele>54.83333333333333</ele><time>2026-04-19T07:32:43Z</time></trkpt><trkpt lat="44.917614000609014" lon="9.972713998291727"><ele>54.666666666666664</ele><time>2026-04-19T07:32:44Z</time></trkpt><trkpt lat="44.917539054175165" lon="9.9727497634931"><ele>54.5</ele><time>2026-04-19T07:32:45Z</time></trkpt><trkpt lat="44.9174641605881" lon="9.97278526184595"><ele>54.33333333333333</ele><time>2026-04-19T07:32:46Z</time></trkpt><trkpt lat="44.91738948880468" lon="9.972823076746606"><ele>54.166666666666664</ele><time>2026-04-19T07:32:47Z</time></trkpt><trkpt lat="44.917316386975024" lon="9.972866808032514"><ele>54.0</ele><time>2026-04-19T07:32:48Z</time></trkpt><trkpt lat="44.91725024739498" lon="9.972922902563822"><ele>54.333333333333336</ele><time>2026-04-19T07:32:49Z</time></trkpt><trkpt lat="44.91718601750641" lon="9.972988246372429"><ele>54.66666666666667</ele><time>2026-04-19T07:32:50Z</time></trkpt><trkpt lat="44.917127514205205" lon="9.97306127722372"><ele>55.0</ele><time>2026-04-19T07:32:51Z</time></trkpt><trkpt lat="44.917069373970676" lon="9.973135404409266"><ele>55.333333333333336</ele><time>2026-04-19T07:32:52Z</time></trkpt><trkpt lat="44.91701315366843" lon="9.973209963462264"><ele>55.66666666666667</ele><time>2026-04-19T07:32:53Z</time></trkpt><trkpt lat="44.916958147659614" lon="9.973288399029842"><ele>56.0</ele><time>2026-04-19T07:32:54Z</time></trkpt><trkpt lat="44.9169040155824" lon="9.973367543437748"><ele>56.00000000000001</ele><time>2026-04-19T07:32:55Z</time></trkpt><trkpt lat="44.91684768495478" lon="9.973445003991545"><ele>56.0</ele><time>2026-04-19T07:32:56Z</time></trkpt><trkpt lat="44.91679463804609" lon="9.973521438041479"><ele>56.0</ele><time>2026-04-19T07:32:57Z</time></trkpt><trkpt lat="44.91674085957314" lon="9.973600213449107"><ele>56.0</ele><time>2026-04-19T07:32:58Z</time></trkpt><trkpt lat="44.9166862885309" lon="9.97367645560613"><ele>56.00000000000001</ele><time>2026-04-19T07:32:59Z</time></trkpt><trkpt lat="44.916631063552764" lon="9.973753558774005"><ele>56.0</ele><time>2026-04-19T07:33:00Z</time></trkpt><trkpt lat="44.916576784958615" lon="9.973829311871551"><ele>56.16666666666667</ele><time>2026-04-19T07:33:01Z</time></trkpt><trkpt lat="44.9165214318701" lon="9.973908051745033"><ele>56.333333333333336</ele><time>2026-04-19T07:33:02Z</time></trkpt><trkpt lat="44.91646750022422" lon="9.973985361876128"><ele>56.5</ele><time>2026-04-19T07:33:03Z</time></trkpt><trkpt lat="44.9164133512363" lon="9.97406176883905"><ele>56.66666666666667</ele><time>2026-04-19T07:33:04Z</time></trkpt><trkpt lat="44.91635978951035" lon="9.97413851333638"><ele>56.833333333333336</ele><time>2026-04-19T07:33:05Z</time></trkpt><trkpt lat="44.91630528618126" lon="9.974217555173093"><ele>57.0</ele><time>2026-04-19T07:33:06Z</time></trkpt><trkpt lat="44.9162513356927" lon="9.974294255379444"><ele>57.0</ele><time>2026-04-19T07:33:07Z</time></trkpt><trkpt lat="44.91619615292295" lon="9.974371020209453"><ele>57.0</ele><time>2026-04-19T07:33:08Z</time></trkpt><trkpt lat="44.916141602894754" lon="9.974449397726945"><ele>57.0</ele><time>2026-04-19T07:33:09Z</time></trkpt><trkpt lat="44.91608703692147" lon="9.974528688353228"><ele>57.0</ele><time>2026-04-19T07:33:09.999Z</time></trkpt><trkpt lat="44.916030317670995" lon="9.974608959092151"><ele>57.0</ele><time>2026-04-19T07:33:10.999Z</time></trkpt><trkpt lat="44.91597404891566" lon="9.974687512002523"><ele>57.0</ele><time>2026-04-19T07:33:11.999Z</time></trkpt><trkpt lat="44.915917253362494" lon="9.97476903010457"><ele>57.0</ele><time>2026-04-19T07:33:12.999Z</time></trkpt><trkpt lat="44.915859149169" lon="9.974850424942343"><ele>57.0</ele><time>2026-04-19T07:33:13.999Z</time></trkpt><trkpt lat="44.91580113024546" lon="9.974931797055785"><ele>57.0</ele><time>2026-04-19T07:33:14.999Z</time></trkpt><trkpt lat="44.9157441730562" lon="9.975015873047155"><ele>57.0</ele><time>2026-04-19T07:33:15.999Z</time></trkpt><trkpt lat="44.91568512115422" lon="9.97509856631687"><ele>57.0</ele><time>2026-04-19T07:33:16.999Z</time></trkpt><trkpt lat="44.91562899171329" lon="9.975182199959617"><ele>57.0</ele><time>2026-04-19T07:33:17.999Z</time></trkpt><trkpt lat="44.91557075269755" lon="9.975263418356592"><ele>57.0</ele><time>2026-04-19T07:33:18.999Z</time></trkpt><trkpt lat="44.915515174810174" lon="9.975345324017555"><ele>57.0</ele><time>2026-04-19T07:33:19.999Z</time></trkpt><trkpt lat="44.9154570175392" lon="9.975427131971918"><ele>57.0</ele><time>2026-04-19T07:33:20.999Z</time></trkpt><trkpt lat="44.91540049857501" lon="9.975503162792979"><ele>57.0</ele><time>2026-04-19T07:33:21.999Z</time></trkpt><trkpt lat="44.91534504275" lon="9.975584571637974"><ele>57.0</ele><time>2026-04-19T07:33:22.999Z</time></trkpt><trkpt lat="44.91528915810511" lon="9.975663468065395"><ele>57.0</ele><time>2026-04-19T07:33:23.999Z</time></trkpt><trkpt lat="44.915233911097644" lon="9.975744187992538"><ele>57.0</ele><time>2026-04-19T07:33:24.999Z</time></trkpt><trkpt lat="44.91517683978124" lon="9.975825721863465"><ele>57.0</ele><time>2026-04-19T07:33:25.999Z</time></trkpt><trkpt lat="44.91512267486082" lon="9.975904956086877"><ele>57.0</ele><time>2026-04-19T07:33:26.999Z</time></trkpt><trkpt lat="44.915066353504166" lon="9.975985425274832"><ele>57.0</ele><time>2026-04-19T07:33:27.999Z</time></trkpt><trkpt lat="44.91500774749187" lon="9.97606541548957"><ele>57.0</ele><time>2026-04-19T07:33:28.999Z</time></trkpt><trkpt lat="44.914950507460325" lon="9.97614566314578"><ele>57.0</ele><time>2026-04-19T07:33:29.999Z</time></trkpt><trkpt lat="44.914892856521604" lon="9.976227317400117"><ele>57.0</ele><time>2026-04-19T07:33:30.999Z</time></trkpt><trkpt lat="44.91483642076731" lon="9.97630871272789"><ele>57.0</ele><time>2026-04-19T07:33:31.999Z</time></trkpt><trkpt lat="44.914778845540226" lon="9.976391254842301"><ele>57.0</ele><time>2026-04-19T07:33:32.999Z</time></trkpt><trkpt lat="44.91472387970086" lon="9.97647412737753"><ele>57.0</ele><time>2026-04-19T07:33:33.999Z</time></trkpt><trkpt lat="44.914665399036956" lon="9.976557893894157"><ele>57.0</ele><time>2026-04-19T07:33:34.999Z</time></trkpt><trkpt lat="44.91460789407614" lon="9.976636545180838"><ele>57.0</ele><time>2026-04-19T07:33:35.999Z</time></trkpt><trkpt lat="44.91455048472379" lon="9.976717819841348"><ele>57.0</ele><time>2026-04-19T07:33:36.999Z</time></trkpt><trkpt lat="44.914492948773116" lon="9.976798487583807"><ele>57.0</ele><time>2026-04-19T07:33:37.999Z</time></trkpt><trkpt lat="44.9144333854805" lon="9.97687751912595"><ele>57.0</ele><time>2026-04-19T07:33:38.999Z</time></trkpt><trkpt lat="44.914374186891706" lon="9.976958942614296"><ele>57.0</ele><time>2026-04-19T07:33:39.999Z</time></trkpt><trkpt lat="44.91431935269239" lon="9.97704035772473"><ele>57.0</ele><time>2026-04-19T07:33:40.999Z</time></trkpt><trkpt lat="44.91426113319245" lon="9.977122778414735"><ele>57.0</ele><time>2026-04-19T07:33:41.999Z</time></trkpt><trkpt lat="44.914207499575944" lon="9.977202390525452"><ele>57.0</ele><time>2026-04-19T07:33:42.999Z</time></trkpt><trkpt lat="44.91415154723291" lon="9.977277602265401"><ele>57.0</ele><time>2026-04-19T07:33:43.999Z</time></trkpt><trkpt lat="44.91409560771665" lon="9.977355735238383"><ele>57.0</ele><time>2026-04-19T07:33:44.999Z</time></trkpt><trkpt lat="44.914040914715024" lon="9.977433293051774"><ele>57.0</ele><time>2026-04-19T07:33:45.999Z</time></trkpt><trkpt lat="44.91398612574617" lon="9.977508973148606"><ele>57.0</ele><time>2026-04-19T07:33:46.999Z</time></trkpt><trkpt lat="44.913931776894806" lon="9.977585181627624"><ele>57.0</ele><time>2026-04-19T07:33:47.999Z</time></trkpt><trkpt lat="44.91387758917853" lon="9.977663659768067"><ele>57.0</ele><time>2026-04-19T07:33:48.999Z</time></trkpt><trkpt lat="44.913822222134186" lon="9.977744563346208"><ele>57.0</ele><time>2026-04-19T07:33:49.999Z</time></trkpt><trkpt lat="44.91376698055579" lon="9.977823275076275"><ele>57.0</ele><time>2026-04-19T07:33:50.999Z</time></trkpt><trkpt lat="44.91370803544265" lon="9.977902942027194"><ele>57.0</ele><time>2026-04-19T07:33:51.999Z</time></trkpt><trkpt lat="44.91365314440607" lon="9.977982049843394"><ele>57.0</ele><time>2026-04-19T07:33:52.999Z</time></trkpt><trkpt lat="44.91359808349102" lon="9.978061338940142"><ele>57.0</ele><time>2026-04-19T07:33:53.999Z</time></trkpt><trkpt lat="44.913543532344804" lon="9.978140865684733"><ele>57.0</ele><time>2026-04-19T07:33:54.999Z</time></trkpt><trkpt lat="44.913486875549616" lon="9.97821885254822"><ele>57.0</ele><time>2026-04-19T07:33:55.999Z</time></trkpt><trkpt lat="44.91342941046822" lon="9.978298626042088"><ele>57.0</ele><time>2026-04-19T07:33:56.999Z</time></trkpt><trkpt lat="44.91337275059222" lon="9.978377375596091"><ele>57.0</ele><time>2026-04-19T07:33:57.999Z</time></trkpt><trkpt lat="44.91331551729065" lon="9.97845713847718"><ele>57.0</ele><time>2026-04-19T07:33:58.999Z</time></trkpt><trkpt lat="44.91325970097449" lon="9.97853773431956"><ele>57.0</ele><time>2026-04-19T07:33:59.999Z</time></trkpt><trkpt lat="44.91320453956307" lon="9.978613900986769"><ele>57.166666666666664</ele><time>2026-04-19T07:34:00.999Z</time></trkpt><trkpt lat="44.91314946636861" lon="9.978694727377913"><ele>57.33333333333333</ele><time>2026-04-19T07:34:01.998Z</time></trkpt><trkpt lat="44.91309391029226" lon="9.978770508758318"><ele>57.5</ele><time>2026-04-19T07:34:02.998Z</time></trkpt><trkpt lat="44.913038395861726" lon="9.978846733989394"><ele>57.666666666666664</ele><time>2026-04-19T07:34:03.998Z</time></trkpt><trkpt lat="44.91298332652087" lon="9.978922826733017"><ele>57.83333333333333</ele><time>2026-04-19T07:34:04.998Z</time></trkpt><trkpt lat="44.91292805241096" lon="9.97900071799437"><ele>58.0</ele><time>2026-04-19T07:34:05.998Z</time></trkpt><trkpt lat="44.912873041878264" lon="9.979079043466163"><ele>57.99999999999999</ele><time>2026-04-19T07:34:06.998Z</time></trkpt><trkpt lat="44.91281657543793" lon="9.979159551092048"><ele>58.0</ele><time>2026-04-19T07:34:07.998Z</time></trkpt><trkpt lat="44.91275979738401" lon="9.979241701547444"><ele>58.0</ele><time>2026-04-19T07:34:08.998Z</time></trkpt><trkpt lat="44.912705756916225" lon="9.979319934105503"><ele>58.0</ele><time>2026-04-19T07:34:09.998Z</time></trkpt><trkpt lat="44.91264653743312" lon="9.97940157966371"><ele>57.99999999999999</ele><time>2026-04-19T07:34:10.998Z</time></trkpt><trkpt lat="44.91259327363947" lon="9.979478965703496"><ele>58.0</ele><time>2026-04-19T07:34:11.998Z</time></trkpt><trkpt lat="44.912539271922995" lon="9.979557453097982"><ele>58.33333333333333</ele><time>2026-04-19T07:34:12.998Z</time></trkpt><trkpt lat="44.912486880562945" lon="9.979636285547102"><ele>58.666666666666664</ele><time>2026-04-19T07:34:13.998Z</time></trkpt><trkpt lat="44.91243156513959" lon="9.979711961735935"><ele>59.0</ele><time>2026-04-19T07:34:14.998Z</time></trkpt><trkpt lat="44.91237514553575" lon="9.979792693479604"><ele>59.33333333333333</ele><time>2026-04-19T07:34:15.998Z</time></trkpt><trkpt lat="44.91231926588211" lon="9.979869305426286"><ele>59.666666666666664</ele><time>2026-04-19T07:34:16.998Z</time></trkpt><trkpt lat="44.912263186608136" lon="9.979944286928356"><ele>60.0</ele><time>2026-04-19T07:34:17.998Z</time></trkpt><trkpt lat="44.9121988063569" lon="9.980011741860382"><ele>60.0</ele><time>2026-04-19T07:34:18.998Z</time></trkpt><trkpt lat="44.912125632299734" lon="9.980053644472893"><ele>60.0</ele><time>2026-04-19T07:34:19.998Z</time></trkpt><trkpt lat="44.91205152485356" lon="9.980076422982371"><ele>60.0</ele><time>2026-04-19T07:34:20.998Z</time></trkpt><trkpt lat="44.91196857125684" lon="9.980051326060826"><ele>60.0</ele><time>2026-04-19T07:34:21.998Z</time></trkpt><trkpt lat="44.91189103305917" lon="9.980003833109102"><ele>60.0</ele><time>2026-04-19T07:34:22.998Z</time></trkpt><trkpt lat="44.911818743247636" lon="9.979944263715925"><ele>60.0</ele><time>2026-04-19T07:34:23.998Z</time></trkpt><trkpt lat="44.911750178379116" lon="9.979885876218566"><ele>60.333333333333336</ele><time>2026-04-19T07:34:24.998Z</time></trkpt><trkpt lat="44.911681783328255" lon="9.979829014332989"><ele>60.66666666666667</ele><time>2026-04-19T07:34:25.998Z</time></trkpt><trkpt lat="44.91161152210681" lon="9.979777855209962"><ele>61.0</ele><time>2026-04-19T07:34:26.998Z</time></trkpt><trkpt lat="44.911540159397845" lon="9.979727536372705"><ele>61.333333333333336</ele><time>2026-04-19T07:34:27.998Z</time></trkpt><trkpt lat="44.911467912566884" lon="9.979679606128743"><ele>61.66666666666667</ele><time>2026-04-19T07:34:28.998Z</time></trkpt><trkpt lat="44.91139705006111" lon="9.979627881572583"><ele>62.0</ele><time>2026-04-19T07:34:29.998Z</time></trkpt><trkpt lat="44.91132663228283" lon="9.979575832837538"><ele>62.00000000000001</ele><time>2026-04-19T07:34:30.998Z</time></trkpt><trkpt lat="44.91125536116104" lon="9.979522919257375"><ele>62.0</ele><time>2026-04-19T07:34:31.998Z</time></trkpt><trkpt lat="44.91118397877214" lon="9.979471497088841"><ele>62.0</ele><time>2026-04-19T07:34:32.998Z</time></trkpt><trkpt lat="44.911113919764304" lon="9.979420836316134"><ele>62.0</ele><time>2026-04-19T07:34:33.998Z</time></trkpt><trkpt lat="44.911043436741224" lon="9.97937101889529"><ele>62.00000000000001</ele><time>2026-04-19T07:34:35Z</time></trkpt><trkpt lat="44.910972334599734" lon="9.97931887249216"><ele>62.0</ele><time>2026-04-19T07:34:36Z</time></trkpt><trkpt lat="44.91090101564863" lon="9.979268444633135"><ele>62.00000000000001</ele><time>2026-04-19T07:34:37Z</time></trkpt><trkpt lat="44.91082868975616" lon="9.97921899942037"><ele>62.0</ele><time>2026-04-19T07:34:38Z</time></trkpt><trkpt lat="44.910757175502034" lon="9.979168944341055"><ele>62.0</ele><time>2026-04-19T07:34:39Z</time></trkpt><trkpt lat="44.910683737135166" lon="9.979119483280108"><ele>62.0</ele><time>2026-04-19T07:34:40Z</time></trkpt><trkpt lat="44.91061083547992" lon="9.97906909117139"><ele>62.00000000000001</ele><time>2026-04-19T07:34:41Z</time></trkpt><trkpt lat="44.910539596799076" lon="9.979022207385036"><ele>62.0</ele><time>2026-04-19T07:34:42Z</time></trkpt><trkpt lat="44.91046748115046" lon="9.97897499001945"><ele>61.833333333333336</ele><time>2026-04-19T07:34:43Z</time></trkpt><trkpt lat="44.91040099108447" lon="9.978928244525866"><ele>61.66666666666667</ele><time>2026-04-19T07:34:44Z</time></trkpt><trkpt lat="44.9103311471234" lon="9.978877641277832"><ele>61.5</ele><time>2026-04-19T07:34:45Z</time></trkpt><trkpt lat="44.91026331779486" lon="9.97882925069303"><ele>61.33333333333333</ele><time>2026-04-19T07:34:46Z</time></trkpt><trkpt lat="44.910194965493545" lon="9.978780149647557"><ele>61.166666666666664</ele><time>2026-04-19T07:34:47Z</time></trkpt><trkpt lat="44.91012804491664" lon="9.978733109946484"><ele>61.0</ele><time>2026-04-19T07:34:48Z</time></trkpt><trkpt lat="44.91006069898071" lon="9.97868621510923"><ele>60.99999999999999</ele><time>2026-04-19T07:34:49Z</time></trkpt><trkpt lat="44.90999300076678" lon="9.97864084281677"><ele>61.0</ele><time>2026-04-19T07:34:50Z</time></trkpt><trkpt lat="44.90992553132394" lon="9.978594524385185"><ele>61.0</ele><time>2026-04-19T07:34:51Z</time></trkpt><trkpt lat="44.90985797355841" lon="9.9785467787319"><ele>61.0</ele><time>2026-04-19T07:34:52Z</time></trkpt><trkpt lat="44.90978866644121" lon="9.978499750310698"><ele>60.99999999999999</ele><time>2026-04-19T07:34:53Z</time></trkpt><trkpt lat="44.909718943426334" lon="9.978451635774604"><ele>61.0</ele><time>2026-04-19T07:34:54Z</time></trkpt><trkpt lat="44.90965081585319" lon="9.978406284684453"><ele>60.99999999999999</ele><time>2026-04-19T07:34:55Z</time></trkpt><trkpt lat="44.90958164546949" lon="9.978357854264178"><ele>61.0</ele><time>2026-04-19T07:34:56Z</time></trkpt><trkpt lat="44.90951232376931" lon="9.97831404381107"><ele>61.0</ele><time>2026-04-19T07:34:57Z</time></trkpt><trkpt lat="44.90944311128871" lon="9.978267759273756"><ele>61.0</ele><time>2026-04-19T07:34:58Z</time></trkpt><trkpt lat="44.90937508819864" lon="9.978219490824904"><ele>60.99999999999999</ele><time>2026-04-19T07:34:59Z</time></trkpt><trkpt lat="44.90930555926558" lon="9.97817311498706"><ele>61.0</ele><time>2026-04-19T07:35:00Z</time></trkpt><trkpt lat="44.90923402012632" lon="9.978123679123767"><ele>60.99999999999999</ele><time>2026-04-19T07:35:01Z</time></trkpt><trkpt lat="44.90916428212935" lon="9.978077493673778"><ele>61.0</ele><time>2026-04-19T07:35:02Z</time></trkpt><trkpt lat="44.9090918739231" lon="9.978031153251075"><ele>61.0</ele><time>2026-04-19T07:35:03Z</time></trkpt><trkpt lat="44.909020146929" lon="9.977983455746886"><ele>61.0</ele><time>2026-04-19T07:35:04Z</time></trkpt><trkpt lat="44.908947956154286" lon="9.97793425318804"><ele>60.99999999999999</ele><time>2026-04-19T07:35:05Z</time></trkpt><trkpt lat="44.908875617422744" lon="9.977882259151565"><ele>61.0</ele><time>2026-04-19T07:35:06Z</time></trkpt><trkpt lat="44.90880130816801" lon="9.977829484651549"><ele>60.99999999999999</ele><time>2026-04-19T07:35:07Z</time></trkpt><trkpt lat="44.9087254602173" lon="9.97777828698485"><ele>61.0</ele><time>2026-04-19T07:35:08Z</time></trkpt><trkpt lat="44.90864976493687" lon="9.977727240729271"><ele>61.0</ele><time>2026-04-19T07:35:09Z</time></trkpt><trkpt lat="44.90857286987414" lon="9.977678838484652"><ele>61.0</ele><time>2026-04-19T07:35:10Z</time></trkpt><trkpt lat="44.908499020836075" lon="9.977626999964103"><ele>60.99999999999999</ele><time>2026-04-19T07:35:11Z</time></trkpt><trkpt lat="44.90842351210492" lon="9.977577637372034"><ele>61.0</ele><time>2026-04-19T07:35:12Z</time></trkpt><trkpt lat="44.90835006086856" lon="9.977528616047636"><ele>61.166666666666664</ele><time>2026-04-19T07:35:13Z</time></trkpt><trkpt lat="44.908277300978256" lon="9.977476618179486"><ele>61.33333333333333</ele><time>2026-04-19T07:35:14Z</time></trkpt><trkpt lat="44.90820371940611" lon="9.977425129321185"><ele>61.5</ele><time>2026-04-19T07:35:14.999Z</time></trkpt><trkpt lat="44.90813158860321" lon="9.977376574997509"><ele>61.66666666666667</ele><time>2026-04-19T07:35:15.999Z</time></trkpt><trkpt lat="44.908057751319966" lon="9.977327922889497"><ele>61.833333333333336</ele><time>2026-04-19T07:35:16.999Z</time></trkpt><trkpt lat="44.90798581054375" lon="9.977277685265399"><ele>62.0</ele><time>2026-04-19T07:35:17.999Z</time></trkpt><trkpt lat="44.90791140460417" lon="9.977224891637112"><ele>62.00000000000001</ele><time>2026-04-19T07:35:18.999Z</time></trkpt><trkpt lat="44.907837914973385" lon="9.977175986910673"><ele>62.0</ele><time>2026-04-19T07:35:19.999Z</time></trkpt><trkpt lat="44.90776372603691" lon="9.977125344857923"><ele>62.0</ele><time>2026-04-19T07:35:20.999Z</time></trkpt><trkpt lat="44.907689475145226" lon="9.977073636624594"><ele>62.0</ele><time>2026-04-19T07:35:21.999Z</time></trkpt><trkpt lat="44.90761566110466" lon="9.977021585733608"><ele>62.00000000000001</ele><time>2026-04-19T07:35:22.999Z</time></trkpt><trkpt lat="44.90754263589829" lon="9.976971921292357"><ele>62.0</ele><time>2026-04-19T07:35:23.999Z</time></trkpt><trkpt lat="44.907469657386855" lon="9.976922499772906"><ele>62.16666666666667</ele><time>2026-04-19T07:35:24.999Z</time></trkpt><trkpt lat="44.90739796154111" lon="9.976873219610237"><ele>62.333333333333336</ele><time>2026-04-19T07:35:25.999Z</time></trkpt><trkpt lat="44.90732643729811" lon="9.976822623339189"><ele>62.5</ele><time>2026-04-19T07:35:26.999Z</time></trkpt><trkpt lat="44.90725537293568" lon="9.97677439668679"><ele>62.66666666666667</ele><time>2026-04-19T07:35:27.999Z</time></trkpt><trkpt lat="44.90718389957355" lon="9.9767243580797"><ele>62.833333333333336</ele><time>2026-04-19T07:35:28.999Z</time></trkpt><trkpt lat="44.907112517382615" lon="9.976674010406722"><ele>63.0</ele><time>2026-04-19T07:35:29.999Z</time></trkpt><trkpt lat="44.907042504799804" lon="9.976626248058778"><ele>63.0</ele><time>2026-04-19T07:35:30.999Z</time></trkpt><trkpt lat="44.906970951679305" lon="9.976576950841308"><ele>63.0</ele><time>2026-04-19T07:35:31.999Z</time></trkpt><trkpt lat="44.90689852881944" lon="9.976526981866797"><ele>63.0</ele><time>2026-04-19T07:35:32.999Z</time></trkpt><trkpt lat="44.9068283899987" lon="9.976477442758306"><ele>63.0</ele><time>2026-04-19T07:35:33.999Z</time></trkpt><trkpt lat="44.90675771694213" lon="9.976423147576831"><ele>63.0</ele><time>2026-04-19T07:35:34.999Z</time></trkpt><trkpt lat="44.90668668409328" lon="9.976380837476531"><ele>63.0</ele><time>2026-04-19T07:35:35.999Z</time></trkpt><trkpt lat="44.906614353519316" lon="9.976330435544837"><ele>63.0</ele><time>2026-04-19T07:35:36.999Z</time></trkpt><trkpt lat="44.90654291432804" lon="9.976281810241854"><ele>63.0</ele><time>2026-04-19T07:35:37.999Z</time></trkpt><trkpt lat="44.906472005337626" lon="9.976232315468879"><ele>63.0</ele><time>2026-04-19T07:35:38.999Z</time></trkpt><trkpt lat="44.90639816835218" lon="9.976183558035006"><ele>63.0</ele><time>2026-04-19T07:35:39.999Z</time></trkpt><trkpt lat="44.906324273906904" lon="9.97613727528518"><ele>63.0</ele><time>2026-04-19T07:35:40.999Z</time></trkpt><trkpt lat="44.90624845911617" lon="9.976084608712242"><ele>63.0</ele><time>2026-04-19T07:35:41.999Z</time></trkpt><trkpt lat="44.906174432687685" lon="9.976033393401412"><ele>63.0</ele><time>2026-04-19T07:35:42.999Z</time></trkpt><trkpt lat="44.90609609632259" lon="9.975979037109154"><ele>63.0</ele><time>2026-04-19T07:35:43.999Z</time></trkpt><trkpt lat="44.906022806239875" lon="9.975928861341574"><ele>63.0</ele><time>2026-04-19T07:35:44.999Z</time></trkpt><trkpt lat="44.90594813196302" lon="9.975877106663054"><ele>63.0</ele><time>2026-04-19T07:35:45.999Z</time></trkpt><trkpt lat="44.90587626380344" lon="9.97582768615435"><ele>63.0</ele><time>2026-04-19T07:35:46.999Z</time></trkpt><trkpt lat="44.905802087286276" lon="9.975777627230881"><ele>63.0</ele><time>2026-04-19T07:35:47.999Z</time></trkpt><trkpt lat="44.905733200109566" lon="9.975729237185769"><ele>63.5</ele><time>2026-04-19T07:35:48.999Z</time></trkpt><trkpt lat="44.90566435928696" lon="9.975680933784401"><ele>64.0</ele><time>2026-04-19T07:35:49.999Z</time></trkpt><trkpt lat="44.90559662760281" lon="9.97563524439806"><ele>64.5</ele><time>2026-04-19T07:35:50.999Z</time></trkpt><trkpt lat="44.90552574073435" lon="9.975588825315963"><ele>65.0</ele><time>2026-04-19T07:35:51.999Z</time></trkpt><trkpt lat="44.90545595402115" lon="9.9755436642748"><ele>65.5</ele><time>2026-04-19T07:35:52.999Z</time></trkpt><trkpt lat="44.90538575405024" lon="9.975494390816035"><ele>66.0</ele><time>2026-04-19T07:35:53.999Z</time></trkpt><trkpt lat="44.9053133313824" lon="9.975444617477477"><ele>66.0</ele><time>2026-04-19T07:35:54.999Z</time></trkpt><trkpt lat="44.905242634255984" lon="9.975397293598377"><ele>66.0</ele><time>2026-04-19T07:35:55.999Z</time></trkpt><trkpt lat="44.905171194423126" lon="9.975346770348157"><ele>66.0</ele><time>2026-04-19T07:35:56.999Z</time></trkpt><trkpt lat="44.905099762355306" lon="9.975300338202445"><ele>66.0</ele><time>2026-04-19T07:35:57.999Z</time></trkpt><trkpt lat="44.905028837591345" lon="9.975251798268909"><ele>66.0</ele><time>2026-04-19T07:35:58.999Z</time></trkpt><trkpt lat="44.9049568607082" lon="9.975202345831306"><ele>66.0</ele><time>2026-04-19T07:35:59.999Z</time></trkpt><trkpt lat="44.90488480554713" lon="9.975153843305918"><ele>65.83333333333333</ele><time>2026-04-19T07:36:00.999Z</time></trkpt><trkpt lat="44.90481362646845" lon="9.975108616228818"><ele>65.66666666666667</ele><time>2026-04-19T07:36:01.999Z</time></trkpt><trkpt lat="44.904743779224205" lon="9.975060051903082"><ele>65.5</ele><time>2026-04-19T07:36:02.999Z</time></trkpt><trkpt lat="44.90467310855686" lon="9.975013399918417"><ele>65.33333333333334</ele><time>2026-04-19T07:36:03.999Z</time></trkpt><trkpt lat="44.9046040087453" lon="9.974968182821689"><ele>65.16666666666667</ele><time>2026-04-19T07:36:04.999Z</time></trkpt><trkpt lat="44.904535546336014" lon="9.974921451753215"><ele>65.0</ele><time>2026-04-19T07:36:05.999Z</time></trkpt><trkpt lat="44.90446648654261" lon="9.974872180307782"><ele>65.0</ele><time>2026-04-19T07:36:06.999Z</time></trkpt><trkpt lat="44.90439693856624" lon="9.974823077915776"><ele>65.0</ele><time>2026-04-19T07:36:07.998Z</time></trkpt><trkpt lat="44.904329108439235" lon="9.974777215905016"><ele>65.0</ele><time>2026-04-19T07:36:08.998Z</time></trkpt><trkpt lat="44.904261077698116" lon="9.974731415520411"><ele>65.0</ele><time>2026-04-19T07:36:09.998Z</time></trkpt><trkpt lat="44.904193211620026" lon="9.974684017476159"><ele>65.0</ele><time>2026-04-19T07:36:10.998Z</time></trkpt><trkpt lat="44.90412597757185" lon="9.974638090491208"><ele>65.0</ele><time>2026-04-19T07:36:11.998Z</time></trkpt><trkpt lat="44.904058182153356" lon="9.974590893996766"><ele>65.16666666666667</ele><time>2026-04-19T07:36:12.998Z</time></trkpt><trkpt lat="44.90398959829012" lon="9.974544229374798"><ele>65.33333333333334</ele><time>2026-04-19T07:36:13.998Z</time></trkpt><trkpt lat="44.903921607319866" lon="9.974498268111754"><ele>65.5</ele><time>2026-04-19T07:36:14.998Z</time></trkpt><trkpt lat="44.90385310555815" lon="9.974450652969926"><ele>65.66666666666667</ele><time>2026-04-19T07:36:15.998Z</time></trkpt><trkpt lat="44.903784952281335" lon="9.974404784533585"><ele>65.83333333333333</ele><time>2026-04-19T07:36:16.998Z</time></trkpt><trkpt lat="44.90371769511711" lon="9.974358901609792"><ele>66.0</ele><time>2026-04-19T07:36:17.998Z</time></trkpt><trkpt lat="44.90365096890807" lon="9.974312368424952"><ele>66.0</ele><time>2026-04-19T07:36:18.998Z</time></trkpt><trkpt lat="44.90358458320595" lon="9.974264968793308"><ele>66.0</ele><time>2026-04-19T07:36:19.998Z</time></trkpt><trkpt lat="44.90351574782819" lon="9.97421686803054"><ele>66.0</ele><time>2026-04-19T07:36:20.998Z</time></trkpt><trkpt lat="44.903447405393074" lon="9.97417051097199"><ele>66.0</ele><time>2026-04-19T07:36:21.998Z</time></trkpt><trkpt lat="44.90337762203028" lon="9.9741234665774"><ele>66.0</ele><time>2026-04-19T07:36:22.998Z</time></trkpt><trkpt lat="44.903309865447284" lon="9.974076480872528"><ele>66.0</ele><time>2026-04-19T07:36:23.998Z</time></trkpt><trkpt lat="44.90324178811252" lon="9.974030294326159"><ele>66.16666666666667</ele><time>2026-04-19T07:36:24.998Z</time></trkpt><trkpt lat="44.90317201560643" lon="9.973984031940061"><ele>66.33333333333333</ele><time>2026-04-19T07:36:25.998Z</time></trkpt><trkpt lat="44.90310304250929" lon="9.973937429430482"><ele>66.5</ele><time>2026-04-19T07:36:26.998Z</time></trkpt><trkpt lat="44.90303574711323" lon="9.973888992746739"><ele>66.66666666666666</ele><time>2026-04-19T07:36:27.998Z</time></trkpt><trkpt lat="44.902967000806335" lon="9.97383726530122"><ele>66.83333333333333</ele><time>2026-04-19T07:36:28.998Z</time></trkpt><trkpt lat="44.90289879827115" lon="9.9737847981752"><ele>67.0</ele><time>2026-04-19T07:36:29.998Z</time></trkpt><trkpt lat="44.90283073668158" lon="9.973729140658572"><ele>67.0</ele><time>2026-04-19T07:36:30.998Z</time></trkpt><trkpt lat="44.90276040655628" lon="9.973677652392576"><ele>67.0</ele><time>2026-04-19T07:36:31.998Z</time></trkpt><trkpt lat="44.902689425633774" lon="9.973629754281522"><ele>67.0</ele><time>2026-04-19T07:36:32.998Z</time></trkpt><trkpt lat="44.902616824890096" lon="9.973582844376336"><ele>67.0</ele><time>2026-04-19T07:36:33.998Z</time></trkpt><trkpt lat="44.9025442054265" lon="9.9735459868617"><ele>67.0</ele><time>2026-04-19T07:36:34.998Z</time></trkpt><trkpt lat="44.90246976266439" lon="9.973514247423088"><ele>67.0</ele><time>2026-04-19T07:36:35.998Z</time></trkpt><trkpt lat="44.902392169236784" lon="9.97348670706584"><ele>67.16666666666666</ele><time>2026-04-19T07:36:36.998Z</time></trkpt><trkpt lat="44.902309698239456" lon="9.973461836269033"><ele>67.33333333333333</ele><time>2026-04-19T07:36:37.998Z</time></trkpt><trkpt lat="44.90222440658566" lon="9.973439465247079"><ele>67.5</ele><time>2026-04-19T07:36:38.998Z</time></trkpt><trkpt lat="44.902136910134985" lon="9.973420578185042"><ele>67.66666666666667</ele><time>2026-04-19T07:36:39.998Z</time></trkpt><trkpt lat="44.902049006002706" lon="9.973396594982697"><ele>67.83333333333334</ele><time>2026-04-19T07:36:41Z</time></trkpt><trkpt lat="44.90195571626598" lon="9.973358325070016"><ele>68.0</ele><time>2026-04-19T07:36:42Z</time></trkpt><trkpt lat="44.90186067538116" lon="9.973317100979703"><ele>68.0</ele><time>2026-04-19T07:36:43Z</time></trkpt><trkpt lat="44.90176668012267" lon="9.97326321079883"><ele>68.0</ele><time>2026-04-19T07:36:44Z</time></trkpt><trkpt lat="44.901671529233276" lon="9.973200769363551"><ele>68.0</ele><time>2026-04-19T07:36:45Z</time></trkpt><trkpt lat="44.90157219538962" lon="9.973156535877285"><ele>68.0</ele><time>2026-04-19T07:36:46Z</time></trkpt><trkpt lat="44.901477324871166" lon="9.973109378018622"><ele>68.0</ele><time>2026-04-19T07:36:47Z</time></trkpt><trkpt lat="44.901393687554496" lon="9.973052979971428"><ele>68.0</ele><time>2026-04-19T07:36:48Z</time></trkpt><trkpt lat="44.90131137495845" lon="9.972986603993352"><ele>68.0</ele><time>2026-04-19T07:36:49Z</time></trkpt><trkpt lat="44.90123560873647" lon="9.972939475925243"><ele>68.0</ele><time>2026-04-19T07:36:50Z</time></trkpt><trkpt lat="44.90116126300652" lon="9.972888994846233"><ele>68.0</ele><time>2026-04-19T07:36:51Z</time></trkpt><trkpt lat="44.90109171861811" lon="9.972840014216906"><ele>68.0</ele><time>2026-04-19T07:36:52Z</time></trkpt><trkpt lat="44.901027770379805" lon="9.972798558162028"><ele>68.0</ele><time>2026-04-19T07:36:53Z</time></trkpt><trkpt lat="44.90097016230672" lon="9.972745874002053"><ele>68.0</ele><time>2026-04-19T07:36:54Z</time></trkpt><trkpt lat="44.90091699423193" lon="9.972691864803236"><ele>68.0</ele><time>2026-04-19T07:36:55Z</time></trkpt><trkpt lat="44.90086649261279" lon="9.972638608814915"><ele>68.0</ele><time>2026-04-19T07:36:56Z</time></trkpt><trkpt lat="44.90077549040694" lon="9.972527500774376"><ele>68.0</ele><time>2026-04-19T07:36:58Z</time></trkpt><trkpt lat="44.900688612202806" lon="9.972404572144182"><ele>68.0</ele><time>2026-04-19T07:37:00Z</time></trkpt><trkpt lat="44.90061521917792" lon="9.972271365474828"><ele>68.33333333333334</ele><time>2026-04-19T07:37:02Z</time></trkpt><trkpt lat="44.90054129615976" lon="9.972128876402618"><ele>68.66666666666667</ele><time>2026-04-19T07:37:04Z</time></trkpt><trkpt lat="44.90050470218834" lon="9.972053542560813"><ele>69.0</ele><time>2026-04-19T07:37:05Z</time></trkpt><trkpt lat="44.90046671486731" lon="9.971975511868086"><ele>69.33333333333333</ele><time>2026-04-19T07:37:06Z</time></trkpt><trkpt lat="44.90042511097785" lon="9.971897885638091"><ele>69.66666666666666</ele><time>2026-04-19T07:37:07Z</time></trkpt><trkpt lat="44.900379172448616" lon="9.971817220159947"><ele>70.0</ele><time>2026-04-19T07:37:08Z</time></trkpt><trkpt lat="44.900336580284915" lon="9.971740631127313"><ele>70.28571428571429</ele><time>2026-04-19T07:37:09Z</time></trkpt><trkpt lat="44.90028948374782" lon="9.971675161348774"><ele>70.57142857142857</ele><time>2026-04-19T07:37:10Z</time></trkpt><trkpt lat="44.9002391794517" lon="9.97161348965014"><ele>70.85714285714286</ele><time>2026-04-19T07:37:11Z</time></trkpt><trkpt lat="44.90018891174616" lon="9.971552704782058"><ele>71.14285714285714</ele><time>2026-04-19T07:37:12Z</time></trkpt><trkpt lat="44.90013682648259" lon="9.971497699477565"><ele>71.42857142857143</ele><time>2026-04-19T07:37:13Z</time></trkpt><trkpt lat="44.900084493058266" lon="9.971443605370812"><ele>71.71428571428572</ele><time>2026-04-19T07:37:14Z</time></trkpt><trkpt lat="44.90003046117183" lon="9.971394474569905"><ele>72.0</ele><time>2026-04-19T07:37:15Z</time></trkpt><trkpt lat="44.89997591928347" lon="9.971343510136393"><ele>72.00000000000001</ele><time>2026-04-19T07:37:16Z</time></trkpt><trkpt lat="44.89992054594195" lon="9.971292537688477"><ele>72.0</ele><time>2026-04-19T07:37:17Z</time></trkpt><trkpt lat="44.899866129602096" lon="9.971239360193803"><ele>72.0</ele><time>2026-04-19T07:37:18Z</time></trkpt><trkpt lat="44.89981101387214" lon="9.971187654838"><ele>72.0</ele><time>2026-04-19T07:37:18.999Z</time></trkpt><trkpt lat="44.89975795588999" lon="9.97113496505382"><ele>72.0</ele><time>2026-04-19T07:37:19.999Z</time></trkpt><trkpt lat="44.8997047348438" lon="9.971084859362257"><ele>72.00000000000001</ele><time>2026-04-19T07:37:20.999Z</time></trkpt><trkpt lat="44.89964832911601" lon="9.971035944481834"><ele>72.0</ele><time>2026-04-19T07:37:21.999Z</time></trkpt><trkpt lat="44.899594930709405" lon="9.970985415775122"><ele>72.0</ele><time>2026-04-19T07:37:22.999Z</time></trkpt><trkpt lat="44.89954144131018" lon="9.970936579780512"><ele>72.0</ele><time>2026-04-19T07:37:23.999Z</time></trkpt><trkpt lat="44.89948629597374" lon="9.970886683696191"><ele>72.0</ele><time>2026-04-19T07:37:24.999Z</time></trkpt><trkpt lat="44.8994298707338" lon="9.970836989086292"><ele>72.0</ele><time>2026-04-19T07:37:25.999Z</time></trkpt><trkpt lat="44.89937799598882" lon="9.970784744588391"><ele>72.0</ele><time>2026-04-19T07:37:26.999Z</time></trkpt><trkpt lat="44.89932491663146" lon="9.970734400212246"><ele>72.0</ele><time>2026-04-19T07:37:27.999Z</time></trkpt><trkpt lat="44.89921872888518" lon="9.970635603378915"><ele>72.4</ele><time>2026-04-19T07:37:29.999Z</time></trkpt><trkpt lat="44.89916509859263" lon="9.970589056189244"><ele>72.80000000000001</ele><time>2026-04-19T07:37:30.999Z</time></trkpt><trkpt lat="44.89906492060438" lon="9.970492290546776"><ele>73.2</ele><time>2026-04-19T07:37:32.999Z</time></trkpt><trkpt lat="44.89896276352036" lon="9.97039553651168"><ele>73.60000000000001</ele><time>2026-04-19T07:37:34.999Z</time></trkpt><trkpt lat="44.89885911339985" lon="9.97029922869076"><ele>74.0</ele><time>2026-04-19T07:37:36.999Z</time></trkpt><trkpt lat="44.898758018136576" lon="9.970201793112809"><ele>74.0</ele><time>2026-04-19T07:37:38.999Z</time></trkpt><trkpt lat="44.898704393714695" lon="9.970153354105923"><ele>74.0</ele><time>2026-04-19T07:37:39.999Z</time></trkpt><trkpt lat="44.89860164418377" lon="9.97006149159069"><ele>74.0</ele><time>2026-04-19T07:37:41.999Z</time></trkpt><trkpt lat="44.89849842854845" lon="9.969966352438338"><ele>74.0</ele><time>2026-04-19T07:37:43.999Z</time></trkpt><trkpt lat="44.89839793722729" lon="9.96987096246628"><ele>74.0</ele><time>2026-04-19T07:37:45.999Z</time></trkpt><trkpt lat="44.89830073128414" lon="9.969781654598295"><ele>74.25</ele><time>2026-04-19T07:37:47.999Z</time></trkpt><trkpt lat="44.89819961895031" lon="9.969687312346325"><ele>74.5</ele><time>2026-04-19T07:37:49.999Z</time></trkpt><trkpt lat="44.89809961923359" lon="9.969595248491155"><ele>74.75</ele><time>2026-04-19T07:37:51.999Z</time></trkpt><trkpt lat="44.89800404660642" lon="9.969505321713195"><ele>75.0</ele><time>2026-04-19T07:37:53.999Z</time></trkpt><trkpt lat="44.89790549713436" lon="9.969417937570512"><ele>75.0</ele><time>2026-04-19T07:37:55.999Z</time></trkpt><trkpt lat="44.89780621670979" lon="9.969328405225012"><ele>75.0</ele><time>2026-04-19T07:37:57.999Z</time></trkpt><trkpt lat="44.8977121443808" lon="9.969241250574816"><ele>75.0</ele><time>2026-04-19T07:37:59.999Z</time></trkpt><trkpt lat="44.89762053947485" lon="9.969154513255907"><ele>75.0</ele><time>2026-04-19T07:38:01.999Z</time></trkpt><trkpt lat="44.897524404881196" lon="9.969073906504219"><ele>75.4</ele><time>2026-04-19T07:38:03.999Z</time></trkpt><trkpt lat="44.89743122560908" lon="9.968989546493017"><ele>75.8</ele><time>2026-04-19T07:38:05.999Z</time></trkpt><trkpt lat="44.897338054040965" lon="9.968900542804853"><ele>76.2</ele><time>2026-04-19T07:38:07.999Z</time></trkpt><trkpt lat="44.89725179629052" lon="9.968815773399534"><ele>76.6</ele><time>2026-04-19T07:38:09.999Z</time></trkpt><trkpt lat="44.897158557992505" lon="9.968736570522305"><ele>77.0</ele><time>2026-04-19T07:38:11.998Z</time></trkpt><trkpt lat="44.89706992755068" lon="9.968647984665632"><ele>77.0</ele><time>2026-04-19T07:38:13.998Z</time></trkpt><trkpt lat="44.89697827636445" lon="9.968558722687677"><ele>77.0</ele><time>2026-04-19T07:38:15.998Z</time></trkpt><trkpt lat="44.89688368124959" lon="9.968468449410516"><ele>77.0</ele><time>2026-04-19T07:38:17.998Z</time></trkpt><trkpt lat="44.896789510213935" lon="9.968372929083982"><ele>77.0</ele><time>2026-04-19T07:38:19.998Z</time></trkpt><trkpt lat="44.89669372212574" lon="9.968273215630719"><ele>77.2</ele><time>2026-04-19T07:38:21.998Z</time></trkpt><trkpt lat="44.89661420477379" lon="9.968176056482275"><ele>77.4</ele><time>2026-04-19T07:38:23.998Z</time></trkpt><trkpt lat="44.89653689018023" lon="9.968088171685705"><ele>77.6</ele><time>2026-04-19T07:38:25.998Z</time></trkpt><trkpt lat="44.89646653213144" lon="9.96800946456968"><ele>77.8</ele><time>2026-04-19T07:38:27.998Z</time></trkpt><trkpt lat="44.89640610447868" lon="9.967935044525655"><ele>78.0</ele><time>2026-04-19T07:38:29.998Z</time></trkpt><trkpt lat="44.89635700924431" lon="9.967847423096094"><ele>78.0</ele><time>2026-04-19T07:38:32.998Z</time></trkpt><trkpt lat="44.89632163585218" lon="9.967762332136456"><ele>78.0</ele><time>2026-04-19T07:38:37.998Z</time></trkpt><trkpt lat="44.896268428070236" lon="9.967714629011628"><ele>78.0</ele><time>2026-04-19T07:38:56Z</time></trkpt><trkpt lat="44.89619666834081" lon="9.967780993401924"><ele>78.0</ele><time>2026-04-19T07:38:58Z</time></trkpt><trkpt lat="44.89612021757444" lon="9.967828645403795"><ele>78.0</ele><time>2026-04-19T07:39:00Z</time></trkpt><trkpt lat="44.89606570730413" lon="9.96777393841065"><ele>78.0</ele><time>2026-04-19T07:39:01Z</time></trkpt><trkpt lat="44.89598945152881" lon="9.967670579303698"><ele>78.5</ele><time>2026-04-19T07:39:03Z</time></trkpt><trkpt lat="44.895904536261426" lon="9.967581416351667"><ele>79.0</ele><time>2026-04-19T07:39:05Z</time></trkpt><trkpt lat="44.89581419982813" lon="9.967484650064389"><ele>79.5</ele><time>2026-04-19T07:39:07Z</time></trkpt><trkpt lat="44.89571786261819" lon="9.967384305059392"><ele>80.0</ele><time>2026-04-19T07:39:09Z</time></trkpt><trkpt lat="44.8956155564694" lon="9.967297257079228"><ele>80.0</ele><time>2026-04-19T07:39:11Z</time></trkpt><trkpt lat="44.895528383918204" lon="9.967192550842814"><ele>80.0</ele><time>2026-04-19T07:39:13Z</time></trkpt><trkpt lat="44.89543677863074" lon="9.967104324681788"><ele>80.0</ele><time>2026-04-19T07:39:15Z</time></trkpt><trkpt lat="44.89534696506053" lon="9.967002801814246"><ele>80.0</ele><time>2026-04-19T07:39:17Z</time></trkpt><trkpt lat="44.8952556161967" lon="9.966910683077549"><ele>80.0</ele><time>2026-04-19T07:39:19Z</time></trkpt><trkpt lat="44.8951614251877" lon="9.96682305303261"><ele>80.0</ele><time>2026-04-19T07:39:21Z</time></trkpt><trkpt lat="44.895071724930155" lon="9.966734251297224"><ele>80.0</ele><time>2026-04-19T07:39:22.999Z</time></trkpt><trkpt lat="44.89498011442273" lon="9.966650010494623"><ele>80.0</ele><time>2026-04-19T07:39:24.999Z</time></trkpt><trkpt lat="44.89489394823947" lon="9.966563236538775"><ele>80.0</ele><time>2026-04-19T07:39:26.999Z</time></trkpt><trkpt lat="44.894820055204704" lon="9.96645543636583"><ele>79.8</ele><time>2026-04-19T07:39:28.999Z</time></trkpt><trkpt lat="44.89476527266267" lon="9.966375047251574"><ele>79.6</ele><time>2026-04-19T07:39:30.999Z</time></trkpt><trkpt lat="44.89470349365795" lon="9.96626038705437"><ele>79.4</ele><time>2026-04-19T07:39:32.999Z</time></trkpt><trkpt lat="44.89464755835814" lon="9.96614183735052"><ele>79.2</ele><time>2026-04-19T07:39:34.999Z</time></trkpt><trkpt lat="44.89459624425076" lon="9.966023904418233"><ele>79.0</ele><time>2026-04-19T07:39:36.999Z</time></trkpt><trkpt lat="44.89453892364861" lon="9.965907581879494"><ele>79.4</ele><time>2026-04-19T07:39:38.999Z</time></trkpt><trkpt lat="44.894480383107954" lon="9.965785377077582"><ele>79.80000000000001</ele><time>2026-04-19T07:39:40.999Z</time></trkpt><trkpt lat="44.89440678210867" lon="9.96562156437318"><ele>80.19999999999999</ele><time>2026-04-19T07:39:42.999Z</time></trkpt><trkpt lat="44.89436904133774" lon="9.965535519007677"><ele>80.6</ele><time>2026-04-19T07:39:43.999Z</time></trkpt><trkpt lat="44.89431039628596" lon="9.965401280909687"><ele>81.0</ele><time>2026-04-19T07:39:45.999Z</time></trkpt><trkpt lat="44.89425251442766" lon="9.965262088274585"><ele>81.0</ele><time>2026-04-19T07:39:47.999Z</time></trkpt><trkpt lat="44.89418859170455" lon="9.965120815944685"><ele>81.0</ele><time>2026-04-19T07:39:49.999Z</time></trkpt><trkpt lat="44.89412507441183" lon="9.96499301789717"><ele>81.0</ele><time>2026-04-19T07:39:51.999Z</time></trkpt><trkpt lat="44.89406397960897" lon="9.964857152788753"><ele>81.0</ele><time>2026-04-19T07:39:53.999Z</time></trkpt><trkpt lat="44.89400134915862" lon="9.964723347923902"><ele>81.5</ele><time>2026-04-19T07:39:55.999Z</time></trkpt><trkpt lat="44.893938635132514" lon="9.964593409752077"><ele>82.0</ele><time>2026-04-19T07:39:57.999Z</time></trkpt><trkpt lat="44.89387232930771" lon="9.964456750137073"><ele>82.5</ele><time>2026-04-19T07:39:59.999Z</time></trkpt><trkpt lat="44.89380769345797" lon="9.964320569805507"><ele>83.0</ele><time>2026-04-19T07:40:01.999Z</time></trkpt><trkpt lat="44.893740910194396" lon="9.964185186770793"><ele>83.0</ele><time>2026-04-19T07:40:03.999Z</time></trkpt><trkpt lat="44.89367064544686" lon="9.964054025098926"><ele>83.0</ele><time>2026-04-19T07:40:05.999Z</time></trkpt><trkpt lat="44.89360104679071" lon="9.963922506257628"><ele>83.0</ele><time>2026-04-19T07:40:07.999Z</time></trkpt><trkpt lat="44.89353358063049" lon="9.96379494806858"><ele>83.0</ele><time>2026-04-19T07:40:09.999Z</time></trkpt><trkpt lat="44.893453970046586" lon="9.963669571646719"><ele>83.4</ele><time>2026-04-19T07:40:11.999Z</time></trkpt><trkpt lat="44.89337403289243" lon="9.963540370782438"><ele>83.80000000000001</ele><time>2026-04-19T07:40:13.999Z</time></trkpt><trkpt lat="44.89329177429681" lon="9.963409569313084"><ele>84.2</ele><time>2026-04-19T07:40:15.998Z</time></trkpt><trkpt lat="44.89320752864713" lon="9.963276171127463"><ele>84.6</ele><time>2026-04-19T07:40:17.998Z</time></trkpt><trkpt lat="44.893164326919525" lon="9.96320918010972"><ele>85.0</ele><time>2026-04-19T07:40:18.998Z</time></trkpt><trkpt lat="44.89312110925147" lon="9.963141171275028"><ele>84.42857142857143</ele><time>2026-04-19T07:40:19.998Z</time></trkpt><trkpt lat="44.893077258259176" lon="9.963072238590911"><ele>83.85714285714285</ele><time>2026-04-19T07:40:20.998Z</time></trkpt><trkpt lat="44.89303342942832" lon="9.963003150571547"><ele>83.28571428571428</ele><time>2026-04-19T07:40:21.998Z</time></trkpt><trkpt lat="44.89298942820064" lon="9.962932704145642"><ele>82.71428571428572</ele><time>2026-04-19T07:40:22.998Z</time></trkpt><trkpt lat="44.89294539048497" lon="9.962863239923424"><ele>82.14285714285714</ele><time>2026-04-19T07:40:23.998Z</time></trkpt><trkpt lat="44.89290200105945" lon="9.962793800073584"><ele>81.57142857142857</ele><time>2026-04-19T07:40:24.998Z</time></trkpt><trkpt lat="44.89285767702426" lon="9.962723539355338"><ele>81.0</ele><time>2026-04-19T07:40:25.998Z</time></trkpt><trkpt lat="44.89281460773452" lon="9.962658223436836"><ele>81.0</ele><time>2026-04-19T07:40:26.998Z</time></trkpt><trkpt lat="44.8927714069719" lon="9.962591648703647"><ele>81.0</ele><time>2026-04-19T07:40:27.998Z</time></trkpt><trkpt lat="44.892728473568006" lon="9.962521738787188"><ele>81.0</ele><time>2026-04-19T07:40:28.998Z</time></trkpt><trkpt lat="44.89268481522622" lon="9.962453078981962"><ele>81.0</ele><time>2026-04-19T07:40:29.998Z</time></trkpt><trkpt lat="44.89264291063858" lon="9.962385055561931"><ele>81.0</ele><time>2026-04-19T07:40:30.998Z</time></trkpt><trkpt lat="44.892599155831135" lon="9.962317634944123"><ele>81.0</ele><time>2026-04-19T07:40:31.998Z</time></trkpt><trkpt lat="44.8925559209199" lon="9.96225041680735"><ele>81.0</ele><time>2026-04-19T07:40:32.998Z</time></trkpt><trkpt lat="44.89251428193783" lon="9.962181592949436"><ele>81.28571428571429</ele><time>2026-04-19T07:40:33.998Z</time></trkpt><trkpt lat="44.89246976480809" lon="9.962113778196361"><ele>81.57142857142857</ele><time>2026-04-19T07:40:34.998Z</time></trkpt><trkpt lat="44.892426375532835" lon="9.962046103360132"><ele>81.85714285714286</ele><time>2026-04-19T07:40:35.998Z</time></trkpt><trkpt lat="44.89238296786254" lon="9.961976619913457"><ele>82.14285714285714</ele><time>2026-04-19T07:40:36.998Z</time></trkpt><trkpt lat="44.892338574847216" lon="9.96190976255066"><ele>82.42857142857143</ele><time>2026-04-19T07:40:37.998Z</time></trkpt><trkpt lat="44.89229335701006" lon="9.961841981861907"><ele>82.71428571428571</ele><time>2026-04-19T07:40:38.998Z</time></trkpt><trkpt lat="44.89224816602962" lon="9.961776053941115"><ele>83.0</ele><time>2026-04-19T07:40:39.998Z</time></trkpt><trkpt lat="44.89220416272539" lon="9.961706555478582"><ele>83.0</ele><time>2026-04-19T07:40:40.998Z</time></trkpt><trkpt lat="44.89216212438425" lon="9.96163597192611"><ele>83.0</ele><time>2026-04-19T07:40:41.998Z</time></trkpt><trkpt lat="44.89211875615706" lon="9.96156707907403"><ele>83.0</ele><time>2026-04-19T07:40:42.998Z</time></trkpt><trkpt lat="44.89207626306148" lon="9.961496563176159"><ele>83.0</ele><time>2026-04-19T07:40:43.998Z</time></trkpt><trkpt lat="44.892032850743256" lon="9.961426953338313"><ele>83.0</ele><time>2026-04-19T07:40:44.998Z</time></trkpt><trkpt lat="44.89198852534117" lon="9.961360779788867"><ele>83.0</ele><time>2026-04-19T07:40:45.998Z</time></trkpt><trkpt lat="44.89194494265433" lon="9.96129241458389"><ele>83.0</ele><time>2026-04-19T07:40:46.998Z</time></trkpt><trkpt lat="44.891901704281885" lon="9.961223813547992"><ele>83.0</ele><time>2026-04-19T07:40:47.998Z</time></trkpt><trkpt lat="44.891860603921224" lon="9.961155843564686"><ele>83.0</ele><time>2026-04-19T07:40:48.998Z</time></trkpt><trkpt lat="44.891818409657965" lon="9.961086790534322"><ele>83.0</ele><time>2026-04-19T07:40:49.998Z</time></trkpt><trkpt lat="44.891774393090074" lon="9.961020113528088"><ele>83.0</ele><time>2026-04-19T07:40:50.998Z</time></trkpt><trkpt lat="44.89173087340097" lon="9.960953617056434"><ele>83.0</ele><time>2026-04-19T07:40:52Z</time></trkpt><trkpt lat="44.89168677557756" lon="9.960886717150533"><ele>83.0</ele><time>2026-04-19T07:40:53Z</time></trkpt><trkpt lat="44.89160224252796" lon="9.96075130447975"><ele>83.0</ele><time>2026-04-19T07:40:55Z</time></trkpt><trkpt lat="44.89151914015942" lon="9.960615528572127"><ele>83.16666666666667</ele><time>2026-04-19T07:40:57Z</time></trkpt><trkpt lat="44.891477276937266" lon="9.960549129055137"><ele>83.33333333333334</ele><time>2026-04-19T07:40:58Z</time></trkpt><trkpt lat="44.89143384020011" lon="9.960481897567437"><ele>83.5</ele><time>2026-04-19T07:40:59Z</time></trkpt><trkpt lat="44.89134790585807" lon="9.96035191408793"><ele>83.66666666666667</ele><time>2026-04-19T07:41:01Z</time></trkpt><trkpt lat="44.891263311446274" lon="9.960217812188292"><ele>83.83333333333333</ele><time>2026-04-19T07:41:03Z</time></trkpt><trkpt lat="44.89122015033725" lon="9.960150872236984"><ele>84.0</ele><time>2026-04-19T07:41:04Z</time></trkpt><trkpt lat="44.89117869523611" lon="9.960083066429831"><ele>84.0</ele><time>2026-04-19T07:41:05Z</time></trkpt><trkpt lat="44.89113650869808" lon="9.960015275463663"><ele>84.0</ele><time>2026-04-19T07:41:06Z</time></trkpt><trkpt lat="44.891054505479744" lon="9.959881181982276"><ele>84.0</ele><time>2026-04-19T07:41:08Z</time></trkpt><trkpt lat="44.89097022512765" lon="9.959749866262875"><ele>84.0</ele><time>2026-04-19T07:41:10Z</time></trkpt><trkpt lat="44.8909288320255" lon="9.959682105424186"><ele>84.0</ele><time>2026-04-19T07:41:11Z</time></trkpt><trkpt lat="44.89084525694861" lon="9.959553516700153"><ele>84.0</ele><time>2026-04-19T07:41:13Z</time></trkpt><trkpt lat="44.89076157705737" lon="9.959420711031713"><ele>84.0</ele><time>2026-04-19T07:41:15Z</time></trkpt><trkpt lat="44.8906785811709" lon="9.959291611949665"><ele>84.0</ele><time>2026-04-19T07:41:17Z</time></trkpt><trkpt lat="44.89063708306688" lon="9.95922416784798"><ele>84.0</ele><time>2026-04-19T07:41:18Z</time></trkpt><trkpt lat="44.89055472968917" lon="9.95909288778166"><ele>84.0</ele><time>2026-04-19T07:41:20Z</time></trkpt><trkpt lat="44.890468827493216" lon="9.958962288295034"><ele>84.14285714285714</ele><time>2026-04-19T07:41:22Z</time></trkpt><trkpt lat="44.89038507440797" lon="9.95882873851171"><ele>84.28571428571428</ele><time>2026-04-19T07:41:24Z</time></trkpt><trkpt lat="44.89034239101925" lon="9.958763402208477"><ele>84.42857142857143</ele><time>2026-04-19T07:41:25Z</time></trkpt><trkpt lat="44.89029958305267" lon="9.958695069164113"><ele>84.57142857142857</ele><time>2026-04-19T07:41:26Z</time></trkpt><trkpt lat="44.89025717685196" lon="9.958627806358306"><ele>84.71428571428571</ele><time>2026-04-19T07:41:26.999Z</time></trkpt><trkpt lat="44.89021546763269" lon="9.95855977070987"><ele>84.85714285714286</ele><time>2026-04-19T07:41:27.999Z</time></trkpt><trkpt lat="44.89017210268131" lon="9.958494996995038"><ele>85.0</ele><time>2026-04-19T07:41:28.999Z</time></trkpt><trkpt lat="44.89013062091305" lon="9.958424240909562"><ele>85.42857142857143</ele><time>2026-04-19T07:41:29.999Z</time></trkpt><trkpt lat="44.89008851318116" lon="9.958356462730547"><ele>85.85714285714285</ele><time>2026-04-19T07:41:30.999Z</time></trkpt><trkpt lat="44.89004536713088" lon="9.958289204206007"><ele>86.28571428571428</ele><time>2026-04-19T07:41:31.999Z</time></trkpt><trkpt lat="44.89000004198304" lon="9.958218111357112"><ele>86.71428571428572</ele><time>2026-04-19T07:41:32.999Z</time></trkpt><trkpt lat="44.889957685049524" lon="9.95815118912973"><ele>87.14285714285714</ele><time>2026-04-19T07:41:33.999Z</time></trkpt><trkpt lat="44.88991284580929" lon="9.9580773604012"><ele>87.57142857142857</ele><time>2026-04-19T07:41:34.999Z</time></trkpt><trkpt lat="44.88986520952863" lon="9.95800818248228"><ele>88.0</ele><time>2026-04-19T07:41:35.999Z</time></trkpt><trkpt lat="44.88982165729024" lon="9.957935065336104"><ele>88.0</ele><time>2026-04-19T07:41:36.999Z</time></trkpt><trkpt lat="44.88977961709492" lon="9.957861265189516"><ele>88.0</ele><time>2026-04-19T07:41:37.999Z</time></trkpt><trkpt lat="44.889739580811074" lon="9.957784511593147"><ele>88.0</ele><time>2026-04-19T07:41:38.999Z</time></trkpt><trkpt lat="44.88970348027567" lon="9.95770128379136"><ele>88.0</ele><time>2026-04-19T07:41:39.999Z</time></trkpt><trkpt lat="44.8896694544164" lon="9.957616963545156"><ele>88.0</ele><time>2026-04-19T07:41:40.999Z</time></trkpt><trkpt lat="44.88963515390579" lon="9.957532508375246"><ele>88.0</ele><time>2026-04-19T07:41:41.999Z</time></trkpt><trkpt lat="44.88960194702617" lon="9.957447230678508"><ele>88.0</ele><time>2026-04-19T07:41:42.999Z</time></trkpt><trkpt lat="44.88956958130434" lon="9.957363945732988"><ele>87.85714285714286</ele><time>2026-04-19T07:41:43.999Z</time></trkpt><trkpt lat="44.88953312345452" lon="9.957278432409131"><ele>87.71428571428571</ele><time>2026-04-19T07:41:44.999Z</time></trkpt><trkpt lat="44.8894969933316" lon="9.957194099763194"><ele>87.57142857142857</ele><time>2026-04-19T07:41:45.999Z</time></trkpt><trkpt lat="44.88945821843689" lon="9.957113320650153"><ele>87.42857142857143</ele><time>2026-04-19T07:41:46.999Z</time></trkpt><trkpt lat="44.88941962546236" lon="9.957030471355626"><ele>87.28571428571429</ele><time>2026-04-19T07:41:47.999Z</time></trkpt><trkpt lat="44.889375518751955" lon="9.956952502271507"><ele>87.14285714285714</ele><time>2026-04-19T07:41:48.999Z</time></trkpt><trkpt lat="44.889326232728344" lon="9.956875994352764"><ele>87.0</ele><time>2026-04-19T07:41:49.999Z</time></trkpt><trkpt lat="44.8892755985266" lon="9.95680304868785"><ele>87.0</ele><time>2026-04-19T07:41:50.999Z</time></trkpt><trkpt lat="44.88922134554176" lon="9.956732545697166"><ele>87.0</ele><time>2026-04-19T07:41:51.999Z</time></trkpt><trkpt lat="44.88916590153369" lon="9.956666758010082"><ele>87.0</ele><time>2026-04-19T07:41:52.999Z</time></trkpt><trkpt lat="44.88910694583708" lon="9.95660493645173"><ele>87.0</ele><time>2026-04-19T07:41:53.999Z</time></trkpt><trkpt lat="44.88904966401743" lon="9.956545953252531"><ele>87.0</ele><time>2026-04-19T07:41:54.999Z</time></trkpt><trkpt lat="44.8889921082505" lon="9.956488022491166"><ele>87.0</ele><time>2026-04-19T07:41:55.999Z</time></trkpt><trkpt lat="44.88893335919346" lon="9.956434077223468"><ele>87.0</ele><time>2026-04-19T07:41:56.999Z</time></trkpt><trkpt lat="44.888873578082354" lon="9.956383990611979"><ele>87.0</ele><time>2026-04-19T07:41:57.999Z</time></trkpt><trkpt lat="44.88881323568044" lon="9.956333790336004"><ele>87.0</ele><time>2026-04-19T07:41:58.999Z</time></trkpt><trkpt lat="44.888750928479034" lon="9.956287499175252"><ele>87.0</ele><time>2026-04-19T07:41:59.999Z</time></trkpt><trkpt lat="44.88868833043807" lon="9.95624554623444"><ele>87.0</ele><time>2026-04-19T07:42:00.999Z</time></trkpt><trkpt lat="44.88862319461351" lon="9.95620474468023"><ele>87.0</ele><time>2026-04-19T07:42:01.999Z</time></trkpt><trkpt lat="44.88855619660998" lon="9.956166069311536"><ele>87.0</ele><time>2026-04-19T07:42:02.999Z</time></trkpt><trkpt lat="44.888491663987466" lon="9.956125134227316"><ele>87.0</ele><time>2026-04-19T07:42:03.999Z</time></trkpt><trkpt lat="44.88842529531023" lon="9.956085983861007"><ele>87.0</ele><time>2026-04-19T07:42:04.999Z</time></trkpt><trkpt lat="44.88835951600834" lon="9.95604686406326"><ele>87.0</ele><time>2026-04-19T07:42:05.999Z</time></trkpt><trkpt lat="44.88829463312125" lon="9.956006471979856"><ele>87.0</ele><time>2026-04-19T07:42:06.999Z</time></trkpt><trkpt lat="44.88822802156076" lon="9.955971923435627"><ele>87.0</ele><time>2026-04-19T07:42:07.999Z</time></trkpt><trkpt lat="44.88816127721586" lon="9.955935667820617"><ele>87.0</ele><time>2026-04-19T07:42:08.999Z</time></trkpt><trkpt lat="44.8880966462281" lon="9.955897751292815"><ele>87.0</ele><time>2026-04-19T07:42:09.999Z</time></trkpt><trkpt lat="44.88803307609655" lon="9.95585614644999"><ele>87.0</ele><time>2026-04-19T07:42:10.999Z</time></trkpt><trkpt lat="44.88797184924784" lon="9.955814794601082"><ele>86.85714285714286</ele><time>2026-04-19T07:42:11.999Z</time></trkpt><trkpt lat="44.887909488017726" lon="9.955774275459731"><ele>86.71428571428572</ele><time>2026-04-19T07:42:12.999Z</time></trkpt><trkpt lat="44.88785062764111" lon="9.955731315664494"><ele>86.57142857142858</ele><time>2026-04-19T07:42:13.999Z</time></trkpt><trkpt lat="44.88779155691384" lon="9.955687745699734"><ele>86.42857142857143</ele><time>2026-04-19T07:42:14.999Z</time></trkpt><trkpt lat="44.88773187968491" lon="9.95564050538945"><ele>86.28571428571429</ele><time>2026-04-19T07:42:15.999Z</time></trkpt><trkpt lat="44.88767570175622" lon="9.955589194248262"><ele>86.14285714285715</ele><time>2026-04-19T07:42:16.999Z</time></trkpt><trkpt lat="44.88762133298547" lon="9.955534752538616"><ele>86.0</ele><time>2026-04-19T07:42:17.999Z</time></trkpt><trkpt lat="44.887569321654226" lon="9.95548226877476"><ele>86.28571428571429</ele><time>2026-04-19T07:42:18.999Z</time></trkpt><trkpt lat="44.887519211732304" lon="9.95542735697461"><ele>86.57142857142857</ele><time>2026-04-19T07:42:19.998Z</time></trkpt><trkpt lat="44.88746973586656" lon="9.955369486454778"><ele>86.85714285714286</ele><time>2026-04-19T07:42:20.998Z</time></trkpt><trkpt lat="44.8874203997233" lon="9.95531244320925"><ele>87.14285714285714</ele><time>2026-04-19T07:42:21.998Z</time></trkpt><trkpt lat="44.8873722425133" lon="9.955253869296099"><ele>87.42857142857143</ele><time>2026-04-19T07:42:22.998Z</time></trkpt><trkpt lat="44.887279063209974" lon="9.955134241863172"><ele>87.71428571428572</ele><time>2026-04-19T07:42:24.998Z</time></trkpt><trkpt lat="44.887233432555604" lon="9.955068924331893"><ele>88.0</ele><time>2026-04-19T07:42:25.998Z</time></trkpt><trkpt lat="44.88718615710562" lon="9.955009456918143"><ele>88.25</ele><time>2026-04-19T07:42:26.998Z</time></trkpt><trkpt lat="44.88709198117505" lon="9.954891172512983"><ele>88.5</ele><time>2026-04-19T07:42:28.998Z</time></trkpt><trkpt lat="44.88700385218292" lon="9.954770757385454"><ele>88.75</ele><time>2026-04-19T07:42:30.998Z</time></trkpt><trkpt lat="44.88691883075626" lon="9.954655629247338"><ele>89.0</ele><time>2026-04-19T07:42:32.998Z</time></trkpt><trkpt lat="44.886844452755525" lon="9.954544808653937"><ele>89.0</ele><time>2026-04-19T07:42:34.998Z</time></trkpt><trkpt lat="44.88677681482683" lon="9.954440748162662"><ele>89.0</ele><time>2026-04-19T07:42:36.998Z</time></trkpt><trkpt lat="44.88671590199563" lon="9.954340979192068"><ele>89.0</ele><time>2026-04-19T07:42:38.998Z</time></trkpt><trkpt lat="44.886658800076454" lon="9.954251610017742"><ele>89.0</ele><time>2026-04-19T07:42:40.998Z</time></trkpt><trkpt lat="44.88660738660869" lon="9.954171177653103"><ele>89.0</ele><time>2026-04-19T07:42:42.998Z</time></trkpt><trkpt lat="44.88647182559872" lon="9.954263355750042"><ele>89.0</ele><time>2026-04-19T07:42:46.998Z</time></trkpt><trkpt lat="44.88645002609807" lon="9.954401145528546"><ele>89.0</ele><time>2026-04-19T07:42:48.998Z</time></trkpt><trkpt lat="44.88642997384571" lon="9.954522414926693"><ele>89.0</ele><time>2026-04-19T07:42:50.998Z</time></trkpt><trkpt lat="44.88640388408061" lon="9.954631415487547"><ele>89.0</ele><time>2026-04-19T07:42:52.998Z</time></trkpt><trkpt lat="44.886369927954874" lon="9.954725428821842"><ele>89.0</ele><time>2026-04-19T07:42:54.998Z</time></trkpt><trkpt lat="44.886333560826486" lon="9.954811853123816"><ele>89.0</ele><time>2026-04-19T07:42:56.998Z</time></trkpt><trkpt lat="44.88630516682559" lon="9.954893211127906"><ele>89.0</ele><time>2026-04-19T07:42:59Z</time></trkpt><trkpt lat="44.886274775673826" lon="9.95499214196393"><ele>89.0</ele><time>2026-04-19T07:43:02Z</time></trkpt><trkpt lat="44.88624674792037" lon="9.955072764780494"><ele>89.0</ele><time>2026-04-19T07:43:08Z</time></trkpt><trkpt lat="44.88621126293974" lon="9.955163411091398"><ele>89.0</ele><time>2026-04-19T07:43:10Z</time></trkpt><trkpt lat="44.886158498109836" lon="9.95527531428451"><ele>89.0</ele><time>2026-04-19T07:43:12Z</time></trkpt><trkpt lat="44.88610930489943" lon="9.955419608609171"><ele>89.0</ele><time>2026-04-19T07:43:14Z</time></trkpt><trkpt lat="44.88604426956722" lon="9.955562141171415"><ele>88.85714285714285</ele><time>2026-04-19T07:43:16Z</time></trkpt><trkpt lat="44.886016540017266" lon="9.955643249591187"><ele>88.71428571428571</ele><time>2026-04-19T07:43:17Z</time></trkpt><trkpt lat="44.88598524878002" lon="9.955721613324402"><ele>88.57142857142857</ele><time>2026-04-19T07:43:18Z</time></trkpt><trkpt lat="44.88592752415923" lon="9.955876134826775"><ele>88.42857142857142</ele><time>2026-04-19T07:43:20Z</time></trkpt><trkpt lat="44.885899177228666" lon="9.955955943143383"><ele>88.28571428571428</ele><time>2026-04-19T07:43:21Z</time></trkpt><trkpt lat="44.88587207970934" lon="9.956036999585558"><ele>88.14285714285714</ele><time>2026-04-19T07:43:22Z</time></trkpt><trkpt lat="44.885842201232116" lon="9.956118295457768"><ele>88.0</ele><time>2026-04-19T07:43:23Z</time></trkpt><trkpt lat="44.885810646797594" lon="9.956199915222033"><ele>88.0</ele><time>2026-04-19T07:43:24Z</time></trkpt><trkpt lat="44.88577999635822" lon="9.956281571337046"><ele>88.0</ele><time>2026-04-19T07:43:25Z</time></trkpt><trkpt lat="44.88575088421377" lon="9.956362399382588"><ele>88.0</ele><time>2026-04-19T07:43:26Z</time></trkpt><trkpt lat="44.88569688224348" lon="9.956520293222184"><ele>88.0</ele><time>2026-04-19T07:43:28Z</time></trkpt><trkpt lat="44.88563748418311" lon="9.9566713062369"><ele>88.0</ele><time>2026-04-19T07:43:29.999Z</time></trkpt><trkpt lat="44.88558278334683" lon="9.956824217476795"><ele>87.75</ele><time>2026-04-19T07:43:31.999Z</time></trkpt><trkpt lat="44.88553078371514" lon="9.95697421539673"><ele>87.5</ele><time>2026-04-19T07:43:33.999Z</time></trkpt><trkpt lat="44.88547393421395" lon="9.957124842835523"><ele>87.25</ele><time>2026-04-19T07:43:35.999Z</time></trkpt><trkpt lat="44.8854168283378" lon="9.95727630143978"><ele>87.0</ele><time>2026-04-19T07:43:37.999Z</time></trkpt><trkpt lat="44.88535746127814" lon="9.957426408888212"><ele>87.0</ele><time>2026-04-19T07:43:39.999Z</time></trkpt><trkpt lat="44.88529707264894" lon="9.957579569450036"><ele>87.0</ele><time>2026-04-19T07:43:41.999Z</time></trkpt><trkpt lat="44.88523617246762" lon="9.957732474126205"><ele>87.0</ele><time>2026-04-19T07:43:43.999Z</time></trkpt><trkpt lat="44.88517358559288" lon="9.957887989932928"><ele>87.0</ele><time>2026-04-19T07:43:45.999Z</time></trkpt><trkpt lat="44.88514084358671" lon="9.957967867494723"><ele>87.0</ele><time>2026-04-19T07:43:46.999Z</time></trkpt><trkpt lat="44.88510386445668" lon="9.958044030325029"><ele>87.19999999999999</ele><time>2026-04-19T07:43:47.999Z</time></trkpt><trkpt lat="44.88506558170024" lon="9.958115404202777"><ele>87.4</ele><time>2026-04-19T07:43:48.999Z</time></trkpt><trkpt lat="44.884994064387435" lon="9.958255731662806"><ele>87.6</ele><time>2026-04-19T07:43:50.999Z</time></trkpt><trkpt lat="44.884922723075675" lon="9.958394675304794"><ele>87.80000000000001</ele><time>2026-04-19T07:43:52.999Z</time></trkpt><trkpt lat="44.88485531128488" lon="9.958535353892973"><ele>88.0</ele><time>2026-04-19T07:43:54.999Z</time></trkpt><trkpt lat="44.88478029966644" lon="9.95867215958433"><ele>88.4</ele><time>2026-04-19T07:43:56.999Z</time></trkpt><trkpt lat="44.88471121604936" lon="9.958811068255862"><ele>88.80000000000001</ele><time>2026-04-19T07:43:58.999Z</time></trkpt><trkpt lat="44.88463897877741" lon="9.958951195580216"><ele>89.2</ele><time>2026-04-19T07:44:00.999Z</time></trkpt><trkpt lat="44.88460022482978" lon="9.95902174800246"><ele>89.6</ele><time>2026-04-19T07:44:01.999Z</time></trkpt><trkpt lat="44.884521881146206" lon="9.959154622658119"><ele>90.0</ele><time>2026-04-19T07:44:03.999Z</time></trkpt><trkpt lat="44.88443980205626" lon="9.959276320802955"><ele>90.5</ele><time>2026-04-19T07:44:05.999Z</time></trkpt><trkpt lat="44.88435184131706" lon="9.959384665471886"><ele>91.0</ele><time>2026-04-19T07:44:07.999Z</time></trkpt><trkpt lat="44.884260130300575" lon="9.959486226983646"><ele>91.5</ele><time>2026-04-19T07:44:09.999Z</time></trkpt><trkpt lat="44.88416735191736" lon="9.959582122489548"><ele>92.0</ele><time>2026-04-19T07:44:11.999Z</time></trkpt><trkpt lat="44.88407199362058" lon="9.959676607787397"><ele>92.25</ele><time>2026-04-19T07:44:13.999Z</time></trkpt><trkpt lat="44.88397953537857" lon="9.959766579873323"><ele>92.5</ele><time>2026-04-19T07:44:15.999Z</time></trkpt><trkpt lat="44.883884205180024" lon="9.95985857037109"><ele>92.75</ele><time>2026-04-19T07:44:17.999Z</time></trkpt><trkpt lat="44.88378721727198" lon="9.959948113104925"><ele>93.0</ele><time>2026-04-19T07:44:19.999Z</time></trkpt><trkpt lat="44.88369252023049" lon="9.96003680174967"><ele>93.0</ele><time>2026-04-19T07:44:21.999Z</time></trkpt><trkpt lat="44.88360141943589" lon="9.960124627050861"><ele>93.0</ele><time>2026-04-19T07:44:23.998Z</time></trkpt><trkpt lat="44.88351558127526" lon="9.960212929419194"><ele>93.0</ele><time>2026-04-19T07:44:25.998Z</time></trkpt><trkpt lat="44.883429588983205" lon="9.960299747640045"><ele>93.0</ele><time>2026-04-19T07:44:27.998Z</time></trkpt><trkpt lat="44.8833498986983" lon="9.960394664661193"><ele>93.0</ele><time>2026-04-19T07:44:29.998Z</time></trkpt><trkpt lat="44.88327272529127" lon="9.960493575486161"><ele>93.75</ele><time>2026-04-19T07:44:31.998Z</time></trkpt><trkpt lat="44.883193455959244" lon="9.960600177478025"><ele>94.5</ele><time>2026-04-19T07:44:33.998Z</time></trkpt><trkpt lat="44.88311391070387" lon="9.960714928000733"><ele>95.25</ele><time>2026-04-19T07:44:35.998Z</time></trkpt><trkpt lat="44.88303214861619" lon="9.96083502083031"><ele>96.0</ele><time>2026-04-19T07:44:37.998Z</time></trkpt><trkpt lat="44.88294239801189" lon="9.960945972469645"><ele>96.0</ele><time>2026-04-19T07:44:39.998Z</time></trkpt><trkpt lat="44.88283963345226" lon="9.961053889852305"><ele>96.0</ele><time>2026-04-19T07:44:41.998Z</time></trkpt><trkpt lat="44.88278851342259" lon="9.961107109487687"><ele>96.0</ele><time>2026-04-19T07:44:42.998Z</time></trkpt><trkpt lat="44.88273408507593" lon="9.961160980935997"><ele>96.0</ele><time>2026-04-19T07:44:43.998Z</time></trkpt><trkpt lat="44.88267615079332" lon="9.96121129915597"><ele>96.0</ele><time>2026-04-19T07:44:44.998Z</time></trkpt><trkpt lat="44.88261816770542" lon="9.96126417871989"><ele>96.0</ele><time>2026-04-19T07:44:45.998Z</time></trkpt><trkpt lat="44.882560578887976" lon="9.961320198687483"><ele>95.42857142857142</ele><time>2026-04-19T07:44:46.998Z</time></trkpt><trkpt lat="44.882503581171285" lon="9.96137611958332"><ele>94.85714285714286</ele><time>2026-04-19T07:44:47.998Z</time></trkpt><trkpt lat="44.882444783020176" lon="9.961431853638702"><ele>94.28571428571428</ele><time>2026-04-19T07:44:48.998Z</time></trkpt><trkpt lat="44.88238455243961" lon="9.961485952207722"><ele>93.71428571428571</ele><time>2026-04-19T07:44:49.998Z</time></trkpt><trkpt lat="44.88232234570648" lon="9.961542993570443"><ele>93.14285714285714</ele><time>2026-04-19T07:44:50.998Z</time></trkpt><trkpt lat="44.882259630431" lon="9.961602295648795"><ele>92.57142857142857</ele><time>2026-04-19T07:44:51.998Z</time></trkpt><trkpt lat="44.88219680936715" lon="9.961661026488033"><ele>92.0</ele><time>2026-04-19T07:44:52.998Z</time></trkpt><trkpt lat="44.88213231585107" lon="9.961719622332295"><ele>92.0</ele><time>2026-04-19T07:44:53.998Z</time></trkpt><trkpt lat="44.88206857251161" lon="9.96177809879875"><ele>92.0</ele><time>2026-04-19T07:44:54.998Z</time></trkpt><trkpt lat="44.88200607132717" lon="9.961836621531576"><ele>92.0</ele><time>2026-04-19T07:44:55.998Z</time></trkpt><trkpt lat="44.881941139920826" lon="9.961893992402867"><ele>92.0</ele><time>2026-04-19T07:44:56.998Z</time></trkpt><trkpt lat="44.881878481692596" lon="9.961951042530561"><ele>92.0</ele><time>2026-04-19T07:44:57.998Z</time></trkpt><trkpt lat="44.88181487928617" lon="9.96200423949008"><ele>92.0</ele><time>2026-04-19T07:44:58.998Z</time></trkpt><trkpt lat="44.8817544385289" lon="9.962059715832023"><ele>92.0</ele><time>2026-04-19T07:44:59.998Z</time></trkpt><trkpt lat="44.88169636894547" lon="9.962112273546813"><ele>92.0</ele><time>2026-04-19T07:45:00.998Z</time></trkpt><trkpt lat="44.8816390182957" lon="9.962162128834526"><ele>92.0</ele><time>2026-04-19T07:45:01.998Z</time></trkpt><trkpt lat="44.88158497035106" lon="9.962215410402347"><ele>92.0</ele><time>2026-04-19T07:45:03Z</time></trkpt><trkpt lat="44.88153358807124" lon="9.962269429154123"><ele>92.0</ele><time>2026-04-19T07:45:04Z</time></trkpt><trkpt lat="44.8814833700108" lon="9.962326780866125"><ele>92.0</ele><time>2026-04-19T07:45:05Z</time></trkpt><trkpt lat="44.88143363363038" lon="9.962383778562963"><ele>92.0</ele><time>2026-04-19T07:45:06Z</time></trkpt><trkpt lat="44.88138441997212" lon="9.962440330618158"><ele>92.0</ele><time>2026-04-19T07:45:07Z</time></trkpt><trkpt lat="44.88129303352763" lon="9.962560477069365"><ele>92.39999999999999</ele><time>2026-04-19T07:45:09Z</time></trkpt><trkpt lat="44.881248807116236" lon="9.962623965140985"><ele>92.8</ele><time>2026-04-19T07:45:10Z</time></trkpt><trkpt lat="44.88120617834545" lon="9.962690029783106"><ele>93.2</ele><time>2026-04-19T07:45:11Z</time></trkpt><trkpt lat="44.88113257350314" lon="9.962821316635761"><ele>93.6</ele><time>2026-04-19T07:45:13Z</time></trkpt><trkpt lat="44.881059916164055" lon="9.96295414212046"><ele>94.0</ele><time>2026-04-19T07:45:15Z</time></trkpt><trkpt lat="44.88099350631694" lon="9.963086521341914"><ele>94.0</ele><time>2026-04-19T07:45:17Z</time></trkpt><trkpt lat="44.88093397084611" lon="9.963214664374298"><ele>94.0</ele><time>2026-04-19T07:45:19Z</time></trkpt><trkpt lat="44.88087519018285" lon="9.963346115804816"><ele>94.0</ele><time>2026-04-19T07:45:21Z</time></trkpt><trkpt lat="44.880813511280735" lon="9.963478721855918"><ele>94.0</ele><time>2026-04-19T07:45:23Z</time></trkpt><trkpt lat="44.880754144181616" lon="9.963619526494732"><ele>94.0</ele><time>2026-04-19T07:45:25Z</time></trkpt><trkpt lat="44.880690719292936" lon="9.963768665697712"><ele>94.0</ele><time>2026-04-19T07:45:27Z</time></trkpt><trkpt lat="44.88062746526311" lon="9.963923953990616"><ele>94.0</ele><time>2026-04-19T07:45:28.999Z</time></trkpt><trkpt lat="44.88059429865689" lon="9.964000747346654"><ele>94.0</ele><time>2026-04-19T07:45:29.999Z</time></trkpt><trkpt lat="44.880559073373504" lon="9.964079279406443"><ele>94.0</ele><time>2026-04-19T07:45:30.999Z</time></trkpt><trkpt lat="44.880522396646505" lon="9.964159821675546"><ele>94.0</ele><time>2026-04-19T07:45:31.999Z</time></trkpt><trkpt lat="44.88048542992575" lon="9.964245503308334"><ele>94.0</ele><time>2026-04-19T07:45:32.999Z</time></trkpt><trkpt lat="44.88044636012559" lon="9.964332819675208"><ele>94.0</ele><time>2026-04-19T07:45:33.999Z</time></trkpt><trkpt lat="44.88040642408933" lon="9.964422073382137"><ele>94.0</ele><time>2026-04-19T07:45:34.999Z</time></trkpt><trkpt lat="44.88036512654484" lon="9.964512075719599"><ele>94.0</ele><time>2026-04-19T07:45:35.999Z</time></trkpt><trkpt lat="44.8803249553976" lon="9.964605146520581"><ele>94.0</ele><time>2026-04-19T07:45:36.999Z</time></trkpt><trkpt lat="44.88028477815084" lon="9.964700690926156"><ele>94.0</ele><time>2026-04-19T07:45:37.999Z</time></trkpt><trkpt lat="44.88024215909315" lon="9.964795235399624"><ele>94.0</ele><time>2026-04-19T07:45:38.999Z</time></trkpt><trkpt lat="44.88019938376865" lon="9.96489356955741"><ele>94.0</ele><time>2026-04-19T07:45:39.999Z</time></trkpt><trkpt lat="44.88015504710605" lon="9.964990128189164"><ele>94.0</ele><time>2026-04-19T07:45:40.999Z</time></trkpt><trkpt lat="44.880111914395044" lon="9.96508924674344"><ele>94.0</ele><time>2026-04-19T07:45:41.999Z</time></trkpt><trkpt lat="44.88006751715544" lon="9.965189751342082"><ele>94.0</ele><time>2026-04-19T07:45:42.999Z</time></trkpt><trkpt lat="44.88002335653671" lon="9.965289638764531"><ele>94.0</ele><time>2026-04-19T07:45:43.999Z</time></trkpt><trkpt lat="44.87998033098433" lon="9.965392791585929"><ele>94.0</ele><time>2026-04-19T07:45:44.999Z</time></trkpt><trkpt lat="44.87993876292421" lon="9.96549562467214"><ele>93.5</ele><time>2026-04-19T07:45:45.999Z</time></trkpt><trkpt lat="44.87989701571584" lon="9.965598034679163"><ele>93.0</ele><time>2026-04-19T07:45:46.999Z</time></trkpt><trkpt lat="44.879857635175235" lon="9.965702010584705"><ele>92.5</ele><time>2026-04-19T07:45:47.999Z</time></trkpt><trkpt lat="44.87981873615733" lon="9.965803993510233"><ele>92.0</ele><time>2026-04-19T07:45:48.999Z</time></trkpt><trkpt lat="44.87977998739746" lon="9.96590645102511"><ele>91.5</ele><time>2026-04-19T07:45:49.999Z</time></trkpt><trkpt lat="44.879741712674615" lon="9.966007570946699"><ele>91.0</ele><time>2026-04-19T07:45:50.999Z</time></trkpt><trkpt lat="44.87970429377061" lon="9.966109057026802"><ele>90.83333333333333</ele><time>2026-04-19T07:45:51.999Z</time></trkpt><trkpt lat="44.87966763772341" lon="9.966210808287688"><ele>90.66666666666666</ele><time>2026-04-19T07:45:52.999Z</time></trkpt><trkpt lat="44.87963044001989" lon="9.966310557828278"><ele>90.5</ele><time>2026-04-19T07:45:53.999Z</time></trkpt><trkpt lat="44.87959315778906" lon="9.966409828985475"><ele>90.33333333333333</ele><time>2026-04-19T07:45:54.999Z</time></trkpt><trkpt lat="44.87955673462131" lon="9.966507184746135"><ele>90.16666666666667</ele><time>2026-04-19T07:45:55.999Z</time></trkpt><trkpt lat="44.879519975347655" lon="9.966602568203202"><ele>90.0</ele><time>2026-04-19T07:45:56.999Z</time></trkpt><trkpt lat="44.879483475325166" lon="9.966700864222286"><ele>89.66666666666667</ele><time>2026-04-19T07:45:57.999Z</time></trkpt><trkpt lat="44.879447469322734" lon="9.966799671475137"><ele>89.33333333333333</ele><time>2026-04-19T07:45:58.999Z</time></trkpt><trkpt lat="44.879410243426875" lon="9.966900490565767"><ele>89.0</ele><time>2026-04-19T07:45:59.999Z</time></trkpt><trkpt lat="44.879372791343556" lon="9.966999198459444"><ele>88.66666666666666</ele><time>2026-04-19T07:46:00.999Z</time></trkpt><trkpt lat="44.87933572033113" lon="9.967100845600289"><ele>88.33333333333333</ele><time>2026-04-19T07:46:01.999Z</time></trkpt><trkpt lat="44.87929756385949" lon="9.9672009910553"><ele>88.0</ele><time>2026-04-19T07:46:02.999Z</time></trkpt><trkpt lat="44.87926117505771" lon="9.967302001997144"><ele>88.66666666666666</ele><time>2026-04-19T07:46:03.999Z</time></trkpt><trkpt lat="44.87922289633444" lon="9.967402968317531"><ele>89.33333333333333</ele><time>2026-04-19T07:46:04.999Z</time></trkpt><trkpt lat="44.87918362598674" lon="9.967503199223358"><ele>90.0</ele><time>2026-04-19T07:46:05.999Z</time></trkpt><trkpt lat="44.87914778009764" lon="9.967604896739184"><ele>90.66666666666667</ele><time>2026-04-19T07:46:06.999Z</time></trkpt><trkpt lat="44.87911025824171" lon="9.96770374778413"><ele>91.33333333333334</ele><time>2026-04-19T07:46:07.999Z</time></trkpt><trkpt lat="44.8790753297038" lon="9.967803229980772"><ele>92.0</ele><time>2026-04-19T07:46:08.999Z</time></trkpt><trkpt lat="44.87903890618885" lon="9.967902156831839"><ele>92.0</ele><time>2026-04-19T07:46:09.999Z</time></trkpt><trkpt lat="44.879005860987476" lon="9.968003117859139"><ele>92.0</ele><time>2026-04-19T07:46:10.999Z</time></trkpt><trkpt lat="44.87897008199411" lon="9.968102451454692"><ele>92.0</ele><time>2026-04-19T07:46:11.999Z</time></trkpt><trkpt lat="44.87893183811843" lon="9.96819804672403"><ele>92.0</ele><time>2026-04-19T07:46:12.999Z</time></trkpt><trkpt lat="44.878894394714685" lon="9.96829162511333"><ele>92.0</ele><time>2026-04-19T07:46:13.999Z</time></trkpt><trkpt lat="44.87885898528727" lon="9.968386459430318"><ele>92.0</ele><time>2026-04-19T07:46:14.999Z</time></trkpt><trkpt lat="44.878823596279936" lon="9.968483950027665"><ele>91.16666666666667</ele><time>2026-04-19T07:46:15.999Z</time></trkpt><trkpt lat="44.878788388970605" lon="9.968580594173494"><ele>90.33333333333334</ele><time>2026-04-19T07:46:16.999Z</time></trkpt><trkpt lat="44.87875130804317" lon="9.968675888748987"><ele>89.5</ele><time>2026-04-19T07:46:17.999Z</time></trkpt><trkpt lat="44.87871249537797" lon="9.96877223075733"><ele>88.66666666666667</ele><time>2026-04-19T07:46:18.998Z</time></trkpt><trkpt lat="44.87867455137611" lon="9.968869710148272"><ele>87.83333333333333</ele><time>2026-04-19T07:46:19.998Z</time></trkpt><trkpt lat="44.87864047732295" lon="9.968967605731496"><ele>87.0</ele><time>2026-04-19T07:46:20.998Z</time></trkpt><trkpt lat="44.87860622396262" lon="9.9690664399693"><ele>87.0</ele><time>2026-04-19T07:46:21.998Z</time></trkpt><trkpt lat="44.878571197914916" lon="9.969163470892019"><ele>87.0</ele><time>2026-04-19T07:46:22.998Z</time></trkpt><trkpt lat="44.87853597425807" lon="9.969257036492314"><ele>87.0</ele><time>2026-04-19T07:46:23.998Z</time></trkpt><trkpt lat="44.87850042498635" lon="9.969353323589619"><ele>87.0</ele><time>2026-04-19T07:46:24.998Z</time></trkpt><trkpt lat="44.87847567248101" lon="9.969461714061001"><ele>87.0</ele><time>2026-04-19T07:46:25.998Z</time></trkpt><trkpt lat="44.87842837001167" lon="9.969542558739706"><ele>87.0</ele><time>2026-04-19T07:46:26.998Z</time></trkpt><trkpt lat="44.878379024960736" lon="9.969619909903342"><ele>87.39999999999999</ele><time>2026-04-19T07:46:27.998Z</time></trkpt><trkpt lat="44.87829069803669" lon="9.969669412554541"><ele>87.8</ele><time>2026-04-19T07:46:28.998Z</time></trkpt><trkpt lat="44.87821977679002" lon="9.969692148075564"><ele>88.2</ele><time>2026-04-19T07:46:29.998Z</time></trkpt><trkpt lat="44.8781576868153" lon="9.969712052518398"><ele>88.6</ele><time>2026-04-19T07:46:30.998Z</time></trkpt><trkpt lat="44.878080123903274" lon="9.969524250671872"><ele>89.0</ele><time>2026-04-19T07:46:31.998Z</time></trkpt><trkpt lat="44.87803412952289" lon="9.969450979190912"><ele>89.0</ele><time>2026-04-19T07:46:32.998Z</time></trkpt><trkpt lat="44.87799079902635" lon="9.969381850704641"><ele>89.0</ele><time>2026-04-19T07:46:33.998Z</time></trkpt><trkpt lat="44.87792397523509" lon="9.969276210147415"><ele>89.0</ele><time>2026-04-19T07:46:35.998Z</time></trkpt><trkpt lat="44.87787303107421" lon="9.969190820380774"><ele>89.0</ele><time>2026-04-19T07:46:37.998Z</time></trkpt><trkpt lat="44.877810022298874" lon="9.96910278507257"><ele>89.0</ele><time>2026-04-19T07:46:39.998Z</time></trkpt><trkpt lat="44.877723409922744" lon="9.969064078588278"><ele>89.0</ele><time>2026-04-19T07:46:41.998Z</time></trkpt><trkpt lat="44.87763617997651" lon="9.969051616693662"><ele>89.2</ele><time>2026-04-19T07:46:43.998Z</time></trkpt><trkpt lat="44.877587462393095" lon="9.969170943281306"><ele>89.4</ele><time>2026-04-19T07:46:44.998Z</time></trkpt><trkpt lat="44.87753697599038" lon="9.96932450803817"><ele>89.6</ele><time>2026-04-19T07:46:46.998Z</time></trkpt><trkpt lat="44.87750260341819" lon="9.969490403531715"><ele>89.8</ele><time>2026-04-19T07:46:48.998Z</time></trkpt><trkpt lat="44.87747189842897" lon="9.96957009017434"><ele>90.0</ele><time>2026-04-19T07:46:49.998Z</time></trkpt><trkpt lat="44.877431019156404" lon="9.969639616961402"><ele>90.0</ele><time>2026-04-19T07:46:50.998Z</time></trkpt><trkpt lat="44.87739342510095" lon="9.969710951750429"><ele>90.0</ele><time>2026-04-19T07:46:51.998Z</time></trkpt><trkpt lat="44.87735592620234" lon="9.969783131272083"><ele>90.0</ele><time>2026-04-19T07:46:52.998Z</time></trkpt><trkpt lat="44.87731788110307" lon="9.969861853242522"><ele>90.0</ele><time>2026-04-19T07:46:53.998Z</time></trkpt><trkpt lat="44.87728145341543" lon="9.969934949402582"><ele>90.0</ele><time>2026-04-19T07:46:54.998Z</time></trkpt><trkpt lat="44.87724309012767" lon="9.970008849656068"><ele>90.0</ele><time>2026-04-19T07:46:55.998Z</time></trkpt><trkpt lat="44.87720315796923" lon="9.970083577762342"><ele>90.0</ele><time>2026-04-19T07:46:56.998Z</time></trkpt><trkpt lat="44.87716374405239" lon="9.97015838263129"><ele>90.0</ele><time>2026-04-19T07:46:57.998Z</time></trkpt><trkpt lat="44.877122667556755" lon="9.970233008253123"><ele>90.0</ele><time>2026-04-19T07:46:58.998Z</time></trkpt><trkpt lat="44.87708298468815" lon="9.9703027364036"><ele>90.0</ele><time>2026-04-19T07:46:59.998Z</time></trkpt><trkpt lat="44.87704476051077" lon="9.970374804794961"><ele>90.0</ele><time>2026-04-19T07:47:00.998Z</time></trkpt><trkpt lat="44.87700655708027" lon="9.9704465110969"><ele>90.0</ele><time>2026-04-19T07:47:01.998Z</time></trkpt><trkpt lat="44.87696636360617" lon="9.970519142825816"><ele>90.0</ele><time>2026-04-19T07:47:02.998Z</time></trkpt><trkpt lat="44.87692701749308" lon="9.970592924380318"><ele>90.0</ele><time>2026-04-19T07:47:03.998Z</time></trkpt><trkpt lat="44.87688919163706" lon="9.97066902733763"><ele>90.0</ele><time>2026-04-19T07:47:04.998Z</time></trkpt><trkpt lat="44.87685184629864" lon="9.970743702001794"><ele>90.0</ele><time>2026-04-19T07:47:05.998Z</time></trkpt><trkpt lat="44.876815427766864" lon="9.970819972333016"><ele>90.0</ele><time>2026-04-19T07:47:06.998Z</time></trkpt><trkpt lat="44.876776854908606" lon="9.970895427438222"><ele>90.0</ele><time>2026-04-19T07:47:07.998Z</time></trkpt><trkpt lat="44.87674022165855" lon="9.970971790499805"><ele>90.0</ele><time>2026-04-19T07:47:09Z</time></trkpt><trkpt lat="44.876702083510416" lon="9.971047020971497"><ele>90.0</ele><time>2026-04-19T07:47:10Z</time></trkpt><trkpt lat="44.876660963303195" lon="9.971124570416906"><ele>90.0</ele><time>2026-04-19T07:47:11Z</time></trkpt><trkpt lat="44.87662287812035" lon="9.971201764569772"><ele>90.0</ele><time>2026-04-19T07:47:12Z</time></trkpt><trkpt lat="44.87658443900689" lon="9.971278487277804"><ele>90.0</ele><time>2026-04-19T07:47:13Z</time></trkpt><trkpt lat="44.876543507526264" lon="9.971357019814176"><ele>90.0</ele><time>2026-04-19T07:47:14Z</time></trkpt><trkpt lat="44.876501215052315" lon="9.97143257115816"><ele>90.0</ele><time>2026-04-19T07:47:15Z</time></trkpt><trkpt lat="44.876463759993" lon="9.971504788944243"><ele>90.0</ele><time>2026-04-19T07:47:16Z</time></trkpt><trkpt lat="44.876425959126834" lon="9.971583822050805"><ele>90.0</ele><time>2026-04-19T07:47:17Z</time></trkpt><trkpt lat="44.87638504196792" lon="9.971663512714942"><ele>90.0</ele><time>2026-04-19T07:47:18Z</time></trkpt><trkpt lat="44.87634530587777" lon="9.971737899487207"><ele>89.83333333333333</ele><time>2026-04-19T07:47:19Z</time></trkpt><trkpt lat="44.87630264773486" lon="9.971813315253934"><ele>89.66666666666667</ele><time>2026-04-19T07:47:20Z</time></trkpt><trkpt lat="44.876262876805555" lon="9.971887958410484"><ele>89.5</ele><time>2026-04-19T07:47:21Z</time></trkpt><trkpt lat="44.87622252585529" lon="9.971965056115232"><ele>89.33333333333334</ele><time>2026-04-19T07:47:22Z</time></trkpt><trkpt lat="44.876183394412315" lon="9.972038995348264"><ele>89.16666666666667</ele><time>2026-04-19T07:47:23Z</time></trkpt><trkpt lat="44.87614371983825" lon="9.972111032666524"><ele>89.0</ele><time>2026-04-19T07:47:24Z</time></trkpt><trkpt lat="44.876068474299316" lon="9.972251645274623"><ele>89.0</ele><time>2026-04-19T07:47:26Z</time></trkpt><trkpt lat="44.87599130258731" lon="9.97239119283955"><ele>89.0</ele><time>2026-04-19T07:47:28Z</time></trkpt><trkpt lat="44.87595692535176" lon="9.97246646670346"><ele>89.0</ele><time>2026-04-19T07:47:29Z</time></trkpt><trkpt lat="44.8759232105471" lon="9.972548552492812"><ele>89.0</ele><time>2026-04-19T07:47:30Z</time></trkpt><trkpt lat="44.87589680568595" lon="9.97263379414248"><ele>89.0</ele><time>2026-04-19T07:47:31Z</time></trkpt><trkpt lat="44.87587236153683" lon="9.97271996657632"><ele>89.0</ele><time>2026-04-19T07:47:32Z</time></trkpt><trkpt lat="44.87584294772744" lon="9.972806582933293"><ele>90.14285714285714</ele><time>2026-04-19T07:47:33Z</time></trkpt><trkpt lat="44.875819401050116" lon="9.972892997708259"><ele>91.28571428571428</ele><time>2026-04-19T07:47:34Z</time></trkpt><trkpt lat="44.875796242516635" lon="9.97298045384751"><ele>92.42857142857142</ele><time>2026-04-19T07:47:35Z</time></trkpt><trkpt lat="44.87577228911064" lon="9.973068103808867"><ele>93.57142857142857</ele><time>2026-04-19T07:47:35.999Z</time></trkpt><trkpt lat="44.875748169975516" lon="9.973151775096694"><ele>94.71428571428572</ele><time>2026-04-19T07:47:36.999Z</time></trkpt><trkpt lat="44.875725538352704" lon="9.973235966739187"><ele>95.85714285714285</ele><time>2026-04-19T07:47:37.999Z</time></trkpt><trkpt lat="44.87568475849213" lon="9.973396794120086"><ele>97.0</ele><time>2026-04-19T07:47:39.999Z</time></trkpt><trkpt lat="44.875647727814034" lon="9.973540025603372"><ele>99.39999999999999</ele><time>2026-04-19T07:47:41.999Z</time></trkpt><trkpt lat="44.87561462041278" lon="9.973666908689733"><ele>101.8</ele><time>2026-04-19T07:47:43.999Z</time></trkpt><trkpt lat="44.875584130302386" lon="9.973789722225924"><ele>104.2</ele><time>2026-04-19T07:47:45.999Z</time></trkpt><trkpt lat="44.875558575229995" lon="9.973913098195734"><ele>106.6</ele><time>2026-04-19T07:47:47.999Z</time></trkpt><trkpt lat="44.875531403663224" lon="9.974030616527113"><ele>109.0</ele><time>2026-04-19T07:47:49.999Z</time></trkpt><trkpt lat="44.87550794251859" lon="9.97414689121799"><ele>109.00000000000001</ele><time>2026-04-19T07:47:51.999Z</time></trkpt><trkpt lat="44.87548924714678" lon="9.974257567430751"><ele>109.0</ele><time>2026-04-19T07:47:53.999Z</time></trkpt><trkpt lat="44.875468592913364" lon="9.974364954305086"><ele>109.0</ele><time>2026-04-19T07:47:55.999Z</time></trkpt><trkpt lat="44.87544331665639" lon="9.974458707304127"><ele>109.0</ele><time>2026-04-19T07:47:57.999Z</time></trkpt><trkpt lat="44.87543121269828" lon="9.97455742963605"><ele>109.00000000000001</ele><time>2026-04-19T07:47:59.999Z</time></trkpt><trkpt lat="44.875412618597366" lon="9.97464375462719"><ele>109.0</ele><time>2026-04-19T07:48:01.999Z</time></trkpt><trkpt lat="44.875402662645996" lon="9.974776418956216"><ele>109.0</ele><time>2026-04-19T07:48:04.999Z</time></trkpt><trkpt lat="44.87545025900117" lon="9.9748567624152"><ele>109.0</ele><time>2026-04-19T07:48:06.999Z</time></trkpt><trkpt lat="44.87553322823107" lon="9.97491823705856"><ele>109.0</ele><time>2026-04-19T07:48:08.999Z</time></trkpt><trkpt lat="44.87561437755669" lon="9.974988682300527"><ele>109.0</ele><time>2026-04-19T07:48:10.999Z</time></trkpt><trkpt lat="44.87569947573759" lon="9.975058874196277"><ele>109.0</ele><time>2026-04-19T07:48:12.999Z</time></trkpt><trkpt lat="44.87579113331241" lon="9.975119924129768"><ele>109.2</ele><time>2026-04-19T07:48:14.999Z</time></trkpt><trkpt lat="44.875884140887116" lon="9.975187854649304"><ele>109.4</ele><time>2026-04-19T07:48:16.999Z</time></trkpt><trkpt lat="44.87596985924511" lon="9.975246764891109"><ele>109.6</ele><time>2026-04-19T07:48:18.999Z</time></trkpt><trkpt lat="44.876042573989714" lon="9.975308228475432"><ele>109.8</ele><time>2026-04-19T07:48:20.999Z</time></trkpt><trkpt lat="44.87610809477541" lon="9.975381998843265"><ele>110.0</ele><time>2026-04-19T07:48:22.999Z</time></trkpt><trkpt lat="44.876101414113" lon="9.975529845486445"><ele>110.0</ele><time>2026-04-19T07:48:24.999Z</time></trkpt><trkpt lat="44.876064839702416" lon="9.975694221455475"><ele>110.0</ele><time>2026-04-19T07:48:26.999Z</time></trkpt><trkpt lat="44.876034760066176" lon="9.975860698574488"><ele>110.0</ele><time>2026-04-19T07:48:28.999Z</time></trkpt><trkpt lat="44.876003356425905" lon="9.9760312505163"><ele>110.0</ele><time>2026-04-19T07:48:30.999Z</time></trkpt><trkpt lat="44.8759717675443" lon="9.976201132425713"><ele>109.6</ele><time>2026-04-19T07:48:32.998Z</time></trkpt><trkpt lat="44.87594586802307" lon="9.976370388895846"><ele>109.2</ele><time>2026-04-19T07:48:34.998Z</time></trkpt><trkpt lat="44.87591419339945" lon="9.976541916677956"><ele>108.80000000000001</ele><time>2026-04-19T07:48:36.998Z</time></trkpt><trkpt lat="44.875899931670254" lon="9.976629156376335"><ele>108.4</ele><time>2026-04-19T07:48:37.998Z</time></trkpt><trkpt lat="44.87587338866803" lon="9.976802905925801"><ele>108.0</ele><time>2026-04-19T07:48:39.998Z</time></trkpt><trkpt lat="44.875846555450785" lon="9.976974550084172"><ele>108.0</ele><time>2026-04-19T07:48:41.998Z</time></trkpt><trkpt lat="44.87581846323328" lon="9.977149358560892"><ele>108.00000000000001</ele><time>2026-04-19T07:48:43.998Z</time></trkpt><trkpt lat="44.87578639675303" lon="9.977323304146127"><ele>108.00000000000001</ele><time>2026-04-19T07:48:45.998Z</time></trkpt><trkpt lat="44.87575802968237" lon="9.977499200599228"><ele>108.0</ele><time>2026-04-19T07:48:47.998Z</time></trkpt><trkpt lat="44.87574452990854" lon="9.977588232252964"><ele>108.0</ele><time>2026-04-19T07:48:48.998Z</time></trkpt><trkpt lat="44.87572972777209" lon="9.977677169021604"><ele>107.71428571428571</ele><time>2026-04-19T07:48:49.998Z</time></trkpt><trkpt lat="44.87571340995112" lon="9.977763962365508"><ele>107.42857142857142</ele><time>2026-04-19T07:48:50.998Z</time></trkpt><trkpt lat="44.87569771585849" lon="9.977852413877436"><ele>107.14285714285714</ele><time>2026-04-19T07:48:51.998Z</time></trkpt><trkpt lat="44.87568295077457" lon="9.977942186015454"><ele>106.85714285714286</ele><time>2026-04-19T07:48:52.998Z</time></trkpt><trkpt lat="44.875670920459186" lon="9.978032587884693"><ele>106.57142857142857</ele><time>2026-04-19T07:48:53.998Z</time></trkpt><trkpt lat="44.87565601257538" lon="9.97812333614543"><ele>106.28571428571429</ele><time>2026-04-19T07:48:54.998Z</time></trkpt><trkpt lat="44.87563812626733" lon="9.97821347555336"><ele>106.0</ele><time>2026-04-19T07:48:55.998Z</time></trkpt><trkpt lat="44.87562099453996" lon="9.978301925689243"><ele>105.71428571428572</ele><time>2026-04-19T07:48:56.998Z</time></trkpt><trkpt lat="44.87560340093253" lon="9.978391015335866"><ele>105.42857142857142</ele><time>2026-04-19T07:48:57.998Z</time></trkpt><trkpt lat="44.87558817261989" lon="9.978482484822578"><ele>105.14285714285714</ele><time>2026-04-19T07:48:58.998Z</time></trkpt><trkpt lat="44.87557500643467" lon="9.978572141399196"><ele>104.85714285714286</ele><time>2026-04-19T07:48:59.998Z</time></trkpt><trkpt lat="44.87556048337329" lon="9.978660333616187"><ele>104.57142857142858</ele><time>2026-04-19T07:49:00.998Z</time></trkpt><trkpt lat="44.875544549230675" lon="9.97874724547878"><ele>104.28571428571428</ele><time>2026-04-19T07:49:01.998Z</time></trkpt><trkpt lat="44.875528937382455" lon="9.978833730611672"><ele>104.0</ele><time>2026-04-19T07:49:02.998Z</time></trkpt><trkpt lat="44.87549958024205" lon="9.979007639862298"><ele>104.0</ele><time>2026-04-19T07:49:04.998Z</time></trkpt><trkpt lat="44.87548526201487" lon="9.97909494691164"><ele>104.0</ele><time>2026-04-19T07:49:05.998Z</time></trkpt><trkpt lat="44.87547063255381" lon="9.979184858165105"><ele>104.0</ele><time>2026-04-19T07:49:06.998Z</time></trkpt><trkpt lat="44.87545517677894" lon="9.97927350450401"><ele>104.0</ele><time>2026-04-19T07:49:07.998Z</time></trkpt><trkpt lat="44.875441310756266" lon="9.979363440544201"><ele>104.0</ele><time>2026-04-19T07:49:08.998Z</time></trkpt><trkpt lat="44.875425655023825" lon="9.979452262087078"><ele>104.0</ele><time>2026-04-19T07:49:09.998Z</time></trkpt><trkpt lat="44.87541096418166" lon="9.979541592969303"><ele>104.0</ele><time>2026-04-19T07:49:10.998Z</time></trkpt><trkpt lat="44.87539892930097" lon="9.979636133215353"><ele>103.66666666666666</ele><time>2026-04-19T07:49:11.998Z</time></trkpt><trkpt lat="44.875386927629926" lon="9.979732951048945"><ele>103.33333333333333</ele><time>2026-04-19T07:49:12.998Z</time></trkpt><trkpt lat="44.87537216267377" lon="9.979832618089773"><ele>103.0</ele><time>2026-04-19T07:49:13.998Z</time></trkpt><trkpt lat="44.87535793614434" lon="9.97993570886578"><ele>102.66666666666666</ele><time>2026-04-19T07:49:15Z</time></trkpt><trkpt lat="44.87534129600129" lon="9.980045553825155"><ele>102.33333333333333</ele><time>2026-04-19T07:49:16Z</time></trkpt><trkpt lat="44.87532983606493" lon="9.980158201846173"><ele>102.0</ele><time>2026-04-19T07:49:17Z</time></trkpt><trkpt lat="44.875317774575024" lon="9.980275666825182"><ele>100.8</ele><time>2026-04-19T07:49:18Z</time></trkpt><trkpt lat="44.87530506669927" lon="9.980398235649197"><ele>99.6</ele><time>2026-04-19T07:49:19Z</time></trkpt><trkpt lat="44.875288579919214" lon="9.980516255825343"><ele>98.39999999999999</ele><time>2026-04-19T07:49:20Z</time></trkpt><trkpt lat="44.87527636848046" lon="9.980650894628937"><ele>97.19999999999999</ele><time>2026-04-19T07:49:21Z</time></trkpt><trkpt lat="44.87526730765842" lon="9.980784388593046"><ele>96.0</ele><time>2026-04-19T07:49:22Z</time></trkpt><trkpt lat="44.87526074486631" lon="9.98092324980311"><ele>95.4</ele><time>2026-04-19T07:49:23Z</time></trkpt><trkpt lat="44.875256283306186" lon="9.981062877633196"><ele>94.8</ele><time>2026-04-19T07:49:24Z</time></trkpt><trkpt lat="44.87525121641151" lon="9.981204081230597"><ele>94.2</ele><time>2026-04-19T07:49:25Z</time></trkpt><trkpt lat="44.875245225229406" lon="9.981346092661537"><ele>93.60000000000001</ele><time>2026-04-19T07:49:26Z</time></trkpt><trkpt lat="44.87524034226183" lon="9.98148626735285"><ele>93.0</ele><time>2026-04-19T07:49:27Z</time></trkpt><trkpt lat="44.875234355057316" lon="9.981622787541555"><ele>94.0</ele><time>2026-04-19T07:49:28Z</time></trkpt><trkpt lat="44.87522680464148" lon="9.981756467781807"><ele>95.0</ele><time>2026-04-19T07:49:29Z</time></trkpt><trkpt lat="44.87522296877556" lon="9.98188991231093"><ele>96.0</ele><time>2026-04-19T07:49:30Z</time></trkpt><trkpt lat="44.87521980057555" lon="9.982011186086961"><ele>97.0</ele><time>2026-04-19T07:49:31Z</time></trkpt><trkpt lat="44.87521195694384" lon="9.98213485128151"><ele>98.0</ele><time>2026-04-19T07:49:32Z</time></trkpt><trkpt lat="44.87520682946593" lon="9.982249371240295"><ele>99.0</ele><time>2026-04-19T07:49:33Z</time></trkpt><trkpt lat="44.87520213391997" lon="9.98235851317074"><ele>99.0</ele><time>2026-04-19T07:49:34Z</time></trkpt><trkpt lat="44.87520482827144" lon="9.982464948508555"><ele>99.0</ele><time>2026-04-19T07:49:35Z</time></trkpt><trkpt lat="44.875199265551956" lon="9.982573498966163"><ele>99.0</ele><time>2026-04-19T07:49:36Z</time></trkpt><trkpt lat="44.875196782413745" lon="9.982677792377254"><ele>99.0</ele><time>2026-04-19T07:49:37Z</time></trkpt><trkpt lat="44.87519649808719" lon="9.982774189507781"><ele>99.0</ele><time>2026-04-19T07:49:38Z</time></trkpt><trkpt lat="44.87519264121798" lon="9.982873673213213"><ele>99.0</ele><time>2026-04-19T07:49:39Z</time></trkpt><trkpt lat="44.875189173795526" lon="9.982968448761508"><ele>99.0</ele><time>2026-04-19T07:49:40Z</time></trkpt><trkpt lat="44.87518391584074" lon="9.98306008122057"><ele>100.2</ele><time>2026-04-19T07:49:41Z</time></trkpt><trkpt lat="44.87517953942696" lon="9.983148874469657"><ele>101.4</ele><time>2026-04-19T07:49:41.999Z</time></trkpt><trkpt lat="44.87517365153583" lon="9.98331708198455"><ele>102.6</ele><time>2026-04-19T07:49:43.999Z</time></trkpt><trkpt lat="44.87516683037923" lon="9.983482048813551"><ele>103.8</ele><time>2026-04-19T07:49:45.999Z</time></trkpt><trkpt lat="44.87516138224125" lon="9.98364813094932"><ele>105.0</ele><time>2026-04-19T07:49:47.999Z</time></trkpt><trkpt lat="44.87515305204849" lon="9.983818512990652"><ele>105.0</ele><time>2026-04-19T07:49:49.999Z</time></trkpt><trkpt lat="44.87514377648054" lon="9.983986671086768"><ele>105.0</ele><time>2026-04-19T07:49:51.999Z</time></trkpt><trkpt lat="44.8751275018632" lon="9.98415465606411"><ele>105.0</ele><time>2026-04-19T07:49:53.999Z</time></trkpt><trkpt lat="44.87511913011593" lon="9.984245037956219"><ele>105.0</ele><time>2026-04-19T07:49:54.999Z</time></trkpt><trkpt lat="44.875108100598375" lon="9.984333690895987"><ele>105.0</ele><time>2026-04-19T07:49:55.999Z</time></trkpt><trkpt lat="44.87510058959224" lon="9.984425359182204"><ele>105.0</ele><time>2026-04-19T07:49:56.999Z</time></trkpt><trkpt lat="44.875091890629214" lon="9.984518407401826"><ele>105.14285714285714</ele><time>2026-04-19T07:49:57.999Z</time></trkpt><trkpt lat="44.87508316146872" lon="9.984613114891927"><ele>105.28571428571428</ele><time>2026-04-19T07:49:58.999Z</time></trkpt><trkpt lat="44.87507539211303" lon="9.984707158143923"><ele>105.42857142857143</ele><time>2026-04-19T07:49:59.999Z</time></trkpt><trkpt lat="44.87506531994287" lon="9.984801827600847"><ele>105.57142857142857</ele><time>2026-04-19T07:50:00.999Z</time></trkpt><trkpt lat="44.87505734062639" lon="9.984899413927725"><ele>105.71428571428571</ele><time>2026-04-19T07:50:01.999Z</time></trkpt><trkpt lat="44.875049294783565" lon="9.98499674164772"><ele>105.85714285714286</ele><time>2026-04-19T07:50:02.999Z</time></trkpt><trkpt lat="44.87504225944255" lon="9.985094438139228"><ele>106.0</ele><time>2026-04-19T07:50:03.999Z</time></trkpt><trkpt lat="44.87503453382727" lon="9.985190816760088"><ele>106.0</ele><time>2026-04-19T07:50:04.999Z</time></trkpt><trkpt lat="44.875024519398764" lon="9.985288117311699"><ele>106.0</ele><time>2026-04-19T07:50:05.999Z</time></trkpt><trkpt lat="44.875013930610415" lon="9.985388477889108"><ele>106.0</ele><time>2026-04-19T07:50:06.999Z</time></trkpt><trkpt lat="44.87500459159532" lon="9.985487335543537"><ele>106.0</ele><time>2026-04-19T07:50:07.999Z</time></trkpt><trkpt lat="44.87499676996892" lon="9.985588683920309"><ele>106.0</ele><time>2026-04-19T07:50:08.999Z</time></trkpt><trkpt lat="44.874988185193516" lon="9.98568966069572"><ele>106.0</ele><time>2026-04-19T07:50:09.999Z</time></trkpt><trkpt lat="44.874980418181636" lon="9.985790832445067"><ele>106.0</ele><time>2026-04-19T07:50:10.999Z</time></trkpt><trkpt lat="44.87496908303022" lon="9.985890889056085"><ele>105.71428571428572</ele><time>2026-04-19T07:50:11.999Z</time></trkpt><trkpt lat="44.87496026572558" lon="9.985991707253289"><ele>105.42857142857142</ele><time>2026-04-19T07:50:12.999Z</time></trkpt><trkpt lat="44.87495136305115" lon="9.986092200137435"><ele>105.14285714285714</ele><time>2026-04-19T07:50:13.999Z</time></trkpt><trkpt lat="44.87494230493954" lon="9.986194470056263"><ele>104.85714285714286</ele><time>2026-04-19T07:50:14.999Z</time></trkpt><trkpt lat="44.874933774046866" lon="9.986297416484813"><ele>104.57142857142858</ele><time>2026-04-19T07:50:15.999Z</time></trkpt><trkpt lat="44.874924936917495" lon="9.986398683972384"><ele>104.28571428571428</ele><time>2026-04-19T07:50:16.999Z</time></trkpt><trkpt lat="44.87491541757468" lon="9.9865025847025"><ele>104.0</ele><time>2026-04-19T07:50:17.999Z</time></trkpt><trkpt lat="44.87490699494514" lon="9.98660582256586"><ele>103.66666666666666</ele><time>2026-04-19T07:50:18.999Z</time></trkpt><trkpt lat="44.87489690685198" lon="9.986711337716367"><ele>103.33333333333333</ele><time>2026-04-19T07:50:19.999Z</time></trkpt><trkpt lat="44.874887999969836" lon="9.98681622719976"><ele>103.0</ele><time>2026-04-19T07:50:20.999Z</time></trkpt><trkpt lat="44.87487861174053" lon="9.986921692906083"><ele>102.66666666666666</ele><time>2026-04-19T07:50:21.999Z</time></trkpt><trkpt lat="44.87487087752086" lon="9.987026730275362"><ele>102.33333333333333</ele><time>2026-04-19T07:50:22.999Z</time></trkpt><trkpt lat="44.874861049058886" lon="9.987131494673088"><ele>102.0</ele><time>2026-04-19T07:50:23.999Z</time></trkpt><trkpt lat="44.87484991835159" lon="9.987244429446397"><ele>102.0</ele><time>2026-04-19T07:50:24.999Z</time></trkpt><trkpt lat="44.874840395700495" lon="9.987349791841789"><ele>102.0</ele><time>2026-04-19T07:50:25.999Z</time></trkpt><trkpt lat="44.87482863494519" lon="9.98746627819469"><ele>102.0</ele><time>2026-04-19T07:50:26.999Z</time></trkpt><trkpt lat="44.87481585512023" lon="9.987577143245574"><ele>102.0</ele><time>2026-04-19T07:50:27.999Z</time></trkpt><trkpt lat="44.874807945428074" lon="9.987691881263425"><ele>102.0</ele><time>2026-04-19T07:50:28.999Z</time></trkpt><trkpt lat="44.87479705398871" lon="9.987803510962388"><ele>102.0</ele><time>2026-04-19T07:50:29.999Z</time></trkpt><trkpt lat="44.87478581117731" lon="9.98791564030729"><ele>102.0</ele><time>2026-04-19T07:50:30.999Z</time></trkpt><trkpt lat="44.87477517997169" lon="9.98803052216867"><ele>102.0</ele><time>2026-04-19T07:50:31.999Z</time></trkpt><trkpt lat="44.87476734786713" lon="9.98814207129794"><ele>102.0</ele><time>2026-04-19T07:50:32.999Z</time></trkpt><trkpt lat="44.87475784287338" lon="9.98825214757023"><ele>102.0</ele><time>2026-04-19T07:50:33.999Z</time></trkpt><trkpt lat="44.874747318169995" lon="9.98836205493717"><ele>102.0</ele><time>2026-04-19T07:50:34.998Z</time></trkpt><trkpt lat="44.87473722745606" lon="9.988475479618081"><ele>102.0</ele><time>2026-04-19T07:50:35.998Z</time></trkpt><trkpt lat="44.87472698304141" lon="9.988581432156185"><ele>102.0</ele><time>2026-04-19T07:50:36.998Z</time></trkpt><trkpt lat="44.874715673490535" lon="9.988684812931483"><ele>102.0</ele><time>2026-04-19T07:50:37.998Z</time></trkpt><trkpt lat="44.874705422442986" lon="9.98878883797118"><ele>102.0</ele><time>2026-04-19T07:50:38.998Z</time></trkpt><trkpt lat="44.87469663590761" lon="9.988889831259183"><ele>102.0</ele><time>2026-04-19T07:50:39.998Z</time></trkpt><trkpt lat="44.874685458680894" lon="9.98898994589578"><ele>102.0</ele><time>2026-04-19T07:50:40.998Z</time></trkpt><trkpt lat="44.874676984451476" lon="9.989088501126203"><ele>102.0</ele><time>2026-04-19T07:50:41.998Z</time></trkpt><trkpt lat="44.87466958929422" lon="9.989185064087009"><ele>102.0</ele><time>2026-04-19T07:50:42.998Z</time></trkpt><trkpt lat="44.87466086743262" lon="9.989282312207507"><ele>102.16666666666667</ele><time>2026-04-19T07:50:43.998Z</time></trkpt><trkpt lat="44.87465096483826" lon="9.989379248081589"><ele>102.33333333333334</ele><time>2026-04-19T07:50:44.998Z</time></trkpt><trkpt lat="44.874641651273485" lon="9.98947564738411"><ele>102.5</ele><time>2026-04-19T07:50:45.998Z</time></trkpt><trkpt lat="44.87463419353109" lon="9.98957235367451"><ele>102.66666666666667</ele><time>2026-04-19T07:50:46.998Z</time></trkpt><trkpt lat="44.87462689702311" lon="9.989666908444576"><ele>102.83333333333334</ele><time>2026-04-19T07:50:47.998Z</time></trkpt><trkpt lat="44.87461883871443" lon="9.98975774043234"><ele>103.0</ele><time>2026-04-19T07:50:48.998Z</time></trkpt><trkpt lat="44.8746013920399" lon="9.989921473779507"><ele>103.0</ele><time>2026-04-19T07:50:50.998Z</time></trkpt><trkpt lat="44.87457645386149" lon="9.99004147353386"><ele>103.0</ele><time>2026-04-19T07:50:52.998Z</time></trkpt><trkpt lat="44.874452505140866" lon="9.990030213820113"><ele>103.0</ele><time>2026-04-19T07:50:56.998Z</time></trkpt><trkpt lat="44.87437445044653" lon="9.989946460909218"><ele>103.0</ele><time>2026-04-19T07:50:58.998Z</time></trkpt><trkpt lat="44.87428281967979" lon="9.98986591164862"><ele>103.0</ele><time>2026-04-19T07:51:00.998Z</time></trkpt><trkpt lat="44.87418829140796" lon="9.989778108444536"><ele>103.5</ele><time>2026-04-19T07:51:02.998Z</time></trkpt><trkpt lat="44.874095969784484" lon="9.98969130379539"><ele>104.0</ele><time>2026-04-19T07:51:04.998Z</time></trkpt><trkpt lat="44.87400517916637" lon="9.989605576829955"><ele>104.5</ele><time>2026-04-19T07:51:06.998Z</time></trkpt><trkpt lat="44.87390934652027" lon="9.98951556664406"><ele>105.0</ele><time>2026-04-19T07:51:08.998Z</time></trkpt><trkpt lat="44.87381250073334" lon="9.989422551081866"><ele>105.0</ele><time>2026-04-19T07:51:10.998Z</time></trkpt><trkpt lat="44.87371188561346" lon="9.989328361175158"><ele>105.0</ele><time>2026-04-19T07:51:12.998Z</time></trkpt><trkpt lat="44.87360899449281" lon="9.989234075562313"><ele>105.0</ele><time>2026-04-19T07:51:14.998Z</time></trkpt><trkpt lat="44.87350948385369" lon="9.989143055950771"><ele>105.0</ele><time>2026-04-19T07:51:16.998Z</time></trkpt><trkpt lat="44.87340921223063" lon="9.989053011786643"><ele>105.5</ele><time>2026-04-19T07:51:18.998Z</time></trkpt><trkpt lat="44.87331070641017" lon="9.988958651135865"><ele>106.0</ele><time>2026-04-19T07:51:21Z</time></trkpt><trkpt lat="44.873212359337565" lon="9.988862555710849"><ele>106.5</ele><time>2026-04-19T07:51:23Z</time></trkpt><trkpt lat="44.8731145085811" lon="9.98877277828832"><ele>107.0</ele><time>2026-04-19T07:51:25Z</time></trkpt><trkpt lat="44.87301384470219" lon="9.988682019128415"><ele>107.0</ele><time>2026-04-19T07:51:27Z</time></trkpt><trkpt lat="44.87290705935011" lon="9.988604540384905"><ele>107.0</ele><time>2026-04-19T07:51:29Z</time></trkpt><trkpt lat="44.872791978753696" lon="9.988559989992389"><ele>107.0</ele><time>2026-04-19T07:51:31Z</time></trkpt><trkpt lat="44.872673176539266" lon="9.988529206792267"><ele>107.0</ele><time>2026-04-19T07:51:33Z</time></trkpt><trkpt lat="44.87255666447795" lon="9.988500018022368"><ele>107.75</ele><time>2026-04-19T07:51:35Z</time></trkpt><trkpt lat="44.872442074801846" lon="9.988473739805762"><ele>108.5</ele><time>2026-04-19T07:51:37Z</time></trkpt><trkpt lat="44.87232470503203" lon="9.988445894684808"><ele>109.25</ele><time>2026-04-19T07:51:39Z</time></trkpt><trkpt lat="44.872209145957406" lon="9.988420169980262"><ele>110.0</ele><time>2026-04-19T07:51:41Z</time></trkpt><trkpt lat="44.8720936743434" lon="9.988391953545863"><ele>110.0</ele><time>2026-04-19T07:51:43Z</time></trkpt><trkpt lat="44.871980054019915" lon="9.988366521541051"><ele>110.0</ele><time>2026-04-19T07:51:45Z</time></trkpt><trkpt lat="44.87186480724331" lon="9.98833937386165"><ele>110.0</ele><time>2026-04-19T07:51:47Z</time></trkpt><trkpt lat="44.87175229043" lon="9.988315248410247"><ele>110.0</ele><time>2026-04-19T07:51:48.999Z</time></trkpt><trkpt lat="44.87163926065837" lon="9.988289250359385"><ele>110.25</ele><time>2026-04-19T07:51:50.999Z</time></trkpt><trkpt lat="44.87152739838464" lon="9.988266220732616"><ele>110.5</ele><time>2026-04-19T07:51:52.999Z</time></trkpt><trkpt lat="44.87141624611455" lon="9.988236595832323"><ele>110.75</ele><time>2026-04-19T07:51:54.999Z</time></trkpt><trkpt lat="44.8713049930618" lon="9.988211482071954"><ele>111.0</ele><time>2026-04-19T07:51:56.999Z</time></trkpt><trkpt lat="44.87119356383733" lon="9.988181851616877"><ele>111.0</ele><time>2026-04-19T07:51:58.999Z</time></trkpt><trkpt lat="44.87108111259365" lon="9.988156080420477"><ele>111.0</ele><time>2026-04-19T07:52:00.999Z</time></trkpt><trkpt lat="44.87096974825626" lon="9.988128667201687"><ele>111.0</ele><time>2026-04-19T07:52:02.999Z</time></trkpt><trkpt lat="44.8708543288875" lon="9.988098647246265"><ele>111.0</ele><time>2026-04-19T07:52:04.999Z</time></trkpt><trkpt lat="44.87073514919977" lon="9.98807463883904"><ele>111.25</ele><time>2026-04-19T07:52:06.999Z</time></trkpt><trkpt lat="44.87061653670639" lon="9.988051123559684"><ele>111.5</ele><time>2026-04-19T07:52:08.999Z</time></trkpt><trkpt lat="44.87050055206404" lon="9.988021021511196"><ele>111.75</ele><time>2026-04-19T07:52:10.999Z</time></trkpt><trkpt lat="44.87038416999618" lon="9.98799201332363"><ele>112.0</ele><time>2026-04-19T07:52:12.999Z</time></trkpt><trkpt lat="44.87026578653216" lon="9.98796614780505"><ele>112.0</ele><time>2026-04-19T07:52:14.999Z</time></trkpt><trkpt lat="44.8701469188018" lon="9.987938476590537"><ele>112.0</ele><time>2026-04-19T07:52:16.999Z</time></trkpt><trkpt lat="44.87002676178779" lon="9.98791175066535"><ele>112.0</ele><time>2026-04-19T07:52:18.999Z</time></trkpt><trkpt lat="44.86990569703558" lon="9.987885895482119"><ele>112.0</ele><time>2026-04-19T07:52:20.999Z</time></trkpt><trkpt lat="44.86979029439158" lon="9.98786124478838"><ele>112.75</ele><time>2026-04-19T07:52:22.999Z</time></trkpt><trkpt lat="44.869673407476505" lon="9.987834142516792"><ele>113.5</ele><time>2026-04-19T07:52:24.999Z</time></trkpt><trkpt lat="44.86955725229714" lon="9.98780920676743"><ele>114.25</ele><time>2026-04-19T07:52:26.999Z</time></trkpt><trkpt lat="44.869442038851375" lon="9.98778076949043"><ele>115.0</ele><time>2026-04-19T07:52:28.999Z</time></trkpt><trkpt lat="44.86932635543285" lon="9.98775353546844"><ele>115.25</ele><time>2026-04-19T07:52:30.999Z</time></trkpt><trkpt lat="44.869213207431535" lon="9.987729044282739"><ele>115.5</ele><time>2026-04-19T07:52:32.999Z</time></trkpt><trkpt lat="44.86909648998009" lon="9.987701939482758"><ele>115.75</ele><time>2026-04-19T07:52:34.999Z</time></trkpt><trkpt lat="44.86897820435306" lon="9.987673852091586"><ele>116.0</ele><time>2026-04-19T07:52:36.999Z</time></trkpt><trkpt lat="44.86885999888704" lon="9.987644112965475"><ele>116.0</ele><time>2026-04-19T07:52:38.999Z</time></trkpt><trkpt lat="44.868742430222994" lon="9.987614949327035"><ele>116.0</ele><time>2026-04-19T07:52:40.999Z</time></trkpt><trkpt lat="44.86862235125706" lon="9.987589872546279"><ele>116.0</ele><time>2026-04-19T07:52:42.998Z</time></trkpt><trkpt lat="44.86850271101962" lon="9.98755738299967"><ele>116.0</ele><time>2026-04-19T07:52:44.998Z</time></trkpt><trkpt lat="44.86838367955912" lon="9.987530762964003"><ele>116.75</ele><time>2026-04-19T07:52:46.998Z</time></trkpt><trkpt lat="44.86826461231368" lon="9.98750301058301"><ele>117.5</ele><time>2026-04-19T07:52:48.998Z</time></trkpt><trkpt lat="44.86814642934442" lon="9.987472506427546"><ele>118.25</ele><time>2026-04-19T07:52:50.998Z</time></trkpt><trkpt lat="44.868029070659915" lon="9.987446844826422"><ele>119.0</ele><time>2026-04-19T07:52:52.998Z</time></trkpt><trkpt lat="44.867910778588026" lon="9.9874201869377"><ele>119.0</ele><time>2026-04-19T07:52:54.998Z</time></trkpt><trkpt lat="44.867790380566674" lon="9.987392301656774"><ele>119.0</ele><time>2026-04-19T07:52:56.998Z</time></trkpt><trkpt lat="44.86767043542372" lon="9.987364475937154"><ele>119.0</ele><time>2026-04-19T07:52:58.998Z</time></trkpt><trkpt lat="44.86755163826036" lon="9.987337276868415"><ele>119.0</ele><time>2026-04-19T07:53:00.998Z</time></trkpt><trkpt lat="44.86748957346143" lon="9.987321748083806"><ele>119.0</ele><time>2026-04-19T07:53:01.998Z</time></trkpt><trkpt lat="44.867372680303994" lon="9.987296245242282"><ele>119.75</ele><time>2026-04-19T07:53:03.998Z</time></trkpt><trkpt lat="44.86725443315921" lon="9.987265883149744"><ele>120.5</ele><time>2026-04-19T07:53:05.998Z</time></trkpt><trkpt lat="44.86713402131077" lon="9.987233734387427"><ele>121.25</ele><time>2026-04-19T07:53:07.998Z</time></trkpt><trkpt lat="44.86701497695414" lon="9.987207045681641"><ele>122.0</ele><time>2026-04-19T07:53:09.998Z</time></trkpt><trkpt lat="44.866893171545044" lon="9.987177168523248"><ele>122.0</ele><time>2026-04-19T07:53:11.998Z</time></trkpt><trkpt lat="44.866773316715054" lon="9.987149328205088"><ele>121.99999999999999</ele><time>2026-04-19T07:53:13.998Z</time></trkpt><trkpt lat="44.86665102441855" lon="9.987123846436184"><ele>121.99999999999999</ele><time>2026-04-19T07:53:15.998Z</time></trkpt><trkpt lat="44.866589193142154" lon="9.987106509491689"><ele>122.0</ele><time>2026-04-19T07:53:16.998Z</time></trkpt><trkpt lat="44.86646691173236" lon="9.987078121543913"><ele>122.0</ele><time>2026-04-19T07:53:18.998Z</time></trkpt><trkpt lat="44.86634700889827" lon="9.987051591170276"><ele>122.0</ele><time>2026-04-19T07:53:20.998Z</time></trkpt><trkpt lat="44.866283984429785" lon="9.98703927663352"><ele>121.99999999999999</ele><time>2026-04-19T07:53:21.998Z</time></trkpt><trkpt lat="44.866162523905125" lon="9.98701390577754"><ele>121.99999999999999</ele><time>2026-04-19T07:53:23.998Z</time></trkpt><trkpt lat="44.86610020608639" lon="9.986993450768413"><ele>122.0</ele><time>2026-04-19T07:53:24.998Z</time></trkpt><trkpt lat="44.86598159121222" lon="9.98695847815908"><ele>122.0</ele><time>2026-04-19T07:53:27Z</time></trkpt><trkpt lat="44.86586263434041" lon="9.986903034521085"><ele>123.0</ele><time>2026-04-19T07:53:29Z</time></trkpt><trkpt lat="44.86574857255019" lon="9.986842456420034"><ele>124.0</ele><time>2026-04-19T07:53:31Z</time></trkpt><trkpt lat="44.86563500440928" lon="9.98677199941165"><ele>125.0</ele><time>2026-04-19T07:53:33Z</time></trkpt><trkpt lat="44.86552437001084" lon="9.98670555573383"><ele>126.0</ele><time>2026-04-19T07:53:35Z</time></trkpt><trkpt lat="44.865412982402674" lon="9.98663467631235"><ele>126.0</ele><time>2026-04-19T07:53:37Z</time></trkpt><trkpt lat="44.86530100032092" lon="9.986570299017538"><ele>126.0</ele><time>2026-04-19T07:53:39Z</time></trkpt><trkpt lat="44.86524330980108" lon="9.986532304966918"><ele>126.0</ele><time>2026-04-19T07:53:40Z</time></trkpt><trkpt lat="44.86513080140316" lon="9.98646498988163"><ele>126.0</ele><time>2026-04-19T07:53:42Z</time></trkpt><trkpt lat="44.86502068139758" lon="9.986398315306392"><ele>126.0</ele><time>2026-04-19T07:53:44Z</time></trkpt><trkpt lat="44.86490778087475" lon="9.986327911596621"><ele>125.75</ele><time>2026-04-19T07:53:46Z</time></trkpt><trkpt lat="44.86479586917992" lon="9.986260116792092"><ele>125.5</ele><time>2026-04-19T07:53:48Z</time></trkpt><trkpt lat="44.86468429567289" lon="9.98619069171686"><ele>125.25</ele><time>2026-04-19T07:53:50Z</time></trkpt><trkpt lat="44.86457338625662" lon="9.986121471986454"><ele>125.0</ele><time>2026-04-19T07:53:51.999Z</time></trkpt><trkpt lat="44.86446088937299" lon="9.986052056459291"><ele>125.0</ele><time>2026-04-19T07:53:53.999Z</time></trkpt><trkpt lat="44.864348709352164" lon="9.985984751892737"><ele>125.0</ele><time>2026-04-19T07:53:55.999Z</time></trkpt><trkpt lat="44.86423464193" lon="9.985914583992962"><ele>125.0</ele><time>2026-04-19T07:53:57.999Z</time></trkpt><trkpt lat="44.86412342688239" lon="9.985846876581483"><ele>125.0</ele><time>2026-04-19T07:53:59.999Z</time></trkpt><trkpt lat="44.8640092107506" lon="9.985779881544593"><ele>125.2</ele><time>2026-04-19T07:54:01.999Z</time></trkpt><trkpt lat="44.86389524743771" lon="9.985715097357566"><ele>125.4</ele><time>2026-04-19T07:54:03.999Z</time></trkpt><trkpt lat="44.86383736125614" lon="9.985677687328058"><ele>125.6</ele><time>2026-04-19T07:54:04.999Z</time></trkpt><trkpt lat="44.86377952081278" lon="9.985641893033447"><ele>125.8</ele><time>2026-04-19T07:54:05.999Z</time></trkpt><trkpt lat="44.86366600449926" lon="9.985571180288817"><ele>126.0</ele><time>2026-04-19T07:54:07.999Z</time></trkpt><trkpt lat="44.86355326541426" lon="9.985500835785029"><ele>127.25</ele><time>2026-04-19T07:54:09.999Z</time></trkpt><trkpt lat="44.86344127788152" lon="9.985432287083963"><ele>128.5</ele><time>2026-04-19T07:54:11.999Z</time></trkpt><trkpt lat="44.86332992880114" lon="9.985363619103335"><ele>129.75</ele><time>2026-04-19T07:54:13.999Z</time></trkpt><trkpt lat="44.863220448053475" lon="9.985291337047022"><ele>131.0</ele><time>2026-04-19T07:54:15.999Z</time></trkpt><trkpt lat="44.86310954963073" lon="9.985222758699141"><ele>131.0</ele><time>2026-04-19T07:54:17.999Z</time></trkpt><trkpt lat="44.86299865347887" lon="9.985156069591193"><ele>131.0</ele><time>2026-04-19T07:54:19.999Z</time></trkpt><trkpt lat="44.86289169115387" lon="9.985089553664348"><ele>131.0</ele><time>2026-04-19T07:54:21.999Z</time></trkpt><trkpt lat="44.86278465960035" lon="9.985026000415854"><ele>131.0</ele><time>2026-04-19T07:54:23.999Z</time></trkpt><trkpt lat="44.862679676121616" lon="9.98496110706845"><ele>131.0</ele><time>2026-04-19T07:54:25.999Z</time></trkpt><trkpt lat="44.86257237451488" lon="9.984895589614721"><ele>131.0</ele><time>2026-04-19T07:54:27.999Z</time></trkpt><trkpt lat="44.862464635601725" lon="9.984829713808216"><ele>131.0</ele><time>2026-04-19T07:54:29.999Z</time></trkpt><trkpt lat="44.862356341955405" lon="9.984765968302646"><ele>131.0</ele><time>2026-04-19T07:54:31.999Z</time></trkpt><trkpt lat="44.86225133945241" lon="9.984699357070413"><ele>131.0</ele><time>2026-04-19T07:54:33.999Z</time></trkpt><trkpt lat="44.86214767774638" lon="9.984639113358341"><ele>131.0</ele><time>2026-04-19T07:54:35.999Z</time></trkpt><trkpt lat="44.86204302560337" lon="9.984573386599532"><ele>131.0</ele><time>2026-04-19T07:54:37.999Z</time></trkpt><trkpt lat="44.86193604574227" lon="9.984510558901562"><ele>131.0</ele><time>2026-04-19T07:54:39.999Z</time></trkpt><trkpt lat="44.86182929583928" lon="9.984447407837024"><ele>131.5</ele><time>2026-04-19T07:54:41.999Z</time></trkpt><trkpt lat="44.86172292409017" lon="9.98437906074278"><ele>132.0</ele><time>2026-04-19T07:54:43.999Z</time></trkpt><trkpt lat="44.86161555508887" lon="9.98431722185759"><ele>132.5</ele><time>2026-04-19T07:54:45.998Z</time></trkpt><trkpt lat="44.861509244096496" lon="9.984248768545527"><ele>133.0</ele><time>2026-04-19T07:54:47.998Z</time></trkpt><trkpt lat="44.86140277308658" lon="9.984187427488498"><ele>133.25</ele><time>2026-04-19T07:54:49.998Z</time></trkpt><trkpt lat="44.861296977494945" lon="9.984121150462462"><ele>133.5</ele><time>2026-04-19T07:54:51.998Z</time></trkpt><trkpt lat="44.86119195325744" lon="9.984052212953117"><ele>133.75</ele><time>2026-04-19T07:54:53.998Z</time></trkpt><trkpt lat="44.861084798471815" lon="9.98398453676225"><ele>134.0</ele><time>2026-04-19T07:54:55.998Z</time></trkpt><trkpt lat="44.860977302370266" lon="9.98392087498883"><ele>134.66666666666666</ele><time>2026-04-19T07:54:57.998Z</time></trkpt><trkpt lat="44.860872272085636" lon="9.983855708419423"><ele>135.33333333333334</ele><time>2026-04-19T07:54:59.998Z</time></trkpt><trkpt lat="44.86076511322339" lon="9.983789239309349"><ele>136.0</ele><time>2026-04-19T07:55:01.998Z</time></trkpt><trkpt lat="44.862356341955405" lon="9.984765968302646"><ele>134.75</ele><time>2026-04-19T07:54:31.999Z</time></trkpt><trkpt lat="44.86225133945241" lon="9.984699357070413"><ele>133.5</ele><time>2026-04-19T07:54:33.999Z</time></trkpt><trkpt lat="44.86214767774638" lon="9.984639113358341"><ele>132.25</ele><time>2026-04-19T07:54:35.999Z</time></trkpt><trkpt lat="44.86204302560337" lon="9.984573386599532"><ele>131.0</ele><time>2026-04-19T07:54:37.999Z</time></trkpt><trkpt lat="44.86193604574227" lon="9.984510558901562"><ele>131.0</ele><time>2026-04-19T07:54:39.999Z</time></trkpt><trkpt lat="44.86182929583928" lon="9.984447407837024"><ele>131.0</ele><time>2026-04-19T07:54:41.999Z</time></trkpt><trkpt lat="44.86172292409017" lon="9.98437906074278"><ele>131.0</ele><time>2026-04-19T07:54:43.999Z</time></trkpt><trkpt lat="44.86161555508887" lon="9.98431722185759"><ele>131.0</ele><time>2026-04-19T07:54:45.998Z</time></trkpt><trkpt lat="44.861509244096496" lon="9.984248768545527"><ele>131.5</ele><time>2026-04-19T07:54:47.998Z</time></trkpt><trkpt lat="44.86140277308658" lon="9.984187427488498"><ele>132.0</ele><time>2026-04-19T07:54:49.998Z</time></trkpt><trkpt lat="44.861296977494945" lon="9.984121150462462"><ele>132.5</ele><time>2026-04-19T07:54:51.998Z</time></trkpt><trkpt lat="44.86119195325744" lon="9.984052212953117"><ele>133.0</ele><time>2026-04-19T07:54:53.998Z</time></trkpt><trkpt lat="44.861084798471815" lon="9.98398453676225"><ele>133.25</ele><time>2026-04-19T07:54:55.998Z</time></trkpt><trkpt lat="44.860977302370266" lon="9.98392087498883"><ele>133.5</ele><time>2026-04-19T07:54:57.998Z</time></trkpt><trkpt lat="44.860872272085636" lon="9.983855708419423"><ele>133.75</ele><time>2026-04-19T07:54:59.998Z</time></trkpt><trkpt lat="44.86076511322339" lon="9.983789239309349"><ele>134.0</ele><time>2026-04-19T07:55:01.998Z</time></trkpt><trkpt lat="44.86065829697537" lon="9.98372281674508"><ele>134.5</ele><time>2026-04-19T07:55:03.998Z</time></trkpt><trkpt lat="44.86054998574656" lon="9.983659013941121"><ele>135.0</ele><time>2026-04-19T07:55:05.998Z</time></trkpt><trkpt lat="44.86043988272978" lon="9.983587667029933"><ele>135.5</ele><time>2026-04-19T07:55:07.998Z</time></trkpt><trkpt lat="44.86032944552097" lon="9.983521057402353"><ele>136.0</ele><time>2026-04-19T07:55:09.998Z</time></trkpt><trkpt lat="44.8602182122543" lon="9.983449780081603"><ele>136.75</ele><time>2026-04-19T07:55:11.998Z</time></trkpt><trkpt lat="44.86010763104059" lon="9.983383991267113"><ele>137.5</ele><time>2026-04-19T07:55:13.998Z</time></trkpt><trkpt lat="44.859996923823175" lon="9.983313259268279"><ele>138.25</ele><time>2026-04-19T07:55:15.998Z</time></trkpt><trkpt lat="44.85989092745018" lon="9.983231330819821"><ele>139.0</ele><time>2026-04-19T07:55:17.998Z</time></trkpt><trkpt lat="44.85979098626032" lon="9.98313911017061"><ele>139.0</ele><time>2026-04-19T07:55:19.998Z</time></trkpt><trkpt lat="44.85968986949753" lon="9.983031159087416"><ele>139.0</ele><time>2026-04-19T07:55:21.998Z</time></trkpt><trkpt lat="44.85958713562272" lon="9.982926861242417"><ele>139.0</ele><time>2026-04-19T07:55:23.998Z</time></trkpt><trkpt lat="44.859489363728784" lon="9.982824832320246"><ele>139.0</ele><time>2026-04-19T07:55:25.998Z</time></trkpt><trkpt lat="44.859437102126115" lon="9.982771890872762"><ele>139.0</ele><time>2026-04-19T07:55:26.998Z</time></trkpt><trkpt lat="44.85938591356583" lon="9.982718551577275"><ele>139.0</ele><time>2026-04-19T07:55:27.998Z</time></trkpt><trkpt lat="44.85933298135476" lon="9.982669285776968"><ele>139.0</ele><time>2026-04-19T07:55:28.998Z</time></trkpt><trkpt lat="44.859232528071246" lon="9.982563215250888"><ele>139.0</ele><time>2026-04-19T07:55:30.998Z</time></trkpt><trkpt lat="44.8591327755909" lon="9.982464760920609"><ele>139.0</ele><time>2026-04-19T07:55:33Z</time></trkpt><trkpt lat="44.85903171580401" lon="9.98236266052791"><ele>139.0</ele><time>2026-04-19T07:55:35Z</time></trkpt><trkpt lat="44.858929729026556" lon="9.982261720124322"><ele>139.5</ele><time>2026-04-19T07:55:37Z</time></trkpt><trkpt lat="44.8588278926106" lon="9.982156761359223"><ele>140.0</ele><time>2026-04-19T07:55:39Z</time></trkpt><trkpt lat="44.858774585195704" lon="9.982104213716624"><ele>140.5</ele><time>2026-04-19T07:55:40Z</time></trkpt><trkpt lat="44.85872298827347" lon="9.982052532970481"><ele>141.0</ele><time>2026-04-19T07:55:41Z</time></trkpt><trkpt lat="44.858669778773944" lon="9.981999025145202"><ele>141.5</ele><time>2026-04-19T07:55:42Z</time></trkpt><trkpt lat="44.85861735555876" lon="9.981946336469791"><ele>142.0</ele><time>2026-04-19T07:55:43Z</time></trkpt><trkpt lat="44.85856277879609" lon="9.98189412062486"><ele>142.0</ele><time>2026-04-19T07:55:44Z</time></trkpt><trkpt lat="44.8585131456254" lon="9.98183722356772"><ele>142.0</ele><time>2026-04-19T07:55:45Z</time></trkpt><trkpt lat="44.85846139514638" lon="9.98178208344776"><ele>142.0</ele><time>2026-04-19T07:55:46Z</time></trkpt><trkpt lat="44.85841279649087" lon="9.98171857430738"><ele>142.0</ele><time>2026-04-19T07:55:47Z</time></trkpt><trkpt lat="44.85837157407411" lon="9.98164795691381"><ele>142.0</ele><time>2026-04-19T07:55:48Z</time></trkpt><trkpt lat="44.85833636855245" lon="9.981572418637144"><ele>142.0</ele><time>2026-04-19T07:55:49Z</time></trkpt><trkpt lat="44.85830505332397" lon="9.98149040977498"><ele>142.0</ele><time>2026-04-19T07:55:50Z</time></trkpt><trkpt lat="44.858280723971596" lon="9.981408411552136"><ele>142.0</ele><time>2026-04-19T07:55:51Z</time></trkpt><trkpt lat="44.85823579761461" lon="9.981239463182373"><ele>142.0</ele><time>2026-04-19T07:55:53Z</time></trkpt><trkpt lat="44.858215380073936" lon="9.981151395224387"><ele>142.0</ele><time>2026-04-19T07:55:54Z</time></trkpt><trkpt lat="44.858191098266424" lon="9.981067762405745"><ele>142.0</ele><time>2026-04-19T07:55:55Z</time></trkpt><trkpt lat="44.85816869077632" lon="9.980978746377417"><ele>142.0</ele><time>2026-04-19T07:55:55.999Z</time></trkpt><trkpt lat="44.85814852847043" lon="9.98089457476142"><ele>142.0</ele><time>2026-04-19T07:55:56.999Z</time></trkpt><trkpt lat="44.85812637020728" lon="9.980809819282765"><ele>142.33333333333334</ele><time>2026-04-19T07:55:57.999Z</time></trkpt><trkpt lat="44.858105602578235" lon="9.980722983251175"><ele>142.66666666666669</ele><time>2026-04-19T07:55:58.999Z</time></trkpt><trkpt lat="44.85806372755235" lon="9.980555003392187"><ele>143.0</ele><time>2026-04-19T07:56:00.999Z</time></trkpt><trkpt lat="44.858040547857826" lon="9.980469027189365"><ele>143.33333333333334</ele><time>2026-04-19T07:56:01.999Z</time></trkpt><trkpt lat="44.85802157234612" lon="9.980380683236511"><ele>143.66666666666666</ele><time>2026-04-19T07:56:02.999Z</time></trkpt><trkpt lat="44.85800042020108" lon="9.980294801261067"><ele>144.0</ele><time>2026-04-19T07:56:03.999Z</time></trkpt><trkpt lat="44.85797820782518" lon="9.980208728483696"><ele>144.00000000000003</ele><time>2026-04-19T07:56:04.999Z</time></trkpt><trkpt lat="44.85795559567977" lon="9.980124468359426"><ele>144.0</ele><time>2026-04-19T07:56:05.999Z</time></trkpt><trkpt lat="44.85793700994209" lon="9.980039333066621"><ele>144.0</ele><time>2026-04-19T07:56:06.999Z</time></trkpt><trkpt lat="44.857919801506974" lon="9.979952111415923"><ele>144.0</ele><time>2026-04-19T07:56:07.999Z</time></trkpt><trkpt lat="44.85789667448802" lon="9.97977634367482"><ele>144.0</ele><time>2026-04-19T07:56:09.999Z</time></trkpt><trkpt lat="44.857900048288336" lon="9.979687084846669"><ele>144.00000000000003</ele><time>2026-04-19T07:56:10.999Z</time></trkpt><trkpt lat="44.85790989844441" lon="9.97959614974288"><ele>144.0</ele><time>2026-04-19T07:56:11.999Z</time></trkpt><trkpt lat="44.85792940678679" lon="9.979507668889605"><ele>144.2857142857143</ele><time>2026-04-19T07:56:12.999Z</time></trkpt><trkpt lat="44.857957951511615" lon="9.979426805891693"><ele>144.57142857142858</ele><time>2026-04-19T07:56:13.999Z</time></trkpt><trkpt lat="44.85799016930331" lon="9.979343376535867"><ele>144.85714285714286</ele><time>2026-04-19T07:56:14.999Z</time></trkpt><trkpt lat="44.85802668758358" lon="9.97926814367419"><ele>145.14285714285717</ele><time>2026-04-19T07:56:15.999Z</time></trkpt><trkpt lat="44.85806427246022" lon="9.97919224328553"><ele>145.42857142857144</ele><time>2026-04-19T07:56:16.999Z</time></trkpt><trkpt lat="44.858103682157854" lon="9.979116460252392"><ele>145.71428571428572</ele><time>2026-04-19T07:56:17.999Z</time></trkpt><trkpt lat="44.85814396284104" lon="9.979041957992537"><ele>146.0</ele><time>2026-04-19T07:56:18.999Z</time></trkpt><trkpt lat="44.8581842291336" lon="9.978963575864444"><ele>146.16666666666666</ele><time>2026-04-19T07:56:19.999Z</time></trkpt><trkpt lat="44.85822419277215" lon="9.978888395170154"><ele>146.33333333333331</ele><time>2026-04-19T07:56:20.999Z</time></trkpt><trkpt lat="44.85830407243601" lon="9.978737366831062"><ele>146.5</ele><time>2026-04-19T07:56:22.999Z</time></trkpt><trkpt lat="44.85834012048914" lon="9.978652965028417"><ele>146.66666666666666</ele><time>2026-04-19T07:56:23.999Z</time></trkpt><trkpt lat="44.85837905482961" lon="9.97857045150038"><ele>146.83333333333334</ele><time>2026-04-19T07:56:24.999Z</time></trkpt><trkpt lat="44.85840731446308" lon="9.978482309846932"><ele>147.0</ele><time>2026-04-19T07:56:25.999Z</time></trkpt><trkpt lat="44.85842211391117" lon="9.978385599223518"><ele>147.0</ele><time>2026-04-19T07:56:26.999Z</time></trkpt><trkpt lat="44.85842269004902" lon="9.9782862489927"><ele>147.0</ele><time>2026-04-19T07:56:27.999Z</time></trkpt><trkpt lat="44.85840525528018" lon="9.978188666257301"><ele>147.0</ele><time>2026-04-19T07:56:28.999Z</time></trkpt><trkpt lat="44.8583767728375" lon="9.978096049952553"><ele>147.0</ele><time>2026-04-19T07:56:29.999Z</time></trkpt><trkpt lat="44.85833385259592" lon="9.978018554483626"><ele>147.0</ele><time>2026-04-19T07:56:30.999Z</time></trkpt><trkpt lat="44.858289202904814" lon="9.977939526280297"><ele>147.0</ele><time>2026-04-19T07:56:31.999Z</time></trkpt><trkpt lat="44.858243017550826" lon="9.977867315209261"><ele>147.0</ele><time>2026-04-19T07:56:32.999Z</time></trkpt><trkpt lat="44.85819586891727" lon="9.977798480468456"><ele>147.0</ele><time>2026-04-19T07:56:33.999Z</time></trkpt><trkpt lat="44.858151019502266" lon="9.977723963406897"><ele>147.0</ele><time>2026-04-19T07:56:34.999Z</time></trkpt><trkpt lat="44.85810485360001" lon="9.977653825277754"><ele>147.0</ele><time>2026-04-19T07:56:35.999Z</time></trkpt><trkpt lat="44.85805772008622" lon="9.977583181993573"><ele>147.0</ele><time>2026-04-19T07:56:36.999Z</time></trkpt><trkpt lat="44.85801415841269" lon="9.977510706996437"><ele>147.0</ele><time>2026-04-19T07:56:37.999Z</time></trkpt><trkpt lat="44.857968948615515" lon="9.977440139374336"><ele>147.0</ele><time>2026-04-19T07:56:38.999Z</time></trkpt><trkpt lat="44.85792544356667" lon="9.977367894856918"><ele>147.0</ele><time>2026-04-19T07:56:39.999Z</time></trkpt><trkpt lat="44.85788071221816" lon="9.977297077952713"><ele>147.0</ele><time>2026-04-19T07:56:40.999Z</time></trkpt><trkpt lat="44.85783311065877" lon="9.977227893854623"><ele>147.0</ele><time>2026-04-19T07:56:41.999Z</time></trkpt><trkpt lat="44.85778980213229" lon="9.97715596594428"><ele>147.0</ele><time>2026-04-19T07:56:42.999Z</time></trkpt><trkpt lat="44.85774834964339" lon="9.977085727864743"><ele>147.0</ele><time>2026-04-19T07:56:43.999Z</time></trkpt><trkpt lat="44.85770446332592" lon="9.977016811717464"><ele>147.0</ele><time>2026-04-19T07:56:44.999Z</time></trkpt><trkpt lat="44.857660448057906" lon="9.976950711326975"><ele>147.0</ele><time>2026-04-19T07:56:45.999Z</time></trkpt><trkpt lat="44.857616752427084" lon="9.97688130601915"><ele>147.0</ele><time>2026-04-19T07:56:46.999Z</time></trkpt><trkpt lat="44.85757219456801" lon="9.976812020012018"><ele>146.85714285714286</ele><time>2026-04-19T07:56:47.999Z</time></trkpt><trkpt lat="44.857528376189954" lon="9.976740857221895"><ele>146.71428571428572</ele><time>2026-04-19T07:56:48.999Z</time></trkpt><trkpt lat="44.85748387184452" lon="9.97667357792887"><ele>146.57142857142856</ele><time>2026-04-19T07:56:49.998Z</time></trkpt><trkpt lat="44.85743877207755" lon="9.976602021966862"><ele>146.42857142857144</ele><time>2026-04-19T07:56:50.998Z</time></trkpt><trkpt lat="44.857396098081594" lon="9.976530605557713"><ele>146.28571428571428</ele><time>2026-04-19T07:56:51.998Z</time></trkpt><trkpt lat="44.85735304909556" lon="9.976459964790314"><ele>146.14285714285714</ele><time>2026-04-19T07:56:52.998Z</time></trkpt><trkpt lat="44.857308316995635" lon="9.976389777108773"><ele>146.0</ele><time>2026-04-19T07:56:53.998Z</time></trkpt><trkpt lat="44.85726661500025" lon="9.97631936656178"><ele>146.28571428571428</ele><time>2026-04-19T07:56:54.998Z</time></trkpt><trkpt lat="44.85722426920477" lon="9.976247651610846"><ele>146.57142857142858</ele><time>2026-04-19T07:56:55.998Z</time></trkpt><trkpt lat="44.857180959214375" lon="9.97617922288802"><ele>146.85714285714286</ele><time>2026-04-19T07:56:56.998Z</time></trkpt><trkpt lat="44.85713392026141" lon="9.976111710665707"><ele>147.14285714285714</ele><time>2026-04-19T07:56:57.998Z</time></trkpt><trkpt lat="44.8570910665437" lon="9.976040758261313"><ele>147.42857142857142</ele><time>2026-04-19T07:56:58.998Z</time></trkpt><trkpt lat="44.85704930068768" lon="9.975971389615026"><ele>147.71428571428572</ele><time>2026-04-19T07:56:59.998Z</time></trkpt><trkpt lat="44.85700535567102" lon="9.97590343064128"><ele>148.0</ele><time>2026-04-19T07:57:00.998Z</time></trkpt><trkpt lat="44.85696465724816" lon="9.975834444865912"><ele>148.0</ele><time>2026-04-19T07:57:01.998Z</time></trkpt><trkpt lat="44.856927854836925" lon="9.975758319022935"><ele>148.0</ele><time>2026-04-19T07:57:02.998Z</time></trkpt><trkpt lat="44.856881678907484" lon="9.97559437228607"><ele>148.0</ele><time>2026-04-19T07:57:04.998Z</time></trkpt><trkpt lat="44.856876881033166" lon="9.975505407728097"><ele>148.0</ele><time>2026-04-19T07:57:05.998Z</time></trkpt><trkpt lat="44.85688268001655" lon="9.975415554417898"><ele>148.0</ele><time>2026-04-19T07:57:06.998Z</time></trkpt><trkpt lat="44.85690341032788" lon="9.975330092566391"><ele>148.0</ele><time>2026-04-19T07:57:07.998Z</time></trkpt><trkpt lat="44.85692833317329" lon="9.975248281610565"><ele>148.0</ele><time>2026-04-19T07:57:08.998Z</time></trkpt><trkpt lat="44.85696217287226" lon="9.975170798079352"><ele>148.0</ele><time>2026-04-19T07:57:09.998Z</time></trkpt><trkpt lat="44.85699750635536" lon="9.97509514318334"><ele>148.0</ele><time>2026-04-19T07:57:10.998Z</time></trkpt><trkpt lat="44.85703148107466" lon="9.975017701107465"><ele>148.0</ele><time>2026-04-19T07:57:11.998Z</time></trkpt><trkpt lat="44.85706268241869" lon="9.974936871808278"><ele>148.0</ele><time>2026-04-19T07:57:12.998Z</time></trkpt><trkpt lat="44.85708685774581" lon="9.9748521946103"><ele>148.0</ele><time>2026-04-19T07:57:13.998Z</time></trkpt><trkpt lat="44.85710253290581" lon="9.974762121457896"><ele>148.0</ele><time>2026-04-19T07:57:14.998Z</time></trkpt><trkpt lat="44.85710677820958" lon="9.974668980920159"><ele>148.0</ele><time>2026-04-19T07:57:15.998Z</time></trkpt><trkpt lat="44.857093983257094" lon="9.97457591871325"><ele>148.33333333333334</ele><time>2026-04-19T07:57:16.998Z</time></trkpt><trkpt lat="44.85706889834442" lon="9.974490241630182"><ele>148.66666666666669</ele><time>2026-04-19T07:57:17.998Z</time></trkpt><trkpt lat="44.857033755570015" lon="9.974412472821461"><ele>149.0</ele><time>2026-04-19T07:57:18.998Z</time></trkpt><trkpt lat="44.85699174350191" lon="9.974345645899115"><ele>149.33333333333334</ele><time>2026-04-19T07:57:19.998Z</time></trkpt><trkpt lat="44.856898772172684" lon="9.974225481519422"><ele>149.66666666666666</ele><time>2026-04-19T07:57:21.998Z</time></trkpt><trkpt lat="44.856848783322256" lon="9.974167602106917"><ele>150.0</ele><time>2026-04-19T07:57:22.998Z</time></trkpt><trkpt lat="44.856754893256735" lon="9.97405383924607"><ele>150.6</ele><time>2026-04-19T07:57:24.998Z</time></trkpt><trkpt lat="44.856706312121894" lon="9.973996296684494"><ele>151.2</ele><time>2026-04-19T07:57:25.998Z</time></trkpt><trkpt lat="44.85661765043189" lon="9.973887675438911"><ele>151.8</ele><time>2026-04-19T07:57:27.998Z</time></trkpt><trkpt lat="44.856536842583296" lon="9.9737672890599"><ele>152.4</ele><time>2026-04-19T07:57:29.998Z</time></trkpt><trkpt lat="44.85648163542945" lon="9.973618762672295"><ele>153.0</ele><time>2026-04-19T07:57:31.998Z</time></trkpt><trkpt lat="44.8564486815941" lon="9.973472156436832"><ele>152.6</ele><time>2026-04-19T07:57:33.998Z</time></trkpt><trkpt lat="44.85644433417098" lon="9.973322609246097"><ele>152.20000000000002</ele><time>2026-04-19T07:57:35.998Z</time></trkpt><trkpt lat="44.85646399206603" lon="9.973196417989643"><ele>151.8</ele><time>2026-04-19T07:57:37.998Z</time></trkpt><trkpt lat="44.856486625609186" lon="9.973076775431167"><ele>151.4</ele><time>2026-04-19T07:57:40Z</time></trkpt><trkpt lat="44.85649713215091" lon="9.97295980370042"><ele>151.0</ele><time>2026-04-19T07:57:42Z</time></trkpt><trkpt lat="44.85642963340268" lon="9.972885285567227"><ele>151.0</ele><time>2026-04-19T07:57:44Z</time></trkpt><trkpt lat="44.85633004339408" lon="9.972871023311365"><ele>151.0</ele><time>2026-04-19T07:57:46Z</time></trkpt><trkpt lat="44.85622774145346" lon="9.97286848029494"><ele>151.0</ele><time>2026-04-19T07:57:48Z</time></trkpt><trkpt lat="44.85611791356229" lon="9.97285571762989"><ele>151.0</ele><time>2026-04-19T07:57:50Z</time></trkpt><trkpt lat="44.85600436990598" lon="9.972836838998276"><ele>151.0</ele><time>2026-04-19T07:57:52Z</time></trkpt><trkpt lat="44.85588756126771" lon="9.972819952214774"><ele>151.5</ele><time>2026-04-19T07:57:54Z</time></trkpt><trkpt lat="44.85577277156297" lon="9.972808665784523"><ele>152.0</ele><time>2026-04-19T07:57:56Z</time></trkpt><trkpt lat="44.85565805979276" lon="9.972791881723927"><ele>152.5</ele><time>2026-04-19T07:57:58Z</time></trkpt><trkpt lat="44.85554349492909" lon="9.972774380293487"><ele>153.0</ele><time>2026-04-19T07:58:00Z</time></trkpt><trkpt lat="44.85542839344406" lon="9.972758174234539"><ele>153.0</ele><time>2026-04-19T07:58:01.999Z</time></trkpt><trkpt lat="44.85530935758291" lon="9.972739600909689"><ele>153.0</ele><time>2026-04-19T07:58:03.999Z</time></trkpt><trkpt lat="44.855191761010374" lon="9.97272233101051"><ele>153.0</ele><time>2026-04-19T07:58:05.999Z</time></trkpt><trkpt lat="44.85507788139188" lon="9.972704135293286"><ele>153.0</ele><time>2026-04-19T07:58:07.999Z</time></trkpt><trkpt lat="44.85496068864933" lon="9.972684045062625"><ele>152.8</ele><time>2026-04-19T07:58:09.999Z</time></trkpt><trkpt lat="44.854843601998915" lon="9.972667715647953"><ele>152.60000000000002</ele><time>2026-04-19T07:58:11.999Z</time></trkpt><trkpt lat="44.85472433460674" lon="9.972651307064535"><ele>152.39999999999998</ele><time>2026-04-19T07:58:13.999Z</time></trkpt><trkpt lat="44.85459903903549" lon="9.972631333556825"><ele>152.2</ele><time>2026-04-19T07:58:15.999Z</time></trkpt><trkpt lat="44.85453609623324" lon="9.972624987252539"><ele>152.0</ele><time>2026-04-19T07:58:16.999Z</time></trkpt><trkpt lat="44.85441021856813" lon="9.972604420714639"><ele>152.0</ele><time>2026-04-19T07:58:18.999Z</time></trkpt><trkpt lat="44.85428367373829" lon="9.972585466910008"><ele>152.0</ele><time>2026-04-19T07:58:20.999Z</time></trkpt><trkpt lat="44.85421939113404" lon="9.972577052689905"><ele>152.0</ele><time>2026-04-19T07:58:21.999Z</time></trkpt><trkpt lat="44.85415256954631" lon="9.972567042454871"><ele>152.0</ele><time>2026-04-19T07:58:22.999Z</time></trkpt><trkpt lat="44.854085823339986" lon="9.972555012001596"><ele>152.0</ele><time>2026-04-19T07:58:23.999Z</time></trkpt><trkpt lat="44.854017931280026" lon="9.972545042017405"><ele>152.0</ele><time>2026-04-19T07:58:24.999Z</time></trkpt><trkpt lat="44.85395077554984" lon="9.972534448587352"><ele>152.0</ele><time>2026-04-19T07:58:25.999Z</time></trkpt><trkpt lat="44.853883272859065" lon="9.972523318695593"><ele>152.0</ele><time>2026-04-19T07:58:26.999Z</time></trkpt><trkpt lat="44.853814358453455" lon="9.972514803814901"><ele>152.0</ele><time>2026-04-19T07:58:27.999Z</time></trkpt><trkpt lat="44.85374571230015" lon="9.972506417770637"><ele>152.0</ele><time>2026-04-19T07:58:28.999Z</time></trkpt><trkpt lat="44.853677547438195" lon="9.972493159753421"><ele>152.0</ele><time>2026-04-19T07:58:29.999Z</time></trkpt><trkpt lat="44.853607281093396" lon="9.972483129085497"><ele>152.0</ele><time>2026-04-19T07:58:30.999Z</time></trkpt><trkpt lat="44.85353991850211" lon="9.972465047308653"><ele>152.0</ele><time>2026-04-19T07:58:31.999Z</time></trkpt><trkpt lat="44.85346993388409" lon="9.97245539636607"><ele>152.28571428571428</ele><time>2026-04-19T07:58:32.999Z</time></trkpt><trkpt lat="44.85339398769206" lon="9.972447914559458"><ele>152.57142857142858</ele><time>2026-04-19T07:58:33.999Z</time></trkpt><trkpt lat="44.85332471500989" lon="9.972438579551786"><ele>152.85714285714286</ele><time>2026-04-19T07:58:34.999Z</time></trkpt><trkpt lat="44.85325371862381" lon="9.97242859499482"><ele>153.14285714285714</ele><time>2026-04-19T07:58:35.999Z</time></trkpt><trkpt lat="44.85318253051376" lon="9.972419486966478"><ele>153.42857142857144</ele><time>2026-04-19T07:58:36.999Z</time></trkpt><trkpt lat="44.853111320302155" lon="9.972411352008512"><ele>153.71428571428572</ele><time>2026-04-19T07:58:37.999Z</time></trkpt><trkpt lat="44.85303789986993" lon="9.972397598318869"><ele>154.0</ele><time>2026-04-19T07:58:38.999Z</time></trkpt><trkpt lat="44.8529652348866" lon="9.972387372815515"><ele>154.0</ele><time>2026-04-19T07:58:39.999Z</time></trkpt><trkpt lat="44.852891786593155" lon="9.972381211895618"><ele>154.0</ele><time>2026-04-19T07:58:40.999Z</time></trkpt><trkpt lat="44.85282091371964" lon="9.97237271988185"><ele>154.0</ele><time>2026-04-19T07:58:41.999Z</time></trkpt><trkpt lat="44.852748971790156" lon="9.972362308182385"><ele>154.0</ele><time>2026-04-19T07:58:42.999Z</time></trkpt><trkpt lat="44.85267411507437" lon="9.972354405573814"><ele>154.0</ele><time>2026-04-19T07:58:43.999Z</time></trkpt><trkpt lat="44.85260166166514" lon="9.97233983329218"><ele>154.0</ele><time>2026-04-19T07:58:44.999Z</time></trkpt><trkpt lat="44.85253155673567" lon="9.972335007242235"><ele>154.0</ele><time>2026-04-19T07:58:45.999Z</time></trkpt><trkpt lat="44.85246056831961" lon="9.972320936687368"><ele>153.6</ele><time>2026-04-19T07:58:46.999Z</time></trkpt><trkpt lat="44.852389676419776" lon="9.972313160488454"><ele>153.2</ele><time>2026-04-19T07:58:47.999Z</time></trkpt><trkpt lat="44.8523189928084" lon="9.972302129674043"><ele>152.79999999999998</ele><time>2026-04-19T07:58:48.999Z</time></trkpt><trkpt lat="44.85225448175419" lon="9.97228959190246"><ele>152.4</ele><time>2026-04-19T07:58:49.999Z</time></trkpt><trkpt lat="44.85213321063347" lon="9.972275318760184"><ele>152.0</ele><time>2026-04-19T07:58:51.999Z</time></trkpt><trkpt lat="44.8520124961814" lon="9.972264220467212"><ele>152.0</ele><time>2026-04-19T07:58:53.999Z</time></trkpt><trkpt lat="44.85190950641759" lon="9.972247621620427"><ele>152.0</ele><time>2026-04-19T07:58:55.998Z</time></trkpt><trkpt lat="44.85184007649113" lon="9.972177774520889"><ele>152.0</ele><time>2026-04-19T07:58:57.998Z</time></trkpt><trkpt lat="44.85183498917146" lon="9.972036535033457"><ele>152.0</ele><time>2026-04-19T07:58:59.998Z</time></trkpt><trkpt lat="44.85182200441171" lon="9.97191530989553"><ele>152.0</ele><time>2026-04-19T07:59:01.998Z</time></trkpt><trkpt lat="44.8518117985246" lon="9.971782858095331"><ele>152.66666666666666</ele><time>2026-04-19T07:59:03.998Z</time></trkpt><trkpt lat="44.85179767016912" lon="9.971655201468872"><ele>153.33333333333331</ele><time>2026-04-19T07:59:05.998Z</time></trkpt><trkpt lat="44.851781114683135" lon="9.97153411198669"><ele>154.0</ele><time>2026-04-19T07:59:07.998Z</time></trkpt><trkpt lat="44.85176101313212" lon="9.971406975939624"><ele>154.66666666666666</ele><time>2026-04-19T07:59:09.998Z</time></trkpt><trkpt lat="44.851747481659864" lon="9.971293287433934"><ele>155.33333333333334</ele><time>2026-04-19T07:59:11.998Z</time></trkpt><trkpt lat="44.85173726450338" lon="9.971197264876308"><ele>156.0</ele><time>2026-04-19T07:59:13.998Z</time></trkpt><trkpt lat="44.85172199091429" lon="9.971093279939149"><ele>156.0</ele><time>2026-04-19T07:59:15.998Z</time></trkpt><trkpt lat="44.85171385810773" lon="9.970991156609069"><ele>156.0</ele><time>2026-04-19T07:59:17.998Z</time></trkpt><trkpt lat="44.8516970113608" lon="9.970874937609258"><ele>156.0</ele><time>2026-04-19T07:59:19.998Z</time></trkpt><trkpt lat="44.851681479572484" lon="9.970765039517453"><ele>156.0</ele><time>2026-04-19T07:59:21.998Z</time></trkpt><trkpt lat="44.85166869754768" lon="9.970643559809059"><ele>156.0</ele><time>2026-04-19T07:59:23.998Z</time></trkpt><trkpt lat="44.85165817703283" lon="9.970515596476801"><ele>156.0</ele><time>2026-04-19T07:59:25.998Z</time></trkpt><trkpt lat="44.85164596564819" lon="9.97038907170335"><ele>157.2</ele><time>2026-04-19T07:59:27.998Z</time></trkpt><trkpt lat="44.851646173626854" lon="9.970250712681986"><ele>158.39999999999998</ele><time>2026-04-19T07:59:30.998Z</time></trkpt><trkpt lat="44.85163459355147" lon="9.970122914320742"><ele>159.6</ele><time>2026-04-19T07:59:32.998Z</time></trkpt><trkpt lat="44.85159942431091" lon="9.96996331324309"><ele>160.79999999999998</ele><time>2026-04-19T07:59:34.998Z</time></trkpt><trkpt lat="44.85158396427031" lon="9.969797235440348"><ele>162.0</ele><time>2026-04-19T07:59:35.998Z</time></trkpt><trkpt lat="44.851561851355186" lon="9.96966470225689"><ele>162.0</ele><time>2026-04-19T07:59:37.998Z</time></trkpt><trkpt lat="44.85154414326614" lon="9.969535593292814"><ele>162.0</ele><time>2026-04-19T07:59:39.998Z</time></trkpt><trkpt lat="44.85152507606268" lon="9.96940727021385"><ele>162.0</ele><time>2026-04-19T07:59:41.998Z</time></trkpt><trkpt lat="44.85150654774716" lon="9.96927958344682"><ele>162.0</ele><time>2026-04-19T07:59:43.998Z</time></trkpt><trkpt lat="44.85149236411779" lon="9.969153040517517"><ele>162.0</ele><time>2026-04-19T07:59:46Z</time></trkpt><trkpt lat="44.851471045330555" lon="9.96902890939127"><ele>162.39999999999998</ele><time>2026-04-19T07:59:48Z</time></trkpt><trkpt lat="44.85145149635525" lon="9.968905124894839"><ele>162.79999999999998</ele><time>2026-04-19T07:59:50Z</time></trkpt><trkpt lat="44.85143622918932" lon="9.968779412734454"><ele>163.2</ele><time>2026-04-19T07:59:52Z</time></trkpt><trkpt lat="44.85141851194904" lon="9.968652309237964"><ele>163.6</ele><time>2026-04-19T07:59:54Z</time></trkpt><trkpt lat="44.851388309925625" lon="9.968533154760923"><ele>164.0</ele><time>2026-04-19T07:59:56Z</time></trkpt><trkpt lat="44.851365417151676" lon="9.968407258911153"><ele>164.39999999999998</ele><time>2026-04-19T07:59:58Z</time></trkpt><trkpt lat="44.85135565852396" lon="9.968280687142196"><ele>164.8</ele><time>2026-04-19T08:00:00Z</time></trkpt><trkpt lat="44.85133890910462" lon="9.968153008315339"><ele>165.2</ele><time>2026-04-19T08:00:02Z</time></trkpt><trkpt lat="44.85132306767058" lon="9.968020745472753"><ele>165.60000000000002</ele><time>2026-04-19T08:00:04Z</time></trkpt><trkpt lat="44.85131185350858" lon="9.967897460772829"><ele>166.0</ele><time>2026-04-19T08:00:05.999Z</time></trkpt><trkpt lat="44.85128711394874" lon="9.967758960370606"><ele>166.0</ele><time>2026-04-19T08:00:07.999Z</time></trkpt><trkpt lat="44.85127114535108" lon="9.967623759137025"><ele>166.0</ele><time>2026-04-19T08:00:09.999Z</time></trkpt><trkpt lat="44.85124900248215" lon="9.967486697159245"><ele>166.0</ele><time>2026-04-19T08:00:11.999Z</time></trkpt><trkpt lat="44.851230392455264" lon="9.967348368865771"><ele>166.0</ele><time>2026-04-19T08:00:13.999Z</time></trkpt><trkpt lat="44.8512052715565" lon="9.967210678209888"><ele>166.0</ele><time>2026-04-19T08:00:15.999Z</time></trkpt><trkpt lat="44.851191938604856" lon="9.967073942746438"><ele>166.0</ele><time>2026-04-19T08:00:17.999Z</time></trkpt><trkpt lat="44.851173172121" lon="9.966940525007931"><ele>166.0</ele><time>2026-04-19T08:00:19.999Z</time></trkpt><trkpt lat="44.851153225089924" lon="9.966806955362017"><ele>166.0</ele><time>2026-04-19T08:00:21.999Z</time></trkpt><trkpt lat="44.85113537687019" lon="9.966668166527558"><ele>166.0</ele><time>2026-04-19T08:00:23.999Z</time></trkpt><trkpt lat="44.851116404587444" lon="9.966528413925722"><ele>166.0</ele><time>2026-04-19T08:00:25.999Z</time></trkpt><trkpt lat="44.85109783163276" lon="9.96638837081895"><ele>166.4</ele><time>2026-04-19T08:00:27.999Z</time></trkpt><trkpt lat="44.85108379988155" lon="9.966247546056659"><ele>166.8</ele><time>2026-04-19T08:00:29.999Z</time></trkpt><trkpt lat="44.85106137687996" lon="9.966110095090386"><ele>167.20000000000002</ele><time>2026-04-19T08:00:31.999Z</time></trkpt><trkpt lat="44.85104968474076" lon="9.965964510339935"><ele>167.60000000000002</ele><time>2026-04-19T08:00:33.999Z</time></trkpt><trkpt lat="44.8510362149086" lon="9.96581978181471"><ele>168.0</ele><time>2026-04-19T08:00:35.999Z</time></trkpt><trkpt lat="44.851022649545044" lon="9.965677737500151"><ele>168.0</ele><time>2026-04-19T08:00:37.999Z</time></trkpt><trkpt lat="44.85100657096184" lon="9.965534511751116"><ele>168.0</ele><time>2026-04-19T08:00:39.999Z</time></trkpt><trkpt lat="44.85098060938508" lon="9.96539564047504"><ele>168.0</ele><time>2026-04-19T08:00:41.999Z</time></trkpt><trkpt lat="44.85094001212125" lon="9.96526142681735"><ele>168.0</ele><time>2026-04-19T08:00:43.999Z</time></trkpt><trkpt lat="44.85088061204788" lon="9.965142110603939"><ele>168.0</ele><time>2026-04-19T08:00:45.999Z</time></trkpt><trkpt lat="44.85081069719857" lon="9.965036182202356"><ele>168.4</ele><time>2026-04-19T08:00:47.999Z</time></trkpt><trkpt lat="44.850734230173174" lon="9.964944215927911"><ele>168.8</ele><time>2026-04-19T08:00:49.999Z</time></trkpt><trkpt lat="44.85065989148594" lon="9.964855826707673"><ele>169.2</ele><time>2026-04-19T08:00:51.999Z</time></trkpt><trkpt lat="44.85058334059866" lon="9.964757878527697"><ele>169.6</ele><time>2026-04-19T08:00:53.999Z</time></trkpt><trkpt lat="44.850510275608634" lon="9.964657746689104"><ele>170.0</ele><time>2026-04-19T08:00:55.999Z</time></trkpt><trkpt lat="44.85043695920488" lon="9.964550722215995"><ele>170.0</ele><time>2026-04-19T08:00:57.999Z</time></trkpt><trkpt lat="44.85036355507538" lon="9.964442514089065"><ele>170.0</ele><time>2026-04-19T08:00:59.998Z</time></trkpt><trkpt lat="44.85029448973847" lon="9.964326419384092"><ele>170.0</ele><time>2026-04-19T08:01:01.998Z</time></trkpt><trkpt lat="44.850222004760475" lon="9.964209557970113"><ele>170.0</ele><time>2026-04-19T08:01:03.998Z</time></trkpt><trkpt lat="44.85015214929037" lon="9.96409018450367"><ele>170.0</ele><time>2026-04-19T08:01:05.998Z</time></trkpt><trkpt lat="44.850081203237444" lon="9.96397310557559"><ele>170.8</ele><time>2026-04-19T08:01:07.998Z</time></trkpt><trkpt lat="44.850009784160974" lon="9.963858799883518"><ele>171.6</ele><time>2026-04-19T08:01:09.998Z</time></trkpt><trkpt lat="44.84993937760405" lon="9.963740107599545"><ele>172.39999999999998</ele><time>2026-04-19T08:01:11.998Z</time></trkpt><trkpt lat="44.849872987242115" lon="9.963628084775184"><ele>173.2</ele><time>2026-04-19T08:01:13.998Z</time></trkpt><trkpt lat="44.84980824652312" lon="9.96351201197409"><ele>174.0</ele><time>2026-04-19T08:01:15.998Z</time></trkpt><trkpt lat="44.84973884579963" lon="9.963404804410528"><ele>174.6</ele><time>2026-04-19T08:01:17.998Z</time></trkpt><trkpt lat="44.849672513864746" lon="9.963293729100558"><ele>175.2</ele><time>2026-04-19T08:01:19.998Z</time></trkpt><trkpt lat="44.84960622307573" lon="9.963184061632052"><ele>175.79999999999998</ele><time>2026-04-19T08:01:21.998Z</time></trkpt><trkpt lat="44.84953673630662" lon="9.963070841865727"><ele>176.39999999999998</ele><time>2026-04-19T08:01:23.998Z</time></trkpt><trkpt lat="44.84947294185675" lon="9.962958132477906"><ele>177.0</ele><time>2026-04-19T08:01:25.998Z</time></trkpt><trkpt lat="44.84941741765016" lon="9.962836355313147"><ele>177.0</ele><time>2026-04-19T08:01:27.998Z</time></trkpt><trkpt lat="44.8493843404517" lon="9.962701722044711"><ele>177.0</ele><time>2026-04-19T08:01:29.998Z</time></trkpt><trkpt lat="44.84937207603211" lon="9.962557485566359"><ele>177.0</ele><time>2026-04-19T08:01:31.998Z</time></trkpt><trkpt lat="44.849363000095465" lon="9.96241456925435"><ele>177.0</ele><time>2026-04-19T08:01:33.998Z</time></trkpt><trkpt lat="44.84935083949361" lon="9.962268058305062"><ele>177.0</ele><time>2026-04-19T08:01:35.998Z</time></trkpt><trkpt lat="44.84933415206968" lon="9.96212136009106"><ele>177.0</ele><time>2026-04-19T08:01:37.998Z</time></trkpt><trkpt lat="44.84931992927412" lon="9.961975255936153"><ele>177.0</ele><time>2026-04-19T08:01:39.998Z</time></trkpt><trkpt lat="44.84930662620933" lon="9.961826294245794"><ele>177.0</ele><time>2026-04-19T08:01:41.998Z</time></trkpt><trkpt lat="44.84929351342636" lon="9.961672130922219"><ele>177.0</ele><time>2026-04-19T08:01:43.998Z</time></trkpt><trkpt lat="44.84928293046952" lon="9.961514490083669"><ele>177.0</ele><time>2026-04-19T08:01:45.998Z</time></trkpt><trkpt lat="44.849268705900464" lon="9.961357551451526"><ele>177.5</ele><time>2026-04-19T08:01:47.998Z</time></trkpt><trkpt lat="44.849256973467476" lon="9.961196778133365"><ele>178.0</ele><time>2026-04-19T08:01:49.998Z</time></trkpt><trkpt lat="44.849243411958966" lon="9.9610447702628"><ele>178.5</ele><time>2026-04-19T08:01:52Z</time></trkpt><trkpt lat="44.849238894482774" lon="9.960883986562228"><ele>179.0</ele><time>2026-04-19T08:01:54Z</time></trkpt><trkpt lat="44.84924273387274" lon="9.960719710537807"><ele>179.0</ele><time>2026-04-19T08:01:56Z</time></trkpt><trkpt lat="44.849254114237354" lon="9.960553747689668"><ele>179.0</ele><time>2026-04-19T08:01:58Z</time></trkpt><trkpt lat="44.84926312971213" lon="9.960384482561356"><ele>179.0</ele><time>2026-04-19T08:02:00Z</time></trkpt><trkpt lat="44.84927983210311" lon="9.960213947414339"><ele>179.0</ele><time>2026-04-19T08:02:02Z</time></trkpt><trkpt lat="44.84929143614293" lon="9.960126318389122"><ele>179.0</ele><time>2026-04-19T08:02:03Z</time></trkpt><trkpt lat="44.849297397500635" lon="9.960036218748149"><ele>178.71428571428572</ele><time>2026-04-19T08:02:04Z</time></trkpt><trkpt lat="44.84930414455314" lon="9.959946534962873"><ele>178.42857142857144</ele><time>2026-04-19T08:02:05Z</time></trkpt><trkpt lat="44.84931479518925" lon="9.959856649924507"><ele>178.14285714285717</ele><time>2026-04-19T08:02:06Z</time></trkpt><trkpt lat="44.8493233377837" lon="9.959766627771577"><ele>177.85714285714286</ele><time>2026-04-19T08:02:07Z</time></trkpt><trkpt lat="44.849331869099906" lon="9.959673895144187"><ele>177.57142857142856</ele><time>2026-04-19T08:02:08Z</time></trkpt><trkpt lat="44.849339878787475" lon="9.959582489314778"><ele>177.2857142857143</ele><time>2026-04-19T08:02:08.999Z</time></trkpt><trkpt lat="44.84934519733072" lon="9.959492634827487"><ele>177.0</ele><time>2026-04-19T08:02:09.999Z</time></trkpt><trkpt lat="44.849356658909066" lon="9.959403194548562"><ele>177.0</ele><time>2026-04-19T08:02:10.999Z</time></trkpt><trkpt lat="44.84936642672304" lon="9.959314107967474"><ele>177.0</ele><time>2026-04-19T08:02:11.999Z</time></trkpt><trkpt lat="44.84938117725382" lon="9.959221903633937"><ele>177.0</ele><time>2026-04-19T08:02:12.999Z</time></trkpt><trkpt lat="44.84938553128866" lon="9.959131586975273"><ele>177.0</ele><time>2026-04-19T08:02:13.999Z</time></trkpt><trkpt lat="44.849392286641205" lon="9.959041785891172"><ele>177.0</ele><time>2026-04-19T08:02:14.999Z</time></trkpt><trkpt lat="44.8494022890152" lon="9.958953575079237"><ele>177.0</ele><time>2026-04-19T08:02:15.999Z</time></trkpt><trkpt lat="44.849421558244046" lon="9.95877847383454"><ele>177.0</ele><time>2026-04-19T08:02:17.999Z</time></trkpt><trkpt lat="44.849436833771364" lon="9.958603956837587"><ele>177.5</ele><time>2026-04-19T08:02:19.999Z</time></trkpt><trkpt lat="44.849461899690404" lon="9.958430571614276"><ele>178.0</ele><time>2026-04-19T08:02:21.999Z</time></trkpt><trkpt lat="44.84948144781993" lon="9.958259915946135"><ele>178.5</ele><time>2026-04-19T08:02:23.999Z</time></trkpt><trkpt lat="44.849500188247376" lon="9.95809044041778"><ele>179.0</ele><time>2026-04-19T08:02:25.999Z</time></trkpt><trkpt lat="44.84951665826009" lon="9.95791644811201"><ele>179.0</ele><time>2026-04-19T08:02:27.999Z</time></trkpt><trkpt lat="44.84953146152651" lon="9.957743984561896"><ele>179.0</ele><time>2026-04-19T08:02:29.999Z</time></trkpt><trkpt lat="44.849544882509605" lon="9.957656427764311"><ele>179.0</ele><time>2026-04-19T08:02:30.999Z</time></trkpt><trkpt lat="44.84955593971617" lon="9.957479409171665"><ele>179.0</ele><time>2026-04-19T08:02:32.999Z</time></trkpt><trkpt lat="44.84957250692525" lon="9.957303295707801"><ele>179.0</ele><time>2026-04-19T08:02:34.999Z</time></trkpt><trkpt lat="44.84958481861078" lon="9.957122204953096"><ele>179.00000000000003</ele><time>2026-04-19T08:02:36.999Z</time></trkpt><trkpt lat="44.84959872867203" lon="9.957030341004694"><ele>179.0</ele><time>2026-04-19T08:02:37.999Z</time></trkpt><trkpt lat="44.84960694853387" lon="9.956937394537873"><ele>179.0</ele><time>2026-04-19T08:02:38.999Z</time></trkpt><trkpt lat="44.84961760352011" lon="9.956843494003836"><ele>179.0</ele><time>2026-04-19T08:02:39.999Z</time></trkpt><trkpt lat="44.8496243345863" lon="9.956751123053456"><ele>179.0</ele><time>2026-04-19T08:02:40.999Z</time></trkpt><trkpt lat="44.84963377470344" lon="9.956657163954997"><ele>179.00000000000003</ele><time>2026-04-19T08:02:41.999Z</time></trkpt><trkpt lat="44.849649454939374" lon="9.956557539276844"><ele>179.0</ele><time>2026-04-19T08:02:42.999Z</time></trkpt><trkpt lat="44.84966135914097" lon="9.956461534518697"><ele>179.00000000000003</ele><time>2026-04-19T08:02:43.999Z</time></trkpt><trkpt lat="44.84967319074606" lon="9.956365714395446"><ele>179.0</ele><time>2026-04-19T08:02:44.999Z</time></trkpt><trkpt lat="44.849679826614754" lon="9.956272852385965"><ele>179.0</ele><time>2026-04-19T08:02:45.999Z</time></trkpt><trkpt lat="44.84968519278009" lon="9.956177260230456"><ele>179.0</ele><time>2026-04-19T08:02:46.999Z</time></trkpt><trkpt lat="44.84969434583236" lon="9.956078207180038"><ele>179.0</ele><time>2026-04-19T08:02:47.999Z</time></trkpt><trkpt lat="44.84969384574334" lon="9.95597943139322"><ele>179.00000000000003</ele><time>2026-04-19T08:02:48.999Z</time></trkpt><trkpt lat="44.8496940068414" lon="9.955873823660287"><ele>179.0</ele><time>2026-04-19T08:02:49.999Z</time></trkpt><trkpt lat="44.849690617637414" lon="9.955769591865108"><ele>179.16666666666666</ele><time>2026-04-19T08:02:50.999Z</time></trkpt><trkpt lat="44.84968231716051" lon="9.955664262105438"><ele>179.33333333333331</ele><time>2026-04-19T08:02:51.999Z</time></trkpt><trkpt lat="44.84967323870296" lon="9.955556337869394"><ele>179.5</ele><time>2026-04-19T08:02:52.999Z</time></trkpt><trkpt lat="44.84965868358033" lon="9.955449767920165"><ele>179.66666666666666</ele><time>2026-04-19T08:02:53.999Z</time></trkpt><trkpt lat="44.849642451688744" lon="9.955346029269025"><ele>179.83333333333334</ele><time>2026-04-19T08:02:54.999Z</time></trkpt><trkpt lat="44.84962242777779" lon="9.955241964197523"><ele>180.0</ele><time>2026-04-19T08:02:55.999Z</time></trkpt><trkpt lat="44.84960104529536" lon="9.955136579495884"><ele>179.0</ele><time>2026-04-19T08:02:56.999Z</time></trkpt><trkpt lat="44.84957228520116" lon="9.955033729407123"><ele>178.0</ele><time>2026-04-19T08:02:57.999Z</time></trkpt><trkpt lat="44.849541948354016" lon="9.954922492005156"><ele>177.0</ele><time>2026-04-19T08:02:58.999Z</time></trkpt><trkpt lat="44.84951083779164" lon="9.954827693548568"><ele>176.0</ele><time>2026-04-19T08:02:59.999Z</time></trkpt><trkpt lat="44.84948187327057" lon="9.954730162055913"><ele>175.0</ele><time>2026-04-19T08:03:00.999Z</time></trkpt><trkpt lat="44.8494506896099" lon="9.954633952067574"><ele>174.0</ele><time>2026-04-19T08:03:01.999Z</time></trkpt><trkpt lat="44.8494194944376" lon="9.954537208409747"><ele>174.0</ele><time>2026-04-19T08:03:02.999Z</time></trkpt><trkpt lat="44.849387240632616" lon="9.954439294754243"><ele>174.0</ele><time>2026-04-19T08:03:03.998Z</time></trkpt><trkpt lat="44.849351279078675" lon="9.954345141222909"><ele>174.0</ele><time>2026-04-19T08:03:04.998Z</time></trkpt><trkpt lat="44.84932108406534" lon="9.95424969191382"><ele>174.0</ele><time>2026-04-19T08:03:05.998Z</time></trkpt><trkpt lat="44.849289971015814" lon="9.954155058094747"><ele>174.0</ele><time>2026-04-19T08:03:06.998Z</time></trkpt><trkpt lat="44.84925304466703" lon="9.954066325710588"><ele>174.0</ele><time>2026-04-19T08:03:07.998Z</time></trkpt><trkpt lat="44.849226528772896" lon="9.953971224732317"><ele>174.0</ele><time>2026-04-19T08:03:08.998Z</time></trkpt><trkpt lat="44.84919487220509" lon="9.953876645019575"><ele>175.0</ele><time>2026-04-19T08:03:09.998Z</time></trkpt><trkpt lat="44.849164643211736" lon="9.953783940132944"><ele>176.0</ele><time>2026-04-19T08:03:10.998Z</time></trkpt><trkpt lat="44.84913654980279" lon="9.953688566364278"><ele>177.0</ele><time>2026-04-19T08:03:11.998Z</time></trkpt><trkpt lat="44.84910891300911" lon="9.953595061891253"><ele>178.0</ele><time>2026-04-19T08:03:12.998Z</time></trkpt><trkpt lat="44.8490766101174" lon="9.953501557302245"><ele>179.0</ele><time>2026-04-19T08:03:13.998Z</time></trkpt><trkpt lat="44.84904883164738" lon="9.953410157252339"><ele>180.0</ele><time>2026-04-19T08:03:14.998Z</time></trkpt><trkpt lat="44.849019103337646" lon="9.953315574574283"><ele>181.0</ele><time>2026-04-19T08:03:15.998Z</time></trkpt><trkpt lat="44.84898638133863" lon="9.9532271669457"><ele>181.0</ele><time>2026-04-19T08:03:16.998Z</time></trkpt><trkpt lat="44.84895948220285" lon="9.953132853957793"><ele>181.0</ele><time>2026-04-19T08:03:17.998Z</time></trkpt><trkpt lat="44.8489329971569" lon="9.95303799336566"><ele>181.0</ele><time>2026-04-19T08:03:18.998Z</time></trkpt><trkpt lat="44.848898692579546" lon="9.952942942363407"><ele>181.0</ele><time>2026-04-19T08:03:19.998Z</time></trkpt><trkpt lat="44.84887379284936" lon="9.952853612503171"><ele>181.0</ele><time>2026-04-19T08:03:20.998Z</time></trkpt><trkpt lat="44.84884402520639" lon="9.952759201922332"><ele>181.0</ele><time>2026-04-19T08:03:21.998Z</time></trkpt><trkpt lat="44.848811483460366" lon="9.952672174610129"><ele>181.0</ele><time>2026-04-19T08:03:22.998Z</time></trkpt><trkpt lat="44.848786010339865" lon="9.952579498497844"><ele>180.28571428571428</ele><time>2026-04-19T08:03:23.998Z</time></trkpt><trkpt lat="44.84875522129378" lon="9.952486646914409"><ele>179.57142857142856</ele><time>2026-04-19T08:03:24.998Z</time></trkpt><trkpt lat="44.84872310779061" lon="9.952390802180478"><ele>178.85714285714286</ele><time>2026-04-19T08:03:25.998Z</time></trkpt><trkpt lat="44.84869770229054" lon="9.95229911608114"><ele>178.14285714285714</ele><time>2026-04-19T08:03:26.998Z</time></trkpt><trkpt lat="44.84867065081366" lon="9.952205220164625"><ele>177.42857142857142</ele><time>2026-04-19T08:03:27.998Z</time></trkpt><trkpt lat="44.84864491154029" lon="9.952112957583493"><ele>176.71428571428572</ele><time>2026-04-19T08:03:28.998Z</time></trkpt><trkpt lat="44.84861562431114" lon="9.952019305140244"><ele>176.0</ele><time>2026-04-19T08:03:29.998Z</time></trkpt><trkpt lat="44.848588387694" lon="9.95192764722137"><ele>176.0</ele><time>2026-04-19T08:03:30.998Z</time></trkpt><trkpt lat="44.848556235458915" lon="9.95183095861537"><ele>176.0</ele><time>2026-04-19T08:03:31.998Z</time></trkpt><trkpt lat="44.848522535951346" lon="9.951743948537574"><ele>176.0</ele><time>2026-04-19T08:03:32.998Z</time></trkpt><trkpt lat="44.84849472108787" lon="9.951651879714301"><ele>176.0</ele><time>2026-04-19T08:03:33.998Z</time></trkpt><trkpt lat="44.84846190215281" lon="9.951562507092138"><ele>176.0</ele><time>2026-04-19T08:03:34.998Z</time></trkpt><trkpt lat="44.848433967913095" lon="9.951472875551575"><ele>176.0</ele><time>2026-04-19T08:03:35.998Z</time></trkpt><trkpt lat="44.84840301017513" lon="9.951384920446193"><ele>176.0</ele><time>2026-04-19T08:03:36.998Z</time></trkpt><trkpt lat="44.84837306901966" lon="9.95129246533503"><ele>176.57142857142858</ele><time>2026-04-19T08:03:37.998Z</time></trkpt><trkpt lat="44.84834315359069" lon="9.951206531907316"><ele>177.14285714285714</ele><time>2026-04-19T08:03:38.998Z</time></trkpt><trkpt lat="44.84831509745" lon="9.951114389423655"><ele>177.71428571428572</ele><time>2026-04-19T08:03:39.998Z</time></trkpt><trkpt lat="44.84828483327259" lon="9.951026814450628"><ele>178.28571428571428</ele><time>2026-04-19T08:03:40.998Z</time></trkpt><trkpt lat="44.84825246664378" lon="9.950936434134045"><ele>178.85714285714286</ele><time>2026-04-19T08:03:41.998Z</time></trkpt><trkpt lat="44.848218734285226" lon="9.950853148287772"><ele>179.42857142857142</ele><time>2026-04-19T08:03:42.998Z</time></trkpt><trkpt lat="44.84818619561946" lon="9.950765904202948"><ele>180.0</ele><time>2026-04-19T08:03:43.998Z</time></trkpt><trkpt lat="44.8481573894366" lon="9.950671986386691"><ele>180.0</ele><time>2026-04-19T08:03:44.998Z</time></trkpt><trkpt lat="44.848127170222675" lon="9.950581262619371"><ele>180.0</ele><time>2026-04-19T08:03:45.998Z</time></trkpt><trkpt lat="44.84809830955798" lon="9.950493758891238"><ele>180.0</ele><time>2026-04-19T08:03:46.998Z</time></trkpt><trkpt lat="44.848067554807194" lon="9.950402773216469"><ele>180.0</ele><time>2026-04-19T08:03:47.998Z</time></trkpt><trkpt lat="44.84803674552623" lon="9.950315033311409"><ele>180.0</ele><time>2026-04-19T08:03:48.998Z</time></trkpt><trkpt lat="44.848007193080406" lon="9.950226676144936"><ele>180.0</ele><time>2026-04-19T08:03:49.998Z</time></trkpt><trkpt lat="44.8479810026923" lon="9.95013683592424"><ele>180.0</ele><time>2026-04-19T08:03:50.998Z</time></trkpt><trkpt lat="44.84794851573371" lon="9.950048609620996"><ele>178.83333333333334</ele><time>2026-04-19T08:03:51.998Z</time></trkpt><trkpt lat="44.8478947831436" lon="9.949879710096566"><ele>177.66666666666666</ele><time>2026-04-19T08:03:53.998Z</time></trkpt><trkpt lat="44.8478658620351" lon="9.949796872435215"><ele>176.5</ele><time>2026-04-19T08:03:54.998Z</time></trkpt><trkpt lat="44.84783234858331" lon="9.949709387742734"><ele>175.33333333333331</ele><time>2026-04-19T08:03:55.998Z</time></trkpt><trkpt lat="44.847798076307555" lon="9.949617092453437"><ele>174.16666666666666</ele><time>2026-04-19T08:03:57Z</time></trkpt><trkpt lat="44.847766741365575" lon="9.949529088293808"><ele>173.0</ele><time>2026-04-19T08:03:58Z</time></trkpt><trkpt lat="44.84773777514457" lon="9.949433334743144"><ele>173.0</ele><time>2026-04-19T08:03:59Z</time></trkpt><trkpt lat="44.84770266510957" lon="9.949342626442126"><ele>173.0</ele><time>2026-04-19T08:04:00Z</time></trkpt><trkpt lat="44.84766866476898" lon="9.949249637099335"><ele>173.0</ele><time>2026-04-19T08:04:00.999Z</time></trkpt><trkpt lat="44.84763924693251" lon="9.94915419361458"><ele>173.0</ele><time>2026-04-19T08:04:01.999Z</time></trkpt><trkpt lat="44.84760878161816" lon="9.949060761980055"><ele>173.0</ele><time>2026-04-19T08:04:03Z</time></trkpt><trkpt lat="44.84757483113691" lon="9.94897522714402"><ele>173.0</ele><time>2026-04-19T08:04:04Z</time></trkpt><trkpt lat="44.84754870928817" lon="9.94888379397481"><ele>173.0</ele><time>2026-04-19T08:04:05Z</time></trkpt><trkpt lat="44.84751443672037" lon="9.94879356114749"><ele>173.7142857142857</ele><time>2026-04-19T08:04:06Z</time></trkpt><trkpt lat="44.84748812388708" lon="9.948703828167265"><ele>174.42857142857144</ele><time>2026-04-19T08:04:07Z</time></trkpt><trkpt lat="44.84745479637016" lon="9.948614754456838"><ele>175.14285714285714</ele><time>2026-04-19T08:04:08Z</time></trkpt><trkpt lat="44.84742779599096" lon="9.948526498142575"><ele>175.85714285714283</ele><time>2026-04-19T08:04:09Z</time></trkpt><trkpt lat="44.84739970225541" lon="9.948435339648677"><ele>176.57142857142856</ele><time>2026-04-19T08:04:10Z</time></trkpt><trkpt lat="44.847372785495935" lon="9.948350229980395"><ele>177.28571428571428</ele><time>2026-04-19T08:04:11Z</time></trkpt><trkpt lat="44.84734182891909" lon="9.948259967034517"><ele>178.0</ele><time>2026-04-19T08:04:12Z</time></trkpt><trkpt lat="44.84730367122886" lon="9.948178708675142"><ele>177.99999999999997</ele><time>2026-04-19T08:04:13Z</time></trkpt><trkpt lat="44.84726992052869" lon="9.94809621659574"><ele>178.0</ele><time>2026-04-19T08:04:13.999Z</time></trkpt><trkpt lat="44.84723977712775" lon="9.948012339610631"><ele>178.0</ele><time>2026-04-19T08:04:14.999Z</time></trkpt><trkpt lat="44.84720390439677" lon="9.947931603419018"><ele>178.0</ele><time>2026-04-19T08:04:15.999Z</time></trkpt><trkpt lat="44.847172063396656" lon="9.947850424775588"><ele>178.0</ele><time>2026-04-19T08:04:16.999Z</time></trkpt><trkpt lat="44.84714411737451" lon="9.94776168289746"><ele>177.99999999999997</ele><time>2026-04-19T08:04:17.999Z</time></trkpt><trkpt lat="44.84711796074284" lon="9.94766914234"><ele>178.0</ele><time>2026-04-19T08:04:18.999Z</time></trkpt><trkpt lat="44.84709113667611" lon="9.947575282644754"><ele>178.0</ele><time>2026-04-19T08:04:19.999Z</time></trkpt><trkpt lat="44.84706206126285" lon="9.947475271310008"><ele>178.0</ele><time>2026-04-19T08:04:20.999Z</time></trkpt><trkpt lat="44.847021456212296" lon="9.947362769888981"><ele>178.0</ele><time>2026-04-19T08:04:21.999Z</time></trkpt><trkpt lat="44.84698402921306" lon="9.94723489499716"><ele>178.0</ele><time>2026-04-19T08:04:22.999Z</time></trkpt><trkpt lat="44.846942362189765" lon="9.947087383525911"><ele>178.0</ele><time>2026-04-19T08:04:23.999Z</time></trkpt><trkpt lat="44.84689510717037" lon="9.946940555439246"><ele>178.0</ele><time>2026-04-19T08:04:24.999Z</time></trkpt><trkpt lat="44.846849999341956" lon="9.946780764828944"><ele>178.0</ele><time>2026-04-19T08:04:25.999Z</time></trkpt><trkpt lat="44.84681203679159" lon="9.946618259766618"><ele>178.0</ele><time>2026-04-19T08:04:26.999Z</time></trkpt><trkpt lat="44.84676934028591" lon="9.946473683428023"><ele>178.0</ele><time>2026-04-19T08:04:27.999Z</time></trkpt><trkpt lat="44.84671405540207" lon="9.946342680490593"><ele>177.83333333333334</ele><time>2026-04-19T08:04:28.999Z</time></trkpt><trkpt lat="44.84664330408384" lon="9.946243038324523"><ele>177.66666666666669</ele><time>2026-04-19T08:04:29.999Z</time></trkpt><trkpt lat="44.84656227416688" lon="9.946175152203777"><ele>177.5</ele><time>2026-04-19T08:04:30.999Z</time></trkpt><trkpt lat="44.84647885787618" lon="9.94611983702778"><ele>177.33333333333334</ele><time>2026-04-19T08:04:31.999Z</time></trkpt><trkpt lat="44.84640429011114" lon="9.946067485071948"><ele>177.16666666666666</ele><time>2026-04-19T08:04:32.999Z</time></trkpt><trkpt lat="44.84633456379304" lon="9.946015872119553"><ele>177.0</ele><time>2026-04-19T08:04:33.999Z</time></trkpt><trkpt lat="44.84626246823041" lon="9.945969225100233"><ele>177.0</ele><time>2026-04-19T08:04:34.999Z</time></trkpt><trkpt lat="44.846190801277125" lon="9.945927871928575"><ele>177.0</ele><time>2026-04-19T08:04:35.999Z</time></trkpt><trkpt lat="44.846121772308095" lon="9.945886994375549"><ele>177.0</ele><time>2026-04-19T08:04:36.999Z</time></trkpt><trkpt lat="44.84605438149552" lon="9.945846247217675"><ele>177.0</ele><time>2026-04-19T08:04:37.999Z</time></trkpt><trkpt lat="44.84598066758328" lon="9.94583066493985"><ele>177.0</ele><time>2026-04-19T08:04:38.999Z</time></trkpt><trkpt lat="44.84591657364608" lon="9.945816740396852"><ele>177.0</ele><time>2026-04-19T08:04:39.999Z</time></trkpt><trkpt lat="44.845850944377396" lon="9.945807824199958"><ele>177.0</ele><time>2026-04-19T08:04:40.999Z</time></trkpt><trkpt lat="44.84573442092976" lon="9.9457806952204"><ele>178.6</ele><time>2026-04-19T08:04:42.999Z</time></trkpt><trkpt lat="44.84563520306686" lon="9.945772991491044"><ele>180.2</ele><time>2026-04-19T08:04:44.999Z</time></trkpt><trkpt lat="44.845548271205494" lon="9.945814758278987"><ele>181.8</ele><time>2026-04-19T08:04:46.999Z</time></trkpt><trkpt lat="44.845468554020606" lon="9.94584366109067"><ele>183.4</ele><time>2026-04-19T08:04:48.999Z</time></trkpt><trkpt lat="44.845393627437126" lon="9.945898450014926"><ele>185.0</ele><time>2026-04-19T08:04:50.999Z</time></trkpt><trkpt lat="44.84529844089431" lon="9.945993323160328"><ele>185.6</ele><time>2026-04-19T08:04:53.999Z</time></trkpt><trkpt lat="44.84522454655615" lon="9.946041654968564"><ele>186.2</ele><time>2026-04-19T08:04:55.999Z</time></trkpt><trkpt lat="44.845084985543096" lon="9.946190537686233"><ele>186.8</ele><time>2026-04-19T08:04:58.999Z</time></trkpt><trkpt lat="44.84500297862958" lon="9.946276117872978"><ele>187.4</ele><time>2026-04-19T08:05:00.999Z</time></trkpt><trkpt lat="44.84493833665406" lon="9.946347874206438"><ele>188.0</ele><time>2026-04-19T08:05:02.999Z</time></trkpt><trkpt lat="44.84485285082318" lon="9.946403910638438"><ele>188.5</ele><time>2026-04-19T08:05:05.999Z</time></trkpt><trkpt lat="44.84478231679533" lon="9.946323755302275"><ele>189.0</ele><time>2026-04-19T08:05:08.998Z</time></trkpt><trkpt lat="44.84475993463076" lon="9.946233648739824"><ele>189.5</ele><time>2026-04-19T08:05:10.998Z</time></trkpt><trkpt lat="44.844726986953766" lon="9.946142752050985"><ele>190.0</ele><time>2026-04-19T08:05:12.998Z</time></trkpt><trkpt lat="44.8446935277862" lon="9.94606109068769"><ele>190.5</ele><time>2026-04-19T08:05:14.998Z</time></trkpt><trkpt lat="44.84466111566881" lon="9.945964674038155"><ele>191.0</ele><time>2026-04-19T08:05:16.998Z</time></trkpt><trkpt lat="44.844615350002236" lon="9.945864061594328"><ele>191.33333333333331</ele><time>2026-04-19T08:05:18.998Z</time></trkpt><trkpt lat="44.84457904258512" lon="9.945772054947112"><ele>191.66666666666666</ele><time>2026-04-19T08:05:20.998Z</time></trkpt><trkpt lat="44.84454284458224" lon="9.945662380352262"><ele>192.0</ele><time>2026-04-19T08:05:22.998Z</time></trkpt><trkpt lat="44.84450630996879" lon="9.94555487527325"><ele>192.33333333333331</ele><time>2026-04-19T08:05:24.998Z</time></trkpt><trkpt lat="44.8444684427546" lon="9.94544741212224"><ele>192.66666666666666</ele><time>2026-04-19T08:05:26.998Z</time></trkpt><trkpt lat="44.84443034301716" lon="9.945335986140014"><ele>193.0</ele><time>2026-04-19T08:05:28.998Z</time></trkpt><trkpt lat="44.84439104609316" lon="9.945229654006004"><ele>193.0</ele><time>2026-04-19T08:05:30.998Z</time></trkpt><trkpt lat="44.84434966595143" lon="9.945123221708853"><ele>193.0</ele><time>2026-04-19T08:05:32.998Z</time></trkpt><trkpt lat="44.84432350781388" lon="9.945034063057147"><ele>193.0</ele><time>2026-04-19T08:05:34.998Z</time></trkpt><trkpt lat="44.84428990586264" lon="9.944948507006373"><ele>193.0</ele><time>2026-04-19T08:05:36.998Z</time></trkpt><trkpt lat="44.84424790916149" lon="9.944847568059046"><ele>193.0</ele><time>2026-04-19T08:05:38.998Z</time></trkpt><trkpt lat="44.84416660716176" lon="9.944643090043197"><ele>193.66666666666666</ele><time>2026-04-19T08:05:41.998Z</time></trkpt><trkpt lat="44.84410538477187" lon="9.944561341715323"><ele>194.33333333333331</ele><time>2026-04-19T08:05:43.998Z</time></trkpt><trkpt lat="44.844040446069286" lon="9.944482417290141"><ele>195.0</ele><time>2026-04-19T08:05:45.998Z</time></trkpt><trkpt lat="44.84397880385108" lon="9.944407766912702"><ele>195.66666666666669</ele><time>2026-04-19T08:05:47.998Z</time></trkpt><trkpt lat="44.843915447182475" lon="9.944335545003664"><ele>196.33333333333334</ele><time>2026-04-19T08:05:49.998Z</time></trkpt><trkpt lat="44.84385138159945" lon="9.944262881476993"><ele>197.0</ele><time>2026-04-19T08:05:51.998Z</time></trkpt><trkpt lat="44.84378637967051" lon="9.94419277088743"><ele>197.16666666666669</ele><time>2026-04-19T08:05:53.998Z</time></trkpt><trkpt lat="44.84372354668972" lon="9.94412667438683"><ele>197.33333333333334</ele><time>2026-04-19T08:05:55.998Z</time></trkpt><trkpt lat="44.84366180968419" lon="9.944066311569129"><ele>197.5</ele><time>2026-04-19T08:05:57.998Z</time></trkpt><trkpt lat="44.84357596506456" lon="9.944004647601979"><ele>197.66666666666669</ele><time>2026-04-19T08:05:59.998Z</time></trkpt><trkpt lat="44.84350655209046" lon="9.94393890523785"><ele>197.83333333333334</ele><time>2026-04-19T08:06:01.998Z</time></trkpt><trkpt lat="44.84344199098031" lon="9.943886530237753"><ele>198.0</ele><time>2026-04-19T08:06:04Z</time></trkpt><trkpt lat="44.84337012335736" lon="9.943826605277497"><ele>197.60000000000002</ele><time>2026-04-19T08:06:06Z</time></trkpt><trkpt lat="44.843301260881866" lon="9.943765420434833"><ele>197.20000000000002</ele><time>2026-04-19T08:06:08Z</time></trkpt><trkpt lat="44.84319572718709" lon="9.943669684709326"><ele>196.8</ele><time>2026-04-19T08:06:11Z</time></trkpt><trkpt lat="44.84313395891914" lon="9.943603631483743"><ele>196.4</ele><time>2026-04-19T08:06:14Z</time></trkpt><trkpt lat="44.843060477460604" lon="9.94349193486638"><ele>196.0</ele><time>2026-04-19T08:06:16Z</time></trkpt><trkpt lat="44.84300617086684" lon="9.943413843893538"><ele>195.83333333333331</ele><time>2026-04-19T08:06:17.999Z</time></trkpt><trkpt lat="44.84295247040085" lon="9.943340504437648"><ele>195.66666666666666</ele><time>2026-04-19T08:06:19.999Z</time></trkpt><trkpt lat="44.84290133678501" lon="9.943253401201545"><ele>195.5</ele><time>2026-04-19T08:06:21.999Z</time></trkpt><trkpt lat="44.842853774356804" lon="9.943159149819632"><ele>195.33333333333331</ele><time>2026-04-19T08:06:23.999Z</time></trkpt><trkpt lat="44.84280332328478" lon="9.9430657979246"><ele>195.16666666666666</ele><time>2026-04-19T08:06:25.999Z</time></trkpt><trkpt lat="44.84275365226504" lon="9.942962487393682"><ele>195.0</ele><time>2026-04-19T08:06:27.999Z</time></trkpt><trkpt lat="44.84270339170849" lon="9.94284271935941"><ele>195.16666666666666</ele><time>2026-04-19T08:06:29.999Z</time></trkpt><trkpt lat="44.842628708623785" lon="9.942736493533369"><ele>195.33333333333331</ele><time>2026-04-19T08:06:31.999Z</time></trkpt><trkpt lat="44.84259914468788" lon="9.942652137567968"><ele>195.5</ele><time>2026-04-19T08:06:33.999Z</time></trkpt><trkpt lat="44.84257246536568" lon="9.942563582954742"><ele>195.66666666666666</ele><time>2026-04-19T08:06:34.999Z</time></trkpt><trkpt lat="44.84251533951317" lon="9.942441157916573"><ele>195.83333333333331</ele><time>2026-04-19T08:06:36.999Z</time></trkpt><trkpt lat="44.842461145254696" lon="9.942324167672348"><ele>196.0</ele><time>2026-04-19T08:06:38.999Z</time></trkpt><trkpt lat="44.842393710938886" lon="9.942195275318383"><ele>197.0</ele><time>2026-04-19T08:06:40.999Z</time></trkpt><trkpt lat="44.84234570327473" lon="9.942085673712397"><ele>198.0</ele><time>2026-04-19T08:06:42.999Z</time></trkpt><trkpt lat="44.842291774329" lon="9.941958841876769"><ele>199.0</ele><time>2026-04-19T08:06:44.999Z</time></trkpt><trkpt lat="44.84224076919839" lon="9.941852182991864"><ele>200.0</ele><time>2026-04-19T08:06:46.999Z</time></trkpt><trkpt lat="44.84219192099593" lon="9.941746679750942"><ele>201.0</ele><time>2026-04-19T08:06:48.999Z</time></trkpt><trkpt lat="44.84214621903022" lon="9.941642637442586"><ele>201.20000000000002</ele><time>2026-04-19T08:06:50.999Z</time></trkpt><trkpt lat="44.842091148192836" lon="9.941537100252903"><ele>201.4</ele><time>2026-04-19T08:06:52.999Z</time></trkpt><trkpt lat="44.84203188846123" lon="9.941428666604656"><ele>201.6</ele><time>2026-04-19T08:06:54.999Z</time></trkpt><trkpt lat="44.841983082438794" lon="9.941316533419261"><ele>201.8</ele><time>2026-04-19T08:06:56.999Z</time></trkpt><trkpt lat="44.841940021117644" lon="9.941217292183362"><ele>202.0</ele><time>2026-04-19T08:06:58.999Z</time></trkpt><trkpt lat="44.84188409236628" lon="9.941098677640662"><ele>202.0</ele><time>2026-04-19T08:07:00.999Z</time></trkpt><trkpt lat="44.8418351898872" lon="9.940991733399203"><ele>202.0</ele><time>2026-04-19T08:07:02.999Z</time></trkpt><trkpt lat="44.84179034046477" lon="9.940877809900625"><ele>202.0</ele><time>2026-04-19T08:07:04.999Z</time></trkpt><trkpt lat="44.8417435218419" lon="9.940767328975227"><ele>202.0</ele><time>2026-04-19T08:07:06.999Z</time></trkpt><trkpt lat="44.841693766908996" lon="9.940655945049208"><ele>202.0</ele><time>2026-04-19T08:07:08.999Z</time></trkpt><trkpt lat="44.84164560496865" lon="9.940541474007327"><ele>201.66666666666666</ele><time>2026-04-19T08:07:10.999Z</time></trkpt><trkpt lat="44.84159397057008" lon="9.940440324607648"><ele>201.33333333333331</ele><time>2026-04-19T08:07:12.998Z</time></trkpt><trkpt lat="44.841548865820464" lon="9.940338861540127"><ele>201.0</ele><time>2026-04-19T08:07:14.998Z</time></trkpt><trkpt lat="44.84150473438216" lon="9.940231349288137"><ele>200.66666666666669</ele><time>2026-04-19T08:07:16.998Z</time></trkpt><trkpt lat="44.841457660810846" lon="9.940123161254764"><ele>200.33333333333334</ele><time>2026-04-19T08:07:18.998Z</time></trkpt><trkpt lat="44.841408796414825" lon="9.940021953846992"><ele>200.0</ele><time>2026-04-19T08:07:20.998Z</time></trkpt><trkpt lat="44.841359614307144" lon="9.93991442235296"><ele>200.8</ele><time>2026-04-19T08:07:22.998Z</time></trkpt><trkpt lat="44.84131134840427" lon="9.939804914017932"><ele>201.6</ele><time>2026-04-19T08:07:24.998Z</time></trkpt><trkpt lat="44.84126583153019" lon="9.939695051731576"><ele>202.39999999999998</ele><time>2026-04-19T08:07:26.998Z</time></trkpt><trkpt lat="44.841214719909686" lon="9.939585708134553"><ele>203.2</ele><time>2026-04-19T08:07:28.998Z</time></trkpt><trkpt lat="44.84116404603274" lon="9.93947520960899"><ele>204.0</ele><time>2026-04-19T08:07:30.998Z</time></trkpt><trkpt lat="44.841117495587184" lon="9.939360984688305"><ele>204.0</ele><time>2026-04-19T08:07:32.998Z</time></trkpt><trkpt lat="44.841066277448384" lon="9.939242761103406"><ele>204.0</ele><time>2026-04-19T08:07:34.998Z</time></trkpt><trkpt lat="44.841009742572815" lon="9.93912584653903"><ele>204.0</ele><time>2026-04-19T08:07:36.998Z</time></trkpt><trkpt lat="44.84095370262985" lon="9.939010487475871"><ele>204.0</ele><time>2026-04-19T08:07:38.998Z</time></trkpt><trkpt lat="44.84090372511744" lon="9.93888680899808"><ele>204.0</ele><time>2026-04-19T08:07:40.998Z</time></trkpt><trkpt lat="44.84085030046579" lon="9.938768270914585"><ele>204.2</ele><time>2026-04-19T08:07:42.998Z</time></trkpt><trkpt lat="44.84079925222446" lon="9.93865271431613"><ele>204.39999999999998</ele><time>2026-04-19T08:07:44.998Z</time></trkpt><trkpt lat="44.84075323112037" lon="9.938535693535972"><ele>204.6</ele><time>2026-04-19T08:07:46.998Z</time></trkpt><trkpt lat="44.840710363919705" lon="9.938426657718262"><ele>204.8</ele><time>2026-04-19T08:07:48.998Z</time></trkpt><trkpt lat="44.84066776688557" lon="9.938315433138026"><ele>205.0</ele><time>2026-04-19T08:07:50.998Z</time></trkpt><trkpt lat="44.84063316610248" lon="9.938208158940832"><ele>204.99999999999997</ele><time>2026-04-19T08:07:52.998Z</time></trkpt><trkpt lat="44.84060660096053" lon="9.93809146441768"><ele>205.0</ele><time>2026-04-19T08:07:54.998Z</time></trkpt><trkpt lat="44.84059121600226" lon="9.937976054774394"><ele>205.0</ele><time>2026-04-19T08:07:56.998Z</time></trkpt><trkpt lat="44.8405875390533" lon="9.937860528106116"><ele>205.0</ele><time>2026-04-19T08:07:58.998Z</time></trkpt><trkpt lat="44.84057769090471" lon="9.93775853353014"><ele>204.99999999999997</ele><time>2026-04-19T08:08:00.998Z</time></trkpt><trkpt lat="44.840567399599" lon="9.937652620270807"><ele>205.0</ele><time>2026-04-19T08:08:02.998Z</time></trkpt><trkpt lat="44.84055579110438" lon="9.937543907905486"><ele>205.66666666666666</ele><time>2026-04-19T08:08:04.998Z</time></trkpt><trkpt lat="44.84053227583957" lon="9.937436597837896"><ele>206.33333333333331</ele><time>2026-04-19T08:08:06.997Z</time></trkpt><trkpt lat="44.840507330630565" lon="9.93732699349479"><ele>207.0</ele><time>2026-04-19T08:08:08.999Z</time></trkpt><trkpt lat="44.840479202696706" lon="9.93720601178258"><ele>207.66666666666669</ele><time>2026-04-19T08:08:11.999Z</time></trkpt><trkpt lat="44.84044103269949" lon="9.937049336113315"><ele>208.33333333333334</ele><time>2026-04-19T08:08:14.999Z</time></trkpt><trkpt lat="44.8404157639687" lon="9.936943619091045"><ele>209.0</ele><time>2026-04-19T08:08:16.999Z</time></trkpt><trkpt lat="44.84039159202031" lon="9.936830331745607"><ele>209.39999999999998</ele><time>2026-04-19T08:08:18.999Z</time></trkpt><trkpt lat="44.8403713361686" lon="9.93669261450198"><ele>209.8</ele><time>2026-04-19T08:08:19.999Z</time></trkpt><trkpt lat="44.840356405105105" lon="9.936570622627292"><ele>210.2</ele><time>2026-04-19T08:08:21.999Z</time></trkpt><trkpt lat="44.840337811716466" lon="9.936445894711344"><ele>210.60000000000002</ele><time>2026-04-19T08:08:23.999Z</time></trkpt><trkpt lat="44.84032208784903" lon="9.93632105079566"><ele>211.0</ele><time>2026-04-19T08:08:25.999Z</time></trkpt><trkpt lat="44.84030194024318" lon="9.936196472767005"><ele>210.99999999999997</ele><time>2026-04-19T08:08:27.999Z</time></trkpt><trkpt lat="44.84027794064369" lon="9.936078519524589"><ele>211.0</ele><time>2026-04-19T08:08:29.999Z</time></trkpt><trkpt lat="44.840252057242495" lon="9.935969011743763"><ele>211.0</ele><time>2026-04-19T08:08:31.999Z</time></trkpt><trkpt lat="44.84022365390809" lon="9.935872827644651"><ele>211.0</ele><time>2026-04-19T08:08:33.999Z</time></trkpt><trkpt lat="44.84019020144948" lon="9.935778447129683"><ele>210.99999999999997</ele><time>2026-04-19T08:08:35.999Z</time></trkpt><trkpt lat="44.840145699610055" lon="9.935675093511017"><ele>211.0</ele><time>2026-04-19T08:08:38.999Z</time></trkpt><trkpt lat="44.84011031293076" lon="9.93559316134164"><ele>210.83333333333331</ele><time>2026-04-19T08:08:40.999Z</time></trkpt><trkpt lat="44.84006420803986" lon="9.93548336325453"><ele>210.66666666666666</ele><time>2026-04-19T08:08:43.999Z</time></trkpt><trkpt lat="44.840020281249465" lon="9.935398183561006"><ele>210.5</ele><time>2026-04-19T08:08:45.999Z</time></trkpt><trkpt lat="44.839978295989184" lon="9.935323641502507"><ele>210.33333333333331</ele><time>2026-04-19T08:08:47.999Z</time></trkpt><trkpt lat="44.8399334627288" lon="9.935251515493528"><ele>210.16666666666666</ele><time>2026-04-19T08:08:49.999Z</time></trkpt><trkpt lat="44.8398830084379" lon="9.935156783316067"><ele>210.0</ele><time>2026-04-19T08:08:52.999Z</time></trkpt><trkpt lat="44.83983184278372" lon="9.935045469862974"><ele>211.14285714285714</ele><time>2026-04-19T08:08:55.999Z</time></trkpt><trkpt lat="44.839796332066776" lon="9.934961993568043"><ele>212.28571428571428</ele><time>2026-04-19T08:08:57.999Z</time></trkpt><trkpt lat="44.839765537240744" lon="9.934871782037469"><ele>213.42857142857144</ele><time>2026-04-19T08:08:59.999Z</time></trkpt><trkpt lat="44.83975744565305" lon="9.934775856194566"><ele>214.57142857142856</ele><time>2026-04-19T08:09:01.999Z</time></trkpt><trkpt lat="44.8397714190095" lon="9.934678623118714"><ele>215.71428571428572</ele><time>2026-04-19T08:09:03.999Z</time></trkpt><trkpt lat="44.83980852639557" lon="9.934601092268695"><ele>216.85714285714286</ele><time>2026-04-19T08:09:05.999Z</time></trkpt><trkpt lat="44.839869944817664" lon="9.934502887143637"><ele>218.0</ele><time>2026-04-19T08:09:07.999Z</time></trkpt><trkpt lat="44.83994620623086" lon="9.93444637566402"><ele>218.00000000000003</ele><time>2026-04-19T08:09:10.999Z</time></trkpt><trkpt lat="44.84002068481485" lon="9.934391359664525"><ele>218.0</ele><time>2026-04-19T08:09:13.999Z</time></trkpt><trkpt lat="44.84009583784188" lon="9.934345752869039"><ele>218.0</ele><time>2026-04-19T08:09:16.999Z</time></trkpt><trkpt lat="44.840169233769736" lon="9.934296161339308"><ele>218.0</ele><time>2026-04-19T08:09:19.998Z</time></trkpt><trkpt lat="44.840228880193976" lon="9.934211058894968"><ele>218.00000000000003</ele><time>2026-04-19T08:09:23.998Z</time></trkpt><trkpt lat="44.84024718031855" lon="9.934107099152968"><ele>218.0</ele><time>2026-04-19T08:09:26.998Z</time></trkpt><trkpt lat="44.84022668571548" lon="9.933991894637503"><ele>217.50000000000003</ele><time>2026-04-19T08:09:29.998Z</time></trkpt><trkpt lat="44.8401841711268" lon="9.933892999693077"><ele>217.0</ele><time>2026-04-19T08:09:32.998Z</time></trkpt><trkpt lat="44.84013867302231" lon="9.933793835309189"><ele>216.5</ele><time>2026-04-19T08:09:35.998Z</time></trkpt><trkpt lat="44.84009165340706" lon="9.933691194721165"><ele>216.0</ele><time>2026-04-19T08:09:37.998Z</time></trkpt><trkpt lat="44.840059137356675" lon="9.933614674845844"><ele>215.50000000000003</ele><time>2026-04-19T08:09:40.998Z</time></trkpt><trkpt lat="44.84002156993756" lon="9.933528351959351"><ele>215.0</ele><time>2026-04-19T08:09:42.998Z</time></trkpt><trkpt lat="44.839983224486424" lon="9.933430603139497"><ele>217.00000000000003</ele><time>2026-04-19T08:09:45.998Z</time></trkpt><trkpt lat="44.839945415493744" lon="9.933339186320618"><ele>219.0</ele><time>2026-04-19T08:09:47.998Z</time></trkpt><trkpt lat="44.839914540179485" lon="9.93324342090564"><ele>221.0</ele><time>2026-04-19T08:09:50.998Z</time></trkpt><trkpt lat="44.83988003638316" lon="9.933145998220134"><ele>223.0</ele><time>2026-04-19T08:09:53.998Z</time></trkpt><trkpt lat="44.83985131178317" lon="9.933051487277137"><ele>225.00000000000003</ele><time>2026-04-19T08:09:55.998Z</time></trkpt><trkpt lat="44.8398284984033" lon="9.932939248010275"><ele>227.0</ele><time>2026-04-19T08:09:58.999Z</time></trkpt><trkpt lat="44.839808785698736" lon="9.932827450184389"><ele>227.00000000000003</ele><time>2026-04-19T08:10:01.999Z</time></trkpt><trkpt lat="44.839785044287744" lon="9.932706622656955"><ele>227.0</ele><time>2026-04-19T08:10:04.999Z</time></trkpt><trkpt lat="44.839770393507784" lon="9.932600267382846"><ele>227.0</ele><time>2026-04-19T08:10:06.999Z</time></trkpt><trkpt lat="44.83976315446815" lon="9.932485410816852"><ele>227.0</ele><time>2026-04-19T08:10:10.999Z</time></trkpt><trkpt lat="44.839753801117475" lon="9.932368216271067"><ele>227.00000000000003</ele><time>2026-04-19T08:10:13.998Z</time></trkpt><trkpt lat="44.83973987605216" lon="9.93221791068375"><ele>227.0</ele><time>2026-04-19T08:10:17Z</time></trkpt><trkpt lat="44.839727756582725" lon="9.932097636668432"><ele>227.00000000000003</ele><time>2026-04-19T08:10:19Z</time></trkpt><trkpt lat="44.83971957045105" lon="9.931987692984107"><ele>227.0</ele><time>2026-04-19T08:10:21Z</time></trkpt><trkpt lat="44.83970571811644" lon="9.931884938236244"><ele>227.0</ele><time>2026-04-19T08:10:23Z</time></trkpt><trkpt lat="44.839692136162874" lon="9.931729258120553"><ele>227.0</ele><time>2026-04-19T08:10:25Z</time></trkpt><trkpt lat="44.83967839823921" lon="9.931598285071338"><ele>227.00000000000003</ele><time>2026-04-19T08:10:27Z</time></trkpt><trkpt lat="44.83966681119139" lon="9.93147055563778"><ele>227.0</ele><time>2026-04-19T08:10:29Z</time></trkpt><trkpt lat="44.83966046156466" lon="9.931339919844849"><ele>227.0</ele><time>2026-04-19T08:10:31Z</time></trkpt><trkpt lat="44.83966135947486" lon="9.93121492316988"><ele>227.0</ele><time>2026-04-19T08:10:33Z</time></trkpt><trkpt lat="44.8396616163854" lon="9.931077634016852"><ele>227.0</ele><time>2026-04-19T08:10:35Z</time></trkpt><trkpt lat="44.83965737104444" lon="9.930956760290004"><ele>227.0</ele><time>2026-04-19T08:10:37Z</time></trkpt><trkpt lat="44.839660075200136" lon="9.93082292178296"><ele>227.0</ele><time>2026-04-19T08:10:39Z</time></trkpt><trkpt lat="44.83966618434622" lon="9.930696125284223"><ele>227.16666666666669</ele><time>2026-04-19T08:10:41Z</time></trkpt><trkpt lat="44.83967368494508" lon="9.930571415944405"><ele>227.33333333333334</ele><time>2026-04-19T08:10:43Z</time></trkpt><trkpt lat="44.83967664336628" lon="9.930454915228834"><ele>227.5</ele><time>2026-04-19T08:10:45Z</time></trkpt><trkpt lat="44.83968078832587" lon="9.930333546532763"><ele>227.66666666666669</ele><time>2026-04-19T08:10:47Z</time></trkpt><trkpt lat="44.83968104185838" lon="9.93021759315483"><ele>227.83333333333334</ele><time>2026-04-19T08:10:49Z</time></trkpt><trkpt lat="44.839683214156246" lon="9.930106583762845"><ele>228.0</ele><time>2026-04-19T08:10:51Z</time></trkpt><trkpt lat="44.83968362270444" lon="9.929993306150235"><ele>228.0</ele><time>2026-04-19T08:10:53Z</time></trkpt><trkpt lat="44.83966878685131" lon="9.92987678570948"><ele>228.0</ele><time>2026-04-19T08:10:55Z</time></trkpt><trkpt lat="44.83965626562443" lon="9.92976839108303"><ele>228.0</ele><time>2026-04-19T08:10:57Z</time></trkpt><trkpt lat="44.839645466417004" lon="9.929658738971593"><ele>228.0</ele><time>2026-04-19T08:10:59Z</time></trkpt><trkpt lat="44.83963363582095" lon="9.929554806444596"><ele>228.0</ele><time>2026-04-19T08:11:01Z</time></trkpt><trkpt lat="44.83962600437197" lon="9.929450449981873"><ele>228.0</ele><time>2026-04-19T08:11:03Z</time></trkpt><trkpt lat="44.83961759970682" lon="9.929347660352526"><ele>228.0</ele><time>2026-04-19T08:11:05Z</time></trkpt><trkpt lat="44.839605791417156" lon="9.92923945499221"><ele>228.0</ele><time>2026-04-19T08:11:07Z</time></trkpt><trkpt lat="44.83959875641421" lon="9.929127096386235"><ele>228.0</ele><time>2026-04-19T08:11:09Z</time></trkpt><trkpt lat="44.83958771657713" lon="9.928998122060795"><ele>228.0</ele><time>2026-04-19T08:11:11Z</time></trkpt><trkpt lat="44.839573107549214" lon="9.928856715137483"><ele>228.0</ele><time>2026-04-19T08:11:13Z</time></trkpt><trkpt lat="44.83956869110793" lon="9.928702124826865"><ele>228.2</ele><time>2026-04-19T08:11:15Z</time></trkpt><trkpt lat="44.839559829462274" lon="9.92853956868766"><ele>228.4</ele><time>2026-04-19T08:11:17Z</time></trkpt><trkpt lat="44.83951197670831" lon="9.92838362755753"><ele>228.59999999999997</ele><time>2026-04-19T08:11:19Z</time></trkpt><trkpt lat="44.83946616799131" lon="9.928222226207009"><ele>228.79999999999998</ele><time>2026-04-19T08:11:20.999Z</time></trkpt><trkpt lat="44.83943615968058" lon="9.928139606729776"><ele>229.0</ele><time>2026-04-19T08:11:21.999Z</time></trkpt><trkpt lat="44.839397872660975" lon="9.92805344507251"><ele>228.83333333333331</ele><time>2026-04-19T08:11:22.999Z</time></trkpt><trkpt lat="44.839368512653564" lon="9.927961948254078"><ele>228.66666666666666</ele><time>2026-04-19T08:11:23.999Z</time></trkpt><trkpt lat="44.83933833546422" lon="9.92786726772639"><ele>228.5</ele><time>2026-04-19T08:11:24.999Z</time></trkpt><trkpt lat="44.83930385670141" lon="9.927768347343177"><ele>228.33333333333331</ele><time>2026-04-19T08:11:25.999Z</time></trkpt><trkpt lat="44.83927078890674" lon="9.92766485152262"><ele>228.16666666666666</ele><time>2026-04-19T08:11:26.999Z</time></trkpt><trkpt lat="44.83923579620777" lon="9.927560543354977"><ele>228.0</ele><time>2026-04-19T08:11:27.999Z</time></trkpt><trkpt lat="44.83920064192684" lon="9.927454295911726"><ele>227.8</ele><time>2026-04-19T08:11:28.999Z</time></trkpt><trkpt lat="44.83916900369312" lon="9.927340771557972"><ele>227.60000000000002</ele><time>2026-04-19T08:11:29.999Z</time></trkpt><trkpt lat="44.8391313150411" lon="9.927224517930032"><ele>227.39999999999998</ele><time>2026-04-19T08:11:30.999Z</time></trkpt><trkpt lat="44.83909136780348" lon="9.927108193410902"><ele>227.2</ele><time>2026-04-19T08:11:31.999Z</time></trkpt><trkpt lat="44.839059364382074" lon="9.926991879309565"><ele>227.0</ele><time>2026-04-19T08:11:32.999Z</time></trkpt><trkpt lat="44.839021856089914" lon="9.926870597423328"><ele>227.0</ele><time>2026-04-19T08:11:33.999Z</time></trkpt><trkpt lat="44.83897812102837" lon="9.926744164363487"><ele>227.0</ele><time>2026-04-19T08:11:34.999Z</time></trkpt><trkpt lat="44.83893264379856" lon="9.926616714468693"><ele>227.0</ele><time>2026-04-19T08:11:35.999Z</time></trkpt><trkpt lat="44.838889602301705" lon="9.926486476818024"><ele>227.0</ele><time>2026-04-19T08:11:36.999Z</time></trkpt><trkpt lat="44.8388545511549" lon="9.926347482405925"><ele>227.0</ele><time>2026-04-19T08:11:37.999Z</time></trkpt><trkpt lat="44.838810911958305" lon="9.926222714991093"><ele>225.66666666666669</ele><time>2026-04-19T08:11:38.999Z</time></trkpt><trkpt lat="44.83876553166747" lon="9.92610788898653"><ele>224.33333333333334</ele><time>2026-04-19T08:11:39.999Z</time></trkpt><trkpt lat="44.83871613549431" lon="9.92600696005095"><ele>223.0</ele><time>2026-04-19T08:11:40.999Z</time></trkpt><trkpt lat="44.838662269025356" lon="9.925919434873475"><ele>221.66666666666669</ele><time>2026-04-19T08:11:41.999Z</time></trkpt><trkpt lat="44.83861102189378" lon="9.925841458101134"><ele>220.33333333333334</ele><time>2026-04-19T08:11:42.999Z</time></trkpt><trkpt lat="44.83855819927215" lon="9.925768296032585"><ele>219.0</ele><time>2026-04-19T08:11:43.999Z</time></trkpt><trkpt lat="44.83850894267184" lon="9.925700106381028"><ele>219.16666666666666</ele><time>2026-04-19T08:11:44.999Z</time></trkpt><trkpt lat="44.83846214911967" lon="9.925630927268697"><ele>219.33333333333331</ele><time>2026-04-19T08:11:45.999Z</time></trkpt><trkpt lat="44.83841775248582" lon="9.92555739120124"><ele>219.5</ele><time>2026-04-19T08:11:46.999Z</time></trkpt><trkpt lat="44.83837838663361" lon="9.925484364244454"><ele>219.66666666666666</ele><time>2026-04-19T08:11:47.999Z</time></trkpt><trkpt lat="44.83834024322884" lon="9.925411850675198"><ele>219.83333333333331</ele><time>2026-04-19T08:11:48.999Z</time></trkpt><trkpt lat="44.83828229458101" lon="9.925266529815952"><ele>220.0</ele><time>2026-04-19T08:11:50.999Z</time></trkpt><trkpt lat="44.838258581396076" lon="9.925118591262068"><ele>219.33333333333331</ele><time>2026-04-19T08:11:52.999Z</time></trkpt><trkpt lat="44.8382576344245" lon="9.924974180862211"><ele>218.66666666666666</ele><time>2026-04-19T08:11:54.999Z</time></trkpt><trkpt lat="44.83826712436626" lon="9.924808779055418"><ele>218.0</ele><time>2026-04-19T08:11:56.999Z</time></trkpt><trkpt lat="44.83826508900673" lon="9.924709411438347"><ele>217.33333333333331</ele><time>2026-04-19T08:11:57.999Z</time></trkpt><trkpt lat="44.838268207723836" lon="9.924609030697257"><ele>216.66666666666666</ele><time>2026-04-19T08:11:58.999Z</time></trkpt><trkpt lat="44.83826183383582" lon="9.924506708302516"><ele>216.0</ele><time>2026-04-19T08:11:59.999Z</time></trkpt><trkpt lat="44.83824052973169" lon="9.924407592664812"><ele>216.0</ele><time>2026-04-19T08:12:00.999Z</time></trkpt><trkpt lat="44.838211877156" lon="9.92431102798545"><ele>216.0</ele><time>2026-04-19T08:12:01.999Z</time></trkpt><trkpt lat="44.838183370085396" lon="9.9242099021671"><ele>216.0</ele><time>2026-04-19T08:12:02.999Z</time></trkpt><trkpt lat="44.83815331437149" lon="9.924108874801668"><ele>216.0</ele><time>2026-04-19T08:12:03.999Z</time></trkpt><trkpt lat="44.83812662512481" lon="9.924016929153883"><ele>216.0</ele><time>2026-04-19T08:12:04.999Z</time></trkpt><trkpt lat="44.8380994617292" lon="9.923855640819268"><ele>216.0</ele><time>2026-04-19T08:12:06.999Z</time></trkpt><trkpt lat="44.83811730212963" lon="9.923767362750922"><ele>215.33333333333334</ele><time>2026-04-19T08:12:07.999Z</time></trkpt><trkpt lat="44.83816023239555" lon="9.923693227928291"><ele>214.66666666666669</ele><time>2026-04-19T08:12:08.999Z</time></trkpt><trkpt lat="44.83823218207122" lon="9.923654531532891"><ele>214.0</ele><time>2026-04-19T08:12:09.999Z</time></trkpt><trkpt lat="44.83831492979756" lon="9.923661606321474"><ele>213.33333333333334</ele><time>2026-04-19T08:12:10.999Z</time></trkpt><trkpt lat="44.83839245090943" lon="9.923705829335157"><ele>212.66666666666669</ele><time>2026-04-19T08:12:11.999Z</time></trkpt><trkpt lat="44.838461940238204" lon="9.923777302191892"><ele>212.0</ele><time>2026-04-19T08:12:12.999Z</time></trkpt><trkpt lat="44.83853284641316" lon="9.92385652206088"><ele>208.6</ele><time>2026-04-19T08:12:13.999Z</time></trkpt><trkpt lat="44.83860565955305" lon="9.923938256446217"><ele>205.2</ele><time>2026-04-19T08:12:14.998Z</time></trkpt><trkpt lat="44.838688452325506" lon="9.92401588203649"><ele>201.8</ele><time>2026-04-19T08:12:15.998Z</time></trkpt><trkpt lat="44.83877071926141" lon="9.924103426325226"><ele>198.4</ele><time>2026-04-19T08:12:16.998Z</time></trkpt><trkpt lat="44.838850414032564" lon="9.924187084594095"><ele>195.0</ele><time>2026-04-19T08:12:17.998Z</time></trkpt><trkpt lat="44.838920517171836" lon="9.924255586607403"><ele>195.0</ele><time>2026-04-19T08:12:18.998Z</time></trkpt><trkpt lat="44.8389764931864" lon="9.924366762107791"><ele>195.0</ele><time>2026-04-19T08:12:19.998Z</time></trkpt><trkpt lat="44.839033789424114" lon="9.924418796750984"><ele>195.0</ele><time>2026-04-19T08:12:21Z</time></trkpt><trkpt lat="44.839102636653074" lon="9.924455691233698"><ele>195.0</ele><time>2026-04-19T08:12:22Z</time></trkpt><trkpt lat="44.83918014281005" lon="9.924429197525987"><ele>195.0</ele><time>2026-04-19T08:12:23Z</time></trkpt><trkpt lat="44.83922613325327" lon="9.924282869186632"><ele>195.0</ele><time>2026-04-19T08:12:24Z</time></trkpt><trkpt lat="44.839244574732874" lon="9.924152712649253"><ele>194.8</ele><time>2026-04-19T08:12:25Z</time></trkpt><trkpt lat="44.83924161106973" lon="9.924019949938826"><ele>194.6</ele><time>2026-04-19T08:12:26Z</time></trkpt><trkpt lat="44.8392435824526" lon="9.92388081802621"><ele>194.39999999999998</ele><time>2026-04-19T08:12:27Z</time></trkpt><trkpt lat="44.83925809294935" lon="9.92373498450876"><ele>194.2</ele><time>2026-04-19T08:12:28Z</time></trkpt><trkpt lat="44.83926977915781" lon="9.923584506610531"><ele>194.0</ele><time>2026-04-19T08:12:29Z</time></trkpt><trkpt lat="44.83929428847986" lon="9.923434140469176"><ele>189.0</ele><time>2026-04-19T08:12:30Z</time></trkpt><trkpt lat="44.83932871715797" lon="9.923290882503405"><ele>184.0</ele><time>2026-04-19T08:12:31Z</time></trkpt><trkpt lat="44.83936596793495" lon="9.923154932508783"><ele>179.0</ele><time>2026-04-19T08:12:32Z</time></trkpt><trkpt lat="44.83939373162633" lon="9.923027191691041"><ele>174.0</ele><time>2026-04-19T08:12:33Z</time></trkpt><trkpt lat="44.83941241470495" lon="9.92290663079158"><ele>169.0</ele><time>2026-04-19T08:12:34Z</time></trkpt><trkpt lat="44.83941585680062" lon="9.922783826169915"><ele>169.0</ele><time>2026-04-19T08:12:35Z</time></trkpt><trkpt lat="44.83938880540835" lon="9.922661937514555"><ele>169.0</ele><time>2026-04-19T08:12:36Z</time></trkpt><trkpt lat="44.839327797060456" lon="9.922564011671462"><ele>169.0</ele><time>2026-04-19T08:12:37Z</time></trkpt><trkpt lat="44.83924077459132" lon="9.922512696315902"><ele>169.0</ele><time>2026-04-19T08:12:38Z</time></trkpt><trkpt lat="44.839141696379656" lon="9.922513921831182"><ele>169.0</ele><time>2026-04-19T08:12:39Z</time></trkpt><trkpt lat="44.83904865801692" lon="9.922552331600453"><ele>170.33333333333334</ele><time>2026-04-19T08:12:40Z</time></trkpt><trkpt lat="44.83896398523358" lon="9.922583456758359"><ele>171.66666666666669</ele><time>2026-04-19T08:12:41Z</time></trkpt><trkpt lat="44.83889175743159" lon="9.92259892486134"><ele>173.0</ele><time>2026-04-19T08:12:42Z</time></trkpt><trkpt lat="44.83882467311672" lon="9.922577625995459"><ele>174.33333333333334</ele><time>2026-04-19T08:12:43Z</time></trkpt><trkpt lat="44.83876678389123" lon="9.922521054506914"><ele>175.66666666666666</ele><time>2026-04-19T08:12:44Z</time></trkpt><trkpt lat="44.83872811999847" lon="9.922427244154854"><ele>177.0</ele><time>2026-04-19T08:12:45Z</time></trkpt><trkpt lat="44.83871612747146" lon="9.922315350299751"><ele>177.0</ele><time>2026-04-19T08:12:46Z</time></trkpt><trkpt lat="44.83874209574788" lon="9.922203343532876"><ele>177.0</ele><time>2026-04-19T08:12:47Z</time></trkpt><trkpt lat="44.838807161181876" lon="9.922119365938014"><ele>177.0</ele><time>2026-04-19T08:12:48Z</time></trkpt><trkpt lat="44.838911698473055" lon="9.922121709493021"><ele>177.0</ele><time>2026-04-19T08:12:49Z</time></trkpt><trkpt lat="44.83901193038881" lon="9.922067763589238"><ele>177.0</ele><time>2026-04-19T08:12:50Z</time></trkpt><trkpt lat="44.839111652156106" lon="9.922012303246174"><ele>177.0</ele><time>2026-04-19T08:12:51Z</time></trkpt><trkpt lat="44.83920247552655" lon="9.921909681756771"><ele>177.0</ele><time>2026-04-19T08:12:52Z</time></trkpt><trkpt lat="44.839293575023476" lon="9.921800312444937"><ele>177.0</ele><time>2026-04-19T08:12:53Z</time></trkpt><trkpt lat="44.83937860794679" lon="9.921675804343357"><ele>177.0</ele><time>2026-04-19T08:12:54Z</time></trkpt><trkpt lat="44.83947001977728" lon="9.921552016637104"><ele>173.5</ele><time>2026-04-19T08:12:55Z</time></trkpt><trkpt lat="44.83956795454701" lon="9.92143299355783"><ele>170.0</ele><time>2026-04-19T08:12:56Z</time></trkpt><trkpt lat="44.83966901366607" lon="9.921309418068821"><ele>166.5</ele><time>2026-04-19T08:12:57Z</time></trkpt><trkpt lat="44.83976828492576" lon="9.921189447198634"><ele>163.0</ele><time>2026-04-19T08:12:58Z</time></trkpt><trkpt lat="44.83985297682779" lon="9.92105897347609"><ele>163.0</ele><time>2026-04-19T08:12:59Z</time></trkpt><trkpt lat="44.83992915550088" lon="9.920929928996285"><ele>163.0</ele><time>2026-04-19T08:13:00Z</time></trkpt><trkpt lat="44.84001021719844" lon="9.920809565067026"><ele>163.0</ele><time>2026-04-19T08:13:01Z</time></trkpt><trkpt lat="44.84007788297756" lon="9.920695438252212"><ele>163.0</ele><time>2026-04-19T08:13:02Z</time></trkpt><trkpt lat="44.84013712156339" lon="9.9205876844248"><ele>163.0</ele><time>2026-04-19T08:13:03Z</time></trkpt><trkpt lat="44.840193173115566" lon="9.920495093279822"><ele>160.66666666666669</ele><time>2026-04-19T08:13:04Z</time></trkpt><trkpt lat="44.8402521252287" lon="9.920434360446537"><ele>158.33333333333334</ele><time>2026-04-19T08:13:05Z</time></trkpt><trkpt lat="44.84032084962092" lon="9.920404773941764"><ele>156.0</ele><time>2026-04-19T08:13:06Z</time></trkpt><trkpt lat="44.84040148273013" lon="9.92042697174171"><ele>153.66666666666666</ele><time>2026-04-19T08:13:07Z</time></trkpt><trkpt lat="44.84046499514586" lon="9.920519136463193"><ele>151.33333333333331</ele><time>2026-04-19T08:13:08Z</time></trkpt><trkpt lat="44.84054168539693" lon="9.920581189536842"><ele>149.0</ele><time>2026-04-19T08:13:09Z</time></trkpt><trkpt lat="44.8406189590008" lon="9.920651077029657"><ele>149.0</ele><time>2026-04-19T08:13:10Z</time></trkpt><trkpt lat="44.84068614534675" lon="9.920719758683045"><ele>149.0</ele><time>2026-04-19T08:13:11Z</time></trkpt><trkpt lat="44.840736139780624" lon="9.920792492819114"><ele>149.0</ele><time>2026-04-19T08:13:12Z</time></trkpt><trkpt lat="44.840759145101536" lon="9.920881215668162"><ele>149.0</ele><time>2026-04-19T08:13:13Z</time></trkpt><trkpt lat="44.84077777741523" lon="9.920987266604858"><ele>149.0</ele><time>2026-04-19T08:13:14Z</time></trkpt><trkpt lat="44.84081160887095" lon="9.921112495252423"><ele>149.0</ele><time>2026-04-19T08:13:15Z</time></trkpt><trkpt lat="44.84084975745597" lon="9.921244072482331"><ele>149.0</ele><time>2026-04-19T08:13:16Z</time></trkpt><trkpt lat="44.84089349361887" lon="9.921380905022257"><ele>149.0</ele><time>2026-04-19T08:13:17Z</time></trkpt><trkpt lat="44.84094467675889" lon="9.921518340530234"><ele>149.0</ele><time>2026-04-19T08:13:18Z</time></trkpt><trkpt lat="44.841002755206055" lon="9.92165064742405"><ele>149.0</ele><time>2026-04-19T08:13:19Z</time></trkpt><trkpt lat="44.841061587044976" lon="9.921782009690459"><ele>149.0</ele><time>2026-04-19T08:13:20Z</time></trkpt><trkpt lat="44.84111831423981" lon="9.921908673056956"><ele>148.0</ele><time>2026-04-19T08:13:21Z</time></trkpt><trkpt lat="44.84117417572315" lon="9.922033295651453"><ele>147.0</ele><time>2026-04-19T08:13:22Z</time></trkpt><trkpt lat="44.841229026818986" lon="9.922152319886795"><ele>146.0</ele><time>2026-04-19T08:13:23Z</time></trkpt><trkpt lat="44.84128251827628" lon="9.922268393700742"><ele>145.0</ele><time>2026-04-19T08:13:24Z</time></trkpt><trkpt lat="44.841339235961854" lon="9.922379741105582"><ele>144.0</ele><time>2026-04-19T08:13:25Z</time></trkpt><trkpt lat="44.84140706919647" lon="9.922469020904874"><ele>143.5</ele><time>2026-04-19T08:13:26Z</time></trkpt><trkpt lat="44.84146503471026" lon="9.922572020766006"><ele>143.0</ele><time>2026-04-19T08:13:26.999Z</time></trkpt><trkpt lat="44.84154643799228" lon="9.922639362874285"><ele>142.5</ele><time>2026-04-19T08:13:27.999Z</time></trkpt><trkpt lat="44.84163892418113" lon="9.922667337594621"><ele>142.0</ele><time>2026-04-19T08:13:28.999Z</time></trkpt><trkpt lat="44.84171587013196" lon="9.922712016655115"><ele>141.5</ele><time>2026-04-19T08:13:29.999Z</time></trkpt><trkpt lat="44.84179401208741" lon="9.922745678428088"><ele>141.0</ele><time>2026-04-19T08:13:30.999Z</time></trkpt><trkpt lat="44.841864296142106" lon="9.922805157802776"><ele>140.66666666666666</ele><time>2026-04-19T08:13:31.999Z</time></trkpt><trkpt lat="44.84193931909862" lon="9.922845153034592"><ele>140.33333333333334</ele><time>2026-04-19T08:13:32.999Z</time></trkpt><trkpt lat="44.84201340929195" lon="9.922875925694921"><ele>140.0</ele><time>2026-04-19T08:13:33.999Z</time></trkpt><trkpt lat="44.84209038081094" lon="9.922883632905487"><ele>139.66666666666669</ele><time>2026-04-19T08:13:34.999Z</time></trkpt><trkpt lat="44.84216564797845" lon="9.922880451738557"><ele>139.33333333333334</ele><time>2026-04-19T08:13:35.999Z</time></trkpt><trkpt lat="44.84224100917426" lon="9.922849357009543"><ele>139.0</ele><time>2026-04-19T08:13:36.999Z</time></trkpt><trkpt lat="44.842307283127155" lon="9.922789100536429"><ele>139.0</ele><time>2026-04-19T08:13:37.999Z</time></trkpt><trkpt lat="44.84236513466064" lon="9.92272233070208"><ele>139.0</ele><time>2026-04-19T08:13:38.999Z</time></trkpt><trkpt lat="44.8424157094808" lon="9.922646691850915"><ele>139.0</ele><time>2026-04-19T08:13:39.999Z</time></trkpt><trkpt lat="44.84246392737938" lon="9.92257675234279"><ele>139.0</ele><time>2026-04-19T08:13:40.999Z</time></trkpt><trkpt lat="44.84250659045766" lon="9.922502026363485"><ele>139.0</ele><time>2026-04-19T08:13:41.999Z</time></trkpt><trkpt lat="44.84254378784647" lon="9.92242291051422"><ele>139.0</ele><time>2026-04-19T08:13:42.999Z</time></trkpt><trkpt lat="44.84257762678004" lon="9.922343146695416"><ele>139.0</ele><time>2026-04-19T08:13:43.999Z</time></trkpt><trkpt lat="44.84261200704512" lon="9.922265923662735"><ele>139.5</ele><time>2026-04-19T08:13:44.999Z</time></trkpt><trkpt lat="44.84267401993314" lon="9.922112575100078"><ele>140.0</ele><time>2026-04-19T08:13:46.999Z</time></trkpt><trkpt lat="44.84273564445148" lon="9.921962975653713"><ele>140.5</ele><time>2026-04-19T08:13:48.999Z</time></trkpt><trkpt lat="44.84280965342644" lon="9.92182767501278"><ele>141.0</ele><time>2026-04-19T08:13:50.999Z</time></trkpt><trkpt lat="44.8428941504276" lon="9.92170481377597"><ele>142.0</ele><time>2026-04-19T08:13:52.999Z</time></trkpt><trkpt lat="44.84297215270909" lon="9.921577470432831"><ele>143.0</ele><time>2026-04-19T08:13:54.999Z</time></trkpt><trkpt lat="44.843048997092986" lon="9.921457757928238"><ele>144.0</ele><time>2026-04-19T08:13:56.999Z</time></trkpt><trkpt lat="44.843123709228855" lon="9.921337659794952"><ele>145.0</ele><time>2026-04-19T08:13:58.999Z</time></trkpt><trkpt lat="44.84320385415473" lon="9.921227061484403"><ele>145.0</ele><time>2026-04-19T08:14:00.999Z</time></trkpt><trkpt lat="44.84327633676908" lon="9.921115330909455"><ele>145.0</ele><time>2026-04-19T08:14:02.999Z</time></trkpt><trkpt lat="44.84334079004958" lon="9.921007093195993"><ele>145.0</ele><time>2026-04-19T08:14:04.999Z</time></trkpt><trkpt lat="44.843400663640736" lon="9.920911729278776"><ele>145.0</ele><time>2026-04-19T08:14:06.999Z</time></trkpt><trkpt lat="44.843456797127615" lon="9.920822211427028"><ele>145.0</ele><time>2026-04-19T08:14:08.999Z</time></trkpt><trkpt lat="44.843509035130154" lon="9.920736476894007"><ele>146.16666666666669</ele><time>2026-04-19T08:14:10.999Z</time></trkpt><trkpt lat="44.84355723061781" lon="9.920662644942817"><ele>147.33333333333334</ele><time>2026-04-19T08:14:12.999Z</time></trkpt><trkpt lat="44.843627495282895" lon="9.920583754732101"><ele>148.5</ele><time>2026-04-19T08:14:15.999Z</time></trkpt><trkpt lat="44.84369313800159" lon="9.920663711470361"><ele>149.66666666666666</ele><time>2026-04-19T08:14:18.999Z</time></trkpt><trkpt lat="44.843730694695054" lon="9.92073542549592"><ele>150.83333333333331</ele><time>2026-04-19T08:14:20.998Z</time></trkpt><trkpt lat="44.843768115267615" lon="9.920814857136282"><ele>152.0</ele><time>2026-04-19T08:16:04.999Z</time></trkpt><trkpt lat="44.84381699208911" lon="9.920896904317884"><ele>151.0</ele><time>2026-04-19T08:16:07.999Z</time></trkpt><trkpt lat="44.84386182119779" lon="9.920969327009127"><ele>150.0</ele><time>2026-04-19T08:16:09.999Z</time></trkpt><trkpt lat="44.84391655312013" lon="9.921073459946033"><ele>149.0</ele><time>2026-04-19T08:16:11.999Z</time></trkpt><trkpt lat="44.84398718956828" lon="9.921185714654051"><ele>148.0</ele><time>2026-04-19T08:16:13.999Z</time></trkpt><trkpt lat="44.84405926002861" lon="9.921306258468215"><ele>147.0</ele><time>2026-04-19T08:16:15.999Z</time></trkpt><trkpt lat="44.84412719049087" lon="9.92143560998882"><ele>147.0</ele><time>2026-04-19T08:16:17.999Z</time></trkpt><trkpt lat="44.844202413461346" lon="9.921567995351436"><ele>147.0</ele><time>2026-04-19T08:16:19.999Z</time></trkpt><trkpt lat="44.8442762105814" lon="9.921702209183096"><ele>147.0</ele><time>2026-04-19T08:16:21.999Z</time></trkpt><trkpt lat="44.844354349227075" lon="9.921841126492971"><ele>147.0</ele><time>2026-04-19T08:16:23.999Z</time></trkpt><trkpt lat="44.844431622708235" lon="9.921977555100378"><ele>147.16666666666666</ele><time>2026-04-19T08:16:25.998Z</time></trkpt><trkpt lat="44.8445099389414" lon="9.92211752811619"><ele>147.33333333333334</ele><time>2026-04-19T08:16:27.998Z</time></trkpt><trkpt lat="44.84458534679527" lon="9.922258047528345"><ele>147.5</ele><time>2026-04-19T08:16:29.998Z</time></trkpt><trkpt lat="44.84462422569664" lon="9.922328752399935"><ele>147.66666666666669</ele><time>2026-04-19T08:16:30.998Z</time></trkpt><trkpt lat="44.844664197900656" lon="9.922400421743033"><ele>147.83333333333334</ele><time>2026-04-19T08:16:31.998Z</time></trkpt><trkpt lat="44.84470468316985" lon="9.922470861295395"><ele>148.0</ele><time>2026-04-19T08:16:33Z</time></trkpt><trkpt lat="44.844743017468254" lon="9.922544131084166"><ele>147.42857142857144</ele><time>2026-04-19T08:16:34Z</time></trkpt><trkpt lat="44.84478153722885" lon="9.922620327713195"><ele>146.85714285714286</ele><time>2026-04-19T08:16:35Z</time></trkpt><trkpt lat="44.8448216931906" lon="9.922696466007343"><ele>146.28571428571428</ele><time>2026-04-19T08:16:36Z</time></trkpt><trkpt lat="44.84486274736941" lon="9.922772397933377"><ele>145.71428571428572</ele><time>2026-04-19T08:16:37Z</time></trkpt><trkpt lat="44.84490512869259" lon="9.922847978030191"><ele>145.14285714285714</ele><time>2026-04-19T08:16:38Z</time></trkpt><trkpt lat="44.84494629827491" lon="9.922925073364077"><ele>144.57142857142858</ele><time>2026-04-19T08:16:39Z</time></trkpt><trkpt lat="44.84498312045334" lon="9.923009416311361"><ele>144.0</ele><time>2026-04-19T08:16:40Z</time></trkpt><trkpt lat="44.845019105397284" lon="9.923096384745682"><ele>144.00000000000003</ele><time>2026-04-19T08:16:41Z</time></trkpt><trkpt lat="44.845051912469415" lon="9.923185835221554"><ele>144.0</ele><time>2026-04-19T08:16:42Z</time></trkpt><trkpt lat="44.84508553662383" lon="9.923276786402035"><ele>144.0</ele><time>2026-04-19T08:16:43Z</time></trkpt><trkpt lat="44.8451163910794" lon="9.923369701918123"><ele>144.0</ele><time>2026-04-19T08:16:44Z</time></trkpt><trkpt lat="44.84514459370618" lon="9.923467165904507"><ele>144.0</ele><time>2026-04-19T08:16:45Z</time></trkpt><trkpt lat="44.84517001461406" lon="9.923562900694678"><ele>144.00000000000003</ele><time>2026-04-19T08:16:46Z</time></trkpt><trkpt lat="44.84519390608832" lon="9.923659398624052"><ele>144.0</ele><time>2026-04-19T08:16:47Z</time></trkpt><trkpt lat="44.84521802769108" lon="9.923753101138571"><ele>144.00000000000003</ele><time>2026-04-19T08:16:48Z</time></trkpt><trkpt lat="44.84524215724235" lon="9.92384693441062"><ele>144.0</ele><time>2026-04-19T08:16:49Z</time></trkpt><trkpt lat="44.84526687550616" lon="9.923940225643026"><ele>144.0</ele><time>2026-04-19T08:16:50Z</time></trkpt><trkpt lat="44.84529241045439" lon="9.924035826386215"><ele>144.0</ele><time>2026-04-19T08:16:51Z</time></trkpt><trkpt lat="44.84531859412854" lon="9.924133845530488"><ele>144.0</ele><time>2026-04-19T08:16:52Z</time></trkpt><trkpt lat="44.84532872181142" lon="9.924241276823388"><ele>144.00000000000003</ele><time>2026-04-19T08:16:53Z</time></trkpt><trkpt lat="44.845354136990764" lon="9.924341028474053"><ele>144.0</ele><time>2026-04-19T08:16:54Z</time></trkpt><trkpt lat="44.84537965859514" lon="9.924441159793085"><ele>144.0</ele><time>2026-04-19T08:16:55Z</time></trkpt><trkpt lat="44.845421112251024" lon="9.924535117420863"><ele>144.0</ele><time>2026-04-19T08:16:56Z</time></trkpt><trkpt lat="44.8454470549346" lon="9.924636976947333"><ele>144.0</ele><time>2026-04-19T08:16:57Z</time></trkpt><trkpt lat="44.84547286246138" lon="9.924737741092176"><ele>144.0</ele><time>2026-04-19T08:16:58Z</time></trkpt><trkpt lat="44.845498130519985" lon="9.924838068154282"><ele>144.0</ele><time>2026-04-19T08:16:59Z</time></trkpt><trkpt lat="44.845522317891444" lon="9.924939298244645"><ele>144.0</ele><time>2026-04-19T08:17:00Z</time></trkpt><trkpt lat="44.845548372926494" lon="9.925038411798596"><ele>143.83333333333334</ele><time>2026-04-19T08:17:01Z</time></trkpt><trkpt lat="44.845573516360325" lon="9.925139632948122"><ele>143.66666666666666</ele><time>2026-04-19T08:17:02Z</time></trkpt><trkpt lat="44.84559817775166" lon="9.925242731360061"><ele>143.5</ele><time>2026-04-19T08:17:03Z</time></trkpt><trkpt lat="44.84562198411197" lon="9.925344195562772"><ele>143.33333333333331</ele><time>2026-04-19T08:17:04Z</time></trkpt><trkpt lat="44.845647243636215" lon="9.925449992823118"><ele>143.16666666666666</ele><time>2026-04-19T08:17:05Z</time></trkpt><trkpt lat="44.84567176274123" lon="9.925552479505779"><ele>143.0</ele><time>2026-04-19T08:17:06Z</time></trkpt><trkpt lat="44.84570021624904" lon="9.925658466196312"><ele>143.0</ele><time>2026-04-19T08:17:07Z</time></trkpt><trkpt lat="44.84572683262952" lon="9.925764486369173"><ele>143.0</ele><time>2026-04-19T08:17:08Z</time></trkpt><trkpt lat="44.84575282955853" lon="9.925866398990676"><ele>143.0</ele><time>2026-04-19T08:17:09Z</time></trkpt><trkpt lat="44.84577775191821" lon="9.925973744296428"><ele>143.0</ele><time>2026-04-19T08:17:10Z</time></trkpt><trkpt lat="44.845804833617706" lon="9.926077447980534"><ele>143.0</ele><time>2026-04-19T08:17:11Z</time></trkpt><trkpt lat="44.845829292449906" lon="9.926178113541285"><ele>143.0</ele><time>2026-04-19T08:17:12Z</time></trkpt><trkpt lat="44.845853490819025" lon="9.926277915869509"><ele>142.99999999999997</ele><time>2026-04-19T08:17:13Z</time></trkpt><trkpt lat="44.84587686908324" lon="9.926378530744751"><ele>143.0</ele><time>2026-04-19T08:17:14Z</time></trkpt><trkpt lat="44.845899758186754" lon="9.926476992461444"><ele>143.0</ele><time>2026-04-19T08:17:15Z</time></trkpt><trkpt lat="44.8459251761786" lon="9.926574318927251"><ele>143.0</ele><time>2026-04-19T08:17:16Z</time></trkpt><trkpt lat="44.84595097455373" lon="9.926669253077637"><ele>143.0</ele><time>2026-04-19T08:17:17Z</time></trkpt><trkpt lat="44.84597868556332" lon="9.926763526327937"><ele>142.99999999999997</ele><time>2026-04-19T08:17:18Z</time></trkpt><trkpt lat="44.84600837030986" lon="9.926857013128219"><ele>143.0</ele><time>2026-04-19T08:17:19Z</time></trkpt><trkpt lat="44.84604154560873" lon="9.926947299389235"><ele>143.33333333333331</ele><time>2026-04-19T08:17:20Z</time></trkpt><trkpt lat="44.84607772895789" lon="9.927037788039959"><ele>143.66666666666666</ele><time>2026-04-19T08:17:21Z</time></trkpt><trkpt lat="44.84611800402812" lon="9.927124261338076"><ele>144.0</ele><time>2026-04-19T08:17:22Z</time></trkpt><trkpt lat="44.84616130491861" lon="9.92721207297455"><ele>144.33333333333334</ele><time>2026-04-19T08:17:23Z</time></trkpt><trkpt lat="44.846207088896065" lon="9.927301472600135"><ele>144.66666666666669</ele><time>2026-04-19T08:17:24Z</time></trkpt><trkpt lat="44.84625258918045" lon="9.927392189995372"><ele>145.0</ele><time>2026-04-19T08:17:25Z</time></trkpt><trkpt lat="44.846300777484096" lon="9.927482560896339"><ele>144.16666666666669</ele><time>2026-04-19T08:17:26Z</time></trkpt><trkpt lat="44.84635045953991" lon="9.927574931606399"><ele>143.33333333333334</ele><time>2026-04-19T08:17:27Z</time></trkpt><trkpt lat="44.84639856683446" lon="9.927672559522888"><ele>142.5</ele><time>2026-04-19T08:17:28Z</time></trkpt><trkpt lat="44.846446378663494" lon="9.927771486526975"><ele>141.66666666666666</ele><time>2026-04-19T08:17:29Z</time></trkpt><trkpt lat="44.84649674402763" lon="9.927864450760104"><ele>140.83333333333331</ele><time>2026-04-19T08:17:30Z</time></trkpt><trkpt lat="44.84654494861175" lon="9.927959901538907"><ele>140.0</ele><time>2026-04-19T08:17:31Z</time></trkpt><trkpt lat="44.84659256223398" lon="9.92805748764241"><ele>140.0</ele><time>2026-04-19T08:17:32Z</time></trkpt><trkpt lat="44.8466402576374" lon="9.928153611253709"><ele>140.0</ele><time>2026-04-19T08:17:33Z</time></trkpt><trkpt lat="44.84668726362825" lon="9.928250397077113"><ele>140.0</ele><time>2026-04-19T08:17:34Z</time></trkpt><trkpt lat="44.846734637532975" lon="9.928346760628905"><ele>140.0</ele><time>2026-04-19T08:17:34.999Z</time></trkpt><trkpt lat="44.84678630624155" lon="9.9284410991637"><ele>140.0</ele><time>2026-04-19T08:17:35.999Z</time></trkpt><trkpt lat="44.846836122875395" lon="9.928537662113511"><ele>140.0</ele><time>2026-04-19T08:17:36.999Z</time></trkpt><trkpt lat="44.84688662327194" lon="9.928635988712209"><ele>139.83333333333331</ele><time>2026-04-19T08:17:37.999Z</time></trkpt><trkpt lat="44.84694101990449" lon="9.928731455916118"><ele>139.66666666666666</ele><time>2026-04-19T08:17:38.999Z</time></trkpt><trkpt lat="44.846996524395266" lon="9.928825956814084"><ele>139.5</ele><time>2026-04-19T08:17:39.999Z</time></trkpt><trkpt lat="44.8470539279325" lon="9.92891735745703"><ele>139.33333333333334</ele><time>2026-04-19T08:17:40.999Z</time></trkpt><trkpt lat="44.84711280830038" lon="9.929006170430368"><ele>139.16666666666669</ele><time>2026-04-19T08:17:41.999Z</time></trkpt><trkpt lat="44.847176372288565" lon="9.929091600412772"><ele>139.0</ele><time>2026-04-19T08:17:42.999Z</time></trkpt><trkpt lat="44.84723854723708" lon="9.929180081420206"><ele>138.4</ele><time>2026-04-19T08:17:43.999Z</time></trkpt><trkpt lat="44.84730216398535" lon="9.929265508451115"><ele>137.8</ele><time>2026-04-19T08:17:44.999Z</time></trkpt><trkpt lat="44.847365918974184" lon="9.929354473124912"><ele>137.2</ele><time>2026-04-19T08:17:45.999Z</time></trkpt><trkpt lat="44.847430362231435" lon="9.929446919424505"><ele>136.6</ele><time>2026-04-19T08:17:46.999Z</time></trkpt><trkpt lat="44.847496912434394" lon="9.929538482419122"><ele>136.0</ele><time>2026-04-19T08:17:47.999Z</time></trkpt><trkpt lat="44.8475643098568" lon="9.9296321861171"><ele>135.6</ele><time>2026-04-19T08:17:48.999Z</time></trkpt><trkpt lat="44.84763206611099" lon="9.929727545873016"><ele>135.2</ele><time>2026-04-19T08:17:49.999Z</time></trkpt><trkpt lat="44.84769988754857" lon="9.929821793721803"><ele>134.8</ele><time>2026-04-19T08:17:50.999Z</time></trkpt><trkpt lat="44.8477685691711" lon="9.929918534961264"><ele>134.4</ele><time>2026-04-19T08:17:51.999Z</time></trkpt><trkpt lat="44.84783776124725" lon="9.930014697294405"><ele>134.0</ele><time>2026-04-19T08:17:52.999Z</time></trkpt><trkpt lat="44.84790629290115" lon="9.93011063883765"><ele>134.0</ele><time>2026-04-19T08:17:53.999Z</time></trkpt><trkpt lat="44.84797341418187" lon="9.930206339189374"><ele>134.0</ele><time>2026-04-19T08:17:54.999Z</time></trkpt><trkpt lat="44.84804138563639" lon="9.930302673621018"><ele>134.0</ele><time>2026-04-19T08:17:55.999Z</time></trkpt><trkpt lat="44.84810832361735" lon="9.930399492119808"><ele>134.0</ele><time>2026-04-19T08:17:56.999Z</time></trkpt><trkpt lat="44.848176251212415" lon="9.930494104653361"><ele>134.0</ele><time>2026-04-19T08:17:57.999Z</time></trkpt><trkpt lat="44.84824548237897" lon="9.930587289792879"><ele>134.0</ele><time>2026-04-19T08:17:58.999Z</time></trkpt><trkpt lat="44.84831268305664" lon="9.930683198607758"><ele>134.0</ele><time>2026-04-19T08:17:59.999Z</time></trkpt><trkpt lat="44.848383358223955" lon="9.930776968334289"><ele>134.0</ele><time>2026-04-19T08:18:00.999Z</time></trkpt><trkpt lat="44.8484482998958" lon="9.930871370385086"><ele>134.0</ele><time>2026-04-19T08:18:01.999Z</time></trkpt><trkpt lat="44.84851571136677" lon="9.930962086968583"><ele>134.0</ele><time>2026-04-19T08:18:02.999Z</time></trkpt><trkpt lat="44.84858284249515" lon="9.931054827528778"><ele>134.6</ele><time>2026-04-19T08:18:03.999Z</time></trkpt><trkpt lat="44.84865051759398" lon="9.931152607720916"><ele>135.2</ele><time>2026-04-19T08:18:04.999Z</time></trkpt><trkpt lat="44.84871838515304" lon="9.931247845029866"><ele>135.79999999999998</ele><time>2026-04-19T08:18:05.999Z</time></trkpt><trkpt lat="44.84878499932225" lon="9.9313408375954"><ele>136.4</ele><time>2026-04-19T08:18:06.999Z</time></trkpt><trkpt lat="44.84885341816891" lon="9.931434860247087"><ele>137.0</ele><time>2026-04-19T08:18:07.999Z</time></trkpt><trkpt lat="44.84892056629586" lon="9.931528323834263"><ele>137.0</ele><time>2026-04-19T08:18:08.999Z</time></trkpt><trkpt lat="44.848987629092306" lon="9.931625471493454"><ele>137.0</ele><time>2026-04-19T08:18:09.999Z</time></trkpt><trkpt lat="44.849054899301876" lon="9.931720487710137"><ele>137.0</ele><time>2026-04-19T08:18:10.999Z</time></trkpt><trkpt lat="44.84912211245609" lon="9.931810772364937"><ele>137.0</ele><time>2026-04-19T08:18:11.999Z</time></trkpt><trkpt lat="44.84918973765695" lon="9.931903304029083"><ele>137.0</ele><time>2026-04-19T08:18:12.999Z</time></trkpt><trkpt lat="44.84925551344892" lon="9.9319966639283"><ele>136.6</ele><time>2026-04-19T08:18:13.999Z</time></trkpt><trkpt lat="44.84932172157215" lon="9.932086753615943"><ele>136.2</ele><time>2026-04-19T08:18:14.999Z</time></trkpt><trkpt lat="44.84938766203941" lon="9.932175094602972"><ele>135.8</ele><time>2026-04-19T08:18:15.999Z</time></trkpt><trkpt lat="44.84945437163729" lon="9.93226362219202"><ele>135.4</ele><time>2026-04-19T08:18:16.999Z</time></trkpt><trkpt lat="44.8495173417372" lon="9.932351922776297"><ele>135.0</ele><time>2026-04-19T08:18:17.999Z</time></trkpt><trkpt lat="44.84958055361686" lon="9.932442504454912"><ele>135.0</ele><time>2026-04-19T08:18:18.999Z</time></trkpt><trkpt lat="44.849644448514546" lon="9.932533694572399"><ele>135.0</ele><time>2026-04-19T08:18:19.999Z</time></trkpt><trkpt lat="44.84971072836798" lon="9.932621139886855"><ele>135.0</ele><time>2026-04-19T08:18:20.999Z</time></trkpt><trkpt lat="44.84977491033547" lon="9.932711407945527"><ele>135.0</ele><time>2026-04-19T08:18:21.999Z</time></trkpt><trkpt lat="44.84983999727923" lon="9.932800193396009"><ele>135.0</ele><time>2026-04-19T08:18:22.999Z</time></trkpt><trkpt lat="44.84990458345534" lon="9.93289027453065"><ele>134.8</ele><time>2026-04-19T08:18:23.999Z</time></trkpt><trkpt lat="44.849968528314896" lon="9.932983563253773"><ele>134.6</ele><time>2026-04-19T08:18:24.999Z</time></trkpt><trkpt lat="44.85003393822807" lon="9.933075485063235"><ele>134.4</ele><time>2026-04-19T08:18:25.999Z</time></trkpt><trkpt lat="44.85010133873573" lon="9.93316795083929"><ele>134.2</ele><time>2026-04-19T08:18:26.999Z</time></trkpt><trkpt lat="44.85016789723581" lon="9.933260134451226"><ele>134.0</ele><time>2026-04-19T08:18:27.999Z</time></trkpt><trkpt lat="44.85023470048136" lon="9.933355287459337"><ele>134.0</ele><time>2026-04-19T08:18:28.999Z</time></trkpt><trkpt lat="44.850301229059745" lon="9.9334480854224"><ele>134.0</ele><time>2026-04-19T08:18:29.998Z</time></trkpt><trkpt lat="44.85036844337057" lon="9.933539665703067"><ele>134.0</ele><time>2026-04-19T08:18:30.998Z</time></trkpt><trkpt lat="44.850435609292965" lon="9.933632587399451"><ele>134.0</ele><time>2026-04-19T08:18:31.998Z</time></trkpt><trkpt lat="44.850503015330816" lon="9.933728252898003"><ele>134.0</ele><time>2026-04-19T08:18:32.998Z</time></trkpt><trkpt lat="44.850571552002165" lon="9.933821436589664"><ele>134.0</ele><time>2026-04-19T08:18:33.998Z</time></trkpt><trkpt lat="44.850641419052394" lon="9.933912501105317"><ele>134.0</ele><time>2026-04-19T08:18:34.998Z</time></trkpt><trkpt lat="44.85071111761347" lon="9.934006214932383"><ele>134.0</ele><time>2026-04-19T08:18:35.998Z</time></trkpt><trkpt lat="44.850782242308256" lon="9.934096618924082"><ele>134.0</ele><time>2026-04-19T08:18:36.998Z</time></trkpt><trkpt lat="44.8508548039816" lon="9.93418408506288"><ele>134.0</ele><time>2026-04-19T08:18:38Z</time></trkpt><trkpt lat="44.85092732942087" lon="9.934270411329267"><ele>134.0</ele><time>2026-04-19T08:18:39Z</time></trkpt><trkpt lat="44.85100208750216" lon="9.934354250445763"><ele>134.0</ele><time>2026-04-19T08:18:40Z</time></trkpt><trkpt lat="44.85107924684853" lon="9.93443161033392"><ele>134.0</ele><time>2026-04-19T08:18:41Z</time></trkpt><trkpt lat="44.85115684619238" lon="9.934509773986079"><ele>134.0</ele><time>2026-04-19T08:18:42Z</time></trkpt><trkpt lat="44.8512368349436" lon="9.934582434621293"><ele>134.0</ele><time>2026-04-19T08:18:43Z</time></trkpt><trkpt lat="44.85131909834498" lon="9.934654556406288"><ele>134.0</ele><time>2026-04-19T08:18:44Z</time></trkpt><trkpt lat="44.85140358594741" lon="9.934719906704625"><ele>134.0</ele><time>2026-04-19T08:18:45Z</time></trkpt><trkpt lat="44.851489083518295" lon="9.934784092381719"><ele>134.0</ele><time>2026-04-19T08:18:46Z</time></trkpt><trkpt lat="44.85157460974365" lon="9.934849992892483"><ele>134.0</ele><time>2026-04-19T08:18:47Z</time></trkpt><trkpt lat="44.85166116822734" lon="9.93491495972315"><ele>134.0</ele><time>2026-04-19T08:18:48Z</time></trkpt><trkpt lat="44.8517491759894" lon="9.934978934911864"><ele>133.8</ele><time>2026-04-19T08:18:49Z</time></trkpt><trkpt lat="44.85183829679786" lon="9.935043189750786"><ele>133.60000000000002</ele><time>2026-04-19T08:18:50Z</time></trkpt><trkpt lat="44.85192658283804" lon="9.935110709960721"><ele>133.4</ele><time>2026-04-19T08:18:51Z</time></trkpt><trkpt lat="44.85201700676704" lon="9.935180555613606"><ele>133.20000000000002</ele><time>2026-04-19T08:18:52Z</time></trkpt><trkpt lat="44.85210608780097" lon="9.935250349580702"><ele>133.0</ele><time>2026-04-19T08:18:53Z</time></trkpt><trkpt lat="44.85219653679768" lon="9.935324262824908"><ele>132.20000000000002</ele><time>2026-04-19T08:18:54Z</time></trkpt><trkpt lat="44.85228415040138" lon="9.935408228221007"><ele>131.4</ele><time>2026-04-19T08:18:55Z</time></trkpt><trkpt lat="44.85237025770216" lon="9.93549959689393"><ele>130.60000000000002</ele><time>2026-04-19T08:18:56Z</time></trkpt><trkpt lat="44.85245068662069" lon="9.935600820729311"><ele>129.8</ele><time>2026-04-19T08:18:57Z</time></trkpt><trkpt lat="44.852523290372964" lon="9.935713723407723"><ele>129.0</ele><time>2026-04-19T08:18:58Z</time></trkpt><trkpt lat="44.85259531887235" lon="9.93583180307982"><ele>128.6</ele><time>2026-04-19T08:18:59Z</time></trkpt><trkpt lat="44.85266830769589" lon="9.93594835668971"><ele>128.2</ele><time>2026-04-19T08:19:00Z</time></trkpt><trkpt lat="44.85273698922197" lon="9.936070580150249"><ele>127.79999999999998</ele><time>2026-04-19T08:19:01Z</time></trkpt><trkpt lat="44.85280537329728" lon="9.936192768089299"><ele>127.39999999999999</ele><time>2026-04-19T08:19:02Z</time></trkpt><trkpt lat="44.852873984742544" lon="9.936312935503603"><ele>127.0</ele><time>2026-04-19T08:19:03Z</time></trkpt><trkpt lat="44.85294687831406" lon="9.936434471270898"><ele>127.0</ele><time>2026-04-19T08:19:04Z</time></trkpt><trkpt lat="44.85301488118631" lon="9.936565456372021"><ele>127.0</ele><time>2026-04-19T08:19:05Z</time></trkpt><trkpt lat="44.85308308540001" lon="9.936692729429105"><ele>127.0</ele><time>2026-04-19T08:19:06Z</time></trkpt><trkpt lat="44.85315347195786" lon="9.936819690506349"><ele>127.0</ele><time>2026-04-19T08:19:07Z</time></trkpt><trkpt lat="44.85322058933601" lon="9.936946239613563"><ele>126.8</ele><time>2026-04-19T08:19:08Z</time></trkpt><trkpt lat="44.85328606883025" lon="9.93707570747515"><ele>126.6</ele><time>2026-04-19T08:19:09Z</time></trkpt><trkpt lat="44.853354237474875" lon="9.93720470450156"><ele>126.39999999999999</ele><time>2026-04-19T08:19:10Z</time></trkpt><trkpt lat="44.85342335366385" lon="9.937325138640194"><ele>126.19999999999999</ele><time>2026-04-19T08:19:11Z</time></trkpt><trkpt lat="44.853489739165575" lon="9.93745196805814"><ele>126.0</ele><time>2026-04-19T08:19:12Z</time></trkpt><trkpt lat="44.85355522970663" lon="9.93757468324671"><ele>125.8</ele><time>2026-04-19T08:19:13Z</time></trkpt><trkpt lat="44.85361932310759" lon="9.93770232391087"><ele>125.6</ele><time>2026-04-19T08:19:14Z</time></trkpt><trkpt lat="44.85368454042913" lon="9.937826359009689"><ele>125.4</ele><time>2026-04-19T08:19:15Z</time></trkpt><trkpt lat="44.85374859509" lon="9.937945953106468"><ele>125.2</ele><time>2026-04-19T08:19:16Z</time></trkpt><trkpt lat="44.85381387215425" lon="9.938069669434453"><ele>125.0</ele><time>2026-04-19T08:19:17Z</time></trkpt><trkpt lat="44.853882003139255" lon="9.938190403884134"><ele>125.0</ele><time>2026-04-19T08:19:18Z</time></trkpt><trkpt lat="44.853947238258776" lon="9.938311640038798"><ele>125.0</ele><time>2026-04-19T08:19:19Z</time></trkpt><trkpt lat="44.8540093397882" lon="9.938435367401706"><ele>125.0</ele><time>2026-04-19T08:19:20Z</time></trkpt><trkpt lat="44.85407440134911" lon="9.938554715388584"><ele>125.0</ele><time>2026-04-19T08:19:21Z</time></trkpt><trkpt lat="44.85414022429537" lon="9.938677746048572"><ele>125.0</ele><time>2026-04-19T08:19:22Z</time></trkpt><trkpt lat="44.85420719040429" lon="9.938803275048604"><ele>124.8</ele><time>2026-04-19T08:19:23Z</time></trkpt><trkpt lat="44.854272028127454" lon="9.938923411657555"><ele>124.6</ele><time>2026-04-19T08:19:24Z</time></trkpt><trkpt lat="44.85433638389121" lon="9.939041246104358"><ele>124.4</ele><time>2026-04-19T08:19:25Z</time></trkpt><trkpt lat="44.854400965900076" lon="9.939158219756768"><ele>124.2</ele><time>2026-04-19T08:19:26Z</time></trkpt><trkpt lat="44.85446264419819" lon="9.939273987533516"><ele>124.0</ele><time>2026-04-19T08:19:27Z</time></trkpt><trkpt lat="44.85452548508381" lon="9.939392250126126"><ele>124.0</ele><time>2026-04-19T08:19:28Z</time></trkpt><trkpt lat="44.854587126801356" lon="9.93950980254116"><ele>124.0</ele><time>2026-04-19T08:19:29Z</time></trkpt><trkpt lat="44.85465098253442" lon="9.939626817927962"><ele>124.0</ele><time>2026-04-19T08:19:30Z</time></trkpt><trkpt lat="44.85471344679989" lon="9.939744647313638"><ele>124.0</ele><time>2026-04-19T08:19:31Z</time></trkpt><trkpt lat="44.854774778574026" lon="9.939857845103313"><ele>124.0</ele><time>2026-04-19T08:19:32Z</time></trkpt><trkpt lat="44.85483654552226" lon="9.939972790550685"><ele>123.6</ele><time>2026-04-19T08:19:33Z</time></trkpt><trkpt lat="44.85489849984413" lon="9.940084336060885"><ele>123.2</ele><time>2026-04-19T08:19:34Z</time></trkpt><trkpt lat="44.85496006109741" lon="9.940198024163083"><ele>122.79999999999998</ele><time>2026-04-19T08:19:35Z</time></trkpt><trkpt lat="44.85502008121566" lon="9.940312118942487"><ele>122.39999999999999</ele><time>2026-04-19T08:19:36Z</time></trkpt><trkpt lat="44.85507984638311" lon="9.940424593843222"><ele>122.0</ele><time>2026-04-19T08:19:37Z</time></trkpt><trkpt lat="44.85513992055921" lon="9.940535514560045"><ele>122.19999999999999</ele><time>2026-04-19T08:19:38Z</time></trkpt><trkpt lat="44.8551970845375" lon="9.940643553192146"><ele>122.39999999999999</ele><time>2026-04-19T08:19:39Z</time></trkpt><trkpt lat="44.85525483206925" lon="9.940751566072445"><ele>122.60000000000001</ele><time>2026-04-19T08:19:40Z</time></trkpt><trkpt lat="44.855312487676606" lon="9.94086130489406"><ele>122.80000000000001</ele><time>2026-04-19T08:19:41Z</time></trkpt><trkpt lat="44.855369312842605" lon="9.94096961316528"><ele>123.0</ele><time>2026-04-19T08:19:41.999Z</time></trkpt><trkpt lat="44.855424586928486" lon="9.941077822068388"><ele>123.0</ele><time>2026-04-19T08:19:42.999Z</time></trkpt><trkpt lat="44.85548167128604" lon="9.941181733515583"><ele>123.00000000000001</ele><time>2026-04-19T08:19:43.999Z</time></trkpt><trkpt lat="44.85554181160994" lon="9.941289243484443"><ele>123.00000000000001</ele><time>2026-04-19T08:19:44.999Z</time></trkpt><trkpt lat="44.855601178649" lon="9.941399129059185"><ele>123.0</ele><time>2026-04-19T08:19:45.999Z</time></trkpt><trkpt lat="44.855656559514884" lon="9.941503657825276"><ele>123.0</ele><time>2026-04-19T08:19:46.999Z</time></trkpt><trkpt lat="44.8557125674591" lon="9.941609647480965"><ele>123.0</ele><time>2026-04-19T08:19:47.999Z</time></trkpt><trkpt lat="44.855769933808006" lon="9.941714885502583"><ele>123.00000000000001</ele><time>2026-04-19T08:19:48.999Z</time></trkpt><trkpt lat="44.85582878206167" lon="9.941820239215621"><ele>123.00000000000001</ele><time>2026-04-19T08:19:49.999Z</time></trkpt><trkpt lat="44.85588860887531" lon="9.941917525100102"><ele>123.0</ele><time>2026-04-19T08:19:50.999Z</time></trkpt><trkpt lat="44.85595146242752" lon="9.942007762939431"><ele>123.0</ele><time>2026-04-19T08:19:51.999Z</time></trkpt><trkpt lat="44.85601676751478" lon="9.942082453179545"><ele>122.66666666666667</ele><time>2026-04-19T08:19:52.999Z</time></trkpt><trkpt lat="44.856089013145855" lon="9.942145409881114"><ele>122.33333333333334</ele><time>2026-04-19T08:19:53.999Z</time></trkpt><trkpt lat="44.85617045975266" lon="9.94219132311693"><ele>122.0</ele><time>2026-04-19T08:19:54.999Z</time></trkpt><trkpt lat="44.85625542226162" lon="9.942226398132563"><ele>121.66666666666667</ele><time>2026-04-19T08:19:55.999Z</time></trkpt><trkpt lat="44.85633932413294" lon="9.942258901760857"><ele>121.33333333333334</ele><time>2026-04-19T08:19:56.999Z</time></trkpt><trkpt lat="44.856424245124266" lon="9.94228544148939"><ele>121.0</ele><time>2026-04-19T08:19:57.999Z</time></trkpt><trkpt lat="44.85650267727474" lon="9.942312712991697"><ele>121.0</ele><time>2026-04-19T08:19:58.999Z</time></trkpt><trkpt lat="44.856573452204195" lon="9.942336549856975"><ele>121.0</ele><time>2026-04-19T08:19:59.999Z</time></trkpt><trkpt lat="44.85663270069531" lon="9.942379949069958"><ele>121.0</ele><time>2026-04-19T08:20:00.999Z</time></trkpt><trkpt lat="44.85673420749165" lon="9.94239119615833"><ele>121.0</ele><time>2026-04-19T08:20:02.999Z</time></trkpt><trkpt lat="44.85680672809231" lon="9.942438782166242"><ele>121.0</ele><time>2026-04-19T08:20:04.999Z</time></trkpt><trkpt lat="44.85682128202869" lon="9.942222568228388"><ele>121.00000000000001</ele><time>2026-04-19T08:20:09.999Z</time></trkpt><trkpt lat="44.85677318809237" lon="9.942162706291747"><ele>121.0</ele><time>2026-04-19T08:20:11.999Z</time></trkpt><trkpt lat="44.856719925762384" lon="9.942063008350939"><ele>121.0</ele><time>2026-04-19T08:20:14.999Z</time></trkpt><trkpt lat="44.85666631259607" lon="9.941954840820102"><ele>121.0</ele><time>2026-04-19T08:20:17.999Z</time></trkpt><trkpt lat="44.856625144321185" lon="9.941844443200056"><ele>121.00000000000001</ele><time>2026-04-19T08:20:20.999Z</time></trkpt><trkpt lat="44.85660850722549" lon="9.941725840572113"><ele>121.0</ele><time>2026-04-19T08:20:23.999Z</time></trkpt><trkpt lat="44.85660445415104" lon="9.941608263401012"><ele>122.50000000000001</ele><time>2026-04-19T08:20:26.999Z</time></trkpt><trkpt lat="44.8566377539558" lon="9.941500787336905"><ele>124.0</ele><time>2026-04-19T08:20:29.999Z</time></trkpt><trkpt lat="44.8566929036745" lon="9.941440836476449"><ele>125.5</ele><time>2026-04-19T08:20:32.999Z</time></trkpt><trkpt lat="44.85676680327369" lon="9.941370745275632"><ele>127.0</ele><time>2026-04-19T08:20:35.998Z</time></trkpt><trkpt lat="44.85683587265458" lon="9.94130773448425"><ele>128.5</ele><time>2026-04-19T08:20:38.998Z</time></trkpt><trkpt lat="44.856891716296076" lon="9.941255027871993"><ele>130.0</ele><time>2026-04-19T08:20:41.998Z</time></trkpt><trkpt lat="44.8569532942721" lon="9.941187770958683"><ele>130.5</ele><time>2026-04-19T08:20:45Z</time></trkpt><trkpt lat="44.857007949522206" lon="9.941105840037142"><ele>131.0</ele><time>2026-04-19T08:20:48Z</time></trkpt><trkpt lat="44.85705543180404" lon="9.94102852593901"><ele>131.5</ele><time>2026-04-19T08:20:51Z</time></trkpt><trkpt lat="44.8570353118146" lon="9.940902099096467"><ele>132.0</ele><time>2026-04-19T08:20:54Z</time></trkpt><trkpt lat="44.85699374173338" lon="9.94080025666953"><ele>132.5</ele><time>2026-04-19T08:20:57Z</time></trkpt><trkpt lat="44.856937689042205" lon="9.940726795980254"><ele>133.0</ele><time>2026-04-19T08:20:59Z</time></trkpt><trkpt lat="44.85686812504739" lon="9.940661950894926"><ele>134.0</ele><time>2026-04-19T08:21:02Z</time></trkpt><trkpt lat="44.85679284423605" lon="9.9405964223362"><ele>135.0</ele><time>2026-04-19T08:21:05Z</time></trkpt><trkpt lat="44.85672283909434" lon="9.940541411468113"><ele>136.0</ele><time>2026-04-19T08:21:08Z</time></trkpt><trkpt lat="44.85664978631048" lon="9.940478137759797"><ele>137.0</ele><time>2026-04-19T08:21:11Z</time></trkpt><trkpt lat="44.85658958287129" lon="9.940431283277023"><ele>138.0</ele><time>2026-04-19T08:21:14Z</time></trkpt><trkpt lat="44.856509898049495" lon="9.940370798734042"><ele>139.0</ele><time>2026-04-19T08:21:17Z</time></trkpt><trkpt lat="44.85644399342653" lon="9.94031847235623"><ele>139.0</ele><time>2026-04-19T08:21:20Z</time></trkpt><trkpt lat="44.85637950170241" lon="9.940256534311702"><ele>139.0</ele><time>2026-04-19T08:21:23Z</time></trkpt><trkpt lat="44.85632161558032" lon="9.940184860144445"><ele>139.0</ele><time>2026-04-19T08:21:26Z</time></trkpt><trkpt lat="44.856271216078596" lon="9.940105055469461"><ele>139.0</ele><time>2026-04-19T08:21:29Z</time></trkpt><trkpt lat="44.85623288181269" lon="9.940005626501236"><ele>139.0</ele><time>2026-04-19T08:21:32Z</time></trkpt><trkpt lat="44.85620698602828" lon="9.93990163242393"><ele>139.0</ele><time>2026-04-19T08:21:35Z</time></trkpt><trkpt lat="44.85619399774518" lon="9.93979239540751"><ele>140.0</ele><time>2026-04-19T08:21:38Z</time></trkpt><trkpt lat="44.85619014558351" lon="9.939679525049348"><ele>141.0</ele><time>2026-04-19T08:21:41Z</time></trkpt><trkpt lat="44.85619559868737" lon="9.939565069368607"><ele>142.0</ele><time>2026-04-19T08:21:44Z</time></trkpt><trkpt lat="44.856220432744955" lon="9.939435468374901"><ele>143.0</ele><time>2026-04-19T08:21:46.999Z</time></trkpt><trkpt lat="44.856247186788856" lon="9.939325712073078"><ele>144.0</ele><time>2026-04-19T08:21:49.999Z</time></trkpt><trkpt lat="44.85627980699221" lon="9.939222922368934"><ele>145.0</ele><time>2026-04-19T08:21:52.999Z</time></trkpt><trkpt lat="44.85631734888104" lon="9.93911853766466"><ele>146.0</ele><time>2026-04-19T08:21:55.999Z</time></trkpt><trkpt lat="44.856359533479804" lon="9.938988663610216"><ele>147.0</ele><time>2026-04-19T08:21:58.999Z</time></trkpt><trkpt lat="44.85639858524252" lon="9.938869405984057"><ele>148.0</ele><time>2026-04-19T08:22:01.999Z</time></trkpt><trkpt lat="44.85643156135422" lon="9.938792635380922"><ele>149.0</ele><time>2026-04-19T08:22:03.999Z</time></trkpt><trkpt lat="44.85649023132203" lon="9.938685816062113"><ele>150.0</ele><time>2026-04-19T08:22:06.999Z</time></trkpt><trkpt lat="44.856560613286426" lon="9.938605978298078"><ele>151.0</ele><time>2026-04-19T08:22:09.999Z</time></trkpt><trkpt lat="44.856635295632216" lon="9.938559721185774"><ele>151.0</ele><time>2026-04-19T08:22:12.999Z</time></trkpt><trkpt lat="44.85671556086882" lon="9.938528522360695"><ele>151.0</ele><time>2026-04-19T08:22:15.999Z</time></trkpt><trkpt lat="44.85680178599396" lon="9.93851017231662"><ele>151.0</ele><time>2026-04-19T08:22:18.999Z</time></trkpt><trkpt lat="44.856887463167" lon="9.938504040826823"><ele>151.0</ele><time>2026-04-19T08:22:21.999Z</time></trkpt><trkpt lat="44.856972850496746" lon="9.938505454668721"><ele>151.0</ele><time>2026-04-19T08:22:24.999Z</time></trkpt><trkpt lat="44.857061284521656" lon="9.938510702857013"><ele>151.0</ele><time>2026-04-19T08:22:27.999Z</time></trkpt><trkpt lat="44.85714435467631" lon="9.9385085762038"><ele>151.71428571428572</ele><time>2026-04-19T08:22:30.999Z</time></trkpt><trkpt lat="44.857238124642144" lon="9.938505988954706"><ele>152.42857142857144</ele><time>2026-04-19T08:22:33.999Z</time></trkpt><trkpt lat="44.857301404330144" lon="9.938498243465649"><ele>153.14285714285717</ele><time>2026-04-19T08:22:35.999Z</time></trkpt><trkpt lat="44.85736415842437" lon="9.938489515022527"><ele>153.85714285714286</ele><time>2026-04-19T08:22:37.999Z</time></trkpt><trkpt lat="44.857427408241136" lon="9.938485895320278"><ele>154.57142857142856</ele><time>2026-04-19T08:22:39.998Z</time></trkpt><trkpt lat="44.857494718262174" lon="9.938484150117786"><ele>155.2857142857143</ele><time>2026-04-19T08:22:41.998Z</time></trkpt><trkpt lat="44.857564619319376" lon="9.93847751047509"><ele>156.0</ele><time>2026-04-19T08:22:43.998Z</time></trkpt><trkpt lat="44.85762842163933" lon="9.93846858634843"><ele>156.33333333333334</ele><time>2026-04-19T08:22:45.998Z</time></trkpt><trkpt lat="44.85769141479686" lon="9.938460566711875"><ele>156.66666666666666</ele><time>2026-04-19T08:22:47.998Z</time></trkpt><trkpt lat="44.85775425811847" lon="9.938450884201538"><ele>157.0</ele><time>2026-04-19T08:22:50Z</time></trkpt><trkpt lat="44.8578500664903" lon="9.938431556153022"><ele>157.33333333333331</ele><time>2026-04-19T08:22:53Z</time></trkpt><trkpt lat="44.857946213936195" lon="9.938424548198462"><ele>157.66666666666666</ele><time>2026-04-19T08:22:56Z</time></trkpt><trkpt lat="44.85800900677177" lon="9.938402702285531"><ele>158.0</ele><time>2026-04-19T08:22:58Z</time></trkpt><trkpt lat="44.858066265769736" lon="9.938353244730632"><ele>159.57142857142858</ele><time>2026-04-19T08:23:00Z</time></trkpt><trkpt lat="44.85812570747908" lon="9.938258811786135"><ele>161.14285714285714</ele><time>2026-04-19T08:23:03Z</time></trkpt><trkpt lat="44.85817321265287" lon="9.938189531225325"><ele>162.71428571428572</ele><time>2026-04-19T08:23:05Z</time></trkpt><trkpt lat="44.85821557775453" lon="9.93811795901884"><ele>164.28571428571428</ele><time>2026-04-19T08:23:07Z</time></trkpt><trkpt lat="44.85825019248085" lon="9.938041784118992"><ele>165.85714285714286</ele><time>2026-04-19T08:23:09Z</time></trkpt><trkpt lat="44.85828664809685" lon="9.93796243972857"><ele>167.42857142857144</ele><time>2026-04-19T08:23:11Z</time></trkpt><trkpt lat="44.85833002338717" lon="9.93788687168822"><ele>169.0</ele><time>2026-04-19T08:23:13Z</time></trkpt><trkpt lat="44.85837314002368" lon="9.937811584679041"><ele>169.0</ele><time>2026-04-19T08:23:15Z</time></trkpt><trkpt lat="44.85841665469203" lon="9.937726614421424"><ele>169.0</ele><time>2026-04-19T08:23:17Z</time></trkpt><trkpt lat="44.858460915865386" lon="9.937641588242917"><ele>169.0</ele><time>2026-04-19T08:23:19Z</time></trkpt><trkpt lat="44.85850436720887" lon="9.937560178218096"><ele>169.0</ele><time>2026-04-19T08:23:21Z</time></trkpt><trkpt lat="44.85854850865603" lon="9.937480439381893"><ele>169.0</ele><time>2026-04-19T08:23:23Z</time></trkpt><trkpt lat="44.85859261863708" lon="9.937390691393443"><ele>169.0</ele><time>2026-04-19T08:23:25Z</time></trkpt><trkpt lat="44.85863954876198" lon="9.937305280456956"><ele>169.0</ele><time>2026-04-19T08:23:27Z</time></trkpt><trkpt lat="44.85868390247555" lon="9.937219096629342"><ele>169.33333333333334</ele><time>2026-04-19T08:23:29Z</time></trkpt><trkpt lat="44.858726002348966" lon="9.937150489014819"><ele>169.66666666666669</ele><time>2026-04-19T08:23:31Z</time></trkpt><trkpt lat="44.85877620635586" lon="9.937060869229576"><ele>170.0</ele><time>2026-04-19T08:23:33Z</time></trkpt><trkpt lat="44.858823311800805" lon="9.936968916969361"><ele>170.33333333333334</ele><time>2026-04-19T08:23:35Z</time></trkpt><trkpt lat="44.858873002128405" lon="9.936873892776124"><ele>170.66666666666666</ele><time>2026-04-19T08:23:37Z</time></trkpt><trkpt lat="44.85892152407896" lon="9.936777548991932"><ele>171.0</ele><time>2026-04-19T08:23:39Z</time></trkpt><trkpt lat="44.858955299303275" lon="9.936669796310575"><ele>171.0</ele><time>2026-04-19T08:23:41Z</time></trkpt><trkpt lat="44.85895823915433" lon="9.936533995301016"><ele>171.0</ele><time>2026-04-19T08:23:43Z</time></trkpt><trkpt lat="44.85891498682981" lon="9.93641286573675"><ele>171.0</ele><time>2026-04-19T08:23:45Z</time></trkpt><trkpt lat="44.858873194295164" lon="9.936303318743615"><ele>171.0</ele><time>2026-04-19T08:23:46.999Z</time></trkpt><trkpt lat="44.85883895202053" lon="9.936188918153924"><ele>171.0</ele><time>2026-04-19T08:23:48.999Z</time></trkpt><trkpt lat="44.85879254723227" lon="9.936077304855628"><ele>171.0</ele><time>2026-04-19T08:23:50.999Z</time></trkpt><trkpt lat="44.858744216083785" lon="9.935970763461027"><ele>171.0</ele><time>2026-04-19T08:23:52.999Z</time></trkpt><trkpt lat="44.85869803383616" lon="9.93586385179981"><ele>171.0</ele><time>2026-04-19T08:23:54.999Z</time></trkpt><trkpt lat="44.85865598586011" lon="9.935761134887889"><ele>171.0</ele><time>2026-04-19T08:23:56.999Z</time></trkpt><trkpt lat="44.85860643108513" lon="9.935652739544699"><ele>171.0</ele><time>2026-04-19T08:23:58.999Z</time></trkpt><trkpt lat="44.858555648352166" lon="9.935535208360607"><ele>171.20000000000002</ele><time>2026-04-19T08:24:00.999Z</time></trkpt><trkpt lat="44.85849994994255" lon="9.935416244667906"><ele>171.4</ele><time>2026-04-19T08:24:02.999Z</time></trkpt><trkpt lat="44.85844757001876" lon="9.935290714407781"><ele>171.6</ele><time>2026-04-19T08:24:04.999Z</time></trkpt><trkpt lat="44.85839314842721" lon="9.935167352445038"><ele>171.8</ele><time>2026-04-19T08:24:06.999Z</time></trkpt><trkpt lat="44.858335787301975" lon="9.935046654714943"><ele>172.0</ele><time>2026-04-19T08:24:08.999Z</time></trkpt><trkpt lat="44.858278447355374" lon="9.934923143431023"><ele>172.75</ele><time>2026-04-19T08:24:10.999Z</time></trkpt><trkpt lat="44.858222489039825" lon="9.934799147743295"><ele>173.5</ele><time>2026-04-19T08:24:12.999Z</time></trkpt><trkpt lat="44.85816850101386" lon="9.934674614423484"><ele>174.25</ele><time>2026-04-19T08:24:14.999Z</time></trkpt><trkpt lat="44.858094572373" lon="9.934497341644185"><ele>175.0</ele><time>2026-04-19T08:24:17.999Z</time></trkpt><trkpt lat="44.85803471966926" lon="9.934362947674009"><ele>175.0</ele><time>2026-04-19T08:24:19.999Z</time></trkpt><trkpt lat="44.857996898326576" lon="9.934285079148365"><ele>175.0</ele><time>2026-04-19T08:24:20.999Z</time></trkpt><trkpt lat="44.85794315507241" lon="9.934165592109311"><ele>175.0</ele><time>2026-04-19T08:24:22.999Z</time></trkpt><trkpt lat="44.85787535017162" lon="9.934010443332342"><ele>175.0</ele><time>2026-04-19T08:24:25.999Z</time></trkpt><trkpt lat="44.857830618092564" lon="9.933904375798154"><ele>175.0</ele><time>2026-04-19T08:24:26.999Z</time></trkpt><trkpt lat="44.85777137238403" lon="9.933778693812997"><ele>174.6</ele><time>2026-04-19T08:24:28.999Z</time></trkpt><trkpt lat="44.85771280310083" lon="9.933649409049147"><ele>174.2</ele><time>2026-04-19T08:24:30.999Z</time></trkpt><trkpt lat="44.85765501572396" lon="9.93351565303168"><ele>173.8</ele><time>2026-04-19T08:24:32.999Z</time></trkpt><trkpt lat="44.85759847884621" lon="9.933388667790378"><ele>173.4</ele><time>2026-04-19T08:24:34.999Z</time></trkpt><trkpt lat="44.857538781141294" lon="9.93325783747905"><ele>173.0</ele><time>2026-04-19T08:24:36.999Z</time></trkpt><trkpt lat="44.857479148904396" lon="9.93312831437365"><ele>174.0</ele><time>2026-04-19T08:24:38.999Z</time></trkpt><trkpt lat="44.85742036737443" lon="9.932996160420291"><ele>175.0</ele><time>2026-04-19T08:24:40.998Z</time></trkpt><trkpt lat="44.85736169216804" lon="9.932863384557988"><ele>176.0</ele><time>2026-04-19T08:24:42.998Z</time></trkpt><trkpt lat="44.857303216050994" lon="9.932723961670549"><ele>177.0</ele><time>2026-04-19T08:24:44.998Z</time></trkpt><trkpt lat="44.857243280688856" lon="9.932594153064905"><ele>178.0</ele><time>2026-04-19T08:24:46.998Z</time></trkpt><trkpt lat="44.857185829491925" lon="9.932457261102774"><ele>178.0</ele><time>2026-04-19T08:24:48.998Z</time></trkpt><trkpt lat="44.857131939754325" lon="9.932321887184898"><ele>178.0</ele><time>2026-04-19T08:24:50.998Z</time></trkpt><trkpt lat="44.85708149206625" lon="9.932183230303144"><ele>178.0</ele><time>2026-04-19T08:24:52.998Z</time></trkpt><trkpt lat="44.857043124807745" lon="9.93203878400574"><ele>178.0</ele><time>2026-04-19T08:24:54.998Z</time></trkpt><trkpt lat="44.85702387484588" lon="9.931892455527054"><ele>178.0</ele><time>2026-04-19T08:24:57Z</time></trkpt><trkpt lat="44.85704626913625" lon="9.93174329270314"><ele>178.8</ele><time>2026-04-19T08:24:59Z</time></trkpt><trkpt lat="44.85710196415369" lon="9.931606062301443"><ele>179.60000000000002</ele><time>2026-04-19T08:25:01Z</time></trkpt><trkpt lat="44.857174965654636" lon="9.931489861370629"><ele>180.39999999999998</ele><time>2026-04-19T08:25:03Z</time></trkpt><trkpt lat="44.85725463906035" lon="9.931374079078182"><ele>181.2</ele><time>2026-04-19T08:25:05Z</time></trkpt><trkpt lat="44.85733561085775" lon="9.931272192297593"><ele>182.0</ele><time>2026-04-19T08:25:07Z</time></trkpt><trkpt lat="44.85741883448455" lon="9.931168683047881"><ele>182.0</ele><time>2026-04-19T08:25:09Z</time></trkpt><trkpt lat="44.85750041818305" lon="9.93106002661259"><ele>182.0</ele><time>2026-04-19T08:25:11Z</time></trkpt><trkpt lat="44.85757945220378" lon="9.930946644848346"><ele>182.0</ele><time>2026-04-19T08:25:13Z</time></trkpt><trkpt lat="44.857651918929015" lon="9.930819102701312"><ele>182.0</ele><time>2026-04-19T08:25:15Z</time></trkpt><trkpt lat="44.857718002772174" lon="9.930690174450662"><ele>182.0</ele><time>2026-04-19T08:25:17Z</time></trkpt><trkpt lat="44.85779128381234" lon="9.93055956372414"><ele>182.0</ele><time>2026-04-19T08:25:19Z</time></trkpt><trkpt lat="44.85786037230391" lon="9.930430052715966"><ele>182.0</ele><time>2026-04-19T08:25:21Z</time></trkpt><trkpt lat="44.85792696023164" lon="9.930296146432521"><ele>182.0</ele><time>2026-04-19T08:25:23Z</time></trkpt><trkpt lat="44.85799869101863" lon="9.930163058709883"><ele>183.0</ele><time>2026-04-19T08:25:25Z</time></trkpt><trkpt lat="44.85806787307828" lon="9.930025501705826"><ele>184.0</ele><time>2026-04-19T08:25:27Z</time></trkpt><trkpt lat="44.858137349675204" lon="9.929892783579113"><ele>185.0</ele><time>2026-04-19T08:25:29Z</time></trkpt><trkpt lat="44.858205825441296" lon="9.929758705806817"><ele>186.0</ele><time>2026-04-19T08:25:31Z</time></trkpt><trkpt lat="44.85827483497303" lon="9.929622019385988"><ele>186.0</ele><time>2026-04-19T08:25:33Z</time></trkpt><trkpt lat="44.85831094549609" lon="9.929549252013556"><ele>186.0</ele><time>2026-04-19T08:25:34Z</time></trkpt><trkpt lat="44.85838710263517" lon="9.929406801998214"><ele>186.0</ele><time>2026-04-19T08:25:36Z</time></trkpt><trkpt lat="44.858460379187434" lon="9.92926471637706"><ele>186.0</ele><time>2026-04-19T08:25:38Z</time></trkpt><trkpt lat="44.858499658664996" lon="9.929192636656717"><ele>186.0</ele><time>2026-04-19T08:25:39Z</time></trkpt><trkpt lat="44.858537040566155" lon="9.929117063657031"><ele>186.0</ele><time>2026-04-19T08:25:40Z</time></trkpt><trkpt lat="44.85857542058846" lon="9.929046244180308"><ele>185.57142857142858</ele><time>2026-04-19T08:25:41Z</time></trkpt><trkpt lat="44.85861868279751" lon="9.928972886443827"><ele>185.14285714285714</ele><time>2026-04-19T08:25:42Z</time></trkpt><trkpt lat="44.8586610041323" lon="9.92890584196052"><ele>184.71428571428572</ele><time>2026-04-19T08:25:43Z</time></trkpt><trkpt lat="44.858702282676326" lon="9.928828463903912"><ele>184.28571428571428</ele><time>2026-04-19T08:25:44Z</time></trkpt><trkpt lat="44.85874249600763" lon="9.928754294279615"><ele>183.85714285714286</ele><time>2026-04-19T08:25:45Z</time></trkpt><trkpt lat="44.8587808951757" lon="9.928675034674393"><ele>183.42857142857144</ele><time>2026-04-19T08:25:46Z</time></trkpt><trkpt lat="44.8588194014128" lon="9.928600140177647"><ele>183.0</ele><time>2026-04-19T08:25:47Z</time></trkpt><trkpt lat="44.858859764945116" lon="9.928527120368175"><ele>183.0</ele><time>2026-04-19T08:25:48Z</time></trkpt><trkpt lat="44.858901615588664" lon="9.928457496090576"><ele>183.0</ele><time>2026-04-19T08:25:49Z</time></trkpt><trkpt lat="44.8589477472111" lon="9.928386294296294"><ele>183.0</ele><time>2026-04-19T08:25:50Z</time></trkpt><trkpt lat="44.85898798459842" lon="9.92831749184699"><ele>183.0</ele><time>2026-04-19T08:25:51Z</time></trkpt><trkpt lat="44.859033100770525" lon="9.92824887410581"><ele>183.0</ele><time>2026-04-19T08:25:52Z</time></trkpt><trkpt lat="44.85908391637799" lon="9.92818427400234"><ele>183.0</ele><time>2026-04-19T08:25:53Z</time></trkpt><trkpt lat="44.8591429156813" lon="9.928122510270773"><ele>183.0</ele><time>2026-04-19T08:25:53.999Z</time></trkpt><trkpt lat="44.85920162443122" lon="9.92806413812818"><ele>183.0</ele><time>2026-04-19T08:25:54.999Z</time></trkpt><trkpt lat="44.859263056484735" lon="9.927999819115277"><ele>183.0</ele><time>2026-04-19T08:25:55.999Z</time></trkpt><trkpt lat="44.85932852740737" lon="9.927933743880052"><ele>183.0</ele><time>2026-04-19T08:25:56.999Z</time></trkpt><trkpt lat="44.85940016194938" lon="9.927867837344484"><ele>183.0</ele><time>2026-04-19T08:25:57.999Z</time></trkpt><trkpt lat="44.85947231964568" lon="9.927794928468266"><ele>183.0</ele><time>2026-04-19T08:25:58.999Z</time></trkpt><trkpt lat="44.859539705845094" lon="9.927707034750508"><ele>183.0</ele><time>2026-04-19T08:25:59.999Z</time></trkpt><trkpt lat="44.85960334816247" lon="9.92760669581287"><ele>182.4</ele><time>2026-04-19T08:26:00.999Z</time></trkpt><trkpt lat="44.85966321802387" lon="9.92750065636649"><ele>181.8</ele><time>2026-04-19T08:26:01.999Z</time></trkpt><trkpt lat="44.85972143586094" lon="9.927381578518482"><ele>181.2</ele><time>2026-04-19T08:26:02.999Z</time></trkpt><trkpt lat="44.859779477824304" lon="9.927255869336099"><ele>180.6</ele><time>2026-04-19T08:26:03.999Z</time></trkpt><trkpt lat="44.8598258094449" lon="9.927121305172724"><ele>180.0</ele><time>2026-04-19T08:26:04.999Z</time></trkpt><trkpt lat="44.859866022373076" lon="9.926974440674499"><ele>180.0</ele><time>2026-04-19T08:26:05.999Z</time></trkpt><trkpt lat="44.85988650307381" lon="9.926826174952176"><ele>180.0</ele><time>2026-04-19T08:26:06.999Z</time></trkpt><trkpt lat="44.85990130845264" lon="9.926661683502962"><ele>180.0</ele><time>2026-04-19T08:26:07.999Z</time></trkpt><trkpt lat="44.85992057077853" lon="9.926519463819785"><ele>180.0</ele><time>2026-04-19T08:26:08.999Z</time></trkpt><trkpt lat="44.85993869883227" lon="9.926379930622327"><ele>180.0</ele><time>2026-04-19T08:26:09.999Z</time></trkpt><trkpt lat="44.85996302046393" lon="9.926251531046594"><ele>180.0</ele><time>2026-04-19T08:26:10.999Z</time></trkpt><trkpt lat="44.85998464199374" lon="9.92613091750092"><ele>180.0</ele><time>2026-04-19T08:26:11.999Z</time></trkpt><trkpt lat="44.86000857651622" lon="9.926027990326567"><ele>180.0</ele><time>2026-04-19T08:26:12.999Z</time></trkpt><trkpt lat="44.86003586988204" lon="9.925937384272663"><ele>180.0</ele><time>2026-04-19T08:26:13.999Z</time></trkpt><trkpt lat="44.86006934708665" lon="9.925851893151213"><ele>180.0</ele><time>2026-04-19T08:26:14.999Z</time></trkpt><trkpt lat="44.86010893107615" lon="9.925779956402199"><ele>180.0</ele><time>2026-04-19T08:26:15.999Z</time></trkpt><trkpt lat="44.86020793747292" lon="9.925675758570737"><ele>179.6</ele><time>2026-04-19T08:26:17.999Z</time></trkpt><trkpt lat="44.86032418847359" lon="9.925628089958742"><ele>179.2</ele><time>2026-04-19T08:26:19.999Z</time></trkpt><trkpt lat="44.86038740201397" lon="9.92563536413981"><ele>178.8</ele><time>2026-04-19T08:26:20.999Z</time></trkpt><trkpt lat="44.86050274058811" lon="9.925661935488609"><ele>178.4</ele><time>2026-04-19T08:26:22.999Z</time></trkpt><trkpt lat="44.860565957383386" lon="9.925688232062996"><ele>178.0</ele><time>2026-04-19T08:26:23.999Z</time></trkpt><trkpt lat="44.860659945399476" lon="9.925714055673279"><ele>178.0</ele><time>2026-04-19T08:26:25.999Z</time></trkpt><trkpt lat="44.86076721067131" lon="9.925727581478268"><ele>178.0</ele><time>2026-04-19T08:26:27.999Z</time></trkpt><trkpt lat="44.86088160344244" lon="9.925768344927056"><ele>178.0</ele><time>2026-04-19T08:26:29.999Z</time></trkpt><trkpt lat="44.861004610631646" lon="9.925789645010866"><ele>178.0</ele><time>2026-04-19T08:26:31.999Z</time></trkpt><trkpt lat="44.86106733343883" lon="9.925815616328286"><ele>178.0</ele><time>2026-04-19T08:26:32.999Z</time></trkpt><trkpt lat="44.86119100287673" lon="9.925849423711755"><ele>177.8</ele><time>2026-04-19T08:26:34.999Z</time></trkpt><trkpt lat="44.861312525980594" lon="9.925886794146463"><ele>177.60000000000002</ele><time>2026-04-19T08:26:36.999Z</time></trkpt><trkpt lat="44.86143645303079" lon="9.925914799375184"><ele>177.39999999999998</ele><time>2026-04-19T08:26:38.999Z</time></trkpt><trkpt lat="44.86150648797378" lon="9.925914259405172"><ele>177.2</ele><time>2026-04-19T08:26:39.999Z</time></trkpt><trkpt lat="44.861579491352465" lon="9.925902887412366"><ele>177.0</ele><time>2026-04-19T08:26:40.999Z</time></trkpt><trkpt lat="44.8616526197911" lon="9.92587775859531"><ele>176.83333333333334</ele><time>2026-04-19T08:26:41.999Z</time></trkpt><trkpt lat="44.86172692201617" lon="9.925842658662981"><ele>176.66666666666666</ele><time>2026-04-19T08:26:42.999Z</time></trkpt><trkpt lat="44.86180300774622" lon="9.925808934610606"><ele>176.5</ele><time>2026-04-19T08:26:43.999Z</time></trkpt><trkpt lat="44.86188486718308" lon="9.92578781248691"><ele>176.33333333333331</ele><time>2026-04-19T08:26:44.999Z</time></trkpt><trkpt lat="44.861969261280436" lon="9.925816438034559"><ele>176.16666666666666</ele><time>2026-04-19T08:26:45.999Z</time></trkpt><trkpt lat="44.86205721208562" lon="9.925849302120113"><ele>176.0</ele><time>2026-04-19T08:26:46.998Z</time></trkpt><trkpt lat="44.862144623272485" lon="9.925892195015834"><ele>175.4</ele><time>2026-04-19T08:26:47.998Z</time></trkpt><trkpt lat="44.862231107650715" lon="9.9259404475884"><ele>174.8</ele><time>2026-04-19T08:26:48.998Z</time></trkpt><trkpt lat="44.862316417186285" lon="9.925985998478659"><ele>174.20000000000002</ele><time>2026-04-19T08:26:49.998Z</time></trkpt><trkpt lat="44.86240278976745" lon="9.926033015539746"><ele>173.60000000000002</ele><time>2026-04-19T08:26:50.998Z</time></trkpt><trkpt lat="44.86248920198754" lon="9.926081890079178"><ele>173.0</ele><time>2026-04-19T08:26:51.998Z</time></trkpt><trkpt lat="44.86257657588914" lon="9.926131696298569"><ele>172.4</ele><time>2026-04-19T08:26:52.998Z</time></trkpt><trkpt lat="44.862656148705454" lon="9.926194652033963"><ele>171.8</ele><time>2026-04-19T08:26:53.998Z</time></trkpt><trkpt lat="44.86273616877312" lon="9.926259810234454"><ele>171.2</ele><time>2026-04-19T08:26:54.998Z</time></trkpt><trkpt lat="44.86277367771518" lon="9.926390474901266"><ele>170.6</ele><time>2026-04-19T08:26:55.998Z</time></trkpt><trkpt lat="44.862838766923154" lon="9.92648733495616"><ele>170.0</ele><time>2026-04-19T08:26:56.998Z</time></trkpt><trkpt lat="44.86288255595357" lon="9.92660320963843"><ele>170.0</ele><time>2026-04-19T08:26:57.998Z</time></trkpt><trkpt lat="44.862943787205836" lon="9.926702267398866"><ele>170.0</ele><time>2026-04-19T08:26:58.998Z</time></trkpt><trkpt lat="44.86302401214759" lon="9.926778379694175"><ele>170.0</ele><time>2026-04-19T08:26:59.998Z</time></trkpt><trkpt lat="44.86313977116705" lon="9.926715412015387"><ele>170.0</ele><time>2026-04-19T08:27:00.998Z</time></trkpt><trkpt lat="44.86322424519892" lon="9.926671132926051"><ele>170.0</ele><time>2026-04-19T08:27:02Z</time></trkpt><trkpt lat="44.863305202385334" lon="9.926617817247916"><ele>170.0</ele><time>2026-04-19T08:27:03Z</time></trkpt><trkpt lat="44.8633835209334" lon="9.92656208067147"><ele>170.0</ele><time>2026-04-19T08:27:04Z</time></trkpt><trkpt lat="44.86346611321773" lon="9.926506503623129"><ele>170.0</ele><time>2026-04-19T08:27:05Z</time></trkpt><trkpt lat="44.86354663988333" lon="9.926456155314705"><ele>170.0</ele><time>2026-04-19T08:27:06Z</time></trkpt><trkpt lat="44.86363020817182" lon="9.9264042370246"><ele>170.0</ele><time>2026-04-19T08:27:07Z</time></trkpt><trkpt lat="44.863712428855095" lon="9.926351541425488"><ele>170.0</ele><time>2026-04-19T08:27:08Z</time></trkpt><trkpt lat="44.863789877214856" lon="9.926295398965733"><ele>169.0</ele><time>2026-04-19T08:27:09Z</time></trkpt><trkpt lat="44.86386717843763" lon="9.926240572950183"><ele>168.0</ele><time>2026-04-19T08:27:10Z</time></trkpt><trkpt lat="44.863948319611346" lon="9.926190023713794"><ele>167.0</ele><time>2026-04-19T08:27:11Z</time></trkpt><trkpt lat="44.86402555663287" lon="9.926139160543801"><ele>166.0</ele><time>2026-04-19T08:27:12Z</time></trkpt><trkpt lat="44.86410466498396" lon="9.926087937232777"><ele>165.0</ele><time>2026-04-19T08:27:13Z</time></trkpt><trkpt lat="44.86418589524025" lon="9.92603906909067"><ele>164.0</ele><time>2026-04-19T08:27:14Z</time></trkpt><trkpt lat="44.86426570957684" lon="9.925994795459868"><ele>164.2</ele><time>2026-04-19T08:27:15Z</time></trkpt><trkpt lat="44.86434795465081" lon="9.92595458919382"><ele>164.39999999999998</ele><time>2026-04-19T08:27:16Z</time></trkpt><trkpt lat="44.86443439187449" lon="9.925923769236482"><ele>164.6</ele><time>2026-04-19T08:27:17Z</time></trkpt><trkpt lat="44.86452207019382" lon="9.925901299524613"><ele>164.8</ele><time>2026-04-19T08:27:18Z</time></trkpt><trkpt lat="44.864613248446005" lon="9.92588601877737"><ele>165.0</ele><time>2026-04-19T08:27:19Z</time></trkpt><trkpt lat="44.86470929625546" lon="9.92587909291802"><ele>165.0</ele><time>2026-04-19T08:27:20Z</time></trkpt><trkpt lat="44.86480806045589" lon="9.925864876870625"><ele>165.0</ele><time>2026-04-19T08:27:21Z</time></trkpt><trkpt lat="44.86490780992626" lon="9.925836944704386"><ele>165.0</ele><time>2026-04-19T08:27:22Z</time></trkpt><trkpt lat="44.86501272390839" lon="9.925815671977716"><ele>165.0</ele><time>2026-04-19T08:27:23Z</time></trkpt><trkpt lat="44.8651200770386" lon="9.925801705170347"><ele>165.0</ele><time>2026-04-19T08:27:24Z</time></trkpt><trkpt lat="44.865229538081714" lon="9.92579601848356"><ele>164.2</ele><time>2026-04-19T08:27:25Z</time></trkpt><trkpt lat="44.865340366258096" lon="9.925789585696943"><ele>163.4</ele><time>2026-04-19T08:27:26Z</time></trkpt><trkpt lat="44.865450308670965" lon="9.925770091736368"><ele>162.60000000000002</ele><time>2026-04-19T08:27:27Z</time></trkpt><trkpt lat="44.865552691665805" lon="9.925790348941101"><ele>161.8</ele><time>2026-04-19T08:27:28Z</time></trkpt><trkpt lat="44.865640889077575" lon="9.92583105605817"><ele>161.0</ele><time>2026-04-19T08:27:29Z</time></trkpt><trkpt lat="44.86571970796289" lon="9.925892229698734"><ele>159.4</ele><time>2026-04-19T08:27:30Z</time></trkpt><trkpt lat="44.86578383250237" lon="9.926004822149208"><ele>157.8</ele><time>2026-04-19T08:27:31Z</time></trkpt><trkpt lat="44.86584751803833" lon="9.926118314590923"><ele>156.20000000000002</ele><time>2026-04-19T08:27:32Z</time></trkpt><trkpt lat="44.86593324719855" lon="9.92620815874246"><ele>154.60000000000002</ele><time>2026-04-19T08:27:33Z</time></trkpt><trkpt lat="44.86601510972389" lon="9.92630427932859"><ele>153.0</ele><time>2026-04-19T08:27:34Z</time></trkpt><trkpt lat="44.86613135706194" lon="9.926321933851234"><ele>151.75</ele><time>2026-04-19T08:27:35Z</time></trkpt><trkpt lat="44.86624622936081" lon="9.926320876165777"><ele>150.5</ele><time>2026-04-19T08:27:36Z</time></trkpt><trkpt lat="44.86636114746572" lon="9.92629755086943"><ele>149.25</ele><time>2026-04-19T08:27:37Z</time></trkpt><trkpt lat="44.86647373835785" lon="9.926271434197208"><ele>148.0</ele><time>2026-04-19T08:27:38Z</time></trkpt><trkpt lat="44.866587674276666" lon="9.926255905241808"><ele>148.0</ele><time>2026-04-19T08:27:39Z</time></trkpt><trkpt lat="44.86669325993228" lon="9.926236790577203"><ele>148.0</ele><time>2026-04-19T08:27:40Z</time></trkpt><trkpt lat="44.866783510988505" lon="9.926208850831445"><ele>148.0</ele><time>2026-04-19T08:27:41Z</time></trkpt><trkpt lat="44.866859953708605" lon="9.92614551194129"><ele>148.0</ele><time>2026-04-19T08:27:42Z</time></trkpt><trkpt lat="44.86690808858682" lon="9.926031335573049"><ele>148.0</ele><time>2026-04-19T08:27:43Z</time></trkpt><trkpt lat="44.86690725145066" lon="9.92589321246493"><ele>148.8</ele><time>2026-04-19T08:27:44Z</time></trkpt><trkpt lat="44.8668641476994" lon="9.925763738044841"><ele>149.60000000000002</ele><time>2026-04-19T08:27:45Z</time></trkpt><trkpt lat="44.866796472761294" lon="9.925656156414453"><ele>150.39999999999998</ele><time>2026-04-19T08:27:46Z</time></trkpt><trkpt lat="44.86672579329679" lon="9.925552897526869"><ele>151.2</ele><time>2026-04-19T08:27:47Z</time></trkpt><trkpt lat="44.86665688062675" lon="9.92544632754624"><ele>152.0</ele><time>2026-04-19T08:27:48Z</time></trkpt><trkpt lat="44.866584176210104" lon="9.925340100974072"><ele>152.0</ele><time>2026-04-19T08:27:49Z</time></trkpt><trkpt lat="44.86650845222812" lon="9.925228722103375"><ele>152.0</ele><time>2026-04-19T08:27:50Z</time></trkpt><trkpt lat="44.86644781739839" lon="9.925103861846708"><ele>152.0</ele><time>2026-04-19T08:27:51Z</time></trkpt><trkpt lat="44.866424023251575" lon="9.924966349167269"><ele>152.0</ele><time>2026-04-19T08:27:52Z</time></trkpt><trkpt lat="44.86642216389677" lon="9.924836462050791"><ele>152.0</ele><time>2026-04-19T08:27:53Z</time></trkpt><trkpt lat="44.866444410201964" lon="9.924729759701668"><ele>150.0</ele><time>2026-04-19T08:27:54Z</time></trkpt><trkpt lat="44.866497083453474" lon="9.924650966662275"><ele>148.0</ele><time>2026-04-19T08:27:55Z</time></trkpt><trkpt lat="44.86666794386876" lon="9.924658131529526"><ele>146.0</ele><time>2026-04-19T08:27:56.999Z</time></trkpt><trkpt lat="44.86675395333889" lon="9.924638031248202"><ele>144.0</ele><time>2026-04-19T08:27:57.999Z</time></trkpt><trkpt lat="44.866839548388796" lon="9.924643983819687"><ele>142.0</ele><time>2026-04-19T08:27:58.999Z</time></trkpt><trkpt lat="44.86692324716303" lon="9.924639936613247"><ele>140.66666666666669</ele><time>2026-04-19T08:27:59.999Z</time></trkpt><trkpt lat="44.86701103992046" lon="9.924640858730667"><ele>139.33333333333334</ele><time>2026-04-19T08:28:00.999Z</time></trkpt><trkpt lat="44.86709935141638" lon="9.92464227851096"><ele>138.0</ele><time>2026-04-19T08:28:01.999Z</time></trkpt><trkpt lat="44.867186385883585" lon="9.924624566662864"><ele>136.66666666666666</ele><time>2026-04-19T08:28:02.999Z</time></trkpt><trkpt lat="44.86727173587591" lon="9.924596222974756"><ele>135.33333333333331</ele><time>2026-04-19T08:28:03.999Z</time></trkpt><trkpt lat="44.86734711592631" lon="9.924521141814935"><ele>134.0</ele><time>2026-04-19T08:28:04.999Z</time></trkpt><trkpt lat="44.86740344257603" lon="9.924421578363292"><ele>134.0</ele><time>2026-04-19T08:28:05.999Z</time></trkpt><trkpt lat="44.8674486517009" lon="9.924307233299311"><ele>134.0</ele><time>2026-04-19T08:28:06.999Z</time></trkpt><trkpt lat="44.86748430760326" lon="9.924193927352514"><ele>134.0</ele><time>2026-04-19T08:28:07.999Z</time></trkpt><trkpt lat="44.86753273083087" lon="9.924090917737011"><ele>134.0</ele><time>2026-04-19T08:28:08.999Z</time></trkpt><trkpt lat="44.86760048581782" lon="9.92401081025962"><ele>134.0</ele><time>2026-04-19T08:28:09.999Z</time></trkpt><trkpt lat="44.86768911440692" lon="9.923980222651865"><ele>134.0</ele><time>2026-04-19T08:28:10.999Z</time></trkpt><trkpt lat="44.8677739692479" lon="9.924018468436511"><ele>135.16666666666666</ele><time>2026-04-19T08:28:11.999Z</time></trkpt><trkpt lat="44.867855301603214" lon="9.924040333252762"><ele>136.33333333333331</ele><time>2026-04-19T08:28:12.999Z</time></trkpt><trkpt lat="44.867932865709044" lon="9.924065710621907"><ele>137.5</ele><time>2026-04-19T08:28:13.999Z</time></trkpt><trkpt lat="44.86801419009289" lon="9.924070628273899"><ele>138.66666666666666</ele><time>2026-04-19T08:28:14.999Z</time></trkpt><trkpt lat="44.86808966680993" lon="9.924097469462097"><ele>139.83333333333334</ele><time>2026-04-19T08:28:15.999Z</time></trkpt><trkpt lat="44.86815924999005" lon="9.924143941249813"><ele>141.0</ele><time>2026-04-19T08:28:16.999Z</time></trkpt><trkpt lat="44.86823272945424" lon="9.924169412890842"><ele>141.0</ele><time>2026-04-19T08:28:17.999Z</time></trkpt><trkpt lat="44.86830536498346" lon="9.924193371035273"><ele>141.0</ele><time>2026-04-19T08:28:18.999Z</time></trkpt><trkpt lat="44.86838086775021" lon="9.92419557934763"><ele>141.0</ele><time>2026-04-19T08:28:19.999Z</time></trkpt><trkpt lat="44.86845258409435" lon="9.924219877165813"><ele>141.0</ele><time>2026-04-19T08:28:20.999Z</time></trkpt><trkpt lat="44.868519761556165" lon="9.924267548457308"><ele>141.0</ele><time>2026-04-19T08:28:21.999Z</time></trkpt><trkpt lat="44.86859157045938" lon="9.924270149104714"><ele>141.0</ele><time>2026-04-19T08:28:22.999Z</time></trkpt><trkpt lat="44.86865956069642" lon="9.924289066515035"><ele>141.0</ele><time>2026-04-19T08:28:23.999Z</time></trkpt><trkpt lat="44.868725210261275" lon="9.92429094324818"><ele>140.66666666666666</ele><time>2026-04-19T08:28:24.999Z</time></trkpt><trkpt lat="44.86878823210945" lon="9.924262409498764"><ele>140.33333333333334</ele><time>2026-04-19T08:28:25.999Z</time></trkpt><trkpt lat="44.86884268125987" lon="9.924197397955684"><ele>140.0</ele><time>2026-04-19T08:28:26.999Z</time></trkpt><trkpt lat="44.86886257853074" lon="9.924099949903413"><ele>139.66666666666669</ele><time>2026-04-19T08:28:27.999Z</time></trkpt><trkpt lat="44.86887081823603" lon="9.924006734330629"><ele>139.33333333333334</ele><time>2026-04-19T08:28:28.999Z</time></trkpt><trkpt lat="44.86886517962874" lon="9.92383955822237"><ele>139.0</ele><time>2026-04-19T08:28:30.999Z</time></trkpt><trkpt lat="44.868859535187454" lon="9.923693933200713"><ele>140.33333333333334</ele><time>2026-04-19T08:28:32.999Z</time></trkpt><trkpt lat="44.86886677602839" lon="9.923577000278831"><ele>141.66666666666669</ele><time>2026-04-19T08:28:34.999Z</time></trkpt><trkpt lat="44.868868781037726" lon="9.923463777087779"><ele>143.0</ele><time>2026-04-19T08:28:36.999Z</time></trkpt><trkpt lat="44.86889070806645" lon="9.923347217172994"><ele>144.33333333333334</ele><time>2026-04-19T08:28:38.999Z</time></trkpt><trkpt lat="44.86893409251841" lon="9.923241418425391"><ele>145.66666666666666</ele><time>2026-04-19T08:28:40.999Z</time></trkpt><trkpt lat="44.868985174270236" lon="9.92314337052817"><ele>147.0</ele><time>2026-04-19T08:28:42.999Z</time></trkpt><trkpt lat="44.869037577074245" lon="9.923046636729515"><ele>147.33333333333334</ele><time>2026-04-19T08:28:44.999Z</time></trkpt><trkpt lat="44.86909497008713" lon="9.922957519602631"><ele>147.66666666666666</ele><time>2026-04-19T08:28:46.999Z</time></trkpt><trkpt lat="44.869159007867445" lon="9.92287009381404"><ele>148.0</ele><time>2026-04-19T08:28:48.998Z</time></trkpt><trkpt lat="44.8692220371443" lon="9.92278357565133"><ele>148.33333333333331</ele><time>2026-04-19T08:28:50.998Z</time></trkpt><trkpt lat="44.869284092677404" lon="9.922699999100116"><ele>148.66666666666666</ele><time>2026-04-19T08:28:52.998Z</time></trkpt><trkpt lat="44.86935448080477" lon="9.922620548248604"><ele>149.0</ele><time>2026-04-19T08:28:54.998Z</time></trkpt><trkpt lat="44.86941273939071" lon="9.922535504047271"><ele>148.33333333333331</ele><time>2026-04-19T08:28:56.998Z</time></trkpt><trkpt lat="44.86947172033317" lon="9.922453178494864"><ele>147.66666666666666</ele><time>2026-04-19T08:28:58.998Z</time></trkpt><trkpt lat="44.86953986433831" lon="9.922375429633524"><ele>147.0</ele><time>2026-04-19T08:29:00.998Z</time></trkpt><trkpt lat="44.86960747579524" lon="9.922299790159883"><ele>146.33333333333334</ele><time>2026-04-19T08:29:02.998Z</time></trkpt><trkpt lat="44.86967577329472" lon="9.922225744788262"><ele>145.66666666666669</ele><time>2026-04-19T08:29:04.998Z</time></trkpt><trkpt lat="44.869753959450705" lon="9.922165017434393"><ele>145.0</ele><time>2026-04-19T08:29:06.998Z</time></trkpt><trkpt lat="44.86983643393011" lon="9.922106788927547"><ele>145.0</ele><time>2026-04-19T08:29:09Z</time></trkpt><trkpt lat="44.86992554835501" lon="9.92205899299689"><ele>145.0</ele><time>2026-04-19T08:29:11Z</time></trkpt><trkpt lat="44.87002109285357" lon="9.922005158547023"><ele>145.0</ele><time>2026-04-19T08:29:13Z</time></trkpt><trkpt lat="44.870098162466626" lon="9.921955886123794"><ele>145.0</ele><time>2026-04-19T08:29:16Z</time></trkpt><trkpt lat="44.870226497108675" lon="9.921882233771223"><ele>145.0</ele><time>2026-04-19T08:29:17Z</time></trkpt><trkpt lat="44.870344358727166" lon="9.921824456102861"><ele>145.16666666666669</ele><time>2026-04-19T08:29:19Z</time></trkpt><trkpt lat="44.8704630299239" lon="9.921757923350867"><ele>145.33333333333334</ele><time>2026-04-19T08:29:21Z</time></trkpt><trkpt lat="44.8705264418617" lon="9.921716669652858"><ele>145.5</ele><time>2026-04-19T08:29:22Z</time></trkpt><trkpt lat="44.87059069824275" lon="9.921686607236003"><ele>145.66666666666666</ele><time>2026-04-19T08:29:23Z</time></trkpt><trkpt lat="44.87065564349617" lon="9.92165821346197"><ele>145.83333333333331</ele><time>2026-04-19T08:29:24Z</time></trkpt><trkpt lat="44.87072150100211" lon="9.92162553336858"><ele>146.0</ele><time>2026-04-19T08:29:25Z</time></trkpt><trkpt lat="44.87078374852775" lon="9.921585192125617"><ele>146.0</ele><time>2026-04-19T08:29:26Z</time></trkpt><trkpt lat="44.870849756973584" lon="9.92155071476627"><ele>146.0</ele><time>2026-04-19T08:29:27Z</time></trkpt><trkpt lat="44.87091467166776" lon="9.921518182298106"><ele>146.0</ele><time>2026-04-19T08:29:28Z</time></trkpt><trkpt lat="44.87098133286323" lon="9.921489292250916"><ele>146.0</ele><time>2026-04-19T08:29:29Z</time></trkpt><trkpt lat="44.871048798046" lon="9.921468329711859"><ele>146.0</ele><time>2026-04-19T08:29:30Z</time></trkpt><trkpt lat="44.8711172104462" lon="9.921463593541842"><ele>146.0</ele><time>2026-04-19T08:29:31Z</time></trkpt><trkpt lat="44.871184104723014" lon="9.921486738722265"><ele>146.0</ele><time>2026-04-19T08:29:32Z</time></trkpt><trkpt lat="44.87124570035234" lon="9.921536865854435"><ele>145.83333333333331</ele><time>2026-04-19T08:29:33Z</time></trkpt><trkpt lat="44.87128514569511" lon="9.921617997941183"><ele>145.66666666666666</ele><time>2026-04-19T08:29:34Z</time></trkpt><trkpt lat="44.87133693288841" lon="9.921676859978168"><ele>145.5</ele><time>2026-04-19T08:29:35Z</time></trkpt><trkpt lat="44.8714277896413" lon="9.921788006859453"><ele>145.33333333333334</ele><time>2026-04-19T08:29:37Z</time></trkpt><trkpt lat="44.87147426325746" lon="9.921855979063812"><ele>145.16666666666669</ele><time>2026-04-19T08:29:38Z</time></trkpt><trkpt lat="44.87156298468279" lon="9.921968575411041"><ele>145.0</ele><time>2026-04-19T08:29:40Z</time></trkpt><trkpt lat="44.87164645628007" lon="9.922087308209482"><ele>145.5</ele><time>2026-04-19T08:29:42Z</time></trkpt><trkpt lat="44.87173432489053" lon="9.922196970370434"><ele>146.0</ele><time>2026-04-19T08:29:44Z</time></trkpt><trkpt lat="44.8718136214655" lon="9.922312489181344"><ele>146.5</ele><time>2026-04-19T08:29:46Z</time></trkpt><trkpt lat="44.87190267281366" lon="9.922420019961528"><ele>147.0</ele><time>2026-04-19T08:29:48Z</time></trkpt><trkpt lat="44.87198225121514" lon="9.922538737286338"><ele>147.5</ele><time>2026-04-19T08:29:50Z</time></trkpt><trkpt lat="44.872060555563586" lon="9.92265983787422"><ele>148.0</ele><time>2026-04-19T08:29:52Z</time></trkpt><trkpt lat="44.87212680828309" lon="9.922780310559416"><ele>148.5</ele><time>2026-04-19T08:29:54Z</time></trkpt><trkpt lat="44.872186304857784" lon="9.92291919440765"><ele>149.0</ele><time>2026-04-19T08:29:56Z</time></trkpt><trkpt lat="44.87226558080822" lon="9.923028398295239"><ele>149.0</ele><time>2026-04-19T08:29:58Z</time></trkpt><trkpt lat="44.8723332964066" lon="9.923155822270784"><ele>149.0</ele><time>2026-04-19T08:29:59.999Z</time></trkpt><trkpt lat="44.87241416235157" lon="9.923277229878867"><ele>149.0</ele><time>2026-04-19T08:30:01.999Z</time></trkpt><trkpt lat="44.872488940299306" lon="9.923402287680625"><ele>149.0</ele><time>2026-04-19T08:30:03.999Z</time></trkpt><trkpt lat="44.87256726370567" lon="9.923519857704122"><ele>148.5</ele><time>2026-04-19T08:30:05.999Z</time></trkpt><trkpt lat="44.8726341945864" lon="9.923638009859088"><ele>148.0</ele><time>2026-04-19T08:30:07.999Z</time></trkpt><trkpt lat="44.872711629864504" lon="9.923752433921385"><ele>147.5</ele><time>2026-04-19T08:30:09.999Z</time></trkpt><trkpt lat="44.87279140298102" lon="9.923873101259202"><ele>147.0</ele><time>2026-04-19T08:30:11.999Z</time></trkpt><trkpt lat="44.872857802463194" lon="9.924014791984886"><ele>147.0</ele><time>2026-04-19T08:30:13.999Z</time></trkpt><trkpt lat="44.87288685474481" lon="9.924093649509096"><ele>147.0</ele><time>2026-04-19T08:30:14.999Z</time></trkpt><trkpt lat="44.872947519256556" lon="9.924250030703218"><ele>147.0</ele><time>2026-04-19T08:30:16.999Z</time></trkpt><trkpt lat="44.87300070003305" lon="9.92440156589566"><ele>147.0</ele><time>2026-04-19T08:30:18.999Z</time></trkpt><trkpt lat="44.87304674442408" lon="9.924559839203198"><ele>147.0</ele><time>2026-04-19T08:30:20.999Z</time></trkpt><trkpt lat="44.873087632452226" lon="9.924725169913872"><ele>146.85714285714286</ele><time>2026-04-19T08:30:22.999Z</time></trkpt><trkpt lat="44.87311157303418" lon="9.924807450028943"><ele>146.71428571428572</ele><time>2026-04-19T08:30:23.999Z</time></trkpt><trkpt lat="44.87314293241717" lon="9.924887636439093"><ele>146.57142857142856</ele><time>2026-04-19T08:30:24.999Z</time></trkpt><trkpt lat="44.87316979092718" lon="9.924973002673775"><ele>146.42857142857144</ele><time>2026-04-19T08:30:25.999Z</time></trkpt><trkpt lat="44.87320079445672" lon="9.92506144190476"><ele>146.28571428571428</ele><time>2026-04-19T08:30:26.999Z</time></trkpt><trkpt lat="44.87322696122399" lon="9.925148164854253"><ele>146.14285714285714</ele><time>2026-04-19T08:30:27.999Z</time></trkpt><trkpt lat="44.87325365286378" lon="9.925236788037168"><ele>146.0</ele><time>2026-04-19T08:30:28.999Z</time></trkpt><trkpt lat="44.87327744611105" lon="9.925327543878737"><ele>145.71428571428572</ele><time>2026-04-19T08:30:29.999Z</time></trkpt><trkpt lat="44.873304461922885" lon="9.925417395216016"><ele>145.42857142857144</ele><time>2026-04-19T08:30:30.999Z</time></trkpt><trkpt lat="44.873336351898686" lon="9.925508286380827"><ele>145.14285714285717</ele><time>2026-04-19T08:30:31.999Z</time></trkpt><trkpt lat="44.873366107734746" lon="9.925597358605039"><ele>144.85714285714286</ele><time>2026-04-19T08:30:32.999Z</time></trkpt><trkpt lat="44.87339544259688" lon="9.925689597982212"><ele>144.57142857142858</ele><time>2026-04-19T08:30:33.999Z</time></trkpt><trkpt lat="44.87343260621416" lon="9.925779315277365"><ele>144.2857142857143</ele><time>2026-04-19T08:30:34.999Z</time></trkpt><trkpt lat="44.87346528193546" lon="9.925870160321068"><ele>144.0</ele><time>2026-04-19T08:30:35.999Z</time></trkpt><trkpt lat="44.87349660399145" lon="9.925961439440886"><ele>143.42857142857144</ele><time>2026-04-19T08:30:36.999Z</time></trkpt><trkpt lat="44.87353275846576" lon="9.926054775688446"><ele>142.85714285714286</ele><time>2026-04-19T08:30:37.999Z</time></trkpt><trkpt lat="44.87356890046929" lon="9.92614430093873"><ele>142.28571428571428</ele><time>2026-04-19T08:30:38.999Z</time></trkpt><trkpt lat="44.8736057788431" lon="9.926233530323193"><ele>141.71428571428572</ele><time>2026-04-19T08:30:39.999Z</time></trkpt><trkpt lat="44.87364282665027" lon="9.926323887144463"><ele>141.14285714285714</ele><time>2026-04-19T08:30:40.999Z</time></trkpt><trkpt lat="44.87367680540653" lon="9.926415322811684"><ele>140.57142857142858</ele><time>2026-04-19T08:30:41.999Z</time></trkpt><trkpt lat="44.873711116340075" lon="9.926507998853664"><ele>140.0</ele><time>2026-04-19T08:30:42.999Z</time></trkpt><trkpt lat="44.873748862586226" lon="9.926596855617893"><ele>140.0</ele><time>2026-04-19T08:30:43.999Z</time></trkpt><trkpt lat="44.87378517397292" lon="9.926684642402629"><ele>140.0</ele><time>2026-04-19T08:30:44.999Z</time></trkpt><trkpt lat="44.873828106071066" lon="9.926768315345749"><ele>140.0</ele><time>2026-04-19T08:30:45.999Z</time></trkpt><trkpt lat="44.873876883886915" lon="9.92684592056993"><ele>140.0</ele><time>2026-04-19T08:30:46.999Z</time></trkpt><trkpt lat="44.8739314966254" lon="9.926916593093713"><ele>140.0</ele><time>2026-04-19T08:30:47.999Z</time></trkpt><trkpt lat="44.87399788906284" lon="9.926978025414577"><ele>140.0</ele><time>2026-04-19T08:30:48.999Z</time></trkpt><trkpt lat="44.874073775833" lon="9.927029648322984"><ele>139.6</ele><time>2026-04-19T08:30:49.999Z</time></trkpt><trkpt lat="44.874155009373425" lon="9.927072428560681"><ele>139.2</ele><time>2026-04-19T08:30:50.999Z</time></trkpt><trkpt lat="44.87424435930629" lon="9.927091075261025"><ele>138.8</ele><time>2026-04-19T08:30:51.999Z</time></trkpt><trkpt lat="44.87433546651586" lon="9.927087812933463"><ele>138.4</ele><time>2026-04-19T08:30:52.998Z</time></trkpt><trkpt lat="44.874427728053135" lon="9.927063724563672"><ele>138.0</ele><time>2026-04-19T08:30:53.998Z</time></trkpt><trkpt lat="44.87451730169153" lon="9.927021211762318"><ele>137.83333333333334</ele><time>2026-04-19T08:30:54.998Z</time></trkpt><trkpt lat="44.87460370933971" lon="9.926968401699591"><ele>137.66666666666666</ele><time>2026-04-19T08:30:55.998Z</time></trkpt><trkpt lat="44.87468502541464" lon="9.926918109234192"><ele>137.5</ele><time>2026-04-19T08:30:56.998Z</time></trkpt><trkpt lat="44.874767368928026" lon="9.92687077643759"><ele>137.33333333333331</ele><time>2026-04-19T08:30:57.998Z</time></trkpt><trkpt lat="44.8748499376496" lon="9.926825305742108"><ele>137.16666666666666</ele><time>2026-04-19T08:30:58.998Z</time></trkpt><trkpt lat="44.874929007410216" lon="9.92677723913602"><ele>137.0</ele><time>2026-04-19T08:30:59.998Z</time></trkpt><trkpt lat="44.87500661125776" lon="9.926727139108717"><ele>137.00000000000003</ele><time>2026-04-19T08:31:00.998Z</time></trkpt><trkpt lat="44.875076761573055" lon="9.926685605063895"><ele>137.0</ele><time>2026-04-19T08:31:01.998Z</time></trkpt><trkpt lat="44.875144850847015" lon="9.926640318231584"><ele>137.0</ele><time>2026-04-19T08:31:02.998Z</time></trkpt><trkpt lat="44.87521310267773" lon="9.92659883079504"><ele>137.0</ele><time>2026-04-19T08:31:03.998Z</time></trkpt><trkpt lat="44.87527862532003" lon="9.926557744564896"><ele>137.0</ele><time>2026-04-19T08:31:04.998Z</time></trkpt><trkpt lat="44.8753501897362" lon="9.926529273309498"><ele>137.00000000000003</ele><time>2026-04-19T08:31:05.998Z</time></trkpt><trkpt lat="44.875420831982574" lon="9.926503427404915"><ele>137.0</ele><time>2026-04-19T08:31:06.998Z</time></trkpt><trkpt lat="44.87547950005345" lon="9.926465190807322"><ele>137.00000000000003</ele><time>2026-04-19T08:31:07.998Z</time></trkpt><trkpt lat="44.875545055608555" lon="9.926411303586502"><ele>137.0</ele><time>2026-04-19T08:31:08.998Z</time></trkpt><trkpt lat="44.875612122895575" lon="9.926371942744986"><ele>137.0</ele><time>2026-04-19T08:31:09.998Z</time></trkpt><trkpt lat="44.875673902742925" lon="9.926328102184012"><ele>137.0</ele><time>2026-04-19T08:31:10.998Z</time></trkpt><trkpt lat="44.875736986967084" lon="9.926299556949319"><ele>137.0</ele><time>2026-04-19T08:31:11.998Z</time></trkpt><trkpt lat="44.875810823526045" lon="9.926259149138234"><ele>137.00000000000003</ele><time>2026-04-19T08:31:13Z</time></trkpt><trkpt lat="44.875877559514336" lon="9.926227997621323"><ele>137.0</ele><time>2026-04-19T08:31:14Z</time></trkpt><trkpt lat="44.87595463432089" lon="9.926204000066967"><ele>135.5</ele><time>2026-04-19T08:31:15Z</time></trkpt><trkpt lat="44.87602650937144" lon="9.926210020909597"><ele>134.0</ele><time>2026-04-19T08:31:16Z</time></trkpt><trkpt lat="44.876094159696756" lon="9.926265380317865"><ele>132.5</ele><time>2026-04-19T08:31:17Z</time></trkpt><trkpt lat="44.87613276525046" lon="9.926392187307826"><ele>131.0</ele><time>2026-04-19T08:31:18Z</time></trkpt><trkpt lat="44.876174374169814" lon="9.926502185178496"><ele>129.5</ele><time>2026-04-19T08:31:19Z</time></trkpt><trkpt lat="44.876216317860546" lon="9.926609984560416"><ele>128.0</ele><time>2026-04-19T08:31:20Z</time></trkpt><trkpt lat="44.87625595008439" lon="9.926714710357244"><ele>127.99999999999999</ele><time>2026-04-19T08:31:21Z</time></trkpt><trkpt lat="44.876310714966735" lon="9.926781027848241"><ele>128.0</ele><time>2026-04-19T08:31:22Z</time></trkpt><trkpt lat="44.87635808875813" lon="9.926844412437152"><ele>128.0</ele><time>2026-04-19T08:31:23Z</time></trkpt><trkpt lat="44.87644723132152" lon="9.926763447721893"><ele>128.0</ele><time>2026-04-19T08:31:24Z</time></trkpt><trkpt lat="44.876460231578164" lon="9.926625749549725"><ele>127.99999999999999</ele><time>2026-04-19T08:31:25Z</time></trkpt><trkpt lat="44.87643138405728" lon="9.926501282329019"><ele>128.0</ele><time>2026-04-19T08:31:26Z</time></trkpt><trkpt lat="44.87639062262021" lon="9.926398110940717"><ele>127.99999999999999</ele><time>2026-04-19T08:31:27Z</time></trkpt><trkpt lat="44.87635452287378" lon="9.926294708608161"><ele>128.0</ele><time>2026-04-19T08:31:28Z</time></trkpt><trkpt lat="44.876322360105284" lon="9.92618636549128"><ele>128.0</ele><time>2026-04-19T08:31:29Z</time></trkpt><trkpt lat="44.876289843288816" lon="9.926070502750461"><ele>128.0</ele><time>2026-04-19T08:31:30Z</time></trkpt><trkpt lat="44.876258250017536" lon="9.925951935600162"><ele>127.99999999999999</ele><time>2026-04-19T08:31:31Z</time></trkpt><trkpt lat="44.87622384138168" lon="9.92583972532456"><ele>128.0</ele><time>2026-04-19T08:31:32Z</time></trkpt><trkpt lat="44.87619120017749" lon="9.92573716764409"><ele>127.60000000000001</ele><time>2026-04-19T08:31:33Z</time></trkpt><trkpt lat="44.87619121496103" lon="9.925640689794225"><ele>127.20000000000002</ele><time>2026-04-19T08:31:34Z</time></trkpt><trkpt lat="44.87623158789867" lon="9.925552087779943"><ele>126.8</ele><time>2026-04-19T08:31:35Z</time></trkpt><trkpt lat="44.87632764392107" lon="9.925512290867795"><ele>126.4</ele><time>2026-04-19T08:31:36Z</time></trkpt><trkpt lat="44.876434328433945" lon="9.925594811380687"><ele>126.0</ele><time>2026-04-19T08:31:37Z</time></trkpt><trkpt lat="44.87652352420979" lon="9.925594811381494"><ele>126.0</ele><time>2026-04-19T08:31:38Z</time></trkpt><trkpt lat="44.8766217591057" lon="9.925540893627227"><ele>126.0</ele><time>2026-04-19T08:31:39Z</time></trkpt><trkpt lat="44.87670311947224" lon="9.925468768539007"><ele>126.0</ele><time>2026-04-19T08:31:40Z</time></trkpt><trkpt lat="44.87677378172756" lon="9.925383839549621"><ele>126.0</ele><time>2026-04-19T08:31:41Z</time></trkpt><trkpt lat="44.87683994896153" lon="9.925303535199935"><ele>126.0</ele><time>2026-04-19T08:31:42Z</time></trkpt><trkpt lat="44.87690265991463" lon="9.925233252225476"><ele>125.71428571428572</ele><time>2026-04-19T08:31:43Z</time></trkpt><trkpt lat="44.87696224209959" lon="9.925168415837737"><ele>125.42857142857143</ele><time>2026-04-19T08:31:44Z</time></trkpt><trkpt lat="44.877020746441566" lon="9.925104865487166"><ele>125.14285714285714</ele><time>2026-04-19T08:31:45Z</time></trkpt><trkpt lat="44.87707904773511" lon="9.925045958977062"><ele>124.85714285714286</ele><time>2026-04-19T08:31:46Z</time></trkpt><trkpt lat="44.877134287183516" lon="9.924982942388139"><ele>124.57142857142858</ele><time>2026-04-19T08:31:47Z</time></trkpt><trkpt lat="44.87719164136415" lon="9.924929794794044"><ele>124.28571428571429</ele><time>2026-04-19T08:31:48Z</time></trkpt><trkpt lat="44.87724347262676" lon="9.924867070455809"><ele>124.0</ele><time>2026-04-19T08:31:49Z</time></trkpt><trkpt lat="44.87734003687452" lon="9.924757843694149"><ele>124.0</ele><time>2026-04-19T08:31:51Z</time></trkpt><trkpt lat="44.877437999598456" lon="9.924649112873983"><ele>124.00000000000001</ele><time>2026-04-19T08:31:53Z</time></trkpt><trkpt lat="44.877489094582636" lon="9.924591645373221"><ele>124.0</ele><time>2026-04-19T08:31:54Z</time></trkpt><trkpt lat="44.877538337267595" lon="9.924535105486202"><ele>124.0</ele><time>2026-04-19T08:31:55Z</time></trkpt><trkpt lat="44.877589121205474" lon="9.924480166821962"><ele>124.00000000000001</ele><time>2026-04-19T08:31:56Z</time></trkpt><trkpt lat="44.877639614262485" lon="9.924425280334503"><ele>124.0</ele><time>2026-04-19T08:31:57Z</time></trkpt><trkpt lat="44.87769131793708" lon="9.924365733556039"><ele>124.0</ele><time>2026-04-19T08:31:58Z</time></trkpt><trkpt lat="44.877743867826666" lon="9.924306561429276"><ele>124.50000000000001</ele><time>2026-04-19T08:31:59Z</time></trkpt><trkpt lat="44.877792738177725" lon="9.92424930295832"><ele>125.0</ele><time>2026-04-19T08:32:00Z</time></trkpt><trkpt lat="44.877844348168416" lon="9.92419213932722"><ele>125.5</ele><time>2026-04-19T08:32:01Z</time></trkpt><trkpt lat="44.87789667218545" lon="9.924135002975778"><ele>126.0</ele><time>2026-04-19T08:32:02Z</time></trkpt><trkpt lat="44.877998594760804" lon="9.92402609465445"><ele>126.50000000000001</ele><time>2026-04-19T08:32:03.999Z</time></trkpt><trkpt lat="44.8780540079949" lon="9.923971400047357"><ele>127.0</ele><time>2026-04-19T08:32:04.999Z</time></trkpt><trkpt lat="44.87810442391475" lon="9.923914214930102"><ele>127.19999999999999</ele><time>2026-04-19T08:32:05.999Z</time></trkpt><trkpt lat="44.87819435244928" lon="9.923807577683858"><ele>127.39999999999999</ele><time>2026-04-19T08:32:07.999Z</time></trkpt><trkpt lat="44.87828567221904" lon="9.92371307632339"><ele>127.60000000000001</ele><time>2026-04-19T08:32:09.999Z</time></trkpt><trkpt lat="44.878369229065086" lon="9.923617113742745"><ele>127.80000000000001</ele><time>2026-04-19T08:32:11.999Z</time></trkpt><trkpt lat="44.87845118655769" lon="9.92352525910587"><ele>128.0</ele><time>2026-04-19T08:32:13.999Z</time></trkpt><trkpt lat="44.87852972779042" lon="9.923437097915334"><ele>128.33333333333331</ele><time>2026-04-19T08:32:15.999Z</time></trkpt><trkpt lat="44.878578681254226" lon="9.923381093891884"><ele>128.66666666666666</ele><time>2026-04-19T08:32:17.999Z</time></trkpt><trkpt lat="44.87866394264262" lon="9.923290087426622"><ele>129.0</ele><time>2026-04-19T08:32:19.999Z</time></trkpt><trkpt lat="44.878720113007674" lon="9.923229855309298"><ele>129.33333333333334</ele><time>2026-04-19T08:32:20.999Z</time></trkpt><trkpt lat="44.87878478773663" lon="9.923152811661694"><ele>129.66666666666669</ele><time>2026-04-19T08:32:22.999Z</time></trkpt><trkpt lat="44.87885481198288" lon="9.923074104830823"><ele>130.0</ele><time>2026-04-19T08:32:24.999Z</time></trkpt><trkpt lat="44.87893028458427" lon="9.923010443910869"><ele>130.0</ele><time>2026-04-19T08:32:26.999Z</time></trkpt><trkpt lat="44.87900856982547" lon="9.922950668805322"><ele>130.0</ele><time>2026-04-19T08:32:28.999Z</time></trkpt><trkpt lat="44.87908640098633" lon="9.922890322399118"><ele>130.0</ele><time>2026-04-19T08:32:30.999Z</time></trkpt><trkpt lat="44.879164364537125" lon="9.922836637598378"><ele>130.0</ele><time>2026-04-19T08:32:32.999Z</time></trkpt><trkpt lat="44.87924341747005" lon="9.922786976492112"><ele>130.0</ele><time>2026-04-19T08:32:34.999Z</time></trkpt><trkpt lat="44.87932822915271" lon="9.922742240880797"><ele>130.0</ele><time>2026-04-19T08:32:36.999Z</time></trkpt><trkpt lat="44.87940832780213" lon="9.92270126438849"><ele>130.0</ele><time>2026-04-19T08:32:38.999Z</time></trkpt><trkpt lat="44.87949147393339" lon="9.922649058534583"><ele>130.0</ele><time>2026-04-19T08:32:40.999Z</time></trkpt><trkpt lat="44.87956424801109" lon="9.922570512361274"><ele>130.0</ele><time>2026-04-19T08:32:42.999Z</time></trkpt><trkpt lat="44.879607100620326" lon="9.922458069030474"><ele>130.0</ele><time>2026-04-19T08:32:44.999Z</time></trkpt><trkpt lat="44.879621937143945" lon="9.922334623653173"><ele>130.0</ele><time>2026-04-19T08:32:46.999Z</time></trkpt><trkpt lat="44.879661848395074" lon="9.92220502437187"><ele>130.75</ele><time>2026-04-19T08:32:48.999Z</time></trkpt><trkpt lat="44.879733561363494" lon="9.922098492108544"><ele>131.5</ele><time>2026-04-19T08:32:50.999Z</time></trkpt><trkpt lat="44.87982349030046" lon="9.922017917464412"><ele>132.25</ele><time>2026-04-19T08:32:52.999Z</time></trkpt><trkpt lat="44.87992014653926" lon="9.921915457626126"><ele>133.0</ele><time>2026-04-19T08:32:54.999Z</time></trkpt><trkpt lat="44.88003120297199" lon="9.921828803414643"><ele>133.0</ele><time>2026-04-19T08:32:56.998Z</time></trkpt><trkpt lat="44.880091913682634" lon="9.921791721532937"><ele>133.0</ele><time>2026-04-19T08:32:57.998Z</time></trkpt><trkpt lat="44.880157231056586" lon="9.921763268680001"><ele>133.0</ele><time>2026-04-19T08:32:58.998Z</time></trkpt><trkpt lat="44.880225019406005" lon="9.921736831619405"><ele>133.0</ele><time>2026-04-19T08:32:59.998Z</time></trkpt><trkpt lat="44.880294495467005" lon="9.9217136035426"><ele>133.0</ele><time>2026-04-19T08:33:00.998Z</time></trkpt><trkpt lat="44.88036464364538" lon="9.921695402927293"><ele>133.0</ele><time>2026-04-19T08:33:01.998Z</time></trkpt><trkpt lat="44.8804358377483" lon="9.921674950086365"><ele>133.0</ele><time>2026-04-19T08:33:02.998Z</time></trkpt><trkpt lat="44.88051175017797" lon="9.921656592559522"><ele>132.5</ele><time>2026-04-19T08:33:03.998Z</time></trkpt><trkpt lat="44.88058649597829" lon="9.921640777451273"><ele>132.0</ele><time>2026-04-19T08:33:04.998Z</time></trkpt><trkpt lat="44.88066150590113" lon="9.921614529909176"><ele>131.5</ele><time>2026-04-19T08:33:05.998Z</time></trkpt><trkpt lat="44.880737589607755" lon="9.921589585579628"><ele>131.0</ele><time>2026-04-19T08:33:06.998Z</time></trkpt><trkpt lat="44.88081591477187" lon="9.921575089417349"><ele>130.5</ele><time>2026-04-19T08:33:07.998Z</time></trkpt><trkpt lat="44.88089673808435" lon="9.921553739389509"><ele>130.0</ele><time>2026-04-19T08:33:08.998Z</time></trkpt><trkpt lat="44.88097804109044" lon="9.921531277603469"><ele>129.33333333333334</ele><time>2026-04-19T08:33:09.998Z</time></trkpt><trkpt lat="44.88106076403654" lon="9.921509944362258"><ele>128.66666666666669</ele><time>2026-04-19T08:33:10.998Z</time></trkpt><trkpt lat="44.88114384583637" lon="9.921489976354305"><ele>128.0</ele><time>2026-04-19T08:33:11.998Z</time></trkpt><trkpt lat="44.88122564334287" lon="9.921459182335823"><ele>127.33333333333334</ele><time>2026-04-19T08:33:12.998Z</time></trkpt><trkpt lat="44.8813077505317" lon="9.921417772442185"><ele>126.66666666666667</ele><time>2026-04-19T08:33:13.998Z</time></trkpt><trkpt lat="44.88138997814282" lon="9.921366517362705"><ele>126.0</ele><time>2026-04-19T08:33:14.998Z</time></trkpt><trkpt lat="44.88147078676873" lon="9.921307578178194"><ele>126.0</ele><time>2026-04-19T08:33:15.998Z</time></trkpt><trkpt lat="44.88155354251689" lon="9.921249247614242"><ele>126.0</ele><time>2026-04-19T08:33:16.998Z</time></trkpt><trkpt lat="44.88163571560232" lon="9.921182049838135"><ele>126.0</ele><time>2026-04-19T08:33:17.998Z</time></trkpt><trkpt lat="44.88171571311341" lon="9.921108135590046"><ele>126.0</ele><time>2026-04-19T08:33:19Z</time></trkpt><trkpt lat="44.8817911901945" lon="9.921026938861957"><ele>126.0</ele><time>2026-04-19T08:33:20Z</time></trkpt><trkpt lat="44.881865705632386" lon="9.92094241656903"><ele>125.4</ele><time>2026-04-19T08:33:21Z</time></trkpt><trkpt lat="44.88193310888314" lon="9.920854002188271"><ele>124.8</ele><time>2026-04-19T08:33:22Z</time></trkpt><trkpt lat="44.88200250580067" lon="9.920770383509053"><ele>124.20000000000002</ele><time>2026-04-19T08:33:23Z</time></trkpt><trkpt lat="44.882071672330355" lon="9.92068786612942"><ele>123.60000000000001</ele><time>2026-04-19T08:33:24Z</time></trkpt><trkpt lat="44.88214350136134" lon="9.920609565388377"><ele>123.0</ele><time>2026-04-19T08:33:25Z</time></trkpt><trkpt lat="44.882207971198554" lon="9.920522811675118"><ele>123.0</ele><time>2026-04-19T08:33:26Z</time></trkpt><trkpt lat="44.88227605951602" lon="9.92044385504114"><ele>123.0</ele><time>2026-04-19T08:33:27Z</time></trkpt><trkpt lat="44.88234678710684" lon="9.920365884489662"><ele>123.0</ele><time>2026-04-19T08:33:28Z</time></trkpt><trkpt lat="44.882417248888835" lon="9.920290838152054"><ele>123.0</ele><time>2026-04-19T08:33:29Z</time></trkpt><trkpt lat="44.88248063833732" lon="9.920210706918386"><ele>123.0</ele><time>2026-04-19T08:33:30Z</time></trkpt><trkpt lat="44.882546345717245" lon="9.920133182624426"><ele>123.0</ele><time>2026-04-19T08:33:31Z</time></trkpt><trkpt lat="44.88261780194645" lon="9.92006007897179"><ele>123.33333333333333</ele><time>2026-04-19T08:33:32Z</time></trkpt><trkpt lat="44.88268722235725" lon="9.919992592207208"><ele>123.66666666666666</ele><time>2026-04-19T08:33:33Z</time></trkpt><trkpt lat="44.882753607212365" lon="9.919907234283926"><ele>124.0</ele><time>2026-04-19T08:33:34Z</time></trkpt><trkpt lat="44.882817553054025" lon="9.919825049805983"><ele>124.33333333333333</ele><time>2026-04-19T08:33:35Z</time></trkpt><trkpt lat="44.88288377244576" lon="9.919743137922787"><ele>124.66666666666666</ele><time>2026-04-19T08:33:36Z</time></trkpt><trkpt lat="44.882948785950035" lon="9.919669178131237"><ele>125.0</ele><time>2026-04-19T08:33:37Z</time></trkpt><trkpt lat="44.883018140686" lon="9.919593113587798"><ele>124.99999999999999</ele><time>2026-04-19T08:33:38Z</time></trkpt><trkpt lat="44.88307754488604" lon="9.919511176697954"><ele>125.0</ele><time>2026-04-19T08:33:39Z</time></trkpt><trkpt lat="44.883139925929385" lon="9.919429380444836"><ele>125.0</ele><time>2026-04-19T08:33:40Z</time></trkpt><trkpt lat="44.883208707359486" lon="9.919351227548747"><ele>125.0</ele><time>2026-04-19T08:33:41Z</time></trkpt><trkpt lat="44.88327107414951" lon="9.919259549160927"><ele>124.99999999999999</ele><time>2026-04-19T08:33:42Z</time></trkpt><trkpt lat="44.88333600548276" lon="9.919171445944121"><ele>125.0</ele><time>2026-04-19T08:33:43Z</time></trkpt><trkpt lat="44.88339459387373" lon="9.919065579151155"><ele>124.2</ele><time>2026-04-19T08:33:44Z</time></trkpt><trkpt lat="44.88344598829476" lon="9.918962808300844"><ele>123.4</ele><time>2026-04-19T08:33:45Z</time></trkpt><trkpt lat="44.883484504116915" lon="9.9188397664389"><ele>122.6</ele><time>2026-04-19T08:33:46Z</time></trkpt><trkpt lat="44.88350483510527" lon="9.918713161269475"><ele>121.8</ele><time>2026-04-19T08:33:47Z</time></trkpt><trkpt lat="44.883516787292436" lon="9.918587396943245"><ele>121.0</ele><time>2026-04-19T08:33:48Z</time></trkpt><trkpt lat="44.88354001699354" lon="9.918463060524738"><ele>121.33333333333334</ele><time>2026-04-19T08:33:49Z</time></trkpt><trkpt lat="44.88356800985092" lon="9.918340086522205"><ele>121.66666666666667</ele><time>2026-04-19T08:33:50Z</time></trkpt><trkpt lat="44.88359593649054" lon="9.918220744033958"><ele>122.0</ele><time>2026-04-19T08:33:51Z</time></trkpt><trkpt lat="44.88361549317261" lon="9.918095920243974"><ele>122.33333333333334</ele><time>2026-04-19T08:33:52Z</time></trkpt><trkpt lat="44.88363839429458" lon="9.917975153179338"><ele>122.66666666666667</ele><time>2026-04-19T08:33:53Z</time></trkpt><trkpt lat="44.883663939869166" lon="9.917854528602765"><ele>123.0</ele><time>2026-04-19T08:33:54Z</time></trkpt><trkpt lat="44.88368372440528" lon="9.917732461680192"><ele>123.0</ele><time>2026-04-19T08:33:55Z</time></trkpt><trkpt lat="44.88370315472029" lon="9.917610036432501"><ele>123.0</ele><time>2026-04-19T08:33:56Z</time></trkpt><trkpt lat="44.883727760991675" lon="9.917490535924012"><ele>123.0</ele><time>2026-04-19T08:33:57Z</time></trkpt><trkpt lat="44.883752682397805" lon="9.917368992981043"><ele>123.0</ele><time>2026-04-19T08:33:58Z</time></trkpt><trkpt lat="44.883775033348556" lon="9.917249214086684"><ele>123.0</ele><time>2026-04-19T08:33:59Z</time></trkpt><trkpt lat="44.88380075278586" lon="9.917127655667011"><ele>123.0</ele><time>2026-04-19T08:34:00Z</time></trkpt><trkpt lat="44.88382539566914" lon="9.9170051296667"><ele>123.0</ele><time>2026-04-19T08:34:01Z</time></trkpt><trkpt lat="44.88385162444513" lon="9.91688185299744"><ele>123.00000000000001</ele><time>2026-04-19T08:34:02Z</time></trkpt><trkpt lat="44.883874893741954" lon="9.916758509306309"><ele>123.00000000000001</ele><time>2026-04-19T08:34:03Z</time></trkpt><trkpt lat="44.88389735827012" lon="9.916634588287796"><ele>123.0</ele><time>2026-04-19T08:34:04Z</time></trkpt><trkpt lat="44.883918472318186" lon="9.916507409106075"><ele>123.0</ele><time>2026-04-19T08:34:05Z</time></trkpt><trkpt lat="44.88393784426468" lon="9.916381384638873"><ele>123.0</ele><time>2026-04-19T08:34:06Z</time></trkpt><trkpt lat="44.88395611230204" lon="9.91625321441912"><ele>123.00000000000001</ele><time>2026-04-19T08:34:06.999Z</time></trkpt><trkpt lat="44.88398215333772" lon="9.91613140818903"><ele>123.00000000000001</ele><time>2026-04-19T08:34:07.999Z</time></trkpt><trkpt lat="44.88400536352194" lon="9.916004747650948"><ele>123.0</ele><time>2026-04-19T08:34:08.999Z</time></trkpt><trkpt lat="44.884027180452925" lon="9.915877048459247"><ele>123.0</ele><time>2026-04-19T08:34:09.999Z</time></trkpt><trkpt lat="44.884049698271795" lon="9.915752628909335"><ele>122.80000000000001</ele><time>2026-04-19T08:34:10.999Z</time></trkpt><trkpt lat="44.884072654574815" lon="9.915625971515988"><ele>122.60000000000001</ele><time>2026-04-19T08:34:11.999Z</time></trkpt><trkpt lat="44.884093029676414" lon="9.915494503642194"><ele>122.39999999999999</ele><time>2026-04-19T08:34:12.999Z</time></trkpt><trkpt lat="44.884124098881614" lon="9.915370839880602"><ele>122.19999999999999</ele><time>2026-04-19T08:34:13.999Z</time></trkpt><trkpt lat="44.8841618644956" lon="9.915246562886644"><ele>122.0</ele><time>2026-04-19T08:34:14.999Z</time></trkpt><trkpt lat="44.88421133744199" lon="9.915133704433657"><ele>121.8</ele><time>2026-04-19T08:34:15.999Z</time></trkpt><trkpt lat="44.88426985689122" lon="9.915029060061379"><ele>121.6</ele><time>2026-04-19T08:34:16.999Z</time></trkpt><trkpt lat="44.88433110647335" lon="9.914932036927564"><ele>121.39999999999999</ele><time>2026-04-19T08:34:17.999Z</time></trkpt><trkpt lat="44.884394622710474" lon="9.914836531725054"><ele>121.19999999999999</ele><time>2026-04-19T08:34:18.999Z</time></trkpt><trkpt lat="44.88445525986363" lon="9.914740843015347"><ele>121.0</ele><time>2026-04-19T08:34:19.999Z</time></trkpt><trkpt lat="44.884515524396114" lon="9.91464548924659"><ele>121.0</ele><time>2026-04-19T08:34:20.999Z</time></trkpt><trkpt lat="44.884576075142824" lon="9.91455224923327"><ele>121.0</ele><time>2026-04-19T08:34:21.999Z</time></trkpt><trkpt lat="44.88463610391556" lon="9.914455045497567"><ele>121.0</ele><time>2026-04-19T08:34:22.999Z</time></trkpt><trkpt lat="44.88469706667752" lon="9.91435909496664"><ele>121.0</ele><time>2026-04-19T08:34:23.999Z</time></trkpt><trkpt lat="44.88475642768979" lon="9.9142616658839"><ele>121.0</ele><time>2026-04-19T08:34:24.999Z</time></trkpt><trkpt lat="44.884813621913224" lon="9.914162758567436"><ele>120.6</ele><time>2026-04-19T08:34:25.999Z</time></trkpt><trkpt lat="44.88486761482959" lon="9.914059366040451"><ele>120.19999999999999</ele><time>2026-04-19T08:34:26.999Z</time></trkpt><trkpt lat="44.88492234302623" lon="9.91395717485353"><ele>119.80000000000001</ele><time>2026-04-19T08:34:27.999Z</time></trkpt><trkpt lat="44.88497531381727" lon="9.91385216294331"><ele>119.4</ele><time>2026-04-19T08:34:28.999Z</time></trkpt><trkpt lat="44.88502865899592" lon="9.91374762990012"><ele>119.0</ele><time>2026-04-19T08:34:29.999Z</time></trkpt><trkpt lat="44.885079220789656" lon="9.913641486852711"><ele>118.80000000000001</ele><time>2026-04-19T08:34:30.999Z</time></trkpt><trkpt lat="44.88512968165288" lon="9.9135351786344"><ele>118.60000000000001</ele><time>2026-04-19T08:34:31.999Z</time></trkpt><trkpt lat="44.88517646931838" lon="9.91342581668555"><ele>118.4</ele><time>2026-04-19T08:34:32.999Z</time></trkpt><trkpt lat="44.8852248817003" lon="9.913319777846947"><ele>118.2</ele><time>2026-04-19T08:34:33.999Z</time></trkpt><trkpt lat="44.885275007392266" lon="9.913211449622688"><ele>118.0</ele><time>2026-04-19T08:34:34.999Z</time></trkpt><trkpt lat="44.88531966422239" lon="9.913101866635476"><ele>118.2</ele><time>2026-04-19T08:34:35.999Z</time></trkpt><trkpt lat="44.885361650606264" lon="9.912987856287145"><ele>118.4</ele><time>2026-04-19T08:34:36.999Z</time></trkpt><trkpt lat="44.88540468435049" lon="9.912875574737363"><ele>118.60000000000001</ele><time>2026-04-19T08:34:37.999Z</time></trkpt><trkpt lat="44.88544770334921" lon="9.912762062838743"><ele>118.80000000000001</ele><time>2026-04-19T08:34:38.999Z</time></trkpt><trkpt lat="44.88548661722753" lon="9.912645965728846"><ele>119.0</ele><time>2026-04-19T08:34:39.999Z</time></trkpt><trkpt lat="44.88552927515742" lon="9.912530333723234"><ele>118.99999999999999</ele><time>2026-04-19T08:34:40.999Z</time></trkpt><trkpt lat="44.88556656902528" lon="9.912416368539247"><ele>119.0</ele><time>2026-04-19T08:34:41.999Z</time></trkpt><trkpt lat="44.885608559426274" lon="9.91230289711316"><ele>119.0</ele><time>2026-04-19T08:34:42.999Z</time></trkpt><trkpt lat="44.88564878086879" lon="9.912191216175579"><ele>119.0</ele><time>2026-04-19T08:34:43.999Z</time></trkpt><trkpt lat="44.885686813120174" lon="9.912078971142675"><ele>118.99999999999999</ele><time>2026-04-19T08:34:44.999Z</time></trkpt><trkpt lat="44.885726750723464" lon="9.911971972213932"><ele>119.0</ele><time>2026-04-19T08:34:45.999Z</time></trkpt><trkpt lat="44.88576409223704" lon="9.91186127708019"><ele>118.99999999999999</ele><time>2026-04-19T08:34:46.999Z</time></trkpt><trkpt lat="44.88580044833389" lon="9.91175458786967"><ele>119.0</ele><time>2026-04-19T08:34:47.999Z</time></trkpt><trkpt lat="44.88583569738918" lon="9.911643814130395"><ele>119.0</ele><time>2026-04-19T08:34:48.999Z</time></trkpt><trkpt lat="44.8858762251706" lon="9.91154376006985"><ele>119.0</ele><time>2026-04-19T08:34:49.999Z</time></trkpt><trkpt lat="44.885914913530094" lon="9.911441469199211"><ele>118.99999999999999</ele><time>2026-04-19T08:34:50.999Z</time></trkpt><trkpt lat="44.88595572258658" lon="9.911345929013237"><ele>119.0</ele><time>2026-04-19T08:34:51.999Z</time></trkpt><trkpt lat="44.88599050803221" lon="9.911243497362495"><ele>118.99999999999999</ele><time>2026-04-19T08:34:52.999Z</time></trkpt><trkpt lat="44.88602039519402" lon="9.911139776780642"><ele>119.0</ele><time>2026-04-19T08:34:53.999Z</time></trkpt><trkpt lat="44.88604793797594" lon="9.91103445152351"><ele>119.0</ele><time>2026-04-19T08:34:54.999Z</time></trkpt><trkpt lat="44.886081915658714" lon="9.910935997234343"><ele>119.0</ele><time>2026-04-19T08:34:55.999Z</time></trkpt><trkpt lat="44.886135808018324" lon="9.910862791215262"><ele>118.99999999999999</ele><time>2026-04-19T08:34:56.999Z</time></trkpt><trkpt lat="44.88621042451777" lon="9.910844963513677"><ele>119.0</ele><time>2026-04-19T08:34:57.999Z</time></trkpt><trkpt lat="44.886287538071564" lon="9.910864163613834"><ele>118.85714285714286</ele><time>2026-04-19T08:34:58.999Z</time></trkpt><trkpt lat="44.88635695231132" lon="9.910909454547694"><ele>118.71428571428572</ele><time>2026-04-19T08:34:59.998Z</time></trkpt><trkpt lat="44.886420711418594" lon="9.910949618569543"><ele>118.57142857142857</ele><time>2026-04-19T08:35:00.998Z</time></trkpt><trkpt lat="44.886487402857405" lon="9.91098122111297"><ele>118.42857142857143</ele><time>2026-04-19T08:35:01.998Z</time></trkpt><trkpt lat="44.88655225176431" lon="9.911000674334044"><ele>118.28571428571429</ele><time>2026-04-19T08:35:02.998Z</time></trkpt><trkpt lat="44.8866151866155" lon="9.911018830303924"><ele>118.14285714285714</ele><time>2026-04-19T08:35:03.998Z</time></trkpt><trkpt lat="44.886679637575334" lon="9.911055010960476"><ele>118.0</ele><time>2026-04-19T08:35:04.998Z</time></trkpt><trkpt lat="44.886753985337286" lon="9.911105796048362"><ele>118.0</ele><time>2026-04-19T08:35:05.998Z</time></trkpt><trkpt lat="44.88685545684297" lon="9.911110358456948"><ele>118.00000000000001</ele><time>2026-04-19T08:35:07.998Z</time></trkpt><trkpt lat="44.886927532410645" lon="9.91115629652387"><ele>118.00000000000001</ele><time>2026-04-19T08:35:08.998Z</time></trkpt><trkpt lat="44.88704504926039" lon="9.911216665815987"><ele>118.0</ele><time>2026-04-19T08:35:10.998Z</time></trkpt><trkpt lat="44.8871516748614" lon="9.911270812502213"><ele>118.0</ele><time>2026-04-19T08:35:12.998Z</time></trkpt><trkpt lat="44.88725967456938" lon="9.911315839639231"><ele>118.0</ele><time>2026-04-19T08:35:14.998Z</time></trkpt><trkpt lat="44.88734002400953" lon="9.911330356103237"><ele>118.00000000000001</ele><time>2026-04-19T08:35:16.998Z</time></trkpt><trkpt lat="44.88740382395004" lon="9.911275659925096"><ele>118.00000000000001</ele><time>2026-04-19T08:35:18.998Z</time></trkpt><trkpt lat="44.88744005930959" lon="9.911150670371077"><ele>118.0</ele><time>2026-04-19T08:35:20.998Z</time></trkpt><trkpt lat="44.88748056704244" lon="9.911023053968862"><ele>118.0</ele><time>2026-04-19T08:35:22.998Z</time></trkpt><trkpt lat="44.88752692849922" lon="9.910883788533155"><ele>118.0</ele><time>2026-04-19T08:35:25Z</time></trkpt><trkpt lat="44.88757066205354" lon="9.910744517142716"><ele>118.00000000000001</ele><time>2026-04-19T08:35:27Z</time></trkpt><trkpt lat="44.88761577305213" lon="9.910603758228916"><ele>118.00000000000001</ele><time>2026-04-19T08:35:29Z</time></trkpt><trkpt lat="44.88764601895118" lon="9.910456139892615"><ele>118.0</ele><time>2026-04-19T08:35:31Z</time></trkpt><trkpt lat="44.88767043640801" lon="9.910313184121"><ele>118.0</ele><time>2026-04-19T08:35:33Z</time></trkpt><trkpt lat="44.88769673324509" lon="9.910180210602135"><ele>118.16666666666667</ele><time>2026-04-19T08:35:35Z</time></trkpt><trkpt lat="44.88772203117535" lon="9.91005448321145"><ele>118.33333333333334</ele><time>2026-04-19T08:35:37Z</time></trkpt><trkpt lat="44.887742127223994" lon="9.909935834230486"><ele>118.5</ele><time>2026-04-19T08:35:39Z</time></trkpt><trkpt lat="44.88775807622213" lon="9.909826835377132"><ele>118.66666666666666</ele><time>2026-04-19T08:35:41Z</time></trkpt><trkpt lat="44.887783713932784" lon="9.909734634307465"><ele>118.83333333333333</ele><time>2026-04-19T08:35:43Z</time></trkpt><trkpt lat="44.887852154756075" lon="9.909714558797882"><ele>119.0</ele><time>2026-04-19T08:35:46Z</time></trkpt><trkpt lat="44.88791852060479" lon="9.90974092688916"><ele>119.0</ele><time>2026-04-19T08:36:18.999Z</time></trkpt><trkpt lat="44.88799760211713" lon="9.909749447232953"><ele>119.0</ele><time>2026-04-19T08:36:22.999Z</time></trkpt><trkpt lat="44.88806455482104" lon="9.909810408612177"><ele>119.0</ele><time>2026-04-19T08:36:26.999Z</time></trkpt><trkpt lat="44.88812994197728" lon="9.909848497105287"><ele>119.0</ele><time>2026-04-19T08:36:30.999Z</time></trkpt><trkpt lat="44.888023679394074" lon="9.909689578909909"><ele>119.0</ele><time>2026-04-19T08:38:41.999Z</time></trkpt><trkpt lat="44.888120087506294" lon="9.909950664423942"><ele>119.0</ele><time>2026-04-19T08:38:44.072Z</time></trkpt><trkpt lat="44.88807666293722" lon="9.90987958527839"><ele>119.0</ele><time>2026-04-19T08:42:38.998Z</time></trkpt><trkpt lat="44.88801178577897" lon="9.909852990126726"><ele>119.0</ele><time>2026-04-19T08:42:42.998Z</time></trkpt><trkpt lat="44.88796659186529" lon="9.909768343884728"><ele>119.0</ele><time>2026-04-19T08:42:46Z</time></trkpt><trkpt lat="44.887904960318" lon="9.909684076481353"><ele>119.0</ele><time>2026-04-19T08:42:49Z</time></trkpt><trkpt lat="44.887862575847535" lon="9.909608823820006"><ele>119.0</ele><time>2026-04-19T08:42:52Z</time></trkpt><trkpt lat="44.88786839029966" lon="9.909498491538097"><ele>119.0</ele><time>2026-04-19T08:45:55.999Z</time></trkpt><trkpt lat="44.88783234944262" lon="9.909414995508564"><ele>118.99999999999999</ele><time>2026-04-19T08:46:02.999Z</time></trkpt><trkpt lat="44.88783558992514" lon="9.90931930878273"><ele>119.0</ele><time>2026-04-19T08:46:07.999Z</time></trkpt><trkpt lat="44.8878472542659" lon="9.909206543220419"><ele>119.0</ele><time>2026-04-19T08:46:10.999Z</time></trkpt><trkpt lat="44.88784575733119" lon="9.909079551765227"><ele>119.0</ele><time>2026-04-19T08:46:13.999Z</time></trkpt><trkpt lat="44.88784334412398" lon="9.908985982380583"><ele>118.99999999999999</ele><time>2026-04-19T08:46:15.999Z</time></trkpt><trkpt lat="44.88784884065375" lon="9.90887727047348"><ele>119.0</ele><time>2026-04-19T08:46:17.999Z</time></trkpt><trkpt lat="44.88785078845463" lon="9.908754184717141"><ele>118.80000000000001</ele><time>2026-04-19T08:46:19.999Z</time></trkpt><trkpt lat="44.88785748904555" lon="9.908622285735909"><ele>118.60000000000001</ele><time>2026-04-19T08:46:21.999Z</time></trkpt><trkpt lat="44.88787449165985" lon="9.908495220759201"><ele>118.4</ele><time>2026-04-19T08:46:23.999Z</time></trkpt><trkpt lat="44.88788472031962" lon="9.908370306556307"><ele>118.2</ele><time>2026-04-19T08:46:25.998Z</time></trkpt><trkpt lat="44.887898510817934" lon="9.908246335856944"><ele>118.0</ele><time>2026-04-19T08:46:27.998Z</time></trkpt><trkpt lat="44.8879149045325" lon="9.908126707994034"><ele>118.00000000000001</ele><time>2026-04-19T08:46:29.998Z</time></trkpt><trkpt lat="44.88792694896948" lon="9.908006739602838"><ele>118.0</ele><time>2026-04-19T08:46:31.998Z</time></trkpt><trkpt lat="44.88796608718368" lon="9.907905695027306"><ele>118.0</ele><time>2026-04-19T08:46:33.998Z</time></trkpt><trkpt lat="44.88804428953023" lon="9.907877627508098"><ele>118.0</ele><time>2026-04-19T08:46:35.998Z</time></trkpt><trkpt lat="44.88812461611151" lon="9.907892155743959"><ele>118.00000000000001</ele><time>2026-04-19T08:46:37.998Z</time></trkpt><trkpt lat="44.888207416336755" lon="9.907936800597806"><ele>118.0</ele><time>2026-04-19T08:46:39.998Z</time></trkpt><trkpt lat="44.88829786279581" lon="9.907981878129545"><ele>118.0</ele><time>2026-04-19T08:46:41.998Z</time></trkpt><trkpt lat="44.88839258876967" lon="9.908043950915921"><ele>118.00000000000001</ele><time>2026-04-19T08:46:43.998Z</time></trkpt><trkpt lat="44.8884856400498" lon="9.90808781515504"><ele>118.00000000000001</ele><time>2026-04-19T08:46:45.998Z</time></trkpt><trkpt lat="44.88856190229122" lon="9.90818594106563"><ele>118.0</ele><time>2026-04-19T08:46:47.998Z</time></trkpt><trkpt lat="44.88865165348721" lon="9.908239068111799"><ele>118.0</ele><time>2026-04-19T08:46:49.998Z</time></trkpt><trkpt lat="44.888745696490204" lon="9.90829376235239"><ele>118.0</ele><time>2026-04-19T08:46:51.998Z</time></trkpt><trkpt lat="44.88883837437588" lon="9.90834766485101"><ele>118.00000000000001</ele><time>2026-04-19T08:46:53.998Z</time></trkpt><trkpt lat="44.88892586487521" lon="9.908399998762055"><ele>118.00000000000001</ele><time>2026-04-19T08:46:56Z</time></trkpt><trkpt lat="44.88902039929801" lon="9.908455281993833"><ele>118.0</ele><time>2026-04-19T08:46:58Z</time></trkpt><trkpt lat="44.889112249360174" lon="9.908507750256211"><ele>118.0</ele><time>2026-04-19T08:47:00Z</time></trkpt><trkpt lat="44.889200838142905" lon="9.908564375273496"><ele>117.4</ele><time>2026-04-19T08:47:02Z</time></trkpt><trkpt lat="44.88928871587039" lon="9.908622482580842"><ele>116.80000000000001</ele><time>2026-04-19T08:47:04Z</time></trkpt><trkpt lat="44.889384855882525" lon="9.90868768591982"><ele>116.2</ele><time>2026-04-19T08:47:06Z</time></trkpt><trkpt lat="44.889487023044644" lon="9.908738764379942"><ele>115.6</ele><time>2026-04-19T08:47:08Z</time></trkpt><trkpt lat="44.889585857502524" lon="9.908782939143272"><ele>115.0</ele><time>2026-04-19T08:47:10Z</time></trkpt><trkpt lat="44.8896845382427" lon="9.908827017260153"><ele>115.0</ele><time>2026-04-19T08:47:12Z</time></trkpt><trkpt lat="44.88978979287069" lon="9.908871232631654"><ele>115.0</ele><time>2026-04-19T08:47:14Z</time></trkpt><trkpt lat="44.88989700414467" lon="9.90891627000318"><ele>115.0</ele><time>2026-04-19T08:47:16Z</time></trkpt><trkpt lat="44.89000724777436" lon="9.90896019516109"><ele>115.0</ele><time>2026-04-19T08:47:18Z</time></trkpt><trkpt lat="44.8901233344749" lon="9.909001458059647"><ele>114.6</ele><time>2026-04-19T08:47:20Z</time></trkpt><trkpt lat="44.890239127959795" lon="9.909041692546808"><ele>114.2</ele><time>2026-04-19T08:47:22Z</time></trkpt><trkpt lat="44.89035586052928" lon="9.909088752326857"><ele>113.80000000000001</ele><time>2026-04-19T08:47:24Z</time></trkpt><trkpt lat="44.890476080710826" lon="9.909143296657795"><ele>113.4</ele><time>2026-04-19T08:47:26Z</time></trkpt><trkpt lat="44.89053819641958" lon="9.90916701092476"><ele>113.0</ele><time>2026-04-19T08:47:27Z</time></trkpt><trkpt lat="44.89060978623257" lon="9.909141768536024"><ele>113.0</ele><time>2026-04-19T08:47:28Z</time></trkpt><trkpt lat="44.890677917402535" lon="9.909146892826856"><ele>113.0</ele><time>2026-04-19T08:47:29Z</time></trkpt><trkpt lat="44.89074816297277" lon="9.909152454617853"><ele>113.0</ele><time>2026-04-19T08:47:30Z</time></trkpt><trkpt lat="44.890820301456095" lon="9.909159476338882"><ele>113.0</ele><time>2026-04-19T08:47:31Z</time></trkpt><trkpt lat="44.8908916844114" lon="9.90915975493028"><ele>113.0</ele><time>2026-04-19T08:47:32Z</time></trkpt><trkpt lat="44.89096185439794" lon="9.90915888628057"><ele>113.0</ele><time>2026-04-19T08:47:33Z</time></trkpt><trkpt lat="44.891033063293236" lon="9.909160873781843"><ele>113.0</ele><time>2026-04-19T08:47:33.999Z</time></trkpt><trkpt lat="44.89110448161402" lon="9.909162754487218"><ele>112.42857142857143</ele><time>2026-04-19T08:47:34.999Z</time></trkpt><trkpt lat="44.89117718113592" lon="9.909164075450962"><ele>111.85714285714285</ele><time>2026-04-19T08:47:35.999Z</time></trkpt><trkpt lat="44.89124918141732" lon="9.909163920921834"><ele>111.28571428571428</ele><time>2026-04-19T08:47:36.999Z</time></trkpt><trkpt lat="44.891322514272225" lon="9.909163811955311"><ele>110.71428571428572</ele><time>2026-04-19T08:47:37.999Z</time></trkpt><trkpt lat="44.89139618048712" lon="9.909167103420982"><ele>110.14285714285714</ele><time>2026-04-19T08:47:38.999Z</time></trkpt><trkpt lat="44.89147037673869" lon="9.909166533315204"><ele>109.57142857142857</ele><time>2026-04-19T08:47:39.999Z</time></trkpt><trkpt lat="44.891544900618" lon="9.90916486665167"><ele>109.0</ele><time>2026-04-19T08:47:40.999Z</time></trkpt><trkpt lat="44.89161874271541" lon="9.909162669061278"><ele>109.00000000000001</ele><time>2026-04-19T08:47:41.999Z</time></trkpt><trkpt lat="44.891694307059126" lon="9.909164073566894"><ele>109.0</ele><time>2026-04-19T08:47:42.999Z</time></trkpt><trkpt lat="44.89176903284099" lon="9.909174471367752"><ele>109.0</ele><time>2026-04-19T08:47:43.999Z</time></trkpt><trkpt lat="44.89184631951694" lon="9.90919449158717"><ele>109.0</ele><time>2026-04-19T08:47:44.999Z</time></trkpt><trkpt lat="44.89192156373592" lon="9.909225542835872"><ele>109.00000000000001</ele><time>2026-04-19T08:47:45.999Z</time></trkpt><trkpt lat="44.89199460849847" lon="9.909263079671403"><ele>109.0</ele><time>2026-04-19T08:47:46.999Z</time></trkpt><trkpt lat="44.892067309649754" lon="9.909306931356033"><ele>109.16666666666667</ele><time>2026-04-19T08:47:47.999Z</time></trkpt><trkpt lat="44.89214090723334" lon="9.909353336997533"><ele>109.33333333333334</ele><time>2026-04-19T08:47:48.999Z</time></trkpt><trkpt lat="44.89221415237151" lon="9.909395838069155"><ele>109.5</ele><time>2026-04-19T08:47:49.999Z</time></trkpt><trkpt lat="44.89228811483583" lon="9.909440655756203"><ele>109.66666666666666</ele><time>2026-04-19T08:47:50.999Z</time></trkpt><trkpt lat="44.892361235245595" lon="9.909486456523071"><ele>109.83333333333333</ele><time>2026-04-19T08:47:51.999Z</time></trkpt><trkpt lat="44.89243466912107" lon="9.909533015998681"><ele>110.0</ele><time>2026-04-19T08:47:52.999Z</time></trkpt><trkpt lat="44.89250783429587" lon="9.909579757221502"><ele>109.99999999999999</ele><time>2026-04-19T08:47:53.999Z</time></trkpt><trkpt lat="44.89258155182015" lon="9.909623563483"><ele>110.0</ele><time>2026-04-19T08:47:54.999Z</time></trkpt><trkpt lat="44.89265683087756" lon="9.909664582887808"><ele>110.0</ele><time>2026-04-19T08:47:55.999Z</time></trkpt><trkpt lat="44.89273233697118" lon="9.909703430505244"><ele>110.0</ele><time>2026-04-19T08:47:56.999Z</time></trkpt><trkpt lat="44.892808751225566" lon="9.909741552146926"><ele>109.99999999999999</ele><time>2026-04-19T08:47:57.999Z</time></trkpt><trkpt lat="44.892885492086414" lon="9.909776554832906"><ele>110.0</ele><time>2026-04-19T08:47:58.999Z</time></trkpt><trkpt lat="44.89296139000779" lon="9.9098133414995"><ele>109.66666666666666</ele><time>2026-04-19T08:47:59.999Z</time></trkpt><trkpt lat="44.89303682097022" lon="9.909848218126589"><ele>109.33333333333333</ele><time>2026-04-19T08:48:00.999Z</time></trkpt><trkpt lat="44.893113168069" lon="9.90988586670227"><ele>109.0</ele><time>2026-04-19T08:48:01.999Z</time></trkpt><trkpt lat="44.89318922424451" lon="9.909922664153894"><ele>108.66666666666666</ele><time>2026-04-19T08:48:02.999Z</time></trkpt><trkpt lat="44.89326556900032" lon="9.909960638550288"><ele>108.33333333333333</ele><time>2026-04-19T08:48:03.999Z</time></trkpt><trkpt lat="44.8933410074185" lon="9.90999592784703"><ele>108.0</ele><time>2026-04-19T08:48:04.999Z</time></trkpt><trkpt lat="44.893417443363276" lon="9.910032735174697"><ele>108.0</ele><time>2026-04-19T08:48:05.999Z</time></trkpt><trkpt lat="44.893493189476565" lon="9.91006867030005"><ele>108.0</ele><time>2026-04-19T08:48:06.999Z</time></trkpt><trkpt lat="44.8935656288649" lon="9.91010447034219"><ele>108.0</ele><time>2026-04-19T08:48:07.999Z</time></trkpt><trkpt lat="44.89363866318864" lon="9.910138684922678"><ele>108.0</ele><time>2026-04-19T08:48:08.999Z</time></trkpt><trkpt lat="44.89370591095021" lon="9.91019410720053"><ele>108.0</ele><time>2026-04-19T08:48:09.999Z</time></trkpt><trkpt lat="44.893778720334055" lon="9.910229337363454"><ele>108.0</ele><time>2026-04-19T08:48:10.999Z</time></trkpt><trkpt lat="44.8938555494493" lon="9.910242456482877"><ele>108.0</ele><time>2026-04-19T08:48:11.999Z</time></trkpt><trkpt lat="44.893928988786044" lon="9.910256385808438"><ele>108.0</ele><time>2026-04-19T08:48:12.999Z</time></trkpt><trkpt lat="44.894003871389" lon="9.910233054055977"><ele>108.0</ele><time>2026-04-19T08:48:13.999Z</time></trkpt><trkpt lat="44.89406948680534" lon="9.910169114643011"><ele>108.0</ele><time>2026-04-19T08:48:14.999Z</time></trkpt><trkpt lat="44.894116736304404" lon="9.910078369157514"><ele>108.0</ele><time>2026-04-19T08:48:15.999Z</time></trkpt><trkpt lat="44.89415186389101" lon="9.909977083880065"><ele>108.0</ele><time>2026-04-19T08:48:16.999Z</time></trkpt><trkpt lat="44.89418100308569" lon="9.909873339943733"><ele>108.0</ele><time>2026-04-19T08:48:17.999Z</time></trkpt><trkpt lat="44.89421288461948" lon="9.909770927151456"><ele>108.0</ele><time>2026-04-19T08:48:18.999Z</time></trkpt><trkpt lat="44.89424633719016" lon="9.9096689800918"><ele>108.0</ele><time>2026-04-19T08:48:19.999Z</time></trkpt><trkpt lat="44.89428153930655" lon="9.909569429505595"><ele>108.0</ele><time>2026-04-19T08:48:20.999Z</time></trkpt><trkpt lat="44.8943170510801" lon="9.909468176220301"><ele>108.0</ele><time>2026-04-19T08:48:21.999Z</time></trkpt><trkpt lat="44.89435229741075" lon="9.909364329848948"><ele>108.0</ele><time>2026-04-19T08:48:22.999Z</time></trkpt><trkpt lat="44.89438736666663" lon="9.909257460822262"><ele>107.83333333333333</ele><time>2026-04-19T08:48:23.999Z</time></trkpt><trkpt lat="44.89442324350217" lon="9.909151565885615"><ele>107.66666666666666</ele><time>2026-04-19T08:48:24.999Z</time></trkpt><trkpt lat="44.89445771178018" lon="9.909046065458003"><ele>107.5</ele><time>2026-04-19T08:48:25.999Z</time></trkpt><trkpt lat="44.89449185303708" lon="9.908943002967353"><ele>107.33333333333333</ele><time>2026-04-19T08:48:26.998Z</time></trkpt><trkpt lat="44.894526151946465" lon="9.90883485519358"><ele>107.16666666666666</ele><time>2026-04-19T08:48:27.998Z</time></trkpt><trkpt lat="44.89455944848737" lon="9.908727493216798"><ele>107.0</ele><time>2026-04-19T08:48:28.998Z</time></trkpt><trkpt lat="44.894595215794745" lon="9.908620303137582"><ele>106.99999999999999</ele><time>2026-04-19T08:48:29.998Z</time></trkpt><trkpt lat="44.894630524639815" lon="9.9085139581117"><ele>107.0</ele><time>2026-04-19T08:48:30.998Z</time></trkpt><trkpt lat="44.89466787142117" lon="9.908408090807159"><ele>107.0</ele><time>2026-04-19T08:48:31.998Z</time></trkpt><trkpt lat="44.8947043836259" lon="9.908300139289196"><ele>107.0</ele><time>2026-04-19T08:48:32.998Z</time></trkpt><trkpt lat="44.894737252994446" lon="9.908192899782964"><ele>106.99999999999999</ele><time>2026-04-19T08:48:33.998Z</time></trkpt><trkpt lat="44.89477804480703" lon="9.908087164498808"><ele>107.0</ele><time>2026-04-19T08:48:34.998Z</time></trkpt><trkpt lat="44.894826010164905" lon="9.907989193697095"><ele>107.16666666666666</ele><time>2026-04-19T08:48:35.998Z</time></trkpt><trkpt lat="44.894892193206225" lon="9.90790722274365"><ele>107.33333333333333</ele><time>2026-04-19T08:48:36.998Z</time></trkpt><trkpt lat="44.8949773562121" lon="9.907880128917538"><ele>107.5</ele><time>2026-04-19T08:48:37.998Z</time></trkpt><trkpt lat="44.89505860272281" lon="9.907846739464864"><ele>107.66666666666666</ele><time>2026-04-19T08:48:38.998Z</time></trkpt><trkpt lat="44.89513880429848" lon="9.907796857256905"><ele>107.83333333333333</ele><time>2026-04-19T08:48:39.998Z</time></trkpt><trkpt lat="44.895225072748744" lon="9.907771571353392"><ele>108.0</ele><time>2026-04-19T08:48:40.998Z</time></trkpt><trkpt lat="44.895307637583805" lon="9.907740544060202"><ele>108.0</ele><time>2026-04-19T08:48:41.998Z</time></trkpt><trkpt lat="44.895390635370894" lon="9.90770540409271"><ele>108.0</ele><time>2026-04-19T08:48:42.998Z</time></trkpt><trkpt lat="44.895474186778415" lon="9.90767185804024"><ele>108.0</ele><time>2026-04-19T08:48:43.998Z</time></trkpt><trkpt lat="44.89555953454796" lon="9.907641526317684"><ele>108.0</ele><time>2026-04-19T08:48:44.998Z</time></trkpt><trkpt lat="44.89564563089071" lon="9.907613403636653"><ele>108.0</ele><time>2026-04-19T08:48:45.998Z</time></trkpt><trkpt lat="44.89573207994744" lon="9.907593208071301"><ele>108.0</ele><time>2026-04-19T08:48:46.998Z</time></trkpt><trkpt lat="44.89581974632061" lon="9.907580482541714"><ele>108.0</ele><time>2026-04-19T08:48:47.998Z</time></trkpt><trkpt lat="44.89590617411509" lon="9.907573201832832"><ele>108.0</ele><time>2026-04-19T08:48:48.998Z</time></trkpt><trkpt lat="44.89599309361139" lon="9.907566908262382"><ele>108.0</ele><time>2026-04-19T08:48:49.998Z</time></trkpt><trkpt lat="44.896079509647855" lon="9.907565212890214"><ele>108.0</ele><time>2026-04-19T08:48:50.998Z</time></trkpt><trkpt lat="44.896165986240625" lon="9.90756447331099"><ele>108.0</ele><time>2026-04-19T08:48:51.998Z</time></trkpt><trkpt lat="44.896251731470365" lon="9.907562935812258"><ele>108.0</ele><time>2026-04-19T08:48:52.998Z</time></trkpt><trkpt lat="44.89633822848745" lon="9.907561569013891"><ele>107.83333333333333</ele><time>2026-04-19T08:48:53.998Z</time></trkpt><trkpt lat="44.8964236451583" lon="9.907563512871228"><ele>107.66666666666666</ele><time>2026-04-19T08:48:54.998Z</time></trkpt><trkpt lat="44.896510670457815" lon="9.90756528092636"><ele>107.5</ele><time>2026-04-19T08:48:55.998Z</time></trkpt><trkpt lat="44.89659659687403" lon="9.907572319874465"><ele>107.33333333333333</ele><time>2026-04-19T08:48:56.998Z</time></trkpt><trkpt lat="44.896684501712315" lon="9.907582364799136"><ele>107.16666666666666</ele><time>2026-04-19T08:48:57.998Z</time></trkpt><trkpt lat="44.89677056911075" lon="9.907596692828918"><ele>107.0</ele><time>2026-04-19T08:48:58.998Z</time></trkpt><trkpt lat="44.896857457766515" lon="9.907611900528428"><ele>106.49999999999999</ele><time>2026-04-19T08:48:59.998Z</time></trkpt><trkpt lat="44.89694306532913" lon="9.907632354615115"><ele>106.0</ele><time>2026-04-19T08:49:00.998Z</time></trkpt><trkpt lat="44.89702816350254" lon="9.907652663448584"><ele>105.5</ele><time>2026-04-19T08:49:02Z</time></trkpt><trkpt lat="44.897113575143564" lon="9.90767305776156"><ele>105.0</ele><time>2026-04-19T08:49:03Z</time></trkpt><trkpt lat="44.89719883269185" lon="9.907694017704356"><ele>104.49999999999999</ele><time>2026-04-19T08:49:04Z</time></trkpt><trkpt lat="44.89728284763293" lon="9.907716155717113"><ele>104.0</ele><time>2026-04-19T08:49:05Z</time></trkpt><trkpt lat="44.89736590661815" lon="9.907738951447655"><ele>103.99999999999999</ele><time>2026-04-19T08:49:06Z</time></trkpt><trkpt lat="44.8974501475128" lon="9.907764281916773"><ele>104.0</ele><time>2026-04-19T08:49:07Z</time></trkpt><trkpt lat="44.89753475982191" lon="9.907792039779459"><ele>104.0</ele><time>2026-04-19T08:49:08Z</time></trkpt><trkpt lat="44.89761739152499" lon="9.907822393793616"><ele>104.0</ele><time>2026-04-19T08:49:09Z</time></trkpt><trkpt lat="44.89770102990276" lon="9.907854828743703"><ele>103.99999999999999</ele><time>2026-04-19T08:49:10Z</time></trkpt><trkpt lat="44.89778107315158" lon="9.907891610233298"><ele>104.0</ele><time>2026-04-19T08:49:11Z</time></trkpt><trkpt lat="44.897861592511894" lon="9.907929217009462"><ele>104.16666666666666</ele><time>2026-04-19T08:49:12Z</time></trkpt><trkpt lat="44.897942275137424" lon="9.90796629951243"><ele>104.33333333333333</ele><time>2026-04-19T08:49:13Z</time></trkpt><trkpt lat="44.89802344037701" lon="9.908005254598878"><ele>104.5</ele><time>2026-04-19T08:49:14Z</time></trkpt><trkpt lat="44.89810585985485" lon="9.908037643458286"><ele>104.66666666666666</ele><time>2026-04-19T08:49:15Z</time></trkpt><trkpt lat="44.898187276864476" lon="9.908074934889605"><ele>104.83333333333333</ele><time>2026-04-19T08:49:16Z</time></trkpt><trkpt lat="44.898269808869436" lon="9.908106423452928"><ele>105.0</ele><time>2026-04-19T08:49:17Z</time></trkpt><trkpt lat="44.89835349024992" lon="9.908133289317066"><ele>105.0</ele><time>2026-04-19T08:49:18Z</time></trkpt><trkpt lat="44.898433795151675" lon="9.908152987079092"><ele>105.0</ele><time>2026-04-19T08:49:19Z</time></trkpt><trkpt lat="44.89851725435548" lon="9.908174784396296"><ele>105.0</ele><time>2026-04-19T08:49:20Z</time></trkpt><trkpt lat="44.89859969071165" lon="9.908200041069312"><ele>105.0</ele><time>2026-04-19T08:49:21Z</time></trkpt><trkpt lat="44.898685533083814" lon="9.908218288431016"><ele>105.0</ele><time>2026-04-19T08:49:22Z</time></trkpt><trkpt lat="44.89877089263293" lon="9.908233230670138"><ele>105.0</ele><time>2026-04-19T08:49:23Z</time></trkpt><trkpt lat="44.898852159443294" lon="9.90827283621966"><ele>105.0</ele><time>2026-04-19T08:49:24Z</time></trkpt><trkpt lat="44.89893600702578" lon="9.908289625273563"><ele>105.0</ele><time>2026-04-19T08:49:25Z</time></trkpt><trkpt lat="44.899019198364336" lon="9.908306282870358"><ele>105.0</ele><time>2026-04-19T08:49:26Z</time></trkpt><trkpt lat="44.89910033910508" lon="9.908322529891182"><ele>105.0</ele><time>2026-04-19T08:49:27Z</time></trkpt><trkpt lat="44.899185493865865" lon="9.90833958063671"><ele>105.0</ele><time>2026-04-19T08:49:28Z</time></trkpt><trkpt lat="44.89927242276053" lon="9.908356162699992"><ele>105.0</ele><time>2026-04-19T08:49:29Z</time></trkpt><trkpt lat="44.89935976994326" lon="9.908348157314506"><ele>104.5</ele><time>2026-04-19T08:49:30Z</time></trkpt><trkpt lat="44.899447680344544" lon="9.90836275539417"><ele>104.0</ele><time>2026-04-19T08:49:31Z</time></trkpt><trkpt lat="44.89953302969098" lon="9.908374300112147"><ele>103.5</ele><time>2026-04-19T08:49:32Z</time></trkpt><trkpt lat="44.899621748750405" lon="9.90838548334021"><ele>103.0</ele><time>2026-04-19T08:49:33Z</time></trkpt><trkpt lat="44.89970858022753" lon="9.908420666655328"><ele>102.5</ele><time>2026-04-19T08:49:34Z</time></trkpt><trkpt lat="44.899795619348566" lon="9.9084301506159"><ele>102.0</ele><time>2026-04-19T08:49:35Z</time></trkpt><trkpt lat="44.899881558927774" lon="9.908438395250405"><ele>101.83333333333333</ele><time>2026-04-19T08:49:36Z</time></trkpt><trkpt lat="44.89996596395092" lon="9.908445413448192"><ele>101.66666666666666</ele><time>2026-04-19T08:49:37Z</time></trkpt><trkpt lat="44.90005118853035" lon="9.908452499788101"><ele>101.5</ele><time>2026-04-19T08:49:37.999Z</time></trkpt><trkpt lat="44.90013435396768" lon="9.908436213080089"><ele>101.33333333333333</ele><time>2026-04-19T08:49:38.999Z</time></trkpt><trkpt lat="44.90021808128834" lon="9.908447397739318"><ele>101.16666666666666</ele><time>2026-04-19T08:49:39.999Z</time></trkpt><trkpt lat="44.90030327718918" lon="9.908455962989317"><ele>101.0</ele><time>2026-04-19T08:49:40.999Z</time></trkpt><trkpt lat="44.90039083393734" lon="9.908461750059573"><ele>100.83333333333333</ele><time>2026-04-19T08:49:41.999Z</time></trkpt><trkpt lat="44.900479682311385" lon="9.908462989606573"><ele>100.66666666666666</ele><time>2026-04-19T08:49:42.999Z</time></trkpt><trkpt lat="44.900567152132666" lon="9.908467349307863"><ele>100.5</ele><time>2026-04-19T08:49:43.999Z</time></trkpt><trkpt lat="44.900656149538264" lon="9.90847026732711"><ele>100.33333333333334</ele><time>2026-04-19T08:49:44.999Z</time></trkpt><trkpt lat="44.900746314491855" lon="9.908471585381548"><ele>100.16666666666667</ele><time>2026-04-19T08:49:45.999Z</time></trkpt><trkpt lat="44.90083694812664" lon="9.908471104112328"><ele>100.0</ele><time>2026-04-19T08:49:46.999Z</time></trkpt><trkpt lat="44.90092801815497" lon="9.908474355734807"><ele>100.0</ele><time>2026-04-19T08:49:47.999Z</time></trkpt><trkpt lat="44.901019350258416" lon="9.90847545949068"><ele>100.0</ele><time>2026-04-19T08:49:48.999Z</time></trkpt><trkpt lat="44.90111252796084" lon="9.908476693653515"><ele>100.0</ele><time>2026-04-19T08:49:49.999Z</time></trkpt><trkpt lat="44.9012026269478" lon="9.908483817328028"><ele>100.0</ele><time>2026-04-19T08:49:50.999Z</time></trkpt><trkpt lat="44.901293625143424" lon="9.908498204886667"><ele>100.0</ele><time>2026-04-19T08:49:51.999Z</time></trkpt><trkpt lat="44.90138385719572" lon="9.908516509357048"><ele>100.0</ele><time>2026-04-19T08:49:52.999Z</time></trkpt><trkpt lat="44.901475588500865" lon="9.908537077607953"><ele>100.0</ele><time>2026-04-19T08:49:53.999Z</time></trkpt><trkpt lat="44.901563060021644" lon="9.908556529666383"><ele>100.0</ele><time>2026-04-19T08:49:54.999Z</time></trkpt><trkpt lat="44.901650879854714" lon="9.908577258656969"><ele>100.0</ele><time>2026-04-19T08:49:55.999Z</time></trkpt><trkpt lat="44.90174307271996" lon="9.908591483822908"><ele>100.0</ele><time>2026-04-19T08:49:56.999Z</time></trkpt><trkpt lat="44.90183123252348" lon="9.908630431761399"><ele>99.4</ele><time>2026-04-19T08:49:57.999Z</time></trkpt><trkpt lat="44.90192047473397" lon="9.908648750140976"><ele>98.8</ele><time>2026-04-19T08:49:58.999Z</time></trkpt><trkpt lat="44.902010372723154" lon="9.908666149734488"><ele>98.19999999999999</ele><time>2026-04-19T08:49:59.999Z</time></trkpt><trkpt lat="44.90209832076875" lon="9.908683171948784"><ele>97.6</ele><time>2026-04-19T08:50:00.999Z</time></trkpt><trkpt lat="44.90218862424867" lon="9.908700650028072"><ele>97.0</ele><time>2026-04-19T08:50:01.999Z</time></trkpt><trkpt lat="44.902278434560735" lon="9.908695109875909"><ele>97.00000000000001</ele><time>2026-04-19T08:50:02.999Z</time></trkpt><trkpt lat="44.90236755116241" lon="9.908716363113127"><ele>97.0</ele><time>2026-04-19T08:50:03.999Z</time></trkpt><trkpt lat="44.90245518231161" lon="9.908732221872986"><ele>97.0</ele><time>2026-04-19T08:50:04.999Z</time></trkpt><trkpt lat="44.90254079237924" lon="9.9087483144044"><ele>97.0</ele><time>2026-04-19T08:50:05.999Z</time></trkpt><trkpt lat="44.90262504178884" lon="9.908787157189481"><ele>97.00000000000001</ele><time>2026-04-19T08:50:06.999Z</time></trkpt><trkpt lat="44.90270882756275" lon="9.908789620218613"><ele>97.0</ele><time>2026-04-19T08:50:07.999Z</time></trkpt><trkpt lat="44.90279002958411" lon="9.908773419097784"><ele>97.16666666666667</ele><time>2026-04-19T08:50:08.999Z</time></trkpt><trkpt lat="44.90287510167564" lon="9.908788777443954"><ele>97.33333333333334</ele><time>2026-04-19T08:50:09.999Z</time></trkpt><trkpt lat="44.90296273735495" lon="9.908799962403567"><ele>97.5</ele><time>2026-04-19T08:50:10.999Z</time></trkpt><trkpt lat="44.90305036896691" lon="9.908812820371205"><ele>97.66666666666666</ele><time>2026-04-19T08:50:11.999Z</time></trkpt><trkpt lat="44.90313881671525" lon="9.908825019245942"><ele>97.83333333333333</ele><time>2026-04-19T08:50:12.999Z</time></trkpt><trkpt lat="44.90322715702132" lon="9.908837917916637"><ele>98.0</ele><time>2026-04-19T08:50:13.999Z</time></trkpt><trkpt lat="44.90331580201188" lon="9.908852047157145"><ele>98.0</ele><time>2026-04-19T08:50:14.999Z</time></trkpt><trkpt lat="44.903405223264386" lon="9.908862328281506"><ele>98.0</ele><time>2026-04-19T08:50:15.999Z</time></trkpt><trkpt lat="44.90349473212916" lon="9.908872981847688"><ele>98.0</ele><time>2026-04-19T08:50:16.999Z</time></trkpt><trkpt lat="44.90358500545415" lon="9.9088842011128"><ele>98.0</ele><time>2026-04-19T08:50:17.999Z</time></trkpt><trkpt lat="44.903675475924885" lon="9.908896043517107"><ele>98.0</ele><time>2026-04-19T08:50:18.999Z</time></trkpt><trkpt lat="44.903764982372905" lon="9.908912900190542"><ele>97.83333333333333</ele><time>2026-04-19T08:50:19.999Z</time></trkpt><trkpt lat="44.903852945182436" lon="9.908932273178298"><ele>97.66666666666666</ele><time>2026-04-19T08:50:20.999Z</time></trkpt><trkpt lat="44.90394120945543" lon="9.908954179491186"><ele>97.5</ele><time>2026-04-19T08:50:21.999Z</time></trkpt><trkpt lat="44.904028555218474" lon="9.908979055981886"><ele>97.33333333333334</ele><time>2026-04-19T08:50:22.999Z</time></trkpt><trkpt lat="44.904118192702676" lon="9.909005598288763"><ele>97.16666666666667</ele><time>2026-04-19T08:50:23.999Z</time></trkpt><trkpt lat="44.90420545450166" lon="9.909029678599087"><ele>97.0</ele><time>2026-04-19T08:50:24.999Z</time></trkpt><trkpt lat="44.904293456691924" lon="9.90906030088803"><ele>96.6</ele><time>2026-04-19T08:50:25.999Z</time></trkpt><trkpt lat="44.90438199646472" lon="9.9090905716185"><ele>96.19999999999999</ele><time>2026-04-19T08:50:26.999Z</time></trkpt><trkpt lat="44.90446961243036" lon="9.909124037595332"><ele>95.8</ele><time>2026-04-19T08:50:27.999Z</time></trkpt><trkpt lat="44.904558375707495" lon="9.909159797258994"><ele>95.4</ele><time>2026-04-19T08:50:28.999Z</time></trkpt><trkpt lat="44.90464527377201" lon="9.909200100041257"><ele>95.0</ele><time>2026-04-19T08:50:29.999Z</time></trkpt><trkpt lat="44.9047305759336" lon="9.909237572956817"><ele>95.16666666666667</ele><time>2026-04-19T08:50:30.998Z</time></trkpt><trkpt lat="44.904815661901615" lon="9.909277328047569"><ele>95.33333333333334</ele><time>2026-04-19T08:50:31.998Z</time></trkpt><trkpt lat="44.90489618860426" lon="9.909316424960004"><ele>95.5</ele><time>2026-04-19T08:50:32.998Z</time></trkpt><trkpt lat="44.904974103360956" lon="9.909352184306947"><ele>95.66666666666667</ele><time>2026-04-19T08:50:33.998Z</time></trkpt><trkpt lat="44.905055122290925" lon="9.909379931573602"><ele>95.83333333333333</ele><time>2026-04-19T08:50:34.998Z</time></trkpt><trkpt lat="44.90513417822797" lon="9.90941622610981"><ele>96.0</ele><time>2026-04-19T08:50:35.998Z</time></trkpt><trkpt lat="44.90522242806708" lon="9.909338902153278"><ele>95.66666666666667</ele><time>2026-04-19T08:50:36.998Z</time></trkpt><trkpt lat="44.90523893168506" lon="9.909196576704126"><ele>95.33333333333333</ele><time>2026-04-19T08:50:37.998Z</time></trkpt><trkpt lat="44.90525165926557" lon="9.909088065327117"><ele>95.0</ele><time>2026-04-19T08:50:38.998Z</time></trkpt><trkpt lat="44.90526930649334" lon="9.908984324984264"><ele>94.66666666666666</ele><time>2026-04-19T08:50:39.998Z</time></trkpt><trkpt lat="44.90529302593466" lon="9.908879069569767"><ele>94.33333333333333</ele><time>2026-04-19T08:50:40.998Z</time></trkpt><trkpt lat="44.90531357021237" lon="9.90877562804242"><ele>94.0</ele><time>2026-04-19T08:50:41.998Z</time></trkpt><trkpt lat="44.905331143385006" lon="9.908671996529968"><ele>94.0</ele><time>2026-04-19T08:50:42.998Z</time></trkpt><trkpt lat="44.90534989233404" lon="9.908569159615533"><ele>94.0</ele><time>2026-04-19T08:50:43.998Z</time></trkpt><trkpt lat="44.90536952932598" lon="9.908468511842482"><ele>94.0</ele><time>2026-04-19T08:50:44.998Z</time></trkpt><trkpt lat="44.905386499891655" lon="9.908367362493243"><ele>94.0</ele><time>2026-04-19T08:50:45.998Z</time></trkpt><trkpt lat="44.90540397776953" lon="9.908264283631832"><ele>94.0</ele><time>2026-04-19T08:50:46.998Z</time></trkpt><trkpt lat="44.90542115831889" lon="9.908162688496605"><ele>94.0</ele><time>2026-04-19T08:50:47.998Z</time></trkpt><trkpt lat="44.90543905197063" lon="9.908063797386724"><ele>94.0</ele><time>2026-04-19T08:50:48.998Z</time></trkpt><trkpt lat="44.905458122731986" lon="9.907969230348426"><ele>94.33333333333333</ele><time>2026-04-19T08:50:49.998Z</time></trkpt><trkpt lat="44.905475118428654" lon="9.90787578852312"><ele>94.66666666666666</ele><time>2026-04-19T08:50:50.998Z</time></trkpt><trkpt lat="44.90549033230198" lon="9.907784295187774"><ele>95.0</ele><time>2026-04-19T08:50:51.998Z</time></trkpt><trkpt lat="44.905505546560825" lon="9.907695581699087"><ele>95.33333333333333</ele><time>2026-04-19T08:50:52.998Z</time></trkpt><trkpt lat="44.90553986133485" lon="9.907563757131678"><ele>95.66666666666667</ele><time>2026-04-19T08:50:54.998Z</time></trkpt><trkpt lat="44.9055714566111" lon="9.907458109673502"><ele>96.0</ele><time>2026-04-19T08:50:56.998Z</time></trkpt><trkpt lat="44.90561743577962" lon="9.90732870116106"><ele>96.16666666666667</ele><time>2026-04-19T08:50:58.998Z</time></trkpt><trkpt lat="44.905667106771816" lon="9.907181768527709"><ele>96.33333333333334</ele><time>2026-04-19T08:51:00.998Z</time></trkpt><trkpt lat="44.90567619740042" lon="9.907091527819457"><ele>96.5</ele><time>2026-04-19T08:51:01.998Z</time></trkpt><trkpt lat="44.90570067328436" lon="9.907008856458237"><ele>96.66666666666667</ele><time>2026-04-19T08:51:02.998Z</time></trkpt><trkpt lat="44.90572509455762" lon="9.906926369261143"><ele>96.83333333333334</ele><time>2026-04-19T08:51:03.998Z</time></trkpt><trkpt lat="44.90581487553948" lon="9.906889681075212"><ele>97.0</ele><time>2026-04-19T08:51:04.998Z</time></trkpt><trkpt lat="44.90587770656416" lon="9.906856837170825"><ele>96.66666666666667</ele><time>2026-04-19T08:51:05.998Z</time></trkpt><trkpt lat="44.90595138875573" lon="9.90685161043204"><ele>96.33333333333334</ele><time>2026-04-19T08:51:06.998Z</time></trkpt><trkpt lat="44.90602542644832" lon="9.906881615851058"><ele>96.0</ele><time>2026-04-19T08:51:08Z</time></trkpt><trkpt lat="44.90609736740619" lon="9.906908624512907"><ele>95.66666666666667</ele><time>2026-04-19T08:51:09Z</time></trkpt><trkpt lat="44.90617334214395" lon="9.90694190560516"><ele>95.33333333333334</ele><time>2026-04-19T08:51:10Z</time></trkpt><trkpt lat="44.906249673601025" lon="9.906982573905392"><ele>95.0</ele><time>2026-04-19T08:51:11Z</time></trkpt><trkpt lat="44.906328472642805" lon="9.907021838920821"><ele>95.0</ele><time>2026-04-19T08:51:12Z</time></trkpt><trkpt lat="44.90641038405231" lon="9.9070574724132"><ele>95.0</ele><time>2026-04-19T08:51:13Z</time></trkpt><trkpt lat="44.90649149100428" lon="9.907095900671552"><ele>95.0</ele><time>2026-04-19T08:51:14Z</time></trkpt><trkpt lat="44.90657406138512" lon="9.907137992201438"><ele>95.0</ele><time>2026-04-19T08:51:15Z</time></trkpt><trkpt lat="44.90665832993687" lon="9.907176513853882"><ele>95.0</ele><time>2026-04-19T08:51:16Z</time></trkpt><trkpt lat="44.906745072602405" lon="9.907217248954394"><ele>95.0</ele><time>2026-04-19T08:51:17Z</time></trkpt><trkpt lat="44.90683191755359" lon="9.907259320777133"><ele>95.0</ele><time>2026-04-19T08:51:18Z</time></trkpt><trkpt lat="44.90691913058404" lon="9.907299244244177"><ele>95.0</ele><time>2026-04-19T08:51:19Z</time></trkpt><trkpt lat="44.90700842027848" lon="9.907340384174137"><ele>95.0</ele><time>2026-04-19T08:51:20Z</time></trkpt><trkpt lat="44.90709782861057" lon="9.907379390047135"><ele>95.0</ele><time>2026-04-19T08:51:21Z</time></trkpt><trkpt lat="44.90718529455185" lon="9.907419143182468"><ele>95.0</ele><time>2026-04-19T08:51:22Z</time></trkpt><trkpt lat="44.90727383436209" lon="9.907456988989392"><ele>95.0</ele><time>2026-04-19T08:51:23Z</time></trkpt><trkpt lat="44.90736149284504" lon="9.907497899804353"><ele>95.0</ele><time>2026-04-19T08:51:24Z</time></trkpt><trkpt lat="44.907447796922824" lon="9.907542834749977"><ele>95.0</ele><time>2026-04-19T08:51:25Z</time></trkpt><trkpt lat="44.90753342648123" lon="9.907584923325807"><ele>95.0</ele><time>2026-04-19T08:51:26Z</time></trkpt><trkpt lat="44.90762011566214" lon="9.907628601819631"><ele>95.0</ele><time>2026-04-19T08:51:27Z</time></trkpt><trkpt lat="44.90770677641984" lon="9.907668739686587"><ele>94.6</ele><time>2026-04-19T08:51:28Z</time></trkpt><trkpt lat="44.90779220701467" lon="9.9077116287247"><ele>94.2</ele><time>2026-04-19T08:51:29Z</time></trkpt><trkpt lat="44.9078773749144" lon="9.907754018031108"><ele>93.80000000000001</ele><time>2026-04-19T08:51:30Z</time></trkpt><trkpt lat="44.90796135167555" lon="9.90779714200381"><ele>93.4</ele><time>2026-04-19T08:51:31Z</time></trkpt><trkpt lat="44.908046007060015" lon="9.90783971333389"><ele>93.0</ele><time>2026-04-19T08:51:32Z</time></trkpt><trkpt lat="44.908130469728754" lon="9.90788227344097"><ele>93.0</ele><time>2026-04-19T08:51:33Z</time></trkpt><trkpt lat="44.90821495048024" lon="9.907922519519651"><ele>93.0</ele><time>2026-04-19T08:51:34Z</time></trkpt><trkpt lat="44.9082986221068" lon="9.907964746961808"><ele>93.0</ele><time>2026-04-19T08:51:35Z</time></trkpt><trkpt lat="44.90838329074205" lon="9.9080078594368"><ele>93.0</ele><time>2026-04-19T08:51:36Z</time></trkpt><trkpt lat="44.90847039837921" lon="9.908048383146292"><ele>93.0</ele><time>2026-04-19T08:51:37Z</time></trkpt><trkpt lat="44.908558303387785" lon="9.908092592201733"><ele>92.60000000000001</ele><time>2026-04-19T08:51:38Z</time></trkpt><trkpt lat="44.90864552510167" lon="9.908136532579011"><ele>92.2</ele><time>2026-04-19T08:51:39Z</time></trkpt><trkpt lat="44.90873279734651" lon="9.908179589184742"><ele>91.8</ele><time>2026-04-19T08:51:40Z</time></trkpt><trkpt lat="44.90882157809488" lon="9.908224417976536"><ele>91.4</ele><time>2026-04-19T08:51:41Z</time></trkpt><trkpt lat="44.90890742151819" lon="9.908268947344615"><ele>91.0</ele><time>2026-04-19T08:51:42Z</time></trkpt><trkpt lat="44.908994172331695" lon="9.90831408878446"><ele>91.0</ele><time>2026-04-19T08:51:42.999Z</time></trkpt><trkpt lat="44.90908277047152" lon="9.908356450096033"><ele>91.0</ele><time>2026-04-19T08:51:43.999Z</time></trkpt><trkpt lat="44.909171604823754" lon="9.908399987157557"><ele>91.0</ele><time>2026-04-19T08:51:44.999Z</time></trkpt><trkpt lat="44.90925969606819" lon="9.908442853213545"><ele>91.0</ele><time>2026-04-19T08:51:45.999Z</time></trkpt><trkpt lat="44.90934843515183" lon="9.908486854907315"><ele>91.0</ele><time>2026-04-19T08:51:46.999Z</time></trkpt><trkpt lat="44.90943918611737" lon="9.908530022161784"><ele>91.4</ele><time>2026-04-19T08:51:47.999Z</time></trkpt><trkpt lat="44.909529212354315" lon="9.908573991342454"><ele>91.8</ele><time>2026-04-19T08:51:48.999Z</time></trkpt><trkpt lat="44.90962009910832" lon="9.908619849962067"><ele>92.2</ele><time>2026-04-19T08:51:49.999Z</time></trkpt><trkpt lat="44.90970956769925" lon="9.908669177014232"><ele>92.60000000000001</ele><time>2026-04-19T08:51:50.999Z</time></trkpt><trkpt lat="44.909796911290115" lon="9.90871433364636"><ele>93.0</ele><time>2026-04-19T08:51:51.999Z</time></trkpt><trkpt lat="44.909886991862" lon="9.908758998446265"><ele>93.0</ele><time>2026-04-19T08:51:52.999Z</time></trkpt><trkpt lat="44.90997574896265" lon="9.908803973166373"><ele>93.0</ele><time>2026-04-19T08:51:53.999Z</time></trkpt><trkpt lat="44.91006443449755" lon="9.908849338617822"><ele>93.0</ele><time>2026-04-19T08:51:54.999Z</time></trkpt><trkpt lat="44.910152518741924" lon="9.908893420744768"><ele>93.0</ele><time>2026-04-19T08:51:55.999Z</time></trkpt><trkpt lat="44.91023925350307" lon="9.908938967497209"><ele>93.0</ele><time>2026-04-19T08:51:56.999Z</time></trkpt><trkpt lat="44.91032673544016" lon="9.908981743654538"><ele>93.0</ele><time>2026-04-19T08:51:57.999Z</time></trkpt><trkpt lat="44.910410836710355" lon="9.90902776160699"><ele>93.0</ele><time>2026-04-19T08:51:58.999Z</time></trkpt><trkpt lat="44.910493095161065" lon="9.909073997025043"><ele>93.0</ele><time>2026-04-19T08:51:59.999Z</time></trkpt><trkpt lat="44.910577315496894" lon="9.909119336488638"><ele>93.0</ele><time>2026-04-19T08:52:00.999Z</time></trkpt><trkpt lat="44.9106589382366" lon="9.909160192175774"><ele>93.0</ele><time>2026-04-19T08:52:01.999Z</time></trkpt><trkpt lat="44.910739798763075" lon="9.909202293201783"><ele>93.0</ele><time>2026-04-19T08:52:02.999Z</time></trkpt><trkpt lat="44.91081846964945" lon="9.909248634621443"><ele>92.66666666666667</ele><time>2026-04-19T08:52:03.999Z</time></trkpt><trkpt lat="44.91089642149064" lon="9.909290357980348"><ele>92.33333333333333</ele><time>2026-04-19T08:52:04.999Z</time></trkpt><trkpt lat="44.9109728318588" lon="9.909334126401456"><ele>92.0</ele><time>2026-04-19T08:52:05.999Z</time></trkpt><trkpt lat="44.91105057484371" lon="9.90937517202771"><ele>91.66666666666666</ele><time>2026-04-19T08:52:06.999Z</time></trkpt><trkpt lat="44.91112666383612" lon="9.90941514921919"><ele>91.33333333333333</ele><time>2026-04-19T08:52:07.999Z</time></trkpt><trkpt lat="44.911203727141555" lon="9.909457690690326"><ele>91.0</ele><time>2026-04-19T08:52:08.999Z</time></trkpt><trkpt lat="44.91128148705757" lon="9.909502470580739"><ele>90.83333333333333</ele><time>2026-04-19T08:52:09.999Z</time></trkpt><trkpt lat="44.9113602762426" lon="9.909542217859117"><ele>90.66666666666666</ele><time>2026-04-19T08:52:10.999Z</time></trkpt><trkpt lat="44.91143912800865" lon="9.909583191305945"><ele>90.5</ele><time>2026-04-19T08:52:11.999Z</time></trkpt><trkpt lat="44.91151818399355" lon="9.909618131330388"><ele>90.33333333333333</ele><time>2026-04-19T08:52:12.999Z</time></trkpt><trkpt lat="44.91160248574701" lon="9.90964870661766"><ele>90.16666666666667</ele><time>2026-04-19T08:52:13.999Z</time></trkpt><trkpt lat="44.911689040936984" lon="9.909677070571972"><ele>90.0</ele><time>2026-04-19T08:52:14.999Z</time></trkpt><trkpt lat="44.911776638344854" lon="9.90969745804929"><ele>90.0</ele><time>2026-04-19T08:52:15.999Z</time></trkpt><trkpt lat="44.911868241337615" lon="9.909712063854496"><ele>90.0</ele><time>2026-04-19T08:52:16.999Z</time></trkpt><trkpt lat="44.91196274300249" lon="9.909720964129956"><ele>90.0</ele><time>2026-04-19T08:52:17.999Z</time></trkpt><trkpt lat="44.91205970121454" lon="9.909724817657866"><ele>90.0</ele><time>2026-04-19T08:52:18.999Z</time></trkpt><trkpt lat="44.912157662478954" lon="9.909726548946496"><ele>90.0</ele><time>2026-04-19T08:52:19.999Z</time></trkpt><trkpt lat="44.912257957108096" lon="9.90971989087197"><ele>90.0</ele><time>2026-04-19T08:52:20.999Z</time></trkpt><trkpt lat="44.91236033572104" lon="9.9097103446826"><ele>90.0</ele><time>2026-04-19T08:52:21.999Z</time></trkpt><trkpt lat="44.91246754006675" lon="9.909696626143726"><ele>90.0</ele><time>2026-04-19T08:52:22.999Z</time></trkpt><trkpt lat="44.912579729068774" lon="9.909681934561705"><ele>90.0</ele><time>2026-04-19T08:52:23.999Z</time></trkpt><trkpt lat="44.91269266084778" lon="9.909667206149267"><ele>90.0</ele><time>2026-04-19T08:52:24.999Z</time></trkpt><trkpt lat="44.91280229023139" lon="9.90965404049833"><ele>90.6</ele><time>2026-04-19T08:52:25.999Z</time></trkpt><trkpt lat="44.912911884389594" lon="9.909641603671648"><ele>91.2</ele><time>2026-04-19T08:52:26.999Z</time></trkpt><trkpt lat="44.913021469254346" lon="9.909630118127854"><ele>91.80000000000001</ele><time>2026-04-19T08:52:27.999Z</time></trkpt><trkpt lat="44.91312882361552" lon="9.909615771514815"><ele>92.4</ele><time>2026-04-19T08:52:28.999Z</time></trkpt><trkpt lat="44.913235103806926" lon="9.909600803725363"><ele>93.0</ele><time>2026-04-19T08:52:29.999Z</time></trkpt><trkpt lat="44.91334123359495" lon="9.909590643133045"><ele>92.2</ele><time>2026-04-19T08:52:30.999Z</time></trkpt><trkpt lat="44.91344622872895" lon="9.909583455442839"><ele>91.4</ele><time>2026-04-19T08:52:31.999Z</time></trkpt><trkpt lat="44.91355023665904" lon="9.909568470159932"><ele>90.60000000000001</ele><time>2026-04-19T08:52:32.999Z</time></trkpt><trkpt lat="44.91365444506893" lon="9.909555534678791"><ele>89.80000000000001</ele><time>2026-04-19T08:52:33.999Z</time></trkpt><trkpt lat="44.913757608481916" lon="9.909542752242574"><ele>89.0</ele><time>2026-04-19T08:52:34.999Z</time></trkpt><trkpt lat="44.913860177962455" lon="9.909526827313485"><ele>89.0</ele><time>2026-04-19T08:52:35.998Z</time></trkpt><trkpt lat="44.91396081119387" lon="9.90951062349176"><ele>89.0</ele><time>2026-04-19T08:52:36.998Z</time></trkpt><trkpt lat="44.914062282960465" lon="9.909499550791018"><ele>89.0</ele><time>2026-04-19T08:52:37.998Z</time></trkpt><trkpt lat="44.91416166822256" lon="9.90949047954438"><ele>89.0</ele><time>2026-04-19T08:52:38.998Z</time></trkpt><trkpt lat="44.91426127568916" lon="9.90948265130717"><ele>89.0</ele><time>2026-04-19T08:52:39.998Z</time></trkpt><trkpt lat="44.914359879286316" lon="9.90947157196573"><ele>88.80000000000001</ele><time>2026-04-19T08:52:40.998Z</time></trkpt><trkpt lat="44.91445846029009" lon="9.909463253000087"><ele>88.60000000000001</ele><time>2026-04-19T08:52:41.998Z</time></trkpt><trkpt lat="44.91455624473804" lon="9.909450726835658"><ele>88.4</ele><time>2026-04-19T08:52:42.998Z</time></trkpt><trkpt lat="44.914655308254964" lon="9.909439217170593"><ele>88.2</ele><time>2026-04-19T08:52:43.998Z</time></trkpt><trkpt lat="44.914748272979004" lon="9.909432283456134"><ele>88.0</ele><time>2026-04-19T08:52:44.998Z</time></trkpt><trkpt lat="44.914836619586715" lon="9.909421425251653"><ele>88.0</ele><time>2026-04-19T08:52:45.998Z</time></trkpt><trkpt lat="44.91492372494076" lon="9.909411862233538"><ele>88.0</ele><time>2026-04-19T08:52:46.998Z</time></trkpt><trkpt lat="44.91500880024674" lon="9.909410732206936"><ele>88.0</ele><time>2026-04-19T08:52:47.998Z</time></trkpt><trkpt lat="44.91509283044694" lon="9.909414199339844"><ele>88.0</ele><time>2026-04-19T08:52:48.998Z</time></trkpt><trkpt lat="44.915175172694184" lon="9.909426739841315"><ele>88.0</ele><time>2026-04-19T08:52:49.998Z</time></trkpt><trkpt lat="44.91525669168591" lon="9.90944026469279"><ele>88.0</ele><time>2026-04-19T08:52:50.998Z</time></trkpt><trkpt lat="44.91533915025943" lon="9.909454710603931"><ele>87.33333333333333</ele><time>2026-04-19T08:52:51.998Z</time></trkpt><trkpt lat="44.91541664001944" lon="9.909486248564065"><ele>86.66666666666666</ele><time>2026-04-19T08:52:52.998Z</time></trkpt><trkpt lat="44.915493735120656" lon="9.909529691634535"><ele>86.0</ele><time>2026-04-19T08:52:53.998Z</time></trkpt><trkpt lat="44.91557188869704" lon="9.909555939826646"><ele>85.33333333333333</ele><time>2026-04-19T08:52:54.998Z</time></trkpt><trkpt lat="44.91565641518774" lon="9.9095394953567"><ele>84.66666666666667</ele><time>2026-04-19T08:52:55.998Z</time></trkpt><trkpt lat="44.91574082809038" lon="9.909503747431662"><ele>84.0</ele><time>2026-04-19T08:52:56.998Z</time></trkpt><trkpt lat="44.91582413181147" lon="9.90946736497779"><ele>84.6</ele><time>2026-04-19T08:52:57.998Z</time></trkpt><trkpt lat="44.91590845010988" lon="9.909433706728837"><ele>85.2</ele><time>2026-04-19T08:52:58.998Z</time></trkpt><trkpt lat="44.915981246613725" lon="9.909364664217074"><ele>85.8</ele><time>2026-04-19T08:52:59.998Z</time></trkpt><trkpt lat="44.9160820785377" lon="9.909375765056101"><ele>86.39999999999999</ele><time>2026-04-19T08:53:00.998Z</time></trkpt><trkpt lat="44.91616641545661" lon="9.909342109578688"><ele>87.0</ele><time>2026-04-19T08:53:01.998Z</time></trkpt><trkpt lat="44.91625386259934" lon="9.90931785784555"><ele>87.0</ele><time>2026-04-19T08:53:02.998Z</time></trkpt><trkpt lat="44.916339507910266" lon="9.909289407215136"><ele>87.0</ele><time>2026-04-19T08:53:03.998Z</time></trkpt><trkpt lat="44.916425598905334" lon="9.909260801920741"><ele>87.0</ele><time>2026-04-19T08:53:04.998Z</time></trkpt><trkpt lat="44.91651370533302" lon="9.909249171833803"><ele>87.0</ele><time>2026-04-19T08:53:05.998Z</time></trkpt><trkpt lat="44.91660431702036" lon="9.90924192378168"><ele>87.0</ele><time>2026-04-19T08:53:06.998Z</time></trkpt><trkpt lat="44.9166983648706" lon="9.90922838136123"><ele>87.19999999999999</ele><time>2026-04-19T08:53:07.998Z</time></trkpt><trkpt lat="44.91679132285476" lon="9.909217680374324"><ele>87.4</ele><time>2026-04-19T08:53:08.998Z</time></trkpt><trkpt lat="44.916886768028725" lon="9.90920157856781"><ele>87.6</ele><time>2026-04-19T08:53:09.998Z</time></trkpt><trkpt lat="44.91698147790318" lon="9.909188247059515"><ele>87.80000000000001</ele><time>2026-04-19T08:53:10.998Z</time></trkpt><trkpt lat="44.91707515006324" lon="9.909179505605389"><ele>88.0</ele><time>2026-04-19T08:53:11.998Z</time></trkpt><trkpt lat="44.91717124880055" lon="9.909169509615703"><ele>88.0</ele><time>2026-04-19T08:53:12.998Z</time></trkpt><trkpt lat="44.91726670146854" lon="9.90915285845646"><ele>88.0</ele><time>2026-04-19T08:53:14Z</time></trkpt><trkpt lat="44.91736192000621" lon="9.909135863552185"><ele>88.0</ele><time>2026-04-19T08:53:15Z</time></trkpt><trkpt lat="44.917456404571084" lon="9.909128946940767"><ele>88.0</ele><time>2026-04-19T08:53:16Z</time></trkpt><trkpt lat="44.91755308956922" lon="9.909121341790701"><ele>88.0</ele><time>2026-04-19T08:53:17Z</time></trkpt><trkpt lat="44.917647739744176" lon="9.90912387452525"><ele>87.4</ele><time>2026-04-19T08:53:18Z</time></trkpt><trkpt lat="44.91774339367118" lon="9.909128441891252"><ele>86.80000000000001</ele><time>2026-04-19T08:53:19Z</time></trkpt><trkpt lat="44.9178412681303" lon="9.909130367308322"><ele>86.2</ele><time>2026-04-19T08:53:20Z</time></trkpt><trkpt lat="44.91793663179222" lon="9.909135782817042"><ele>85.6</ele><time>2026-04-19T08:53:21Z</time></trkpt><trkpt lat="44.91803175473448" lon="9.90913410963282"><ele>85.0</ele><time>2026-04-19T08:53:22Z</time></trkpt><trkpt lat="44.918125764070844" lon="9.909139440632714"><ele>85.0</ele><time>2026-04-19T08:53:23Z</time></trkpt><trkpt lat="44.918222276314275" lon="9.909145452251485"><ele>85.0</ele><time>2026-04-19T08:53:24Z</time></trkpt><trkpt lat="44.91831848175387" lon="9.909147360509143"><ele>85.0</ele><time>2026-04-19T08:53:25Z</time></trkpt><trkpt lat="44.91841156472358" lon="9.909149013038576"><ele>85.0</ele><time>2026-04-19T08:53:26Z</time></trkpt><trkpt lat="44.91850395635594" lon="9.909158636420145"><ele>85.0</ele><time>2026-04-19T08:53:27Z</time></trkpt><trkpt lat="44.91859385953769" lon="9.909162850029759"><ele>85.16666666666666</ele><time>2026-04-19T08:53:28Z</time></trkpt><trkpt lat="44.91868222949563" lon="9.909165518753367"><ele>85.33333333333333</ele><time>2026-04-19T08:53:29Z</time></trkpt><trkpt lat="44.91876942040548" lon="9.909163212512285"><ele>85.5</ele><time>2026-04-19T08:53:30Z</time></trkpt><trkpt lat="44.918859683279656" lon="9.909159097492159"><ele>85.66666666666667</ele><time>2026-04-19T08:53:31Z</time></trkpt><trkpt lat="44.918950314408065" lon="9.909151971998497"><ele>85.83333333333334</ele><time>2026-04-19T08:53:32Z</time></trkpt><trkpt lat="44.91904046181673" lon="9.909142248047072"><ele>86.0</ele><time>2026-04-19T08:53:33Z</time></trkpt><trkpt lat="44.91913320875828" lon="9.909128491504514"><ele>86.0</ele><time>2026-04-19T08:53:34Z</time></trkpt><trkpt lat="44.91922447719588" lon="9.90911159011861"><ele>86.0</ele><time>2026-04-19T08:53:35Z</time></trkpt><trkpt lat="44.919315428409924" lon="9.909097634932941"><ele>86.0</ele><time>2026-04-19T08:53:36Z</time></trkpt><trkpt lat="44.91940787977078" lon="9.909084963753852"><ele>86.0</ele><time>2026-04-19T08:53:37Z</time></trkpt><trkpt lat="44.91949795549788" lon="9.909066322111622"><ele>86.0</ele><time>2026-04-19T08:53:38Z</time></trkpt><trkpt lat="44.919588778482954" lon="9.909047124075821"><ele>86.0</ele><time>2026-04-19T08:53:39Z</time></trkpt><trkpt lat="44.919678226781784" lon="9.90902763183981"><ele>86.0</ele><time>2026-04-19T08:53:40Z</time></trkpt><trkpt lat="44.919770912324935" lon="9.909011667262845"><ele>86.0</ele><time>2026-04-19T08:53:41Z</time></trkpt><trkpt lat="44.91986554431189" lon="9.908997087329928"><ele>86.0</ele><time>2026-04-19T08:53:42Z</time></trkpt><trkpt lat="44.919952874222886" lon="9.908971622599113"><ele>86.0</ele><time>2026-04-19T08:53:43Z</time></trkpt><trkpt lat="44.920046451356015" lon="9.908959631955017"><ele>86.0</ele><time>2026-04-19T08:53:44Z</time></trkpt><trkpt lat="44.92014015509136" lon="9.908946676870556"><ele>86.0</ele><time>2026-04-19T08:53:45Z</time></trkpt><trkpt lat="44.92023287905224" lon="9.908933415558625"><ele>86.0</ele><time>2026-04-19T08:53:46Z</time></trkpt><trkpt lat="44.920325282503555" lon="9.90892494850478"><ele>86.0</ele><time>2026-04-19T08:53:46.999Z</time></trkpt><trkpt lat="44.920417486363725" lon="9.908917447741285"><ele>86.0</ele><time>2026-04-19T08:53:47.999Z</time></trkpt><trkpt lat="44.920512240747236" lon="9.908921356908145"><ele>86.0</ele><time>2026-04-19T08:53:48.999Z</time></trkpt><trkpt lat="44.920606417487875" lon="9.90892871897746"><ele>86.0</ele><time>2026-04-19T08:53:49.999Z</time></trkpt><trkpt lat="44.92069815819901" lon="9.908942709366688"><ele>86.0</ele><time>2026-04-19T08:53:50.999Z</time></trkpt><trkpt lat="44.920792256641285" lon="9.908964682394718"><ele>86.0</ele><time>2026-04-19T08:53:51.999Z</time></trkpt><trkpt lat="44.92088368217552" lon="9.9089922374449"><ele>86.0</ele><time>2026-04-19T08:53:52.999Z</time></trkpt><trkpt lat="44.92097605617278" lon="9.909023797629562"><ele>86.19999999999999</ele><time>2026-04-19T08:53:53.999Z</time></trkpt><trkpt lat="44.92106724137987" lon="9.909057842959841"><ele>86.39999999999999</ele><time>2026-04-19T08:53:54.999Z</time></trkpt><trkpt lat="44.92115688430037" lon="9.909095040071223"><ele>86.6</ele><time>2026-04-19T08:53:55.999Z</time></trkpt><trkpt lat="44.9212462380789" lon="9.90913747351123"><ele>86.8</ele><time>2026-04-19T08:53:56.999Z</time></trkpt><trkpt lat="44.92133635007843" lon="9.909180515888002"><ele>87.0</ele><time>2026-04-19T08:53:57.999Z</time></trkpt><trkpt lat="44.92142522728103" lon="9.909221703779505"><ele>86.39999999999999</ele><time>2026-04-19T08:53:58.999Z</time></trkpt><trkpt lat="44.92151646249744" lon="9.90926625989648"><ele>85.8</ele><time>2026-04-19T08:53:59.999Z</time></trkpt><trkpt lat="44.92160362743477" lon="9.909309917208839"><ele>85.2</ele><time>2026-04-19T08:54:00.999Z</time></trkpt><trkpt lat="44.92169058684147" lon="9.90934781928119"><ele>84.6</ele><time>2026-04-19T08:54:01.999Z</time></trkpt><trkpt lat="44.921780007769556" lon="9.909385121386428"><ele>84.0</ele><time>2026-04-19T08:54:02.999Z</time></trkpt><trkpt lat="44.92186880717822" lon="9.909423963522636"><ele>84.0</ele><time>2026-04-19T08:54:03.999Z</time></trkpt><trkpt lat="44.92194274520769" lon="9.909482671337427"><ele>84.0</ele><time>2026-04-19T08:54:04.999Z</time></trkpt><trkpt lat="44.92202089518851" lon="9.909519232767481"><ele>84.0</ele><time>2026-04-19T08:54:05.999Z</time></trkpt><trkpt lat="44.92209448964394" lon="9.909552018265265"><ele>84.0</ele><time>2026-04-19T08:54:06.999Z</time></trkpt><trkpt lat="44.92216416784036" lon="9.909583059117267"><ele>84.0</ele><time>2026-04-19T08:54:07.999Z</time></trkpt><trkpt lat="44.922228030043115" lon="9.909613784439495"><ele>84.0</ele><time>2026-04-19T08:54:08.999Z</time></trkpt><trkpt lat="44.92229507584739" lon="9.909624942010282"><ele>84.0</ele><time>2026-04-19T08:54:09.999Z</time></trkpt><trkpt lat="44.92235135477266" lon="9.909669224649814"><ele>84.0</ele><time>2026-04-19T08:54:10.999Z</time></trkpt><trkpt lat="44.92240617741993" lon="9.909725723232834"><ele>84.0</ele><time>2026-04-19T08:54:11.999Z</time></trkpt><trkpt lat="44.92243344846616" lon="9.909815278318588"><ele>84.0</ele><time>2026-04-19T08:54:12.999Z</time></trkpt><trkpt lat="44.92252902983698" lon="9.909772479550552"><ele>84.0</ele><time>2026-04-19T08:54:13.999Z</time></trkpt><trkpt lat="44.92259559550634" lon="9.909761379056366"><ele>84.0</ele><time>2026-04-19T08:54:14.999Z</time></trkpt><trkpt lat="44.92268794942197" lon="9.909818483772588"><ele>84.0</ele><time>2026-04-19T08:54:15.999Z</time></trkpt><trkpt lat="44.92276466688905" lon="9.909853532155237"><ele>84.0</ele><time>2026-04-19T08:54:16.999Z</time></trkpt><trkpt lat="44.92284282232136" lon="9.909888965284601"><ele>84.0</ele><time>2026-04-19T08:54:17.999Z</time></trkpt><trkpt lat="44.9229198082087" lon="9.909931174454886"><ele>84.0</ele><time>2026-04-19T08:54:18.999Z</time></trkpt><trkpt lat="44.922999095772155" lon="9.9099719744108"><ele>84.0</ele><time>2026-04-19T08:54:19.999Z</time></trkpt><trkpt lat="44.92308050810329" lon="9.910008858079367"><ele>84.0</ele><time>2026-04-19T08:54:20.999Z</time></trkpt><trkpt lat="44.923161047723816" lon="9.910044299383246"><ele>84.0</ele><time>2026-04-19T08:54:21.999Z</time></trkpt><trkpt lat="44.923242122795756" lon="9.910082674457502"><ele>84.0</ele><time>2026-04-19T08:54:22.999Z</time></trkpt><trkpt lat="44.92331813500426" lon="9.910116786688866"><ele>84.0</ele><time>2026-04-19T08:54:23.999Z</time></trkpt><trkpt lat="44.923395679939084" lon="9.910146087323675"><ele>84.0</ele><time>2026-04-19T08:54:24.999Z</time></trkpt><trkpt lat="44.923471831695814" lon="9.910182538551284"><ele>84.0</ele><time>2026-04-19T08:54:25.999Z</time></trkpt><trkpt lat="44.92354669502387" lon="9.91021890472227"><ele>84.0</ele><time>2026-04-19T08:54:26.999Z</time></trkpt><trkpt lat="44.92362257604922" lon="9.91025101322893"><ele>84.16666666666667</ele><time>2026-04-19T08:54:27.999Z</time></trkpt><trkpt lat="44.923699556654064" lon="9.910288238317646"><ele>84.33333333333333</ele><time>2026-04-19T08:54:28.999Z</time></trkpt><trkpt lat="44.923774290673705" lon="9.910322125558144"><ele>84.5</ele><time>2026-04-19T08:54:29.999Z</time></trkpt><trkpt lat="44.9238472105116" lon="9.910351371172894"><ele>84.66666666666666</ele><time>2026-04-19T08:54:30.999Z</time></trkpt><trkpt lat="44.923917868129905" lon="9.910383723886113"><ele>84.83333333333333</ele><time>2026-04-19T08:54:31.999Z</time></trkpt><trkpt lat="44.923984993602325" lon="9.910410798523845"><ele>85.0</ele><time>2026-04-19T08:54:32.999Z</time></trkpt><trkpt lat="44.92405277572833" lon="9.91044264320998"><ele>85.0</ele><time>2026-04-19T08:54:33.999Z</time></trkpt><trkpt lat="44.924118865560025" lon="9.910473327757412"><ele>85.0</ele><time>2026-04-19T08:54:34.999Z</time></trkpt><trkpt lat="44.92418147858111" lon="9.910506412551205"><ele>85.0</ele><time>2026-04-19T08:54:35.999Z</time></trkpt><trkpt lat="44.92424233029065" lon="9.910536858090568"><ele>85.0</ele><time>2026-04-19T08:54:36.999Z</time></trkpt><trkpt lat="44.92430351523414" lon="9.910564063419908"><ele>85.0</ele><time>2026-04-19T08:54:37.999Z</time></trkpt><trkpt lat="44.924422327328244" lon="9.910621143808283"><ele>85.0</ele><time>2026-04-19T08:54:39.998Z</time></trkpt><trkpt lat="44.924482672345626" lon="9.910646885937274"><ele>84.83333333333333</ele><time>2026-04-19T08:54:40.998Z</time></trkpt><trkpt lat="44.92459710728351" lon="9.91070204891641"><ele>84.66666666666666</ele><time>2026-04-19T08:54:42.998Z</time></trkpt><trkpt lat="44.92471532101582" lon="9.910764862840097"><ele>84.5</ele><time>2026-04-19T08:54:44.998Z</time></trkpt><trkpt lat="44.92477663817884" lon="9.91079584454059"><ele>84.33333333333333</ele><time>2026-04-19T08:54:45.998Z</time></trkpt><trkpt lat="44.92484291358976" lon="9.910820369201423"><ele>84.16666666666667</ele><time>2026-04-19T08:54:46.998Z</time></trkpt><trkpt lat="44.9249071617779" lon="9.910843750270278"><ele>84.0</ele><time>2026-04-19T08:54:47.998Z</time></trkpt><trkpt lat="44.924970117954246" lon="9.910871024321638"><ele>84.0</ele><time>2026-04-19T08:54:48.998Z</time></trkpt><trkpt lat="44.92503456879338" lon="9.91090639996734"><ele>84.0</ele><time>2026-04-19T08:54:49.998Z</time></trkpt><trkpt lat="44.92510024408447" lon="9.910938748059422"><ele>84.0</ele><time>2026-04-19T08:54:50.998Z</time></trkpt><trkpt lat="44.92516224614271" lon="9.910970653815996"><ele>84.0</ele><time>2026-04-19T08:54:51.998Z</time></trkpt><trkpt lat="44.92522370898401" lon="9.911002532292619"><ele>84.0</ele><time>2026-04-19T08:54:52.998Z</time></trkpt><trkpt lat="44.925284272140814" lon="9.911035414876844"><ele>84.0</ele><time>2026-04-19T08:54:53.998Z</time></trkpt><trkpt lat="44.925404641711275" lon="9.911091406135627"><ele>83.80000000000001</ele><time>2026-04-19T08:54:55.998Z</time></trkpt><trkpt lat="44.925516835577405" lon="9.911148710474986"><ele>83.60000000000001</ele><time>2026-04-19T08:54:57.998Z</time></trkpt><trkpt lat="44.92560631348027" lon="9.911244459347243"><ele>83.4</ele><time>2026-04-19T08:54:59.998Z</time></trkpt><trkpt lat="44.92567764942866" lon="9.911373886371178"><ele>83.2</ele><time>2026-04-19T08:55:01.998Z</time></trkpt><trkpt lat="44.92577521154416" lon="9.91141380729533"><ele>83.0</ele><time>2026-04-19T08:55:03.998Z</time></trkpt><trkpt lat="44.925866940997764" lon="9.911299956955089"><ele>83.14285714285714</ele><time>2026-04-19T08:55:05.998Z</time></trkpt><trkpt lat="44.925904174040404" lon="9.911225806896947"><ele>83.28571428571429</ele><time>2026-04-19T08:55:06.998Z</time></trkpt><trkpt lat="44.92594309279985" lon="9.911148639890278"><ele>83.42857142857143</ele><time>2026-04-19T08:55:07.998Z</time></trkpt><trkpt lat="44.92598205049494" lon="9.911069362044413"><ele>83.57142857142857</ele><time>2026-04-19T08:55:08.998Z</time></trkpt><trkpt lat="44.92602447247031" lon="9.910986646265911"><ele>83.71428571428572</ele><time>2026-04-19T08:55:09.998Z</time></trkpt><trkpt lat="44.92606621740676" lon="9.910903594367879"><ele>83.85714285714286</ele><time>2026-04-19T08:55:10.998Z</time></trkpt><trkpt lat="44.92610701815147" lon="9.910814390927746"><ele>84.0</ele><time>2026-04-19T08:55:11.998Z</time></trkpt><trkpt lat="44.92613226881752" lon="9.910713044609464"><ele>84.0</ele><time>2026-04-19T08:55:12.998Z</time></trkpt><trkpt lat="44.926192477763735" lon="9.910635556271753"><ele>84.0</ele><time>2026-04-19T08:55:13.998Z</time></trkpt><trkpt lat="44.92623823432705" lon="9.910545942545829"><ele>84.0</ele><time>2026-04-19T08:55:14.998Z</time></trkpt><trkpt lat="44.92628391097601" lon="9.91045573233158"><ele>84.0</ele><time>2026-04-19T08:55:15.998Z</time></trkpt><trkpt lat="44.92633035505269" lon="9.910364661569822"><ele>84.0</ele><time>2026-04-19T08:55:16.998Z</time></trkpt><trkpt lat="44.92637821061109" lon="9.910273663407057"><ele>84.0</ele><time>2026-04-19T08:55:17.998Z</time></trkpt><trkpt lat="44.92642402043074" lon="9.910183007640867"><ele>84.0</ele><time>2026-04-19T08:55:18.998Z</time></trkpt><trkpt lat="44.926470337688606" lon="9.910088516033824"><ele>84.0</ele><time>2026-04-19T08:55:20Z</time></trkpt><trkpt lat="44.92651586319422" lon="9.909994675575367"><ele>84.0</ele><time>2026-04-19T08:55:21Z</time></trkpt><trkpt lat="44.926562461217536" lon="9.909902129896746"><ele>84.0</ele><time>2026-04-19T08:55:22Z</time></trkpt><trkpt lat="44.92660850595665" lon="9.909810767256815"><ele>84.0</ele><time>2026-04-19T08:55:23Z</time></trkpt><trkpt lat="44.926652992308796" lon="9.90972152076947"><ele>84.0</ele><time>2026-04-19T08:55:24Z</time></trkpt><trkpt lat="44.926697234715654" lon="9.909634754210943"><ele>84.0</ele><time>2026-04-19T08:55:25Z</time></trkpt><trkpt lat="44.92674137395731" lon="9.90955109727678"><ele>84.0</ele><time>2026-04-19T08:55:26Z</time></trkpt><trkpt lat="44.92678628150904" lon="9.909469162997263"><ele>84.0</ele><time>2026-04-19T08:55:27Z</time></trkpt><trkpt lat="44.92682884466814" lon="9.909388884821377"><ele>84.0</ele><time>2026-04-19T08:55:28Z</time></trkpt><trkpt lat="44.926868774330956" lon="9.90930832217926"><ele>84.0</ele><time>2026-04-19T08:55:29Z</time></trkpt><trkpt lat="44.92691231064305" lon="9.909227473561927"><ele>84.0</ele><time>2026-04-19T08:55:30Z</time></trkpt><trkpt lat="44.926954032739836" lon="9.909144183869554"><ele>84.0</ele><time>2026-04-19T08:55:31Z</time></trkpt><trkpt lat="44.92699712415274" lon="9.909059263820835"><ele>84.0</ele><time>2026-04-19T08:55:32Z</time></trkpt><trkpt lat="44.92704111170845" lon="9.908975923446102"><ele>84.0</ele><time>2026-04-19T08:55:33Z</time></trkpt><trkpt lat="44.92708329976864" lon="9.908893172195892"><ele>84.0</ele><time>2026-04-19T08:55:34Z</time></trkpt><trkpt lat="44.927127432152425" lon="9.908810431991128"><ele>84.0</ele><time>2026-04-19T08:55:35Z</time></trkpt><trkpt lat="44.927170423877236" lon="9.908726593495244"><ele>84.0</ele><time>2026-04-19T08:55:36Z</time></trkpt><trkpt lat="44.927215589181365" lon="9.908643730305977"><ele>84.0</ele><time>2026-04-19T08:55:37Z</time></trkpt><trkpt lat="44.92725963964034" lon="9.908562713540547"><ele>84.0</ele><time>2026-04-19T08:55:38Z</time></trkpt><trkpt lat="44.9273055114613" lon="9.908478764246912"><ele>84.0</ele><time>2026-04-19T08:55:39Z</time></trkpt><trkpt lat="44.92735147912007" lon="9.908396755771614"><ele>84.0</ele><time>2026-04-19T08:55:40Z</time></trkpt><trkpt lat="44.92739597308397" lon="9.908315657048636"><ele>84.0</ele><time>2026-04-19T08:55:41Z</time></trkpt><trkpt lat="44.927442445679404" lon="9.908234771412122"><ele>84.0</ele><time>2026-04-19T08:55:42Z</time></trkpt><trkpt lat="44.927486337968524" lon="9.90815129360401"><ele>84.0</ele><time>2026-04-19T08:55:43Z</time></trkpt><trkpt lat="44.92752745352796" lon="9.908068104662314"><ele>84.0</ele><time>2026-04-19T08:55:44Z</time></trkpt><trkpt lat="44.9275718724189" lon="9.907986069939877"><ele>84.0</ele><time>2026-04-19T08:55:45Z</time></trkpt><trkpt lat="44.92761296101636" lon="9.907901962364297"><ele>83.85714285714286</ele><time>2026-04-19T08:55:46Z</time></trkpt><trkpt lat="44.92765584472803" lon="9.907819227254462"><ele>83.71428571428572</ele><time>2026-04-19T08:55:47Z</time></trkpt><trkpt lat="44.92770004581333" lon="9.907737317247127"><ele>83.57142857142857</ele><time>2026-04-19T08:55:48Z</time></trkpt><trkpt lat="44.92774478411044" lon="9.907653483659113"><ele>83.42857142857143</ele><time>2026-04-19T08:55:49Z</time></trkpt><trkpt lat="44.92778860455922" lon="9.907571128147476"><ele>83.28571428571429</ele><time>2026-04-19T08:55:50Z</time></trkpt><trkpt lat="44.92783260704763" lon="9.907488064039207"><ele>83.14285714285714</ele><time>2026-04-19T08:55:51Z</time></trkpt><trkpt lat="44.92787611624092" lon="9.907407781025153"><ele>83.0</ele><time>2026-04-19T08:55:51.999Z</time></trkpt><trkpt lat="44.927920070824804" lon="9.907327233718005"><ele>83.28571428571428</ele><time>2026-04-19T08:55:52.999Z</time></trkpt><trkpt lat="44.92796289641036" lon="9.907246016519162"><ele>83.57142857142858</ele><time>2026-04-19T08:55:53.999Z</time></trkpt><trkpt lat="44.92800119769231" lon="9.90716523582913"><ele>83.85714285714286</ele><time>2026-04-19T08:55:54.999Z</time></trkpt><trkpt lat="44.92804067768838" lon="9.907089083514403"><ele>84.14285714285714</ele><time>2026-04-19T08:55:55.999Z</time></trkpt><trkpt lat="44.92808283699794" lon="9.907011033228926"><ele>84.42857142857142</ele><time>2026-04-19T08:55:56.999Z</time></trkpt><trkpt lat="44.92812391418089" lon="9.90693018850105"><ele>84.71428571428572</ele><time>2026-04-19T08:55:57.999Z</time></trkpt><trkpt lat="44.92816534474507" lon="9.906849551362807"><ele>85.0</ele><time>2026-04-19T08:55:58.999Z</time></trkpt><trkpt lat="44.9282076928026" lon="9.906767868966568"><ele>84.83333333333333</ele><time>2026-04-19T08:55:59.999Z</time></trkpt><trkpt lat="44.92825122505819" lon="9.90668804149438"><ele>84.66666666666666</ele><time>2026-04-19T08:56:00.999Z</time></trkpt><trkpt lat="44.928299666392824" lon="9.906610786139982"><ele>84.5</ele><time>2026-04-19T08:56:01.999Z</time></trkpt><trkpt lat="44.92835866464337" lon="9.906546107499366"><ele>84.33333333333333</ele><time>2026-04-19T08:56:02.999Z</time></trkpt><trkpt lat="44.92842363410469" lon="9.906487552650516"><ele>84.16666666666667</ele><time>2026-04-19T08:56:03.999Z</time></trkpt><trkpt lat="44.92849664102584" lon="9.9064468465629"><ele>84.0</ele><time>2026-04-19T08:56:04.999Z</time></trkpt><trkpt lat="44.928574737760094" lon="9.906428315743002"><ele>83.5</ele><time>2026-04-19T08:56:05.999Z</time></trkpt><trkpt lat="44.928652947816765" lon="9.906429450730496"><ele>83.0</ele><time>2026-04-19T08:56:06.999Z</time></trkpt><trkpt lat="44.92873047362179" lon="9.906456066494508"><ele>82.5</ele><time>2026-04-19T08:56:07.999Z</time></trkpt><trkpt lat="44.92880291751557" lon="9.906500842963041"><ele>82.0</ele><time>2026-04-19T08:56:08.999Z</time></trkpt><trkpt lat="44.92887361790064" lon="9.906552275650975"><ele>81.5</ele><time>2026-04-19T08:56:09.999Z</time></trkpt><trkpt lat="44.92894089616082" lon="9.906608698161815"><ele>81.0</ele><time>2026-04-19T08:56:10.999Z</time></trkpt><trkpt lat="44.92900660215955" lon="9.906670910745122"><ele>81.0</ele><time>2026-04-19T08:56:11.999Z</time></trkpt><trkpt lat="44.92907057292153" lon="9.906738066791332"><ele>81.0</ele><time>2026-04-19T08:56:12.999Z</time></trkpt><trkpt lat="44.92913230632459" lon="9.906807107917693"><ele>81.0</ele><time>2026-04-19T08:56:13.999Z</time></trkpt><trkpt lat="44.92920187027138" lon="9.906870065185284"><ele>81.0</ele><time>2026-04-19T08:56:14.999Z</time></trkpt><trkpt lat="44.92926893067879" lon="9.906932735539767"><ele>81.0</ele><time>2026-04-19T08:56:15.999Z</time></trkpt><trkpt lat="44.929334299777736" lon="9.90699601391165"><ele>81.0</ele><time>2026-04-19T08:56:16.999Z</time></trkpt><trkpt lat="44.92940169592885" lon="9.907058745797528"><ele>81.16666666666667</ele><time>2026-04-19T08:56:17.999Z</time></trkpt><trkpt lat="44.92946882785158" lon="9.907125208995405"><ele>81.33333333333333</ele><time>2026-04-19T08:56:18.999Z</time></trkpt><trkpt lat="44.92953639405074" lon="9.907186483144583"><ele>81.5</ele><time>2026-04-19T08:56:19.999Z</time></trkpt><trkpt lat="44.92960410737212" lon="9.90724785021181"><ele>81.66666666666666</ele><time>2026-04-19T08:56:20.999Z</time></trkpt><trkpt lat="44.92967005688302" lon="9.907308130294453"><ele>81.83333333333333</ele><time>2026-04-19T08:56:21.999Z</time></trkpt><trkpt lat="44.92973507556976" lon="9.907367820079097"><ele>82.0</ele><time>2026-04-19T08:56:22.999Z</time></trkpt><trkpt lat="44.92979718663489" lon="9.907429309286163"><ele>82.0</ele><time>2026-04-19T08:56:23.999Z</time></trkpt><trkpt lat="44.92986008257286" lon="9.90748660280628"><ele>82.0</ele><time>2026-04-19T08:56:24.999Z</time></trkpt><trkpt lat="44.929921194998144" lon="9.907544943779405"><ele>82.0</ele><time>2026-04-19T08:56:25.999Z</time></trkpt><trkpt lat="44.92998284007249" lon="9.907603805375215"><ele>82.0</ele><time>2026-04-19T08:56:26.999Z</time></trkpt><trkpt lat="44.93004138646799" lon="9.907656639236766"><ele>82.0</ele><time>2026-04-19T08:56:27.999Z</time></trkpt><trkpt lat="44.93014756151036" lon="9.907747319603684"><ele>82.0</ele><time>2026-04-19T08:56:29.999Z</time></trkpt><trkpt lat="44.93024572184193" lon="9.907838714390454"><ele>82.0</ele><time>2026-04-19T08:56:31.999Z</time></trkpt><trkpt lat="44.93034752103225" lon="9.90790918607177"><ele>82.0</ele><time>2026-04-19T08:56:33.999Z</time></trkpt><trkpt lat="44.93045365004466" lon="9.907953640327753"><ele>82.0</ele><time>2026-04-19T08:56:35.999Z</time></trkpt><trkpt lat="44.930552078531505" lon="9.90795256751135"><ele>82.0</ele><time>2026-04-19T08:56:37.999Z</time></trkpt><trkpt lat="44.930627210901335" lon="9.907914379416846"><ele>82.0</ele><time>2026-04-19T08:56:39.999Z</time></trkpt><trkpt lat="44.93070149387487" lon="9.90787725601114"><ele>82.0</ele><time>2026-04-19T08:56:41.999Z</time></trkpt><trkpt lat="44.93078668110598" lon="9.907846779758538"><ele>82.0</ele><time>2026-04-19T08:56:43.999Z</time></trkpt><trkpt lat="44.93085821192698" lon="9.907771575814524"><ele>82.0</ele><time>2026-04-19T08:56:45.998Z</time></trkpt><trkpt lat="44.93090090980851" lon="9.907644017094931"><ele>82.0</ele><time>2026-04-19T08:56:47.998Z</time></trkpt><trkpt lat="44.93095367488934" lon="9.907515714775318"><ele>82.0</ele><time>2026-04-19T08:56:49.998Z</time></trkpt><trkpt lat="44.93102369759015" lon="9.907393203768798"><ele>81.71428571428571</ele><time>2026-04-19T08:56:51.998Z</time></trkpt><trkpt lat="44.931064729796084" lon="9.907323511078836"><ele>81.42857142857143</ele><time>2026-04-19T08:56:52.998Z</time></trkpt><trkpt lat="44.93110838103423" lon="9.907254642658627"><ele>81.14285714285714</ele><time>2026-04-19T08:56:53.998Z</time></trkpt><trkpt lat="44.93115108697975" lon="9.907184478614338"><ele>80.85714285714286</ele><time>2026-04-19T08:56:54.998Z</time></trkpt><trkpt lat="44.93119373174857" lon="9.907116624174666"><ele>80.57142857142857</ele><time>2026-04-19T08:56:55.998Z</time></trkpt><trkpt lat="44.93123428953481" lon="9.907043606489546"><ele>80.28571428571428</ele><time>2026-04-19T08:56:56.998Z</time></trkpt><trkpt lat="44.93127337646661" lon="9.906971171276755"><ele>80.0</ele><time>2026-04-19T08:56:57.998Z</time></trkpt><trkpt lat="44.931313942356724" lon="9.906899480402998"><ele>80.0</ele><time>2026-04-19T08:56:58.998Z</time></trkpt><trkpt lat="44.93135718987058" lon="9.906825328956835"><ele>80.0</ele><time>2026-04-19T08:56:59.998Z</time></trkpt><trkpt lat="44.93140223953333" lon="9.906751064879797"><ele>80.0</ele><time>2026-04-19T08:57:00.998Z</time></trkpt><trkpt lat="44.931445604185654" lon="9.906674854223478"><ele>80.0</ele><time>2026-04-19T08:57:01.998Z</time></trkpt><trkpt lat="44.93148872357689" lon="9.906599764323476"><ele>80.0</ele><time>2026-04-19T08:57:02.998Z</time></trkpt><trkpt lat="44.931534684716816" lon="9.906524357151348"><ele>80.0</ele><time>2026-04-19T08:57:03.998Z</time></trkpt><trkpt lat="44.931579749652315" lon="9.906448936239705"><ele>80.0</ele><time>2026-04-19T08:57:04.998Z</time></trkpt><trkpt lat="44.931622492493794" lon="9.9063802297345"><ele>80.0</ele><time>2026-04-19T08:57:05.998Z</time></trkpt><trkpt lat="44.93169960637897" lon="9.906316042105859"><ele>80.0</ele><time>2026-04-19T08:57:07.998Z</time></trkpt><trkpt lat="44.931793721016774" lon="9.906466730464611"><ele>80.0</ele><time>2026-04-19T08:57:08.998Z</time></trkpt><trkpt lat="44.9318325765399" lon="9.906557177270988"><ele>80.0</ele><time>2026-04-19T08:57:09.998Z</time></trkpt><trkpt lat="44.93187701948463" lon="9.906645015404894"><ele>80.0</ele><time>2026-04-19T08:57:10.998Z</time></trkpt><trkpt lat="44.931921663540045" lon="9.906733251034337"><ele>79.83333333333334</ele><time>2026-04-19T08:57:11.998Z</time></trkpt><trkpt lat="44.9319673536608" lon="9.906823554056801"><ele>79.66666666666667</ele><time>2026-04-19T08:57:12.998Z</time></trkpt><trkpt lat="44.93201289768498" lon="9.906913568398567"><ele>79.5</ele><time>2026-04-19T08:57:13.998Z</time></trkpt><trkpt lat="44.93206136303752" lon="9.907004004375844"><ele>79.33333333333333</ele><time>2026-04-19T08:57:14.998Z</time></trkpt><trkpt lat="44.932112965289264" lon="9.907094324888716"><ele>79.16666666666666</ele><time>2026-04-19T08:57:15.998Z</time></trkpt><trkpt lat="44.93216664023627" lon="9.907182108523289"><ele>79.0</ele><time>2026-04-19T08:57:16.998Z</time></trkpt><trkpt lat="44.93222049181765" lon="9.907270181040907"><ele>79.0</ele><time>2026-04-19T08:57:17.998Z</time></trkpt><trkpt lat="44.93227407939691" lon="9.907357497398731"><ele>79.0</ele><time>2026-04-19T08:57:18.998Z</time></trkpt><trkpt lat="44.93234076976932" lon="9.907428402104278"><ele>79.0</ele><time>2026-04-19T08:57:19.998Z</time></trkpt><trkpt lat="44.93238428303921" lon="9.907527888556599"><ele>79.0</ele><time>2026-04-19T08:57:20.998Z</time></trkpt><trkpt lat="44.93244291127831" lon="9.907607996808037"><ele>79.0</ele><time>2026-04-19T08:57:21.998Z</time></trkpt><trkpt lat="44.932518419721596" lon="9.907655235869047"><ele>79.0</ele><time>2026-04-19T08:57:22.998Z</time></trkpt><trkpt lat="44.93258184172102" lon="9.907721743190734"><ele>78.66666666666666</ele><time>2026-04-19T08:57:23.998Z</time></trkpt><trkpt lat="44.93264714870033" lon="9.907785160473766"><ele>78.33333333333333</ele><time>2026-04-19T08:57:24.998Z</time></trkpt><trkpt lat="44.932716763644514" lon="9.907845455983958"><ele>78.0</ele><time>2026-04-19T08:57:26Z</time></trkpt><trkpt lat="44.932786911163575" lon="9.907905088455262"><ele>77.66666666666667</ele><time>2026-04-19T08:57:27Z</time></trkpt><trkpt lat="44.93285997049613" lon="9.907966407848717"><ele>77.33333333333334</ele><time>2026-04-19T08:57:28Z</time></trkpt><trkpt lat="44.93293432484101" lon="9.908027908305497"><ele>77.0</ele><time>2026-04-19T08:57:29Z</time></trkpt><trkpt lat="44.93301183194067" lon="9.908093925621202"><ele>77.0</ele><time>2026-04-19T08:57:30Z</time></trkpt><trkpt lat="44.93308184771964" lon="9.908184912654386"><ele>77.0</ele><time>2026-04-19T08:57:31Z</time></trkpt><trkpt lat="44.93317448113244" lon="9.908234084421585"><ele>77.0</ele><time>2026-04-19T08:57:32Z</time></trkpt><trkpt lat="44.93324972258098" lon="9.908325414314792"><ele>77.0</ele><time>2026-04-19T08:57:33Z</time></trkpt><trkpt lat="44.933336248524775" lon="9.908399079973107"><ele>77.0</ele><time>2026-04-19T08:57:34Z</time></trkpt><trkpt lat="44.93342206430595" lon="9.908474210449356"><ele>76.8</ele><time>2026-04-19T08:57:35Z</time></trkpt><trkpt lat="44.93350940149062" lon="9.908551029718764"><ele>76.6</ele><time>2026-04-19T08:57:36Z</time></trkpt><trkpt lat="44.93359624136061" lon="9.90862741157893"><ele>76.39999999999999</ele><time>2026-04-19T08:57:37Z</time></trkpt><trkpt lat="44.93368917321469" lon="9.908683094243969"><ele>76.2</ele><time>2026-04-19T08:57:38Z</time></trkpt><trkpt lat="44.93376229837687" lon="9.908775847819657"><ele>76.0</ele><time>2026-04-19T08:57:39Z</time></trkpt><trkpt lat="44.933845439687694" lon="9.908829336242905"><ele>76.0</ele><time>2026-04-19T08:57:40Z</time></trkpt><trkpt lat="44.933923802367126" lon="9.908893983527493"><ele>76.0</ele><time>2026-04-19T08:57:41Z</time></trkpt><trkpt lat="44.93400967635189" lon="9.908958938038026"><ele>76.0</ele><time>2026-04-19T08:57:42Z</time></trkpt><trkpt lat="44.934093160925705" lon="9.90901287033618"><ele>76.0</ele><time>2026-04-19T08:57:43Z</time></trkpt><trkpt lat="44.93417846543766" lon="9.909053720324676"><ele>76.0</ele><time>2026-04-19T08:57:44Z</time></trkpt><trkpt lat="44.934262830726624" lon="9.9090898133036"><ele>76.0</ele><time>2026-04-19T08:57:45Z</time></trkpt><trkpt lat="44.9343472775856" lon="9.90912538603144"><ele>76.0</ele><time>2026-04-19T08:57:46Z</time></trkpt><trkpt lat="44.93442937181947" lon="9.909157317362935"><ele>76.0</ele><time>2026-04-19T08:57:47Z</time></trkpt><trkpt lat="44.9345107740994" lon="9.909182546293282"><ele>76.0</ele><time>2026-04-19T08:57:48Z</time></trkpt><trkpt lat="44.93458939164162" lon="9.909208022438351"><ele>76.0</ele><time>2026-04-19T08:57:49Z</time></trkpt><trkpt lat="44.93466412591737" lon="9.909229581355737"><ele>76.0</ele><time>2026-04-19T08:57:50Z</time></trkpt><trkpt lat="44.93473611549934" lon="9.909253364357541"><ele>75.85714285714285</ele><time>2026-04-19T08:57:51Z</time></trkpt><trkpt lat="44.9348046140141" lon="9.909277627805404"><ele>75.71428571428572</ele><time>2026-04-19T08:57:52Z</time></trkpt><trkpt lat="44.934872960922746" lon="9.909301458835007"><ele>75.57142857142857</ele><time>2026-04-19T08:57:53Z</time></trkpt><trkpt lat="44.93493911033054" lon="9.909322542146292"><ele>75.42857142857142</ele><time>2026-04-19T08:57:54Z</time></trkpt><trkpt lat="44.935006987668054" lon="9.909343831457278"><ele>75.28571428571428</ele><time>2026-04-19T08:57:55Z</time></trkpt><trkpt lat="44.93507602392883" lon="9.909364896528258"><ele>75.14285714285714</ele><time>2026-04-19T08:57:55.999Z</time></trkpt><trkpt lat="44.935146206021855" lon="9.909388634689108"><ele>75.0</ele><time>2026-04-19T08:57:56.999Z</time></trkpt><trkpt lat="44.93521743488849" lon="9.909414029853968"><ele>74.83333333333333</ele><time>2026-04-19T08:57:57.999Z</time></trkpt><trkpt lat="44.93529139637228" lon="9.909436217778683"><ele>74.66666666666667</ele><time>2026-04-19T08:57:58.999Z</time></trkpt><trkpt lat="44.9353659044288" lon="9.909453939847783"><ele>74.5</ele><time>2026-04-19T08:57:59.999Z</time></trkpt><trkpt lat="44.93544115862466" lon="9.90946623192586"><ele>74.33333333333334</ele><time>2026-04-19T08:58:00.999Z</time></trkpt><trkpt lat="44.93551520359184" lon="9.909466742627153"><ele>74.16666666666667</ele><time>2026-04-19T08:58:01.999Z</time></trkpt><trkpt lat="44.935590763271755" lon="9.909469007617595"><ele>74.0</ele><time>2026-04-19T08:58:02.999Z</time></trkpt><trkpt lat="44.935666578356454" lon="9.909470970151006"><ele>74.0</ele><time>2026-04-19T08:58:03.999Z</time></trkpt><trkpt lat="44.935742679453526" lon="9.909496073170098"><ele>74.0</ele><time>2026-04-19T08:58:04.999Z</time></trkpt><trkpt lat="44.93582203855765" lon="9.909481335805944"><ele>74.0</ele><time>2026-04-19T08:58:05.999Z</time></trkpt><trkpt lat="44.93589877866634" lon="9.909493842520137"><ele>74.0</ele><time>2026-04-19T08:58:06.999Z</time></trkpt><trkpt lat="44.935976046575014" lon="9.909504697427623"><ele>74.0</ele><time>2026-04-19T08:58:07.999Z</time></trkpt><trkpt lat="44.936053590543715" lon="9.909512064887146"><ele>74.0</ele><time>2026-04-19T08:58:08.999Z</time></trkpt><trkpt lat="44.93613382644495" lon="9.909516411992588"><ele>74.0</ele><time>2026-04-19T08:58:09.999Z</time></trkpt><trkpt lat="44.936212101436155" lon="9.909517315776998"><ele>74.0</ele><time>2026-04-19T08:58:10.999Z</time></trkpt><trkpt lat="44.93629134548587" lon="9.909515797879052"><ele>74.0</ele><time>2026-04-19T08:58:11.999Z</time></trkpt><trkpt lat="44.936371590248086" lon="9.909516613235718"><ele>74.0</ele><time>2026-04-19T08:58:12.999Z</time></trkpt><trkpt lat="44.9364516763229" lon="9.909527413840205"><ele>74.0</ele><time>2026-04-19T08:58:13.999Z</time></trkpt><trkpt lat="44.936533506223704" lon="9.909537421405469"><ele>74.0</ele><time>2026-04-19T08:58:14.999Z</time></trkpt><trkpt lat="44.936616030052384" lon="9.90954523728269"><ele>74.0</ele><time>2026-04-19T08:58:15.999Z</time></trkpt><trkpt lat="44.936701060041734" lon="9.909560464302134"><ele>74.0</ele><time>2026-04-19T08:58:16.999Z</time></trkpt><trkpt lat="44.93678515686864" lon="9.90958411116097"><ele>74.0</ele><time>2026-04-19T08:58:17.999Z</time></trkpt><trkpt lat="44.93686881839557" lon="9.909610067793484"><ele>74.0</ele><time>2026-04-19T08:58:18.999Z</time></trkpt><trkpt lat="44.936952042960385" lon="9.909637874457562"><ele>74.0</ele><time>2026-04-19T08:58:19.999Z</time></trkpt><trkpt lat="44.93703493250623" lon="9.909669826401391"><ele>74.0</ele><time>2026-04-19T08:58:20.999Z</time></trkpt><trkpt lat="44.93711799682669" lon="9.909701744906128"><ele>73.83333333333334</ele><time>2026-04-19T08:58:21.999Z</time></trkpt><trkpt lat="44.93720156331735" lon="9.909732116958027"><ele>73.66666666666667</ele><time>2026-04-19T08:58:22.999Z</time></trkpt><trkpt lat="44.93727939211893" lon="9.909785435939236"><ele>73.5</ele><time>2026-04-19T08:58:23.999Z</time></trkpt><trkpt lat="44.93736481351679" lon="9.90979669902377"><ele>73.33333333333333</ele><time>2026-04-19T08:58:24.999Z</time></trkpt><trkpt lat="44.93744270185113" lon="9.909847635607232"><ele>73.16666666666666</ele><time>2026-04-19T08:58:25.999Z</time></trkpt><trkpt lat="44.937525022465856" lon="9.909878800920804"><ele>73.0</ele><time>2026-04-19T08:58:26.999Z</time></trkpt><trkpt lat="44.93760803784188" lon="9.909910326042082"><ele>73.0</ele><time>2026-04-19T08:58:27.999Z</time></trkpt><trkpt lat="44.93768762759094" lon="9.90993723184777"><ele>73.0</ele><time>2026-04-19T08:58:28.999Z</time></trkpt><trkpt lat="44.937772042172625" lon="9.909953926359899"><ele>73.0</ele><time>2026-04-19T08:58:29.999Z</time></trkpt><trkpt lat="44.93785951720232" lon="9.909987543923279"><ele>73.0</ele><time>2026-04-19T08:58:30.999Z</time></trkpt><trkpt lat="44.937950114889915" lon="9.91000618674917"><ele>73.0</ele><time>2026-04-19T08:58:31.999Z</time></trkpt><trkpt lat="44.93804177788176" lon="9.910020113455161"><ele>73.0</ele><time>2026-04-19T08:58:32.999Z</time></trkpt><trkpt lat="44.93813195912758" lon="9.910038921802022"><ele>73.0</ele><time>2026-04-19T08:58:33.999Z</time></trkpt><trkpt lat="44.93822136318493" lon="9.910063373065908"><ele>73.0</ele><time>2026-04-19T08:58:34.999Z</time></trkpt><trkpt lat="44.93831104444614" lon="9.910086383283932"><ele>73.0</ele><time>2026-04-19T08:58:35.999Z</time></trkpt><trkpt lat="44.93839922177496" lon="9.910107991460718"><ele>73.0</ele><time>2026-04-19T08:58:36.999Z</time></trkpt><trkpt lat="44.93848748107568" lon="9.910128123488795"><ele>73.0</ele><time>2026-04-19T08:58:37.999Z</time></trkpt><trkpt lat="44.93857273234134" lon="9.910152590690506"><ele>73.0</ele><time>2026-04-19T08:58:38.999Z</time></trkpt><trkpt lat="44.93865726747452" lon="9.910184225760418"><ele>73.0</ele><time>2026-04-19T08:58:39.999Z</time></trkpt><trkpt lat="44.93874132707536" lon="9.91022357386774"><ele>73.0</ele><time>2026-04-19T08:58:40.999Z</time></trkpt><trkpt lat="44.93882678532327" lon="9.910262287286374"><ele>73.0</ele><time>2026-04-19T08:58:41.999Z</time></trkpt><trkpt lat="44.938911035172225" lon="9.910296969344028"><ele>73.0</ele><time>2026-04-19T08:58:42.999Z</time></trkpt><trkpt lat="44.938995739513295" lon="9.91033720005972"><ele>73.0</ele><time>2026-04-19T08:58:43.999Z</time></trkpt><trkpt lat="44.93907915477712" lon="9.91038022430948"><ele>73.0</ele><time>2026-04-19T08:58:44.999Z</time></trkpt><trkpt lat="44.93916413220273" lon="9.91041795180125"><ele>73.0</ele><time>2026-04-19T08:58:45.999Z</time></trkpt><trkpt lat="44.93924866866835" lon="9.910452736584276"><ele>73.0</ele><time>2026-04-19T08:58:46.999Z</time></trkpt><trkpt lat="44.939336284367705" lon="9.910482878746688"><ele>73.0</ele><time>2026-04-19T08:58:47.999Z</time></trkpt><trkpt lat="44.939422579209875" lon="9.910501391443056"><ele>73.0</ele><time>2026-04-19T08:58:48.999Z</time></trkpt><trkpt lat="44.93950999967734" lon="9.910512702866276"><ele>73.0</ele><time>2026-04-19T08:58:49.998Z</time></trkpt><trkpt lat="44.939598341652534" lon="9.910516472406963"><ele>73.0</ele><time>2026-04-19T08:58:50.998Z</time></trkpt><trkpt lat="44.93968633946277" lon="9.910518087092427"><ele>73.0</ele><time>2026-04-19T08:58:51.998Z</time></trkpt><trkpt lat="44.939775058551525" lon="9.910517787830692"><ele>73.0</ele><time>2026-04-19T08:58:52.998Z</time></trkpt><trkpt lat="44.93986294499823" lon="9.910511681887352"><ele>73.0</ele><time>2026-04-19T08:58:53.998Z</time></trkpt><trkpt lat="44.939952218500274" lon="9.910502642439997"><ele>73.0</ele><time>2026-04-19T08:58:54.998Z</time></trkpt><trkpt lat="44.94004114486691" lon="9.91048930175116"><ele>73.0</ele><time>2026-04-19T08:58:55.998Z</time></trkpt><trkpt lat="44.94012984848508" lon="9.91047576794732"><ele>73.0</ele><time>2026-04-19T08:58:56.998Z</time></trkpt><trkpt lat="44.94021825731885" lon="9.910462427702486"><ele>72.66666666666666</ele><time>2026-04-19T08:58:57.998Z</time></trkpt><trkpt lat="44.94030725422362" lon="9.910450009432266"><ele>72.33333333333333</ele><time>2026-04-19T08:58:58.998Z</time></trkpt><trkpt lat="44.94039548196384" lon="9.910436873510896"><ele>72.0</ele><time>2026-04-19T08:58:59.998Z</time></trkpt><trkpt lat="44.94048511687571" lon="9.910423354309014"><ele>71.66666666666667</ele><time>2026-04-19T08:59:00.998Z</time></trkpt><trkpt lat="44.94057398542759" lon="9.910412113992836"><ele>71.33333333333334</ele><time>2026-04-19T08:59:01.998Z</time></trkpt><trkpt lat="44.9406637608685" lon="9.910398183013461"><ele>71.0</ele><time>2026-04-19T08:59:02.998Z</time></trkpt><trkpt lat="44.940754226362294" lon="9.910382390796034"><ele>71.0</ele><time>2026-04-19T08:59:03.998Z</time></trkpt><trkpt lat="44.94084438388404" lon="9.910368984662519"><ele>71.0</ele><time>2026-04-19T08:59:04.998Z</time></trkpt><trkpt lat="44.94093338781088" lon="9.910353706895377"><ele>71.0</ele><time>2026-04-19T08:59:05.998Z</time></trkpt><trkpt lat="44.941023363710215" lon="9.91034141787567"><ele>71.0</ele><time>2026-04-19T08:59:06.998Z</time></trkpt><trkpt lat="44.94111419723651" lon="9.91032958293617"><ele>71.0</ele><time>2026-04-19T08:59:07.998Z</time></trkpt><trkpt lat="44.94120328181024" lon="9.910318062265347"><ele>70.83333333333334</ele><time>2026-04-19T08:59:08.998Z</time></trkpt><trkpt lat="44.94129380153738" lon="9.910312779537772"><ele>70.66666666666667</ele><time>2026-04-19T08:59:09.998Z</time></trkpt><trkpt lat="44.94138212099846" lon="9.91031079607994"><ele>70.5</ele><time>2026-04-19T08:59:10.998Z</time></trkpt><trkpt lat="44.94147197116792" lon="9.910312532456683"><ele>70.33333333333333</ele><time>2026-04-19T08:59:11.998Z</time></trkpt><trkpt lat="44.941561261360285" lon="9.910317759822968"><ele>70.16666666666666</ele><time>2026-04-19T08:59:12.998Z</time></trkpt><trkpt lat="44.94165117669148" lon="9.910319463578448"><ele>70.0</ele><time>2026-04-19T08:59:13.998Z</time></trkpt><trkpt lat="44.94174074869827" lon="9.91032284789823"><ele>70.0</ele><time>2026-04-19T08:59:14.998Z</time></trkpt><trkpt lat="44.941829751428266" lon="9.910328787104806"><ele>70.0</ele><time>2026-04-19T08:59:15.998Z</time></trkpt><trkpt lat="44.941919511347336" lon="9.910336307695518"><ele>70.0</ele><time>2026-04-19T08:59:16.998Z</time></trkpt><trkpt lat="44.94200851328784" lon="9.910345582202721"><ele>70.0</ele><time>2026-04-19T08:59:17.998Z</time></trkpt><trkpt lat="44.942099093187075" lon="9.910359050817332"><ele>70.0</ele><time>2026-04-19T08:59:18.998Z</time></trkpt><trkpt lat="44.942188929735806" lon="9.910374963088554"><ele>70.0</ele><time>2026-04-19T08:59:19.998Z</time></trkpt><trkpt lat="44.94227981016134" lon="9.91038961598594"><ele>70.0</ele><time>2026-04-19T08:59:20.998Z</time></trkpt><trkpt lat="44.9423690622646" lon="9.910405121822361"><ele>70.0</ele><time>2026-04-19T08:59:21.998Z</time></trkpt><trkpt lat="44.94245904384286" lon="9.91042628061951"><ele>70.0</ele><time>2026-04-19T08:59:22.998Z</time></trkpt><trkpt lat="44.94254780831772" lon="9.910452816884847"><ele>70.0</ele><time>2026-04-19T08:59:23.998Z</time></trkpt><trkpt lat="44.94263529276078" lon="9.910487167963066"><ele>69.6</ele><time>2026-04-19T08:59:24.998Z</time></trkpt><trkpt lat="44.94272052563516" lon="9.910531294086642"><ele>69.2</ele><time>2026-04-19T08:59:25.998Z</time></trkpt><trkpt lat="44.94280577208246" lon="9.910581938301426"><ele>68.8</ele><time>2026-04-19T08:59:26.998Z</time></trkpt><trkpt lat="44.94288983749848" lon="9.910633738661854"><ele>68.4</ele><time>2026-04-19T08:59:27.998Z</time></trkpt><trkpt lat="44.94296401971822" lon="9.910708796431718"><ele>68.0</ele><time>2026-04-19T08:59:28.998Z</time></trkpt><trkpt lat="44.94304630913582" lon="9.910766590959634"><ele>68.0</ele><time>2026-04-19T08:59:29.998Z</time></trkpt><trkpt lat="44.94312869006655" lon="9.910824763731343"><ele>68.0</ele><time>2026-04-19T08:59:31Z</time></trkpt><trkpt lat="44.94321108677478" lon="9.910883625306068"><ele>68.0</ele><time>2026-04-19T08:59:32Z</time></trkpt><trkpt lat="44.943300082637606" lon="9.910928216520253"><ele>68.0</ele><time>2026-04-19T08:59:33Z</time></trkpt><trkpt lat="44.94338440011897" lon="9.910987620895252"><ele>68.0</ele><time>2026-04-19T08:59:34Z</time></trkpt><trkpt lat="44.943467386665645" lon="9.91104499122292"><ele>68.6</ele><time>2026-04-19T08:59:35Z</time></trkpt><trkpt lat="44.943550121537605" lon="9.911105030994245"><ele>69.19999999999999</ele><time>2026-04-19T08:59:36Z</time></trkpt><trkpt lat="44.94363243125934" lon="9.91116517504658"><ele>69.8</ele><time>2026-04-19T08:59:37Z</time></trkpt><trkpt lat="44.94371566789237" lon="9.911225894040763"><ele>70.39999999999999</ele><time>2026-04-19T08:59:38Z</time></trkpt><trkpt lat="44.943796987564525" lon="9.911287997869291"><ele>71.0</ele><time>2026-04-19T08:59:39Z</time></trkpt><trkpt lat="44.94387779066769" lon="9.91134886655329"><ele>71.0</ele><time>2026-04-19T08:59:40Z</time></trkpt><trkpt lat="44.943959812267224" lon="9.911406926637538"><ele>71.0</ele><time>2026-04-19T08:59:41Z</time></trkpt><trkpt lat="44.94403301565306" lon="9.91148889922599"><ele>71.0</ele><time>2026-04-19T08:59:42Z</time></trkpt><trkpt lat="44.94412478766936" lon="9.91152442288258"><ele>71.0</ele><time>2026-04-19T08:59:43Z</time></trkpt><trkpt lat="44.94421254042251" lon="9.911570968452324"><ele>71.0</ele><time>2026-04-19T08:59:44Z</time></trkpt><trkpt lat="44.94430403291546" lon="9.911602302378586"><ele>71.0</ele><time>2026-04-19T08:59:45Z</time></trkpt><trkpt lat="44.94439880194865" lon="9.911610419175439"><ele>71.0</ele><time>2026-04-19T08:59:46Z</time></trkpt><trkpt lat="44.944495848112005" lon="9.911611240577122"><ele>71.0</ele><time>2026-04-19T08:59:47Z</time></trkpt><trkpt lat="44.94459175097017" lon="9.911605527166854"><ele>71.0</ele><time>2026-04-19T08:59:48Z</time></trkpt><trkpt lat="44.94468901296577" lon="9.911599882416036"><ele>71.0</ele><time>2026-04-19T08:59:49Z</time></trkpt><trkpt lat="44.944783386652105" lon="9.911595253934149"><ele>71.0</ele><time>2026-04-19T08:59:50Z</time></trkpt><trkpt lat="44.94487819214546" lon="9.911584316879463"><ele>71.0</ele><time>2026-04-19T08:59:51Z</time></trkpt><trkpt lat="44.944971466964745" lon="9.911570687079656"><ele>71.0</ele><time>2026-04-19T08:59:52Z</time></trkpt><trkpt lat="44.94506541619198" lon="9.911551484752405"><ele>71.0</ele><time>2026-04-19T08:59:53Z</time></trkpt><trkpt lat="44.94515872389706" lon="9.91153462301437"><ele>71.0</ele><time>2026-04-19T08:59:54Z</time></trkpt><trkpt lat="44.94525189530761" lon="9.911516933990105"><ele>70.6</ele><time>2026-04-19T08:59:55Z</time></trkpt><trkpt lat="44.945345487245085" lon="9.911507222079074"><ele>70.19999999999999</ele><time>2026-04-19T08:59:56Z</time></trkpt><trkpt lat="44.94544098359655" lon="9.91151530743769"><ele>69.80000000000001</ele><time>2026-04-19T08:59:57Z</time></trkpt><trkpt lat="44.94553430953025" lon="9.911530871598577"><ele>69.4</ele><time>2026-04-19T08:59:58Z</time></trkpt><trkpt lat="44.94562762999661" lon="9.911561072263263"><ele>69.0</ele><time>2026-04-19T08:59:58.999Z</time></trkpt><trkpt lat="44.94571869239207" lon="9.911589709369439"><ele>69.0</ele><time>2026-04-19T08:59:59.999Z</time></trkpt><trkpt lat="44.94581128885995" lon="9.911622839665228"><ele>69.0</ele><time>2026-04-19T09:00:00.999Z</time></trkpt><trkpt lat="44.94590221607088" lon="9.911656508362771"><ele>69.0</ele><time>2026-04-19T09:00:01.999Z</time></trkpt><trkpt lat="44.94599399277289" lon="9.911687034680956"><ele>69.0</ele><time>2026-04-19T09:00:02.999Z</time></trkpt><trkpt lat="44.94608426779987" lon="9.911715027059602"><ele>69.0</ele><time>2026-04-19T09:00:03.999Z</time></trkpt><trkpt lat="44.94617624845268" lon="9.911718139464607"><ele>69.2</ele><time>2026-04-19T09:00:04.999Z</time></trkpt><trkpt lat="44.94626667371435" lon="9.911677086746817"><ele>69.4</ele><time>2026-04-19T09:00:05.999Z</time></trkpt><trkpt lat="44.946346522557576" lon="9.911602084088411"><ele>69.6</ele><time>2026-04-19T09:00:06.999Z</time></trkpt><trkpt lat="44.94641536231501" lon="9.91151158320163"><ele>69.8</ele><time>2026-04-19T09:00:07.999Z</time></trkpt><trkpt lat="44.94646881686126" lon="9.911401596206174"><ele>70.0</ele><time>2026-04-19T09:00:08.999Z</time></trkpt><trkpt lat="44.946514946113844" lon="9.911282301956144"><ele>70.0</ele><time>2026-04-19T09:00:09.999Z</time></trkpt><trkpt lat="44.9465574932991" lon="9.911162298979377"><ele>70.0</ele><time>2026-04-19T09:00:10.999Z</time></trkpt><trkpt lat="44.94659994759679" lon="9.911042774056087"><ele>70.0</ele><time>2026-04-19T09:00:11.999Z</time></trkpt><trkpt lat="44.94664316170274" lon="9.910923064822734"><ele>70.0</ele><time>2026-04-19T09:00:12.999Z</time></trkpt><trkpt lat="44.94668600875829" lon="9.910806622324655"><ele>70.0</ele><time>2026-04-19T09:00:13.999Z</time></trkpt><trkpt lat="44.9467382910806" lon="9.910699422965147"><ele>69.8</ele><time>2026-04-19T09:00:14.999Z</time></trkpt><trkpt lat="44.94680776604608" lon="9.910609784880801"><ele>69.6</ele><time>2026-04-19T09:00:15.999Z</time></trkpt><trkpt lat="44.946890511737934" lon="9.910545142881885"><ele>69.4</ele><time>2026-04-19T09:00:16.999Z</time></trkpt><trkpt lat="44.94698732815024" lon="9.910515215364482"><ele>69.2</ele><time>2026-04-19T09:00:17.999Z</time></trkpt><trkpt lat="44.9470865662809" lon="9.910509665224033"><ele>69.0</ele><time>2026-04-19T09:00:18.999Z</time></trkpt><trkpt lat="44.94718487722674" lon="9.910518619882165"><ele>69.0</ele><time>2026-04-19T09:00:19.999Z</time></trkpt><trkpt lat="44.94728206456648" lon="9.910535044223607"><ele>69.0</ele><time>2026-04-19T09:00:20.999Z</time></trkpt><trkpt lat="44.947378803477775" lon="9.910562872555598"><ele>69.0</ele><time>2026-04-19T09:00:21.999Z</time></trkpt><trkpt lat="44.947471928824875" lon="9.910603336017195"><ele>69.0</ele><time>2026-04-19T09:00:22.999Z</time></trkpt><trkpt lat="44.947554934466574" lon="9.910674390465864"><ele>69.0</ele><time>2026-04-19T09:00:23.999Z</time></trkpt><trkpt lat="44.94764907246929" lon="9.910706420773751"><ele>69.2</ele><time>2026-04-19T09:00:24.999Z</time></trkpt><trkpt lat="44.94773770295066" lon="9.910755547470739"><ele>69.4</ele><time>2026-04-19T09:00:25.999Z</time></trkpt><trkpt lat="44.94782899286304" lon="9.910793099077555"><ele>69.6</ele><time>2026-04-19T09:00:26.999Z</time></trkpt><trkpt lat="44.94792163882029" lon="9.910816336376234"><ele>69.8</ele><time>2026-04-19T09:00:27.999Z</time></trkpt><trkpt lat="44.94801404201331" lon="9.910836139430911"><ele>70.0</ele><time>2026-04-19T09:00:28.999Z</time></trkpt><trkpt lat="44.94810714342824" lon="9.910847501959578"><ele>70.0</ele><time>2026-04-19T09:00:29.999Z</time></trkpt><trkpt lat="44.94820158155474" lon="9.910857283615204"><ele>70.0</ele><time>2026-04-19T09:00:30.999Z</time></trkpt><trkpt lat="44.94829492645241" lon="9.910866597162956"><ele>70.0</ele><time>2026-04-19T09:00:31.999Z</time></trkpt><trkpt lat="44.94839004421849" lon="9.910875046047666"><ele>70.0</ele><time>2026-04-19T09:00:32.999Z</time></trkpt><trkpt lat="44.94848353540249" lon="9.910880921541727"><ele>70.0</ele><time>2026-04-19T09:00:33.999Z</time></trkpt><trkpt lat="44.948577069099976" lon="9.91088459704119"><ele>70.0</ele><time>2026-04-19T09:00:34.999Z</time></trkpt><trkpt lat="44.948669770978256" lon="9.910888684366379"><ele>70.0</ele><time>2026-04-19T09:00:35.999Z</time></trkpt><trkpt lat="44.94876168580707" lon="9.910894901701308"><ele>70.0</ele><time>2026-04-19T09:00:36.999Z</time></trkpt><trkpt lat="44.94885525037461" lon="9.910909660988853"><ele>70.0</ele><time>2026-04-19T09:00:37.999Z</time></trkpt><trkpt lat="44.94894730832047" lon="9.91093292269554"><ele>70.0</ele><time>2026-04-19T09:00:38.999Z</time></trkpt><trkpt lat="44.94903717839927" lon="9.910969905712447"><ele>69.6</ele><time>2026-04-19T09:00:39.999Z</time></trkpt><trkpt lat="44.94912004613847" lon="9.91102858758591"><ele>69.2</ele><time>2026-04-19T09:00:40.999Z</time></trkpt><trkpt lat="44.94920118806157" lon="9.911096019840459"><ele>68.8</ele><time>2026-04-19T09:00:41.999Z</time></trkpt><trkpt lat="44.949260551254405" lon="9.911201278554273"><ele>68.4</ele><time>2026-04-19T09:00:42.999Z</time></trkpt><trkpt lat="44.949321042935125" lon="9.91129671003324"><ele>68.0</ele><time>2026-04-19T09:00:43.999Z</time></trkpt><trkpt lat="44.94937949154745" lon="9.911395183403002"><ele>68.0</ele><time>2026-04-19T09:00:44.999Z</time></trkpt><trkpt lat="44.949434651073865" lon="9.911497688132568"><ele>68.0</ele><time>2026-04-19T09:00:45.999Z</time></trkpt><trkpt lat="44.9494854920741" lon="9.91160408366567"><ele>68.0</ele><time>2026-04-19T09:00:46.999Z</time></trkpt><trkpt lat="44.9495333749699" lon="9.911717552691949"><ele>68.0</ele><time>2026-04-19T09:00:47.999Z</time></trkpt><trkpt lat="44.949578708839034" lon="9.911832022630158"><ele>68.0</ele><time>2026-04-19T09:00:48.999Z</time></trkpt><trkpt lat="44.94962173381234" lon="9.911946599318469"><ele>68.2</ele><time>2026-04-19T09:00:49.999Z</time></trkpt><trkpt lat="44.94966320869434" lon="9.912062821607867"><ele>68.4</ele><time>2026-04-19T09:00:50.999Z</time></trkpt><trkpt lat="44.94970667803438" lon="9.912180470722026"><ele>68.60000000000001</ele><time>2026-04-19T09:00:51.998Z</time></trkpt><trkpt lat="44.949754428155344" lon="9.91229466622714"><ele>68.8</ele><time>2026-04-19T09:00:52.998Z</time></trkpt><trkpt lat="44.94981839859283" lon="9.912390690606399"><ele>69.0</ele><time>2026-04-19T09:00:53.998Z</time></trkpt><trkpt lat="44.9498734749417" lon="9.912497572238456"><ele>69.2</ele><time>2026-04-19T09:00:54.998Z</time></trkpt><trkpt lat="44.94993154763952" lon="9.91260174131207"><ele>69.4</ele><time>2026-04-19T09:00:55.998Z</time></trkpt><trkpt lat="44.949992046493335" lon="9.91270179607542"><ele>69.6</ele><time>2026-04-19T09:00:56.998Z</time></trkpt><trkpt lat="44.950056854025824" lon="9.912797422222903"><ele>69.8</ele><time>2026-04-19T09:00:57.998Z</time></trkpt><trkpt lat="44.95012799192253" lon="9.912882196313612"><ele>70.0</ele><time>2026-04-19T09:00:58.998Z</time></trkpt><trkpt lat="44.95020220937489" lon="9.91296160246011"><ele>69.6</ele><time>2026-04-19T09:00:59.998Z</time></trkpt><trkpt lat="44.95028049812472" lon="9.913033007557353"><ele>69.2</ele><time>2026-04-19T09:01:00.998Z</time></trkpt><trkpt lat="44.95036360722581" lon="9.91308904342295"><ele>68.8</ele><time>2026-04-19T09:01:01.998Z</time></trkpt><trkpt lat="44.950445940834406" lon="9.913140635530047"><ele>68.4</ele><time>2026-04-19T09:01:02.998Z</time></trkpt><trkpt lat="44.950532495868984" lon="9.913184475161945"><ele>68.0</ele><time>2026-04-19T09:01:03.998Z</time></trkpt><trkpt lat="44.950617372422116" lon="9.913232713319266"><ele>68.0</ele><time>2026-04-19T09:01:04.998Z</time></trkpt><trkpt lat="44.95070358801369" lon="9.913278213659614"><ele>68.0</ele><time>2026-04-19T09:01:05.998Z</time></trkpt><trkpt lat="44.950789143102504" lon="9.913325002452083"><ele>68.0</ele><time>2026-04-19T09:01:06.998Z</time></trkpt><trkpt lat="44.950875346039304" lon="9.913370909447169"><ele>68.0</ele><time>2026-04-19T09:01:07.998Z</time></trkpt><trkpt lat="44.95096085482798" lon="9.913419792136956"><ele>68.0</ele><time>2026-04-19T09:01:08.998Z</time></trkpt><trkpt lat="44.951046500094826" lon="9.913467040064255"><ele>67.8</ele><time>2026-04-19T09:01:09.998Z</time></trkpt><trkpt lat="44.95113136258976" lon="9.913515313314484"><ele>67.6</ele><time>2026-04-19T09:01:10.998Z</time></trkpt><trkpt lat="44.951216974894905" lon="9.913561808826577"><ele>67.4</ele><time>2026-04-19T09:01:11.998Z</time></trkpt><trkpt lat="44.95130183617705" lon="9.913608739357091"><ele>67.2</ele><time>2026-04-19T09:01:12.998Z</time></trkpt><trkpt lat="44.95138576772232" lon="9.913659630174596"><ele>67.0</ele><time>2026-04-19T09:01:13.998Z</time></trkpt><trkpt lat="44.95146722679464" lon="9.913715710476668"><ele>67.0</ele><time>2026-04-19T09:01:14.998Z</time></trkpt><trkpt lat="44.951546539209424" lon="9.913776835048319"><ele>67.0</ele><time>2026-04-19T09:01:15.998Z</time></trkpt><trkpt lat="44.95162723733792" lon="9.913834847285141"><ele>67.0</ele><time>2026-04-19T09:01:16.998Z</time></trkpt><trkpt lat="44.95170758573274" lon="9.913894844806475"><ele>67.0</ele><time>2026-04-19T09:01:17.998Z</time></trkpt><trkpt lat="44.95178713940958" lon="9.913953553694943"><ele>67.0</ele><time>2026-04-19T09:01:18.998Z</time></trkpt><trkpt lat="44.951865844521954" lon="9.914016827561152"><ele>67.0</ele><time>2026-04-19T09:01:19.998Z</time></trkpt><trkpt lat="44.951943552105014" lon="9.91408060827652"><ele>67.0</ele><time>2026-04-19T09:01:20.998Z</time></trkpt><trkpt lat="44.952020950646485" lon="9.914144756726566"><ele>67.0</ele><time>2026-04-19T09:01:21.998Z</time></trkpt><trkpt lat="44.95209599809635" lon="9.914216293358988"><ele>67.0</ele><time>2026-04-19T09:01:22.998Z</time></trkpt><trkpt lat="44.95215365528673" lon="9.914314746543216"><ele>67.0</ele><time>2026-04-19T09:01:23.998Z</time></trkpt><trkpt lat="44.95221496415603" lon="9.914408562522171"><ele>67.0</ele><time>2026-04-19T09:01:24.998Z</time></trkpt><trkpt lat="44.952275097926886" lon="9.91450560869925"><ele>67.0</ele><time>2026-04-19T09:01:25.998Z</time></trkpt><trkpt lat="44.952347313756114" lon="9.914591018152182"><ele>67.0</ele><time>2026-04-19T09:01:26.998Z</time></trkpt><trkpt lat="44.9524055521703" lon="9.91469261099271"><ele>67.0</ele><time>2026-04-19T09:01:27.998Z</time></trkpt><trkpt lat="44.952464987023184" lon="9.91479085839554"><ele>67.0</ele><time>2026-04-19T09:01:28.998Z</time></trkpt><trkpt lat="44.95252531950781" lon="9.914889319962416"><ele>67.0</ele><time>2026-04-19T09:01:29.998Z</time></trkpt><trkpt lat="44.95258672106004" lon="9.914983948383899"><ele>67.0</ele><time>2026-04-19T09:01:30.998Z</time></trkpt><trkpt lat="44.9526499621313" lon="9.91507964648015"><ele>67.0</ele><time>2026-04-19T09:01:31.998Z</time></trkpt><trkpt lat="44.95271277955514" lon="9.915177211808503"><ele>67.0</ele><time>2026-04-19T09:01:32.998Z</time></trkpt><trkpt lat="44.95276085867762" lon="9.915291912825888"><ele>67.0</ele><time>2026-04-19T09:01:33.998Z</time></trkpt><trkpt lat="44.95281716037816" lon="9.915396358064202"><ele>67.0</ele><time>2026-04-19T09:01:34.998Z</time></trkpt><trkpt lat="44.95288300985777" lon="9.91549388183166"><ele>67.0</ele><time>2026-04-19T09:01:36Z</time></trkpt><trkpt lat="44.952938482803276" lon="9.915601526888166"><ele>67.0</ele><time>2026-04-19T09:01:37Z</time></trkpt><trkpt lat="44.95299154663359" lon="9.915710860408195"><ele>67.0</ele><time>2026-04-19T09:01:38Z</time></trkpt><trkpt lat="44.95304560012806" lon="9.915816838162733"><ele>67.0</ele><time>2026-04-19T09:01:39Z</time></trkpt><trkpt lat="44.95309875288726" lon="9.915925363639571"><ele>67.0</ele><time>2026-04-19T09:01:40Z</time></trkpt><trkpt lat="44.95315440917797" lon="9.916031623264928"><ele>67.0</ele><time>2026-04-19T09:01:41Z</time></trkpt><trkpt lat="44.95321569425444" lon="9.916135096195491"><ele>67.0</ele><time>2026-04-19T09:01:42Z</time></trkpt><trkpt lat="44.95327981823992" lon="9.916232688761"><ele>67.0</ele><time>2026-04-19T09:01:43Z</time></trkpt><trkpt lat="44.95334748841303" lon="9.91632880627194"><ele>67.0</ele><time>2026-04-19T09:01:44Z</time></trkpt><trkpt lat="44.953413815688464" lon="9.916420744835897"><ele>66.4</ele><time>2026-04-19T09:01:45Z</time></trkpt><trkpt lat="44.953479443653876" lon="9.916513222092034"><ele>65.80000000000001</ele><time>2026-04-19T09:01:46Z</time></trkpt><trkpt lat="44.95354418540829" lon="9.916608217066269"><ele>65.2</ele><time>2026-04-19T09:01:47Z</time></trkpt><trkpt lat="44.95361030417783" lon="9.916701784814665"><ele>64.60000000000001</ele><time>2026-04-19T09:01:48Z</time></trkpt><trkpt lat="44.95366157165049" lon="9.916811921500006"><ele>64.0</ele><time>2026-04-19T09:01:49Z</time></trkpt><trkpt lat="44.95371965884386" lon="9.916910574873874"><ele>64.0</ele><time>2026-04-19T09:01:50Z</time></trkpt><trkpt lat="44.95377663528672" lon="9.917008905515985"><ele>64.0</ele><time>2026-04-19T09:01:51Z</time></trkpt><trkpt lat="44.953833514396145" lon="9.917110412874196"><ele>64.0</ele><time>2026-04-19T09:01:52Z</time></trkpt><trkpt lat="44.95388934032723" lon="9.917210040742614"><ele>64.0</ele><time>2026-04-19T09:01:53Z</time></trkpt><trkpt lat="44.95394890318849" lon="9.917309172797037"><ele>64.0</ele><time>2026-04-19T09:01:54Z</time></trkpt><trkpt lat="44.95401019086877" lon="9.917408102388071"><ele>64.0</ele><time>2026-04-19T09:01:55Z</time></trkpt><trkpt lat="44.95407212627726" lon="9.917505150252165"><ele>64.0</ele><time>2026-04-19T09:01:56Z</time></trkpt><trkpt lat="44.95413605303336" lon="9.91760459326685"><ele>64.0</ele><time>2026-04-19T09:01:57Z</time></trkpt><trkpt lat="44.95419935990197" lon="9.917703071996916"><ele>64.0</ele><time>2026-04-19T09:01:58Z</time></trkpt><trkpt lat="44.95426216994626" lon="9.9178007778652"><ele>64.0</ele><time>2026-04-19T09:01:59Z</time></trkpt><trkpt lat="44.954324985874734" lon="9.917898492871414"><ele>64.4</ele><time>2026-04-19T09:02:00Z</time></trkpt><trkpt lat="44.95438794299993" lon="9.917996427530412"><ele>64.80000000000001</ele><time>2026-04-19T09:02:01Z</time></trkpt><trkpt lat="44.95445111022813" lon="9.918094689022928"><ele>65.19999999999999</ele><time>2026-04-19T09:02:02Z</time></trkpt><trkpt lat="44.95451493974219" lon="9.918193980733797"><ele>65.6</ele><time>2026-04-19T09:02:02.999Z</time></trkpt><trkpt lat="44.954579118017854" lon="9.918293517752769"><ele>66.0</ele><time>2026-04-19T09:02:03.999Z</time></trkpt><trkpt lat="44.95464289645045" lon="9.91839214208736"><ele>65.8</ele><time>2026-04-19T09:02:04.999Z</time></trkpt><trkpt lat="44.95470623283147" lon="9.918490082844002"><ele>65.6</ele><time>2026-04-19T09:02:05.999Z</time></trkpt><trkpt lat="44.95476979666689" lon="9.918588375315485"><ele>65.4</ele><time>2026-04-19T09:02:06.999Z</time></trkpt><trkpt lat="44.95483266811835" lon="9.918685597133402"><ele>65.2</ele><time>2026-04-19T09:02:07.999Z</time></trkpt><trkpt lat="44.9548961129921" lon="9.918783705665309"><ele>65.0</ele><time>2026-04-19T09:02:08.999Z</time></trkpt><trkpt lat="44.95495998566027" lon="9.918882473347017"><ele>65.0</ele><time>2026-04-19T09:02:09.999Z</time></trkpt><trkpt lat="44.95502443444998" lon="9.918982282990514"><ele>65.0</ele><time>2026-04-19T09:02:10.999Z</time></trkpt><trkpt lat="44.955088537988345" lon="9.91907994725636"><ele>65.0</ele><time>2026-04-19T09:02:11.999Z</time></trkpt><trkpt lat="44.95516612068337" lon="9.919163969839554"><ele>65.0</ele><time>2026-04-19T09:02:12.999Z</time></trkpt><trkpt lat="44.955231719643685" lon="9.91926375533389"><ele>65.0</ele><time>2026-04-19T09:02:13.999Z</time></trkpt><trkpt lat="44.955296270898685" lon="9.919359760824303"><ele>64.83333333333334</ele><time>2026-04-19T09:02:14.999Z</time></trkpt><trkpt lat="44.95536617551407" lon="9.91944587353122"><ele>64.66666666666667</ele><time>2026-04-19T09:02:15.999Z</time></trkpt><trkpt lat="44.95543311714803" lon="9.919524060455135"><ele>64.5</ele><time>2026-04-19T09:02:16.999Z</time></trkpt><trkpt lat="44.95549754336385" lon="9.919604193549649"><ele>64.33333333333333</ele><time>2026-04-19T09:02:17.999Z</time></trkpt><trkpt lat="44.95556212625558" lon="9.919679059975063"><ele>64.16666666666666</ele><time>2026-04-19T09:02:18.999Z</time></trkpt><trkpt lat="44.955622890179676" lon="9.919752333786624"><ele>64.0</ele><time>2026-04-19T09:02:19.999Z</time></trkpt><trkpt lat="44.955684796865526" lon="9.919821811838272"><ele>63.99999999999999</ele><time>2026-04-19T09:02:20.999Z</time></trkpt><trkpt lat="44.9557447946318" lon="9.919892153244172"><ele>64.0</ele><time>2026-04-19T09:02:21.999Z</time></trkpt><trkpt lat="44.95580563155372" lon="9.919957731139498"><ele>64.0</ele><time>2026-04-19T09:02:22.999Z</time></trkpt><trkpt lat="44.95586556722304" lon="9.920019393973451"><ele>64.0</ele><time>2026-04-19T09:02:23.999Z</time></trkpt><trkpt lat="44.9559267076144" lon="9.920077449822942"><ele>63.99999999999999</ele><time>2026-04-19T09:02:24.999Z</time></trkpt><trkpt lat="44.95598814271979" lon="9.920136556554699"><ele>64.0</ele><time>2026-04-19T09:02:25.999Z</time></trkpt><trkpt lat="44.956052703645135" lon="9.920191149731057"><ele>63.666666666666664</ele><time>2026-04-19T09:02:26.999Z</time></trkpt><trkpt lat="44.95611814243674" lon="9.9202472943712"><ele>63.33333333333333</ele><time>2026-04-19T09:02:27.999Z</time></trkpt><trkpt lat="44.95618398204632" lon="9.920301184346975"><ele>63.0</ele><time>2026-04-19T09:02:28.999Z</time></trkpt><trkpt lat="44.95625274604397" lon="9.920353645538817"><ele>62.66666666666667</ele><time>2026-04-19T09:02:29.999Z</time></trkpt><trkpt lat="44.95632141360304" lon="9.920409567348035"><ele>62.333333333333336</ele><time>2026-04-19T09:02:30.999Z</time></trkpt><trkpt lat="44.95638962892166" lon="9.920468410235394"><ele>62.0</ele><time>2026-04-19T09:02:31.999Z</time></trkpt><trkpt lat="44.9564585242296" lon="9.920530647604702"><ele>62.00000000000001</ele><time>2026-04-19T09:02:32.999Z</time></trkpt><trkpt lat="44.956528430884475" lon="9.920595750513742"><ele>62.0</ele><time>2026-04-19T09:02:33.999Z</time></trkpt><trkpt lat="44.9565987415573" lon="9.920665072440094"><ele>62.0</ele><time>2026-04-19T09:02:34.999Z</time></trkpt><trkpt lat="44.9566698023521" lon="9.920738088136218"><ele>62.0</ele><time>2026-04-19T09:02:35.999Z</time></trkpt><trkpt lat="44.95673731776742" lon="9.920822794423668"><ele>62.00000000000001</ele><time>2026-04-19T09:02:36.999Z</time></trkpt><trkpt lat="44.95680215056008" lon="9.920916576023453"><ele>62.0</ele><time>2026-04-19T09:02:37.999Z</time></trkpt><trkpt lat="44.95686716427526" lon="9.921018998109668"><ele>62.6</ele><time>2026-04-19T09:02:38.999Z</time></trkpt><trkpt lat="44.95693489740045" lon="9.921123281047779"><ele>63.2</ele><time>2026-04-19T09:02:39.999Z</time></trkpt><trkpt lat="44.957004082781545" lon="9.921232167694274"><ele>63.8</ele><time>2026-04-19T09:02:40.999Z</time></trkpt><trkpt lat="44.95707421064907" lon="9.921341662285396"><ele>64.4</ele><time>2026-04-19T09:02:41.999Z</time></trkpt><trkpt lat="44.9571519218666" lon="9.92145143807376"><ele>65.0</ele><time>2026-04-19T09:02:42.999Z</time></trkpt><trkpt lat="44.95723577824199" lon="9.921551301080461"><ele>65.0</ele><time>2026-04-19T09:02:43.999Z</time></trkpt><trkpt lat="44.957325315683974" lon="9.921651363334718"><ele>65.0</ele><time>2026-04-19T09:02:44.999Z</time></trkpt><trkpt lat="44.95741748487407" lon="9.921736305087538"><ele>65.0</ele><time>2026-04-19T09:02:45.999Z</time></trkpt><trkpt lat="44.95751030551919" lon="9.921820650569257"><ele>65.0</ele><time>2026-04-19T09:02:46.999Z</time></trkpt><trkpt lat="44.957603982015925" lon="9.921904560978666"><ele>65.0</ele><time>2026-04-19T09:02:47.999Z</time></trkpt><trkpt lat="44.9577043440832" lon="9.921980106132935"><ele>64.4</ele><time>2026-04-19T09:02:48.999Z</time></trkpt><trkpt lat="44.95779669029577" lon="9.922051546874375"><ele>63.8</ele><time>2026-04-19T09:02:49.999Z</time></trkpt><trkpt lat="44.95788550498176" lon="9.922122026388786"><ele>63.2</ele><time>2026-04-19T09:02:50.999Z</time></trkpt><trkpt lat="44.95796872525459" lon="9.922192830065061"><ele>62.6</ele><time>2026-04-19T09:02:51.999Z</time></trkpt><trkpt lat="44.95805057564405" lon="9.9222630364032"><ele>62.0</ele><time>2026-04-19T09:02:52.999Z</time></trkpt><trkpt lat="44.95813066145217" lon="9.922337861284284"><ele>62.0</ele><time>2026-04-19T09:02:53.999Z</time></trkpt><trkpt lat="44.95820786056147" lon="9.92241440970307"><ele>62.0</ele><time>2026-04-19T09:02:54.999Z</time></trkpt><trkpt lat="44.95828879812748" lon="9.922490603280682"><ele>62.0</ele><time>2026-04-19T09:02:55.998Z</time></trkpt><trkpt lat="44.9583701525567" lon="9.922573752757364"><ele>62.0</ele><time>2026-04-19T09:02:56.998Z</time></trkpt><trkpt lat="44.95845126796621" lon="9.922655244648773"><ele>62.0</ele><time>2026-04-19T09:02:57.998Z</time></trkpt><trkpt lat="44.9585339875148" lon="9.922742018711498"><ele>62.2</ele><time>2026-04-19T09:02:58.998Z</time></trkpt><trkpt lat="44.9586160396334" lon="9.922825513680387"><ele>62.400000000000006</ele><time>2026-04-19T09:02:59.998Z</time></trkpt><trkpt lat="44.958696717456576" lon="9.922901497639732"><ele>62.599999999999994</ele><time>2026-04-19T09:03:00.998Z</time></trkpt><trkpt lat="44.9587690652013" lon="9.922997501340818"><ele>62.8</ele><time>2026-04-19T09:03:01.998Z</time></trkpt><trkpt lat="44.95884969962823" lon="9.923077304117088"><ele>63.0</ele><time>2026-04-19T09:03:02.998Z</time></trkpt><trkpt lat="44.95893905111906" lon="9.923130652995141"><ele>63.0</ele><time>2026-04-19T09:03:03.998Z</time></trkpt><trkpt lat="44.95901397154303" lon="9.923220890175182"><ele>63.0</ele><time>2026-04-19T09:03:04.998Z</time></trkpt><trkpt lat="44.959106423517675" lon="9.92327004148416"><ele>63.0</ele><time>2026-04-19T09:03:05.998Z</time></trkpt><trkpt lat="44.959185140203054" lon="9.923350954320101"><ele>63.0</ele><time>2026-04-19T09:03:06.998Z</time></trkpt><trkpt lat="44.95926714546316" lon="9.923416598007652"><ele>63.0</ele><time>2026-04-19T09:03:07.998Z</time></trkpt><trkpt lat="44.95934840696146" lon="9.92348583164475"><ele>62.4</ele><time>2026-04-19T09:03:08.998Z</time></trkpt><trkpt lat="44.959433206391466" lon="9.92354631724293"><ele>61.8</ele><time>2026-04-19T09:03:09.998Z</time></trkpt><trkpt lat="44.95951788912553" lon="9.923604947007746"><ele>61.2</ele><time>2026-04-19T09:03:10.998Z</time></trkpt><trkpt lat="44.95960232603456" lon="9.923664586626263"><ele>60.6</ele><time>2026-04-19T09:03:11.998Z</time></trkpt><trkpt lat="44.95968498925394" lon="9.923726753673071"><ele>60.0</ele><time>2026-04-19T09:03:12.998Z</time></trkpt><trkpt lat="44.95977106093568" lon="9.923781574049446"><ele>60.0</ele><time>2026-04-19T09:03:13.998Z</time></trkpt><trkpt lat="44.959857549243786" lon="9.923834703489804"><ele>60.0</ele><time>2026-04-19T09:03:14.998Z</time></trkpt><trkpt lat="44.95994598839626" lon="9.923891982007174"><ele>60.0</ele><time>2026-04-19T09:03:15.998Z</time></trkpt><trkpt lat="44.96003230906837" lon="9.92394878383172"><ele>60.0</ele><time>2026-04-19T09:03:16.998Z</time></trkpt><trkpt lat="44.960118577812025" lon="9.923999911055507"><ele>60.0</ele><time>2026-04-19T09:03:17.998Z</time></trkpt><trkpt lat="44.96020628208172" lon="9.92405208864749"><ele>60.2</ele><time>2026-04-19T09:03:18.998Z</time></trkpt><trkpt lat="44.96029062404411" lon="9.92410642165503"><ele>60.4</ele><time>2026-04-19T09:03:19.998Z</time></trkpt><trkpt lat="44.960381715260944" lon="9.924162525176971"><ele>60.599999999999994</ele><time>2026-04-19T09:03:20.998Z</time></trkpt><trkpt lat="44.96046375827041" lon="9.924215882583331"><ele>60.8</ele><time>2026-04-19T09:03:21.998Z</time></trkpt><trkpt lat="44.960552398545225" lon="9.924270481031117"><ele>61.0</ele><time>2026-04-19T09:03:22.998Z</time></trkpt><trkpt lat="44.96064133137449" lon="9.924321155885014"><ele>61.0</ele><time>2026-04-19T09:03:23.998Z</time></trkpt><trkpt lat="44.96072715300222" lon="9.924374924676169"><ele>60.99999999999999</ele><time>2026-04-19T09:03:24.998Z</time></trkpt><trkpt lat="44.96081171334899" lon="9.924428418510594"><ele>60.99999999999999</ele><time>2026-04-19T09:03:25.998Z</time></trkpt><trkpt lat="44.96089695179082" lon="9.924480312742388"><ele>61.0</ele><time>2026-04-19T09:03:26.998Z</time></trkpt><trkpt lat="44.960981371327584" lon="9.92453559822091"><ele>61.0</ele><time>2026-04-19T09:03:27.998Z</time></trkpt><trkpt lat="44.961068337201915" lon="9.924584815084561"><ele>61.199999999999996</ele><time>2026-04-19T09:03:28.998Z</time></trkpt><trkpt lat="44.96115121935148" lon="9.924640751480423"><ele>61.39999999999999</ele><time>2026-04-19T09:03:29.998Z</time></trkpt><trkpt lat="44.96123625729002" lon="9.924694316454314"><ele>61.6</ele><time>2026-04-19T09:03:30.998Z</time></trkpt><trkpt lat="44.961316414798645" lon="9.924750424987774"><ele>61.8</ele><time>2026-04-19T09:03:31.998Z</time></trkpt><trkpt lat="44.96139946001854" lon="9.924807066622144"><ele>62.0</ele><time>2026-04-19T09:03:32.998Z</time></trkpt><trkpt lat="44.96148214053113" lon="9.924855310925986"><ele>62.0</ele><time>2026-04-19T09:03:33.998Z</time></trkpt><trkpt lat="44.96156778744376" lon="9.924909736618856"><ele>62.0</ele><time>2026-04-19T09:03:34.998Z</time></trkpt><trkpt lat="44.9616521030417" lon="9.924961682412674"><ele>62.0</ele><time>2026-04-19T09:03:35.998Z</time></trkpt><trkpt lat="44.961737104628455" lon="9.92501525724411"><ele>62.0</ele><time>2026-04-19T09:03:36.998Z</time></trkpt><trkpt lat="44.96182034642874" lon="9.92506211999622"><ele>62.0</ele><time>2026-04-19T09:03:37.998Z</time></trkpt><trkpt lat="44.96190384602834" lon="9.925113713452497"><ele>61.6</ele><time>2026-04-19T09:03:38.998Z</time></trkpt><trkpt lat="44.9619873993245" lon="9.925166371893624"><ele>61.2</ele><time>2026-04-19T09:03:39.998Z</time></trkpt><trkpt lat="44.96206813265014" lon="9.925223327880492"><ele>60.8</ele><time>2026-04-19T09:03:40.998Z</time></trkpt><trkpt lat="44.96215216268191" lon="9.925275423198388"><ele>60.4</ele><time>2026-04-19T09:03:42Z</time></trkpt><trkpt lat="44.962227054127865" lon="9.925340380610576"><ele>60.0</ele><time>2026-04-19T09:03:43Z</time></trkpt><trkpt lat="44.96230137042317" lon="9.925417935365779"><ele>60.0</ele><time>2026-04-19T09:03:44Z</time></trkpt><trkpt lat="44.96236626829341" lon="9.925502935054748"><ele>60.0</ele><time>2026-04-19T09:03:45Z</time></trkpt><trkpt lat="44.96241977831923" lon="9.92559882816905"><ele>60.0</ele><time>2026-04-19T09:03:46Z</time></trkpt><trkpt lat="44.962447429305406" lon="9.925714421015119"><ele>60.0</ele><time>2026-04-19T09:03:47Z</time></trkpt><trkpt lat="44.96248936165601" lon="9.925822243510575"><ele>60.0</ele><time>2026-04-19T09:03:48Z</time></trkpt><trkpt lat="44.96252587466138" lon="9.925932031508003"><ele>60.0</ele><time>2026-04-19T09:03:49Z</time></trkpt><trkpt lat="44.96255076789032" lon="9.926045455300443"><ele>59.6</ele><time>2026-04-19T09:03:50Z</time></trkpt><trkpt lat="44.96255775315152" lon="9.926159631551192"><ele>59.2</ele><time>2026-04-19T09:03:51Z</time></trkpt><trkpt lat="44.962557034098005" lon="9.926285526828359"><ele>58.8</ele><time>2026-04-19T09:03:52Z</time></trkpt><trkpt lat="44.962566958350855" lon="9.926414856130977"><ele>58.4</ele><time>2026-04-19T09:03:53Z</time></trkpt><trkpt lat="44.96261039495574" lon="9.92654650194271"><ele>58.0</ele><time>2026-04-19T09:03:54Z</time></trkpt><trkpt lat="44.962683698085364" lon="9.926648112854318"><ele>58.2</ele><time>2026-04-19T09:03:55Z</time></trkpt><trkpt lat="44.96275211658424" lon="9.926737822880973"><ele>58.4</ele><time>2026-04-19T09:03:56Z</time></trkpt><trkpt lat="44.96282098574656" lon="9.926825036320821"><ele>58.60000000000001</ele><time>2026-04-19T09:03:57Z</time></trkpt><trkpt lat="44.96288959621094" lon="9.926914391250957"><ele>58.800000000000004</ele><time>2026-04-19T09:03:58Z</time></trkpt><trkpt lat="44.96295776391197" lon="9.927003169534762"><ele>59.0</ele><time>2026-04-19T09:03:59Z</time></trkpt><trkpt lat="44.96302509191377" lon="9.927090854094846"><ele>59.00000000000001</ele><time>2026-04-19T09:04:00Z</time></trkpt><trkpt lat="44.963089463793885" lon="9.92717468848017"><ele>59.0</ele><time>2026-04-19T09:04:01Z</time></trkpt><trkpt lat="44.96315279936082" lon="9.927256701353588"><ele>59.0</ele><time>2026-04-19T09:04:02Z</time></trkpt><trkpt lat="44.96321476040762" lon="9.927336685349234"><ele>59.0</ele><time>2026-04-19T09:04:03Z</time></trkpt><trkpt lat="44.963293787793916" lon="9.927402676575724"><ele>59.00000000000001</ele><time>2026-04-19T09:04:04Z</time></trkpt><trkpt lat="44.963365328579236" lon="9.927484354726664"><ele>59.0</ele><time>2026-04-19T09:04:05Z</time></trkpt><trkpt lat="44.963438827624564" lon="9.927568449040242"><ele>59.2</ele><time>2026-04-19T09:04:06Z</time></trkpt><trkpt lat="44.963517671526944" lon="9.92763909119087"><ele>59.400000000000006</ele><time>2026-04-19T09:04:06.999Z</time></trkpt><trkpt lat="44.9635984212729" lon="9.927699638157467"><ele>59.6</ele><time>2026-04-19T09:04:07.999Z</time></trkpt><trkpt lat="44.96368075276719" lon="9.92775664744183"><ele>59.8</ele><time>2026-04-19T09:04:08.999Z</time></trkpt><trkpt lat="44.963760286463" lon="9.92781470867214"><ele>60.0</ele><time>2026-04-19T09:04:09.999Z</time></trkpt><trkpt lat="44.96383548395975" lon="9.927894023737013"><ele>60.0</ele><time>2026-04-19T09:04:10.999Z</time></trkpt><trkpt lat="44.963915312845785" lon="9.927962187214584"><ele>60.0</ele><time>2026-04-19T09:04:11.999Z</time></trkpt><trkpt lat="44.96398890502769" lon="9.92804010909065"><ele>60.0</ele><time>2026-04-19T09:04:12.999Z</time></trkpt><trkpt lat="44.964049196588014" lon="9.928133366879656"><ele>60.0</ele><time>2026-04-19T09:04:13.999Z</time></trkpt><trkpt lat="44.9640993681398" lon="9.928238877708242"><ele>60.0</ele><time>2026-04-19T09:04:14.999Z</time></trkpt><trkpt lat="44.964138834862005" lon="9.928352593495172"><ele>59.8</ele><time>2026-04-19T09:04:15.999Z</time></trkpt><trkpt lat="44.96417528979408" lon="9.928469505719764"><ele>59.6</ele><time>2026-04-19T09:04:16.999Z</time></trkpt><trkpt lat="44.964211465284606" lon="9.92858875234477"><ele>59.400000000000006</ele><time>2026-04-19T09:04:17.999Z</time></trkpt><trkpt lat="44.96424651528492" lon="9.928705110814771"><ele>59.2</ele><time>2026-04-19T09:04:18.999Z</time></trkpt><trkpt lat="44.964291580393464" lon="9.928817225774951"><ele>59.0</ele><time>2026-04-19T09:04:19.999Z</time></trkpt><trkpt lat="44.96435498464875" lon="9.92892408938103"><ele>59.0</ele><time>2026-04-19T09:04:20.999Z</time></trkpt><trkpt lat="44.96443149833115" lon="9.929009187593465"><ele>59.00000000000001</ele><time>2026-04-19T09:04:21.999Z</time></trkpt><trkpt lat="44.96451249092616" lon="9.929075808771879"><ele>59.00000000000001</ele><time>2026-04-19T09:04:22.999Z</time></trkpt><trkpt lat="44.96459675570136" lon="9.929136578590496"><ele>59.0</ele><time>2026-04-19T09:04:23.999Z</time></trkpt><trkpt lat="44.96468004488982" lon="9.929193194616486"><ele>59.0</ele><time>2026-04-19T09:04:24.999Z</time></trkpt><trkpt lat="44.96476284109128" lon="9.92924914304895"><ele>59.0</ele><time>2026-04-19T09:04:25.999Z</time></trkpt><trkpt lat="44.96484542304776" lon="9.929305785067"><ele>59.00000000000001</ele><time>2026-04-19T09:04:26.999Z</time></trkpt><trkpt lat="44.96493151908112" lon="9.92936579432923"><ele>59.00000000000001</ele><time>2026-04-19T09:04:27.999Z</time></trkpt><trkpt lat="44.9650156435316" lon="9.929424429434158"><ele>59.0</ele><time>2026-04-19T09:04:28.999Z</time></trkpt><trkpt lat="44.965100067340785" lon="9.929483273235268"><ele>59.0</ele><time>2026-04-19T09:04:29.999Z</time></trkpt><trkpt lat="44.965185075193695" lon="9.929542524084335"><ele>59.2</ele><time>2026-04-19T09:04:30.999Z</time></trkpt><trkpt lat="44.965277191833756" lon="9.929582867608374"><ele>59.400000000000006</ele><time>2026-04-19T09:04:31.999Z</time></trkpt><trkpt lat="44.965362072642485" lon="9.929640499550509"><ele>59.6</ele><time>2026-04-19T09:04:32.999Z</time></trkpt><trkpt lat="44.96544680605204" lon="9.92970090382957"><ele>59.8</ele><time>2026-04-19T09:04:33.999Z</time></trkpt><trkpt lat="44.96553157305238" lon="9.929763137369454"><ele>60.0</ele><time>2026-04-19T09:04:34.999Z</time></trkpt><trkpt lat="44.96561527360341" lon="9.929823032300371"><ele>60.0</ele><time>2026-04-19T09:04:35.999Z</time></trkpt><trkpt lat="44.965699472893135" lon="9.92988007412239"><ele>60.0</ele><time>2026-04-19T09:04:36.999Z</time></trkpt><trkpt lat="44.96578284484163" lon="9.92994124759025"><ele>60.0</ele><time>2026-04-19T09:04:37.999Z</time></trkpt><trkpt lat="44.96586681117385" lon="9.92999550997966"><ele>60.0</ele><time>2026-04-19T09:04:38.999Z</time></trkpt><trkpt lat="44.96594305813585" lon="9.930072533238057"><ele>60.0</ele><time>2026-04-19T09:04:39.999Z</time></trkpt><trkpt lat="44.966026238694795" lon="9.930131816870697"><ele>60.2</ele><time>2026-04-19T09:04:40.999Z</time></trkpt><trkpt lat="44.96611226353569" lon="9.930193127671293"><ele>60.4</ele><time>2026-04-19T09:04:41.999Z</time></trkpt><trkpt lat="44.96619919325776" lon="9.930255083347776"><ele>60.599999999999994</ele><time>2026-04-19T09:04:42.999Z</time></trkpt><trkpt lat="44.96629233541271" lon="9.930296233750205"><ele>60.8</ele><time>2026-04-19T09:04:43.999Z</time></trkpt><trkpt lat="44.96637234132787" lon="9.93037848956217"><ele>61.0</ele><time>2026-04-19T09:04:44.999Z</time></trkpt><trkpt lat="44.96646323081162" lon="9.930422783263882"><ele>61.0</ele><time>2026-04-19T09:04:45.999Z</time></trkpt><trkpt lat="44.96654852097189" lon="9.93048486023553"><ele>60.99999999999999</ele><time>2026-04-19T09:04:46.999Z</time></trkpt><trkpt lat="44.96663293788247" lon="9.930543332182404"><ele>60.99999999999999</ele><time>2026-04-19T09:04:47.999Z</time></trkpt><trkpt lat="44.96671887053336" lon="9.930604263834645"><ele>61.0</ele><time>2026-04-19T09:04:48.999Z</time></trkpt><trkpt lat="44.96680363414858" lon="9.93066303584629"><ele>61.0</ele><time>2026-04-19T09:04:49.999Z</time></trkpt><trkpt lat="44.96688938647216" lon="9.930721799348564"><ele>60.8</ele><time>2026-04-19T09:04:50.999Z</time></trkpt><trkpt lat="44.966975110897486" lon="9.930775530234945"><ele>60.599999999999994</ele><time>2026-04-19T09:04:51.999Z</time></trkpt><trkpt lat="44.967063570582056" lon="9.930829809557096"><ele>60.4</ele><time>2026-04-19T09:04:52.999Z</time></trkpt><trkpt lat="44.96714357905275" lon="9.930902310903358"><ele>60.2</ele><time>2026-04-19T09:04:53.999Z</time></trkpt><trkpt lat="44.967239030757824" lon="9.93092956955331"><ele>60.0</ele><time>2026-04-19T09:04:54.999Z</time></trkpt><trkpt lat="44.967323910496745" lon="9.930996064486454"><ele>60.0</ele><time>2026-04-19T09:04:55.999Z</time></trkpt><trkpt lat="44.967419528041134" lon="9.931021416470147"><ele>60.0</ele><time>2026-04-19T09:04:56.999Z</time></trkpt><trkpt lat="44.96750950575042" lon="9.931067499969844"><ele>60.0</ele><time>2026-04-19T09:04:57.999Z</time></trkpt><trkpt lat="44.96759926571778" lon="9.931109540813226"><ele>60.0</ele><time>2026-04-19T09:04:58.999Z</time></trkpt><trkpt lat="44.96768850979569" lon="9.931153671060274"><ele>60.0</ele><time>2026-04-19T09:04:59.998Z</time></trkpt><trkpt lat="44.96777905632701" lon="9.931199959966671"><ele>60.2</ele><time>2026-04-19T09:05:00.998Z</time></trkpt><trkpt lat="44.9678671381208" lon="9.931243375245584"><ele>60.4</ele><time>2026-04-19T09:05:01.998Z</time></trkpt><trkpt lat="44.96795456722243" lon="9.931285922813014"><ele>60.599999999999994</ele><time>2026-04-19T09:05:02.998Z</time></trkpt><trkpt lat="44.96804163450831" lon="9.931332146732455"><ele>60.8</ele><time>2026-04-19T09:05:03.998Z</time></trkpt><trkpt lat="44.96812912873825" lon="9.931378890569937"><ele>61.0</ele><time>2026-04-19T09:05:04.998Z</time></trkpt><trkpt lat="44.96821962711693" lon="9.931423734317057"><ele>61.0</ele><time>2026-04-19T09:05:05.998Z</time></trkpt><trkpt lat="44.96830790504537" lon="9.93146704990699"><ele>60.99999999999999</ele><time>2026-04-19T09:05:06.998Z</time></trkpt><trkpt lat="44.96839749264239" lon="9.931506520155867"><ele>60.99999999999999</ele><time>2026-04-19T09:05:07.998Z</time></trkpt><trkpt lat="44.96848702137864" lon="9.93154625927393"><ele>61.0</ele><time>2026-04-19T09:05:08.998Z</time></trkpt><trkpt lat="44.96857376256028" lon="9.931604763748256"><ele>61.0</ele><time>2026-04-19T09:05:09.998Z</time></trkpt><trkpt lat="44.96866671733813" lon="9.931642906776098"><ele>60.199999999999996</ele><time>2026-04-19T09:05:10.998Z</time></trkpt><trkpt lat="44.968761036889056" lon="9.931679317327765"><ele>59.39999999999999</ele><time>2026-04-19T09:05:11.998Z</time></trkpt><trkpt lat="44.968853103271954" lon="9.931710290600583"><ele>58.6</ele><time>2026-04-19T09:05:12.998Z</time></trkpt><trkpt lat="44.96894794114993" lon="9.931739872689446"><ele>57.8</ele><time>2026-04-19T09:05:13.998Z</time></trkpt><trkpt lat="44.9690433060611" lon="9.931767672806698"><ele>57.0</ele><time>2026-04-19T09:05:14.998Z</time></trkpt><trkpt lat="44.969137484270036" lon="9.93179512697552"><ele>56.8</ele><time>2026-04-19T09:05:15.998Z</time></trkpt><trkpt lat="44.96923242934759" lon="9.931822447355128"><ele>56.6</ele><time>2026-04-19T09:05:16.998Z</time></trkpt><trkpt lat="44.96933136194352" lon="9.93182711937642"><ele>56.39999999999999</ele><time>2026-04-19T09:05:17.998Z</time></trkpt><trkpt lat="44.96942422642934" lon="9.931856073511732"><ele>56.199999999999996</ele><time>2026-04-19T09:05:18.998Z</time></trkpt><trkpt lat="44.96951638605221" lon="9.93188691532365"><ele>56.0</ele><time>2026-04-19T09:05:19.998Z</time></trkpt><trkpt lat="44.96961298832006" lon="9.93191834305223"><ele>56.0</ele><time>2026-04-19T09:05:20.998Z</time></trkpt><trkpt lat="44.96970780496867" lon="9.931948470542965"><ele>55.99999999999999</ele><time>2026-04-19T09:05:21.998Z</time></trkpt><trkpt lat="44.96980119192404" lon="9.931976823566918"><ele>55.99999999999999</ele><time>2026-04-19T09:05:22.998Z</time></trkpt><trkpt lat="44.96989608435485" lon="9.932003172439908"><ele>56.0</ele><time>2026-04-19T09:05:23.998Z</time></trkpt><trkpt lat="44.96998944277896" lon="9.932028078839613"><ele>56.0</ele><time>2026-04-19T09:05:24.998Z</time></trkpt><trkpt lat="44.97008297570854" lon="9.932055885363365"><ele>55.599999999999994</ele><time>2026-04-19T09:05:25.998Z</time></trkpt><trkpt lat="44.970171034489816" lon="9.932105472274406"><ele>55.199999999999996</ele><time>2026-04-19T09:05:26.998Z</time></trkpt><trkpt lat="44.970266153401035" lon="9.932112454783883"><ele>54.800000000000004</ele><time>2026-04-19T09:05:27.998Z</time></trkpt><trkpt lat="44.970360258723105" lon="9.932137746977585"><ele>54.400000000000006</ele><time>2026-04-19T09:05:28.998Z</time></trkpt><trkpt lat="44.97044904459479" lon="9.932187463659826"><ele>54.0</ele><time>2026-04-19T09:05:29.998Z</time></trkpt><trkpt lat="44.970545594058414" lon="9.93219337130013"><ele>54.0</ele><time>2026-04-19T09:05:30.998Z</time></trkpt><trkpt lat="44.97063856045303" lon="9.932223852191512"><ele>54.00000000000001</ele><time>2026-04-19T09:05:31.998Z</time></trkpt><trkpt lat="44.97073280357316" lon="9.932252768765814"><ele>54.00000000000001</ele><time>2026-04-19T09:05:32.998Z</time></trkpt><trkpt lat="44.970828503774655" lon="9.932285353384547"><ele>54.0</ele><time>2026-04-19T09:05:33.998Z</time></trkpt><trkpt lat="44.97092327022116" lon="9.932312053896533"><ele>54.0</ele><time>2026-04-19T09:05:34.998Z</time></trkpt><trkpt lat="44.97101737163755" lon="9.932336026460726"><ele>54.0</ele><time>2026-04-19T09:05:35.998Z</time></trkpt><trkpt lat="44.971111588529325" lon="9.932364063214251"><ele>54.00000000000001</ele><time>2026-04-19T09:05:36.998Z</time></trkpt><trkpt lat="44.97120637576025" lon="9.932397311106746"><ele>54.00000000000001</ele><time>2026-04-19T09:05:37.998Z</time></trkpt><trkpt lat="44.97129930143569" lon="9.9324301411566"><ele>54.0</ele><time>2026-04-19T09:05:38.998Z</time></trkpt><trkpt lat="44.97139372015781" lon="9.932455019413794"><ele>54.0</ele><time>2026-04-19T09:05:39.998Z</time></trkpt><trkpt lat="44.97148713761609" lon="9.932490331857458"><ele>54.0</ele><time>2026-04-19T09:05:40.998Z</time></trkpt><trkpt lat="44.97157807483567" lon="9.93252317134228"><ele>54.00000000000001</ele><time>2026-04-19T09:05:41.998Z</time></trkpt><trkpt lat="44.97166877499303" lon="9.932551161508142"><ele>54.00000000000001</ele><time>2026-04-19T09:05:42.998Z</time></trkpt><trkpt lat="44.97176035125869" lon="9.932577847979596"><ele>54.0</ele><time>2026-04-19T09:05:43.998Z</time></trkpt><trkpt lat="44.97185279266527" lon="9.93260159418378"><ele>54.0</ele><time>2026-04-19T09:05:44.998Z</time></trkpt><trkpt lat="44.97194226817574" lon="9.932627353436985"><ele>54.400000000000006</ele><time>2026-04-19T09:05:45.998Z</time></trkpt><trkpt lat="44.9720319610256" lon="9.932655389784035"><ele>54.800000000000004</ele><time>2026-04-19T09:05:46.998Z</time></trkpt><trkpt lat="44.972120894393875" lon="9.932682612009016"><ele>55.199999999999996</ele><time>2026-04-19T09:05:48Z</time></trkpt><trkpt lat="44.9722101368486" lon="9.932711749242186"><ele>55.599999999999994</ele><time>2026-04-19T09:05:49Z</time></trkpt><trkpt lat="44.97230111677312" lon="9.932738494041905"><ele>56.0</ele><time>2026-04-19T09:05:50Z</time></trkpt><trkpt lat="44.972391721339065" lon="9.932765084512024"><ele>56.0</ele><time>2026-04-19T09:05:51Z</time></trkpt><trkpt lat="44.97248421930332" lon="9.932792305960152"><ele>55.99999999999999</ele><time>2026-04-19T09:05:52Z</time></trkpt><trkpt lat="44.97257670071964" lon="9.932817674954125"><ele>55.99999999999999</ele><time>2026-04-19T09:05:53Z</time></trkpt><trkpt lat="44.972669428687986" lon="9.932843449194658"><ele>56.0</ele><time>2026-04-19T09:05:54Z</time></trkpt><trkpt lat="44.97276152223658" lon="9.93287366799038"><ele>56.0</ele><time>2026-04-19T09:05:55Z</time></trkpt><trkpt lat="44.97285278017306" lon="9.932900596372654"><ele>55.8</ele><time>2026-04-19T09:05:56Z</time></trkpt><trkpt lat="44.972943361675746" lon="9.932929912146648"><ele>55.599999999999994</ele><time>2026-04-19T09:05:57Z</time></trkpt><trkpt lat="44.97303644153093" lon="9.932956577370366"><ele>55.4</ele><time>2026-04-19T09:05:58Z</time></trkpt><trkpt lat="44.97312896846324" lon="9.932984492695757"><ele>55.2</ele><time>2026-04-19T09:05:59Z</time></trkpt><trkpt lat="44.973223064531375" lon="9.933011469265868"><ele>55.0</ele><time>2026-04-19T09:06:00Z</time></trkpt><trkpt lat="44.97331674065223" lon="9.933038970902762"><ele>55.0</ele><time>2026-04-19T09:06:01Z</time></trkpt><trkpt lat="44.97340995146046" lon="9.933064671089394"><ele>55.0</ele><time>2026-04-19T09:06:02Z</time></trkpt><trkpt lat="44.97350297928662" lon="9.933090987765498"><ele>55.0</ele><time>2026-04-19T09:06:03Z</time></trkpt><trkpt lat="44.97359538316986" lon="9.933117731254544"><ele>55.0</ele><time>2026-04-19T09:06:04Z</time></trkpt><trkpt lat="44.97368852341136" lon="9.933144835779022"><ele>55.0</ele><time>2026-04-19T09:06:05Z</time></trkpt><trkpt lat="44.97378101640874" lon="9.933172715988986"><ele>55.0</ele><time>2026-04-19T09:06:06Z</time></trkpt><trkpt lat="44.97387323433965" lon="9.933202907730395"><ele>55.0</ele><time>2026-04-19T09:06:07Z</time></trkpt><trkpt lat="44.97396561562708" lon="9.933229401238403"><ele>55.0</ele><time>2026-04-19T09:06:08Z</time></trkpt><trkpt lat="44.974059264107645" lon="9.933256078999568"><ele>55.0</ele><time>2026-04-19T09:06:09Z</time></trkpt><trkpt lat="44.9741529283472" lon="9.933282508563392"><ele>55.0</ele><time>2026-04-19T09:06:10Z</time></trkpt><trkpt lat="44.974245962170826" lon="9.93331128431046"><ele>54.8</ele><time>2026-04-19T09:06:11Z</time></trkpt><trkpt lat="44.97433952021719" lon="9.9333408417791"><ele>54.6</ele><time>2026-04-19T09:06:11.999Z</time></trkpt><trkpt lat="44.974431892787585" lon="9.933369175907671"><ele>54.400000000000006</ele><time>2026-04-19T09:06:12.999Z</time></trkpt><trkpt lat="44.974524862939965" lon="9.933398550698458"><ele>54.2</ele><time>2026-04-19T09:06:13.999Z</time></trkpt><trkpt lat="44.974619087732314" lon="9.933426444767258"><ele>54.0</ele><time>2026-04-19T09:06:14.999Z</time></trkpt><trkpt lat="44.97471233306144" lon="9.933455283577784"><ele>53.800000000000004</ele><time>2026-04-19T09:06:15.999Z</time></trkpt><trkpt lat="44.97480518675094" lon="9.933484188531047"><ele>53.60000000000001</ele><time>2026-04-19T09:06:16.999Z</time></trkpt><trkpt lat="44.97489751355439" lon="9.93351179503741"><ele>53.4</ele><time>2026-04-19T09:06:17.999Z</time></trkpt><trkpt lat="44.97499143757305" lon="9.93353791958786"><ele>53.2</ele><time>2026-04-19T09:06:18.999Z</time></trkpt><trkpt lat="44.97508710787081" lon="9.93356249597817"><ele>53.0</ele><time>2026-04-19T09:06:19.999Z</time></trkpt><trkpt lat="44.9751805452292" lon="9.933589522731276"><ele>53.0</ele><time>2026-04-19T09:06:20.999Z</time></trkpt><trkpt lat="44.97527280853234" lon="9.933619114666222"><ele>53.0</ele><time>2026-04-19T09:06:21.999Z</time></trkpt><trkpt lat="44.975363264777464" lon="9.93364321529489"><ele>53.0</ele><time>2026-04-19T09:06:22.999Z</time></trkpt><trkpt lat="44.97545323042881" lon="9.933671172201821"><ele>53.0</ele><time>2026-04-19T09:06:23.999Z</time></trkpt><trkpt lat="44.97554036607061" lon="9.933719736890087"><ele>53.0</ele><time>2026-04-19T09:06:24.999Z</time></trkpt><trkpt lat="44.97563241323703" lon="9.933724015110158"><ele>53.0</ele><time>2026-04-19T09:06:25.999Z</time></trkpt><trkpt lat="44.97572151665835" lon="9.933750924721775"><ele>53.0</ele><time>2026-04-19T09:06:26.999Z</time></trkpt><trkpt lat="44.97580790422373" lon="9.9338000275867"><ele>53.0</ele><time>2026-04-19T09:06:27.999Z</time></trkpt><trkpt lat="44.97589720400868" lon="9.9338268272958"><ele>53.0</ele><time>2026-04-19T09:06:28.999Z</time></trkpt><trkpt lat="44.97598972466844" lon="9.933854595527496"><ele>53.0</ele><time>2026-04-19T09:06:29.999Z</time></trkpt><trkpt lat="44.97607832804011" lon="9.93388118620857"><ele>53.4</ele><time>2026-04-19T09:06:30.999Z</time></trkpt><trkpt lat="44.976168831619695" lon="9.933908347195723"><ele>53.8</ele><time>2026-04-19T09:06:31.999Z</time></trkpt><trkpt lat="44.97626061216917" lon="9.933935891388291"><ele>54.2</ele><time>2026-04-19T09:06:32.999Z</time></trkpt><trkpt lat="44.97635300311384" lon="9.93396423217978"><ele>54.6</ele><time>2026-04-19T09:06:33.999Z</time></trkpt><trkpt lat="44.9764453086157" lon="9.933992645112857"><ele>55.0</ele><time>2026-04-19T09:06:34.999Z</time></trkpt><trkpt lat="44.9765348903466" lon="9.934020219632554"><ele>55.0</ele><time>2026-04-19T09:06:35.999Z</time></trkpt><trkpt lat="44.97662314380331" lon="9.93404738529206"><ele>55.0</ele><time>2026-04-19T09:06:36.999Z</time></trkpt><trkpt lat="44.976713612259864" lon="9.934075232766666"><ele>55.0</ele><time>2026-04-19T09:06:37.999Z</time></trkpt><trkpt lat="44.976803370404056" lon="9.934102861588944"><ele>55.0</ele><time>2026-04-19T09:06:38.999Z</time></trkpt><trkpt lat="44.976894212471294" lon="9.934130824057405"><ele>55.0</ele><time>2026-04-19T09:06:39.999Z</time></trkpt><trkpt lat="44.97698393844609" lon="9.93415844296437"><ele>54.8</ele><time>2026-04-19T09:06:40.999Z</time></trkpt><trkpt lat="44.97707343595088" lon="9.934185991557682"><ele>54.6</ele><time>2026-04-19T09:06:41.999Z</time></trkpt><trkpt lat="44.97716183147763" lon="9.934213201070518"><ele>54.400000000000006</ele><time>2026-04-19T09:06:42.999Z</time></trkpt><trkpt lat="44.97725122126172" lon="9.934217761347089"><ele>54.2</ele><time>2026-04-19T09:06:43.999Z</time></trkpt><trkpt lat="44.97733722550149" lon="9.934266534389458"><ele>54.0</ele><time>2026-04-19T09:06:44.999Z</time></trkpt><trkpt lat="44.97742583586042" lon="9.934292936933938"><ele>53.400000000000006</ele><time>2026-04-19T09:06:45.999Z</time></trkpt><trkpt lat="44.97751899773286" lon="9.934297346016322"><ele>52.800000000000004</ele><time>2026-04-19T09:06:46.999Z</time></trkpt><trkpt lat="44.977606875922596" lon="9.934325124968593"><ele>52.2</ele><time>2026-04-19T09:06:47.999Z</time></trkpt><trkpt lat="44.977697915875616" lon="9.934355907663635"><ele>51.599999999999994</ele><time>2026-04-19T09:06:48.999Z</time></trkpt><trkpt lat="44.97778487211706" lon="9.934389552139665"><ele>51.0</ele><time>2026-04-19T09:06:49.999Z</time></trkpt><trkpt lat="44.97787389532565" lon="9.93441822459373"><ele>51.0</ele><time>2026-04-19T09:06:50.999Z</time></trkpt><trkpt lat="44.97796349939309" lon="9.93444335931952"><ele>51.0</ele><time>2026-04-19T09:06:51.999Z</time></trkpt><trkpt lat="44.97805172484425" lon="9.934471272960145"><ele>51.0</ele><time>2026-04-19T09:06:52.999Z</time></trkpt><trkpt lat="44.978141194132164" lon="9.934498388846606"><ele>51.0</ele><time>2026-04-19T09:06:53.999Z</time></trkpt><trkpt lat="44.97822960254031" lon="9.93452519597394"><ele>51.0</ele><time>2026-04-19T09:06:54.999Z</time></trkpt><trkpt lat="44.97831950826406" lon="9.934550041892104"><ele>51.8</ele><time>2026-04-19T09:06:55.999Z</time></trkpt><trkpt lat="44.97840793943068" lon="9.9345790743301"><ele>52.599999999999994</ele><time>2026-04-19T09:06:56.999Z</time></trkpt><trkpt lat="44.97849674551059" lon="9.934606226878234"><ele>53.4</ele><time>2026-04-19T09:06:57.999Z</time></trkpt><trkpt lat="44.9785858380444" lon="9.934632893265954"><ele>54.2</ele><time>2026-04-19T09:06:58.999Z</time></trkpt><trkpt lat="44.978676012092464" lon="9.93465771671561"><ele>55.0</ele><time>2026-04-19T09:06:59.999Z</time></trkpt><trkpt lat="44.978766636750194" lon="9.934682587765066"><ele>55.0</ele><time>2026-04-19T09:07:00.999Z</time></trkpt><trkpt lat="44.97885664556052" lon="9.934711406064734"><ele>55.0</ele><time>2026-04-19T09:07:01.999Z</time></trkpt><trkpt lat="44.97894709783449" lon="9.934738027363892"><ele>55.0</ele><time>2026-04-19T09:07:02.999Z</time></trkpt><trkpt lat="44.9790386017969" lon="9.934764900618918"><ele>55.0</ele><time>2026-04-19T09:07:03.999Z</time></trkpt><trkpt lat="44.97912984087536" lon="9.934788984820859"><ele>55.0</ele><time>2026-04-19T09:07:04.998Z</time></trkpt><trkpt lat="44.97922118247739" lon="9.934815580462322"><ele>55.0</ele><time>2026-04-19T09:07:05.998Z</time></trkpt><trkpt lat="44.97931304442308" lon="9.934841454090275"><ele>55.0</ele><time>2026-04-19T09:07:06.998Z</time></trkpt><trkpt lat="44.97940586101932" lon="9.934865389261251"><ele>55.0</ele><time>2026-04-19T09:07:07.998Z</time></trkpt><trkpt lat="44.97949883159063" lon="9.934889666942945"><ele>55.0</ele><time>2026-04-19T09:07:08.998Z</time></trkpt><trkpt lat="44.9795926547716" lon="9.934912112243161"><ele>55.0</ele><time>2026-04-19T09:07:09.998Z</time></trkpt><trkpt lat="44.97968516378218" lon="9.934935167514347"><ele>55.0</ele><time>2026-04-19T09:07:10.998Z</time></trkpt><trkpt lat="44.979776221548924" lon="9.934959363363374"><ele>55.0</ele><time>2026-04-19T09:07:11.998Z</time></trkpt><trkpt lat="44.9798693924195" lon="9.934982728927125"><ele>55.0</ele><time>2026-04-19T09:07:12.998Z</time></trkpt><trkpt lat="44.97996276799725" lon="9.935003864999903"><ele>55.0</ele><time>2026-04-19T09:07:13.998Z</time></trkpt><trkpt lat="44.98005662851097" lon="9.935027897538838"><ele>55.0</ele><time>2026-04-19T09:07:14.998Z</time></trkpt><trkpt lat="44.98015063125844" lon="9.935051201687793"><ele>55.0</ele><time>2026-04-19T09:07:15.998Z</time></trkpt><trkpt lat="44.98024314738535" lon="9.935069717620738"><ele>55.0</ele><time>2026-04-19T09:07:16.998Z</time></trkpt><trkpt lat="44.98033565937099" lon="9.935084383215342"><ele>55.0</ele><time>2026-04-19T09:07:17.998Z</time></trkpt><trkpt lat="44.98042807808114" lon="9.935099501651559"><ele>55.0</ele><time>2026-04-19T09:07:18.998Z</time></trkpt><trkpt lat="44.98052091808139" lon="9.935115431277639"><ele>55.0</ele><time>2026-04-19T09:07:19.998Z</time></trkpt><trkpt lat="44.980614155064785" lon="9.935131469018787"><ele>55.0</ele><time>2026-04-19T09:07:20.998Z</time></trkpt><trkpt lat="44.98070847916544" lon="9.935145043847802"><ele>55.0</ele><time>2026-04-19T09:07:21.998Z</time></trkpt><trkpt lat="44.98079850198906" lon="9.935156897850238"><ele>55.0</ele><time>2026-04-19T09:07:22.998Z</time></trkpt><trkpt lat="44.98088940569571" lon="9.93516919259906"><ele>55.0</ele><time>2026-04-19T09:07:23.998Z</time></trkpt><trkpt lat="44.980980652087176" lon="9.935178383928923"><ele>55.0</ele><time>2026-04-19T09:07:24.998Z</time></trkpt><trkpt lat="44.981073091685595" lon="9.935190596197629"><ele>54.4</ele><time>2026-04-19T09:07:25.998Z</time></trkpt><trkpt lat="44.98116496745334" lon="9.935193249133453"><ele>53.8</ele><time>2026-04-19T09:07:26.998Z</time></trkpt><trkpt lat="44.98125806171454" lon="9.935192562042147"><ele>53.2</ele><time>2026-04-19T09:07:27.998Z</time></trkpt><trkpt lat="44.98134986009512" lon="9.93518716987622"><ele>52.6</ele><time>2026-04-19T09:07:28.998Z</time></trkpt><trkpt lat="44.98144174914072" lon="9.9351696359575"><ele>52.0</ele><time>2026-04-19T09:07:29.998Z</time></trkpt><trkpt lat="44.98153470905541" lon="9.935142932998428"><ele>52.0</ele><time>2026-04-19T09:07:30.998Z</time></trkpt><trkpt lat="44.98162683941328" lon="9.935112317591942"><ele>52.0</ele><time>2026-04-19T09:07:31.998Z</time></trkpt><trkpt lat="44.98171953241557" lon="9.935084018419747"><ele>52.0</ele><time>2026-04-19T09:07:32.998Z</time></trkpt><trkpt lat="44.981811008532034" lon="9.935053522778283"><ele>52.0</ele><time>2026-04-19T09:07:33.998Z</time></trkpt><trkpt lat="44.981901681307" lon="9.935015600296932"><ele>52.0</ele><time>2026-04-19T09:07:34.998Z</time></trkpt><trkpt lat="44.98199193401359" lon="9.934974658030495"><ele>51.8</ele><time>2026-04-19T09:07:35.998Z</time></trkpt><trkpt lat="44.982082594206894" lon="9.934932971938801"><ele>51.6</ele><time>2026-04-19T09:07:36.998Z</time></trkpt><trkpt lat="44.98217252168848" lon="9.934891523745138"><ele>51.4</ele><time>2026-04-19T09:07:37.998Z</time></trkpt><trkpt lat="44.982261493019884" lon="9.934850135635456"><ele>51.199999999999996</ele><time>2026-04-19T09:07:38.998Z</time></trkpt><trkpt lat="44.98235130491144" lon="9.934809317976637"><ele>51.0</ele><time>2026-04-19T09:07:39.998Z</time></trkpt><trkpt lat="44.98244031839228" lon="9.934771907509177"><ele>51.4</ele><time>2026-04-19T09:07:40.998Z</time></trkpt><trkpt lat="44.98252618535666" lon="9.93473057187209"><ele>51.8</ele><time>2026-04-19T09:07:41.998Z</time></trkpt><trkpt lat="44.9826145390333" lon="9.93469251822837"><ele>52.199999999999996</ele><time>2026-04-19T09:07:42.998Z</time></trkpt><trkpt lat="44.982703721589424" lon="9.934651409163273"><ele>52.599999999999994</ele><time>2026-04-19T09:07:43.998Z</time></trkpt><trkpt lat="44.982795252868975" lon="9.93461174030064"><ele>53.0</ele><time>2026-04-19T09:07:44.998Z</time></trkpt><trkpt lat="44.982888454626405" lon="9.934573931239395"><ele>53.0</ele><time>2026-04-19T09:07:45.998Z</time></trkpt><trkpt lat="44.98298160452424" lon="9.93453596658657"><ele>53.0</ele><time>2026-04-19T09:07:46.998Z</time></trkpt><trkpt lat="44.98307531671351" lon="9.934497613576651"><ele>53.0</ele><time>2026-04-19T09:07:47.998Z</time></trkpt><trkpt lat="44.983168696199435" lon="9.93445984515843"><ele>53.0</ele><time>2026-04-19T09:07:48.998Z</time></trkpt><trkpt lat="44.983262186344334" lon="9.934423461371198"><ele>53.0</ele><time>2026-04-19T09:07:49.998Z</time></trkpt><trkpt lat="44.98335637935596" lon="9.934395510219568"><ele>52.8</ele><time>2026-04-19T09:07:50.998Z</time></trkpt><trkpt lat="44.98345178394641" lon="9.934369012870107"><ele>52.599999999999994</ele><time>2026-04-19T09:07:51.998Z</time></trkpt><trkpt lat="44.983545488309275" lon="9.934338159747268"><ele>52.400000000000006</ele><time>2026-04-19T09:07:52.998Z</time></trkpt><trkpt lat="44.98364004707113" lon="9.934307484356289"><ele>52.2</ele><time>2026-04-19T09:07:54Z</time></trkpt><trkpt lat="44.98373178423797" lon="9.934276137139964"><ele>52.0</ele><time>2026-04-19T09:07:55Z</time></trkpt><trkpt lat="44.983823609542775" lon="9.93424392179822"><ele>52.6</ele><time>2026-04-19T09:07:56Z</time></trkpt><trkpt lat="44.98391657868623" lon="9.934214529748537"><ele>53.2</ele><time>2026-04-19T09:07:57Z</time></trkpt><trkpt lat="44.984008678705784" lon="9.934185839967151"><ele>53.8</ele><time>2026-04-19T09:07:58Z</time></trkpt><trkpt lat="44.98410191851094" lon="9.934156860468683"><ele>54.4</ele><time>2026-04-19T09:07:59Z</time></trkpt><trkpt lat="44.98419463675605" lon="9.934128125222484"><ele>55.0</ele><time>2026-04-19T09:08:00Z</time></trkpt><trkpt lat="44.98428577302141" lon="9.934096256352461"><ele>55.0</ele><time>2026-04-19T09:08:01Z</time></trkpt><trkpt lat="44.98437780282505" lon="9.934066550258365"><ele>55.0</ele><time>2026-04-19T09:08:02Z</time></trkpt><trkpt lat="44.98446908491471" lon="9.934038895001851"><ele>55.0</ele><time>2026-04-19T09:08:03Z</time></trkpt><trkpt lat="44.984559620881456" lon="9.934011714398713"><ele>55.0</ele><time>2026-04-19T09:08:04Z</time></trkpt><trkpt lat="44.9846506549668" lon="9.933983472765672"><ele>55.0</ele><time>2026-04-19T09:08:05Z</time></trkpt><trkpt lat="44.984742256523624" lon="9.933954718517874"><ele>55.0</ele><time>2026-04-19T09:08:06Z</time></trkpt><trkpt lat="44.98483302098003" lon="9.933922956481368"><ele>55.0</ele><time>2026-04-19T09:08:07Z</time></trkpt><trkpt lat="44.98492258200173" lon="9.933888467078276"><ele>55.0</ele><time>2026-04-19T09:08:08Z</time></trkpt><trkpt lat="44.98501248858235" lon="9.933851732039088"><ele>55.0</ele><time>2026-04-19T09:08:09Z</time></trkpt><trkpt lat="44.985102510378596" lon="9.933807771200883"><ele>55.0</ele><time>2026-04-19T09:08:10Z</time></trkpt><trkpt lat="44.98519137737153" lon="9.933762082739202"><ele>55.0</ele><time>2026-04-19T09:08:11Z</time></trkpt><trkpt lat="44.98528091527624" lon="9.933711574101773"><ele>55.0</ele><time>2026-04-19T09:08:12Z</time></trkpt><trkpt lat="44.98537057060961" lon="9.933664278377698"><ele>55.0</ele><time>2026-04-19T09:08:13Z</time></trkpt><trkpt lat="44.985461472779704" lon="9.933616803706144"><ele>55.0</ele><time>2026-04-19T09:08:14Z</time></trkpt><trkpt lat="44.98555245101968" lon="9.933568511947975"><ele>55.0</ele><time>2026-04-19T09:08:15Z</time></trkpt><trkpt lat="44.985643843964404" lon="9.933522443462827"><ele>55.0</ele><time>2026-04-19T09:08:15.999Z</time></trkpt><trkpt lat="44.98573327158969" lon="9.933470650219014"><ele>55.0</ele><time>2026-04-19T09:08:16.999Z</time></trkpt><trkpt lat="44.9858223656841" lon="9.933417823371663"><ele>55.0</ele><time>2026-04-19T09:08:17.999Z</time></trkpt><trkpt lat="44.98591009403677" lon="9.933359464331996"><ele>55.0</ele><time>2026-04-19T09:08:18.999Z</time></trkpt><trkpt lat="44.98599512903859" lon="9.933294600137849"><ele>55.0</ele><time>2026-04-19T09:08:19.999Z</time></trkpt><trkpt lat="44.98607490180989" lon="9.933214232444447"><ele>54.6</ele><time>2026-04-19T09:08:20.999Z</time></trkpt><trkpt lat="44.986147748666625" lon="9.933124592606433"><ele>54.2</ele><time>2026-04-19T09:08:21.999Z</time></trkpt><trkpt lat="44.986212936597795" lon="9.933026821133538"><ele>53.8</ele><time>2026-04-19T09:08:22.999Z</time></trkpt><trkpt lat="44.986275624682996" lon="9.932925015349264"><ele>53.4</ele><time>2026-04-19T09:08:23.999Z</time></trkpt><trkpt lat="44.986336056141305" lon="9.932824100245156"><ele>53.0</ele><time>2026-04-19T09:08:24.999Z</time></trkpt><trkpt lat="44.98640541324387" lon="9.932733336242777"><ele>53.0</ele><time>2026-04-19T09:08:25.999Z</time></trkpt><trkpt lat="44.98648580058318" lon="9.932656646462286"><ele>53.0</ele><time>2026-04-19T09:08:26.999Z</time></trkpt><trkpt lat="44.98657211674726" lon="9.932591343914359"><ele>53.0</ele><time>2026-04-19T09:08:27.999Z</time></trkpt><trkpt lat="44.98666531560226" lon="9.932544356075466"><ele>53.0</ele><time>2026-04-19T09:08:28.999Z</time></trkpt><trkpt lat="44.986762718698934" lon="9.932522395678136"><ele>53.0</ele><time>2026-04-19T09:08:29.999Z</time></trkpt><trkpt lat="44.98685970494143" lon="9.932503054629153"><ele>53.0</ele><time>2026-04-19T09:08:30.999Z</time></trkpt><trkpt lat="44.98695576022958" lon="9.932484980764666"><ele>53.0</ele><time>2026-04-19T09:08:31.999Z</time></trkpt><trkpt lat="44.987050602725866" lon="9.932468622797886"><ele>53.0</ele><time>2026-04-19T09:08:32.999Z</time></trkpt><trkpt lat="44.987143616967536" lon="9.932460454528334"><ele>53.0</ele><time>2026-04-19T09:08:33.999Z</time></trkpt><trkpt lat="44.98723290041585" lon="9.932444911258072"><ele>53.0</ele><time>2026-04-19T09:08:34.999Z</time></trkpt><trkpt lat="44.987319046855234" lon="9.932404415055856"><ele>53.0</ele><time>2026-04-19T09:08:35.999Z</time></trkpt><trkpt lat="44.98739605623281" lon="9.932330712488977"><ele>53.0</ele><time>2026-04-19T09:08:36.999Z</time></trkpt><trkpt lat="44.98744519037927" lon="9.932210624072512"><ele>53.0</ele><time>2026-04-19T09:08:37.999Z</time></trkpt><trkpt lat="44.987468802078354" lon="9.932071044563203"><ele>53.0</ele><time>2026-04-19T09:08:38.999Z</time></trkpt><trkpt lat="44.98748361816099" lon="9.931931438796374"><ele>53.0</ele><time>2026-04-19T09:08:39.999Z</time></trkpt><trkpt lat="44.98748882342394" lon="9.931788525375422"><ele>53.0</ele><time>2026-04-19T09:08:40.999Z</time></trkpt><trkpt lat="44.98749806011169" lon="9.931650481331912"><ele>53.0</ele><time>2026-04-19T09:08:41.999Z</time></trkpt><trkpt lat="44.98751133216018" lon="9.931513426803324"><ele>53.0</ele><time>2026-04-19T09:08:42.999Z</time></trkpt><trkpt lat="44.98751995956188" lon="9.931380885357795"><ele>53.0</ele><time>2026-04-19T09:08:43.999Z</time></trkpt><trkpt lat="44.98753040671641" lon="9.931246544017576"><ele>53.0</ele><time>2026-04-19T09:08:44.999Z</time></trkpt><trkpt lat="44.98754194837754" lon="9.93111804769256"><ele>52.833333333333336</ele><time>2026-04-19T09:08:45.999Z</time></trkpt><trkpt lat="44.98755248632114" lon="9.930995289206454"><ele>52.66666666666667</ele><time>2026-04-19T09:08:46.999Z</time></trkpt><trkpt lat="44.9875708841376" lon="9.930879263132462"><ele>52.5</ele><time>2026-04-19T09:08:47.999Z</time></trkpt><trkpt lat="44.98760876067592" lon="9.930775147062516"><ele>52.33333333333333</ele><time>2026-04-19T09:08:48.999Z</time></trkpt><trkpt lat="44.98766479575136" lon="9.930703341210359"><ele>52.166666666666664</ele><time>2026-04-19T09:08:49.999Z</time></trkpt><trkpt lat="44.98773906835211" lon="9.930672117393513"><ele>52.0</ele><time>2026-04-19T09:08:50.999Z</time></trkpt><trkpt lat="44.987821172937885" lon="9.930672155929559"><ele>52.33333333333333</ele><time>2026-04-19T09:08:51.999Z</time></trkpt><trkpt lat="44.98790536230947" lon="9.930677861048302"><ele>52.666666666666664</ele><time>2026-04-19T09:08:52.999Z</time></trkpt><trkpt lat="44.98799099986324" lon="9.930685560248856"><ele>53.0</ele><time>2026-04-19T09:08:53.999Z</time></trkpt><trkpt lat="44.98807579769685" lon="9.930717701720141"><ele>53.33333333333333</ele><time>2026-04-19T09:08:54.999Z</time></trkpt><trkpt lat="44.9881626232933" lon="9.930730195881198"><ele>53.666666666666664</ele><time>2026-04-19T09:08:55.999Z</time></trkpt><trkpt lat="44.988248641759235" lon="9.930744318313808"><ele>54.0</ele><time>2026-04-19T09:08:56.999Z</time></trkpt><trkpt lat="44.98833104798042" lon="9.930757847716471"><ele>53.833333333333336</ele><time>2026-04-19T09:08:57.999Z</time></trkpt><trkpt lat="44.988412491719565" lon="9.930772808989058"><ele>53.66666666666667</ele><time>2026-04-19T09:08:58.999Z</time></trkpt><trkpt lat="44.98849597807719" lon="9.930788707185284"><ele>53.5</ele><time>2026-04-19T09:08:59.999Z</time></trkpt><trkpt lat="44.988579228440884" lon="9.930804560448388"><ele>53.333333333333336</ele><time>2026-04-19T09:09:00.999Z</time></trkpt><trkpt lat="44.9886632784456" lon="9.930797707952717"><ele>53.16666666666667</ele><time>2026-04-19T09:09:01.999Z</time></trkpt><trkpt lat="44.98874649777294" lon="9.93081299301166"><ele>53.0</ele><time>2026-04-19T09:09:02.999Z</time></trkpt><trkpt lat="44.98882622952412" lon="9.930852391480727"><ele>53.00000000000001</ele><time>2026-04-19T09:09:03.999Z</time></trkpt><trkpt lat="44.98890769827814" lon="9.93086878874573"><ele>53.0</ele><time>2026-04-19T09:09:04.999Z</time></trkpt><trkpt lat="44.988990424300326" lon="9.930885439059127"><ele>53.0</ele><time>2026-04-19T09:09:05.999Z</time></trkpt><trkpt lat="44.989072382120085" lon="9.930901934766748"><ele>53.0</ele><time>2026-04-19T09:09:06.999Z</time></trkpt><trkpt lat="44.989155139342785" lon="9.930918825035446"><ele>53.00000000000001</ele><time>2026-04-19T09:09:07.999Z</time></trkpt><trkpt lat="44.98923755151063" lon="9.93093575597213"><ele>53.0</ele><time>2026-04-19T09:09:08.999Z</time></trkpt><trkpt lat="44.98931966343077" lon="9.930952625221272"><ele>53.00000000000001</ele><time>2026-04-19T09:09:09.998Z</time></trkpt><trkpt lat="44.989401475807476" lon="9.930969577365971"><ele>53.0</ele><time>2026-04-19T09:09:10.998Z</time></trkpt><trkpt lat="44.98948562920134" lon="9.930988300128258"><ele>53.0</ele><time>2026-04-19T09:09:11.998Z</time></trkpt><trkpt lat="44.98956687126156" lon="9.931011799105645"><ele>53.0</ele><time>2026-04-19T09:09:12.998Z</time></trkpt><trkpt lat="44.989648142404874" lon="9.931041174675563"><ele>53.00000000000001</ele><time>2026-04-19T09:09:13.998Z</time></trkpt><trkpt lat="44.9897278344388" lon="9.931076157117682"><ele>53.0</ele><time>2026-04-19T09:09:14.998Z</time></trkpt><trkpt lat="44.98980844242718" lon="9.931113497111747"><ele>53.00000000000001</ele><time>2026-04-19T09:09:15.998Z</time></trkpt><trkpt lat="44.989888499996596" lon="9.931151476160915"><ele>53.0</ele><time>2026-04-19T09:09:16.998Z</time></trkpt><trkpt lat="44.98996684135231" lon="9.931192039240848"><ele>53.0</ele><time>2026-04-19T09:09:17.998Z</time></trkpt><trkpt lat="44.990047240202166" lon="9.9312338191722"><ele>53.0</ele><time>2026-04-19T09:09:18.998Z</time></trkpt><trkpt lat="44.99012761518355" lon="9.93127558492442"><ele>53.00000000000001</ele><time>2026-04-19T09:09:19.998Z</time></trkpt><trkpt lat="44.990206722892715" lon="9.931318586341012"><ele>53.0</ele><time>2026-04-19T09:09:20.998Z</time></trkpt><trkpt lat="44.99028829629324" lon="9.931362080278866"><ele>53.16666666666667</ele><time>2026-04-19T09:09:21.998Z</time></trkpt><trkpt lat="44.990366962096644" lon="9.931404838547737"><ele>53.333333333333336</ele><time>2026-04-19T09:09:22.998Z</time></trkpt><trkpt lat="44.990444160452775" lon="9.931448420073231"><ele>53.5</ele><time>2026-04-19T09:09:23.998Z</time></trkpt><trkpt lat="44.99052044845655" lon="9.931491485997578"><ele>53.66666666666667</ele><time>2026-04-19T09:09:24.998Z</time></trkpt><trkpt lat="44.990595833579974" lon="9.93153650218173"><ele>53.833333333333336</ele><time>2026-04-19T09:09:25.998Z</time></trkpt><trkpt lat="44.990671748763326" lon="9.931581647165453"><ele>54.0</ele><time>2026-04-19T09:09:26.998Z</time></trkpt><trkpt lat="44.99074663487581" lon="9.931626180284676"><ele>54.0</ele><time>2026-04-19T09:09:27.998Z</time></trkpt><trkpt lat="44.990820867524846" lon="9.93167022492217"><ele>54.0</ele><time>2026-04-19T09:09:28.998Z</time></trkpt><trkpt lat="44.99089860765898" lon="9.931715884754915"><ele>54.0</ele><time>2026-04-19T09:09:29.998Z</time></trkpt><trkpt lat="44.99097239899662" lon="9.931759225304546"><ele>54.0</ele><time>2026-04-19T09:09:30.998Z</time></trkpt><trkpt lat="44.99104626255809" lon="9.931802608286306"><ele>54.0</ele><time>2026-04-19T09:09:31.998Z</time></trkpt><trkpt lat="44.99112072055917" lon="9.931846340412022"><ele>54.0</ele><time>2026-04-19T09:09:32.998Z</time></trkpt><trkpt lat="44.991196694986456" lon="9.931890963194434"><ele>53.833333333333336</ele><time>2026-04-19T09:09:33.998Z</time></trkpt><trkpt lat="44.991274101846514" lon="9.931935141573147"><ele>53.66666666666667</ele><time>2026-04-19T09:09:34.998Z</time></trkpt><trkpt lat="44.99135044328705" lon="9.931977867992815"><ele>53.5</ele><time>2026-04-19T09:09:35.998Z</time></trkpt><trkpt lat="44.99142950016667" lon="9.932021250319155"><ele>53.333333333333336</ele><time>2026-04-19T09:09:36.998Z</time></trkpt><trkpt lat="44.99150862397526" lon="9.932062919315097"><ele>53.16666666666667</ele><time>2026-04-19T09:09:37.998Z</time></trkpt><trkpt lat="44.99158853865737" lon="9.932101334646825"><ele>53.0</ele><time>2026-04-19T09:09:38.998Z</time></trkpt><trkpt lat="44.9916691544176" lon="9.932136698671526"><ele>53.16666666666667</ele><time>2026-04-19T09:09:39.998Z</time></trkpt><trkpt lat="44.991748477230146" lon="9.932171259464488"><ele>53.333333333333336</ele><time>2026-04-19T09:09:40.998Z</time></trkpt><trkpt lat="44.99182980384674" lon="9.932199702914971"><ele>53.5</ele><time>2026-04-19T09:09:41.998Z</time></trkpt><trkpt lat="44.99191226722776" lon="9.932229417438425"><ele>53.66666666666667</ele><time>2026-04-19T09:09:42.998Z</time></trkpt><trkpt lat="44.9919933329528" lon="9.932257253251503"><ele>53.833333333333336</ele><time>2026-04-19T09:09:43.998Z</time></trkpt><trkpt lat="44.99207658705047" lon="9.932283969096606"><ele>54.0</ele><time>2026-04-19T09:09:44.998Z</time></trkpt><trkpt lat="44.99215858726784" lon="9.932308847509782"><ele>54.0</ele><time>2026-04-19T09:09:45.998Z</time></trkpt><trkpt lat="44.992238102974206" lon="9.93232754890974"><ele>54.0</ele><time>2026-04-19T09:09:46.998Z</time></trkpt><trkpt lat="44.992323380946644" lon="9.932311311883304"><ele>54.0</ele><time>2026-04-19T09:09:47.998Z</time></trkpt><trkpt lat="44.99239504864157" lon="9.932225156174633"><ele>54.0</ele><time>2026-04-19T09:09:48.998Z</time></trkpt><trkpt lat="44.99241177752147" lon="9.93209836249934"><ele>54.0</ele><time>2026-04-19T09:09:49.998Z</time></trkpt><trkpt lat="44.992412740967396" lon="9.931984533618577"><ele>54.0</ele><time>2026-04-19T09:09:50.998Z</time></trkpt><trkpt lat="44.99240066569692" lon="9.931872064657158"><ele>54.0</ele><time>2026-04-19T09:09:51.998Z</time></trkpt><trkpt lat="44.99240002847944" lon="9.931753552919913"><ele>54.0</ele><time>2026-04-19T09:09:52.998Z</time></trkpt><trkpt lat="44.99239802611111" lon="9.931635900497279"><ele>54.0</ele><time>2026-04-19T09:09:53.998Z</time></trkpt><trkpt lat="44.99239670763121" lon="9.931517952257183"><ele>54.0</ele><time>2026-04-19T09:09:54.998Z</time></trkpt><trkpt lat="44.992394325217305" lon="9.931398681104666"><ele>54.0</ele><time>2026-04-19T09:09:55.998Z</time></trkpt><trkpt lat="44.99239156638496" lon="9.931279019365885"><ele>54.0</ele><time>2026-04-19T09:09:56.998Z</time></trkpt><trkpt lat="44.99239109046541" lon="9.931162903380862"><ele>54.0</ele><time>2026-04-19T09:09:57.998Z</time></trkpt><trkpt lat="44.992385242970705" lon="9.9310487034773"><ele>54.0</ele><time>2026-04-19T09:09:58.998Z</time></trkpt><trkpt lat="44.99237919784331" lon="9.930934059822613"><ele>54.0</ele><time>2026-04-19T09:10:00Z</time></trkpt><trkpt lat="44.992378805456575" lon="9.930822943942438"><ele>54.0</ele><time>2026-04-19T09:10:01Z</time></trkpt><trkpt lat="44.99237750780253" lon="9.930714214417211"><ele>54.0</ele><time>2026-04-19T09:10:02Z</time></trkpt><trkpt lat="44.99237189318519" lon="9.930605081041069"><ele>54.0</ele><time>2026-04-19T09:10:03Z</time></trkpt><trkpt lat="44.992362736698674" lon="9.930495636872813"><ele>54.0</ele><time>2026-04-19T09:10:04Z</time></trkpt><trkpt lat="44.99235512592021" lon="9.930386518714784"><ele>54.0</ele><time>2026-04-19T09:10:05Z</time></trkpt><trkpt lat="44.99235366167437" lon="9.930279644738125"><ele>54.0</ele><time>2026-04-19T09:10:06Z</time></trkpt><trkpt lat="44.99235409982593" lon="9.930180890312043"><ele>54.0</ele><time>2026-04-19T09:10:07Z</time></trkpt><trkpt lat="44.99235091905366" lon="9.930091938399688"><ele>54.0</ele><time>2026-04-19T09:10:08Z</time></trkpt><trkpt lat="44.99235804209458" lon="9.929967469224794"><ele>54.0</ele><time>2026-04-19T09:10:10Z</time></trkpt><trkpt lat="44.99237682320349" lon="9.92988128935185"><ele>54.0</ele><time>2026-04-19T09:10:13Z</time></trkpt><trkpt lat="44.99245639590146" lon="9.929913108447817"><ele>54.0</ele><time>2026-04-19T09:10:14Z</time></trkpt><trkpt lat="44.992556132936336" lon="9.929940349107046"><ele>54.0</ele><time>2026-04-19T09:10:16Z</time></trkpt><trkpt lat="44.992668154221626" lon="9.929994331722519"><ele>54.0</ele><time>2026-04-19T09:10:18Z</time></trkpt><trkpt lat="44.99273258600992" lon="9.930017338506278"><ele>54.0</ele><time>2026-04-19T09:10:18.999Z</time></trkpt><trkpt lat="44.992797962974834" lon="9.930042369104937"><ele>54.0</ele><time>2026-04-19T09:10:19.999Z</time></trkpt><trkpt lat="44.99286918920036" lon="9.930071612363244"><ele>54.0</ele><time>2026-04-19T09:10:20.999Z</time></trkpt><trkpt lat="44.99294070225312" lon="9.930106727295435"><ele>54.0</ele><time>2026-04-19T09:10:21.999Z</time></trkpt><trkpt lat="44.99301341799534" lon="9.930135714534995"><ele>54.0</ele><time>2026-04-19T09:10:22.999Z</time></trkpt><trkpt lat="44.99308811215802" lon="9.930165053273669"><ele>54.0</ele><time>2026-04-19T09:10:23.999Z</time></trkpt><trkpt lat="44.993165743064345" lon="9.930199630877764"><ele>54.0</ele><time>2026-04-19T09:10:24.999Z</time></trkpt><trkpt lat="44.993241883898484" lon="9.93023154069246"><ele>54.0</ele><time>2026-04-19T09:10:25.999Z</time></trkpt><trkpt lat="44.99331644423093" lon="9.93026154686333"><ele>54.0</ele><time>2026-04-19T09:10:26.999Z</time></trkpt><trkpt lat="44.99339346472355" lon="9.930286046363012"><ele>54.333333333333336</ele><time>2026-04-19T09:10:27.999Z</time></trkpt><trkpt lat="44.99347128314848" lon="9.930309317614334"><ele>54.66666666666667</ele><time>2026-04-19T09:10:28.999Z</time></trkpt><trkpt lat="44.993549555148356" lon="9.93033698230694"><ele>55.0</ele><time>2026-04-19T09:10:29.999Z</time></trkpt><trkpt lat="44.99362668407849" lon="9.930367438620141"><ele>55.333333333333336</ele><time>2026-04-19T09:10:30.999Z</time></trkpt><trkpt lat="44.99370146525154" lon="9.930405850397854"><ele>55.66666666666667</ele><time>2026-04-19T09:10:31.999Z</time></trkpt><trkpt lat="44.993779437850684" lon="9.930440100103981"><ele>56.0</ele><time>2026-04-19T09:10:32.999Z</time></trkpt><trkpt lat="44.9938564028531" lon="9.930472858201567"><ele>56.00000000000001</ele><time>2026-04-19T09:10:33.999Z</time></trkpt><trkpt lat="44.993930964632774" lon="9.930506679958084"><ele>56.0</ele><time>2026-04-19T09:10:34.999Z</time></trkpt><trkpt lat="44.99399388740968" lon="9.930545888527693"><ele>56.0</ele><time>2026-04-19T09:10:35.999Z</time></trkpt><trkpt lat="44.99408319912557" lon="9.930574553421494"><ele>56.0</ele><time>2026-04-19T09:10:36.999Z</time></trkpt><trkpt lat="44.99415997023284" lon="9.93060310295563"><ele>56.00000000000001</ele><time>2026-04-19T09:10:37.999Z</time></trkpt><trkpt lat="44.994236292383846" lon="9.93063584126502"><ele>56.0</ele><time>2026-04-19T09:10:38.999Z</time></trkpt><trkpt lat="44.994313809682616" lon="9.930667513987704"><ele>55.833333333333336</ele><time>2026-04-19T09:10:39.999Z</time></trkpt><trkpt lat="44.994389793584276" lon="9.93069687784304"><ele>55.66666666666667</ele><time>2026-04-19T09:10:40.999Z</time></trkpt><trkpt lat="44.994470403419605" lon="9.930727324989732"><ele>55.5</ele><time>2026-04-19T09:10:41.999Z</time></trkpt><trkpt lat="44.9945478077769" lon="9.930757422740903"><ele>55.33333333333333</ele><time>2026-04-19T09:10:42.999Z</time></trkpt><trkpt lat="44.99462386285613" lon="9.930788845233643"><ele>55.166666666666664</ele><time>2026-04-19T09:10:43.999Z</time></trkpt><trkpt lat="44.99469790808269" lon="9.930816769015333"><ele>55.0</ele><time>2026-04-19T09:10:44.999Z</time></trkpt><trkpt lat="44.994773355339454" lon="9.930833751076792"><ele>54.99999999999999</ele><time>2026-04-19T09:10:45.999Z</time></trkpt><trkpt lat="44.9948506922297" lon="9.930867738698295"><ele>55.0</ele><time>2026-04-19T09:10:46.999Z</time></trkpt><trkpt lat="44.99492656674927" lon="9.930899943103633"><ele>55.0</ele><time>2026-04-19T09:10:47.999Z</time></trkpt><trkpt lat="44.99500345399314" lon="9.930934455020141"><ele>55.0</ele><time>2026-04-19T09:10:48.999Z</time></trkpt><trkpt lat="44.99508192000632" lon="9.930963967457796"><ele>54.99999999999999</ele><time>2026-04-19T09:10:49.999Z</time></trkpt><trkpt lat="44.99515911645268" lon="9.930995594297219"><ele>55.0</ele><time>2026-04-19T09:10:50.999Z</time></trkpt><trkpt lat="44.995238776002196" lon="9.931026885468736"><ele>55.166666666666664</ele><time>2026-04-19T09:10:51.999Z</time></trkpt><trkpt lat="44.99531467951904" lon="9.93105421037431"><ele>55.33333333333333</ele><time>2026-04-19T09:10:52.999Z</time></trkpt><trkpt lat="44.995392486416655" lon="9.93108159148386"><ele>55.5</ele><time>2026-04-19T09:10:53.999Z</time></trkpt><trkpt lat="44.99546609088436" lon="9.931110360664908"><ele>55.66666666666667</ele><time>2026-04-19T09:10:54.999Z</time></trkpt><trkpt lat="44.99554027987014" lon="9.931142364646671"><ele>55.833333333333336</ele><time>2026-04-19T09:10:55.999Z</time></trkpt><trkpt lat="44.9956125938022" lon="9.931172057698499"><ele>56.0</ele><time>2026-04-19T09:10:56.999Z</time></trkpt><trkpt lat="44.995684637958824" lon="9.931197479576985"><ele>56.0</ele><time>2026-04-19T09:10:57.999Z</time></trkpt><trkpt lat="44.995755684438286" lon="9.93122467304101"><ele>56.0</ele><time>2026-04-19T09:10:58.999Z</time></trkpt><trkpt lat="44.99582443291774" lon="9.93125134337259"><ele>56.0</ele><time>2026-04-19T09:10:59.999Z</time></trkpt><trkpt lat="44.99589447287739" lon="9.931277132130532"><ele>56.0</ele><time>2026-04-19T09:11:00.999Z</time></trkpt><trkpt lat="44.995961172251484" lon="9.931303892602635"><ele>56.0</ele><time>2026-04-19T09:11:01.999Z</time></trkpt><trkpt lat="44.99603442170815" lon="9.93133690132878"><ele>56.0</ele><time>2026-04-19T09:11:02.999Z</time></trkpt><trkpt lat="44.99610909947268" lon="9.931372464335272"><ele>56.0</ele><time>2026-04-19T09:11:03.999Z</time></trkpt><trkpt lat="44.99618344358604" lon="9.931401518308364"><ele>55.599999999999994</ele><time>2026-04-19T09:11:04.999Z</time></trkpt><trkpt lat="44.996255753826695" lon="9.931424199769713"><ele>55.199999999999996</ele><time>2026-04-19T09:11:05.999Z</time></trkpt><trkpt lat="44.99636145883369" lon="9.931468543006911"><ele>54.800000000000004</ele><time>2026-04-19T09:11:07.998Z</time></trkpt><trkpt lat="44.996484693460225" lon="9.93151874976719"><ele>54.400000000000006</ele><time>2026-04-19T09:11:09.998Z</time></trkpt><trkpt lat="44.996552803148795" lon="9.931544336600918"><ele>54.0</ele><time>2026-04-19T09:11:10.998Z</time></trkpt><trkpt lat="44.996623567296474" lon="9.93157336334823"><ele>54.0</ele><time>2026-04-19T09:11:11.998Z</time></trkpt><trkpt lat="44.99669641707952" lon="9.93160489807078"><ele>54.0</ele><time>2026-04-19T09:11:12.998Z</time></trkpt><trkpt lat="44.99677144411986" lon="9.931639619451051"><ele>54.0</ele><time>2026-04-19T09:11:13.998Z</time></trkpt><trkpt lat="44.99683902619582" lon="9.931674504457975"><ele>54.0</ele><time>2026-04-19T09:11:14.998Z</time></trkpt><trkpt lat="44.99690991236548" lon="9.93169734638739"><ele>54.0</ele><time>2026-04-19T09:11:15.998Z</time></trkpt><trkpt lat="44.99697772141668" lon="9.931723690733573"><ele>54.0</ele><time>2026-04-19T09:11:16.998Z</time></trkpt><trkpt lat="44.997042434535196" lon="9.931750780057422"><ele>54.0</ele><time>2026-04-19T09:11:17.998Z</time></trkpt><trkpt lat="44.997111461391846" lon="9.931783607068306"><ele>54.166666666666664</ele><time>2026-04-19T09:11:18.998Z</time></trkpt><trkpt lat="44.997185121875916" lon="9.93181756037408"><ele>54.33333333333333</ele><time>2026-04-19T09:11:19.998Z</time></trkpt><trkpt lat="44.99726243470359" lon="9.931847351595657"><ele>54.5</ele><time>2026-04-19T09:11:20.998Z</time></trkpt><trkpt lat="44.99733259485904" lon="9.931878820538676"><ele>54.666666666666664</ele><time>2026-04-19T09:11:21.998Z</time></trkpt><trkpt lat="44.997402764168406" lon="9.93190605194319"><ele>54.83333333333333</ele><time>2026-04-19T09:11:22.998Z</time></trkpt><trkpt lat="44.997475122027964" lon="9.93193662459908"><ele>55.0</ele><time>2026-04-19T09:11:23.998Z</time></trkpt><trkpt lat="44.99754811897502" lon="9.931966352652433"><ele>54.666666666666664</ele><time>2026-04-19T09:11:24.998Z</time></trkpt><trkpt lat="44.99761968116493" lon="9.931998125686386"><ele>54.33333333333333</ele><time>2026-04-19T09:11:25.998Z</time></trkpt><trkpt lat="44.99769127362332" lon="9.93202771323413"><ele>54.0</ele><time>2026-04-19T09:11:26.998Z</time></trkpt><trkpt lat="44.997763487615245" lon="9.932057514194174"><ele>53.66666666666667</ele><time>2026-04-19T09:11:27.998Z</time></trkpt><trkpt lat="44.99783616798145" lon="9.932088487923851"><ele>53.333333333333336</ele><time>2026-04-19T09:11:28.998Z</time></trkpt><trkpt lat="44.997909656697075" lon="9.932119321416355"><ele>53.0</ele><time>2026-04-19T09:11:29.998Z</time></trkpt><trkpt lat="44.99798318549727" lon="9.932147845023513"><ele>53.00000000000001</ele><time>2026-04-19T09:11:30.998Z</time></trkpt><trkpt lat="44.99806083975227" lon="9.932178509415865"><ele>53.0</ele><time>2026-04-19T09:11:31.998Z</time></trkpt><trkpt lat="44.998137529285" lon="9.932208459540414"><ele>53.0</ele><time>2026-04-19T09:11:32.998Z</time></trkpt><trkpt lat="44.99821469494986" lon="9.932240733127093"><ele>53.0</ele><time>2026-04-19T09:11:33.998Z</time></trkpt><trkpt lat="44.99829243329273" lon="9.932274756702581"><ele>53.00000000000001</ele><time>2026-04-19T09:11:34.998Z</time></trkpt><trkpt lat="44.99836751225733" lon="9.932305997412474"><ele>53.0</ele><time>2026-04-19T09:11:35.998Z</time></trkpt><trkpt lat="44.998445211242945" lon="9.932334309056694"><ele>52.333333333333336</ele><time>2026-04-19T09:11:36.998Z</time></trkpt><trkpt lat="44.998520915586916" lon="9.93236273857852"><ele>51.66666666666667</ele><time>2026-04-19T09:11:37.998Z</time></trkpt><trkpt lat="44.998596772903724" lon="9.932389256148054"><ele>51.0</ele><time>2026-04-19T09:11:38.998Z</time></trkpt><trkpt lat="44.99867139066233" lon="9.9324166542578"><ele>50.33333333333333</ele><time>2026-04-19T09:11:39.998Z</time></trkpt><trkpt lat="44.99874560161468" lon="9.93244757210776"><ele>49.666666666666664</ele><time>2026-04-19T09:11:40.998Z</time></trkpt><trkpt lat="44.99881696110882" lon="9.932480220080846"><ele>49.0</ele><time>2026-04-19T09:11:41.998Z</time></trkpt><trkpt lat="44.99888179124744" lon="9.932530716116162"><ele>48.99999999999999</ele><time>2026-04-19T09:11:42.998Z</time></trkpt><trkpt lat="44.99893136243018" lon="9.932610270916923"><ele>49.0</ele><time>2026-04-19T09:11:43.998Z</time></trkpt><trkpt lat="44.99895386723329" lon="9.932717900861872"><ele>49.0</ele><time>2026-04-19T09:11:44.998Z</time></trkpt><trkpt lat="44.99892572286587" lon="9.932830809685207"><ele>49.0</ele><time>2026-04-19T09:11:45.998Z</time></trkpt><trkpt lat="44.99892342034933" lon="9.932943607653646"><ele>48.99999999999999</ele><time>2026-04-19T09:11:46.998Z</time></trkpt><trkpt lat="44.998900112693484" lon="9.93304871933101"><ele>49.0</ele><time>2026-04-19T09:11:47.998Z</time></trkpt><trkpt lat="44.9988798907496" lon="9.93315655433395"><ele>48.99999999999999</ele><time>2026-04-19T09:11:48.998Z</time></trkpt><trkpt lat="44.99885884694237" lon="9.933264133029935"><ele>49.0</ele><time>2026-04-19T09:11:49.998Z</time></trkpt><trkpt lat="44.99883761507498" lon="9.93337331140495"><ele>49.0</ele><time>2026-04-19T09:11:50.998Z</time></trkpt><trkpt lat="44.9988158076166" lon="9.93348367326423"><ele>49.0</ele><time>2026-04-19T09:11:51.998Z</time></trkpt><trkpt lat="44.9987965452474" lon="9.933594939679692"><ele>48.99999999999999</ele><time>2026-04-19T09:11:52.998Z</time></trkpt><trkpt lat="44.998774742316726" lon="9.933705452992955"><ele>49.0</ele><time>2026-04-19T09:11:53.998Z</time></trkpt><trkpt lat="44.99874890473326" lon="9.933812009649841"><ele>48.99999999999999</ele><time>2026-04-19T09:11:54.998Z</time></trkpt><trkpt lat="44.99872592476566" lon="9.933922201817488"><ele>49.0</ele><time>2026-04-19T09:11:55.998Z</time></trkpt><trkpt lat="44.99869950236306" lon="9.934031905641362"><ele>49.0</ele><time>2026-04-19T09:11:56.998Z</time></trkpt><trkpt lat="44.99867452213928" lon="9.934144756510099"><ele>49.0</ele><time>2026-04-19T09:11:57.998Z</time></trkpt><trkpt lat="44.998651787587" lon="9.93425790593268"><ele>48.99999999999999</ele><time>2026-04-19T09:11:58.998Z</time></trkpt><trkpt lat="44.998629069905725" lon="9.934376137500081"><ele>49.0</ele><time>2026-04-19T09:11:59.997Z</time></trkpt><trkpt lat="44.998616493659405" lon="9.934493382567645"><ele>49.166666666666664</ele><time>2026-04-19T09:12:00.997Z</time></trkpt><trkpt lat="44.99860640470237" lon="9.93461171310117"><ele>49.33333333333333</ele><time>2026-04-19T09:12:01.997Z</time></trkpt><trkpt lat="44.99860764701474" lon="9.934734072232906"><ele>49.5</ele><time>2026-04-19T09:12:02.997Z</time></trkpt><trkpt lat="44.9986286602828" lon="9.934853818401601"><ele>49.66666666666667</ele><time>2026-04-19T09:12:03.997Z</time></trkpt><trkpt lat="44.9986657558407" lon="9.934966806193684"><ele>49.833333333333336</ele><time>2026-04-19T09:12:04.997Z</time></trkpt><trkpt lat="44.99871510615222" lon="9.935066330896486"><ele>50.0</ele><time>2026-04-19T09:12:05.999Z</time></trkpt><trkpt lat="44.99877813004737" lon="9.935151999545962"><ele>50.2</ele><time>2026-04-19T09:12:06.999Z</time></trkpt><trkpt lat="44.99885538242375" lon="9.935208857019306"><ele>50.4</ele><time>2026-04-19T09:12:07.999Z</time></trkpt><trkpt lat="44.99894435713893" lon="9.9352494904507"><ele>50.599999999999994</ele><time>2026-04-19T09:12:08.999Z</time></trkpt><trkpt lat="44.999034928632156" lon="9.935275964400157"><ele>50.8</ele><time>2026-04-19T09:12:09.999Z</time></trkpt><trkpt lat="44.999125781543164" lon="9.935302464745732"><ele>51.0</ele><time>2026-04-19T09:12:10.999Z</time></trkpt><trkpt lat="44.999215763920155" lon="9.935333105251873"><ele>50.199999999999996</ele><time>2026-04-19T09:12:11.999Z</time></trkpt><trkpt lat="44.99930447664237" lon="9.93537435497833"><ele>49.4</ele><time>2026-04-19T09:12:13Z</time></trkpt><trkpt lat="44.999393108435754" lon="9.935422884468494"><ele>48.6</ele><time>2026-04-19T09:12:13.999Z</time></trkpt><trkpt lat="44.99947981577398" lon="9.935479569327617"><ele>47.8</ele><time>2026-04-19T09:12:15Z</time></trkpt><trkpt lat="44.999563953361076" lon="9.935539801888584"><ele>47.0</ele><time>2026-04-19T09:12:16Z</time></trkpt><trkpt lat="44.999646850529075" lon="9.93559854129758"><ele>47.0</ele><time>2026-04-19T09:12:17Z</time></trkpt><trkpt lat="44.999729937347375" lon="9.935659971741368"><ele>47.0</ele><time>2026-04-19T09:12:18Z</time></trkpt><trkpt lat="44.99981242178993" lon="9.935718002451742"><ele>47.0</ele><time>2026-04-19T09:12:19Z</time></trkpt><trkpt lat="44.99989354235306" lon="9.935774827126712"><ele>47.0</ele><time>2026-04-19T09:12:20Z</time></trkpt><trkpt lat="44.99997942227272" lon="9.93583466865881"><ele>47.0</ele><time>2026-04-19T09:12:21Z</time></trkpt><trkpt lat="45.000064526337276" lon="9.935891429277802"><ele>47.0</ele><time>2026-04-19T09:12:21.999Z</time></trkpt><trkpt lat="45.00014888948872" lon="9.935953345670793"><ele>47.0</ele><time>2026-04-19T09:12:22.999Z</time></trkpt><trkpt lat="45.000234201833834" lon="9.9360137008971"><ele>47.0</ele><time>2026-04-19T09:12:23.999Z</time></trkpt><trkpt lat="45.00031969617198" lon="9.936073152783411"><ele>47.0</ele><time>2026-04-19T09:12:24.999Z</time></trkpt><trkpt lat="45.00040699121776" lon="9.93613452585276"><ele>47.0</ele><time>2026-04-19T09:12:25.999Z</time></trkpt><trkpt lat="45.0004900231621" lon="9.936198607888159"><ele>47.0</ele><time>2026-04-19T09:12:26.999Z</time></trkpt><trkpt lat="45.00057522311834" lon="9.936264982530835"><ele>47.0</ele><time>2026-04-19T09:12:27.999Z</time></trkpt><trkpt lat="45.00065996734683" lon="9.936336918789147"><ele>47.0</ele><time>2026-04-19T09:12:28.999Z</time></trkpt><trkpt lat="45.00074309440787" lon="9.936408643911058"><ele>47.0</ele><time>2026-04-19T09:12:29.999Z</time></trkpt><trkpt lat="45.000823464357765" lon="9.936483610410544"><ele>47.0</ele><time>2026-04-19T09:12:30.999Z</time></trkpt><trkpt lat="45.00090641111491" lon="9.936560971094043"><ele>47.2</ele><time>2026-04-19T09:12:31.999Z</time></trkpt><trkpt lat="45.000989059301716" lon="9.936637683601528"><ele>47.400000000000006</ele><time>2026-04-19T09:12:32.999Z</time></trkpt><trkpt lat="45.001070086624104" lon="9.936717626451914"><ele>47.599999999999994</ele><time>2026-04-19T09:12:33.999Z</time></trkpt><trkpt lat="45.001152668301636" lon="9.936797835110381"><ele>47.8</ele><time>2026-04-19T09:12:34.999Z</time></trkpt><trkpt lat="45.001235246095305" lon="9.936874789534906"><ele>48.0</ele><time>2026-04-19T09:12:35.999Z</time></trkpt><trkpt lat="45.001317362846684" lon="9.93695335003732"><ele>48.2</ele><time>2026-04-19T09:12:36.999Z</time></trkpt><trkpt lat="45.00140052792139" lon="9.937033334283049"><ele>48.4</ele><time>2026-04-19T09:12:37.999Z</time></trkpt><trkpt lat="45.00148245411289" lon="9.937113178766154"><ele>48.6</ele><time>2026-04-19T09:12:38.999Z</time></trkpt><trkpt lat="45.001565104673496" lon="9.937191570797028"><ele>48.800000000000004</ele><time>2026-04-19T09:12:39.999Z</time></trkpt><trkpt lat="45.001647487703345" lon="9.93726860485951"><ele>49.0</ele><time>2026-04-19T09:12:40.999Z</time></trkpt><trkpt lat="45.00172889433498" lon="9.937346772150699"><ele>49.0</ele><time>2026-04-19T09:12:41.999Z</time></trkpt><trkpt lat="45.00180973999729" lon="9.937425439553857"><ele>49.0</ele><time>2026-04-19T09:12:42.999Z</time></trkpt><trkpt lat="45.0018910105817" lon="9.937505364608992"><ele>49.0</ele><time>2026-04-19T09:12:43.999Z</time></trkpt><trkpt lat="45.001973362154146" lon="9.937581969827374"><ele>49.0</ele><time>2026-04-19T09:12:44.999Z</time></trkpt><trkpt lat="45.00205334699554" lon="9.937657815349272"><ele>49.0</ele><time>2026-04-19T09:12:45.999Z</time></trkpt><trkpt lat="45.002134788569876" lon="9.937735229185488"><ele>49.0</ele><time>2026-04-19T09:12:46.999Z</time></trkpt><trkpt lat="45.00221590608104" lon="9.937811667970019"><ele>49.0</ele><time>2026-04-19T09:12:47.999Z</time></trkpt><trkpt lat="45.0022980966996" lon="9.937886588285258"><ele>49.0</ele><time>2026-04-19T09:12:48.999Z</time></trkpt><trkpt lat="45.00237938851243" lon="9.937963943970468"><ele>49.0</ele><time>2026-04-19T09:12:49.999Z</time></trkpt><trkpt lat="45.002460782144425" lon="9.938039737172014"><ele>49.0</ele><time>2026-04-19T09:12:50.999Z</time></trkpt><trkpt lat="45.002541717041304" lon="9.938117242332073"><ele>49.2</ele><time>2026-04-19T09:12:51.999Z</time></trkpt><trkpt lat="45.00262177723275" lon="9.938193891229846"><ele>49.400000000000006</ele><time>2026-04-19T09:12:52.999Z</time></trkpt><trkpt lat="45.00270287955385" lon="9.938270019862138"><ele>49.6</ele><time>2026-04-19T09:12:53.999Z</time></trkpt><trkpt lat="45.00278555619913" lon="9.938342588857223"><ele>49.8</ele><time>2026-04-19T09:12:54.999Z</time></trkpt><trkpt lat="45.0028696849939" lon="9.938413778568616"><ele>50.0</ele><time>2026-04-19T09:12:55.999Z</time></trkpt><trkpt lat="45.0029529490844" lon="9.938485391516009"><ele>50.0</ele><time>2026-04-19T09:12:56.999Z</time></trkpt><trkpt lat="45.00303583570031" lon="9.938557672775659"><ele>50.0</ele><time>2026-04-19T09:12:57.999Z</time></trkpt><trkpt lat="45.00312234213634" lon="9.938628771481534"><ele>50.0</ele><time>2026-04-19T09:12:58.999Z</time></trkpt><trkpt lat="45.003208735164144" lon="9.938700650260111"><ele>50.0</ele><time>2026-04-19T09:12:59.999Z</time></trkpt><trkpt lat="45.00329569880975" lon="9.938777637750254"><ele>50.0</ele><time>2026-04-19T09:13:00.999Z</time></trkpt><trkpt lat="45.00338123850389" lon="9.93885488648102"><ele>49.4</ele><time>2026-04-19T09:13:01.999Z</time></trkpt><trkpt lat="45.00346626441381" lon="9.938930392771221"><ele>48.8</ele><time>2026-04-19T09:13:02.999Z</time></trkpt><trkpt lat="45.00354723031326" lon="9.939013871551367"><ele>48.2</ele><time>2026-04-19T09:13:03.999Z</time></trkpt><trkpt lat="45.00362915271228" lon="9.939096150403122"><ele>47.6</ele><time>2026-04-19T09:13:04.999Z</time></trkpt><trkpt lat="45.00370994305176" lon="9.939182263061397"><ele>47.0</ele><time>2026-04-19T09:13:05.999Z</time></trkpt><trkpt lat="45.00378740989102" lon="9.939269567912508"><ele>47.0</ele><time>2026-04-19T09:13:06.999Z</time></trkpt><trkpt lat="45.00386593426409" lon="9.939359839382728"><ele>47.0</ele><time>2026-04-19T09:13:07.999Z</time></trkpt><trkpt lat="45.00394283230259" lon="9.939449107624865"><ele>47.0</ele><time>2026-04-19T09:13:08.999Z</time></trkpt><trkpt lat="45.004021274345995" lon="9.93953718572196"><ele>47.0</ele><time>2026-04-19T09:13:09.999Z</time></trkpt><trkpt lat="45.00409749506035" lon="9.939625764664402"><ele>47.0</ele><time>2026-04-19T09:13:10.999Z</time></trkpt><trkpt lat="45.00417460850628" lon="9.939717137248596"><ele>47.2</ele><time>2026-04-19T09:13:11.999Z</time></trkpt><trkpt lat="45.004251051597095" lon="9.939807803733895"><ele>47.400000000000006</ele><time>2026-04-19T09:13:12.999Z</time></trkpt><trkpt lat="45.00432685070027" lon="9.939895015639944"><ele>47.599999999999994</ele><time>2026-04-19T09:13:13.999Z</time></trkpt><trkpt lat="45.004402447891735" lon="9.939986262888262"><ele>47.8</ele><time>2026-04-19T09:13:14.999Z</time></trkpt><trkpt lat="45.00447763071019" lon="9.940078271571473"><ele>48.0</ele><time>2026-04-19T09:13:15.999Z</time></trkpt><trkpt lat="45.004554240408446" lon="9.94016900630208"><ele>48.0</ele><time>2026-04-19T09:13:16.998Z</time></trkpt><trkpt lat="45.004629630220954" lon="9.940258930967367"><ele>48.0</ele><time>2026-04-19T09:13:17.998Z</time></trkpt><trkpt lat="45.004704226471276" lon="9.9403492533133"><ele>48.0</ele><time>2026-04-19T09:13:18.998Z</time></trkpt><trkpt lat="45.00477955596331" lon="9.940441506335809"><ele>48.0</ele><time>2026-04-19T09:13:19.998Z</time></trkpt><trkpt lat="45.00485503520979" lon="9.940530480989057"><ele>48.0</ele><time>2026-04-19T09:13:20.998Z</time></trkpt><trkpt lat="45.00492911599458" lon="9.940620681644603"><ele>47.8</ele><time>2026-04-19T09:13:21.998Z</time></trkpt><trkpt lat="45.0050041595016" lon="9.940711754594044"><ele>47.599999999999994</ele><time>2026-04-19T09:13:22.998Z</time></trkpt><trkpt lat="45.00507851579732" lon="9.94080155831513"><ele>47.400000000000006</ele><time>2026-04-19T09:13:23.998Z</time></trkpt><trkpt lat="45.00515177613371" lon="9.94089277870297"><ele>47.2</ele><time>2026-04-19T09:13:24.998Z</time></trkpt><trkpt lat="45.00522630088219" lon="9.940985198118609"><ele>47.0</ele><time>2026-04-19T09:13:25.998Z</time></trkpt><trkpt lat="45.005300722198335" lon="9.941075989028038"><ele>47.400000000000006</ele><time>2026-04-19T09:13:26.998Z</time></trkpt><trkpt lat="45.00537521020996" lon="9.94116616935582"><ele>47.800000000000004</ele><time>2026-04-19T09:13:27.998Z</time></trkpt><trkpt lat="45.00544899012154" lon="9.941256658290495"><ele>48.2</ele><time>2026-04-19T09:13:28.998Z</time></trkpt><trkpt lat="45.005523182942255" lon="9.94134527860999"><ele>48.6</ele><time>2026-04-19T09:13:29.998Z</time></trkpt><trkpt lat="45.00559655294472" lon="9.941434492178965"><ele>49.0</ele><time>2026-04-19T09:13:30.998Z</time></trkpt><trkpt lat="45.00566868323628" lon="9.94152459659885"><ele>49.0</ele><time>2026-04-19T09:13:31.998Z</time></trkpt><trkpt lat="45.005740378082976" lon="9.941614002412065"><ele>49.0</ele><time>2026-04-19T09:13:32.998Z</time></trkpt><trkpt lat="45.00581382536741" lon="9.941700986232851"><ele>49.0</ele><time>2026-04-19T09:13:33.998Z</time></trkpt><trkpt lat="45.005887177925665" lon="9.94179017926616"><ele>49.0</ele><time>2026-04-19T09:13:34.998Z</time></trkpt><trkpt lat="45.00596169729229" lon="9.941875512530682"><ele>49.0</ele><time>2026-04-19T09:13:35.998Z</time></trkpt><trkpt lat="45.00603673888154" lon="9.94195814547753"><ele>49.0</ele><time>2026-04-19T09:13:36.998Z</time></trkpt><trkpt lat="45.00611598622614" lon="9.942034763946724"><ele>49.0</ele><time>2026-04-19T09:13:37.998Z</time></trkpt><trkpt lat="45.00619689346502" lon="9.942106523528782"><ele>49.0</ele><time>2026-04-19T09:13:38.998Z</time></trkpt><trkpt lat="45.00628393246704" lon="9.942165413410176"><ele>49.0</ele><time>2026-04-19T09:13:39.998Z</time></trkpt><trkpt lat="45.00637318067169" lon="9.942214256309212"><ele>49.0</ele><time>2026-04-19T09:13:40.998Z</time></trkpt><trkpt lat="45.006467115488135" lon="9.942255766631034"><ele>49.0</ele><time>2026-04-19T09:13:41.998Z</time></trkpt><trkpt lat="45.00656059355723" lon="9.942291653543588"><ele>49.0</ele><time>2026-04-19T09:13:42.998Z</time></trkpt><trkpt lat="45.00665581514981" lon="9.94232631725427"><ele>49.0</ele><time>2026-04-19T09:13:43.998Z</time></trkpt><trkpt lat="45.00674895312145" lon="9.942359966761092"><ele>49.0</ele><time>2026-04-19T09:13:44.998Z</time></trkpt><trkpt lat="45.00684467362144" lon="9.942389491480426"><ele>49.0</ele><time>2026-04-19T09:13:45.998Z</time></trkpt><trkpt lat="45.0069379634901" lon="9.942423411342517"><ele>48.800000000000004</ele><time>2026-04-19T09:13:46.998Z</time></trkpt><trkpt lat="45.00703373377331" lon="9.942458274156628"><ele>48.6</ele><time>2026-04-19T09:13:47.998Z</time></trkpt><trkpt lat="45.007126831089664" lon="9.942490024233251"><ele>48.4</ele><time>2026-04-19T09:13:48.998Z</time></trkpt><trkpt lat="45.0072197609997" lon="9.942524357677762"><ele>48.2</ele><time>2026-04-19T09:13:49.998Z</time></trkpt><trkpt lat="45.00731288253722" lon="9.942558791394916"><ele>48.0</ele><time>2026-04-19T09:13:50.998Z</time></trkpt><trkpt lat="45.007407790833554" lon="9.942593202282506"><ele>47.8</ele><time>2026-04-19T09:13:51.998Z</time></trkpt><trkpt lat="45.00750312521654" lon="9.942625240862046"><ele>47.599999999999994</ele><time>2026-04-19T09:13:52.998Z</time></trkpt><trkpt lat="45.00759706968182" lon="9.942661749699507"><ele>47.400000000000006</ele><time>2026-04-19T09:13:53.998Z</time></trkpt><trkpt lat="45.007692110480484" lon="9.942695643431758"><ele>47.2</ele><time>2026-04-19T09:13:54.998Z</time></trkpt><trkpt lat="45.007786218296864" lon="9.942730599372986"><ele>47.0</ele><time>2026-04-19T09:13:55.998Z</time></trkpt><trkpt lat="45.007882351207186" lon="9.942768721475952"><ele>47.0</ele><time>2026-04-19T09:13:56.998Z</time></trkpt><trkpt lat="45.00797756748882" lon="9.942805430555316"><ele>47.0</ele><time>2026-04-19T09:13:57.998Z</time></trkpt><trkpt lat="45.00807169484967" lon="9.942842032579495"><ele>47.0</ele><time>2026-04-19T09:13:58.998Z</time></trkpt><trkpt lat="45.008166185835734" lon="9.94287671511378"><ele>47.0</ele><time>2026-04-19T09:13:59.998Z</time></trkpt><trkpt lat="45.00826151707565" lon="9.9429127062499"><ele>47.0</ele><time>2026-04-19T09:14:00.998Z</time></trkpt><trkpt lat="45.008355245278665" lon="9.942949554802114"><ele>46.400000000000006</ele><time>2026-04-19T09:14:01.998Z</time></trkpt><trkpt lat="45.00844878896316" lon="9.94298300035536"><ele>45.800000000000004</ele><time>2026-04-19T09:14:02.998Z</time></trkpt><trkpt lat="45.00854185317254" lon="9.943017438587837"><ele>45.2</ele><time>2026-04-19T09:14:03.998Z</time></trkpt><trkpt lat="45.008634168313044" lon="9.943051061214272"><ele>44.6</ele><time>2026-04-19T09:14:04.998Z</time></trkpt><trkpt lat="45.00872513129129" lon="9.943087842687447"><ele>44.0</ele><time>2026-04-19T09:14:05.998Z</time></trkpt><trkpt lat="45.008816922696745" lon="9.943122971163888"><ele>44.0</ele><time>2026-04-19T09:14:06.998Z</time></trkpt><trkpt lat="45.00890842539709" lon="9.943158484831459"><ele>44.0</ele><time>2026-04-19T09:14:07.998Z</time></trkpt><trkpt lat="45.008999890989756" lon="9.943194299010191"><ele>44.0</ele><time>2026-04-19T09:14:08.998Z</time></trkpt><trkpt lat="45.009091401290746" lon="9.943230782782692"><ele>44.0</ele><time>2026-04-19T09:14:09.997Z</time></trkpt><trkpt lat="45.00918318804251" lon="9.94326463287311"><ele>44.0</ele><time>2026-04-19T09:14:10.997Z</time></trkpt><trkpt lat="45.009274694431745" lon="9.943298610193006"><ele>44.2</ele><time>2026-04-19T09:14:12Z</time></trkpt><trkpt lat="45.00936652729617" lon="9.943331807022242"><ele>44.400000000000006</ele><time>2026-04-19T09:14:13Z</time></trkpt><trkpt lat="45.00945806628376" lon="9.943367440228624"><ele>44.6</ele><time>2026-04-19T09:14:14Z</time></trkpt><trkpt lat="45.009550950200776" lon="9.943402506096438"><ele>44.8</ele><time>2026-04-19T09:14:15Z</time></trkpt><trkpt lat="45.00964240252846" lon="9.943438460356665"><ele>45.0</ele><time>2026-04-19T09:14:16Z</time></trkpt><trkpt lat="45.00973416002966" lon="9.943471837823134"><ele>45.2</ele><time>2026-04-19T09:14:17Z</time></trkpt><trkpt lat="45.009825800444204" lon="9.943505925810983"><ele>45.4</ele><time>2026-04-19T09:14:18Z</time></trkpt><trkpt lat="45.00991671219834" lon="9.94353872942511"><ele>45.599999999999994</ele><time>2026-04-19T09:14:19Z</time></trkpt><trkpt lat="45.01000681930248" lon="9.943573643017727"><ele>45.8</ele><time>2026-04-19T09:14:20Z</time></trkpt><trkpt lat="45.01009860261801" lon="9.943605759416092"><ele>46.0</ele><time>2026-04-19T09:14:21Z</time></trkpt><trkpt lat="45.0101911441273" lon="9.943640837687797"><ele>46.0</ele><time>2026-04-19T09:14:22Z</time></trkpt><trkpt lat="45.01028430851516" lon="9.943671061952871"><ele>46.0</ele><time>2026-04-19T09:14:23Z</time></trkpt><trkpt lat="45.01037781703123" lon="9.943702531368858"><ele>46.0</ele><time>2026-04-19T09:14:24Z</time></trkpt><trkpt lat="45.01047126265688" lon="9.943732182623158"><ele>46.0</ele><time>2026-04-19T09:14:25Z</time></trkpt><trkpt lat="45.01056373061883" lon="9.943761843563644"><ele>46.0</ele><time>2026-04-19T09:14:26Z</time></trkpt><trkpt lat="45.01065703404951" lon="9.943789346902344"><ele>46.0</ele><time>2026-04-19T09:14:27Z</time></trkpt><trkpt lat="45.01075011180021" lon="9.943818656470965"><ele>46.0</ele><time>2026-04-19T09:14:28Z</time></trkpt><trkpt lat="45.01084448862517" lon="9.94384716398484"><ele>46.0</ele><time>2026-04-19T09:14:28.999Z</time></trkpt><trkpt lat="45.010937913306854" lon="9.943876691891049"><ele>46.0</ele><time>2026-04-19T09:14:29.999Z</time></trkpt><trkpt lat="45.01103322606282" lon="9.94390585346598"><ele>46.0</ele><time>2026-04-19T09:14:30.999Z</time></trkpt><trkpt lat="45.01112656075655" lon="9.943935662668927"><ele>46.0</ele><time>2026-04-19T09:14:31.999Z</time></trkpt><trkpt lat="45.011219916889196" lon="9.943964812060479"><ele>46.0</ele><time>2026-04-19T09:14:32.999Z</time></trkpt><trkpt lat="45.01131350430673" lon="9.943993562766105"><ele>46.0</ele><time>2026-04-19T09:14:33.999Z</time></trkpt><trkpt lat="45.01140604276263" lon="9.944023002288429"><ele>46.0</ele><time>2026-04-19T09:14:34.999Z</time></trkpt><trkpt lat="45.01149672015696" lon="9.944051714993401"><ele>46.0</ele><time>2026-04-19T09:14:35.999Z</time></trkpt><trkpt lat="45.01158887940238" lon="9.944077628699622"><ele>46.0</ele><time>2026-04-19T09:14:36.999Z</time></trkpt><trkpt lat="45.011680932778276" lon="9.94410761127132"><ele>46.0</ele><time>2026-04-19T09:14:37.999Z</time></trkpt><trkpt lat="45.01177259202867" lon="9.944135123436544"><ele>46.0</ele><time>2026-04-19T09:14:38.999Z</time></trkpt><trkpt lat="45.01186377706007" lon="9.9441631273463"><ele>46.0</ele><time>2026-04-19T09:14:39.999Z</time></trkpt><trkpt lat="45.01195673282959" lon="9.944188651263065"><ele>46.0</ele><time>2026-04-19T09:14:40.999Z</time></trkpt><trkpt lat="45.01204981739306" lon="9.944212533614872"><ele>45.599999999999994</ele><time>2026-04-19T09:14:41.999Z</time></trkpt><trkpt lat="45.01214436130879" lon="9.944233485485833"><ele>45.2</ele><time>2026-04-19T09:14:42.999Z</time></trkpt><trkpt lat="45.01223818183766" lon="9.944256529391055"><ele>44.8</ele><time>2026-04-19T09:14:43.999Z</time></trkpt><trkpt lat="45.01233069667657" lon="9.944280806015849"><ele>44.400000000000006</ele><time>2026-04-19T09:14:44.999Z</time></trkpt><trkpt lat="45.01241968815141" lon="9.94430509283018"><ele>44.0</ele><time>2026-04-19T09:14:45.999Z</time></trkpt><trkpt lat="45.01251226940278" lon="9.944328931404996"><ele>44.0</ele><time>2026-04-19T09:14:46.999Z</time></trkpt><trkpt lat="45.01260568555515" lon="9.944350464123788"><ele>44.0</ele><time>2026-04-19T09:14:47.999Z</time></trkpt><trkpt lat="45.012700066775686" lon="9.94437737598778"><ele>44.0</ele><time>2026-04-19T09:14:48.999Z</time></trkpt><trkpt lat="45.0127925423562" lon="9.944404645584484"><ele>44.0</ele><time>2026-04-19T09:14:49.999Z</time></trkpt><trkpt lat="45.012884764312545" lon="9.944429316110266"><ele>44.0</ele><time>2026-04-19T09:14:50.999Z</time></trkpt><trkpt lat="45.01297775235943" lon="9.944460941896827"><ele>44.0</ele><time>2026-04-19T09:14:51.999Z</time></trkpt><trkpt lat="45.013068782968105" lon="9.944500753850505"><ele>44.0</ele><time>2026-04-19T09:14:52.999Z</time></trkpt><trkpt lat="45.01315823395996" lon="9.944542731190225"><ele>44.0</ele><time>2026-04-19T09:14:53.999Z</time></trkpt><trkpt lat="45.01324516886503" lon="9.94459150522075"><ele>44.0</ele><time>2026-04-19T09:14:54.999Z</time></trkpt><trkpt lat="45.013331485472925" lon="9.944642216933934"><ele>44.0</ele><time>2026-04-19T09:14:55.999Z</time></trkpt><trkpt lat="45.01341542793265" lon="9.944698711126058"><ele>44.0</ele><time>2026-04-19T09:14:56.999Z</time></trkpt><trkpt lat="45.01349938529444" lon="9.944754040240465"><ele>44.0</ele><time>2026-04-19T09:14:57.999Z</time></trkpt><trkpt lat="45.013584189307096" lon="9.944810171125424"><ele>44.0</ele><time>2026-04-19T09:14:58.999Z</time></trkpt><trkpt lat="45.01366797208808" lon="9.94486986276584"><ele>44.0</ele><time>2026-04-19T09:14:59.999Z</time></trkpt><trkpt lat="45.01374971423385" lon="9.944929884989747"><ele>44.0</ele><time>2026-04-19T09:15:00.999Z</time></trkpt><trkpt lat="45.01382793055968" lon="9.94499274569466"><ele>44.0</ele><time>2026-04-19T09:15:01.999Z</time></trkpt><trkpt lat="45.013906678437486" lon="9.945058251831991"><ele>44.0</ele><time>2026-04-19T09:15:02.999Z</time></trkpt><trkpt lat="45.013985847907676" lon="9.94512080944634"><ele>44.0</ele><time>2026-04-19T09:15:03.999Z</time></trkpt><trkpt lat="45.014065721704114" lon="9.94518463760397"><ele>44.0</ele><time>2026-04-19T09:15:04.999Z</time></trkpt><trkpt lat="45.014146112164845" lon="9.945247519039047"><ele>44.0</ele><time>2026-04-19T09:15:05.999Z</time></trkpt><trkpt lat="45.01422570331575" lon="9.945313741787325"><ele>44.0</ele><time>2026-04-19T09:15:06.999Z</time></trkpt><trkpt lat="45.01430659617933" lon="9.945381218576111"><ele>44.0</ele><time>2026-04-19T09:15:07.999Z</time></trkpt><trkpt lat="45.01438694786089" lon="9.945447103145208"><ele>44.0</ele><time>2026-04-19T09:15:08.999Z</time></trkpt><trkpt lat="45.01446774140573" lon="9.94551194657388"><ele>44.0</ele><time>2026-04-19T09:15:09.999Z</time></trkpt><trkpt lat="45.01454714390825" lon="9.945577447512145"><ele>44.0</ele><time>2026-04-19T09:15:10.999Z</time></trkpt><trkpt lat="45.01462669091368" lon="9.945642989447656"><ele>44.0</ele><time>2026-04-19T09:15:11.999Z</time></trkpt><trkpt lat="45.0147078672891" lon="9.945710274351702"><ele>44.0</ele><time>2026-04-19T09:15:12.999Z</time></trkpt><trkpt lat="45.01478952138793" lon="9.94577551196447"><ele>44.0</ele><time>2026-04-19T09:15:13.999Z</time></trkpt><trkpt lat="45.01487165803368" lon="9.945837424901498"><ele>44.0</ele><time>2026-04-19T09:15:14.999Z</time></trkpt><trkpt lat="45.01495335373556" lon="9.945900911813787"><ele>44.0</ele><time>2026-04-19T09:15:15.999Z</time></trkpt><trkpt lat="45.015032520010045" lon="9.945968458745533"><ele>44.400000000000006</ele><time>2026-04-19T09:15:16.999Z</time></trkpt><trkpt lat="45.01511144854208" lon="9.946033845475243"><ele>44.8</ele><time>2026-04-19T09:15:17.999Z</time></trkpt><trkpt lat="45.01519148312197" lon="9.946099674139868"><ele>45.2</ele><time>2026-04-19T09:15:18.999Z</time></trkpt><trkpt lat="45.01527194303499" lon="9.946165598643018"><ele>45.599999999999994</ele><time>2026-04-19T09:15:19.999Z</time></trkpt><trkpt lat="45.01535322500879" lon="9.946231231123676"><ele>46.0</ele><time>2026-04-19T09:15:20.999Z</time></trkpt><trkpt lat="45.015433482155984" lon="9.946299323745526"><ele>46.0</ele><time>2026-04-19T09:15:21.999Z</time></trkpt><trkpt lat="45.01551472566062" lon="9.946366127316336"><ele>46.0</ele><time>2026-04-19T09:15:22.998Z</time></trkpt><trkpt lat="45.015595402460725" lon="9.946434042297678"><ele>46.0</ele><time>2026-04-19T09:15:23.998Z</time></trkpt><trkpt lat="45.01567687529493" lon="9.946498646161617"><ele>46.0</ele><time>2026-04-19T09:15:24.998Z</time></trkpt><trkpt lat="45.01575907178472" lon="9.946567001782121"><ele>46.0</ele><time>2026-04-19T09:15:25.998Z</time></trkpt><trkpt lat="45.01584024122107" lon="9.946633868752143"><ele>46.0</ele><time>2026-04-19T09:15:26.998Z</time></trkpt><trkpt lat="45.01592263696923" lon="9.946699604843506"><ele>46.0</ele><time>2026-04-19T09:15:27.998Z</time></trkpt><trkpt lat="45.01600534610565" lon="9.946765967922268"><ele>46.0</ele><time>2026-04-19T09:15:28.998Z</time></trkpt><trkpt lat="45.016088517561265" lon="9.946832351352127"><ele>46.0</ele><time>2026-04-19T09:15:29.998Z</time></trkpt><trkpt lat="45.016172505360544" lon="9.94689702106138"><ele>46.0</ele><time>2026-04-19T09:15:30.998Z</time></trkpt><trkpt lat="45.0162555666181" lon="9.946958547534793"><ele>46.0</ele><time>2026-04-19T09:15:31.998Z</time></trkpt><trkpt lat="45.016340601820836" lon="9.947013566313533"><ele>46.0</ele><time>2026-04-19T09:15:32.998Z</time></trkpt><trkpt lat="45.016425835816385" lon="9.947065605494238"><ele>46.0</ele><time>2026-04-19T09:15:33.998Z</time></trkpt><trkpt lat="45.01650914914852" lon="9.947115492101858"><ele>46.0</ele><time>2026-04-19T09:15:34.998Z</time></trkpt><trkpt lat="45.01659499323769" lon="9.947165325832326"><ele>46.0</ele><time>2026-04-19T09:15:35.998Z</time></trkpt><trkpt lat="45.016681217111596" lon="9.947211323978607"><ele>45.8</ele><time>2026-04-19T09:15:36.998Z</time></trkpt><trkpt lat="45.01676928741772" lon="9.94725242449153"><ele>45.599999999999994</ele><time>2026-04-19T09:15:37.998Z</time></trkpt><trkpt lat="45.016860963020854" lon="9.947292319422335"><ele>45.4</ele><time>2026-04-19T09:15:38.998Z</time></trkpt><trkpt lat="45.01695325313163" lon="9.94733003514822"><ele>45.2</ele><time>2026-04-19T09:15:39.998Z</time></trkpt><trkpt lat="45.017043897585665" lon="9.947363255101369"><ele>45.0</ele><time>2026-04-19T09:15:40.998Z</time></trkpt><trkpt lat="45.017134775567364" lon="9.947397640679696"><ele>45.0</ele><time>2026-04-19T09:15:41.998Z</time></trkpt><trkpt lat="45.017224452101075" lon="9.947431751445126"><ele>45.0</ele><time>2026-04-19T09:15:42.998Z</time></trkpt><trkpt lat="45.01731433660935" lon="9.947464845835459"><ele>45.0</ele><time>2026-04-19T09:15:43.998Z</time></trkpt><trkpt lat="45.01740466313402" lon="9.947499698648576"><ele>45.0</ele><time>2026-04-19T09:15:44.998Z</time></trkpt><trkpt lat="45.01749352543166" lon="9.947536985849213"><ele>45.0</ele><time>2026-04-19T09:15:45.998Z</time></trkpt><trkpt lat="45.01758429021676" lon="9.947568225015571"><ele>45.2</ele><time>2026-04-19T09:15:46.998Z</time></trkpt><trkpt lat="45.017673097311786" lon="9.947601827894204"><ele>45.4</ele><time>2026-04-19T09:15:47.998Z</time></trkpt><trkpt lat="45.01776276925213" lon="9.947639134809469"><ele>45.599999999999994</ele><time>2026-04-19T09:15:48.998Z</time></trkpt><trkpt lat="45.01785134632886" lon="9.94767480522943"><ele>45.8</ele><time>2026-04-19T09:15:49.998Z</time></trkpt><trkpt lat="45.0179391496027" lon="9.947712055886852"><ele>46.0</ele><time>2026-04-19T09:15:50.998Z</time></trkpt><trkpt lat="45.018024699348665" lon="9.947756707949255"><ele>46.0</ele><time>2026-04-19T09:15:51.998Z</time></trkpt><trkpt lat="45.01810912320919" lon="9.947801953732844"><ele>46.0</ele><time>2026-04-19T09:15:52.998Z</time></trkpt><trkpt lat="45.01819389861409" lon="9.947848625193847"><ele>46.0</ele><time>2026-04-19T09:15:53.998Z</time></trkpt><trkpt lat="45.01827789944804" lon="9.94789728609394"><ele>46.0</ele><time>2026-04-19T09:15:54.998Z</time></trkpt><trkpt lat="45.01836243696237" lon="9.9479468901134"><ele>46.0</ele><time>2026-04-19T09:15:55.998Z</time></trkpt><trkpt lat="45.018446506543555" lon="9.947997787833692"><ele>46.0</ele><time>2026-04-19T09:15:56.998Z</time></trkpt><trkpt lat="45.01852849279795" lon="9.94805043347791"><ele>46.0</ele><time>2026-04-19T09:15:57.998Z</time></trkpt><trkpt lat="45.01860802107681" lon="9.948105050196217"><ele>46.0</ele><time>2026-04-19T09:15:58.998Z</time></trkpt><trkpt lat="45.018690656203916" lon="9.948152667806408"><ele>46.0</ele><time>2026-04-19T09:15:59.998Z</time></trkpt><trkpt lat="45.018773998069285" lon="9.948195607282754"><ele>46.0</ele><time>2026-04-19T09:16:00.998Z</time></trkpt><trkpt lat="45.01886117710556" lon="9.948223169722171"><ele>46.0</ele><time>2026-04-19T09:16:01.998Z</time></trkpt><trkpt lat="45.01894996626444" lon="9.94824596737066"><ele>46.0</ele><time>2026-04-19T09:16:02.998Z</time></trkpt><trkpt lat="45.01903872387522" lon="9.94825928785266"><ele>46.0</ele><time>2026-04-19T09:16:03.998Z</time></trkpt><trkpt lat="45.01913041872809" lon="9.948273204922172"><ele>46.0</ele><time>2026-04-19T09:16:04.998Z</time></trkpt><trkpt lat="45.01922149069119" lon="9.94828311692544"><ele>46.0</ele><time>2026-04-19T09:16:05.998Z</time></trkpt><trkpt lat="45.019313279840134" lon="9.948292770881233"><ele>46.0</ele><time>2026-04-19T09:16:06.998Z</time></trkpt><trkpt lat="45.01940759161031" lon="9.948302202661443"><ele>46.0</ele><time>2026-04-19T09:16:07.998Z</time></trkpt><trkpt lat="45.0195009648504" lon="9.948314242765322"><ele>46.0</ele><time>2026-04-19T09:16:08.998Z</time></trkpt><trkpt lat="45.019594169972436" lon="9.948322731070725"><ele>46.0</ele><time>2026-04-19T09:16:09.998Z</time></trkpt><trkpt lat="45.01968823476276" lon="9.948327290512776"><ele>46.0</ele><time>2026-04-19T09:16:10.998Z</time></trkpt><trkpt lat="45.01978145290179" lon="9.948329372805746"><ele>46.0</ele><time>2026-04-19T09:16:11.998Z</time></trkpt><trkpt lat="45.01987594025569" lon="9.94833099292986"><ele>46.0</ele><time>2026-04-19T09:16:12.998Z</time></trkpt><trkpt lat="45.01996868400836" lon="9.94833651991284"><ele>46.0</ele><time>2026-04-19T09:16:13.998Z</time></trkpt><trkpt lat="45.02006144507444" lon="9.948342972315588"><ele>46.0</ele><time>2026-04-19T09:16:14.998Z</time></trkpt><trkpt lat="45.02015451042715" lon="9.948350140480454"><ele>46.0</ele><time>2026-04-19T09:16:15.997Z</time></trkpt><trkpt lat="45.02024903084697" lon="9.948357673912357"><ele>46.0</ele><time>2026-04-19T09:16:16.997Z</time></trkpt><trkpt lat="45.0203474947154" lon="9.948365391192771"><ele>46.599999999999994</ele><time>2026-04-19T09:16:18Z</time></trkpt><trkpt lat="45.02044542538392" lon="9.94837804396881"><ele>47.2</ele><time>2026-04-19T09:16:19Z</time></trkpt><trkpt lat="45.020541254731896" lon="9.948393168925296"><ele>47.8</ele><time>2026-04-19T09:16:20Z</time></trkpt><trkpt lat="45.020632663649465" lon="9.94840642712379"><ele>48.400000000000006</ele><time>2026-04-19T09:16:21Z</time></trkpt><trkpt lat="45.020724089534966" lon="9.948423388872184"><ele>49.0</ele><time>2026-04-19T09:16:22Z</time></trkpt><trkpt lat="45.02081257757757" lon="9.948440752459948"><ele>49.666666666666664</ele><time>2026-04-19T09:16:23Z</time></trkpt><trkpt lat="45.020899815505764" lon="9.948455484149537"><ele>50.33333333333333</ele><time>2026-04-19T09:16:24Z</time></trkpt><trkpt lat="45.02098589079814" lon="9.94847247979616"><ele>51.0</ele><time>2026-04-19T09:16:25Z</time></trkpt><trkpt lat="45.02107094023016" lon="9.948500553900848"><ele>51.66666666666667</ele><time>2026-04-19T09:16:26Z</time></trkpt><trkpt lat="45.021152877309206" lon="9.948538942994244"><ele>52.333333333333336</ele><time>2026-04-19T09:16:27Z</time></trkpt><trkpt lat="45.021230794962385" lon="9.948574155382854"><ele>53.0</ele><time>2026-04-19T09:16:28Z</time></trkpt><trkpt lat="45.021305830865174" lon="9.948604060465765"><ele>53.00000000000001</ele><time>2026-04-19T09:16:29Z</time></trkpt><trkpt lat="45.02138291671383" lon="9.948601285099807"><ele>53.0</ele><time>2026-04-19T09:16:30Z</time></trkpt><trkpt lat="45.02145287685907" lon="9.948564543240042"><ele>53.0</ele><time>2026-04-19T09:16:31Z</time></trkpt><trkpt lat="45.021514152786956" lon="9.94848372509717"><ele>53.0</ele><time>2026-04-19T09:16:32Z</time></trkpt><trkpt lat="45.02155351449375" lon="9.948376809631899"><ele>53.00000000000001</ele><time>2026-04-19T09:16:33Z</time></trkpt><trkpt lat="45.02158539303766" lon="9.948265157984935"><ele>53.0</ele><time>2026-04-19T09:16:33.999Z</time></trkpt><trkpt lat="45.02161816467474" lon="9.948148171876156"><ele>52.16666666666667</ele><time>2026-04-19T09:16:34.999Z</time></trkpt><trkpt lat="45.021648053969386" lon="9.948032827331472"><ele>51.333333333333336</ele><time>2026-04-19T09:16:35.999Z</time></trkpt><trkpt lat="45.0216795485347" lon="9.947917408672112"><ele>50.5</ele><time>2026-04-19T09:16:36.999Z</time></trkpt><trkpt lat="45.02171039689663" lon="9.947802225166278"><ele>49.66666666666667</ele><time>2026-04-19T09:16:37.999Z</time></trkpt><trkpt lat="45.021740646553" lon="9.947686337451271"><ele>48.833333333333336</ele><time>2026-04-19T09:16:38.999Z</time></trkpt><trkpt lat="45.02177055645154" lon="9.947567459123203"><ele>48.0</ele><time>2026-04-19T09:16:39.999Z</time></trkpt><trkpt lat="45.02180106348868" lon="9.947449576787742"><ele>47.599999999999994</ele><time>2026-04-19T09:16:40.999Z</time></trkpt><trkpt lat="45.02183373683667" lon="9.947329092560636"><ele>47.199999999999996</ele><time>2026-04-19T09:16:41.999Z</time></trkpt><trkpt lat="45.02186802563206" lon="9.94720732947183"><ele>46.8</ele><time>2026-04-19T09:16:42.999Z</time></trkpt><trkpt lat="45.02190116223459" lon="9.947083078682695"><ele>46.4</ele><time>2026-04-19T09:16:43.999Z</time></trkpt><trkpt lat="45.02193622470329" lon="9.946958969183498"><ele>46.0</ele><time>2026-04-19T09:16:44.999Z</time></trkpt><trkpt lat="45.02197288918276" lon="9.946834505817854"><ele>45.8</ele><time>2026-04-19T09:16:45.999Z</time></trkpt><trkpt lat="45.02200509360194" lon="9.946707472700078"><ele>45.599999999999994</ele><time>2026-04-19T09:16:46.999Z</time></trkpt><trkpt lat="45.02204259963537" lon="9.946583405088186"><ele>45.4</ele><time>2026-04-19T09:16:47.999Z</time></trkpt><trkpt lat="45.02208301109511" lon="9.946456471556251"><ele>45.2</ele><time>2026-04-19T09:16:48.999Z</time></trkpt><trkpt lat="45.02212379104747" lon="9.946326314156789"><ele>45.0</ele><time>2026-04-19T09:16:49.999Z</time></trkpt><trkpt lat="45.02216255931758" lon="9.946198106819201"><ele>45.0</ele><time>2026-04-19T09:16:50.999Z</time></trkpt><trkpt lat="45.02220073863426" lon="9.946070265572569"><ele>45.0</ele><time>2026-04-19T09:16:51.999Z</time></trkpt><trkpt lat="45.02223900857013" lon="9.945940483050558"><ele>45.0</ele><time>2026-04-19T09:16:52.999Z</time></trkpt><trkpt lat="45.02227763660048" lon="9.945811986620702"><ele>45.0</ele><time>2026-04-19T09:16:53.999Z</time></trkpt><trkpt lat="45.02231786020923" lon="9.945682344396579"><ele>45.0</ele><time>2026-04-19T09:16:54.999Z</time></trkpt><trkpt lat="45.02235642202152" lon="9.945550870393047"><ele>44.8</ele><time>2026-04-19T09:16:55.999Z</time></trkpt><trkpt lat="45.02239450303316" lon="9.945420557240924"><ele>44.6</ele><time>2026-04-19T09:16:56.999Z</time></trkpt><trkpt lat="45.02243376184643" lon="9.945291807783327"><ele>44.400000000000006</ele><time>2026-04-19T09:16:57.999Z</time></trkpt><trkpt lat="45.02247340353209" lon="9.945165751497786"><ele>44.2</ele><time>2026-04-19T09:16:58.999Z</time></trkpt><trkpt lat="45.0225130074809" lon="9.945035757773896"><ele>44.0</ele><time>2026-04-19T09:16:59.999Z</time></trkpt><trkpt lat="45.022552408709785" lon="9.944905965355263"><ele>44.0</ele><time>2026-04-19T09:17:00.999Z</time></trkpt><trkpt lat="45.02259244743523" lon="9.944777596777604"><ele>44.0</ele><time>2026-04-19T09:17:01.999Z</time></trkpt><trkpt lat="45.022634978372025" lon="9.944652269905898"><ele>44.0</ele><time>2026-04-19T09:17:02.999Z</time></trkpt><trkpt lat="45.022684256110736" lon="9.94453182544903"><ele>44.0</ele><time>2026-04-19T09:17:03.999Z</time></trkpt><trkpt lat="45.02274328509355" lon="9.944415942632958"><ele>44.0</ele><time>2026-04-19T09:17:04.999Z</time></trkpt><trkpt lat="45.02281110308548" lon="9.944309158536354"><ele>43.800000000000004</ele><time>2026-04-19T09:17:05.999Z</time></trkpt><trkpt lat="45.02288144569946" lon="9.94421188477067"><ele>43.6</ele><time>2026-04-19T09:17:06.999Z</time></trkpt><trkpt lat="45.022952083960156" lon="9.944110119337504"><ele>43.4</ele><time>2026-04-19T09:17:07.999Z</time></trkpt><trkpt lat="45.02301883357698" lon="9.944007719967178"><ele>43.2</ele><time>2026-04-19T09:17:08.999Z</time></trkpt><trkpt lat="45.02308902482715" lon="9.943909884074795"><ele>43.0</ele><time>2026-04-19T09:17:09.999Z</time></trkpt><trkpt lat="45.0231589211703" lon="9.943809752759519"><ele>43.0</ele><time>2026-04-19T09:17:10.999Z</time></trkpt><trkpt lat="45.023227292433795" lon="9.94370842506304"><ele>43.0</ele><time>2026-04-19T09:17:11.999Z</time></trkpt><trkpt lat="45.023297088542336" lon="9.943607488138808"><ele>43.0</ele><time>2026-04-19T09:17:12.999Z</time></trkpt><trkpt lat="45.02336707984693" lon="9.943507317572902"><ele>43.0</ele><time>2026-04-19T09:17:13.999Z</time></trkpt><trkpt lat="45.02343739690119" lon="9.943407544471604"><ele>43.0</ele><time>2026-04-19T09:17:14.999Z</time></trkpt><trkpt lat="45.02350754594647" lon="9.943307671171034"><ele>43.4</ele><time>2026-04-19T09:17:15.999Z</time></trkpt><trkpt lat="45.02357681921861" lon="9.943206623754378"><ele>43.8</ele><time>2026-04-19T09:17:16.999Z</time></trkpt><trkpt lat="45.023647206777525" lon="9.943104829730984"><ele>44.2</ele><time>2026-04-19T09:17:17.999Z</time></trkpt><trkpt lat="45.023716919742505" lon="9.943004161714537"><ele>44.6</ele><time>2026-04-19T09:17:18.999Z</time></trkpt><trkpt lat="45.023786346403995" lon="9.942902606080398"><ele>45.0</ele><time>2026-04-19T09:17:19.999Z</time></trkpt><trkpt lat="45.023855067833225" lon="9.942800416811442"><ele>45.0</ele><time>2026-04-19T09:17:20.999Z</time></trkpt><trkpt lat="45.023924251664695" lon="9.942699309146773"><ele>45.0</ele><time>2026-04-19T09:17:21.999Z</time></trkpt><trkpt lat="45.02399288505111" lon="9.942596068937382"><ele>45.0</ele><time>2026-04-19T09:17:22.999Z</time></trkpt><trkpt lat="45.02406285707577" lon="9.942496048884394"><ele>45.0</ele><time>2026-04-19T09:17:23.999Z</time></trkpt><trkpt lat="45.02413583890647" lon="9.942400725680523"><ele>45.0</ele><time>2026-04-19T09:17:24.999Z</time></trkpt><trkpt lat="45.024213834438264" lon="9.942311947780231"><ele>44.4</ele><time>2026-04-19T09:17:25.998Z</time></trkpt><trkpt lat="45.02429743176932" lon="9.942232400355161"><ele>43.8</ele><time>2026-04-19T09:17:26.998Z</time></trkpt><trkpt lat="45.02438760649906" lon="9.942167398737114"><ele>43.2</ele><time>2026-04-19T09:17:27.998Z</time></trkpt><trkpt lat="45.0244829740244" lon="9.942121608219603"><ele>42.6</ele><time>2026-04-19T09:17:28.998Z</time></trkpt><trkpt lat="45.02458112113423" lon="9.942096653202315"><ele>42.0</ele><time>2026-04-19T09:17:29.998Z</time></trkpt><trkpt lat="45.02468136554966" lon="9.942095718610014"><ele>42.0</ele><time>2026-04-19T09:17:30.998Z</time></trkpt><trkpt lat="45.02477996161127" lon="9.942118834860386"><ele>42.0</ele><time>2026-04-19T09:17:31.998Z</time></trkpt><trkpt lat="45.02487620161839" lon="9.942151299898066"><ele>42.0</ele><time>2026-04-19T09:17:32.998Z</time></trkpt><trkpt lat="45.02496605649843" lon="9.94219225440079"><ele>42.0</ele><time>2026-04-19T09:17:33.998Z</time></trkpt><trkpt lat="45.025056410647075" lon="9.942231491751997"><ele>42.0</ele><time>2026-04-19T09:17:34.998Z</time></trkpt><trkpt lat="45.02514725832742" lon="9.942264912500141"><ele>42.400000000000006</ele><time>2026-04-19T09:17:35.998Z</time></trkpt><trkpt lat="45.02523801622621" lon="9.942302010690057"><ele>42.800000000000004</ele><time>2026-04-19T09:17:36.998Z</time></trkpt><trkpt lat="45.0253274939998" lon="9.942339031250992"><ele>43.2</ele><time>2026-04-19T09:17:37.998Z</time></trkpt><trkpt lat="45.025417057189415" lon="9.942374756296136"><ele>43.6</ele><time>2026-04-19T09:17:38.998Z</time></trkpt><trkpt lat="45.02550577570856" lon="9.942410038318572"><ele>44.0</ele><time>2026-04-19T09:17:39.998Z</time></trkpt><trkpt lat="45.02559565648114" lon="9.94244413022494"><ele>44.0</ele><time>2026-04-19T09:17:40.998Z</time></trkpt><trkpt lat="45.025683381100585" lon="9.942479074068556"><ele>44.0</ele><time>2026-04-19T09:17:41.998Z</time></trkpt><trkpt lat="45.02577069450217" lon="9.942515168696918"><ele>44.0</ele><time>2026-04-19T09:17:42.998Z</time></trkpt><trkpt lat="45.025859767738424" lon="9.942548925276471"><ele>44.0</ele><time>2026-04-19T09:17:43.998Z</time></trkpt><trkpt lat="45.025947006728494" lon="9.942582407501488"><ele>44.0</ele><time>2026-04-19T09:17:44.998Z</time></trkpt><trkpt lat="45.02603546660717" lon="9.94261527379307"><ele>43.6</ele><time>2026-04-19T09:17:45.998Z</time></trkpt><trkpt lat="45.026122949213445" lon="9.942649790257745"><ele>43.2</ele><time>2026-04-19T09:17:46.998Z</time></trkpt><trkpt lat="45.026212121496584" lon="9.942685996949798"><ele>42.800000000000004</ele><time>2026-04-19T09:17:47.998Z</time></trkpt><trkpt lat="45.02630194682524" lon="9.942721516087456"><ele>42.400000000000006</ele><time>2026-04-19T09:17:48.998Z</time></trkpt><trkpt lat="45.026392160181125" lon="9.942755246690876"><ele>42.0</ele><time>2026-04-19T09:17:49.998Z</time></trkpt><trkpt lat="45.02648051819983" lon="9.942791436241462"><ele>42.0</ele><time>2026-04-19T09:17:50.998Z</time></trkpt><trkpt lat="45.02656936859841" lon="9.942830759687896"><ele>42.0</ele><time>2026-04-19T09:17:51.998Z</time></trkpt><trkpt lat="45.02665870329437" lon="9.942868529649237"><ele>42.0</ele><time>2026-04-19T09:17:52.998Z</time></trkpt><trkpt lat="45.02674864445148" lon="9.942902714478109"><ele>42.0</ele><time>2026-04-19T09:17:53.998Z</time></trkpt><trkpt lat="45.02683767187105" lon="9.942936662009291"><ele>42.0</ele><time>2026-04-19T09:17:54.998Z</time></trkpt><trkpt lat="45.0269269088107" lon="9.942969951838585"><ele>41.8</ele><time>2026-04-19T09:17:55.998Z</time></trkpt><trkpt lat="45.0270174181001" lon="9.943002650674215"><ele>41.6</ele><time>2026-04-19T09:17:56.998Z</time></trkpt><trkpt lat="45.0271054848176" lon="9.943040462646138"><ele>41.4</ele><time>2026-04-19T09:17:57.998Z</time></trkpt><trkpt lat="45.02719247661573" lon="9.943079408822591"><ele>41.199999999999996</ele><time>2026-04-19T09:17:58.998Z</time></trkpt><trkpt lat="45.02728057335968" lon="9.943116739729303"><ele>41.0</ele><time>2026-04-19T09:17:59.998Z</time></trkpt><trkpt lat="45.0273722928738" lon="9.943153980398234"><ele>41.0</ele><time>2026-04-19T09:18:00.998Z</time></trkpt><trkpt lat="45.02746115580731" lon="9.943188624185387"><ele>41.0</ele><time>2026-04-19T09:18:01.998Z</time></trkpt><trkpt lat="45.02755173426497" lon="9.943223112411507"><ele>41.0</ele><time>2026-04-19T09:18:02.998Z</time></trkpt><trkpt lat="45.0276384498706" lon="9.94325936184449"><ele>41.0</ele><time>2026-04-19T09:18:03.998Z</time></trkpt><trkpt lat="45.02772748549412" lon="9.943295375040922"><ele>41.0</ele><time>2026-04-19T09:18:04.998Z</time></trkpt><trkpt lat="45.02781695454744" lon="9.943328411447393"><ele>41.0</ele><time>2026-04-19T09:18:05.998Z</time></trkpt><trkpt lat="45.0279048642441" lon="9.94336368722581"><ele>41.0</ele><time>2026-04-19T09:18:06.998Z</time></trkpt><trkpt lat="45.02799511926154" lon="9.943399818446723"><ele>41.0</ele><time>2026-04-19T09:18:07.998Z</time></trkpt><trkpt lat="45.02808554404244" lon="9.943436828677742"><ele>41.0</ele><time>2026-04-19T09:18:08.998Z</time></trkpt><trkpt lat="45.0281774968383" lon="9.9434733331119"><ele>41.0</ele><time>2026-04-19T09:18:09.998Z</time></trkpt><trkpt lat="45.02826962106479" lon="9.943508225652842"><ele>41.599999999999994</ele><time>2026-04-19T09:18:10.998Z</time></trkpt><trkpt lat="45.028359258129264" lon="9.943541704913972"><ele>42.2</ele><time>2026-04-19T09:18:11.998Z</time></trkpt><trkpt lat="45.02845241853714" lon="9.943577784264875"><ele>42.8</ele><time>2026-04-19T09:18:12.998Z</time></trkpt><trkpt lat="45.02854363398358" lon="9.943613692026517"><ele>43.400000000000006</ele><time>2026-04-19T09:18:13.998Z</time></trkpt><trkpt lat="45.02863336015881" lon="9.943651676103007"><ele>44.0</ele><time>2026-04-19T09:18:14.998Z</time></trkpt><trkpt lat="45.02872216860478" lon="9.943690011667186"><ele>44.0</ele><time>2026-04-19T09:18:15.998Z</time></trkpt><trkpt lat="45.02881258587243" lon="9.943726933195299"><ele>44.0</ele><time>2026-04-19T09:18:16.998Z</time></trkpt><trkpt lat="45.02890374735285" lon="9.94376476469507"><ele>44.0</ele><time>2026-04-19T09:18:17.998Z</time></trkpt><trkpt lat="45.028995556018636" lon="9.943799195252746"><ele>44.0</ele><time>2026-04-19T09:18:18.997Z</time></trkpt><trkpt lat="45.02908652726076" lon="9.943836265732607"><ele>44.0</ele><time>2026-04-19T09:18:19.997Z</time></trkpt><trkpt lat="45.02917656141809" lon="9.943869517660504"><ele>43.6</ele><time>2026-04-19T09:18:20.997Z</time></trkpt><trkpt lat="45.0292662144259" lon="9.943905974698515"><ele>43.2</ele><time>2026-04-19T09:18:21.997Z</time></trkpt><trkpt lat="45.02935647451663" lon="9.943943079365253"><ele>42.800000000000004</ele><time>2026-04-19T09:18:22.997Z</time></trkpt><trkpt lat="45.029448285577885" lon="9.943978689736584"><ele>42.400000000000006</ele><time>2026-04-19T09:18:23.999Z</time></trkpt><trkpt lat="45.02953792419118" lon="9.94401296490174"><ele>42.0</ele><time>2026-04-19T09:18:25Z</time></trkpt><trkpt lat="45.029630199537586" lon="9.944051403361737"><ele>42.0</ele><time>2026-04-19T09:18:25.999Z</time></trkpt><trkpt lat="45.02972102053241" lon="9.944089781908112"><ele>42.0</ele><time>2026-04-19T09:18:26.999Z</time></trkpt><trkpt lat="45.02981247715609" lon="9.944123004534537"><ele>42.0</ele><time>2026-04-19T09:18:28Z</time></trkpt><trkpt lat="45.02990422492528" lon="9.94415993284183"><ele>42.0</ele><time>2026-04-19T09:18:28.999Z</time></trkpt><trkpt lat="45.02999505018462" lon="9.944197607284202"><ele>42.0</ele><time>2026-04-19T09:18:29.999Z</time></trkpt><trkpt lat="45.03008625648665" lon="9.944235087339584"><ele>42.400000000000006</ele><time>2026-04-19T09:18:31Z</time></trkpt><trkpt lat="45.03017702623524" lon="9.94426855069177"><ele>42.800000000000004</ele><time>2026-04-19T09:18:31.999Z</time></trkpt><trkpt lat="45.03026893512481" lon="9.944307114650995"><ele>43.2</ele><time>2026-04-19T09:18:32.999Z</time></trkpt><trkpt lat="45.03035992754034" lon="9.944343731531442"><ele>43.6</ele><time>2026-04-19T09:18:34Z</time></trkpt><trkpt lat="45.03045173027174" lon="9.944380055911706"><ele>44.0</ele><time>2026-04-19T09:18:34.999Z</time></trkpt><trkpt lat="45.03054501692594" lon="9.944413141501851"><ele>44.0</ele><time>2026-04-19T09:18:35.999Z</time></trkpt><trkpt lat="45.03063612944506" lon="9.944451809115868"><ele>44.0</ele><time>2026-04-19T09:18:37Z</time></trkpt><trkpt lat="45.03072807266207" lon="9.944486530687298"><ele>44.0</ele><time>2026-04-19T09:18:37.999Z</time></trkpt><trkpt lat="45.03081980681476" lon="9.944523532149244"><ele>44.0</ele><time>2026-04-19T09:18:38.999Z</time></trkpt><trkpt lat="45.030913354737976" lon="9.944561247769766"><ele>44.0</ele><time>2026-04-19T09:18:40Z</time></trkpt><trkpt lat="45.031006558664814" lon="9.94459621786412"><ele>43.800000000000004</ele><time>2026-04-19T09:18:41Z</time></trkpt><trkpt lat="45.031098850396106" lon="9.944629864008789"><ele>43.6</ele><time>2026-04-19T09:18:42Z</time></trkpt><trkpt lat="45.03118988635991" lon="9.944667249850095"><ele>43.4</ele><time>2026-04-19T09:18:43Z</time></trkpt><trkpt lat="45.03128184940832" lon="9.944703269857012"><ele>43.2</ele><time>2026-04-19T09:18:44Z</time></trkpt><trkpt lat="45.031372274077334" lon="9.944738692365382"><ele>43.0</ele><time>2026-04-19T09:18:45Z</time></trkpt><trkpt lat="45.03146305198344" lon="9.944772468974868"><ele>43.0</ele><time>2026-04-19T09:18:46Z</time></trkpt><trkpt lat="45.03155264085827" lon="9.944804474266123"><ele>43.0</ele><time>2026-04-19T09:18:47Z</time></trkpt><trkpt lat="45.03163895447185" lon="9.944862415141007"><ele>43.0</ele><time>2026-04-19T09:18:48Z</time></trkpt><trkpt lat="45.031728763915346" lon="9.944898746639364"><ele>43.0</ele><time>2026-04-19T09:18:49Z</time></trkpt><trkpt lat="45.03181799741113" lon="9.944934980202708"><ele>43.0</ele><time>2026-04-19T09:18:50Z</time></trkpt><trkpt lat="45.03190762318716" lon="9.944971373143979"><ele>43.0</ele><time>2026-04-19T09:18:51Z</time></trkpt><trkpt lat="45.03199711531575" lon="9.945007711817428"><ele>43.0</ele><time>2026-04-19T09:18:52Z</time></trkpt><trkpt lat="45.03208648742824" lon="9.945044001714347"><ele>43.0</ele><time>2026-04-19T09:18:53Z</time></trkpt><trkpt lat="45.032176047666404" lon="9.945078087538397"><ele>43.0</ele><time>2026-04-19T09:18:54Z</time></trkpt><trkpt lat="45.03226950450639" lon="9.94508757463788"><ele>43.0</ele><time>2026-04-19T09:18:55Z</time></trkpt><trkpt lat="45.03235958383946" lon="9.945119114925527"><ele>43.0</ele><time>2026-04-19T09:18:56Z</time></trkpt><trkpt lat="45.03245285037542" lon="9.945133884599732"><ele>43.0</ele><time>2026-04-19T09:18:57Z</time></trkpt><trkpt lat="45.032547384837265" lon="9.94512727720033"><ele>43.0</ele><time>2026-04-19T09:18:58Z</time></trkpt><trkpt lat="45.03263929135975" lon="9.945090796349678"><ele>43.0</ele><time>2026-04-19T09:18:59Z</time></trkpt><trkpt lat="45.03272356433976" lon="9.945032782799183"><ele>43.0</ele><time>2026-04-19T09:19:00Z</time></trkpt><trkpt lat="45.03279278716543" lon="9.944945455435095"><ele>42.8</ele><time>2026-04-19T09:19:01Z</time></trkpt><trkpt lat="45.032846328314584" lon="9.94484036577048"><ele>42.599999999999994</ele><time>2026-04-19T09:19:02Z</time></trkpt><trkpt lat="45.032889735717845" lon="9.944726368861883"><ele>42.400000000000006</ele><time>2026-04-19T09:19:03Z</time></trkpt><trkpt lat="45.03292020756592" lon="9.944601222894953"><ele>42.2</ele><time>2026-04-19T09:19:04Z</time></trkpt><trkpt lat="45.03294689361864" lon="9.944473250563519"><ele>42.0</ele><time>2026-04-19T09:19:05Z</time></trkpt><trkpt lat="45.03297040423812" lon="9.944338666045258"><ele>42.2</ele><time>2026-04-19T09:19:06Z</time></trkpt><trkpt lat="45.032993687593304" lon="9.944201574100845"><ele>42.400000000000006</ele><time>2026-04-19T09:19:07Z</time></trkpt><trkpt lat="45.033015651886586" lon="9.94406806882371"><ele>42.599999999999994</ele><time>2026-04-19T09:19:08Z</time></trkpt><trkpt lat="45.033037765009446" lon="9.943937535375618"><ele>42.8</ele><time>2026-04-19T09:19:09Z</time></trkpt><trkpt lat="45.03305983821985" lon="9.943808019109596"><ele>43.0</ele><time>2026-04-19T09:19:10Z</time></trkpt><trkpt lat="45.033082521911666" lon="9.943680370682971"><ele>43.0</ele><time>2026-04-19T09:19:11Z</time></trkpt><trkpt lat="45.03310490617976" lon="9.943549894309438"><ele>43.0</ele><time>2026-04-19T09:19:12Z</time></trkpt><trkpt lat="45.03312685548289" lon="9.943422075114533"><ele>43.0</ele><time>2026-04-19T09:19:13Z</time></trkpt><trkpt lat="45.03314882373064" lon="9.943296495617588"><ele>43.0</ele><time>2026-04-19T09:19:14Z</time></trkpt><trkpt lat="45.03317145866032" lon="9.94317333518198"><ele>43.0</ele><time>2026-04-19T09:19:15Z</time></trkpt><trkpt lat="45.03320182436697" lon="9.943051475540422"><ele>42.599999999999994</ele><time>2026-04-19T09:19:16Z</time></trkpt><trkpt lat="45.03324319190065" lon="9.942932545015912"><ele>42.199999999999996</ele><time>2026-04-19T09:19:17Z</time></trkpt><trkpt lat="45.033307834717945" lon="9.942834971502082"><ele>41.8</ele><time>2026-04-19T09:19:18Z</time></trkpt><trkpt lat="45.03334619058082" lon="9.942719069132576"><ele>41.4</ele><time>2026-04-19T09:19:19Z</time></trkpt><trkpt lat="45.033485461351965" lon="9.9427131562245"><ele>41.0</ele><time>2026-04-19T09:19:20Z</time></trkpt><trkpt lat="45.03358449282166" lon="9.942694464887207"><ele>40.8</ele><time>2026-04-19T09:19:21Z</time></trkpt><trkpt lat="45.0336836669466" lon="9.942680005298055"><ele>40.599999999999994</ele><time>2026-04-19T09:19:22Z</time></trkpt><trkpt lat="45.033786954779984" lon="9.942716013520725"><ele>40.4</ele><time>2026-04-19T09:19:23Z</time></trkpt><trkpt lat="45.03388339736302" lon="9.942721931366718"><ele>40.2</ele><time>2026-04-19T09:19:24Z</time></trkpt><trkpt lat="45.03398109396699" lon="9.942726061315792"><ele>40.0</ele><time>2026-04-19T09:19:25Z</time></trkpt><trkpt lat="45.034076550262306" lon="9.942729704583638"><ele>40.0</ele><time>2026-04-19T09:19:26Z</time></trkpt><trkpt lat="45.03417644618375" lon="9.942733200600427"><ele>40.0</ele><time>2026-04-19T09:19:27Z</time></trkpt><trkpt lat="45.03427509310143" lon="9.942736472312166"><ele>40.0</ele><time>2026-04-19T09:19:28Z</time></trkpt><trkpt lat="45.03437232643441" lon="9.94273978366528"><ele>40.0</ele><time>2026-04-19T09:19:29Z</time></trkpt><trkpt lat="45.03447134252908" lon="9.942741283473804"><ele>40.0</ele><time>2026-04-19T09:19:29.999Z</time></trkpt><trkpt lat="45.034569957323136" lon="9.942745104981963"><ele>40.0</ele><time>2026-04-19T09:19:30.999Z</time></trkpt><trkpt lat="45.034669827056916" lon="9.942749299439612"><ele>40.0</ele><time>2026-04-19T09:19:31.999Z</time></trkpt><trkpt lat="45.034768846028975" lon="9.942754509248577"><ele>40.0</ele><time>2026-04-19T09:19:32.999Z</time></trkpt><trkpt lat="45.03486943557314" lon="9.942759402877925"><ele>40.0</ele><time>2026-04-19T09:19:33.999Z</time></trkpt><trkpt lat="45.03496997456522" lon="9.942761735892859"><ele>40.0</ele><time>2026-04-19T09:19:34.999Z</time></trkpt><trkpt lat="45.03507037763153" lon="9.942766576081736"><ele>40.0</ele><time>2026-04-19T09:19:35.999Z</time></trkpt><trkpt lat="45.03516918110794" lon="9.942770570604482"><ele>40.0</ele><time>2026-04-19T09:19:36.999Z</time></trkpt><trkpt lat="45.035269206824175" lon="9.942774425733145"><ele>40.0</ele><time>2026-04-19T09:19:37.999Z</time></trkpt><trkpt lat="45.03536724511904" lon="9.942777751176335"><ele>40.0</ele><time>2026-04-19T09:19:38.999Z</time></trkpt><trkpt lat="45.03546559822313" lon="9.942781011409735"><ele>40.0</ele><time>2026-04-19T09:19:39.999Z</time></trkpt><trkpt lat="45.03556354674355" lon="9.942782150478926"><ele>40.0</ele><time>2026-04-19T09:19:40.999Z</time></trkpt><trkpt lat="45.03566268948768" lon="9.942786926592818"><ele>40.0</ele><time>2026-04-19T09:19:41.999Z</time></trkpt><trkpt lat="45.03576252392691" lon="9.942792765609937"><ele>40.0</ele><time>2026-04-19T09:19:42.999Z</time></trkpt><trkpt lat="45.03586141191142" lon="9.942793562458665"><ele>40.0</ele><time>2026-04-19T09:19:43.999Z</time></trkpt><trkpt lat="45.03596037401871" lon="9.942798030866848"><ele>40.0</ele><time>2026-04-19T09:19:44.999Z</time></trkpt><trkpt lat="45.03605922332653" lon="9.94280387463952"><ele>40.4</ele><time>2026-04-19T09:19:45.999Z</time></trkpt><trkpt lat="45.03615640806431" lon="9.942806941965818"><ele>40.8</ele><time>2026-04-19T09:19:46.999Z</time></trkpt><trkpt lat="45.03625359972276" lon="9.942809300996327"><ele>41.2</ele><time>2026-04-19T09:19:47.999Z</time></trkpt><trkpt lat="45.036352333027644" lon="9.942812915520904"><ele>41.6</ele><time>2026-04-19T09:19:48.999Z</time></trkpt><trkpt lat="45.03644981420048" lon="9.942817340603733"><ele>42.0</ele><time>2026-04-19T09:19:49.999Z</time></trkpt><trkpt lat="45.03654693653479" lon="9.942819307757194"><ele>41.6</ele><time>2026-04-19T09:19:50.999Z</time></trkpt><trkpt lat="45.03664466714201" lon="9.942824121554645"><ele>41.2</ele><time>2026-04-19T09:19:51.999Z</time></trkpt><trkpt lat="45.03674180694028" lon="9.942828341399004"><ele>40.8</ele><time>2026-04-19T09:19:52.999Z</time></trkpt><trkpt lat="45.03683919528416" lon="9.942833478799823"><ele>40.4</ele><time>2026-04-19T09:19:53.999Z</time></trkpt><trkpt lat="45.03693684777829" lon="9.942837513689568"><ele>40.0</ele><time>2026-04-19T09:19:54.999Z</time></trkpt><trkpt lat="45.03703468055518" lon="9.942839996696305"><ele>40.0</ele><time>2026-04-19T09:19:55.999Z</time></trkpt><trkpt lat="45.03713204962859" lon="9.942845113699404"><ele>40.0</ele><time>2026-04-19T09:19:56.999Z</time></trkpt><trkpt lat="45.03722871741904" lon="9.94284837962274"><ele>40.0</ele><time>2026-04-19T09:19:57.999Z</time></trkpt><trkpt lat="45.03732572743387" lon="9.942851977442496"><ele>40.0</ele><time>2026-04-19T09:19:58.999Z</time></trkpt><trkpt lat="45.03742267108361" lon="9.942855879054925"><ele>40.0</ele><time>2026-04-19T09:19:59.999Z</time></trkpt><trkpt lat="45.03752045743066" lon="9.942861893786828"><ele>40.2</ele><time>2026-04-19T09:20:00.999Z</time></trkpt><trkpt lat="45.03761741803282" lon="9.942865554827597"><ele>40.4</ele><time>2026-04-19T09:20:01.999Z</time></trkpt><trkpt lat="45.03771607401931" lon="9.942868343634911"><ele>40.599999999999994</ele><time>2026-04-19T09:20:02.999Z</time></trkpt><trkpt lat="45.03781537488525" lon="9.942871892365094"><ele>40.8</ele><time>2026-04-19T09:20:03.999Z</time></trkpt><trkpt lat="45.03791356356866" lon="9.942876199771431"><ele>41.0</ele><time>2026-04-19T09:20:04.999Z</time></trkpt><trkpt lat="45.03801175698236" lon="9.942879306101384"><ele>41.0</ele><time>2026-04-19T09:20:05.999Z</time></trkpt><trkpt lat="45.03811024988023" lon="9.942882914814149"><ele>41.0</ele><time>2026-04-19T09:20:06.999Z</time></trkpt><trkpt lat="45.03820866020705" lon="9.942885066028305"><ele>41.0</ele><time>2026-04-19T09:20:07.999Z</time></trkpt><trkpt lat="45.038306070158086" lon="9.942888743027993"><ele>41.0</ele><time>2026-04-19T09:20:08.999Z</time></trkpt><trkpt lat="45.03840487346337" lon="9.942893599562856"><ele>41.0</ele><time>2026-04-19T09:20:09.999Z</time></trkpt><trkpt lat="45.038503827381355" lon="9.94289689143608"><ele>41.0</ele><time>2026-04-19T09:20:10.999Z</time></trkpt><trkpt lat="45.038601013469325" lon="9.942899923120331"><ele>41.0</ele><time>2026-04-19T09:20:11.999Z</time></trkpt><trkpt lat="45.03869559273393" lon="9.942904070197104"><ele>41.0</ele><time>2026-04-19T09:20:12.999Z</time></trkpt><trkpt lat="45.03879176655558" lon="9.94291105699808"><ele>41.0</ele><time>2026-04-19T09:20:13.999Z</time></trkpt><trkpt lat="45.038887985138906" lon="9.942912602862888"><ele>41.0</ele><time>2026-04-19T09:20:14.999Z</time></trkpt><trkpt lat="45.0389854886117" lon="9.942919250457019"><ele>41.0</ele><time>2026-04-19T09:20:15.999Z</time></trkpt><trkpt lat="45.03908210096894" lon="9.942922941885985"><ele>41.0</ele><time>2026-04-19T09:20:16.999Z</time></trkpt><trkpt lat="45.03917886409309" lon="9.94292643417142"><ele>41.0</ele><time>2026-04-19T09:20:17.999Z</time></trkpt><trkpt lat="45.03927497364413" lon="9.942930709594618"><ele>41.0</ele><time>2026-04-19T09:20:18.999Z</time></trkpt><trkpt lat="45.039370386022064" lon="9.942935884086808"><ele>41.0</ele><time>2026-04-19T09:20:19.999Z</time></trkpt><trkpt lat="45.039465393135316" lon="9.942939490750648"><ele>40.8</ele><time>2026-04-19T09:20:20.999Z</time></trkpt><trkpt lat="45.039560496009834" lon="9.942944311161673"><ele>40.599999999999994</ele><time>2026-04-19T09:20:21.999Z</time></trkpt><trkpt lat="45.039656135627084" lon="9.942946625257276"><ele>40.4</ele><time>2026-04-19T09:20:22.998Z</time></trkpt><trkpt lat="45.039750676414556" lon="9.942951291718526"><ele>40.2</ele><time>2026-04-19T09:20:23.998Z</time></trkpt><trkpt lat="45.03984583705407" lon="9.942955055904884"><ele>40.0</ele><time>2026-04-19T09:20:24.998Z</time></trkpt><trkpt lat="45.039941635568326" lon="9.942961169789129"><ele>39.8</ele><time>2026-04-19T09:20:25.998Z</time></trkpt><trkpt lat="45.04003582674053" lon="9.942963564960815"><ele>39.6</ele><time>2026-04-19T09:20:26.998Z</time></trkpt><trkpt lat="45.04013055955421" lon="9.942968752346001"><ele>39.4</ele><time>2026-04-19T09:20:27.998Z</time></trkpt><trkpt lat="45.04022419691156" lon="9.942971971575904"><ele>39.2</ele><time>2026-04-19T09:20:28.998Z</time></trkpt><trkpt lat="45.040317345029344" lon="9.942973579739812"><ele>39.0</ele><time>2026-04-19T09:20:30Z</time></trkpt><trkpt lat="45.040409261005856" lon="9.942978787294741"><ele>39.0</ele><time>2026-04-19T09:20:31Z</time></trkpt><trkpt lat="45.04050104112276" lon="9.942982827538287"><ele>39.0</ele><time>2026-04-19T09:20:32Z</time></trkpt><trkpt lat="45.04059228467688" lon="9.942986024118118"><ele>39.0</ele><time>2026-04-19T09:20:33Z</time></trkpt><trkpt lat="45.04068384014183" lon="9.94298949897887"><ele>39.0</ele><time>2026-04-19T09:20:34Z</time></trkpt><trkpt lat="45.04077449194118" lon="9.942996159725276"><ele>39.0</ele><time>2026-04-19T09:20:35Z</time></trkpt><trkpt lat="45.04086729137909" lon="9.942997128186942"><ele>38.8</ele><time>2026-04-19T09:20:36Z</time></trkpt><trkpt lat="45.04095956354608" lon="9.943000261514207"><ele>38.599999999999994</ele><time>2026-04-19T09:20:37Z</time></trkpt><trkpt lat="45.041050465828185" lon="9.943004905722056"><ele>38.4</ele><time>2026-04-19T09:20:38Z</time></trkpt><trkpt lat="45.0411435995371" lon="9.943007602580705"><ele>38.199999999999996</ele><time>2026-04-19T09:20:39Z</time></trkpt><trkpt lat="45.04123624778443" lon="9.943012100177846"><ele>38.0</ele><time>2026-04-19T09:20:40Z</time></trkpt><trkpt lat="45.041327491119944" lon="9.943015085267726"><ele>38.0</ele><time>2026-04-19T09:20:41Z</time></trkpt><trkpt lat="45.041418164282355" lon="9.943017713951528"><ele>38.0</ele><time>2026-04-19T09:20:42Z</time></trkpt><trkpt lat="45.04150933622677" lon="9.943018962568377"><ele>38.0</ele><time>2026-04-19T09:20:43Z</time></trkpt><trkpt lat="45.04160152781067" lon="9.943024320137532"><ele>38.0</ele><time>2026-04-19T09:20:44Z</time></trkpt><trkpt lat="45.0416952155726" lon="9.943025298994582"><ele>38.0</ele><time>2026-04-19T09:20:45Z</time></trkpt><trkpt lat="45.04178769291726" lon="9.943030418761401"><ele>38.199999999999996</ele><time>2026-04-19T09:20:46Z</time></trkpt><trkpt lat="45.041882823790836" lon="9.943033955784514"><ele>38.4</ele><time>2026-04-19T09:20:47Z</time></trkpt><trkpt lat="45.04197847210644" lon="9.94303979078364"><ele>38.599999999999994</ele><time>2026-04-19T09:20:48Z</time></trkpt><trkpt lat="45.04206898008003" lon="9.943043694800057"><ele>38.8</ele><time>2026-04-19T09:20:49Z</time></trkpt><trkpt lat="45.04216353549328" lon="9.943049177534649"><ele>39.0</ele><time>2026-04-19T09:20:50Z</time></trkpt><trkpt lat="45.04225606437021" lon="9.943052252094539"><ele>39.0</ele><time>2026-04-19T09:20:51Z</time></trkpt><trkpt lat="45.042350445484914" lon="9.94305557923066"><ele>39.0</ele><time>2026-04-19T09:20:52Z</time></trkpt><trkpt lat="45.04244430565181" lon="9.943060321017036"><ele>39.0</ele><time>2026-04-19T09:20:53Z</time></trkpt><trkpt lat="45.042539695832566" lon="9.943064865241215"><ele>39.0</ele><time>2026-04-19T09:20:54Z</time></trkpt><trkpt lat="45.04263557920333" lon="9.943068620869767"><ele>39.0</ele><time>2026-04-19T09:20:55Z</time></trkpt><trkpt lat="45.04273025722541" lon="9.94307166237824"><ele>39.0</ele><time>2026-04-19T09:20:56Z</time></trkpt><trkpt lat="45.042824163653734" lon="9.943074681667463"><ele>39.0</ele><time>2026-04-19T09:20:57Z</time></trkpt><trkpt lat="45.042917165127044" lon="9.94307826907541"><ele>39.0</ele><time>2026-04-19T09:20:58Z</time></trkpt><trkpt lat="45.04301066213228" lon="9.943082843386103"><ele>39.0</ele><time>2026-04-19T09:20:59Z</time></trkpt><trkpt lat="45.04310416283991" lon="9.943087708325749"><ele>39.0</ele><time>2026-04-19T09:21:00Z</time></trkpt><trkpt lat="45.04319877204693" lon="9.943092166661335"><ele>39.0</ele><time>2026-04-19T09:21:01Z</time></trkpt><trkpt lat="45.04329374976373" lon="9.943096564892558"><ele>39.0</ele><time>2026-04-19T09:21:02Z</time></trkpt><trkpt lat="45.04338945462463" lon="9.94310149060307"><ele>39.0</ele><time>2026-04-19T09:21:03Z</time></trkpt><trkpt lat="45.04348463518636" lon="9.943104674935432"><ele>39.0</ele><time>2026-04-19T09:21:04Z</time></trkpt><trkpt lat="45.04357919356049" lon="9.943107140573868"><ele>39.0</ele><time>2026-04-19T09:21:05Z</time></trkpt><trkpt lat="45.043674666657594" lon="9.943113057492827"><ele>39.0</ele><time>2026-04-19T09:21:06Z</time></trkpt><trkpt lat="45.0437699975399" lon="9.943117392220168"><ele>39.0</ele><time>2026-04-19T09:21:07Z</time></trkpt><trkpt lat="45.04386615637017" lon="9.943121959033508"><ele>39.0</ele><time>2026-04-19T09:21:08Z</time></trkpt><trkpt lat="45.04396254147619" lon="9.943125634185295"><ele>39.0</ele><time>2026-04-19T09:21:09Z</time></trkpt><trkpt lat="45.04405724868245" lon="9.943129721182823"><ele>39.0</ele><time>2026-04-19T09:21:10Z</time></trkpt><trkpt lat="45.04415173809148" lon="9.943136460571834"><ele>39.2</ele><time>2026-04-19T09:21:11Z</time></trkpt><trkpt lat="45.044246338168435" lon="9.943141232918693"><ele>39.4</ele><time>2026-04-19T09:21:12Z</time></trkpt><trkpt lat="45.04434089527622" lon="9.943144283604656"><ele>39.6</ele><time>2026-04-19T09:21:13Z</time></trkpt><trkpt lat="45.044435808310176" lon="9.943147661551661"><ele>39.8</ele><time>2026-04-19T09:21:14Z</time></trkpt><trkpt lat="45.04452927092517" lon="9.943151603638986"><ele>40.0</ele><time>2026-04-19T09:21:15Z</time></trkpt><trkpt lat="45.04462367643902" lon="9.943154522651136"><ele>40.0</ele><time>2026-04-19T09:21:16Z</time></trkpt><trkpt lat="45.04471884907159" lon="9.943158982064523"><ele>40.0</ele><time>2026-04-19T09:21:17Z</time></trkpt><trkpt lat="45.044814052806245" lon="9.943162834568012"><ele>40.0</ele><time>2026-04-19T09:21:18Z</time></trkpt><trkpt lat="45.04490867085939" lon="9.94317015470901"><ele>40.0</ele><time>2026-04-19T09:21:19Z</time></trkpt><trkpt lat="45.045003742599015" lon="9.943194704721805"><ele>40.0</ele><time>2026-04-19T09:21:20Z</time></trkpt><trkpt lat="45.04509844345907" lon="9.943212416229958"><ele>39.6</ele><time>2026-04-19T09:21:21Z</time></trkpt><trkpt lat="45.045193781156435" lon="9.94321881243246"><ele>39.2</ele><time>2026-04-19T09:21:22Z</time></trkpt><trkpt lat="45.04529161392994" lon="9.943224438365538"><ele>38.8</ele><time>2026-04-19T09:21:23Z</time></trkpt><trkpt lat="45.04538635870676" lon="9.943227587454011"><ele>38.4</ele><time>2026-04-19T09:21:24Z</time></trkpt><trkpt lat="45.045480774614084" lon="9.943234750541393"><ele>38.0</ele><time>2026-04-19T09:21:25Z</time></trkpt><trkpt lat="45.04557640539893" lon="9.94323979638284"><ele>38.0</ele><time>2026-04-19T09:21:26Z</time></trkpt><trkpt lat="45.04567137582142" lon="9.943242731314731"><ele>38.0</ele><time>2026-04-19T09:21:27Z</time></trkpt><trkpt lat="45.04576669528213" lon="9.943245246771752"><ele>38.0</ele><time>2026-04-19T09:21:28Z</time></trkpt><trkpt lat="45.04586178227387" lon="9.943243938058977"><ele>38.0</ele><time>2026-04-19T09:21:29Z</time></trkpt><trkpt lat="45.04595485358595" lon="9.943244566391503"><ele>38.0</ele><time>2026-04-19T09:21:30Z</time></trkpt><trkpt lat="45.0460519862709" lon="9.943256831708567"><ele>38.0</ele><time>2026-04-19T09:21:31Z</time></trkpt><trkpt lat="45.046146236520705" lon="9.943261112506702"><ele>38.0</ele><time>2026-04-19T09:21:32Z</time></trkpt><trkpt lat="45.04624291149063" lon="9.943260525869137"><ele>38.0</ele><time>2026-04-19T09:21:33Z</time></trkpt><trkpt lat="45.04633600970699" lon="9.943264654995508"><ele>38.0</ele><time>2026-04-19T09:21:34Z</time></trkpt><trkpt lat="45.04642997635178" lon="9.943270104502249"><ele>38.0</ele><time>2026-04-19T09:21:34.999Z</time></trkpt><trkpt lat="45.04652381846691" lon="9.943271763952833"><ele>38.0</ele><time>2026-04-19T09:21:35.999Z</time></trkpt><trkpt lat="45.046618285140916" lon="9.943276973909883"><ele>38.0</ele><time>2026-04-19T09:21:36.999Z</time></trkpt><trkpt lat="45.046713760232564" lon="9.9432801764004"><ele>38.0</ele><time>2026-04-19T09:21:37.999Z</time></trkpt><trkpt lat="45.046809120047115" lon="9.943279250540636"><ele>38.0</ele><time>2026-04-19T09:21:38.999Z</time></trkpt><trkpt lat="45.04690501759773" lon="9.943281548168093"><ele>38.0</ele><time>2026-04-19T09:21:39.999Z</time></trkpt><trkpt lat="45.04700010784602" lon="9.943280578006911"><ele>38.0</ele><time>2026-04-19T09:21:40.999Z</time></trkpt><trkpt lat="45.047094784851986" lon="9.943279144439849"><ele>38.0</ele><time>2026-04-19T09:21:41.999Z</time></trkpt><trkpt lat="45.04719110347632" lon="9.94327432325634"><ele>38.0</ele><time>2026-04-19T09:21:42.999Z</time></trkpt><trkpt lat="45.04728747234945" lon="9.94327377634796"><ele>38.0</ele><time>2026-04-19T09:21:43.999Z</time></trkpt><trkpt lat="45.04738286029456" lon="9.943269325937491"><ele>38.0</ele><time>2026-04-19T09:21:44.999Z</time></trkpt><trkpt lat="45.04748085388849" lon="9.9432708327359"><ele>38.0</ele><time>2026-04-19T09:21:45.999Z</time></trkpt><trkpt lat="45.0475775136623" lon="9.943275160827412"><ele>38.0</ele><time>2026-04-19T09:21:46.999Z</time></trkpt><trkpt lat="45.04767424173777" lon="9.943277797292831"><ele>38.0</ele><time>2026-04-19T09:21:47.999Z</time></trkpt><trkpt lat="45.04777031197422" lon="9.943280240534621"><ele>38.0</ele><time>2026-04-19T09:21:48.999Z</time></trkpt><trkpt lat="45.04786483079619" lon="9.94328806456529"><ele>38.0</ele><time>2026-04-19T09:21:49.999Z</time></trkpt><trkpt lat="45.04795957223093" lon="9.94329223585621"><ele>38.0</ele><time>2026-04-19T09:21:50.999Z</time></trkpt><trkpt lat="45.04805352665948" lon="9.943292112607143"><ele>38.0</ele><time>2026-04-19T09:21:51.999Z</time></trkpt><trkpt lat="45.048148779689654" lon="9.943297935662983"><ele>38.0</ele><time>2026-04-19T09:21:52.999Z</time></trkpt><trkpt lat="45.048244011461456" lon="9.943302225892545"><ele>38.0</ele><time>2026-04-19T09:21:53.999Z</time></trkpt><trkpt lat="45.0483392491747" lon="9.943305057487999"><ele>38.0</ele><time>2026-04-19T09:21:54.999Z</time></trkpt><trkpt lat="45.048434350248975" lon="9.943309253011131"><ele>37.8</ele><time>2026-04-19T09:21:55.999Z</time></trkpt><trkpt lat="45.04852937022033" lon="9.943313801328777"><ele>37.599999999999994</ele><time>2026-04-19T09:21:56.999Z</time></trkpt><trkpt lat="45.04862492227531" lon="9.943316778201874"><ele>37.400000000000006</ele><time>2026-04-19T09:21:57.999Z</time></trkpt><trkpt lat="45.04871918695457" lon="9.943318869439404"><ele>37.2</ele><time>2026-04-19T09:21:58.999Z</time></trkpt><trkpt lat="45.048814122352624" lon="9.94332294842637"><ele>37.0</ele><time>2026-04-19T09:21:59.999Z</time></trkpt><trkpt lat="45.04890813419611" lon="9.9433268271939"><ele>37.0</ele><time>2026-04-19T09:22:00.999Z</time></trkpt><trkpt lat="45.049004329354545" lon="9.943329352180852"><ele>37.0</ele><time>2026-04-19T09:22:01.999Z</time></trkpt><trkpt lat="45.04909855391072" lon="9.94333287241671"><ele>37.0</ele><time>2026-04-19T09:22:02.999Z</time></trkpt><trkpt lat="45.04919442855144" lon="9.943336310699996"><ele>37.0</ele><time>2026-04-19T09:22:03.999Z</time></trkpt><trkpt lat="45.04928941600491" lon="9.943339289192755"><ele>37.0</ele><time>2026-04-19T09:22:04.999Z</time></trkpt><trkpt lat="45.0493838905901" lon="9.943345260916642"><ele>37.0</ele><time>2026-04-19T09:22:05.999Z</time></trkpt><trkpt lat="45.04947757303586" lon="9.943346805420179"><ele>37.0</ele><time>2026-04-19T09:22:06.999Z</time></trkpt><trkpt lat="45.04957046184525" lon="9.94334923140823"><ele>37.0</ele><time>2026-04-19T09:22:07.999Z</time></trkpt><trkpt lat="45.04966472529974" lon="9.943352464130841"><ele>37.0</ele><time>2026-04-19T09:22:08.999Z</time></trkpt><trkpt lat="45.0497592040612" lon="9.943355745502817"><ele>37.0</ele><time>2026-04-19T09:22:09.999Z</time></trkpt><trkpt lat="45.04985397846324" lon="9.943361259129333"><ele>37.0</ele><time>2026-04-19T09:22:10.999Z</time></trkpt><trkpt lat="45.04994895161627" lon="9.943367029583136"><ele>37.0</ele><time>2026-04-19T09:22:11.999Z</time></trkpt><trkpt lat="45.05004452482043" lon="9.94337164026172"><ele>37.0</ele><time>2026-04-19T09:22:12.999Z</time></trkpt><trkpt lat="45.050139820500874" lon="9.943372858959105"><ele>37.0</ele><time>2026-04-19T09:22:13.999Z</time></trkpt><trkpt lat="45.05023466770506" lon="9.943376201801916"><ele>37.0</ele><time>2026-04-19T09:22:14.999Z</time></trkpt><trkpt lat="45.0503295159884" lon="9.943382870434917"><ele>37.0</ele><time>2026-04-19T09:22:15.999Z</time></trkpt><trkpt lat="45.0504228967331" lon="9.94339005922669"><ele>37.0</ele><time>2026-04-19T09:22:16.999Z</time></trkpt><trkpt lat="45.05051755128728" lon="9.943397072150567"><ele>37.0</ele><time>2026-04-19T09:22:17.999Z</time></trkpt><trkpt lat="45.05061221763202" lon="9.943411556082296"><ele>37.0</ele><time>2026-04-19T09:22:18.999Z</time></trkpt><trkpt lat="45.050708724983735" lon="9.94342514674372"><ele>37.0</ele><time>2026-04-19T09:22:19.999Z</time></trkpt><trkpt lat="45.05080381556865" lon="9.94344009381391"><ele>37.0</ele><time>2026-04-19T09:22:20.999Z</time></trkpt><trkpt lat="45.05089877092694" lon="9.943462034182405"><ele>37.0</ele><time>2026-04-19T09:22:21.999Z</time></trkpt><trkpt lat="45.05099246646206" lon="9.943482588512452"><ele>37.0</ele><time>2026-04-19T09:22:22.999Z</time></trkpt><trkpt lat="45.05108517772051" lon="9.943505341121744"><ele>37.0</ele><time>2026-04-19T09:22:23.999Z</time></trkpt><trkpt lat="45.05117793498685" lon="9.943533509386935"><ele>37.0</ele><time>2026-04-19T09:22:24.999Z</time></trkpt><trkpt lat="45.05126739898031" lon="9.943566998713564"><ele>37.0</ele><time>2026-04-19T09:22:25.999Z</time></trkpt><trkpt lat="45.0513584432142" lon="9.94360613309146"><ele>37.0</ele><time>2026-04-19T09:22:26.999Z</time></trkpt><trkpt lat="45.05144988895579" lon="9.94364480860303"><ele>37.0</ele><time>2026-04-19T09:22:27.998Z</time></trkpt><trkpt lat="45.051540349609404" lon="9.943688115655135"><ele>37.0</ele><time>2026-04-19T09:22:28.998Z</time></trkpt><trkpt lat="45.0516316903714" lon="9.943730682022297"><ele>37.0</ele><time>2026-04-19T09:22:29.998Z</time></trkpt><trkpt lat="45.05171990485458" lon="9.943774725089611"><ele>37.2</ele><time>2026-04-19T09:22:30.998Z</time></trkpt><trkpt lat="45.051806434588165" lon="9.943826255397834"><ele>37.400000000000006</ele><time>2026-04-19T09:22:31.998Z</time></trkpt><trkpt lat="45.05189334876161" lon="9.943874696209884"><ele>37.599999999999994</ele><time>2026-04-19T09:22:32.998Z</time></trkpt><trkpt lat="45.05198029150516" lon="9.943924138337238"><ele>37.8</ele><time>2026-04-19T09:22:33.998Z</time></trkpt><trkpt lat="45.05206930979215" lon="9.943970641083702"><ele>38.0</ele><time>2026-04-19T09:22:34.998Z</time></trkpt><trkpt lat="45.0521585920363" lon="9.944020935598603"><ele>38.0</ele><time>2026-04-19T09:22:36Z</time></trkpt><trkpt lat="45.0522468591656" lon="9.944068612880304"><ele>38.0</ele><time>2026-04-19T09:22:37Z</time></trkpt><trkpt lat="45.05233450795182" lon="9.944115778700496"><ele>38.0</ele><time>2026-04-19T09:22:38Z</time></trkpt><trkpt lat="45.05242152388354" lon="9.944162524755056"><ele>38.0</ele><time>2026-04-19T09:22:39Z</time></trkpt><trkpt lat="45.05250917975373" lon="9.944210149462046"><ele>38.0</ele><time>2026-04-19T09:22:40Z</time></trkpt><trkpt lat="45.052598065697104" lon="9.94425698974132"><ele>38.0</ele><time>2026-04-19T09:22:41Z</time></trkpt><trkpt lat="45.05268672306935" lon="9.944306351864402"><ele>38.0</ele><time>2026-04-19T09:22:42Z</time></trkpt><trkpt lat="45.0527759791256" lon="9.944357315593614"><ele>38.0</ele><time>2026-04-19T09:22:43Z</time></trkpt><trkpt lat="45.052865775227126" lon="9.944403380105541"><ele>38.0</ele><time>2026-04-19T09:22:44Z</time></trkpt><trkpt lat="45.052954854699415" lon="9.944450770056603"><ele>38.0</ele><time>2026-04-19T09:22:45Z</time></trkpt><trkpt lat="45.05304140458493" lon="9.944497056712356"><ele>38.0</ele><time>2026-04-19T09:22:46Z</time></trkpt><trkpt lat="45.05312815543167" lon="9.944544805145048"><ele>38.0</ele><time>2026-04-19T09:22:47Z</time></trkpt><trkpt lat="45.053215840939856" lon="9.944590547569872"><ele>38.0</ele><time>2026-04-19T09:22:48Z</time></trkpt><trkpt lat="45.05330228641316" lon="9.94463725885532"><ele>38.0</ele><time>2026-04-19T09:22:49Z</time></trkpt><trkpt lat="45.05338972825037" lon="9.944685694914758"><ele>38.0</ele><time>2026-04-19T09:22:50Z</time></trkpt><trkpt lat="45.05347620778876" lon="9.944732048667577"><ele>38.0</ele><time>2026-04-19T09:22:51Z</time></trkpt><trkpt lat="45.05356399916948" lon="9.944777282471776"><ele>38.0</ele><time>2026-04-19T09:22:52Z</time></trkpt><trkpt lat="45.053648786364" lon="9.944823662476011"><ele>38.0</ele><time>2026-04-19T09:22:53Z</time></trkpt><trkpt lat="45.05373402366475" lon="9.944868330742128"><ele>38.0</ele><time>2026-04-19T09:22:54Z</time></trkpt><trkpt lat="45.0538183210745" lon="9.944915224367351"><ele>38.0</ele><time>2026-04-19T09:22:55Z</time></trkpt><trkpt lat="45.05390393843512" lon="9.944960744896504"><ele>38.0</ele><time>2026-04-19T09:22:56Z</time></trkpt><trkpt lat="45.05398894655637" lon="9.945009162673296"><ele>38.0</ele><time>2026-04-19T09:22:57Z</time></trkpt><trkpt lat="45.05407364942613" lon="9.945053793383291"><ele>38.0</ele><time>2026-04-19T09:22:58Z</time></trkpt><trkpt lat="45.05415737574165" lon="9.94510129678533"><ele>38.0</ele><time>2026-04-19T09:22:59Z</time></trkpt><trkpt lat="45.054241032652506" lon="9.945147608832357"><ele>38.0</ele><time>2026-04-19T09:23:00Z</time></trkpt><trkpt lat="45.054327144398044" lon="9.945193683748135"><ele>37.83333333333333</ele><time>2026-04-19T09:23:01Z</time></trkpt><trkpt lat="45.05440983847673" lon="9.945240579387766"><ele>37.666666666666664</ele><time>2026-04-19T09:23:02Z</time></trkpt><trkpt lat="45.0544934655201" lon="9.945285901111717"><ele>37.5</ele><time>2026-04-19T09:23:03Z</time></trkpt><trkpt lat="45.05457603194325" lon="9.945330935200111"><ele>37.333333333333336</ele><time>2026-04-19T09:23:04Z</time></trkpt><trkpt lat="45.05465738533143" lon="9.945374844992067"><ele>37.16666666666667</ele><time>2026-04-19T09:23:05Z</time></trkpt><trkpt lat="45.054738337175245" lon="9.945420611254592"><ele>37.0</ele><time>2026-04-19T09:23:06Z</time></trkpt><trkpt lat="45.054818707679026" lon="9.945467929883838"><ele>37.0</ele><time>2026-04-19T09:23:07Z</time></trkpt><trkpt lat="45.05490027097302" lon="9.945511158525623"><ele>37.0</ele><time>2026-04-19T09:23:08Z</time></trkpt><trkpt lat="45.054980041969294" lon="9.945558106165757"><ele>37.0</ele><time>2026-04-19T09:23:09Z</time></trkpt><trkpt lat="45.05506136681259" lon="9.945603148620265"><ele>37.0</ele><time>2026-04-19T09:23:10Z</time></trkpt><trkpt lat="45.05514213354769" lon="9.945644571978308"><ele>37.0</ele><time>2026-04-19T09:23:11Z</time></trkpt><trkpt lat="45.05522186673921" lon="9.94568496433969"><ele>37.0</ele><time>2026-04-19T09:23:12Z</time></trkpt><trkpt lat="45.0552991463107" lon="9.945726410078185"><ele>37.16666666666667</ele><time>2026-04-19T09:23:13Z</time></trkpt><trkpt lat="45.05537536141909" lon="9.94576541925225"><ele>37.333333333333336</ele><time>2026-04-19T09:23:14Z</time></trkpt><trkpt lat="45.05544936796848" lon="9.945805467097053"><ele>37.5</ele><time>2026-04-19T09:23:15Z</time></trkpt><trkpt lat="45.055522154863176" lon="9.945843401413786"><ele>37.666666666666664</ele><time>2026-04-19T09:23:16Z</time></trkpt><trkpt lat="45.05559564666329" lon="9.945878536762295"><ele>37.83333333333333</ele><time>2026-04-19T09:23:17Z</time></trkpt><trkpt lat="45.0556699138494" lon="9.945915081087538"><ele>38.0</ele><time>2026-04-19T09:23:18Z</time></trkpt><trkpt lat="45.055744973990606" lon="9.945952158378685"><ele>38.0</ele><time>2026-04-19T09:23:19Z</time></trkpt><trkpt lat="45.05582071230221" lon="9.945987027285797"><ele>38.0</ele><time>2026-04-19T09:23:20Z</time></trkpt><trkpt lat="45.05590007035634" lon="9.946021587232174"><ele>38.0</ele><time>2026-04-19T09:23:21Z</time></trkpt><trkpt lat="45.05597977371921" lon="9.946051864575715"><ele>38.0</ele><time>2026-04-19T09:23:22Z</time></trkpt><trkpt lat="45.05606195856578" lon="9.94607709009065"><ele>38.0</ele><time>2026-04-19T09:23:23Z</time></trkpt><trkpt lat="45.056147918410915" lon="9.94610125981693"><ele>38.0</ele><time>2026-04-19T09:23:24Z</time></trkpt><trkpt lat="45.05623522712037" lon="9.946123094345097"><ele>38.0</ele><time>2026-04-19T09:23:25Z</time></trkpt><trkpt lat="45.05632571153479" lon="9.94614583866042"><ele>38.0</ele><time>2026-04-19T09:23:26Z</time></trkpt><trkpt lat="45.05641575584029" lon="9.946166686091212"><ele>38.0</ele><time>2026-04-19T09:23:27Z</time></trkpt><trkpt lat="45.05650858338679" lon="9.946185859087818"><ele>38.0</ele><time>2026-04-19T09:23:28Z</time></trkpt><trkpt lat="45.056603838315894" lon="9.94620285342546"><ele>38.0</ele><time>2026-04-19T09:23:29Z</time></trkpt><trkpt lat="45.056698437586086" lon="9.946213311197457"><ele>37.6</ele><time>2026-04-19T09:23:30Z</time></trkpt><trkpt lat="45.056794482983136" lon="9.946223411552229"><ele>37.199999999999996</ele><time>2026-04-19T09:23:31Z</time></trkpt><trkpt lat="45.056888954428366" lon="9.946229294618487"><ele>36.8</ele><time>2026-04-19T09:23:32Z</time></trkpt><trkpt lat="45.05698619941478" lon="9.946231436632127"><ele>36.4</ele><time>2026-04-19T09:23:33Z</time></trkpt><trkpt lat="45.0570832497228" lon="9.946229845798662"><ele>36.0</ele><time>2026-04-19T09:23:34Z</time></trkpt><trkpt lat="45.05718425917373" lon="9.946229451175974"><ele>36.0</ele><time>2026-04-19T09:23:35Z</time></trkpt><trkpt lat="45.05728634526235" lon="9.946224649072278"><ele>36.0</ele><time>2026-04-19T09:23:36Z</time></trkpt><trkpt lat="45.057387871859554" lon="9.946220794272467"><ele>36.0</ele><time>2026-04-19T09:23:37Z</time></trkpt><trkpt lat="45.05748774721124" lon="9.94621767283229"><ele>36.0</ele><time>2026-04-19T09:23:37.999Z</time></trkpt><trkpt lat="45.05758733525734" lon="9.946213870254393"><ele>36.0</ele><time>2026-04-19T09:23:38.999Z</time></trkpt><trkpt lat="45.057684321476415" lon="9.94621008361904"><ele>36.0</ele><time>2026-04-19T09:23:39.999Z</time></trkpt><trkpt lat="45.05778348985018" lon="9.946201270922465"><ele>36.0</ele><time>2026-04-19T09:23:40.999Z</time></trkpt><trkpt lat="45.05788000334654" lon="9.946198058625367"><ele>36.0</ele><time>2026-04-19T09:23:41.999Z</time></trkpt><trkpt lat="45.05798088250022" lon="9.946192345208546"><ele>36.0</ele><time>2026-04-19T09:23:42.999Z</time></trkpt><trkpt lat="45.05807941996823" lon="9.946189093629624"><ele>36.0</ele><time>2026-04-19T09:23:43.999Z</time></trkpt><trkpt lat="45.058176240826334" lon="9.946186619835348"><ele>36.0</ele><time>2026-04-19T09:23:44.999Z</time></trkpt><trkpt lat="45.05827223424162" lon="9.94618856656806"><ele>36.0</ele><time>2026-04-19T09:23:45.999Z</time></trkpt><trkpt lat="45.058368505413455" lon="9.946190977103425"><ele>36.0</ele><time>2026-04-19T09:23:46.999Z</time></trkpt><trkpt lat="45.05846437935297" lon="9.946197846046744"><ele>36.0</ele><time>2026-04-19T09:23:47.999Z</time></trkpt><trkpt lat="45.05855976233373" lon="9.946207058130149"><ele>36.0</ele><time>2026-04-19T09:23:48.999Z</time></trkpt><trkpt lat="45.05865326523391" lon="9.94621482485977"><ele>36.2</ele><time>2026-04-19T09:23:49.999Z</time></trkpt><trkpt lat="45.05874825259504" lon="9.9462318926616"><ele>36.400000000000006</ele><time>2026-04-19T09:23:50.999Z</time></trkpt><trkpt lat="45.058842840449536" lon="9.946242976592961"><ele>36.6</ele><time>2026-04-19T09:23:51.999Z</time></trkpt><trkpt lat="45.05893809011339" lon="9.946253356564066"><ele>36.800000000000004</ele><time>2026-04-19T09:23:52.999Z</time></trkpt><trkpt lat="45.05903162732468" lon="9.94626596828526"><ele>37.0</ele><time>2026-04-19T09:23:53.999Z</time></trkpt><trkpt lat="45.0591255467335" lon="9.946281786238277"><ele>37.0</ele><time>2026-04-19T09:23:54.999Z</time></trkpt><trkpt lat="45.05922117582721" lon="9.946302950537138"><ele>37.0</ele><time>2026-04-19T09:23:55.999Z</time></trkpt><trkpt lat="45.05931360779008" lon="9.946325332586511"><ele>37.0</ele><time>2026-04-19T09:23:56.999Z</time></trkpt><trkpt lat="45.05940564509324" lon="9.946346604148802"><ele>37.0</ele><time>2026-04-19T09:23:57.999Z</time></trkpt><trkpt lat="45.05949619651586" lon="9.946366573208014"><ele>37.0</ele><time>2026-04-19T09:23:58.999Z</time></trkpt><trkpt lat="45.059585925353765" lon="9.946390621771842"><ele>37.0</ele><time>2026-04-19T09:23:59.999Z</time></trkpt><trkpt lat="45.059673700980504" lon="9.946416297730662"><ele>37.0</ele><time>2026-04-19T09:24:00.999Z</time></trkpt><trkpt lat="45.05975938671616" lon="9.946441279443109"><ele>37.0</ele><time>2026-04-19T09:24:01.999Z</time></trkpt><trkpt lat="45.05984374324194" lon="9.94647200339533"><ele>37.0</ele><time>2026-04-19T09:24:02.999Z</time></trkpt><trkpt lat="45.05992862303312" lon="9.946498569479854"><ele>37.0</ele><time>2026-04-19T09:24:03.999Z</time></trkpt><trkpt lat="45.06001367409413" lon="9.946530548484725"><ele>37.0</ele><time>2026-04-19T09:24:04.999Z</time></trkpt><trkpt lat="45.06009879655833" lon="9.9465608874865"><ele>36.833333333333336</ele><time>2026-04-19T09:24:05.999Z</time></trkpt><trkpt lat="45.06018423017616" lon="9.946595477271602"><ele>36.66666666666667</ele><time>2026-04-19T09:24:06.999Z</time></trkpt><trkpt lat="45.06026857207557" lon="9.946629452511424"><ele>36.5</ele><time>2026-04-19T09:24:07.999Z</time></trkpt><trkpt lat="45.06035166135956" lon="9.946666900476092"><ele>36.333333333333336</ele><time>2026-04-19T09:24:08.999Z</time></trkpt><trkpt lat="45.06043476070464" lon="9.94670436323365"><ele>36.166666666666664</ele><time>2026-04-19T09:24:09.999Z</time></trkpt><trkpt lat="45.06051839007746" lon="9.946741837240694"><ele>36.0</ele><time>2026-04-19T09:24:10.999Z</time></trkpt><trkpt lat="45.06060129991071" lon="9.946779438909195"><ele>36.0</ele><time>2026-04-19T09:24:11.999Z</time></trkpt><trkpt lat="45.060684273436365" lon="9.946817804830664"><ele>36.0</ele><time>2026-04-19T09:24:12.999Z</time></trkpt><trkpt lat="45.060765250934196" lon="9.946860178966647"><ele>36.0</ele><time>2026-04-19T09:24:13.999Z</time></trkpt><trkpt lat="45.06084673845008" lon="9.946899926313305"><ele>36.0</ele><time>2026-04-19T09:24:14.999Z</time></trkpt><trkpt lat="45.06092913962876" lon="9.946938971124817"><ele>36.0</ele><time>2026-04-19T09:24:15.999Z</time></trkpt><trkpt lat="45.06101089597791" lon="9.946977852515685"><ele>36.0</ele><time>2026-04-19T09:24:16.999Z</time></trkpt><trkpt lat="45.06109212023433" lon="9.94701711559882"><ele>36.0</ele><time>2026-04-19T09:24:17.999Z</time></trkpt><trkpt lat="45.06117294684242" lon="9.947054097826618"><ele>36.0</ele><time>2026-04-19T09:24:18.999Z</time></trkpt><trkpt lat="45.06125427686324" lon="9.947091723521975"><ele>36.0</ele><time>2026-04-19T09:24:19.999Z</time></trkpt><trkpt lat="45.06133562306367" lon="9.947129755771726"><ele>36.0</ele><time>2026-04-19T09:24:20.999Z</time></trkpt><trkpt lat="45.06141654888739" lon="9.947170865965223"><ele>36.0</ele><time>2026-04-19T09:24:21.999Z</time></trkpt><trkpt lat="45.0614979917115" lon="9.947215623538572"><ele>36.0</ele><time>2026-04-19T09:24:22.999Z</time></trkpt><trkpt lat="45.06157900164554" lon="9.947250701427352"><ele>36.166666666666664</ele><time>2026-04-19T09:24:23.999Z</time></trkpt><trkpt lat="45.061663823786574" lon="9.947290949232624"><ele>36.333333333333336</ele><time>2026-04-19T09:24:24.999Z</time></trkpt><trkpt lat="45.061749134906535" lon="9.947332884525537"><ele>36.5</ele><time>2026-04-19T09:24:25.999Z</time></trkpt><trkpt lat="45.06183255156317" lon="9.947372701660603"><ele>36.66666666666667</ele><time>2026-04-19T09:24:26.999Z</time></trkpt><trkpt lat="45.061915334048685" lon="9.947409105299487"><ele>36.833333333333336</ele><time>2026-04-19T09:24:27.999Z</time></trkpt><trkpt lat="45.061996844587945" lon="9.947446823428121"><ele>37.0</ele><time>2026-04-19T09:24:28.999Z</time></trkpt><trkpt lat="45.06207665189341" lon="9.947486798761002"><ele>37.0</ele><time>2026-04-19T09:24:29.999Z</time></trkpt><trkpt lat="45.062156934573615" lon="9.947526528319722"><ele>37.0</ele><time>2026-04-19T09:24:30.998Z</time></trkpt><trkpt lat="45.06223845357225" lon="9.94756501228845"><ele>37.0</ele><time>2026-04-19T09:24:31.998Z</time></trkpt><trkpt lat="45.06232236155414" lon="9.947601739001831"><ele>37.0</ele><time>2026-04-19T09:24:32.998Z</time></trkpt><trkpt lat="45.062403526544514" lon="9.947638027502597"><ele>37.0</ele><time>2026-04-19T09:24:33.998Z</time></trkpt><trkpt lat="45.06248621799471" lon="9.94767272980029"><ele>37.0</ele><time>2026-04-19T09:24:34.998Z</time></trkpt><trkpt lat="45.062566407452806" lon="9.947709417816963"><ele>37.66666666666667</ele><time>2026-04-19T09:24:35.998Z</time></trkpt><trkpt lat="45.06264941970076" lon="9.94774491995863"><ele>38.333333333333336</ele><time>2026-04-19T09:24:36.998Z</time></trkpt><trkpt lat="45.0627327497188" lon="9.947780757218018"><ele>39.0</ele><time>2026-04-19T09:24:37.998Z</time></trkpt><trkpt lat="45.062816799912596" lon="9.947810968052393"><ele>39.666666666666664</ele><time>2026-04-19T09:24:38.998Z</time></trkpt><trkpt lat="45.06290165313496" lon="9.9478368183609"><ele>40.33333333333333</ele><time>2026-04-19T09:24:39.998Z</time></trkpt><trkpt lat="45.06298663592343" lon="9.947870865866985"><ele>41.0</ele><time>2026-04-19T09:24:40.998Z</time></trkpt><trkpt lat="45.06307168101562" lon="9.947902144095117"><ele>41.0</ele><time>2026-04-19T09:24:42Z</time></trkpt><trkpt lat="45.06315606140568" lon="9.947932471307649"><ele>41.0</ele><time>2026-04-19T09:24:43Z</time></trkpt><trkpt lat="45.06324012437647" lon="9.947959976101082"><ele>41.0</ele><time>2026-04-19T09:24:44Z</time></trkpt><trkpt lat="45.063324657184836" lon="9.947987226916169"><ele>41.0</ele><time>2026-04-19T09:24:45Z</time></trkpt><trkpt lat="45.063407770935164" lon="9.948016384979214"><ele>41.0</ele><time>2026-04-19T09:24:46Z</time></trkpt><trkpt lat="45.06349419724025" lon="9.948047678652133"><ele>41.0</ele><time>2026-04-19T09:24:47Z</time></trkpt><trkpt lat="45.06358254177209" lon="9.948078522370132"><ele>41.0</ele><time>2026-04-19T09:24:48Z</time></trkpt><trkpt lat="45.06367209111551" lon="9.948109428330886"><ele>41.0</ele><time>2026-04-19T09:24:49Z</time></trkpt><trkpt lat="45.063759009005054" lon="9.948146117930914"><ele>41.0</ele><time>2026-04-19T09:24:50Z</time></trkpt><trkpt lat="45.06384856227731" lon="9.94817793455735"><ele>41.0</ele><time>2026-04-19T09:24:51Z</time></trkpt><trkpt lat="45.06393791456893" lon="9.948213160591779"><ele>41.0</ele><time>2026-04-19T09:24:52Z</time></trkpt><trkpt lat="45.06402670396782" lon="9.948254952436205"><ele>40.8</ele><time>2026-04-19T09:24:53Z</time></trkpt><trkpt lat="45.064118915837504" lon="9.94829814059843"><ele>40.599999999999994</ele><time>2026-04-19T09:24:54Z</time></trkpt><trkpt lat="45.06421096606157" lon="9.948344466086795"><ele>40.4</ele><time>2026-04-19T09:24:55Z</time></trkpt><trkpt lat="45.06430565889958" lon="9.948389519344012"><ele>40.2</ele><time>2026-04-19T09:24:56Z</time></trkpt><trkpt lat="45.06439901241116" lon="9.948431429101188"><ele>40.0</ele><time>2026-04-19T09:24:57Z</time></trkpt><trkpt lat="45.06449424779326" lon="9.948479195308584"><ele>40.0</ele><time>2026-04-19T09:24:58Z</time></trkpt><trkpt lat="45.064593482023525" lon="9.948528425616873"><ele>40.0</ele><time>2026-04-19T09:24:59Z</time></trkpt><trkpt lat="45.064692691482044" lon="9.948577142122533"><ele>40.0</ele><time>2026-04-19T09:25:00Z</time></trkpt><trkpt lat="45.064791888660224" lon="9.948624208890383"><ele>40.0</ele><time>2026-04-19T09:25:01Z</time></trkpt><trkpt lat="45.06488675864858" lon="9.948670177274442"><ele>40.0</ele><time>2026-04-19T09:25:02Z</time></trkpt><trkpt lat="45.06498419283871" lon="9.948717042706043"><ele>40.0</ele><time>2026-04-19T09:25:03Z</time></trkpt><trkpt lat="45.06508396099889" lon="9.948763308946607"><ele>40.0</ele><time>2026-04-19T09:25:04Z</time></trkpt><trkpt lat="45.06518233346553" lon="9.948809735440319"><ele>40.0</ele><time>2026-04-19T09:25:05Z</time></trkpt><trkpt lat="45.065282029378984" lon="9.94885449783195"><ele>40.0</ele><time>2026-04-19T09:25:06Z</time></trkpt><trkpt lat="45.06538189494508" lon="9.948900368460784"><ele>40.0</ele><time>2026-04-19T09:25:07Z</time></trkpt><trkpt lat="45.0654822874437" lon="9.948944798623858"><ele>40.0</ele><time>2026-04-19T09:25:08Z</time></trkpt><trkpt lat="45.06558225166513" lon="9.948984699802653"><ele>40.0</ele><time>2026-04-19T09:25:09Z</time></trkpt><trkpt lat="45.065680950595976" lon="9.949030948474372"><ele>40.0</ele><time>2026-04-19T09:25:10Z</time></trkpt><trkpt lat="45.065777020860125" lon="9.949080125602936"><ele>40.0</ele><time>2026-04-19T09:25:11Z</time></trkpt><trkpt lat="45.06587315943271" lon="9.949132581656349"><ele>40.0</ele><time>2026-04-19T09:25:12Z</time></trkpt><trkpt lat="45.065969375178" lon="9.94918586763753"><ele>39.8</ele><time>2026-04-19T09:25:13Z</time></trkpt><trkpt lat="45.06606871655659" lon="9.949236721550328"><ele>39.6</ele><time>2026-04-19T09:25:14Z</time></trkpt><trkpt lat="45.066167570349485" lon="9.949291563562246"><ele>39.4</ele><time>2026-04-19T09:25:15Z</time></trkpt><trkpt lat="45.066265952784015" lon="9.949345513786449"><ele>39.2</ele><time>2026-04-19T09:25:16Z</time></trkpt><trkpt lat="45.06636499990638" lon="9.949400189028133"><ele>39.0</ele><time>2026-04-19T09:25:17Z</time></trkpt><trkpt lat="45.06646215234359" lon="9.949454273934533"><ele>39.0</ele><time>2026-04-19T09:25:18Z</time></trkpt><trkpt lat="45.066558390966804" lon="9.949508633395807"><ele>39.0</ele><time>2026-04-19T09:25:19Z</time></trkpt><trkpt lat="45.06665491039195" lon="9.949566669888407"><ele>39.0</ele><time>2026-04-19T09:25:20Z</time></trkpt><trkpt lat="45.06674877060312" lon="9.949624664237437"><ele>39.0</ele><time>2026-04-19T09:25:21Z</time></trkpt><trkpt lat="45.06684413801115" lon="9.94968351447593"><ele>39.0</ele><time>2026-04-19T09:25:22Z</time></trkpt><trkpt lat="45.066939845064105" lon="9.949745309408568"><ele>39.0</ele><time>2026-04-19T09:25:23Z</time></trkpt><trkpt lat="45.06703576159881" lon="9.949804248741824"><ele>39.0</ele><time>2026-04-19T09:25:24Z</time></trkpt><trkpt lat="45.06713149743631" lon="9.949861885670025"><ele>39.0</ele><time>2026-04-19T09:25:25Z</time></trkpt><trkpt lat="45.0672260749561" lon="9.949919004562686"><ele>39.0</ele><time>2026-04-19T09:25:26Z</time></trkpt><trkpt lat="45.06732060618796" lon="9.949976523955076"><ele>39.0</ele><time>2026-04-19T09:25:27Z</time></trkpt><trkpt lat="45.067415688213806" lon="9.950035408438028"><ele>38.4</ele><time>2026-04-19T09:25:28Z</time></trkpt><trkpt lat="45.06750653616364" lon="9.95009422825927"><ele>37.8</ele><time>2026-04-19T09:25:29Z</time></trkpt><trkpt lat="45.06759591353054" lon="9.950155884862905"><ele>37.2</ele><time>2026-04-19T09:25:30Z</time></trkpt><trkpt lat="45.06768595414577" lon="9.950217542206122"><ele>36.6</ele><time>2026-04-19T09:25:31Z</time></trkpt><trkpt lat="45.0677760287987" lon="9.95027702282778"><ele>36.0</ele><time>2026-04-19T09:25:32Z</time></trkpt><trkpt lat="45.067864694000384" lon="9.95033893540086"><ele>36.0</ele><time>2026-04-19T09:25:33Z</time></trkpt><trkpt lat="45.06795026870493" lon="9.950405529005405"><ele>36.0</ele><time>2026-04-19T09:25:34Z</time></trkpt><trkpt lat="45.06803675255471" lon="9.950471384676156"><ele>36.0</ele><time>2026-04-19T09:25:35Z</time></trkpt><trkpt lat="45.06811970376336" lon="9.950547155853238"><ele>36.0</ele><time>2026-04-19T09:25:36Z</time></trkpt><trkpt lat="45.06820176931964" lon="9.950624120522285"><ele>36.0</ele><time>2026-04-19T09:25:37Z</time></trkpt><trkpt lat="45.0682811576143" lon="9.95070921070728"><ele>35.6</ele><time>2026-04-19T09:25:38Z</time></trkpt><trkpt lat="45.06835497800915" lon="9.95079192124571"><ele>35.2</ele><time>2026-04-19T09:25:39Z</time></trkpt><trkpt lat="45.06842448675527" lon="9.950886060916543"><ele>34.8</ele><time>2026-04-19T09:25:40Z</time></trkpt><trkpt lat="45.06849785807849" lon="9.950975700451078"><ele>34.4</ele><time>2026-04-19T09:25:41Z</time></trkpt><trkpt lat="45.068572970614866" lon="9.951061871408552"><ele>34.0</ele><time>2026-04-19T09:25:42Z</time></trkpt><trkpt lat="45.068648283866594" lon="9.95114889740029"><ele>34.0</ele><time>2026-04-19T09:25:43Z</time></trkpt><trkpt lat="45.06872149903912" lon="9.95123566870167"><ele>34.0</ele><time>2026-04-19T09:25:43.999Z</time></trkpt><trkpt lat="45.06879313839167" lon="9.951320330565324"><ele>34.0</ele><time>2026-04-19T09:25:44.999Z</time></trkpt><trkpt lat="45.068865570609546" lon="9.951407166265593"><ele>34.0</ele><time>2026-04-19T09:25:45.999Z</time></trkpt><trkpt lat="45.068939010526876" lon="9.951492534418103"><ele>34.0</ele><time>2026-04-19T09:25:46.999Z</time></trkpt><trkpt lat="45.06901139829165" lon="9.951578861841831"><ele>34.0</ele><time>2026-04-19T09:25:47.999Z</time></trkpt><trkpt lat="45.06908405084001" lon="9.95166401045769"><ele>34.0</ele><time>2026-04-19T09:25:48.999Z</time></trkpt><trkpt lat="45.06915637364659" lon="9.951750681256032"><ele>34.0</ele><time>2026-04-19T09:25:49.999Z</time></trkpt><trkpt lat="45.06922917971112" lon="9.951836420277626"><ele>34.0</ele><time>2026-04-19T09:25:50.999Z</time></trkpt><trkpt lat="45.06930185626101" lon="9.951921984074527"><ele>34.0</ele><time>2026-04-19T09:25:51.999Z</time></trkpt><trkpt lat="45.069373962268884" lon="9.952007722319872"><ele>34.6</ele><time>2026-04-19T09:25:52.999Z</time></trkpt><trkpt lat="45.06944660857054" lon="9.952091593750742"><ele>35.2</ele><time>2026-04-19T09:25:53.999Z</time></trkpt><trkpt lat="45.06951988290597" lon="9.952175599521881"><ele>35.800000000000004</ele><time>2026-04-19T09:25:54.999Z</time></trkpt><trkpt lat="45.06959111051493" lon="9.952264913868365"><ele>36.4</ele><time>2026-04-19T09:25:55.999Z</time></trkpt><trkpt lat="45.069664044711644" lon="9.952350235679225"><ele>37.0</ele><time>2026-04-19T09:25:56.999Z</time></trkpt><trkpt lat="45.06973612314775" lon="9.952433517493349"><ele>37.0</ele><time>2026-04-19T09:25:57.999Z</time></trkpt><trkpt lat="45.06980856320453" lon="9.952514712241813"><ele>37.0</ele><time>2026-04-19T09:25:58.999Z</time></trkpt><trkpt lat="45.069878462974785" lon="9.952598667836906"><ele>37.0</ele><time>2026-04-19T09:25:59.999Z</time></trkpt><trkpt lat="45.06994963140381" lon="9.952682629374506"><ele>37.0</ele><time>2026-04-19T09:26:00.999Z</time></trkpt><trkpt lat="45.07002164398519" lon="9.952767632807294"><ele>37.0</ele><time>2026-04-19T09:26:01.999Z</time></trkpt><trkpt lat="45.07009170708497" lon="9.952851939198135"><ele>37.0</ele><time>2026-04-19T09:26:02.999Z</time></trkpt><trkpt lat="45.070165879077024" lon="9.952936890071324"><ele>37.0</ele><time>2026-04-19T09:26:03.999Z</time></trkpt><trkpt lat="45.070236883010274" lon="9.953025398372285"><ele>37.0</ele><time>2026-04-19T09:26:04.999Z</time></trkpt><trkpt lat="45.070311246679694" lon="9.953114008297309"><ele>37.0</ele><time>2026-04-19T09:26:05.999Z</time></trkpt><trkpt lat="45.070385418559646" lon="9.95319845700997"><ele>37.0</ele><time>2026-04-19T09:26:06.999Z</time></trkpt><trkpt lat="45.07045753595837" lon="9.953288538326012"><ele>37.0</ele><time>2026-04-19T09:26:07.999Z</time></trkpt><trkpt lat="45.07053159936582" lon="9.95337184746199"><ele>37.0</ele><time>2026-04-19T09:26:08.999Z</time></trkpt><trkpt lat="45.07060450420065" lon="9.953456465610465"><ele>37.0</ele><time>2026-04-19T09:26:09.999Z</time></trkpt><trkpt lat="45.07067795638855" lon="9.953540488782728"><ele>37.0</ele><time>2026-04-19T09:26:10.999Z</time></trkpt><trkpt lat="45.070750217361216" lon="9.953625621491103"><ele>37.0</ele><time>2026-04-19T09:26:11.999Z</time></trkpt><trkpt lat="45.07082138409343" lon="9.953710356089982"><ele>37.2</ele><time>2026-04-19T09:26:12.999Z</time></trkpt><trkpt lat="45.070894592196844" lon="9.953791233720276"><ele>37.400000000000006</ele><time>2026-04-19T09:26:13.999Z</time></trkpt><trkpt lat="45.07096591219953" lon="9.953876415975975"><ele>37.599999999999994</ele><time>2026-04-19T09:26:14.999Z</time></trkpt><trkpt lat="45.0710393366329" lon="9.95396093258304"><ele>37.8</ele><time>2026-04-19T09:26:15.999Z</time></trkpt><trkpt lat="45.07111220107216" lon="9.954045063651558"><ele>38.0</ele><time>2026-04-19T09:26:16.999Z</time></trkpt><trkpt lat="45.071183363295475" lon="9.954130309629713"><ele>37.8</ele><time>2026-04-19T09:26:17.999Z</time></trkpt><trkpt lat="45.07125469225378" lon="9.954215533138724"><ele>37.599999999999994</ele><time>2026-04-19T09:26:18.999Z</time></trkpt><trkpt lat="45.071325910104306" lon="9.95429948630141"><ele>37.400000000000006</ele><time>2026-04-19T09:26:19.999Z</time></trkpt><trkpt lat="45.0713964488347" lon="9.954384975681087"><ele>37.2</ele><time>2026-04-19T09:26:20.999Z</time></trkpt><trkpt lat="45.071469667551774" lon="9.954468883729689"><ele>37.0</ele><time>2026-04-19T09:26:21.999Z</time></trkpt><trkpt lat="45.07154205931944" lon="9.954555621544879"><ele>36.4</ele><time>2026-04-19T09:26:22.999Z</time></trkpt><trkpt lat="45.07161398610607" lon="9.954640606776215"><ele>35.800000000000004</ele><time>2026-04-19T09:26:23.999Z</time></trkpt><trkpt lat="45.071684982301264" lon="9.95472456902915"><ele>35.2</ele><time>2026-04-19T09:26:24.999Z</time></trkpt><trkpt lat="45.071756989952654" lon="9.954807103481341"><ele>34.6</ele><time>2026-04-19T09:26:25.999Z</time></trkpt><trkpt lat="45.07182785042014" lon="9.954892750743193"><ele>34.0</ele><time>2026-04-19T09:26:26.999Z</time></trkpt><trkpt lat="45.07189899149655" lon="9.954978223670988"><ele>34.2</ele><time>2026-04-19T09:26:27.999Z</time></trkpt><trkpt lat="45.07197082286392" lon="9.95506015134232"><ele>34.4</ele><time>2026-04-19T09:26:28.999Z</time></trkpt><trkpt lat="45.0720424121046" lon="9.955143528996064"><ele>34.6</ele><time>2026-04-19T09:26:29.999Z</time></trkpt><trkpt lat="45.07211414920875" lon="9.955227190921176"><ele>34.8</ele><time>2026-04-19T09:26:30.999Z</time></trkpt><trkpt lat="45.072185219273436" lon="9.95531322299395"><ele>35.0</ele><time>2026-04-19T09:26:31.999Z</time></trkpt><trkpt lat="45.0722580620945" lon="9.955397567397947"><ele>35.0</ele><time>2026-04-19T09:26:32.999Z</time></trkpt><trkpt lat="45.07232930900964" lon="9.955483082424221"><ele>35.0</ele><time>2026-04-19T09:26:33.999Z</time></trkpt><trkpt lat="45.07240079952911" lon="9.955565478795272"><ele>35.0</ele><time>2026-04-19T09:26:34.999Z</time></trkpt><trkpt lat="45.07247122793982" lon="9.955647535381209"><ele>35.0</ele><time>2026-04-19T09:26:35.999Z</time></trkpt><trkpt lat="45.072542144907636" lon="9.955730271456039"><ele>35.0</ele><time>2026-04-19T09:26:36.998Z</time></trkpt><trkpt lat="45.07261178960442" lon="9.955812665154435"><ele>35.0</ele><time>2026-04-19T09:26:37.998Z</time></trkpt><trkpt lat="45.07268283642866" lon="9.955894693063764"><ele>35.0</ele><time>2026-04-19T09:26:38.998Z</time></trkpt><trkpt lat="45.072753154400566" lon="9.955979025390922"><ele>35.0</ele><time>2026-04-19T09:26:39.998Z</time></trkpt><trkpt lat="45.07282240313874" lon="9.956059604295774"><ele>35.0</ele><time>2026-04-19T09:26:40.998Z</time></trkpt><trkpt lat="45.07289008743454" lon="9.95614122723233"><ele>35.0</ele><time>2026-04-19T09:26:41.998Z</time></trkpt><trkpt lat="45.07295853571479" lon="9.95622033813744"><ele>35.0</ele><time>2026-04-19T09:26:42.998Z</time></trkpt><trkpt lat="45.07302638525847" lon="9.956298842603472"><ele>35.0</ele><time>2026-04-19T09:26:43.998Z</time></trkpt><trkpt lat="45.073092469098306" lon="9.956379092861843"><ele>35.0</ele><time>2026-04-19T09:26:44.998Z</time></trkpt><trkpt lat="45.073159889618566" lon="9.95645987494449"><ele>35.0</ele><time>2026-04-19T09:26:45.998Z</time></trkpt><trkpt lat="45.07322903573738" lon="9.956538871592354"><ele>35.0</ele><time>2026-04-19T09:26:46.998Z</time></trkpt><trkpt lat="45.07329769247188" lon="9.956618771470298"><ele>35.0</ele><time>2026-04-19T09:26:48Z</time></trkpt><trkpt lat="45.07336507304741" lon="9.956698481153225"><ele>35.166666666666664</ele><time>2026-04-19T09:26:49Z</time></trkpt><trkpt lat="45.073433673744674" lon="9.956777958099174"><ele>35.33333333333333</ele><time>2026-04-19T09:26:50Z</time></trkpt><trkpt lat="45.07350435416672" lon="9.956854209131004"><ele>35.5</ele><time>2026-04-19T09:26:51Z</time></trkpt><trkpt lat="45.07357295421854" lon="9.956936574094541"><ele>35.666666666666664</ele><time>2026-04-19T09:26:52Z</time></trkpt><trkpt lat="45.07364361778599" lon="9.957016567680983"><ele>35.833333333333336</ele><time>2026-04-19T09:26:53Z</time></trkpt><trkpt lat="45.07371620182803" lon="9.957094589609959"><ele>36.0</ele><time>2026-04-19T09:26:54Z</time></trkpt><trkpt lat="45.07378730753676" lon="9.957176194451106"><ele>36.0</ele><time>2026-04-19T09:26:55Z</time></trkpt><trkpt lat="45.073859102236206" lon="9.957258781786319"><ele>36.0</ele><time>2026-04-19T09:26:56Z</time></trkpt><trkpt lat="45.073929869032874" lon="9.957340737444863"><ele>36.0</ele><time>2026-04-19T09:26:57Z</time></trkpt><trkpt lat="45.07400116029635" lon="9.957422952875014"><ele>36.0</ele><time>2026-04-19T09:26:58Z</time></trkpt><trkpt lat="45.074073931295395" lon="9.957503959096444"><ele>36.0</ele><time>2026-04-19T09:26:59Z</time></trkpt><trkpt lat="45.074145659187714" lon="9.95758865699564"><ele>36.4</ele><time>2026-04-19T09:27:00Z</time></trkpt><trkpt lat="45.07421549316541" lon="9.95767728509509"><ele>36.8</ele><time>2026-04-19T09:27:01Z</time></trkpt><trkpt lat="45.074282941207414" lon="9.957769087171007"><ele>37.199999999999996</ele><time>2026-04-19T09:27:02Z</time></trkpt><trkpt lat="45.07433027755752" lon="9.957884338984458"><ele>37.6</ele><time>2026-04-19T09:27:03Z</time></trkpt><trkpt lat="45.074387688246006" lon="9.95799049287376"><ele>38.0</ele><time>2026-04-19T09:27:04Z</time></trkpt><trkpt lat="45.07445759279927" lon="9.95808601270431"><ele>38.0</ele><time>2026-04-19T09:27:05Z</time></trkpt><trkpt lat="45.074508690083555" lon="9.958200985580051"><ele>38.0</ele><time>2026-04-19T09:27:06Z</time></trkpt><trkpt lat="45.0745624528637" lon="9.958312305155017"><ele>38.0</ele><time>2026-04-19T09:27:07Z</time></trkpt><trkpt lat="45.07461653149144" lon="9.958424615352834"><ele>38.0</ele><time>2026-04-19T09:27:08Z</time></trkpt><trkpt lat="45.0746656537403" lon="9.95853456717754"><ele>38.0</ele><time>2026-04-19T09:27:09Z</time></trkpt><trkpt lat="45.07471450383134" lon="9.958649167331126"><ele>38.0</ele><time>2026-04-19T09:27:10Z</time></trkpt><trkpt lat="45.074760630049255" lon="9.958765131892518"><ele>38.0</ele><time>2026-04-19T09:27:11Z</time></trkpt><trkpt lat="45.074805989753116" lon="9.958883032787908"><ele>38.0</ele><time>2026-04-19T09:27:12Z</time></trkpt><trkpt lat="45.0748497334574" lon="9.958996745524342"><ele>38.0</ele><time>2026-04-19T09:27:13Z</time></trkpt><trkpt lat="45.07489432250187" lon="9.959114285424654"><ele>38.0</ele><time>2026-04-19T09:27:14Z</time></trkpt><trkpt lat="45.07493817494476" lon="9.959234137518889"><ele>38.199999999999996</ele><time>2026-04-19T09:27:15Z</time></trkpt><trkpt lat="45.07498177336153" lon="9.959350120544366"><ele>38.4</ele><time>2026-04-19T09:27:16Z</time></trkpt><trkpt lat="45.075021354577096" lon="9.959465133770975"><ele>38.599999999999994</ele><time>2026-04-19T09:27:17Z</time></trkpt><trkpt lat="45.07505752638507" lon="9.959583782373267"><ele>38.8</ele><time>2026-04-19T09:27:18Z</time></trkpt><trkpt lat="45.075098858972765" lon="9.959700198125217"><ele>39.0</ele><time>2026-04-19T09:27:19Z</time></trkpt><trkpt lat="45.07514249050757" lon="9.959817576059859"><ele>39.0</ele><time>2026-04-19T09:27:20Z</time></trkpt><trkpt lat="45.07518703739035" lon="9.959929594269905"><ele>39.0</ele><time>2026-04-19T09:27:21Z</time></trkpt><trkpt lat="45.07523415784212" lon="9.96004390772728"><ele>39.0</ele><time>2026-04-19T09:27:22Z</time></trkpt><trkpt lat="45.07528081792608" lon="9.96015427242056"><ele>39.0</ele><time>2026-04-19T09:27:23Z</time></trkpt><trkpt lat="45.075329335186716" lon="9.960261218373699"><ele>39.0</ele><time>2026-04-19T09:27:24Z</time></trkpt><trkpt lat="45.07538212077908" lon="9.960368002843284"><ele>39.0</ele><time>2026-04-19T09:27:25Z</time></trkpt><trkpt lat="45.07543483755775" lon="9.960476991954607"><ele>39.0</ele><time>2026-04-19T09:27:26Z</time></trkpt><trkpt lat="45.07549440115888" lon="9.960582206343398"><ele>39.0</ele><time>2026-04-19T09:27:27Z</time></trkpt><trkpt lat="45.075536846203306" lon="9.960697554773661"><ele>39.0</ele><time>2026-04-19T09:27:28Z</time></trkpt><trkpt lat="45.07559189636272" lon="9.960798595055381"><ele>39.0</ele><time>2026-04-19T09:27:29Z</time></trkpt><trkpt lat="45.07565866197759" lon="9.960886891956005"><ele>39.0</ele><time>2026-04-19T09:27:30Z</time></trkpt><trkpt lat="45.07571821034165" lon="9.960991533938058"><ele>39.0</ele><time>2026-04-19T09:27:31Z</time></trkpt><trkpt lat="45.07577829430298" lon="9.961092772069492"><ele>39.0</ele><time>2026-04-19T09:27:32Z</time></trkpt><trkpt lat="45.07583898087154" lon="9.961191136096472"><ele>39.0</ele><time>2026-04-19T09:27:33Z</time></trkpt><trkpt lat="45.07589741785693" lon="9.96128397632221"><ele>39.0</ele><time>2026-04-19T09:27:34Z</time></trkpt><trkpt lat="45.075946194336055" lon="9.961394052889828"><ele>38.8</ele><time>2026-04-19T09:27:35Z</time></trkpt><trkpt lat="45.076008228737635" lon="9.9614885010247"><ele>38.599999999999994</ele><time>2026-04-19T09:27:36Z</time></trkpt><trkpt lat="45.076086248056534" lon="9.961562014922327"><ele>38.4</ele><time>2026-04-19T09:27:37Z</time></trkpt><trkpt lat="45.076153442468396" lon="9.961650486196204"><ele>38.199999999999996</ele><time>2026-04-19T09:27:38Z</time></trkpt><trkpt lat="45.076224840189276" lon="9.961733014938687"><ele>38.0</ele><time>2026-04-19T09:27:39Z</time></trkpt><trkpt lat="45.076297531321785" lon="9.961809149289818"><ele>38.0</ele><time>2026-04-19T09:27:40Z</time></trkpt><trkpt lat="45.0763726190375" lon="9.961874261877592"><ele>38.0</ele><time>2026-04-19T09:27:41Z</time></trkpt><trkpt lat="45.07645286127683" lon="9.961936571476055"><ele>38.0</ele><time>2026-04-19T09:27:42Z</time></trkpt><trkpt lat="45.0765336454489" lon="9.962002597442961"><ele>38.0</ele><time>2026-04-19T09:27:43Z</time></trkpt><trkpt lat="45.07661342071414" lon="9.962067167877656"><ele>38.0</ele><time>2026-04-19T09:27:44Z</time></trkpt><trkpt lat="45.07669594527164" lon="9.96212920790378"><ele>38.0</ele><time>2026-04-19T09:27:45Z</time></trkpt><trkpt lat="45.076778913817826" lon="9.962190376958683"><ele>38.0</ele><time>2026-04-19T09:27:46Z</time></trkpt><trkpt lat="45.07686181929502" lon="9.962248327964065"><ele>38.0</ele><time>2026-04-19T09:27:46.999Z</time></trkpt><trkpt lat="45.076948026022016" lon="9.962300529028232"><ele>38.0</ele><time>2026-04-19T09:27:47.999Z</time></trkpt><trkpt lat="45.07703523904592" lon="9.96234608327939"><ele>38.0</ele><time>2026-04-19T09:27:48.999Z</time></trkpt><trkpt lat="45.07712384928526" lon="9.962387736403935"><ele>38.0</ele><time>2026-04-19T09:27:49.999Z</time></trkpt><trkpt lat="45.0772135086861" lon="9.962426509038172"><ele>38.0</ele><time>2026-04-19T09:27:50.999Z</time></trkpt><trkpt lat="45.077301931109886" lon="9.962464991325641"><ele>38.0</ele><time>2026-04-19T09:27:51.999Z</time></trkpt><trkpt lat="45.07739168164016" lon="9.962502106991623"><ele>38.0</ele><time>2026-04-19T09:27:52.999Z</time></trkpt><trkpt lat="45.07748048568235" lon="9.962535507423445"><ele>38.0</ele><time>2026-04-19T09:27:53.999Z</time></trkpt><trkpt lat="45.07756959557665" lon="9.962565146994635"><ele>38.0</ele><time>2026-04-19T09:27:54.999Z</time></trkpt><trkpt lat="45.07765998958402" lon="9.962593378368059"><ele>38.0</ele><time>2026-04-19T09:27:55.999Z</time></trkpt><trkpt lat="45.07774878694248" lon="9.962628477721005"><ele>38.0</ele><time>2026-04-19T09:27:56.999Z</time></trkpt><trkpt lat="45.07783602513143" lon="9.962665344221339"><ele>38.0</ele><time>2026-04-19T09:27:57.999Z</time></trkpt><trkpt lat="45.07792537600447" lon="9.962699070688036"><ele>38.0</ele><time>2026-04-19T09:27:58.999Z</time></trkpt><trkpt lat="45.07801504350604" lon="9.962731490287403"><ele>38.0</ele><time>2026-04-19T09:27:59.999Z</time></trkpt><trkpt lat="45.078103210458565" lon="9.96276924689667"><ele>38.0</ele><time>2026-04-19T09:28:00.999Z</time></trkpt><trkpt lat="45.078192244924885" lon="9.962808723315897"><ele>38.0</ele><time>2026-04-19T09:28:01.999Z</time></trkpt><trkpt lat="45.07827985212098" lon="9.96284550802056"><ele>38.0</ele><time>2026-04-19T09:28:02.999Z</time></trkpt><trkpt lat="45.07836796440486" lon="9.962883373141203"><ele>38.0</ele><time>2026-04-19T09:28:03.999Z</time></trkpt><trkpt lat="45.078454331550944" lon="9.962922467253165"><ele>37.6</ele><time>2026-04-19T09:28:04.999Z</time></trkpt><trkpt lat="45.07854015262902" lon="9.962963602042857"><ele>37.199999999999996</ele><time>2026-04-19T09:28:05.999Z</time></trkpt><trkpt lat="45.07862233041755" lon="9.963014246421546"><ele>36.8</ele><time>2026-04-19T09:28:06.999Z</time></trkpt><trkpt lat="45.07870340957769" lon="9.963070865529522"><ele>36.4</ele><time>2026-04-19T09:28:07.999Z</time></trkpt><trkpt lat="45.078782097072285" lon="9.963135155685418"><ele>36.0</ele><time>2026-04-19T09:28:08.999Z</time></trkpt><trkpt lat="45.07886032814495" lon="9.963202561041085"><ele>36.0</ele><time>2026-04-19T09:28:09.999Z</time></trkpt><trkpt lat="45.07893676936901" lon="9.963270856819909"><ele>36.0</ele><time>2026-04-19T09:28:10.999Z</time></trkpt><trkpt lat="45.0790115515857" lon="9.963340641532373"><ele>36.0</ele><time>2026-04-19T09:28:11.999Z</time></trkpt><trkpt lat="45.0790836841021" lon="9.96341080341996"><ele>36.0</ele><time>2026-04-19T09:28:12.999Z</time></trkpt><trkpt lat="45.07915459773448" lon="9.963479550403129"><ele>36.0</ele><time>2026-04-19T09:28:13.999Z</time></trkpt><trkpt lat="45.07922489667213" lon="9.96354892192456"><ele>36.0</ele><time>2026-04-19T09:28:14.999Z</time></trkpt><trkpt lat="45.07929787590753" lon="9.963619732565824"><ele>36.0</ele><time>2026-04-19T09:28:15.999Z</time></trkpt><trkpt lat="45.079368445338446" lon="9.963691578568762"><ele>36.0</ele><time>2026-04-19T09:28:16.999Z</time></trkpt><trkpt lat="45.07943970856961" lon="9.963760983010472"><ele>36.0</ele><time>2026-04-19T09:28:17.999Z</time></trkpt><trkpt lat="45.07951140730618" lon="9.96383163401357"><ele>36.0</ele><time>2026-04-19T09:28:18.999Z</time></trkpt><trkpt lat="45.079584141929764" lon="9.963898264624696"><ele>36.0</ele><time>2026-04-19T09:28:19.999Z</time></trkpt><trkpt lat="45.079647222862036" lon="9.963985242989638"><ele>36.0</ele><time>2026-04-19T09:28:20.999Z</time></trkpt><trkpt lat="45.07973120646399" lon="9.964031737394075"><ele>36.0</ele><time>2026-04-19T09:28:21.999Z</time></trkpt><trkpt lat="45.079806361981454" lon="9.96409343788757"><ele>36.0</ele><time>2026-04-19T09:28:22.999Z</time></trkpt><trkpt lat="45.07988739766852" lon="9.964145397241845"><ele>36.0</ele><time>2026-04-19T09:28:23.999Z</time></trkpt><trkpt lat="45.07997253511739" lon="9.964184920470695"><ele>36.0</ele><time>2026-04-19T09:28:24.999Z</time></trkpt><trkpt lat="45.08006059575672" lon="9.96421193889953"><ele>36.0</ele><time>2026-04-19T09:28:25.999Z</time></trkpt><trkpt lat="45.080149729398094" lon="9.964228799079013"><ele>36.0</ele><time>2026-04-19T09:28:26.999Z</time></trkpt><trkpt lat="45.08024009445631" lon="9.964236801612941"><ele>36.0</ele><time>2026-04-19T09:28:27.999Z</time></trkpt><trkpt lat="45.080329058450985" lon="9.964237526944247"><ele>36.0</ele><time>2026-04-19T09:28:28.999Z</time></trkpt><trkpt lat="45.08041988060137" lon="9.964226011075072"><ele>36.0</ele><time>2026-04-19T09:28:29.999Z</time></trkpt><trkpt lat="45.08050774429931" lon="9.964206746304676"><ele>36.0</ele><time>2026-04-19T09:28:30.999Z</time></trkpt><trkpt lat="45.08059558195151" lon="9.964185747677536"><ele>36.0</ele><time>2026-04-19T09:28:31.999Z</time></trkpt><trkpt lat="45.080684329432174" lon="9.964163884191567"><ele>36.0</ele><time>2026-04-19T09:28:32.999Z</time></trkpt><trkpt lat="45.08077414520513" lon="9.96414728761886"><ele>36.5</ele><time>2026-04-19T09:28:33.999Z</time></trkpt><trkpt lat="45.08086103049884" lon="9.964128428540885"><ele>37.0</ele><time>2026-04-19T09:28:34.999Z</time></trkpt><trkpt lat="45.08094626215192" lon="9.964108789053995"><ele>37.5</ele><time>2026-04-19T09:28:35.999Z</time></trkpt><trkpt lat="45.08103323366748" lon="9.964092591483926"><ele>38.0</ele><time>2026-04-19T09:28:36.999Z</time></trkpt><trkpt lat="45.08112174296943" lon="9.964072162177166"><ele>38.5</ele><time>2026-04-19T09:28:37.999Z</time></trkpt><trkpt lat="45.081209030718554" lon="9.964055897540138"><ele>39.0</ele><time>2026-04-19T09:28:38.999Z</time></trkpt><trkpt lat="45.08129626858301" lon="9.96404084090809"><ele>39.0</ele><time>2026-04-19T09:28:39.998Z</time></trkpt><trkpt lat="45.081383279744564" lon="9.964025392993976"><ele>39.0</ele><time>2026-04-19T09:28:40.998Z</time></trkpt><trkpt lat="45.08146861191795" lon="9.96400961593544"><ele>39.0</ele><time>2026-04-19T09:28:41.998Z</time></trkpt><trkpt lat="45.081553651467" lon="9.963990484745581"><ele>39.0</ele><time>2026-04-19T09:28:42.998Z</time></trkpt><trkpt lat="45.081637508300844" lon="9.963972727122215"><ele>39.0</ele><time>2026-04-19T09:28:43.998Z</time></trkpt><trkpt lat="45.08172283443148" lon="9.963954514793551"><ele>39.0</ele><time>2026-04-19T09:28:44.998Z</time></trkpt><trkpt lat="45.08180789874036" lon="9.963928006296877"><ele>39.0</ele><time>2026-04-19T09:28:45.998Z</time></trkpt><trkpt lat="45.08188943372275" lon="9.963891140298582"><ele>39.0</ele><time>2026-04-19T09:28:46.998Z</time></trkpt><trkpt lat="45.08196519717694" lon="9.9638489739998"><ele>39.0</ele><time>2026-04-19T09:28:47.998Z</time></trkpt><trkpt lat="45.082041995533935" lon="9.963797538397845"><ele>39.0</ele><time>2026-04-19T09:28:48.998Z</time></trkpt><trkpt lat="45.08211556203208" lon="9.963744754895975"><ele>39.0</ele><time>2026-04-19T09:28:49.998Z</time></trkpt><trkpt lat="45.08218536538583" lon="9.96368587044579"><ele>39.0</ele><time>2026-04-19T09:28:50.998Z</time></trkpt><trkpt lat="45.08225211450312" lon="9.96362704461041"><ele>39.0</ele><time>2026-04-19T09:28:51.998Z</time></trkpt><trkpt lat="45.08231351433733" lon="9.96356425972468"><ele>39.0</ele><time>2026-04-19T09:28:53Z</time></trkpt><trkpt lat="45.082378628198065" lon="9.963506645059867"><ele>39.0</ele><time>2026-04-19T09:28:54Z</time></trkpt><trkpt lat="45.08244444953819" lon="9.963446646123815"><ele>39.0</ele><time>2026-04-19T09:28:55Z</time></trkpt><trkpt lat="45.082510958344365" lon="9.963386373648232"><ele>39.0</ele><time>2026-04-19T09:28:56Z</time></trkpt><trkpt lat="45.082578060078504" lon="9.963328429653684"><ele>39.0</ele><time>2026-04-19T09:28:57Z</time></trkpt><trkpt lat="45.08264590442535" lon="9.963268871563415"><ele>39.166666666666664</ele><time>2026-04-19T09:28:58Z</time></trkpt><trkpt lat="45.08271490691701" lon="9.963209718972065"><ele>39.333333333333336</ele><time>2026-04-19T09:28:59Z</time></trkpt><trkpt lat="45.08278349490607" lon="9.963151411861444"><ele>39.5</ele><time>2026-04-19T09:29:00Z</time></trkpt><trkpt lat="45.08285509023699" lon="9.963094550027646"><ele>39.66666666666667</ele><time>2026-04-19T09:29:01Z</time></trkpt><trkpt lat="45.082925186937075" lon="9.963034049075556"><ele>39.833333333333336</ele><time>2026-04-19T09:29:02Z</time></trkpt><trkpt lat="45.08299467385393" lon="9.962970509040314"><ele>40.0</ele><time>2026-04-19T09:29:03Z</time></trkpt><trkpt lat="45.083066472725854" lon="9.962909680270576"><ele>40.0</ele><time>2026-04-19T09:29:04Z</time></trkpt><trkpt lat="45.08314003553279" lon="9.962849360429608"><ele>40.0</ele><time>2026-04-19T09:29:05Z</time></trkpt><trkpt lat="45.08321266773251" lon="9.962787003680733"><ele>40.0</ele><time>2026-04-19T09:29:06Z</time></trkpt><trkpt lat="45.083285152474055" lon="9.96272228791064"><ele>40.0</ele><time>2026-04-19T09:29:07Z</time></trkpt><trkpt lat="45.08335776586735" lon="9.962656728954325"><ele>40.0</ele><time>2026-04-19T09:29:08Z</time></trkpt><trkpt lat="45.08343129617783" lon="9.962593725355974"><ele>40.0</ele><time>2026-04-19T09:29:09Z</time></trkpt><trkpt lat="45.083504121005795" lon="9.96253070919427"><ele>39.833333333333336</ele><time>2026-04-19T09:29:10Z</time></trkpt><trkpt lat="45.08357668004623" lon="9.962465911844903"><ele>39.66666666666667</ele><time>2026-04-19T09:29:11Z</time></trkpt><trkpt lat="45.08365079705045" lon="9.962403064939977"><ele>39.5</ele><time>2026-04-19T09:29:12Z</time></trkpt><trkpt lat="45.083725505653646" lon="9.962340216385208"><ele>39.333333333333336</ele><time>2026-04-19T09:29:13Z</time></trkpt><trkpt lat="45.08380132898081" lon="9.962278794723115"><ele>39.166666666666664</ele><time>2026-04-19T09:29:14Z</time></trkpt><trkpt lat="45.08387887910984" lon="9.96221855545035"><ele>39.0</ele><time>2026-04-19T09:29:15Z</time></trkpt><trkpt lat="45.08395681750072" lon="9.962163660015031"><ele>39.0</ele><time>2026-04-19T09:29:16Z</time></trkpt><trkpt lat="45.08403492474354" lon="9.962109821899114"><ele>39.0</ele><time>2026-04-19T09:29:17Z</time></trkpt><trkpt lat="45.08411376364423" lon="9.962057564637922"><ele>39.0</ele><time>2026-04-19T09:29:18Z</time></trkpt><trkpt lat="45.084193422728696" lon="9.962006561351112"><ele>39.0</ele><time>2026-04-19T09:29:19Z</time></trkpt><trkpt lat="45.08427446614154" lon="9.961960999223724"><ele>39.0</ele><time>2026-04-19T09:29:20Z</time></trkpt><trkpt lat="45.08435704239371" lon="9.961922166143975"><ele>39.0</ele><time>2026-04-19T09:29:21Z</time></trkpt><trkpt lat="45.084440107321626" lon="9.961892173540903"><ele>38.666666666666664</ele><time>2026-04-19T09:29:22Z</time></trkpt><trkpt lat="45.08452273465032" lon="9.961866557053481"><ele>38.333333333333336</ele><time>2026-04-19T09:29:23Z</time></trkpt><trkpt lat="45.084602797775" lon="9.96183777811727"><ele>38.0</ele><time>2026-04-19T09:29:24Z</time></trkpt><trkpt lat="45.08468233276214" lon="9.961806695681778"><ele>37.66666666666667</ele><time>2026-04-19T09:29:25Z</time></trkpt><trkpt lat="45.08476360942437" lon="9.961776348083323"><ele>37.333333333333336</ele><time>2026-04-19T09:29:26Z</time></trkpt><trkpt lat="45.08484554270103" lon="9.961749017914267"><ele>37.0</ele><time>2026-04-19T09:29:27Z</time></trkpt><trkpt lat="45.08492739944104" lon="9.961718880081227"><ele>37.16666666666667</ele><time>2026-04-19T09:29:28Z</time></trkpt><trkpt lat="45.08500944597659" lon="9.961686839159924"><ele>37.333333333333336</ele><time>2026-04-19T09:29:29Z</time></trkpt><trkpt lat="45.08509081761797" lon="9.96165662117854"><ele>37.5</ele><time>2026-04-19T09:29:30Z</time></trkpt><trkpt lat="45.08517077621537" lon="9.961626042971936"><ele>37.666666666666664</ele><time>2026-04-19T09:29:31Z</time></trkpt><trkpt lat="45.08525225452466" lon="9.96159427594895"><ele>37.83333333333333</ele><time>2026-04-19T09:29:32Z</time></trkpt><trkpt lat="45.08533289263811" lon="9.961562196595871"><ele>38.0</ele><time>2026-04-19T09:29:33Z</time></trkpt><trkpt lat="45.085415378344756" lon="9.96153606331347"><ele>38.0</ele><time>2026-04-19T09:29:34Z</time></trkpt><trkpt lat="45.08549745247609" lon="9.961512014469026"><ele>38.0</ele><time>2026-04-19T09:29:35Z</time></trkpt><trkpt lat="45.08557986083873" lon="9.961481230401667"><ele>38.0</ele><time>2026-04-19T09:29:36Z</time></trkpt><trkpt lat="45.085661624963365" lon="9.961449818105265"><ele>38.0</ele><time>2026-04-19T09:29:37Z</time></trkpt><trkpt lat="45.08574446564349" lon="9.961416758939846"><ele>38.0</ele><time>2026-04-19T09:29:38Z</time></trkpt><trkpt lat="45.085826019379006" lon="9.961385821494616"><ele>38.0</ele><time>2026-04-19T09:29:39Z</time></trkpt><trkpt lat="45.08590838786365" lon="9.961360770379555"><ele>37.83333333333333</ele><time>2026-04-19T09:29:40Z</time></trkpt><trkpt lat="45.085991404542135" lon="9.96134912050709"><ele>37.666666666666664</ele><time>2026-04-19T09:29:41Z</time></trkpt><trkpt lat="45.08607603666753" lon="9.961343811013663"><ele>37.5</ele><time>2026-04-19T09:29:42Z</time></trkpt><trkpt lat="45.08616192129317" lon="9.961342156456377"><ele>37.333333333333336</ele><time>2026-04-19T09:29:43Z</time></trkpt><trkpt lat="45.086245823529126" lon="9.961344395577752"><ele>37.16666666666667</ele><time>2026-04-19T09:29:44Z</time></trkpt><trkpt lat="45.086328428472896" lon="9.96134361008973"><ele>37.0</ele><time>2026-04-19T09:29:45Z</time></trkpt><trkpt lat="45.086410727633876" lon="9.961342548594395"><ele>37.0</ele><time>2026-04-19T09:29:46Z</time></trkpt><trkpt lat="45.08649232287744" lon="9.96134097061449"><ele>37.0</ele><time>2026-04-19T09:29:47Z</time></trkpt><trkpt lat="45.08657428191165" lon="9.961338974806601"><ele>37.0</ele><time>2026-04-19T09:29:48Z</time></trkpt><trkpt lat="45.086656883144286" lon="9.961339776690163"><ele>37.0</ele><time>2026-04-19T09:29:49Z</time></trkpt><trkpt lat="45.086739731466174" lon="9.961341300151043"><ele>37.0</ele><time>2026-04-19T09:29:49.999Z</time></trkpt><trkpt lat="45.086823572601006" lon="9.961346773392902"><ele>37.0</ele><time>2026-04-19T09:29:50.999Z</time></trkpt><trkpt lat="45.08690705335058" lon="9.961351939252028"><ele>37.0</ele><time>2026-04-19T09:29:51.999Z</time></trkpt><trkpt lat="45.08699073299251" lon="9.961361465512406"><ele>37.0</ele><time>2026-04-19T09:29:52.999Z</time></trkpt><trkpt lat="45.087074332024976" lon="9.961371495722382"><ele>37.0</ele><time>2026-04-19T09:29:53.999Z</time></trkpt><trkpt lat="45.08715799985139" lon="9.961383447444463"><ele>37.0</ele><time>2026-04-19T09:29:54.999Z</time></trkpt><trkpt lat="45.0872396135591" lon="9.961396920910103"><ele>37.0</ele><time>2026-04-19T09:29:55.999Z</time></trkpt><trkpt lat="45.087321662041056" lon="9.96141723058673"><ele>37.0</ele><time>2026-04-19T09:29:56.999Z</time></trkpt><trkpt lat="45.087403231325595" lon="9.961441936857515"><ele>37.16666666666667</ele><time>2026-04-19T09:29:57.999Z</time></trkpt><trkpt lat="45.08748493574163" lon="9.961460449207875"><ele>37.333333333333336</ele><time>2026-04-19T09:29:58.999Z</time></trkpt><trkpt lat="45.08756816220204" lon="9.961478644916212"><ele>37.5</ele><time>2026-04-19T09:29:59.999Z</time></trkpt><trkpt lat="45.08765023121878" lon="9.961494962827269"><ele>37.666666666666664</ele><time>2026-04-19T09:30:00.999Z</time></trkpt><trkpt lat="45.087733875281685" lon="9.961512398253307"><ele>37.83333333333333</ele><time>2026-04-19T09:30:01.999Z</time></trkpt><trkpt lat="45.087816837341336" lon="9.961530757920958"><ele>38.0</ele><time>2026-04-19T09:30:02.999Z</time></trkpt><trkpt lat="45.087900730971164" lon="9.961549338618035"><ele>38.0</ele><time>2026-04-19T09:30:03.999Z</time></trkpt><trkpt lat="45.08798325193057" lon="9.961567001758464"><ele>38.0</ele><time>2026-04-19T09:30:04.999Z</time></trkpt><trkpt lat="45.088066196291656" lon="9.961580553919443"><ele>38.0</ele><time>2026-04-19T09:30:05.999Z</time></trkpt><trkpt lat="45.08814981746266" lon="9.961594750768215"><ele>38.0</ele><time>2026-04-19T09:30:06.999Z</time></trkpt><trkpt lat="45.08823173086935" lon="9.961604899242724"><ele>38.0</ele><time>2026-04-19T09:30:07.999Z</time></trkpt><trkpt lat="45.08831536800879" lon="9.961615070427358"><ele>38.0</ele><time>2026-04-19T09:30:08.999Z</time></trkpt><trkpt lat="45.08839845193003" lon="9.961624539496949"><ele>37.666666666666664</ele><time>2026-04-19T09:30:09.999Z</time></trkpt><trkpt lat="45.08848071952832" lon="9.961634740170789"><ele>37.33333333333333</ele><time>2026-04-19T09:30:10.999Z</time></trkpt><trkpt lat="45.08856403762624" lon="9.961640801036943"><ele>37.0</ele><time>2026-04-19T09:30:11.999Z</time></trkpt><trkpt lat="45.08864606099371" lon="9.961648720559516"><ele>36.666666666666664</ele><time>2026-04-19T09:30:12.999Z</time></trkpt><trkpt lat="45.08872836836106" lon="9.961653375693384"><ele>36.333333333333336</ele><time>2026-04-19T09:30:13.999Z</time></trkpt><trkpt lat="45.088813106893284" lon="9.961658367869012"><ele>36.0</ele><time>2026-04-19T09:30:14.999Z</time></trkpt><trkpt lat="45.0888958831908" lon="9.96166607423272"><ele>36.0</ele><time>2026-04-19T09:30:15.999Z</time></trkpt><trkpt lat="45.08897904000786" lon="9.961672490566547"><ele>36.0</ele><time>2026-04-19T09:30:16.999Z</time></trkpt><trkpt lat="45.089059863477324" lon="9.961678865460225"><ele>36.0</ele><time>2026-04-19T09:30:17.999Z</time></trkpt><trkpt lat="45.0891431315912" lon="9.961683008744249"><ele>36.0</ele><time>2026-04-19T09:30:18.999Z</time></trkpt><trkpt lat="45.08922476039573" lon="9.961687849282184"><ele>36.0</ele><time>2026-04-19T09:30:19.999Z</time></trkpt><trkpt lat="45.08930616500865" lon="9.961696401294278"><ele>36.0</ele><time>2026-04-19T09:30:20.999Z</time></trkpt><trkpt lat="45.08938750022097" lon="9.961711614166534"><ele>36.0</ele><time>2026-04-19T09:30:21.999Z</time></trkpt><trkpt lat="45.08946892397335" lon="9.96173025473304"><ele>36.0</ele><time>2026-04-19T09:30:22.999Z</time></trkpt><trkpt lat="45.08954778640628" lon="9.961755302134243"><ele>36.0</ele><time>2026-04-19T09:30:23.999Z</time></trkpt><trkpt lat="45.089625130258085" lon="9.96178815572788"><ele>36.0</ele><time>2026-04-19T09:30:24.999Z</time></trkpt><trkpt lat="45.08970147851095" lon="9.961830067293343"><ele>36.0</ele><time>2026-04-19T09:30:25.999Z</time></trkpt><trkpt lat="45.08977483819153" lon="9.961875981374725"><ele>36.0</ele><time>2026-04-19T09:30:26.999Z</time></trkpt><trkpt lat="45.089848545036716" lon="9.961922482964628"><ele>36.0</ele><time>2026-04-19T09:30:27.999Z</time></trkpt><trkpt lat="45.089918238401175" lon="9.961974051730502"><ele>36.0</ele><time>2026-04-19T09:30:28.999Z</time></trkpt><trkpt lat="45.08998812927511" lon="9.962031353554242"><ele>36.0</ele><time>2026-04-19T09:30:29.999Z</time></trkpt><trkpt lat="45.09005650812625" lon="9.962088614688723"><ele>36.0</ele><time>2026-04-19T09:30:30.999Z</time></trkpt><trkpt lat="45.09012268572872" lon="9.962142651395272"><ele>36.0</ele><time>2026-04-19T09:30:31.999Z</time></trkpt><trkpt lat="45.09018754340376" lon="9.962203338286212"><ele>36.0</ele><time>2026-04-19T09:30:32.999Z</time></trkpt><trkpt lat="45.09024845443816" lon="9.962267418323288"><ele>36.0</ele><time>2026-04-19T09:30:33.999Z</time></trkpt><trkpt lat="45.090310690615084" lon="9.962332884520023"><ele>36.0</ele><time>2026-04-19T09:30:34.999Z</time></trkpt><trkpt lat="45.090375300855605" lon="9.962396018753983"><ele>36.0</ele><time>2026-04-19T09:30:35.999Z</time></trkpt><trkpt lat="45.0904393275194" lon="9.962455821118704"><ele>36.0</ele><time>2026-04-19T09:30:36.999Z</time></trkpt><trkpt lat="45.09050370197957" lon="9.962520115850806"><ele>36.0</ele><time>2026-04-19T09:30:37.999Z</time></trkpt><trkpt lat="45.09056760315774" lon="9.962582634676753"><ele>36.0</ele><time>2026-04-19T09:30:38.999Z</time></trkpt><trkpt lat="45.090631891290634" lon="9.962645795136162"><ele>36.0</ele><time>2026-04-19T09:30:39.999Z</time></trkpt><trkpt lat="45.09069399050937" lon="9.962710705233182"><ele>36.0</ele><time>2026-04-19T09:30:40.999Z</time></trkpt><trkpt lat="45.09075745942938" lon="9.962775150146802"><ele>36.0</ele><time>2026-04-19T09:30:41.999Z</time></trkpt><trkpt lat="45.09081970216276" lon="9.962838220600945"><ele>36.0</ele><time>2026-04-19T09:30:42.999Z</time></trkpt><trkpt lat="45.09088276436873" lon="9.96290563381852"><ele>36.0</ele><time>2026-04-19T09:30:43.998Z</time></trkpt><trkpt lat="45.09094610980864" lon="9.962968024508449"><ele>36.0</ele><time>2026-04-19T09:30:44.998Z</time></trkpt><trkpt lat="45.091008171720325" lon="9.96303031728529"><ele>36.166666666666664</ele><time>2026-04-19T09:30:45.998Z</time></trkpt><trkpt lat="45.091070302442134" lon="9.963093839362568"><ele>36.333333333333336</ele><time>2026-04-19T09:30:46.998Z</time></trkpt><trkpt lat="45.09113187352259" lon="9.963156321590759"><ele>36.5</ele><time>2026-04-19T09:30:47.998Z</time></trkpt><trkpt lat="45.091194782890746" lon="9.963223648798197"><ele>36.66666666666667</ele><time>2026-04-19T09:30:48.998Z</time></trkpt><trkpt lat="45.091253668833794" lon="9.963291005792467"><ele>36.833333333333336</ele><time>2026-04-19T09:30:49.998Z</time></trkpt><trkpt lat="45.09131237189824" lon="9.963362569517063"><ele>37.0</ele><time>2026-04-19T09:30:50.998Z</time></trkpt><trkpt lat="45.09136589644939" lon="9.963433504945684"><ele>37.0</ele><time>2026-04-19T09:30:51.998Z</time></trkpt><trkpt lat="45.09141549329794" lon="9.963502145561687"><ele>37.0</ele><time>2026-04-19T09:30:52.998Z</time></trkpt><trkpt lat="45.09146185216793" lon="9.963570387820003"><ele>37.0</ele><time>2026-04-19T09:30:53.998Z</time></trkpt><trkpt lat="45.091504667757924" lon="9.96363887793467"><ele>37.0</ele><time>2026-04-19T09:30:54.998Z</time></trkpt><trkpt lat="45.09158182101647" lon="9.963773475999096"><ele>37.0</ele><time>2026-04-19T09:30:56.998Z</time></trkpt><trkpt lat="45.09167063856447" lon="9.963887835565155"><ele>37.0</ele><time>2026-04-19T09:30:59Z</time></trkpt><trkpt lat="45.09172630663006" lon="9.963936620699586"><ele>37.0</ele><time>2026-04-19T09:31:00Z</time></trkpt><trkpt lat="45.091787436034224" lon="9.963976119378193"><ele>37.0</ele><time>2026-04-19T09:31:01Z</time></trkpt><trkpt lat="45.0918495205072" lon="9.964014407027037"><ele>37.0</ele><time>2026-04-19T09:31:02Z</time></trkpt><trkpt lat="45.0919071029829" lon="9.96405585086141"><ele>37.0</ele><time>2026-04-19T09:31:03Z</time></trkpt><trkpt lat="45.09196474691352" lon="9.964097987786309"><ele>37.0</ele><time>2026-04-19T09:31:04Z</time></trkpt><trkpt lat="45.09201997858839" lon="9.96414443196703"><ele>37.0</ele><time>2026-04-19T09:31:05Z</time></trkpt><trkpt lat="45.092071179449725" lon="9.96419682219499"><ele>37.0</ele><time>2026-04-19T09:31:06Z</time></trkpt><trkpt lat="45.09216251800185" lon="9.964314224868433"><ele>37.0</ele><time>2026-04-19T09:31:08Z</time></trkpt><trkpt lat="45.092220855852716" lon="9.964466726643204"><ele>37.0</ele><time>2026-04-19T09:31:10Z</time></trkpt><trkpt lat="45.092231520563566" lon="9.964556198717593"><ele>37.0</ele><time>2026-04-19T09:31:11Z</time></trkpt><trkpt lat="45.0922352437561" lon="9.964645968191984"><ele>37.0</ele><time>2026-04-19T09:31:12Z</time></trkpt><trkpt lat="45.09224876222126" lon="9.964822353989033"><ele>37.0</ele><time>2026-04-19T09:31:14Z</time></trkpt><trkpt lat="45.092261626983685" lon="9.964911645760099"><ele>37.0</ele><time>2026-04-19T09:31:15Z</time></trkpt><trkpt lat="45.092288896809286" lon="9.965084925766021"><ele>36.85714285714286</ele><time>2026-04-19T09:31:17Z</time></trkpt><trkpt lat="45.09230137212105" lon="9.965176620193725"><ele>36.714285714285715</ele><time>2026-04-19T09:31:18Z</time></trkpt><trkpt lat="45.09231409982885" lon="9.965267508265306"><ele>36.57142857142857</ele><time>2026-04-19T09:31:19Z</time></trkpt><trkpt lat="45.092327516640154" lon="9.96535998390523"><ele>36.42857142857143</ele><time>2026-04-19T09:31:20Z</time></trkpt><trkpt lat="45.092342307093915" lon="9.965450730774947"><ele>36.285714285714285</ele><time>2026-04-19T09:31:21Z</time></trkpt><trkpt lat="45.09235604292366" lon="9.965544891173097"><ele>36.142857142857146</ele><time>2026-04-19T09:31:22Z</time></trkpt><trkpt lat="45.09237149856913" lon="9.965637716102577"><ele>36.0</ele><time>2026-04-19T09:31:23Z</time></trkpt><trkpt lat="45.09238914096035" lon="9.965731122524536"><ele>36.00000000000001</ele><time>2026-04-19T09:31:24Z</time></trkpt><trkpt lat="45.09240764666662" lon="9.965824244321007"><ele>36.0</ele><time>2026-04-19T09:31:25Z</time></trkpt><trkpt lat="45.09242837729855" lon="9.965917865997712"><ele>36.0</ele><time>2026-04-19T09:31:26Z</time></trkpt><trkpt lat="45.092451613926144" lon="9.966009432848137"><ele>36.0</ele><time>2026-04-19T09:31:27Z</time></trkpt><trkpt lat="45.09247868087268" lon="9.966101744728865"><ele>36.0</ele><time>2026-04-19T09:31:28Z</time></trkpt><trkpt lat="45.09250385724526" lon="9.966194449749954"><ele>36.00000000000001</ele><time>2026-04-19T09:31:29Z</time></trkpt><trkpt lat="45.09253015950985" lon="9.966287396416392"><ele>36.0</ele><time>2026-04-19T09:31:30Z</time></trkpt><trkpt lat="45.09255807297861" lon="9.966381360251154"><ele>36.142857142857146</ele><time>2026-04-19T09:31:31Z</time></trkpt><trkpt lat="45.09258866432408" lon="9.96647253395001"><ele>36.285714285714285</ele><time>2026-04-19T09:31:32Z</time></trkpt><trkpt lat="45.09262218307238" lon="9.966562220303588"><ele>36.42857142857143</ele><time>2026-04-19T09:31:33Z</time></trkpt><trkpt lat="45.09265564554058" lon="9.966654371718437"><ele>36.57142857142857</ele><time>2026-04-19T09:31:34Z</time></trkpt><trkpt lat="45.09268791611305" lon="9.966745489004719"><ele>36.714285714285715</ele><time>2026-04-19T09:31:35Z</time></trkpt><trkpt lat="45.09272219490701" lon="9.966838959585788"><ele>36.85714285714286</ele><time>2026-04-19T09:31:36Z</time></trkpt><trkpt lat="45.092755650241344" lon="9.96693192456849"><ele>37.0</ele><time>2026-04-19T09:31:37Z</time></trkpt><trkpt lat="45.09279026308494" lon="9.967020425903907"><ele>37.0</ele><time>2026-04-19T09:31:38Z</time></trkpt><trkpt lat="45.09282574980566" lon="9.967108812299006"><ele>37.0</ele><time>2026-04-19T09:31:39Z</time></trkpt><trkpt lat="45.09286146684028" lon="9.967196678552407"><ele>37.0</ele><time>2026-04-19T09:31:40Z</time></trkpt><trkpt lat="45.09289543234944" lon="9.967283586651172"><ele>37.0</ele><time>2026-04-19T09:31:41Z</time></trkpt><trkpt lat="45.09292767219275" lon="9.967373734807854"><ele>37.0</ele><time>2026-04-19T09:31:42Z</time></trkpt><trkpt lat="45.092959289153406" lon="9.967460673687553"><ele>37.0</ele><time>2026-04-19T09:31:43Z</time></trkpt><trkpt lat="45.092993065074566" lon="9.967549059985803"><ele>37.0</ele><time>2026-04-19T09:31:44Z</time></trkpt><trkpt lat="45.09302584109656" lon="9.967635787982138"><ele>36.85714285714286</ele><time>2026-04-19T09:31:45Z</time></trkpt><trkpt lat="45.093058362684644" lon="9.967719884272418"><ele>36.714285714285715</ele><time>2026-04-19T09:31:46Z</time></trkpt><trkpt lat="45.09309305253419" lon="9.967805107385653"><ele>36.57142857142857</ele><time>2026-04-19T09:31:47Z</time></trkpt><trkpt lat="45.09312681135879" lon="9.967891350789166"><ele>36.42857142857143</ele><time>2026-04-19T09:31:48Z</time></trkpt><trkpt lat="45.09316064713093" lon="9.967975393359442"><ele>36.285714285714285</ele><time>2026-04-19T09:31:49Z</time></trkpt><trkpt lat="45.0931922747549" lon="9.968060720970637"><ele>36.142857142857146</ele><time>2026-04-19T09:31:50Z</time></trkpt><trkpt lat="45.0932258696518" lon="9.968144314895259"><ele>36.0</ele><time>2026-04-19T09:31:51Z</time></trkpt><trkpt lat="45.09325644091046" lon="9.968227338300151"><ele>36.00000000000001</ele><time>2026-04-19T09:31:52Z</time></trkpt><trkpt lat="45.09328760898637" lon="9.968310205408168"><ele>36.0</ele><time>2026-04-19T09:31:53Z</time></trkpt><trkpt lat="45.09332040208817" lon="9.968394762879914"><ele>36.0</ele><time>2026-04-19T09:31:54Z</time></trkpt><trkpt lat="45.093352956972026" lon="9.968477284891376"><ele>36.0</ele><time>2026-04-19T09:31:54.999Z</time></trkpt><trkpt lat="45.093385583629285" lon="9.96856215154897"><ele>36.0</ele><time>2026-04-19T09:31:55.999Z</time></trkpt><trkpt lat="45.09341881816329" lon="9.968645364062132"><ele>36.00000000000001</ele><time>2026-04-19T09:31:56.999Z</time></trkpt><trkpt lat="45.09345219643432" lon="9.9687278708012"><ele>36.0</ele><time>2026-04-19T09:31:57.999Z</time></trkpt><trkpt lat="45.093484787746085" lon="9.968812659716416"><ele>36.142857142857146</ele><time>2026-04-19T09:31:58.999Z</time></trkpt><trkpt lat="45.09351882018563" lon="9.968897774970442"><ele>36.285714285714285</ele><time>2026-04-19T09:31:59.999Z</time></trkpt><trkpt lat="45.09355117469687" lon="9.968983388023947"><ele>36.42857142857143</ele><time>2026-04-19T09:32:00.999Z</time></trkpt><trkpt lat="45.09358483185478" lon="9.969071474999778"><ele>36.57142857142857</ele><time>2026-04-19T09:32:01.999Z</time></trkpt><trkpt lat="45.09361962323776" lon="9.96915915335198"><ele>36.714285714285715</ele><time>2026-04-19T09:32:02.999Z</time></trkpt><trkpt lat="45.0936549149398" lon="9.969249052885244"><ele>36.85714285714286</ele><time>2026-04-19T09:32:03.999Z</time></trkpt><trkpt lat="45.0936883982099" lon="9.969338235391497"><ele>37.0</ele><time>2026-04-19T09:32:04.999Z</time></trkpt><trkpt lat="45.093722559008846" lon="9.969430425938913"><ele>36.714285714285715</ele><time>2026-04-19T09:32:05.999Z</time></trkpt><trkpt lat="45.093759219598816" lon="9.969520079716318"><ele>36.42857142857143</ele><time>2026-04-19T09:32:06.999Z</time></trkpt><trkpt lat="45.093794270113484" lon="9.969611559807689"><ele>36.14285714285714</ele><time>2026-04-19T09:32:07.999Z</time></trkpt><trkpt lat="45.09382962709776" lon="9.969703337399006"><ele>35.85714285714286</ele><time>2026-04-19T09:32:08.999Z</time></trkpt><trkpt lat="45.09386499725372" lon="9.969793252178746"><ele>35.57142857142857</ele><time>2026-04-19T09:32:09.999Z</time></trkpt><trkpt lat="45.093900311631806" lon="9.969885264129395"><ele>35.285714285714285</ele><time>2026-04-19T09:32:10.999Z</time></trkpt><trkpt lat="45.093936989779905" lon="9.969977436335364"><ele>35.0</ele><time>2026-04-19T09:32:11.999Z</time></trkpt><trkpt lat="45.09397217160777" lon="9.970069620459334"><ele>35.0</ele><time>2026-04-19T09:32:12.999Z</time></trkpt><trkpt lat="45.094007273525676" lon="9.97016210691734"><ele>35.0</ele><time>2026-04-19T09:32:13.999Z</time></trkpt><trkpt lat="45.09404312315904" lon="9.970255126041575"><ele>35.0</ele><time>2026-04-19T09:32:14.999Z</time></trkpt><trkpt lat="45.09407941052591" lon="9.970346861697955"><ele>35.0</ele><time>2026-04-19T09:32:15.999Z</time></trkpt><trkpt lat="45.094117995137424" lon="9.970437812103452"><ele>35.0</ele><time>2026-04-19T09:32:16.999Z</time></trkpt><trkpt lat="45.094153135208586" lon="9.970529981204258"><ele>35.0</ele><time>2026-04-19T09:32:17.999Z</time></trkpt><trkpt lat="45.09418845805003" lon="9.970622680227812"><ele>35.0</ele><time>2026-04-19T09:32:18.999Z</time></trkpt><trkpt lat="45.09422354635036" lon="9.970713473995596"><ele>35.0</ele><time>2026-04-19T09:32:19.999Z</time></trkpt><trkpt lat="45.0942608859414" lon="9.970804545220913"><ele>35.0</ele><time>2026-04-19T09:32:20.999Z</time></trkpt><trkpt lat="45.094294219011815" lon="9.970893768251148"><ele>35.0</ele><time>2026-04-19T09:32:21.999Z</time></trkpt><trkpt lat="45.09432974856234" lon="9.970985201267355"><ele>35.0</ele><time>2026-04-19T09:32:22.999Z</time></trkpt><trkpt lat="45.09436458589272" lon="9.971072242470612"><ele>35.0</ele><time>2026-04-19T09:32:23.999Z</time></trkpt><trkpt lat="45.094398154590024" lon="9.971161751101102"><ele>35.0</ele><time>2026-04-19T09:32:24.999Z</time></trkpt><trkpt lat="45.094432930906564" lon="9.9712507099211"><ele>35.0</ele><time>2026-04-19T09:32:25.999Z</time></trkpt><trkpt lat="45.094467934486346" lon="9.971337271544972"><ele>35.0</ele><time>2026-04-19T09:32:26.999Z</time></trkpt><trkpt lat="45.09450256984898" lon="9.971424361322864"><ele>35.0</ele><time>2026-04-19T09:32:27.999Z</time></trkpt><trkpt lat="45.09453791460771" lon="9.971510429820947"><ele>35.0</ele><time>2026-04-19T09:32:28.999Z</time></trkpt><trkpt lat="45.0945727076682" lon="9.971596233991129"><ele>35.0</ele><time>2026-04-19T09:32:29.999Z</time></trkpt><trkpt lat="45.09460627081754" lon="9.971682148034263"><ele>35.0</ele><time>2026-04-19T09:32:30.999Z</time></trkpt><trkpt lat="45.09463934473109" lon="9.97176717284284"><ele>35.0</ele><time>2026-04-19T09:32:31.999Z</time></trkpt><trkpt lat="45.09467300155454" lon="9.971851118711289"><ele>35.0</ele><time>2026-04-19T09:32:32.999Z</time></trkpt><trkpt lat="45.094708364341514" lon="9.971935780623472"><ele>35.0</ele><time>2026-04-19T09:32:33.999Z</time></trkpt><trkpt lat="45.09474251055172" lon="9.972023354010538"><ele>35.0</ele><time>2026-04-19T09:32:34.999Z</time></trkpt><trkpt lat="45.094776102352995" lon="9.972110043411146"><ele>35.0</ele><time>2026-04-19T09:32:35.999Z</time></trkpt><trkpt lat="45.09481003409047" lon="9.972194021659263"><ele>35.0</ele><time>2026-04-19T09:32:36.999Z</time></trkpt><trkpt lat="45.09484620468232" lon="9.97228000301511"><ele>35.0</ele><time>2026-04-19T09:32:37.999Z</time></trkpt><trkpt lat="45.09488118081572" lon="9.972366431223936"><ele>35.0</ele><time>2026-04-19T09:32:38.999Z</time></trkpt><trkpt lat="45.0949183817628" lon="9.972454417984917"><ele>35.0</ele><time>2026-04-19T09:32:39.999Z</time></trkpt><trkpt lat="45.09495648865293" lon="9.972541359212904"><ele>35.285714285714285</ele><time>2026-04-19T09:32:40.999Z</time></trkpt><trkpt lat="45.09499063295621" lon="9.972630379808171"><ele>35.57142857142857</ele><time>2026-04-19T09:32:41.999Z</time></trkpt><trkpt lat="45.09502356871023" lon="9.972717737469347"><ele>35.85714285714286</ele><time>2026-04-19T09:32:42.999Z</time></trkpt><trkpt lat="45.095057335193694" lon="9.972806690785582"><ele>36.14285714285714</ele><time>2026-04-19T09:32:43.999Z</time></trkpt><trkpt lat="45.095090020349616" lon="9.972895835105579"><ele>36.42857142857143</ele><time>2026-04-19T09:32:44.999Z</time></trkpt><trkpt lat="45.09512328520535" lon="9.972984611768085"><ele>36.714285714285715</ele><time>2026-04-19T09:32:45.999Z</time></trkpt><trkpt lat="45.09515527613268" lon="9.97307112355421"><ele>37.0</ele><time>2026-04-19T09:32:46.999Z</time></trkpt><trkpt lat="45.0951876936153" lon="9.973161885833745"><ele>37.0</ele><time>2026-04-19T09:32:47.999Z</time></trkpt><trkpt lat="45.0952172898853" lon="9.973251128028204"><ele>37.0</ele><time>2026-04-19T09:32:48.998Z</time></trkpt><trkpt lat="45.09524748546961" lon="9.973341891487644"><ele>37.0</ele><time>2026-04-19T09:32:49.998Z</time></trkpt><trkpt lat="45.09527853149192" lon="9.97343068180052"><ele>37.0</ele><time>2026-04-19T09:32:50.998Z</time></trkpt><trkpt lat="45.095313936442395" lon="9.973519367326006"><ele>37.0</ele><time>2026-04-19T09:32:51.998Z</time></trkpt><trkpt lat="45.09534737453373" lon="9.973607435798778"><ele>37.0</ele><time>2026-04-19T09:32:52.998Z</time></trkpt><trkpt lat="45.09538247564914" lon="9.973694677694066"><ele>37.0</ele><time>2026-04-19T09:32:53.998Z</time></trkpt><trkpt lat="45.09541607258815" lon="9.973780899049824"><ele>37.142857142857146</ele><time>2026-04-19T09:32:54.998Z</time></trkpt><trkpt lat="45.09545161399784" lon="9.97386538434592"><ele>37.285714285714285</ele><time>2026-04-19T09:32:55.998Z</time></trkpt><trkpt lat="45.0954860348012" lon="9.973951988477156"><ele>37.42857142857143</ele><time>2026-04-19T09:32:56.998Z</time></trkpt><trkpt lat="45.09551995053748" lon="9.974037982102054"><ele>37.57142857142857</ele><time>2026-04-19T09:32:57.998Z</time></trkpt><trkpt lat="45.09555852097761" lon="9.974123921479071"><ele>37.714285714285715</ele><time>2026-04-19T09:32:58.998Z</time></trkpt><trkpt lat="45.09559643884236" lon="9.974207789193118"><ele>37.857142857142854</ele><time>2026-04-19T09:32:59.998Z</time></trkpt><trkpt lat="45.095630098426696" lon="9.974296505426194"><ele>38.0</ele><time>2026-04-19T09:33:00.998Z</time></trkpt><trkpt lat="45.095657545963824" lon="9.974390753688455"><ele>38.0</ele><time>2026-04-19T09:33:01.998Z</time></trkpt><trkpt lat="45.09568992849247" lon="9.974481651469377"><ele>38.0</ele><time>2026-04-19T09:33:02.998Z</time></trkpt><trkpt lat="45.095726169215254" lon="9.974566421526418"><ele>38.0</ele><time>2026-04-19T09:33:04Z</time></trkpt><trkpt lat="45.0957616175726" lon="9.974653540975742"><ele>38.0</ele><time>2026-04-19T09:33:05Z</time></trkpt><trkpt lat="45.09579550685869" lon="9.974738041229125"><ele>38.0</ele><time>2026-04-19T09:33:06Z</time></trkpt><trkpt lat="45.09582998462202" lon="9.974825008918563"><ele>38.0</ele><time>2026-04-19T09:33:07Z</time></trkpt><trkpt lat="45.09586613506732" lon="9.974907481560603"><ele>38.0</ele><time>2026-04-19T09:33:08Z</time></trkpt><trkpt lat="45.09590489311683" lon="9.974989588389231"><ele>38.0</ele><time>2026-04-19T09:33:09Z</time></trkpt><trkpt lat="45.09594473521421" lon="9.975070807718794"><ele>38.0</ele><time>2026-04-19T09:33:10Z</time></trkpt><trkpt lat="45.09598283265358" lon="9.975153937611793"><ele>38.0</ele><time>2026-04-19T09:33:11Z</time></trkpt><trkpt lat="45.09602158123574" lon="9.975236629647483"><ele>38.0</ele><time>2026-04-19T09:33:12Z</time></trkpt><trkpt lat="45.09606020309648" lon="9.97531889218792"><ele>38.0</ele><time>2026-04-19T09:33:13Z</time></trkpt><trkpt lat="45.096102742819625" lon="9.975400352308078"><ele>38.0</ele><time>2026-04-19T09:33:14Z</time></trkpt><trkpt lat="45.096144472392496" lon="9.975482989933854"><ele>38.0</ele><time>2026-04-19T09:33:15Z</time></trkpt><trkpt lat="45.09618787300038" lon="9.9755640353562"><ele>38.0</ele><time>2026-04-19T09:33:16Z</time></trkpt><trkpt lat="45.096234005875445" lon="9.975643771934443"><ele>38.0</ele><time>2026-04-19T09:33:17Z</time></trkpt><trkpt lat="45.0962819068573" lon="9.97572101342993"><ele>38.0</ele><time>2026-04-19T09:33:18Z</time></trkpt><trkpt lat="45.09633148124196" lon="9.975800110824238"><ele>38.0</ele><time>2026-04-19T09:33:19Z</time></trkpt><trkpt lat="45.096381205482004" lon="9.975877236127316"><ele>38.0</ele><time>2026-04-19T09:33:20Z</time></trkpt><trkpt lat="45.09643192370987" lon="9.975955549251866"><ele>38.0</ele><time>2026-04-19T09:33:21Z</time></trkpt><trkpt lat="45.096479243102465" lon="9.976037488048467"><ele>38.0</ele><time>2026-04-19T09:33:22Z</time></trkpt><trkpt lat="45.09652885222102" lon="9.976116820904085"><ele>38.0</ele><time>2026-04-19T09:33:23Z</time></trkpt><trkpt lat="45.096578847778154" lon="9.976194050410367"><ele>38.0</ele><time>2026-04-19T09:33:24Z</time></trkpt><trkpt lat="45.096627470942" lon="9.976268968549862"><ele>38.0</ele><time>2026-04-19T09:33:25Z</time></trkpt><trkpt lat="45.09667790119164" lon="9.976342364998244"><ele>38.0</ele><time>2026-04-19T09:33:26Z</time></trkpt><trkpt lat="45.09672956400379" lon="9.976416039456751"><ele>38.0</ele><time>2026-04-19T09:33:27Z</time></trkpt><trkpt lat="45.09677800000791" lon="9.976490736992941"><ele>38.0</ele><time>2026-04-19T09:33:28Z</time></trkpt><trkpt lat="45.096826656188554" lon="9.97656724620247"><ele>38.0</ele><time>2026-04-19T09:33:29Z</time></trkpt><trkpt lat="45.096874877289615" lon="9.976642347695602"><ele>38.14285714285714</ele><time>2026-04-19T09:33:30Z</time></trkpt><trkpt lat="45.09692405531506" lon="9.976716417316522"><ele>38.28571428571429</ele><time>2026-04-19T09:33:31Z</time></trkpt><trkpt lat="45.09697467261843" lon="9.976790952455842"><ele>38.42857142857143</ele><time>2026-04-19T09:33:32Z</time></trkpt><trkpt lat="45.097022977735236" lon="9.976864817095562"><ele>38.57142857142857</ele><time>2026-04-19T09:33:33Z</time></trkpt><trkpt lat="45.09707191650891" lon="9.97694003065523"><ele>38.71428571428571</ele><time>2026-04-19T09:33:34Z</time></trkpt><trkpt lat="45.09711979194278" lon="9.977013503052328"><ele>38.85714285714286</ele><time>2026-04-19T09:33:35Z</time></trkpt><trkpt lat="45.09716893956971" lon="9.977087233298748"><ele>39.0</ele><time>2026-04-19T09:33:36Z</time></trkpt><trkpt lat="45.09721894157471" lon="9.977161676878298"><ele>39.0</ele><time>2026-04-19T09:33:37Z</time></trkpt><trkpt lat="45.097271035026345" lon="9.977233541425965"><ele>39.0</ele><time>2026-04-19T09:33:38Z</time></trkpt><trkpt lat="45.09732437041857" lon="9.97730422478163"><ele>39.0</ele><time>2026-04-19T09:33:39Z</time></trkpt><trkpt lat="45.09737695006294" lon="9.977376599209746"><ele>39.0</ele><time>2026-04-19T09:33:40Z</time></trkpt><trkpt lat="45.097427248959384" lon="9.97745391019783"><ele>39.0</ele><time>2026-04-19T09:33:41Z</time></trkpt><trkpt lat="45.097476614030995" lon="9.977532185179232"><ele>39.0</ele><time>2026-04-19T09:33:42Z</time></trkpt><trkpt lat="45.09752503979824" lon="9.9776154979187"><ele>39.0</ele><time>2026-04-19T09:33:43Z</time></trkpt><trkpt lat="45.097577180202464" lon="9.977694666309631"><ele>38.666666666666664</ele><time>2026-04-19T09:33:44Z</time></trkpt><trkpt lat="45.09762911218809" lon="9.977772311817715"><ele>38.333333333333336</ele><time>2026-04-19T09:33:45Z</time></trkpt><trkpt lat="45.097681803821374" lon="9.977850430327472"><ele>38.0</ele><time>2026-04-19T09:33:46Z</time></trkpt><trkpt lat="45.097734438184446" lon="9.977927920303882"><ele>37.66666666666667</ele><time>2026-04-19T09:33:47Z</time></trkpt><trkpt lat="45.0977849445149" lon="9.978007847637194"><ele>37.333333333333336</ele><time>2026-04-19T09:33:48Z</time></trkpt><trkpt lat="45.097837027431524" lon="9.978084459880991"><ele>37.0</ele><time>2026-04-19T09:33:49Z</time></trkpt><trkpt lat="45.09788871895415" lon="9.978162405964015"><ele>37.0</ele><time>2026-04-19T09:33:50Z</time></trkpt><trkpt lat="45.09794273896555" lon="9.978234823869018"><ele>37.0</ele><time>2026-04-19T09:33:51Z</time></trkpt><trkpt lat="45.0979966414847" lon="9.978305637793817"><ele>37.0</ele><time>2026-04-19T09:33:52Z</time></trkpt><trkpt lat="45.09805028916472" lon="9.978375673332007"><ele>37.0</ele><time>2026-04-19T09:33:53Z</time></trkpt><trkpt lat="45.09810399029368" lon="9.978445994220353"><ele>37.0</ele><time>2026-04-19T09:33:54Z</time></trkpt><trkpt lat="45.09815727865339" lon="9.978518013496855"><ele>37.0</ele><time>2026-04-19T09:33:55Z</time></trkpt><trkpt lat="45.09821092965105" lon="9.978587731595987"><ele>37.0</ele><time>2026-04-19T09:33:56Z</time></trkpt><trkpt lat="45.09826603218837" lon="9.978654763632841"><ele>37.0</ele><time>2026-04-19T09:33:57Z</time></trkpt><trkpt lat="45.098323384093504" lon="9.978719884864306"><ele>37.0</ele><time>2026-04-19T09:33:58Z</time></trkpt><trkpt lat="45.09838298546533" lon="9.978781591552142"><ele>37.0</ele><time>2026-04-19T09:33:59Z</time></trkpt><trkpt lat="45.098442620758604" lon="9.978841014208673"><ele>37.0</ele><time>2026-04-19T09:33:59.999Z</time></trkpt><trkpt lat="45.09850143322993" lon="9.97889904118766"><ele>37.0</ele><time>2026-04-19T09:34:00.999Z</time></trkpt><trkpt lat="45.09856130393383" lon="9.97895477509242"><ele>37.0</ele><time>2026-04-19T09:34:01.999Z</time></trkpt><trkpt lat="45.098624153353605" lon="9.979004849263482"><ele>37.0</ele><time>2026-04-19T09:34:02.999Z</time></trkpt><trkpt lat="45.098688731340395" lon="9.979051052110918"><ele>37.0</ele><time>2026-04-19T09:34:03.999Z</time></trkpt><trkpt lat="45.09875386998735" lon="9.97909384156908"><ele>37.0</ele><time>2026-04-19T09:34:04.999Z</time></trkpt><trkpt lat="45.09881971474376" lon="9.979138527069509"><ele>37.0</ele><time>2026-04-19T09:34:05.999Z</time></trkpt><trkpt lat="45.09888666986599" lon="9.979181099522798"><ele>37.0</ele><time>2026-04-19T09:34:06.999Z</time></trkpt><trkpt lat="45.09895460037181" lon="9.979221461056165"><ele>37.0</ele><time>2026-04-19T09:34:07.999Z</time></trkpt><trkpt lat="45.09902043314655" lon="9.979262004022903"><ele>37.0</ele><time>2026-04-19T09:34:08.999Z</time></trkpt><trkpt lat="45.099087388993134" lon="9.97930060759742"><ele>37.0</ele><time>2026-04-19T09:34:09.999Z</time></trkpt><trkpt lat="45.099154289607995" lon="9.979334075622193"><ele>36.85714285714286</ele><time>2026-04-19T09:34:10.999Z</time></trkpt><trkpt lat="45.09922266477389" lon="9.979367484485076"><ele>36.714285714285715</ele><time>2026-04-19T09:34:11.999Z</time></trkpt><trkpt lat="45.0992908066439" lon="9.979399617466918"><ele>36.57142857142857</ele><time>2026-04-19T09:34:12.999Z</time></trkpt><trkpt lat="45.09935836021236" lon="9.979431327022034"><ele>36.42857142857143</ele><time>2026-04-19T09:34:13.999Z</time></trkpt><trkpt lat="45.099427765591464" lon="9.979460640608192"><ele>36.285714285714285</ele><time>2026-04-19T09:34:14.999Z</time></trkpt><trkpt lat="45.09949722835669" lon="9.979484745364033"><ele>36.142857142857146</ele><time>2026-04-19T09:34:15.999Z</time></trkpt><trkpt lat="45.09956580125877" lon="9.979515193263515"><ele>36.0</ele><time>2026-04-19T09:34:16.999Z</time></trkpt><trkpt lat="45.09963341530412" lon="9.97954684305269"><ele>36.00000000000001</ele><time>2026-04-19T09:34:17.999Z</time></trkpt><trkpt lat="45.09970207872517" lon="9.979576703525272"><ele>36.0</ele><time>2026-04-19T09:34:18.999Z</time></trkpt><trkpt lat="45.0997714426497" lon="9.97960805231095"><ele>36.0</ele><time>2026-04-19T09:34:19.999Z</time></trkpt><trkpt lat="45.09984168607092" lon="9.979639608629364"><ele>36.0</ele><time>2026-04-19T09:34:20.999Z</time></trkpt><trkpt lat="45.099911668019004" lon="9.979671575059049"><ele>36.0</ele><time>2026-04-19T09:34:21.999Z</time></trkpt><trkpt lat="45.099980527912535" lon="9.979705025824472"><ele>36.00000000000001</ele><time>2026-04-19T09:34:22.999Z</time></trkpt><trkpt lat="45.10005000152075" lon="9.979735887261805"><ele>36.0</ele><time>2026-04-19T09:34:23.999Z</time></trkpt><trkpt lat="45.100122286743414" lon="9.97976648596778"><ele>36.00000000000001</ele><time>2026-04-19T09:34:24.999Z</time></trkpt><trkpt lat="45.100192205291876" lon="9.979798221472995"><ele>36.0</ele><time>2026-04-19T09:34:25.999Z</time></trkpt><trkpt lat="45.100262662371705" lon="9.979827578677353"><ele>36.0</ele><time>2026-04-19T09:34:26.999Z</time></trkpt><trkpt lat="45.10033294409813" lon="9.979858389448903"><ele>36.0</ele><time>2026-04-19T09:34:27.999Z</time></trkpt><trkpt lat="45.10040369775674" lon="9.979890294450257"><ele>36.0</ele><time>2026-04-19T09:34:28.999Z</time></trkpt><trkpt lat="45.10047120745279" lon="9.979918922784687"><ele>36.00000000000001</ele><time>2026-04-19T09:34:29.999Z</time></trkpt><trkpt lat="45.10053889333395" lon="9.979949777292251"><ele>36.0</ele><time>2026-04-19T09:34:30.999Z</time></trkpt><trkpt lat="45.10060806683794" lon="9.979983771291913"><ele>36.00000000000001</ele><time>2026-04-19T09:34:31.999Z</time></trkpt><trkpt lat="45.10067688122652" lon="9.98001485887972"><ele>36.0</ele><time>2026-04-19T09:34:32.999Z</time></trkpt><trkpt lat="45.10074671428804" lon="9.980045129790966"><ele>36.0</ele><time>2026-04-19T09:34:33.999Z</time></trkpt><trkpt lat="45.10081738121662" lon="9.980076658289883"><ele>36.0</ele><time>2026-04-19T09:34:34.999Z</time></trkpt><trkpt lat="45.100886672946245" lon="9.980108516542543"><ele>36.0</ele><time>2026-04-19T09:34:35.999Z</time></trkpt><trkpt lat="45.10095422020499" lon="9.98014030279876"><ele>36.00000000000001</ele><time>2026-04-19T09:34:36.999Z</time></trkpt><trkpt lat="45.10102132566785" lon="9.980171567199253"><ele>36.0</ele><time>2026-04-19T09:34:37.999Z</time></trkpt><trkpt lat="45.10108743169617" lon="9.980200201386257"><ele>36.42857142857143</ele><time>2026-04-19T09:34:38.999Z</time></trkpt><trkpt lat="45.101153957170325" lon="9.980227128768133"><ele>36.85714285714286</ele><time>2026-04-19T09:34:39.999Z</time></trkpt><trkpt lat="45.1012200202785" lon="9.980256417548908"><ele>37.28571428571429</ele><time>2026-04-19T09:34:40.999Z</time></trkpt><trkpt lat="45.10128553207912" lon="9.980286573202722"><ele>37.714285714285715</ele><time>2026-04-19T09:34:41.999Z</time></trkpt><trkpt lat="45.10135080241498" lon="9.980317171028917"><ele>38.14285714285714</ele><time>2026-04-19T09:34:42.999Z</time></trkpt><trkpt lat="45.101417990880684" lon="9.980347204171228"><ele>38.57142857142858</ele><time>2026-04-19T09:34:43.999Z</time></trkpt><trkpt lat="45.10148080306551" lon="9.980377810224471"><ele>39.0</ele><time>2026-04-19T09:34:44.999Z</time></trkpt><trkpt lat="45.101544403732284" lon="9.980407620437754"><ele>39.0</ele><time>2026-04-19T09:34:45.999Z</time></trkpt><trkpt lat="45.10160645938444" lon="9.98043634201331"><ele>39.0</ele><time>2026-04-19T09:34:46.999Z</time></trkpt><trkpt lat="45.10166820212113" lon="9.980462529423342"><ele>39.0</ele><time>2026-04-19T09:34:47.999Z</time></trkpt><trkpt lat="45.101728652327715" lon="9.980492290095075"><ele>39.0</ele><time>2026-04-19T09:34:48.999Z</time></trkpt><trkpt lat="45.101788725349344" lon="9.980522479376154"><ele>39.0</ele><time>2026-04-19T09:34:49.999Z</time></trkpt><trkpt lat="45.10184863028731" lon="9.980555022013501"><ele>39.0</ele><time>2026-04-19T09:34:50.999Z</time></trkpt><trkpt lat="45.10196381238776" lon="9.980620184443637"><ele>39.0</ele><time>2026-04-19T09:34:52.999Z</time></trkpt><trkpt lat="45.102073565985116" lon="9.980696783439152"><ele>39.0</ele><time>2026-04-19T09:34:54.998Z</time></trkpt><trkpt lat="45.10218215348752" lon="9.980777029009454"><ele>39.0</ele><time>2026-04-19T09:34:56.998Z</time></trkpt><trkpt lat="45.102288014213336" lon="9.980864567220143"><ele>39.0</ele><time>2026-04-19T09:34:58.998Z</time></trkpt><trkpt lat="45.102392527357864" lon="9.980957800391785"><ele>39.0</ele><time>2026-04-19T09:35:00.998Z</time></trkpt><trkpt lat="45.10248944817823" lon="9.981057966394484"><ele>39.2</ele><time>2026-04-19T09:35:02.998Z</time></trkpt><trkpt lat="45.102585273813034" lon="9.981170064446184"><ele>39.4</ele><time>2026-04-19T09:35:04.998Z</time></trkpt><trkpt lat="45.10263231674941" lon="9.98122989167155"><ele>39.6</ele><time>2026-04-19T09:35:05.998Z</time></trkpt><trkpt lat="45.102724060786294" lon="9.981348956580435"><ele>39.8</ele><time>2026-04-19T09:35:07.998Z</time></trkpt><trkpt lat="45.10281094733935" lon="9.981471002345538"><ele>40.0</ele><time>2026-04-19T09:35:10Z</time></trkpt><trkpt lat="45.10289292808494" lon="9.98160115690207"><ele>39.75</ele><time>2026-04-19T09:35:12Z</time></trkpt><trkpt lat="45.10297309467743" lon="9.981730489037837"><ele>39.5</ele><time>2026-04-19T09:35:14Z</time></trkpt><trkpt lat="45.10304545428613" lon="9.981868866602667"><ele>39.25</ele><time>2026-04-19T09:35:16Z</time></trkpt><trkpt lat="45.10311356335196" lon="9.982007185118016"><ele>39.0</ele><time>2026-04-19T09:35:18Z</time></trkpt><trkpt lat="45.10317773530332" lon="9.982149742895588"><ele>39.0</ele><time>2026-04-19T09:35:20Z</time></trkpt><trkpt lat="45.10324274616669" lon="9.982297890340307"><ele>39.0</ele><time>2026-04-19T09:35:22Z</time></trkpt><trkpt lat="45.10330414092227" lon="9.982448085965364"><ele>39.0</ele><time>2026-04-19T09:35:24Z</time></trkpt><trkpt lat="45.10336434541679" lon="9.982599294739348"><ele>39.0</ele><time>2026-04-19T09:35:26Z</time></trkpt><trkpt lat="45.103396263586426" lon="9.982678354296867"><ele>39.0</ele><time>2026-04-19T09:35:27Z</time></trkpt><trkpt lat="45.10342759611406" lon="9.982760765704992"><ele>39.0</ele><time>2026-04-19T09:35:28Z</time></trkpt><trkpt lat="45.10346154561871" lon="9.982841640614883"><ele>39.0</ele><time>2026-04-19T09:35:29Z</time></trkpt><trkpt lat="45.10349671468639" lon="9.98292525563305"><ele>39.0</ele><time>2026-04-19T09:35:30Z</time></trkpt><trkpt lat="45.10353121480713" lon="9.98301007772454"><ele>39.0</ele><time>2026-04-19T09:35:31Z</time></trkpt><trkpt lat="45.10356799952163" lon="9.983094896421395"><ele>39.0</ele><time>2026-04-19T09:35:32Z</time></trkpt><trkpt lat="45.103603870848616" lon="9.983184008347852"><ele>39.0</ele><time>2026-04-19T09:35:33Z</time></trkpt><trkpt lat="45.10363908644629" lon="9.983274899808292"><ele>39.0</ele><time>2026-04-19T09:35:34Z</time></trkpt><trkpt lat="45.10367602370304" lon="9.983364381949439"><ele>39.0</ele><time>2026-04-19T09:35:35Z</time></trkpt><trkpt lat="45.1037131901833" lon="9.983451982532074"><ele>39.0</ele><time>2026-04-19T09:35:36Z</time></trkpt><trkpt lat="45.10374900580921" lon="9.983540649794138"><ele>39.0</ele><time>2026-04-19T09:35:37Z</time></trkpt><trkpt lat="45.10378655725106" lon="9.983629296418611"><ele>39.0</ele><time>2026-04-19T09:35:38Z</time></trkpt><trkpt lat="45.10382265124354" lon="9.983718617663573"><ele>39.0</ele><time>2026-04-19T09:35:39Z</time></trkpt><trkpt lat="45.10385822351061" lon="9.983806546265248"><ele>39.0</ele><time>2026-04-19T09:35:40Z</time></trkpt><trkpt lat="45.10389390415972" lon="9.983898324227303"><ele>39.0</ele><time>2026-04-19T09:35:41Z</time></trkpt><trkpt lat="45.10392986940559" lon="9.98398905683581"><ele>39.0</ele><time>2026-04-19T09:35:42Z</time></trkpt><trkpt lat="45.10396567145042" lon="9.984077422209703"><ele>39.0</ele><time>2026-04-19T09:35:43Z</time></trkpt><trkpt lat="45.10400226097417" lon="9.984167569536499"><ele>39.0</ele><time>2026-04-19T09:35:44Z</time></trkpt><trkpt lat="45.104039723491034" lon="9.984258110583982"><ele>39.0</ele><time>2026-04-19T09:35:45Z</time></trkpt><trkpt lat="45.10407770058517" lon="9.98434617566574"><ele>39.0</ele><time>2026-04-19T09:35:46Z</time></trkpt><trkpt lat="45.10411573317326" lon="9.984434153276545"><ele>39.0</ele><time>2026-04-19T09:35:47Z</time></trkpt><trkpt lat="45.10415112950791" lon="9.984524427865423"><ele>39.0</ele><time>2026-04-19T09:35:48Z</time></trkpt><trkpt lat="45.104187702880566" lon="9.984612828350198"><ele>38.714285714285715</ele><time>2026-04-19T09:35:49Z</time></trkpt><trkpt lat="45.10422502402148" lon="9.984700830135298"><ele>38.42857142857142</ele><time>2026-04-19T09:35:50Z</time></trkpt><trkpt lat="45.10426011339699" lon="9.984789291726134"><ele>38.14285714285714</ele><time>2026-04-19T09:35:51Z</time></trkpt><trkpt lat="45.10429313163657" lon="9.984877739947677"><ele>37.85714285714286</ele><time>2026-04-19T09:35:52Z</time></trkpt><trkpt lat="45.10432959101031" lon="9.98496634619943"><ele>37.57142857142857</ele><time>2026-04-19T09:35:53Z</time></trkpt><trkpt lat="45.104366221721534" lon="9.985053024948844"><ele>37.285714285714285</ele><time>2026-04-19T09:35:54Z</time></trkpt><trkpt lat="45.104402855161496" lon="9.985143381005297"><ele>37.0</ele><time>2026-04-19T09:35:55Z</time></trkpt><trkpt lat="45.10443824072729" lon="9.985234581869264"><ele>37.0</ele><time>2026-04-19T09:35:56Z</time></trkpt><trkpt lat="45.104475173581314" lon="9.985326122375131"><ele>37.0</ele><time>2026-04-19T09:35:57Z</time></trkpt><trkpt lat="45.10451157897161" lon="9.98541687117206"><ele>37.0</ele><time>2026-04-19T09:35:58Z</time></trkpt><trkpt lat="45.104547719370736" lon="9.985508400537277"><ele>37.0</ele><time>2026-04-19T09:35:59Z</time></trkpt><trkpt lat="45.10458401709374" lon="9.985597594567242"><ele>37.0</ele><time>2026-04-19T09:36:00Z</time></trkpt><trkpt lat="45.104620703642254" lon="9.98568743333183"><ele>37.0</ele><time>2026-04-19T09:36:01Z</time></trkpt><trkpt lat="45.10465847365441" lon="9.985776555183268"><ele>37.0</ele><time>2026-04-19T09:36:02Z</time></trkpt><trkpt lat="45.104695768401406" lon="9.985866725844724"><ele>37.142857142857146</ele><time>2026-04-19T09:36:03Z</time></trkpt><trkpt lat="45.10472924601221" lon="9.985958312128561"><ele>37.285714285714285</ele><time>2026-04-19T09:36:03.999Z</time></trkpt><trkpt lat="45.104763521345326" lon="9.986047644930427"><ele>37.42857142857143</ele><time>2026-04-19T09:36:04.999Z</time></trkpt><trkpt lat="45.104799465249755" lon="9.98613566594516"><ele>37.57142857142857</ele><time>2026-04-19T09:36:05.999Z</time></trkpt><trkpt lat="45.1048359344416" lon="9.986220901761856"><ele>37.714285714285715</ele><time>2026-04-19T09:36:06.999Z</time></trkpt><trkpt lat="45.104874759808325" lon="9.986311203250278"><ele>37.857142857142854</ele><time>2026-04-19T09:36:07.999Z</time></trkpt><trkpt lat="45.10491045042699" lon="9.986406426868612"><ele>38.0</ele><time>2026-04-19T09:36:08.999Z</time></trkpt><trkpt lat="45.1049481596708" lon="9.986501769628997"><ele>38.0</ele><time>2026-04-19T09:36:09.999Z</time></trkpt><trkpt lat="45.10498803144906" lon="9.986594094558503"><ele>38.0</ele><time>2026-04-19T09:36:10.999Z</time></trkpt><trkpt lat="45.10503009031473" lon="9.986687702833544"><ele>38.0</ele><time>2026-04-19T09:36:11.999Z</time></trkpt><trkpt lat="45.1050751735994" lon="9.986777745085167"><ele>38.0</ele><time>2026-04-19T09:36:12.999Z</time></trkpt><trkpt lat="45.10512289403254" lon="9.986864703983352"><ele>38.0</ele><time>2026-04-19T09:36:13.999Z</time></trkpt><trkpt lat="45.10517313923759" lon="9.98694794391056"><ele>38.0</ele><time>2026-04-19T09:36:14.999Z</time></trkpt><trkpt lat="45.10522793731442" lon="9.987026343796687"><ele>38.0</ele><time>2026-04-19T09:36:15.999Z</time></trkpt><trkpt lat="45.1052875526494" lon="9.987099578520516"><ele>38.0</ele><time>2026-04-19T09:36:16.999Z</time></trkpt><trkpt lat="45.105349481604286" lon="9.987167921285533"><ele>38.0</ele><time>2026-04-19T09:36:17.999Z</time></trkpt><trkpt lat="45.105411414160244" lon="9.987234484237197"><ele>38.0</ele><time>2026-04-19T09:36:18.999Z</time></trkpt><trkpt lat="45.105472021085845" lon="9.987299347906095"><ele>38.0</ele><time>2026-04-19T09:36:19.999Z</time></trkpt><trkpt lat="45.10553189246202" lon="9.987363646419942"><ele>38.0</ele><time>2026-04-19T09:36:20.999Z</time></trkpt><trkpt lat="45.10559168584325" lon="9.98743254654419"><ele>38.0</ele><time>2026-04-19T09:36:21.999Z</time></trkpt><trkpt lat="45.10564842343422" lon="9.987500758169256"><ele>38.0</ele><time>2026-04-19T09:36:22.999Z</time></trkpt><trkpt lat="45.10570569202537" lon="9.987570355830009"><ele>38.0</ele><time>2026-04-19T09:36:23.999Z</time></trkpt><trkpt lat="45.105762970799766" lon="9.987636275067596"><ele>38.0</ele><time>2026-04-19T09:36:24.999Z</time></trkpt><trkpt lat="45.105822683865675" lon="9.987701531722582"><ele>38.0</ele><time>2026-04-19T09:36:25.999Z</time></trkpt><trkpt lat="45.10587918463205" lon="9.987766593085599"><ele>38.0</ele><time>2026-04-19T09:36:26.999Z</time></trkpt><trkpt lat="45.105937449259514" lon="9.987832303701442"><ele>38.0</ele><time>2026-04-19T09:36:27.999Z</time></trkpt><trkpt lat="45.10599446787429" lon="9.987896428626538"><ele>38.14285714285714</ele><time>2026-04-19T09:36:28.999Z</time></trkpt><trkpt lat="45.106052367540876" lon="9.987960596071703"><ele>38.28571428571429</ele><time>2026-04-19T09:36:29.999Z</time></trkpt><trkpt lat="45.106112330134515" lon="9.98802345282292"><ele>38.42857142857143</ele><time>2026-04-19T09:36:30.999Z</time></trkpt><trkpt lat="45.10616894453147" lon="9.988090302339602"><ele>38.57142857142857</ele><time>2026-04-19T09:36:31.999Z</time></trkpt><trkpt lat="45.10622612139349" lon="9.98815526598534"><ele>38.71428571428571</ele><time>2026-04-19T09:36:32.999Z</time></trkpt><trkpt lat="45.1062849309904" lon="9.98822047723849"><ele>38.85714285714286</ele><time>2026-04-19T09:36:33.999Z</time></trkpt><trkpt lat="45.10634415444541" lon="9.988281679409589"><ele>39.0</ele><time>2026-04-19T09:36:34.999Z</time></trkpt><trkpt lat="45.106401745985394" lon="9.98834615946817"><ele>39.0</ele><time>2026-04-19T09:36:35.999Z</time></trkpt><trkpt lat="45.106459782428054" lon="9.988408872960603"><ele>39.0</ele><time>2026-04-19T09:36:36.999Z</time></trkpt><trkpt lat="45.10652046595325" lon="9.988471589161342"><ele>39.0</ele><time>2026-04-19T09:36:37.999Z</time></trkpt><trkpt lat="45.10657979851188" lon="9.988535818828034"><ele>39.0</ele><time>2026-04-19T09:36:38.999Z</time></trkpt><trkpt lat="45.10663934174594" lon="9.988600271156917"><ele>39.0</ele><time>2026-04-19T09:36:39.999Z</time></trkpt><trkpt lat="45.10669951124701" lon="9.988663820080903"><ele>39.0</ele><time>2026-04-19T09:36:40.999Z</time></trkpt><trkpt lat="45.10675690303686" lon="9.988726412010642"><ele>39.0</ele><time>2026-04-19T09:36:41.999Z</time></trkpt><trkpt lat="45.106815761402345" lon="9.988786731869258"><ele>39.142857142857146</ele><time>2026-04-19T09:36:42.999Z</time></trkpt><trkpt lat="45.10687691282307" lon="9.988844971981196"><ele>39.285714285714285</ele><time>2026-04-19T09:36:43.999Z</time></trkpt><trkpt lat="45.106933912052966" lon="9.988908590985268"><ele>39.42857142857143</ele><time>2026-04-19T09:36:44.999Z</time></trkpt><trkpt lat="45.10698772208869" lon="9.98897019349616"><ele>39.57142857142857</ele><time>2026-04-19T09:36:45.999Z</time></trkpt><trkpt lat="45.1070464919498" lon="9.989032449312225"><ele>39.714285714285715</ele><time>2026-04-19T09:36:46.999Z</time></trkpt><trkpt lat="45.10710306571293" lon="9.989095904798992"><ele>39.857142857142854</ele><time>2026-04-19T09:36:47.999Z</time></trkpt><trkpt lat="45.1071602144586" lon="9.989159430339333"><ele>40.0</ele><time>2026-04-19T09:36:48.999Z</time></trkpt><trkpt lat="45.10721611397659" lon="9.989221134053544"><ele>40.0</ele><time>2026-04-19T09:36:49.999Z</time></trkpt><trkpt lat="45.107268918039665" lon="9.989283359499169"><ele>40.0</ele><time>2026-04-19T09:36:50.999Z</time></trkpt><trkpt lat="45.10732222565888" lon="9.989347320290154"><ele>40.0</ele><time>2026-04-19T09:36:51.999Z</time></trkpt><trkpt lat="45.10738038000011" lon="9.989407189127554"><ele>40.0</ele><time>2026-04-19T09:36:52.999Z</time></trkpt><trkpt lat="45.10743565365871" lon="9.989470754733425"><ele>40.0</ele><time>2026-04-19T09:36:53.999Z</time></trkpt><trkpt lat="45.107491718488546" lon="9.989535821150621"><ele>40.0</ele><time>2026-04-19T09:36:54.999Z</time></trkpt><trkpt lat="45.107546495034036" lon="9.989603041030634"><ele>40.0</ele><time>2026-04-19T09:36:55.999Z</time></trkpt><trkpt lat="45.10760161047127" lon="9.989670827999252"><ele>39.857142857142854</ele><time>2026-04-19T09:36:56.999Z</time></trkpt><trkpt lat="45.10765719439382" lon="9.98973907060311"><ele>39.714285714285715</ele><time>2026-04-19T09:36:57.998Z</time></trkpt><trkpt lat="45.10771339189723" lon="9.989802678653515"><ele>39.57142857142857</ele><time>2026-04-19T09:36:58.998Z</time></trkpt><trkpt lat="45.10777127240785" lon="9.989869298609152"><ele>39.42857142857143</ele><time>2026-04-19T09:36:59.998Z</time></trkpt><trkpt lat="45.10782728947124" lon="9.989935127536858"><ele>39.285714285714285</ele><time>2026-04-19T09:37:00.998Z</time></trkpt><trkpt lat="45.107884499636434" lon="9.989998468970517"><ele>39.142857142857146</ele><time>2026-04-19T09:37:01.998Z</time></trkpt><trkpt lat="45.10794116121694" lon="9.990063889974689"><ele>39.0</ele><time>2026-04-19T09:37:02.998Z</time></trkpt><trkpt lat="45.10799775709234" lon="9.990129022783485"><ele>39.0</ele><time>2026-04-19T09:37:03.998Z</time></trkpt><trkpt lat="45.108052991230466" lon="9.990196875778501"><ele>39.0</ele><time>2026-04-19T09:37:04.998Z</time></trkpt><trkpt lat="45.10811171059674" lon="9.990264274165783"><ele>39.0</ele><time>2026-04-19T09:37:05.998Z</time></trkpt><trkpt lat="45.108169035528725" lon="9.99032991998814"><ele>39.0</ele><time>2026-04-19T09:37:06.998Z</time></trkpt><trkpt lat="45.10822442970468" lon="9.99039247277934"><ele>39.0</ele><time>2026-04-19T09:37:07.998Z</time></trkpt><trkpt lat="45.10828358077729" lon="9.9904562740447"><ele>39.0</ele><time>2026-04-19T09:37:08.998Z</time></trkpt><trkpt lat="45.10834161892345" lon="9.990522747701098"><ele>39.0</ele><time>2026-04-19T09:37:09.998Z</time></trkpt><trkpt lat="45.10839877354344" lon="9.990590256013265"><ele>39.0</ele><time>2026-04-19T09:37:10.998Z</time></trkpt><trkpt lat="45.108458429088415" lon="9.99065997561575"><ele>39.0</ele><time>2026-04-19T09:37:11.998Z</time></trkpt><trkpt lat="45.10851823367481" lon="9.990729482096066"><ele>39.0</ele><time>2026-04-19T09:37:12.998Z</time></trkpt><trkpt lat="45.108577321488575" lon="9.990795749255822"><ele>39.0</ele><time>2026-04-19T09:37:14Z</time></trkpt><trkpt lat="45.10863931548192" lon="9.990863763724185"><ele>39.0</ele><time>2026-04-19T09:37:15Z</time></trkpt><trkpt lat="45.10869927386173" lon="9.99093237459387"><ele>39.0</ele><time>2026-04-19T09:37:16Z</time></trkpt><trkpt lat="45.10875944264135" lon="9.991003725042109"><ele>39.0</ele><time>2026-04-19T09:37:17Z</time></trkpt><trkpt lat="45.10881840895681" lon="9.991076794834246"><ele>39.0</ele><time>2026-04-19T09:37:18Z</time></trkpt><trkpt lat="45.10887773949739" lon="9.991144605040349"><ele>39.0</ele><time>2026-04-19T09:37:19Z</time></trkpt><trkpt lat="45.108937127738294" lon="9.991213049383484"><ele>39.0</ele><time>2026-04-19T09:37:20Z</time></trkpt><trkpt lat="45.10899515231339" lon="9.991280221179325"><ele>39.0</ele><time>2026-04-19T09:37:21Z</time></trkpt><trkpt lat="45.109053180817426" lon="9.991349323168597"><ele>39.0</ele><time>2026-04-19T09:37:22Z</time></trkpt><trkpt lat="45.10910982374344" lon="9.991417179714507"><ele>39.0</ele><time>2026-04-19T09:37:23Z</time></trkpt><trkpt lat="45.109168034495504" lon="9.991484718820539"><ele>39.0</ele><time>2026-04-19T09:37:24Z</time></trkpt><trkpt lat="45.1092244203571" lon="9.991547228765132"><ele>39.0</ele><time>2026-04-19T09:37:25Z</time></trkpt><trkpt lat="45.10928018315115" lon="9.991612076549972"><ele>39.0</ele><time>2026-04-19T09:37:26Z</time></trkpt><trkpt lat="45.1093361312541" lon="9.991677415960696"><ele>39.0</ele><time>2026-04-19T09:37:27Z</time></trkpt><trkpt lat="45.10939119455557" lon="9.991742175437464"><ele>39.0</ele><time>2026-04-19T09:37:28Z</time></trkpt><trkpt lat="45.10944594840681" lon="9.991803966525394"><ele>39.0</ele><time>2026-04-19T09:37:29Z</time></trkpt><trkpt lat="45.10949937819031" lon="9.991866569184177"><ele>38.57142857142858</ele><time>2026-04-19T09:37:30Z</time></trkpt><trkpt lat="45.1095524975826" lon="9.991929511651408"><ele>38.14285714285714</ele><time>2026-04-19T09:37:31Z</time></trkpt><trkpt lat="45.1096059648175" lon="9.991989625471382"><ele>37.714285714285715</ele><time>2026-04-19T09:37:32Z</time></trkpt><trkpt lat="45.109661590487434" lon="9.992050193361806"><ele>37.28571428571429</ele><time>2026-04-19T09:37:33Z</time></trkpt><trkpt lat="45.10971792569251" lon="9.992114482260742"><ele>36.85714285714286</ele><time>2026-04-19T09:37:34Z</time></trkpt><trkpt lat="45.10977438999855" lon="9.992176484891786"><ele>36.42857142857143</ele><time>2026-04-19T09:37:35Z</time></trkpt><trkpt lat="45.109834055715574" lon="9.992242562246698"><ele>36.0</ele><time>2026-04-19T09:37:36Z</time></trkpt><trkpt lat="45.10989480701616" lon="9.992308386962296"><ele>36.142857142857146</ele><time>2026-04-19T09:37:37Z</time></trkpt><trkpt lat="45.109952915093004" lon="9.992379198464231"><ele>36.285714285714285</ele><time>2026-04-19T09:37:38Z</time></trkpt><trkpt lat="45.110011242354545" lon="9.992447125239487"><ele>36.42857142857143</ele><time>2026-04-19T09:37:39Z</time></trkpt><trkpt lat="45.1100710328764" lon="9.992510308670674"><ele>36.57142857142857</ele><time>2026-04-19T09:37:40Z</time></trkpt><trkpt lat="45.110129794288014" lon="9.992576368934559"><ele>36.714285714285715</ele><time>2026-04-19T09:37:41Z</time></trkpt><trkpt lat="45.1101860684372" lon="9.992643658611629"><ele>36.85714285714286</ele><time>2026-04-19T09:37:42Z</time></trkpt><trkpt lat="45.11024168378153" lon="9.992713088124287"><ele>37.0</ele><time>2026-04-19T09:37:43Z</time></trkpt><trkpt lat="45.110297880564666" lon="9.99277920221273"><ele>37.0</ele><time>2026-04-19T09:37:44Z</time></trkpt><trkpt lat="45.110353477458716" lon="9.992842818376992"><ele>37.0</ele><time>2026-04-19T09:37:45Z</time></trkpt><trkpt lat="45.11041072851782" lon="9.992904176455447"><ele>37.0</ele><time>2026-04-19T09:37:46Z</time></trkpt><trkpt lat="45.1104699452153" lon="9.992969617557092"><ele>37.0</ele><time>2026-04-19T09:37:47Z</time></trkpt><trkpt lat="45.11052884633249" lon="9.993033639854684"><ele>37.0</ele><time>2026-04-19T09:37:48Z</time></trkpt><trkpt lat="45.1105892611184" lon="9.993097483853873"><ele>37.0</ele><time>2026-04-19T09:37:49Z</time></trkpt><trkpt lat="45.110648058747636" lon="9.993161796111709"><ele>37.0</ele><time>2026-04-19T09:37:50Z</time></trkpt><trkpt lat="45.110705195217136" lon="9.99322906594349"><ele>37.0</ele><time>2026-04-19T09:37:51Z</time></trkpt><trkpt lat="45.110762903860824" lon="9.993295416412616"><ele>37.0</ele><time>2026-04-19T09:37:52Z</time></trkpt><trkpt lat="45.11082152800801" lon="9.99336117979985"><ele>37.0</ele><time>2026-04-19T09:37:53Z</time></trkpt><trkpt lat="45.110882775622485" lon="9.993427821049451"><ele>37.0</ele><time>2026-04-19T09:37:54Z</time></trkpt><trkpt lat="45.110943525773415" lon="9.993496853355794"><ele>37.0</ele><time>2026-04-19T09:37:55Z</time></trkpt><trkpt lat="45.11100412415203" lon="9.993562489297961"><ele>37.0</ele><time>2026-04-19T09:37:56Z</time></trkpt><trkpt lat="45.1110655121856" lon="9.993627494217478"><ele>37.0</ele><time>2026-04-19T09:37:57Z</time></trkpt><trkpt lat="45.111124934322525" lon="9.993694984409496"><ele>37.0</ele><time>2026-04-19T09:37:58Z</time></trkpt><trkpt lat="45.111183695696546" lon="9.993759902345124"><ele>37.0</ele><time>2026-04-19T09:37:59Z</time></trkpt><trkpt lat="45.11124396973902" lon="9.993824996161976"><ele>37.0</ele><time>2026-04-19T09:38:00Z</time></trkpt><trkpt lat="45.111302825481594" lon="9.99389154844681"><ele>37.0</ele><time>2026-04-19T09:38:01Z</time></trkpt><trkpt lat="45.11136377108915" lon="9.993955883447384"><ele>37.0</ele><time>2026-04-19T09:38:02Z</time></trkpt><trkpt lat="45.11142350792685" lon="9.994020558706044"><ele>37.0</ele><time>2026-04-19T09:38:03Z</time></trkpt><trkpt lat="45.11148301557434" lon="9.994083991028468"><ele>37.0</ele><time>2026-04-19T09:38:04Z</time></trkpt><trkpt lat="45.11154371962394" lon="9.994150117333911"><ele>37.0</ele><time>2026-04-19T09:38:05Z</time></trkpt><trkpt lat="45.11160468454327" lon="9.994214353717057"><ele>37.0</ele><time>2026-04-19T09:38:06Z</time></trkpt><trkpt lat="45.11166955689058" lon="9.994275204067705"><ele>37.0</ele><time>2026-04-19T09:38:06.999Z</time></trkpt><trkpt lat="45.11173302286332" lon="9.994337072477604"><ele>37.0</ele><time>2026-04-19T09:38:07.999Z</time></trkpt><trkpt lat="45.11179635831301" lon="9.994398517146188"><ele>37.333333333333336</ele><time>2026-04-19T09:38:08.999Z</time></trkpt><trkpt lat="45.111859911478156" lon="9.99446011944413"><ele>37.66666666666667</ele><time>2026-04-19T09:38:09.999Z</time></trkpt><trkpt lat="45.11192338811518" lon="9.994521543017106"><ele>38.0</ele><time>2026-04-19T09:38:10.999Z</time></trkpt><trkpt lat="45.11198921260784" lon="9.994576957518637"><ele>38.333333333333336</ele><time>2026-04-19T09:38:11.999Z</time></trkpt><trkpt lat="45.11205731747336" lon="9.994625281126247"><ele>38.666666666666664</ele><time>2026-04-19T09:38:12.999Z</time></trkpt><trkpt lat="45.11212888775828" lon="9.994667760012355"><ele>39.0</ele><time>2026-04-19T09:38:13.999Z</time></trkpt><trkpt lat="45.11220429198159" lon="9.99469641628098"><ele>39.0</ele><time>2026-04-19T09:38:14.999Z</time></trkpt><trkpt lat="45.112282205237456" lon="9.994711833457831"><ele>39.0</ele><time>2026-04-19T09:38:15.999Z</time></trkpt><trkpt lat="45.11235855368433" lon="9.994716578317826"><ele>39.0</ele><time>2026-04-19T09:38:16.999Z</time></trkpt><trkpt lat="45.112435350540665" lon="9.994708761734545"><ele>39.0</ele><time>2026-04-19T09:38:17.999Z</time></trkpt><trkpt lat="45.11251178026498" lon="9.994690307586088"><ele>39.0</ele><time>2026-04-19T09:38:18.999Z</time></trkpt><trkpt lat="45.11258753841322" lon="9.99466281139874"><ele>39.0</ele><time>2026-04-19T09:38:19.999Z</time></trkpt><trkpt lat="45.11266062301298" lon="9.994627421264587"><ele>39.166666666666664</ele><time>2026-04-19T09:38:20.999Z</time></trkpt><trkpt lat="45.112732289676075" lon="9.994584308431651"><ele>39.333333333333336</ele><time>2026-04-19T09:38:21.999Z</time></trkpt><trkpt lat="45.11280469119414" lon="9.994538482545352"><ele>39.5</ele><time>2026-04-19T09:38:22.999Z</time></trkpt><trkpt lat="45.112876319476705" lon="9.994491829339077"><ele>39.66666666666667</ele><time>2026-04-19T09:38:23.999Z</time></trkpt><trkpt lat="45.11294818547017" lon="9.994446559362212"><ele>39.833333333333336</ele><time>2026-04-19T09:38:24.999Z</time></trkpt><trkpt lat="45.11302032972937" lon="9.994404826224256"><ele>40.0</ele><time>2026-04-19T09:38:25.999Z</time></trkpt><trkpt lat="45.11309408753761" lon="9.99436433506351"><ele>40.0</ele><time>2026-04-19T09:38:26.999Z</time></trkpt><trkpt lat="45.11316536149136" lon="9.994321589098593"><ele>40.0</ele><time>2026-04-19T09:38:27.999Z</time></trkpt><trkpt lat="45.11323616123864" lon="9.99427516865664"><ele>40.0</ele><time>2026-04-19T09:38:28.999Z</time></trkpt><trkpt lat="45.1133072902326" lon="9.994229963650193"><ele>40.0</ele><time>2026-04-19T09:38:29.999Z</time></trkpt><trkpt lat="45.11337825545767" lon="9.99418543954428"><ele>40.0</ele><time>2026-04-19T09:38:30.999Z</time></trkpt><trkpt lat="45.113450818579594" lon="9.99414404870376"><ele>40.0</ele><time>2026-04-19T09:38:31.999Z</time></trkpt><trkpt lat="45.11352184909509" lon="9.994100774333026"><ele>39.833333333333336</ele><time>2026-04-19T09:38:32.999Z</time></trkpt><trkpt lat="45.113594172469945" lon="9.994058286243561"><ele>39.66666666666667</ele><time>2026-04-19T09:38:33.999Z</time></trkpt><trkpt lat="45.11366423550507" lon="9.994017873540265"><ele>39.5</ele><time>2026-04-19T09:38:34.999Z</time></trkpt><trkpt lat="45.11373575598241" lon="9.993973889972093"><ele>39.333333333333336</ele><time>2026-04-19T09:38:35.999Z</time></trkpt><trkpt lat="45.11380744879959" lon="9.993931162733817"><ele>39.166666666666664</ele><time>2026-04-19T09:38:36.999Z</time></trkpt><trkpt lat="45.11387774022144" lon="9.993888362693019"><ele>39.0</ele><time>2026-04-19T09:38:37.999Z</time></trkpt><trkpt lat="45.11394804035106" lon="9.993847109295809"><ele>39.0</ele><time>2026-04-19T09:38:38.999Z</time></trkpt><trkpt lat="45.11401860017616" lon="9.993805006142965"><ele>39.0</ele><time>2026-04-19T09:38:39.999Z</time></trkpt><trkpt lat="45.11408926833441" lon="9.99376280610619"><ele>39.0</ele><time>2026-04-19T09:38:40.999Z</time></trkpt><trkpt lat="45.11415886901067" lon="9.99371833142192"><ele>39.0</ele><time>2026-04-19T09:38:41.999Z</time></trkpt><trkpt lat="45.1142291303098" lon="9.993674880993382"><ele>39.0</ele><time>2026-04-19T09:38:42.999Z</time></trkpt><trkpt lat="45.1143011859582" lon="9.993635291892915"><ele>39.0</ele><time>2026-04-19T09:38:43.999Z</time></trkpt><trkpt lat="45.11437163156516" lon="9.993592942364353"><ele>39.0</ele><time>2026-04-19T09:38:44.999Z</time></trkpt><trkpt lat="45.114442553803094" lon="9.993550264698811"><ele>39.0</ele><time>2026-04-19T09:38:45.999Z</time></trkpt><trkpt lat="45.11451427859995" lon="9.993511509438392"><ele>39.0</ele><time>2026-04-19T09:38:46.999Z</time></trkpt><trkpt lat="45.11458362639627" lon="9.993466564458043"><ele>39.0</ele><time>2026-04-19T09:38:47.999Z</time></trkpt><trkpt lat="45.11465510046159" lon="9.993423524194021"><ele>39.0</ele><time>2026-04-19T09:38:48.999Z</time></trkpt><trkpt lat="45.114727468592605" lon="9.993383764321619"><ele>39.0</ele><time>2026-04-19T09:38:49.999Z</time></trkpt><trkpt lat="45.11479891251905" lon="9.99334012660456"><ele>39.0</ele><time>2026-04-19T09:38:50.999Z</time></trkpt><trkpt lat="45.11487053302237" lon="9.993295182765952"><ele>39.0</ele><time>2026-04-19T09:38:51.999Z</time></trkpt><trkpt lat="45.1149431628514" lon="9.993250496294188"><ele>39.0</ele><time>2026-04-19T09:38:52.999Z</time></trkpt><trkpt lat="45.115014010518884" lon="9.99320897050591"><ele>39.0</ele><time>2026-04-19T09:38:53.999Z</time></trkpt><trkpt lat="45.11508547820798" lon="9.99316833417869"><ele>39.0</ele><time>2026-04-19T09:38:54.999Z</time></trkpt><trkpt lat="45.11515684326409" lon="9.993120737795335"><ele>39.0</ele><time>2026-04-19T09:38:55.999Z</time></trkpt><trkpt lat="45.11523144344528" lon="9.99308020924352"><ele>39.166666666666664</ele><time>2026-04-19T09:38:56.999Z</time></trkpt><trkpt lat="45.11530242327175" lon="9.993034043029496"><ele>39.333333333333336</ele><time>2026-04-19T09:38:57.999Z</time></trkpt><trkpt lat="45.11537377339001" lon="9.992989512288528"><ele>39.5</ele><time>2026-04-19T09:38:58.999Z</time></trkpt><trkpt lat="45.11544439013503" lon="9.992947205158348"><ele>39.66666666666667</ele><time>2026-04-19T09:38:59.998Z</time></trkpt><trkpt lat="45.11551607272024" lon="9.99290356261316"><ele>39.833333333333336</ele><time>2026-04-19T09:39:00.998Z</time></trkpt><trkpt lat="45.11558949687966" lon="9.992860805003408"><ele>40.0</ele><time>2026-04-19T09:39:01.998Z</time></trkpt><trkpt lat="45.11566144015625" lon="9.992818087124704"><ele>40.0</ele><time>2026-04-19T09:39:02.998Z</time></trkpt><trkpt lat="45.11573323699354" lon="9.992774222882117"><ele>40.0</ele><time>2026-04-19T09:39:03.998Z</time></trkpt><trkpt lat="45.11580446322609" lon="9.992734066619464"><ele>40.0</ele><time>2026-04-19T09:39:04.998Z</time></trkpt><trkpt lat="45.115875599686206" lon="9.992690765742552"><ele>40.0</ele><time>2026-04-19T09:39:05.998Z</time></trkpt><trkpt lat="45.11594645172612" lon="9.992641893400645"><ele>40.0</ele><time>2026-04-19T09:39:06.998Z</time></trkpt><trkpt lat="45.11601799748487" lon="9.99259926956405"><ele>40.0</ele><time>2026-04-19T09:39:07.998Z</time></trkpt><trkpt lat="45.116092257995646" lon="9.99255528584088"><ele>39.833333333333336</ele><time>2026-04-19T09:39:08.998Z</time></trkpt><trkpt lat="45.11616507098149" lon="9.992515884028924"><ele>39.66666666666667</ele><time>2026-04-19T09:39:09.998Z</time></trkpt><trkpt lat="45.11623841334354" lon="9.992474944261925"><ele>39.5</ele><time>2026-04-19T09:39:10.998Z</time></trkpt><trkpt lat="45.116311775414474" lon="9.99243259792503"><ele>39.333333333333336</ele><time>2026-04-19T09:39:11.998Z</time></trkpt><trkpt lat="45.11638376962403" lon="9.99238866066257"><ele>39.166666666666664</ele><time>2026-04-19T09:39:12.998Z</time></trkpt><trkpt lat="45.11645548911355" lon="9.99234372669837"><ele>39.0</ele><time>2026-04-19T09:39:13.998Z</time></trkpt><trkpt lat="45.11652718926928" lon="9.992299254190277"><ele>39.0</ele><time>2026-04-19T09:39:14.998Z</time></trkpt><trkpt lat="45.11659891487992" lon="9.992255671330758"><ele>39.0</ele><time>2026-04-19T09:39:15.998Z</time></trkpt><trkpt lat="45.116671881747585" lon="9.992212980095976"><ele>39.0</ele><time>2026-04-19T09:39:16.998Z</time></trkpt><trkpt lat="45.11674359784562" lon="9.99217154894382"><ele>39.0</ele><time>2026-04-19T09:39:17.998Z</time></trkpt><trkpt lat="45.1168165802862" lon="9.992125537693342"><ele>39.0</ele><time>2026-04-19T09:39:18.998Z</time></trkpt><trkpt lat="45.11688923279655" lon="9.992079743099463"><ele>39.0</ele><time>2026-04-19T09:39:20Z</time></trkpt><trkpt lat="45.116962864643426" lon="9.992035596283886"><ele>39.0</ele><time>2026-04-19T09:39:21Z</time></trkpt><trkpt lat="45.117035552266536" lon="9.991991525355468"><ele>39.0</ele><time>2026-04-19T09:39:22Z</time></trkpt><trkpt lat="45.11711064819037" lon="9.991948539651053"><ele>39.0</ele><time>2026-04-19T09:39:23Z</time></trkpt><trkpt lat="45.117184604768354" lon="9.991907155979527"><ele>39.0</ele><time>2026-04-19T09:39:24Z</time></trkpt><trkpt lat="45.117258411365114" lon="9.991862390704702"><ele>39.0</ele><time>2026-04-19T09:39:25Z</time></trkpt><trkpt lat="45.11733222452695" lon="9.991817120874234"><ele>39.0</ele><time>2026-04-19T09:39:26Z</time></trkpt><trkpt lat="45.11740564751543" lon="9.99177231569827"><ele>39.0</ele><time>2026-04-19T09:39:27Z</time></trkpt><trkpt lat="45.11747967496792" lon="9.991726079661882"><ele>39.0</ele><time>2026-04-19T09:39:28Z</time></trkpt><trkpt lat="45.11755247335251" lon="9.991680762683197"><ele>39.0</ele><time>2026-04-19T09:39:29Z</time></trkpt><trkpt lat="45.11762613140511" lon="9.991635953297525"><ele>39.0</ele><time>2026-04-19T09:39:30Z</time></trkpt><trkpt lat="45.117701781988984" lon="9.991591877426826"><ele>39.0</ele><time>2026-04-19T09:39:31Z</time></trkpt><trkpt lat="45.11777608625559" lon="9.991547378179263"><ele>39.0</ele><time>2026-04-19T09:39:32Z</time></trkpt><trkpt lat="45.117849810788655" lon="9.991502540475349"><ele>39.0</ele><time>2026-04-19T09:39:33Z</time></trkpt><trkpt lat="45.11792238211598" lon="9.991457038124368"><ele>39.0</ele><time>2026-04-19T09:39:34Z</time></trkpt><trkpt lat="45.11799348274355" lon="9.991414246015722"><ele>39.0</ele><time>2026-04-19T09:39:35Z</time></trkpt><trkpt lat="45.118063544909056" lon="9.991377790169844"><ele>39.0</ele><time>2026-04-19T09:39:36Z</time></trkpt><trkpt lat="45.11813349947068" lon="9.991336433505674"><ele>39.0</ele><time>2026-04-19T09:39:37Z</time></trkpt><trkpt lat="45.118199992104934" lon="9.991294126440991"><ele>39.0</ele><time>2026-04-19T09:39:38Z</time></trkpt><trkpt lat="45.11826416877349" lon="9.991251182281015"><ele>38.285714285714285</ele><time>2026-04-19T09:39:39Z</time></trkpt><trkpt lat="45.118326554601026" lon="9.991210012851269"><ele>37.57142857142857</ele><time>2026-04-19T09:39:40Z</time></trkpt><trkpt lat="45.118390403947934" lon="9.991170383855623"><ele>36.857142857142854</ele><time>2026-04-19T09:39:41Z</time></trkpt><trkpt lat="45.11845418137008" lon="9.991131902109073"><ele>36.14285714285714</ele><time>2026-04-19T09:39:42Z</time></trkpt><trkpt lat="45.118518559381805" lon="9.991095697962914"><ele>35.42857142857143</ele><time>2026-04-19T09:39:43Z</time></trkpt><trkpt lat="45.11858385384927" lon="9.991057691095866"><ele>34.71428571428571</ele><time>2026-04-19T09:39:44Z</time></trkpt><trkpt lat="45.11864962467591" lon="9.991016694537016"><ele>34.0</ele><time>2026-04-19T09:39:45Z</time></trkpt><trkpt lat="45.11871195922111" lon="9.99097306598591"><ele>33.99999999999999</ele><time>2026-04-19T09:39:46Z</time></trkpt><trkpt lat="45.118782122112115" lon="9.990930888324462"><ele>34.0</ele><time>2026-04-19T09:39:47Z</time></trkpt><trkpt lat="45.11885024070349" lon="9.990891922751258"><ele>34.0</ele><time>2026-04-19T09:39:48Z</time></trkpt><trkpt lat="45.11891551134917" lon="9.99085072251732"><ele>34.0</ele><time>2026-04-19T09:39:49Z</time></trkpt><trkpt lat="45.1189789408306" lon="9.990814938434616"><ele>34.0</ele><time>2026-04-19T09:39:50Z</time></trkpt><trkpt lat="45.11904152015706" lon="9.990779950300382"><ele>33.99999999999999</ele><time>2026-04-19T09:39:51Z</time></trkpt><trkpt lat="45.119102373063804" lon="9.990744677470092"><ele>34.0</ele><time>2026-04-19T09:39:52Z</time></trkpt><trkpt lat="45.119163521919354" lon="9.990712227572313"><ele>34.285714285714285</ele><time>2026-04-19T09:39:53Z</time></trkpt><trkpt lat="45.11922842057154" lon="9.990668498861282"><ele>34.57142857142857</ele><time>2026-04-19T09:39:54Z</time></trkpt><trkpt lat="45.119293617356504" lon="9.990624785833122"><ele>34.85714285714286</ele><time>2026-04-19T09:39:55Z</time></trkpt><trkpt lat="45.11936119077088" lon="9.990581296607326"><ele>35.14285714285714</ele><time>2026-04-19T09:39:56Z</time></trkpt><trkpt lat="45.11942804457817" lon="9.990544234441057"><ele>35.42857142857143</ele><time>2026-04-19T09:39:57Z</time></trkpt><trkpt lat="45.119494199223624" lon="9.990508567905689"><ele>35.714285714285715</ele><time>2026-04-19T09:39:58Z</time></trkpt><trkpt lat="45.119559768633685" lon="9.990470564637436"><ele>36.0</ele><time>2026-04-19T09:39:59Z</time></trkpt><trkpt lat="45.119626714215336" lon="9.990431824056593"><ele>36.00000000000001</ele><time>2026-04-19T09:40:00Z</time></trkpt><trkpt lat="45.11969374028693" lon="9.990392362219863"><ele>36.0</ele><time>2026-04-19T09:40:01Z</time></trkpt><trkpt lat="45.11975977220128" lon="9.990351313832187"><ele>36.0</ele><time>2026-04-19T09:40:02Z</time></trkpt><trkpt lat="45.1198257737548" lon="9.990309541453087"><ele>36.0</ele><time>2026-04-19T09:40:03Z</time></trkpt><trkpt lat="45.11989330780377" lon="9.990269199652424"><ele>36.0</ele><time>2026-04-19T09:40:04Z</time></trkpt><trkpt lat="45.11995928487223" lon="9.990231976578057"><ele>36.00000000000001</ele><time>2026-04-19T09:40:05Z</time></trkpt><trkpt lat="45.120025711451284" lon="9.990192214500668"><ele>36.0</ele><time>2026-04-19T09:40:06Z</time></trkpt><trkpt lat="45.12009002087546" lon="9.990154758336578"><ele>36.42857142857143</ele><time>2026-04-19T09:40:07Z</time></trkpt><trkpt lat="45.1201546611913" lon="9.99011476490871"><ele>36.85714285714286</ele><time>2026-04-19T09:40:08Z</time></trkpt><trkpt lat="45.12022010143299" lon="9.990076127403906"><ele>37.28571428571429</ele><time>2026-04-19T09:40:09Z</time></trkpt><trkpt lat="45.120282297632336" lon="9.990038385281734"><ele>37.714285714285715</ele><time>2026-04-19T09:40:10Z</time></trkpt><trkpt lat="45.1203469604143" lon="9.98999940051784"><ele>38.14285714285714</ele><time>2026-04-19T09:40:10.999Z</time></trkpt><trkpt lat="45.120410497407576" lon="9.989963065889498"><ele>38.57142857142858</ele><time>2026-04-19T09:40:11.999Z</time></trkpt><trkpt lat="45.12047497750141" lon="9.989923506701"><ele>39.0</ele><time>2026-04-19T09:40:12.999Z</time></trkpt><trkpt lat="45.12053507934951" lon="9.98988354376021"><ele>39.0</ele><time>2026-04-19T09:40:13.999Z</time></trkpt><trkpt lat="45.120595814748064" lon="9.989846131961276"><ele>39.0</ele><time>2026-04-19T09:40:14.999Z</time></trkpt><trkpt lat="45.12065565216394" lon="9.989812544697072"><ele>39.0</ele><time>2026-04-19T09:40:15.999Z</time></trkpt><trkpt lat="45.120766303895095" lon="9.98974272730559"><ele>39.0</ele><time>2026-04-19T09:40:17.999Z</time></trkpt><trkpt lat="45.1208705895834" lon="9.989682899381942"><ele>39.0</ele><time>2026-04-19T09:40:19.999Z</time></trkpt><trkpt lat="45.12097741439766" lon="9.989659026785963"><ele>38.25</ele><time>2026-04-19T09:40:21.999Z</time></trkpt><trkpt lat="45.12108400208707" lon="9.989621122203856"><ele>37.5</ele><time>2026-04-19T09:40:23.999Z</time></trkpt><trkpt lat="45.1211857156771" lon="9.989541614446098"><ele>36.75</ele><time>2026-04-19T09:40:25.999Z</time></trkpt><trkpt lat="45.12129280273832" lon="9.989477583382412"><ele>36.0</ele><time>2026-04-19T09:40:27.999Z</time></trkpt><trkpt lat="45.121395522628085" lon="9.989416238112572"><ele>36.0</ele><time>2026-04-19T09:40:29.999Z</time></trkpt><trkpt lat="45.12148659052136" lon="9.98935203644376"><ele>36.0</ele><time>2026-04-19T09:40:31.999Z</time></trkpt><trkpt lat="45.12157807512121" lon="9.989303797196841"><ele>36.0</ele><time>2026-04-19T09:40:33.999Z</time></trkpt><trkpt lat="45.1216764979537" lon="9.989275488122649"><ele>36.0</ele><time>2026-04-19T09:40:35.999Z</time></trkpt><trkpt lat="45.121779469821426" lon="9.98927408668616"><ele>36.0</ele><time>2026-04-19T09:40:37.999Z</time></trkpt><trkpt lat="45.12188343598566" lon="9.989298861581464"><ele>36.2</ele><time>2026-04-19T09:40:39.999Z</time></trkpt><trkpt lat="45.12199077521019" lon="9.989343995535803"><ele>36.400000000000006</ele><time>2026-04-19T09:40:41.999Z</time></trkpt><trkpt lat="45.122097930014355" lon="9.989392843477258"><ele>36.6</ele><time>2026-04-19T09:40:43.999Z</time></trkpt><trkpt lat="45.122203054349676" lon="9.989445737360535"><ele>36.800000000000004</ele><time>2026-04-19T09:40:45.999Z</time></trkpt><trkpt lat="45.12228975591309" lon="9.989523405392017"><ele>37.0</ele><time>2026-04-19T09:40:47.999Z</time></trkpt><trkpt lat="45.12236203876547" lon="9.98960844182956"><ele>37.6</ele><time>2026-04-19T09:40:49.999Z</time></trkpt><trkpt lat="45.12244184856518" lon="9.989675543210002"><ele>38.2</ele><time>2026-04-19T09:40:51.999Z</time></trkpt><trkpt lat="45.12249875615887" lon="9.98972083753009"><ele>38.8</ele><time>2026-04-19T09:40:54.999Z</time></trkpt><trkpt lat="45.122637741284144" lon="9.989843215809682"><ele>39.4</ele><time>2026-04-19T09:40:55.999Z</time></trkpt><trkpt lat="45.12269234667665" lon="9.989893200286248"><ele>40.0</ele><time>2026-04-19T09:40:56.999Z</time></trkpt><trkpt lat="45.122746502106075" lon="9.989941471107512"><ele>40.0</ele><time>2026-04-19T09:40:57.999Z</time></trkpt><trkpt lat="45.12280444373281" lon="9.989987570573561"><ele>40.0</ele><time>2026-04-19T09:40:58.999Z</time></trkpt><trkpt lat="45.12285745999536" lon="9.99003625738033"><ele>40.0</ele><time>2026-04-19T09:40:59.999Z</time></trkpt><trkpt lat="45.1229602669091" lon="9.990119731810248"><ele>40.0</ele><time>2026-04-19T09:41:01.999Z</time></trkpt><trkpt lat="45.12306078609355" lon="9.99021146276551"><ele>40.0</ele><time>2026-04-19T09:41:03.998Z</time></trkpt><trkpt lat="45.123154696424585" lon="9.990292778423335"><ele>40.0</ele><time>2026-04-19T09:41:05.998Z</time></trkpt><trkpt lat="45.12324354509095" lon="9.990366545088236"><ele>40.0</ele><time>2026-04-19T09:41:07.998Z</time></trkpt><trkpt lat="45.12332863386643" lon="9.9904340409814"><ele>40.0</ele><time>2026-04-19T09:41:09.998Z</time></trkpt><trkpt lat="45.123417460860196" lon="9.990524774329337"><ele>40.0</ele><time>2026-04-19T09:41:11.998Z</time></trkpt><trkpt lat="45.123513350091926" lon="9.990611877302078"><ele>40.0</ele><time>2026-04-19T09:41:13.998Z</time></trkpt><trkpt lat="45.12361859429182" lon="9.990683966634778"><ele>40.0</ele><time>2026-04-19T09:41:15.998Z</time></trkpt><trkpt lat="45.1237136925406" lon="9.990770398350222"><ele>40.0</ele><time>2026-04-19T09:41:17.998Z</time></trkpt><trkpt lat="45.12382220992145" lon="9.990855412023532"><ele>40.0</ele><time>2026-04-19T09:41:19.998Z</time></trkpt><trkpt lat="45.12392459084907" lon="9.99094381821837"><ele>40.0</ele><time>2026-04-19T09:41:21.998Z</time></trkpt><trkpt lat="45.12402505900695" lon="9.991036564888166"><ele>39.75</ele><time>2026-04-19T09:41:23.998Z</time></trkpt><trkpt lat="45.12412717162658" lon="9.99112014770377"><ele>39.5</ele><time>2026-04-19T09:41:26Z</time></trkpt><trkpt lat="45.12422566596162" lon="9.99121078368614"><ele>39.25</ele><time>2026-04-19T09:41:28Z</time></trkpt><trkpt lat="45.124328061384354" lon="9.99129314117329"><ele>39.0</ele><time>2026-04-19T09:41:30Z</time></trkpt><trkpt lat="45.12442806280372" lon="9.991384431286159"><ele>39.0</ele><time>2026-04-19T09:41:32Z</time></trkpt><trkpt lat="45.124530291325115" lon="9.991471126726447"><ele>39.0</ele><time>2026-04-19T09:41:34Z</time></trkpt><trkpt lat="45.124630957894496" lon="9.991554086547247"><ele>39.0</ele><time>2026-04-19T09:41:36Z</time></trkpt><trkpt lat="45.12473084926432" lon="9.991635745226851"><ele>39.0</ele><time>2026-04-19T09:41:38Z</time></trkpt><trkpt lat="45.12482936268653" lon="9.991725831837798"><ele>39.5</ele><time>2026-04-19T09:41:40Z</time></trkpt><trkpt lat="45.12492750094485" lon="9.991817049602108"><ele>40.0</ele><time>2026-04-19T09:41:42Z</time></trkpt><trkpt lat="45.1250301058827" lon="9.991902330670449"><ele>40.5</ele><time>2026-04-19T09:41:44Z</time></trkpt><trkpt lat="45.12513124349313" lon="9.991989988804459"><ele>41.0</ele><time>2026-04-19T09:41:46Z</time></trkpt><trkpt lat="45.125234482882355" lon="9.99207270015075"><ele>41.0</ele><time>2026-04-19T09:41:48Z</time></trkpt><trkpt lat="45.125331436090036" lon="9.992161269524074"><ele>41.0</ele><time>2026-04-19T09:41:50Z</time></trkpt><trkpt lat="45.12543037426286" lon="9.992248255976381"><ele>41.0</ele><time>2026-04-19T09:41:52Z</time></trkpt><trkpt lat="45.12552812264487" lon="9.992336234840705"><ele>41.0</ele><time>2026-04-19T09:41:54Z</time></trkpt><trkpt lat="45.12562994687651" lon="9.992418533157997"><ele>41.0</ele><time>2026-04-19T09:41:56Z</time></trkpt><trkpt lat="45.125726134415935" lon="9.992504683537403"><ele>41.0</ele><time>2026-04-19T09:41:58Z</time></trkpt><trkpt lat="45.12582420108153" lon="9.992589891758337"><ele>41.0</ele><time>2026-04-19T09:42:00Z</time></trkpt><trkpt lat="45.125922262907274" lon="9.992676153558719"><ele>41.0</ele><time>2026-04-19T09:42:02Z</time></trkpt><trkpt lat="45.1260219208973" lon="9.992761672168697"><ele>40.5</ele><time>2026-04-19T09:42:04Z</time></trkpt><trkpt lat="45.12612211157453" lon="9.992842399981233"><ele>40.0</ele><time>2026-04-19T09:42:06Z</time></trkpt><trkpt lat="45.12621816859247" lon="9.992933986019212"><ele>39.5</ele><time>2026-04-19T09:42:08Z</time></trkpt><trkpt lat="45.12631773321604" lon="9.9930202793035"><ele>39.0</ele><time>2026-04-19T09:42:10Z</time></trkpt><trkpt lat="45.12641766551238" lon="9.993100781319626"><ele>39.0</ele><time>2026-04-19T09:42:12Z</time></trkpt><trkpt lat="45.12651665989656" lon="9.993185182643476"><ele>39.0</ele><time>2026-04-19T09:42:13.999Z</time></trkpt><trkpt lat="45.12661646339302" lon="9.99327361242055"><ele>39.0</ele><time>2026-04-19T09:42:15.999Z</time></trkpt><trkpt lat="45.126718207429306" lon="9.993359261121082"><ele>39.0</ele><time>2026-04-19T09:42:17.999Z</time></trkpt><trkpt lat="45.12681679902035" lon="9.993445045211775"><ele>38.5</ele><time>2026-04-19T09:42:19.999Z</time></trkpt><trkpt lat="45.12692020272699" lon="9.993533753501515"><ele>38.0</ele><time>2026-04-19T09:42:21.999Z</time></trkpt><trkpt lat="45.12702205571903" lon="9.993620584101828"><ele>37.5</ele><time>2026-04-19T09:42:23.999Z</time></trkpt><trkpt lat="45.127121944551185" lon="9.993707023691616"><ele>37.0</ele><time>2026-04-19T09:42:25.999Z</time></trkpt><trkpt lat="45.12721663967436" lon="9.993796213078102"><ele>37.0</ele><time>2026-04-19T09:42:27.999Z</time></trkpt><trkpt lat="45.12731491565108" lon="9.993883327514725"><ele>37.0</ele><time>2026-04-19T09:42:29.999Z</time></trkpt><trkpt lat="45.12741463406355" lon="9.993968191897533"><ele>37.0</ele><time>2026-04-19T09:42:31.999Z</time></trkpt><trkpt lat="45.127515575195936" lon="9.994051370798172"><ele>37.0</ele><time>2026-04-19T09:42:33.999Z</time></trkpt><trkpt lat="45.12761918224424" lon="9.994139025620905"><ele>34.75</ele><time>2026-04-19T09:42:35.999Z</time></trkpt><trkpt lat="45.127717930406504" lon="9.994220395460504"><ele>32.5</ele><time>2026-04-19T09:42:37.999Z</time></trkpt><trkpt lat="45.1278197625519" lon="9.994303584972615"><ele>30.25</ele><time>2026-04-19T09:42:39.999Z</time></trkpt><trkpt lat="45.127921422131955" lon="9.994393076857884"><ele>28.0</ele><time>2026-04-19T09:42:41.999Z</time></trkpt><trkpt lat="45.1280212434064" lon="9.99447949431787"><ele>28.0</ele><time>2026-04-19T09:42:43.999Z</time></trkpt><trkpt lat="45.12812107000558" lon="9.994563453915724"><ele>28.0</ele><time>2026-04-19T09:42:45.999Z</time></trkpt><trkpt lat="45.12822109269094" lon="9.994651577059644"><ele>28.0</ele><time>2026-04-19T09:42:47.999Z</time></trkpt><trkpt lat="45.12831734276392" lon="9.994738044845443"><ele>28.0</ele><time>2026-04-19T09:42:49.999Z</time></trkpt><trkpt lat="45.12841734837313" lon="9.994821101085376"><ele>28.0</ele><time>2026-04-19T09:42:51.999Z</time></trkpt><trkpt lat="45.128516954406166" lon="9.994906430703553"><ele>28.0</ele><time>2026-04-19T09:42:53.999Z</time></trkpt><trkpt lat="45.12861310510939" lon="9.99499173651416"><ele>28.0</ele><time>2026-04-19T09:42:55.999Z</time></trkpt><trkpt lat="45.12871082227113" lon="9.995078078241514"><ele>28.0</ele><time>2026-04-19T09:42:57.999Z</time></trkpt><trkpt lat="45.12881354940953" lon="9.995165335926163"><ele>29.25</ele><time>2026-04-19T09:42:59.999Z</time></trkpt><trkpt lat="45.128912493432026" lon="9.995249318751904"><ele>30.5</ele><time>2026-04-19T09:43:01.999Z</time></trkpt><trkpt lat="45.12901273249581" lon="9.995334622216616"><ele>31.75</ele><time>2026-04-19T09:43:03.999Z</time></trkpt><trkpt lat="45.12911258085802" lon="9.995418941301429"><ele>33.0</ele><time>2026-04-19T09:43:05.999Z</time></trkpt><trkpt lat="45.12921106537395" lon="9.995505598361472"><ele>33.5</ele><time>2026-04-19T09:43:07.998Z</time></trkpt><trkpt lat="45.12930771139964" lon="9.995592381297753"><ele>34.0</ele><time>2026-04-19T09:43:09.998Z</time></trkpt><trkpt lat="45.12940676652427" lon="9.995678188921381"><ele>34.5</ele><time>2026-04-19T09:43:11.998Z</time></trkpt><trkpt lat="45.12950620094285" lon="9.995761026942606"><ele>35.0</ele><time>2026-04-19T09:43:13.998Z</time></trkpt><trkpt lat="45.129600023713714" lon="9.995841886337262"><ele>35.6</ele><time>2026-04-19T09:43:15.998Z</time></trkpt><trkpt lat="45.129685584864426" lon="9.995910831380659"><ele>36.2</ele><time>2026-04-19T09:43:17.998Z</time></trkpt><trkpt lat="45.12977004863117" lon="9.995981257075577"><ele>36.8</ele><time>2026-04-19T09:43:19.998Z</time></trkpt><trkpt lat="45.129840047314595" lon="9.996066470377574"><ele>37.4</ele><time>2026-04-19T09:43:21.998Z</time></trkpt><trkpt lat="45.129893124246614" lon="9.996188060393928"><ele>38.0</ele><time>2026-04-19T09:43:23.998Z</time></trkpt><trkpt lat="45.129959198330305" lon="9.996319231545758"><ele>38.0</ele><time>2026-04-19T09:43:25.998Z</time></trkpt><trkpt lat="45.130014633114854" lon="9.996474951247908"><ele>38.0</ele><time>2026-04-19T09:43:27.998Z</time></trkpt><trkpt lat="45.130036062689896" lon="9.996638919445065"><ele>38.0</ele><time>2026-04-19T09:43:29.998Z</time></trkpt><trkpt lat="45.13005692423841" lon="9.996799704883566"><ele>38.0</ele><time>2026-04-19T09:43:32Z</time></trkpt><trkpt lat="45.13007151239162" lon="9.996953611082343"><ele>38.4</ele><time>2026-04-19T09:43:34Z</time></trkpt><trkpt lat="45.13008999827005" lon="9.997104419796482"><ele>38.8</ele><time>2026-04-19T09:43:36Z</time></trkpt><trkpt lat="45.13011895562586" lon="9.997243959164164"><ele>39.2</ele><time>2026-04-19T09:43:38Z</time></trkpt><trkpt lat="45.13015130303059" lon="9.997393170501686"><ele>39.6</ele><time>2026-04-19T09:43:40Z</time></trkpt><trkpt lat="45.130168642209895" lon="9.997563778448214"><ele>40.0</ele><time>2026-04-19T09:43:42Z</time></trkpt><trkpt lat="45.13018567197887" lon="9.997734883995605"><ele>40.0</ele><time>2026-04-19T09:43:44Z</time></trkpt><trkpt lat="45.130202178591475" lon="9.997891592816588"><ele>40.0</ele><time>2026-04-19T09:43:46Z</time></trkpt><trkpt lat="45.130221163705734" lon="9.998045645561893"><ele>40.0</ele><time>2026-04-19T09:43:48Z</time></trkpt><trkpt lat="45.13024123290493" lon="9.998183728726701"><ele>40.0</ele><time>2026-04-19T09:43:50Z</time></trkpt><trkpt lat="45.13025606843068" lon="9.998337373315325"><ele>40.0</ele><time>2026-04-19T09:43:52Z</time></trkpt><trkpt lat="45.130270062555645" lon="9.998503007836675"><ele>40.2</ele><time>2026-04-19T09:43:54Z</time></trkpt><trkpt lat="45.130288123195356" lon="9.998671078104797"><ele>40.4</ele><time>2026-04-19T09:43:56Z</time></trkpt><trkpt lat="45.130304870535156" lon="9.998833891753476"><ele>40.599999999999994</ele><time>2026-04-19T09:43:58Z</time></trkpt><trkpt lat="45.1303232161915" lon="9.9989904475724"><ele>40.8</ele><time>2026-04-19T09:44:00Z</time></trkpt><trkpt lat="45.130331961357925" lon="9.99907922332249"><ele>41.0</ele><time>2026-04-19T09:44:01Z</time></trkpt><trkpt lat="45.1303462208947" lon="9.999246825640743"><ele>41.0</ele><time>2026-04-19T09:44:03Z</time></trkpt><trkpt lat="45.13036213120887" lon="9.999415460657712"><ele>41.0</ele><time>2026-04-19T09:44:05Z</time></trkpt><trkpt lat="45.13037962708259" lon="9.999588558513652"><ele>41.0</ele><time>2026-04-19T09:44:07Z</time></trkpt><trkpt lat="45.13040292562126" lon="9.999754189546735"><ele>41.0</ele><time>2026-04-19T09:44:09Z</time></trkpt><trkpt lat="45.13041909274484" lon="9.999926523457088"><ele>41.0</ele><time>2026-04-19T09:44:11Z</time></trkpt><trkpt lat="45.13044153416744" lon="10.000093648068484"><ele>41.0</ele><time>2026-04-19T09:44:13Z</time></trkpt><trkpt lat="45.13045878884621" lon="10.000257303237994"><ele>41.0</ele><time>2026-04-19T09:44:15Z</time></trkpt><trkpt lat="45.130471410866875" lon="10.000421383632496"><ele>41.0</ele><time>2026-04-19T09:44:17Z</time></trkpt><trkpt lat="45.130462729111066" lon="10.000590386398896"><ele>41.0</ele><time>2026-04-19T09:44:18.999Z</time></trkpt><trkpt lat="45.130421927678164" lon="10.000742662706907"><ele>41.0</ele><time>2026-04-19T09:44:20.999Z</time></trkpt><trkpt lat="45.13037462107741" lon="10.000891294683523"><ele>41.0</ele><time>2026-04-19T09:44:22.999Z</time></trkpt><trkpt lat="45.13032046868358" lon="10.001029968912007"><ele>41.0</ele><time>2026-04-19T09:44:24.999Z</time></trkpt><trkpt lat="45.130264268396154" lon="10.001159369952724"><ele>41.0</ele><time>2026-04-19T09:44:26.999Z</time></trkpt><trkpt lat="45.1302111799048" lon="10.00127061915606"><ele>40.8</ele><time>2026-04-19T09:44:28.999Z</time></trkpt><trkpt lat="45.13011833855095" lon="10.001351958802191"><ele>40.599999999999994</ele><time>2026-04-19T09:44:31.999Z</time></trkpt><trkpt lat="45.130017764169594" lon="10.001365187497148"><ele>40.4</ele><time>2026-04-19T09:44:34.999Z</time></trkpt><trkpt lat="45.129950470316615" lon="10.00129048813601"><ele>40.2</ele><time>2026-04-19T09:44:37.999Z</time></trkpt><trkpt lat="45.129889786929574" lon="10.001245882501083"><ele>40.0</ele><time>2026-04-19T09:44:41.999Z</time></trkpt><trkpt lat="45.129972903716386" lon="10.001376976667972"><ele>40.0</ele><time>2026-04-19T09:56:56.999Z</time></trkpt><trkpt lat="45.129915480447124" lon="10.00133985587365"><ele>40.0</ele><time>2026-04-19T09:58:03.998Z</time></trkpt><trkpt lat="45.12998042357405" lon="10.001343778989916"><ele>40.0</ele><time>2026-04-19T09:58:19Z</time></trkpt><trkpt lat="45.13003851259442" lon="10.001395033530448"><ele>40.0</ele><time>2026-04-19T09:58:21Z</time></trkpt><trkpt lat="45.130093584975256" lon="10.001500835140892"><ele>40.0</ele><time>2026-04-19T09:58:23Z</time></trkpt><trkpt lat="45.13010011494619" lon="10.001663242871896"><ele>40.0</ele><time>2026-04-19T09:58:24Z</time></trkpt><trkpt lat="45.13002296227295" lon="10.001798414952791"><ele>40.0</ele><time>2026-04-19T09:58:26Z</time></trkpt><trkpt lat="45.12999006272882" lon="10.001877998595567"><ele>40.0</ele><time>2026-04-19T09:58:27Z</time></trkpt><trkpt lat="45.12995344297796" lon="10.0019631929673"><ele>40.0</ele><time>2026-04-19T09:58:28Z</time></trkpt><trkpt lat="45.129915843285666" lon="10.002051612879455"><ele>40.0</ele><time>2026-04-19T09:58:29Z</time></trkpt><trkpt lat="45.129883655490275" lon="10.002128488534211"><ele>40.0</ele><time>2026-04-19T09:58:30Z</time></trkpt><trkpt lat="45.1298192859416" lon="10.002286374796505"><ele>40.0</ele><time>2026-04-19T09:58:32Z</time></trkpt><trkpt lat="45.129780821511886" lon="10.002369540724786"><ele>39.57142857142857</ele><time>2026-04-19T09:58:33Z</time></trkpt><trkpt lat="45.12974631886781" lon="10.002456368166706"><ele>39.142857142857146</ele><time>2026-04-19T09:58:34Z</time></trkpt><trkpt lat="45.12971063789688" lon="10.002543377923196"><ele>38.714285714285715</ele><time>2026-04-19T09:58:35Z</time></trkpt><trkpt lat="45.129674462500745" lon="10.002630566118992"><ele>38.285714285714285</ele><time>2026-04-19T09:58:36Z</time></trkpt><trkpt lat="45.12963795545154" lon="10.002719206418377"><ele>37.857142857142854</ele><time>2026-04-19T09:58:37Z</time></trkpt><trkpt lat="45.12959863890813" lon="10.002806278514848"><ele>37.42857142857143</ele><time>2026-04-19T09:58:38Z</time></trkpt><trkpt lat="45.12956240380652" lon="10.002895614223124"><ele>37.0</ele><time>2026-04-19T09:58:39Z</time></trkpt><trkpt lat="45.129523637400816" lon="10.002983078394239"><ele>37.0</ele><time>2026-04-19T09:58:40Z</time></trkpt><trkpt lat="45.12948485605792" lon="10.00307066337184"><ele>37.0</ele><time>2026-04-19T09:58:41Z</time></trkpt><trkpt lat="45.12944514652099" lon="10.003156661258796"><ele>37.0</ele><time>2026-04-19T09:58:42Z</time></trkpt><trkpt lat="45.12940781256576" lon="10.003243854658667"><ele>37.0</ele><time>2026-04-19T09:58:43Z</time></trkpt><trkpt lat="45.12937904184933" lon="10.003335034508224"><ele>37.0</ele><time>2026-04-19T09:58:44Z</time></trkpt><trkpt lat="45.12934309106797" lon="10.00342398288174"><ele>37.0</ele><time>2026-04-19T09:58:45Z</time></trkpt><trkpt lat="45.129308736260896" lon="10.003509912009587"><ele>37.0</ele><time>2026-04-19T09:58:46Z</time></trkpt><trkpt lat="45.12927202922864" lon="10.003595900651657"><ele>37.42857142857143</ele><time>2026-04-19T09:58:46.999Z</time></trkpt><trkpt lat="45.12923655501399" lon="10.003683884614585"><ele>37.857142857142854</ele><time>2026-04-19T09:58:47.999Z</time></trkpt><trkpt lat="45.12920112019575" lon="10.003768768271968"><ele>38.285714285714285</ele><time>2026-04-19T09:58:48.999Z</time></trkpt><trkpt lat="45.12916343464695" lon="10.003856360183526"><ele>38.714285714285715</ele><time>2026-04-19T09:58:49.999Z</time></trkpt><trkpt lat="45.12912874719651" lon="10.003943180019075"><ele>39.142857142857146</ele><time>2026-04-19T09:58:50.999Z</time></trkpt><trkpt lat="45.12909468636319" lon="10.004032453620717"><ele>39.57142857142857</ele><time>2026-04-19T09:58:51.999Z</time></trkpt><trkpt lat="45.129059583681304" lon="10.004120430184322"><ele>40.0</ele><time>2026-04-19T09:58:52.999Z</time></trkpt><trkpt lat="45.129022462080385" lon="10.004206672181555"><ele>39.0</ele><time>2026-04-19T09:58:53.999Z</time></trkpt><trkpt lat="45.12898475046736" lon="10.004293555950095"><ele>38.0</ele><time>2026-04-19T09:58:54.999Z</time></trkpt><trkpt lat="45.12894843816961" lon="10.00438140538993"><ele>37.0</ele><time>2026-04-19T09:58:55.999Z</time></trkpt><trkpt lat="45.128913769809856" lon="10.004471246478829"><ele>36.0</ele><time>2026-04-19T09:58:56.999Z</time></trkpt><trkpt lat="45.12887716461434" lon="10.004560552227224"><ele>35.0</ele><time>2026-04-19T09:58:57.999Z</time></trkpt><trkpt lat="45.128844176046236" lon="10.004649685058231"><ele>34.0</ele><time>2026-04-19T09:58:58.999Z</time></trkpt><trkpt lat="45.128811400603865" lon="10.004741127238649"><ele>33.0</ele><time>2026-04-19T09:58:59.999Z</time></trkpt><trkpt lat="45.128776903819634" lon="10.004833370551538"><ele>33.0</ele><time>2026-04-19T09:59:00.999Z</time></trkpt><trkpt lat="45.12874399175658" lon="10.00492385613343"><ele>33.0</ele><time>2026-04-19T09:59:01.999Z</time></trkpt><trkpt lat="45.12871238997595" lon="10.005015195379077"><ele>33.0</ele><time>2026-04-19T09:59:02.999Z</time></trkpt><trkpt lat="45.12867989382464" lon="10.005107676775527"><ele>33.0</ele><time>2026-04-19T09:59:03.999Z</time></trkpt><trkpt lat="45.128646129609464" lon="10.005198044711564"><ele>33.0</ele><time>2026-04-19T09:59:04.999Z</time></trkpt><trkpt lat="45.12861380177798" lon="10.00529112151592"><ele>33.0</ele><time>2026-04-19T09:59:05.999Z</time></trkpt><trkpt lat="45.128582138816675" lon="10.00538509724483"><ele>33.0</ele><time>2026-04-19T09:59:06.999Z</time></trkpt><trkpt lat="45.128548556034765" lon="10.005479036628365"><ele>33.14285714285714</ele><time>2026-04-19T09:59:07.999Z</time></trkpt><trkpt lat="45.128516700677686" lon="10.005573241393597"><ele>33.285714285714285</ele><time>2026-04-19T09:59:08.999Z</time></trkpt><trkpt lat="45.12848535659938" lon="10.005667030962098"><ele>33.42857142857143</ele><time>2026-04-19T09:59:09.999Z</time></trkpt><trkpt lat="45.128438359271684" lon="10.005750207714796"><ele>33.57142857142857</ele><time>2026-04-19T09:59:10.999Z</time></trkpt><trkpt lat="45.12840593670898" lon="10.005841825568835"><ele>33.714285714285715</ele><time>2026-04-19T09:59:11.999Z</time></trkpt><trkpt lat="45.128371938730375" lon="10.005935382139898"><ele>33.857142857142854</ele><time>2026-04-19T09:59:12.999Z</time></trkpt><trkpt lat="45.128339145194204" lon="10.006029556171105"><ele>34.0</ele><time>2026-04-19T09:59:13.999Z</time></trkpt><trkpt lat="45.12830631367523" lon="10.006123839277217"><ele>34.285714285714285</ele><time>2026-04-19T09:59:14.999Z</time></trkpt><trkpt lat="45.12827483885568" lon="10.006214226320886"><ele>34.57142857142857</ele><time>2026-04-19T09:59:15.999Z</time></trkpt><trkpt lat="45.12824322711352" lon="10.006304438493327"><ele>34.85714285714286</ele><time>2026-04-19T09:59:16.999Z</time></trkpt><trkpt lat="45.12821105052244" lon="10.006395947005052"><ele>35.14285714285714</ele><time>2026-04-19T09:59:17.999Z</time></trkpt><trkpt lat="45.1281789263819" lon="10.00648730635291"><ele>35.42857142857143</ele><time>2026-04-19T09:59:18.999Z</time></trkpt><trkpt lat="45.128148129453635" lon="10.006574891181033"><ele>35.714285714285715</ele><time>2026-04-19T09:59:19.999Z</time></trkpt><trkpt lat="45.128115572056714" lon="10.006667482701603"><ele>36.0</ele><time>2026-04-19T09:59:20.999Z</time></trkpt><trkpt lat="45.128083826531636" lon="10.006759166184814"><ele>36.00000000000001</ele><time>2026-04-19T09:59:21.999Z</time></trkpt><trkpt lat="45.12805278795266" lon="10.006848615190723"><ele>36.0</ele><time>2026-04-19T09:59:22.999Z</time></trkpt><trkpt lat="45.12802067290376" lon="10.006941166434359"><ele>36.0</ele><time>2026-04-19T09:59:23.999Z</time></trkpt><trkpt lat="45.12798985367338" lon="10.007029983301441"><ele>36.0</ele><time>2026-04-19T09:59:24.999Z</time></trkpt><trkpt lat="45.1279579358564" lon="10.00712196615261"><ele>36.0</ele><time>2026-04-19T09:59:25.999Z</time></trkpt><trkpt lat="45.12792781865922" lon="10.00720875985485"><ele>36.00000000000001</ele><time>2026-04-19T09:59:26.999Z</time></trkpt><trkpt lat="45.127897731342756" lon="10.007295467450225"><ele>36.0</ele><time>2026-04-19T09:59:27.999Z</time></trkpt><trkpt lat="45.12786683906383" lon="10.007384494837247"><ele>36.00000000000001</ele><time>2026-04-19T09:59:28.999Z</time></trkpt><trkpt lat="45.12783637392147" lon="10.007472291274837"><ele>36.0</ele><time>2026-04-19T09:59:29.999Z</time></trkpt><trkpt lat="45.12780550779535" lon="10.007561568095635"><ele>36.0</ele><time>2026-04-19T09:59:30.999Z</time></trkpt><trkpt lat="45.127774865286305" lon="10.007651409026026"><ele>36.0</ele><time>2026-04-19T09:59:31.999Z</time></trkpt><trkpt lat="45.127743809976835" lon="10.007743731059497"><ele>36.0</ele><time>2026-04-19T09:59:32.999Z</time></trkpt><trkpt lat="45.127713141892556" lon="10.007834901938258"><ele>36.00000000000001</ele><time>2026-04-19T09:59:33.999Z</time></trkpt><trkpt lat="45.12768167501669" lon="10.007928447489608"><ele>36.0</ele><time>2026-04-19T09:59:34.999Z</time></trkpt><trkpt lat="45.127650456263815" lon="10.008021255409767"><ele>36.00000000000001</ele><time>2026-04-19T09:59:35.999Z</time></trkpt><trkpt lat="45.127619682961054" lon="10.008112459023467"><ele>36.0</ele><time>2026-04-19T09:59:36.999Z</time></trkpt><trkpt lat="45.12758836521669" lon="10.008203479488438"><ele>36.0</ele><time>2026-04-19T09:59:37.999Z</time></trkpt><trkpt lat="45.12755748014023" lon="10.008293242466975"><ele>36.0</ele><time>2026-04-19T09:59:38.999Z</time></trkpt><trkpt lat="45.12752590314741" lon="10.008385016406573"><ele>36.0</ele><time>2026-04-19T09:59:39.999Z</time></trkpt><trkpt lat="45.127494359616264" lon="10.00847669309171"><ele>36.00000000000001</ele><time>2026-04-19T09:59:40.998Z</time></trkpt><trkpt lat="45.12746268255337" lon="10.008570273115497"><ele>36.0</ele><time>2026-04-19T09:59:41.998Z</time></trkpt><trkpt lat="45.12743278777677" lon="10.008663649668842"><ele>36.00000000000001</ele><time>2026-04-19T09:59:42.998Z</time></trkpt><trkpt lat="45.12740438123825" lon="10.008754777054033"><ele>36.0</ele><time>2026-04-19T09:59:43.998Z</time></trkpt><trkpt lat="45.12739031338069" lon="10.008858244801429"><ele>36.0</ele><time>2026-04-19T09:59:44.998Z</time></trkpt><trkpt lat="45.12736056291604" lon="10.008946797729836"><ele>36.0</ele><time>2026-04-19T09:59:45.998Z</time></trkpt><trkpt lat="45.12732993731914" lon="10.009035263720957"><ele>36.0</ele><time>2026-04-19T09:59:46.998Z</time></trkpt><trkpt lat="45.12730280702765" lon="10.009122235536156"><ele>36.00000000000001</ele><time>2026-04-19T09:59:47.998Z</time></trkpt><trkpt lat="45.12727699344871" lon="10.009207309599473"><ele>36.0</ele><time>2026-04-19T09:59:48.998Z</time></trkpt><trkpt lat="45.12721689420791" lon="10.009356348070074"><ele>36.2</ele><time>2026-04-19T09:59:50.998Z</time></trkpt><trkpt lat="45.127136742592086" lon="10.009459414909458"><ele>36.400000000000006</ele><time>2026-04-19T09:59:52.998Z</time></trkpt><trkpt lat="45.12702818886213" lon="10.009536724125567"><ele>36.6</ele><time>2026-04-19T09:59:54.998Z</time></trkpt><trkpt lat="45.1269652013177" lon="10.009436553224903"><ele>36.800000000000004</ele><time>2026-04-19T09:59:55.998Z</time></trkpt><trkpt lat="45.12687599777376" lon="10.009338965920708"><ele>37.0</ele><time>2026-04-19T09:59:57.998Z</time></trkpt><trkpt lat="45.12677799356141" lon="10.009232941628534"><ele>37.0</ele><time>2026-04-19T09:59:59.998Z</time></trkpt><trkpt lat="45.12672745540787" lon="10.0091782929103"><ele>37.0</ele><time>2026-04-19T10:00:00.998Z</time></trkpt><trkpt lat="45.12662479524409" lon="10.009067650999413"><ele>37.0</ele><time>2026-04-19T10:00:02.998Z</time></trkpt><trkpt lat="45.12656808937824" lon="10.009006536296424"><ele>37.0</ele><time>2026-04-19T10:00:03.998Z</time></trkpt><trkpt lat="45.126508034651835" lon="10.00894181236222"><ele>37.0</ele><time>2026-04-19T10:00:04.998Z</time></trkpt><trkpt lat="45.1264485345455" lon="10.008878735661417"><ele>37.0</ele><time>2026-04-19T10:00:05.998Z</time></trkpt><trkpt lat="45.12638484094061" lon="10.0088113719823"><ele>37.285714285714285</ele><time>2026-04-19T10:00:06.998Z</time></trkpt><trkpt lat="45.12632348836948" lon="10.008746484217436"><ele>37.57142857142857</ele><time>2026-04-19T10:00:07.998Z</time></trkpt><trkpt lat="45.126263972311854" lon="10.008683538795406"><ele>37.85714285714286</ele><time>2026-04-19T10:00:08.998Z</time></trkpt><trkpt lat="45.126206020997" lon="10.008622248282906"><ele>38.14285714285714</ele><time>2026-04-19T10:00:09.998Z</time></trkpt><trkpt lat="45.126145869808546" lon="10.008558631133747"><ele>38.42857142857142</ele><time>2026-04-19T10:00:10.998Z</time></trkpt><trkpt lat="45.1260864756192" lon="10.008494730585763"><ele>38.714285714285715</ele><time>2026-04-19T10:00:11.998Z</time></trkpt><trkpt lat="45.12602682481859" lon="10.008431848403223"><ele>39.0</ele><time>2026-04-19T10:00:12.998Z</time></trkpt><trkpt lat="45.1259682694495" lon="10.008370120988829"><ele>38.714285714285715</ele><time>2026-04-19T10:00:13.998Z</time></trkpt><trkpt lat="45.12590961103056" lon="10.008308284944928"><ele>38.42857142857142</ele><time>2026-04-19T10:00:14.998Z</time></trkpt><trkpt lat="45.1258524418004" lon="10.008248018759268"><ele>38.14285714285714</ele><time>2026-04-19T10:00:15.998Z</time></trkpt><trkpt lat="45.12579595112157" lon="10.0081884678861"><ele>37.85714285714286</ele><time>2026-04-19T10:00:16.998Z</time></trkpt><trkpt lat="45.12573924254086" lon="10.008128687308059"><ele>37.57142857142857</ele><time>2026-04-19T10:00:18Z</time></trkpt><trkpt lat="45.12568182532883" lon="10.008068166619841"><ele>37.285714285714285</ele><time>2026-04-19T10:00:19Z</time></trkpt><trkpt lat="45.12562629429951" lon="10.008009756569463"><ele>37.0</ele><time>2026-04-19T10:00:20Z</time></trkpt><trkpt lat="45.12557177539858" lon="10.007952411113981"><ele>36.6</ele><time>2026-04-19T10:00:21Z</time></trkpt><trkpt lat="45.12551797715276" lon="10.007895823687228"><ele>36.2</ele><time>2026-04-19T10:00:22Z</time></trkpt><trkpt lat="45.12546619669921" lon="10.007841358660945"><ele>35.8</ele><time>2026-04-19T10:00:23Z</time></trkpt><trkpt lat="45.12536422540089" lon="10.007734100626395"><ele>35.4</ele><time>2026-04-19T10:00:25Z</time></trkpt><trkpt lat="45.125266296070784" lon="10.007631094121646"><ele>35.0</ele><time>2026-04-19T10:00:27Z</time></trkpt><trkpt lat="45.12516298611282" lon="10.007522789691029"><ele>34.5</ele><time>2026-04-19T10:00:29Z</time></trkpt><trkpt lat="45.12506250894804" lon="10.007417900270669"><ele>34.0</ele><time>2026-04-19T10:00:31Z</time></trkpt><trkpt lat="45.124960124592896" lon="10.007311019908162"><ele>33.5</ele><time>2026-04-19T10:00:33Z</time></trkpt><trkpt lat="45.124909081250244" lon="10.007257352912497"><ele>33.0</ele><time>2026-04-19T10:00:34Z</time></trkpt><trkpt lat="45.12486508781975" lon="10.007060486998995"><ele>34.599999999999994</ele><time>2026-04-19T10:00:36Z</time></trkpt><trkpt lat="45.124779543459915" lon="10.006983172674147"><ele>36.199999999999996</ele><time>2026-04-19T10:00:38Z</time></trkpt><trkpt lat="45.12469917418451" lon="10.006933190307643"><ele>37.8</ele><time>2026-04-19T10:00:40Z</time></trkpt><trkpt lat="45.12462649682163" lon="10.006973572129562"><ele>39.4</ele><time>2026-04-19T10:00:42Z</time></trkpt><trkpt lat="45.12457923223699" lon="10.007079805123613"><ele>41.0</ele><time>2026-04-19T10:00:44Z</time></trkpt><trkpt lat="45.124537925013065" lon="10.007219979397062"><ele>41.0</ele><time>2026-04-19T10:00:46Z</time></trkpt><trkpt lat="45.12446165693469" lon="10.007353183295129"><ele>41.0</ele><time>2026-04-19T10:00:48Z</time></trkpt><trkpt lat="45.124411296069354" lon="10.007514635623407"><ele>41.0</ele><time>2026-04-19T10:00:49.999Z</time></trkpt><trkpt lat="45.12438471263152" lon="10.007599568422481"><ele>41.0</ele><time>2026-04-19T10:00:50.999Z</time></trkpt><trkpt lat="45.12435768427385" lon="10.007685255009589"><ele>41.0</ele><time>2026-04-19T10:00:51.999Z</time></trkpt><trkpt lat="45.12430560588927" lon="10.007846400979803"><ele>40.42857142857142</ele><time>2026-04-19T10:00:53.999Z</time></trkpt><trkpt lat="45.12427778367368" lon="10.007930505622992"><ele>39.857142857142854</ele><time>2026-04-19T10:00:54.999Z</time></trkpt><trkpt lat="45.124264520218134" lon="10.008023434272085"><ele>39.285714285714285</ele><time>2026-04-19T10:00:55.999Z</time></trkpt><trkpt lat="45.12423681956272" lon="10.008107781106464"><ele>38.71428571428571</ele><time>2026-04-19T10:00:56.999Z</time></trkpt><trkpt lat="45.124209787888816" lon="10.00818996191161"><ele>38.14285714285714</ele><time>2026-04-19T10:00:57.999Z</time></trkpt><trkpt lat="45.124167789568645" lon="10.008261682093652"><ele>37.57142857142857</ele><time>2026-04-19T10:00:58.999Z</time></trkpt><trkpt lat="45.12415403568303" lon="10.008357451649756"><ele>37.0</ele><time>2026-04-19T10:00:59.999Z</time></trkpt><trkpt lat="45.124108913639596" lon="10.008435844742875"><ele>36.714285714285715</ele><time>2026-04-19T10:01:00.999Z</time></trkpt><trkpt lat="45.1240781227333" lon="10.008526132893238"><ele>36.42857142857143</ele><time>2026-04-19T10:01:01.999Z</time></trkpt><trkpt lat="45.12404669983653" lon="10.00861538563533"><ele>36.14285714285714</ele><time>2026-04-19T10:01:02.999Z</time></trkpt><trkpt lat="45.12401509190613" lon="10.008707252084617"><ele>35.85714285714286</ele><time>2026-04-19T10:01:03.999Z</time></trkpt><trkpt lat="45.12398427183727" lon="10.00879780349253"><ele>35.57142857142857</ele><time>2026-04-19T10:01:04.999Z</time></trkpt><trkpt lat="45.12395351848004" lon="10.008890040528087"><ele>35.285714285714285</ele><time>2026-04-19T10:01:05.999Z</time></trkpt><trkpt lat="45.12392373718186" lon="10.008980736783206"><ele>35.0</ele><time>2026-04-19T10:01:06.999Z</time></trkpt><trkpt lat="45.12389407692765" lon="10.009071064403864"><ele>35.0</ele><time>2026-04-19T10:01:07.999Z</time></trkpt><trkpt lat="45.12386414018624" lon="10.009162144524238"><ele>35.0</ele><time>2026-04-19T10:01:08.999Z</time></trkpt><trkpt lat="45.12383483953928" lon="10.009250863593087"><ele>35.0</ele><time>2026-04-19T10:01:09.999Z</time></trkpt><trkpt lat="45.12381919124875" lon="10.009350744625555"><ele>35.0</ele><time>2026-04-19T10:01:10.999Z</time></trkpt><trkpt lat="45.12378909470056" lon="10.009440713085167"><ele>35.0</ele><time>2026-04-19T10:01:11.999Z</time></trkpt><trkpt lat="45.12375796391609" lon="10.00952861950008"><ele>35.0</ele><time>2026-04-19T10:01:12.999Z</time></trkpt><trkpt lat="45.12372851694246" lon="10.009619588602613"><ele>35.0</ele><time>2026-04-19T10:01:13.999Z</time></trkpt><trkpt lat="45.123684206245166" lon="10.009699449255583"><ele>35.0</ele><time>2026-04-19T10:01:14.999Z</time></trkpt><trkpt lat="45.12365470274329" lon="10.009787355342574"><ele>35.0</ele><time>2026-04-19T10:01:15.999Z</time></trkpt><trkpt lat="45.123624492006776" lon="10.009877368632578"><ele>35.0</ele><time>2026-04-19T10:01:16.999Z</time></trkpt><trkpt lat="45.123608895759176" lon="10.00997717387216"><ele>35.0</ele><time>2026-04-19T10:01:17.999Z</time></trkpt><trkpt lat="45.123564955869476" lon="10.010055666216362"><ele>35.0</ele><time>2026-04-19T10:01:18.999Z</time></trkpt><trkpt lat="45.12353496456267" lon="10.010145745064904"><ele>35.0</ele><time>2026-04-19T10:01:19.999Z</time></trkpt><trkpt lat="45.12350573529584" lon="10.010233535133024"><ele>35.0</ele><time>2026-04-19T10:01:20.999Z</time></trkpt><trkpt lat="45.12347646270143" lon="10.01032145534268"><ele>34.857142857142854</ele><time>2026-04-19T10:01:21.999Z</time></trkpt><trkpt lat="45.12346144793536" lon="10.010419831649601"><ele>34.714285714285715</ele><time>2026-04-19T10:01:22.999Z</time></trkpt><trkpt lat="45.12343059168436" lon="10.010507858283413"><ele>34.57142857142857</ele><time>2026-04-19T10:01:23.999Z</time></trkpt><trkpt lat="45.12340209424622" lon="10.010594091123359"><ele>34.42857142857143</ele><time>2026-04-19T10:01:24.999Z</time></trkpt><trkpt lat="45.123371743224446" lon="10.01068344981172"><ele>34.285714285714285</ele><time>2026-04-19T10:01:25.999Z</time></trkpt><trkpt lat="45.12334170521576" lon="10.010772316482374"><ele>34.14285714285714</ele><time>2026-04-19T10:01:26.999Z</time></trkpt><trkpt lat="45.123311852972655" lon="10.010858986587468"><ele>34.0</ele><time>2026-04-19T10:01:27.999Z</time></trkpt><trkpt lat="45.12328501000217" lon="10.010941111295566"><ele>33.99999999999999</ele><time>2026-04-19T10:01:28.999Z</time></trkpt><trkpt lat="45.12325807929738" lon="10.011023030422821"><ele>34.0</ele><time>2026-04-19T10:01:29.999Z</time></trkpt><trkpt lat="45.12322947482263" lon="10.011108187437408"><ele>34.0</ele><time>2026-04-19T10:01:30.999Z</time></trkpt><trkpt lat="45.12318737894202" lon="10.011184459173222"><ele>34.0</ele><time>2026-04-19T10:01:31.999Z</time></trkpt><trkpt lat="45.12315829369287" lon="10.011271255511314"><ele>34.0</ele><time>2026-04-19T10:01:32.999Z</time></trkpt><trkpt lat="45.12312886108374" lon="10.011359088441948"><ele>33.99999999999999</ele><time>2026-04-19T10:01:33.999Z</time></trkpt><trkpt lat="45.12309941662545" lon="10.011446956734796"><ele>34.0</ele><time>2026-04-19T10:01:34.999Z</time></trkpt><trkpt lat="45.12306975584857" lon="10.011535530076127"><ele>33.99999999999999</ele><time>2026-04-19T10:01:35.999Z</time></trkpt><trkpt lat="45.12303948847419" lon="10.011625933258127"><ele>34.0</ele><time>2026-04-19T10:01:36.999Z</time></trkpt><trkpt lat="45.1230092470144" lon="10.011716352168861"><ele>34.0</ele><time>2026-04-19T10:01:37.999Z</time></trkpt><trkpt lat="45.122979830936345" lon="10.011804303272143"><ele>34.0</ele><time>2026-04-19T10:01:38.999Z</time></trkpt><trkpt lat="45.122949931897914" lon="10.011893698375534"><ele>34.0</ele><time>2026-04-19T10:01:39.999Z</time></trkpt><trkpt lat="45.12293469425282" lon="10.011992186157562"><ele>33.99999999999999</ele><time>2026-04-19T10:01:40.999Z</time></trkpt><trkpt lat="45.12290546153041" lon="10.012081527480515"><ele>34.0</ele><time>2026-04-19T10:01:41.999Z</time></trkpt><trkpt lat="45.12287448761486" lon="10.012168981298654"><ele>33.99999999999999</ele><time>2026-04-19T10:01:42.999Z</time></trkpt><trkpt lat="45.12284491157143" lon="10.012256638189568"><ele>34.0</ele><time>2026-04-19T10:01:43.998Z</time></trkpt><trkpt lat="45.12281655380117" lon="10.012346568825876"><ele>34.0</ele><time>2026-04-19T10:01:44.998Z</time></trkpt><trkpt lat="45.12278434801433" lon="10.012435182366016"><ele>34.0</ele><time>2026-04-19T10:01:45.998Z</time></trkpt><trkpt lat="45.12275378568174" lon="10.012521715116478"><ele>34.0</ele><time>2026-04-19T10:01:46.998Z</time></trkpt><trkpt lat="45.122704645709625" lon="10.012599991840618"><ele>33.99999999999999</ele><time>2026-04-19T10:01:47.998Z</time></trkpt><trkpt lat="45.12267001869815" lon="10.012686299775472"><ele>34.0</ele><time>2026-04-19T10:01:48.998Z</time></trkpt><trkpt lat="45.12263422660168" lon="10.012773281296719"><ele>33.71428571428571</ele><time>2026-04-19T10:01:49.998Z</time></trkpt><trkpt lat="45.122611590824064" lon="10.012871791166146"><ele>33.42857142857143</ele><time>2026-04-19T10:01:50.998Z</time></trkpt><trkpt lat="45.122573410502305" lon="10.012953448067002"><ele>33.14285714285714</ele><time>2026-04-19T10:01:51.998Z</time></trkpt><trkpt lat="45.122535624148455" lon="10.01303637277586"><ele>32.857142857142854</ele><time>2026-04-19T10:01:52.998Z</time></trkpt><trkpt lat="45.12249760382914" lon="10.013116792500686"><ele>32.57142857142857</ele><time>2026-04-19T10:01:53.998Z</time></trkpt><trkpt lat="45.12244124752853" lon="10.013181628854392"><ele>32.285714285714285</ele><time>2026-04-19T10:01:54.998Z</time></trkpt><trkpt lat="45.122406659729556" lon="10.01326945099899"><ele>32.0</ele><time>2026-04-19T10:01:55.998Z</time></trkpt><trkpt lat="45.12236000885021" lon="10.013347691125695"><ele>32.0</ele><time>2026-04-19T10:01:56.998Z</time></trkpt><trkpt lat="45.12231496717287" lon="10.013422838432854"><ele>31.999999999999996</ele><time>2026-04-19T10:01:57.998Z</time></trkpt><trkpt lat="45.12225665436376" lon="10.013484017128723"><ele>32.0</ele><time>2026-04-19T10:01:58.998Z</time></trkpt><trkpt lat="45.12221019107821" lon="10.013558192755873"><ele>32.0</ele><time>2026-04-19T10:01:59.998Z</time></trkpt><trkpt lat="45.122163856814204" lon="10.013632822690676"><ele>31.999999999999996</ele><time>2026-04-19T10:02:00.998Z</time></trkpt><trkpt lat="45.12213065858214" lon="10.01372292953436"><ele>32.0</ele><time>2026-04-19T10:02:01.998Z</time></trkpt><trkpt lat="45.122082683871234" lon="10.013797281292927"><ele>32.0</ele><time>2026-04-19T10:02:02.998Z</time></trkpt><trkpt lat="45.1220366813586" lon="10.013872093016234"><ele>32.0</ele><time>2026-04-19T10:02:03.998Z</time></trkpt><trkpt lat="45.12197872586341" lon="10.013935867863767"><ele>31.999999999999996</ele><time>2026-04-19T10:02:04.998Z</time></trkpt><trkpt lat="45.12193199761446" lon="10.014008684538759"><ele>32.0</ele><time>2026-04-19T10:02:05.998Z</time></trkpt><trkpt lat="45.12188283450085" lon="10.014085766751965"><ele>32.0</ele><time>2026-04-19T10:02:06.998Z</time></trkpt><trkpt lat="45.12183414825489" lon="10.014162101262425"><ele>31.999999999999996</ele><time>2026-04-19T10:02:07.998Z</time></trkpt><trkpt lat="45.121786169170726" lon="10.014238914815968"><ele>32.0</ele><time>2026-04-19T10:02:08.998Z</time></trkpt><trkpt lat="45.12175213374409" lon="10.014329716706841"><ele>32.0</ele><time>2026-04-19T10:02:09.998Z</time></trkpt><trkpt lat="45.121692888425436" lon="10.014390160409256"><ele>32.285714285714285</ele><time>2026-04-19T10:02:10.998Z</time></trkpt><trkpt lat="45.121646183074006" lon="10.014465888560323"><ele>32.57142857142857</ele><time>2026-04-19T10:02:11.998Z</time></trkpt><trkpt lat="45.121600151646625" lon="10.01454052401498"><ele>32.857142857142854</ele><time>2026-04-19T10:02:12.998Z</time></trkpt><trkpt lat="45.1215531596268" lon="10.014616716961594"><ele>33.14285714285714</ele><time>2026-04-19T10:02:13.998Z</time></trkpt><trkpt lat="45.12150499679663" lon="10.014695930392039"><ele>33.42857142857143</ele><time>2026-04-19T10:02:14.998Z</time></trkpt><trkpt lat="45.12145891176834" lon="10.014774025519223"><ele>33.71428571428571</ele><time>2026-04-19T10:02:15.998Z</time></trkpt><trkpt lat="45.12141422169495" lon="10.014850934965484"><ele>34.0</ele><time>2026-04-19T10:02:16.998Z</time></trkpt><trkpt lat="45.1213688317104" lon="10.014929740100301"><ele>34.285714285714285</ele><time>2026-04-19T10:02:17.998Z</time></trkpt><trkpt lat="45.12133671161457" lon="10.01502253805844"><ele>34.57142857142857</ele><time>2026-04-19T10:02:18.998Z</time></trkpt><trkpt lat="45.12129189143437" lon="10.015100507869484"><ele>34.85714285714286</ele><time>2026-04-19T10:02:19.998Z</time></trkpt><trkpt lat="45.12123562285436" lon="10.015164202960054"><ele>35.14285714285714</ele><time>2026-04-19T10:02:20.998Z</time></trkpt><trkpt lat="45.12119160305734" lon="10.015242825948208"><ele>35.42857142857143</ele><time>2026-04-19T10:02:21.998Z</time></trkpt><trkpt lat="45.121146135200746" lon="10.015324035281932"><ele>35.714285714285715</ele><time>2026-04-19T10:02:23Z</time></trkpt><trkpt lat="45.12110165936695" lon="10.01540347277996"><ele>36.0</ele><time>2026-04-19T10:02:24Z</time></trkpt><trkpt lat="45.12105720042142" lon="10.015483198812134"><ele>36.00000000000001</ele><time>2026-04-19T10:02:25Z</time></trkpt><trkpt lat="45.12101317376753" lon="10.01556332734673"><ele>36.0</ele><time>2026-04-19T10:02:26Z</time></trkpt><trkpt lat="45.120969480041474" lon="10.01564363884519"><ele>36.0</ele><time>2026-04-19T10:02:27Z</time></trkpt><trkpt lat="45.12092529000153" lon="10.015725354491156"><ele>36.0</ele><time>2026-04-19T10:02:28Z</time></trkpt><trkpt lat="45.12088198717168" lon="10.015805429562477"><ele>36.0</ele><time>2026-04-19T10:02:29Z</time></trkpt><trkpt lat="45.12083851830226" lon="10.015885811618865"><ele>36.00000000000001</ele><time>2026-04-19T10:02:30Z</time></trkpt><trkpt lat="45.12079501394264" lon="10.015966259322633"><ele>36.0</ele><time>2026-04-19T10:02:31Z</time></trkpt><trkpt lat="45.12075238150553" lon="10.016045094659255"><ele>35.42857142857143</ele><time>2026-04-19T10:02:32Z</time></trkpt><trkpt lat="45.12070880561865" lon="10.016125674655926"><ele>34.85714285714286</ele><time>2026-04-19T10:02:33Z</time></trkpt><trkpt lat="45.120666136392295" lon="10.016204327537453"><ele>34.285714285714285</ele><time>2026-04-19T10:02:34Z</time></trkpt><trkpt lat="45.120623931105655" lon="10.016287602166573"><ele>33.714285714285715</ele><time>2026-04-19T10:02:35Z</time></trkpt><trkpt lat="45.12058495013585" lon="10.016369721216032"><ele>33.14285714285714</ele><time>2026-04-19T10:02:36Z</time></trkpt><trkpt lat="45.12054692341588" lon="10.016455314974472"><ele>32.57142857142857</ele><time>2026-04-19T10:02:37Z</time></trkpt><trkpt lat="45.12051052596755" lon="10.01653807219897"><ele>32.0</ele><time>2026-04-19T10:02:38Z</time></trkpt><trkpt lat="45.120473081644136" lon="10.016623209733895"><ele>32.285714285714285</ele><time>2026-04-19T10:02:39Z</time></trkpt><trkpt lat="45.120447775563925" lon="10.016718390532644"><ele>32.57142857142857</ele><time>2026-04-19T10:02:40Z</time></trkpt><trkpt lat="45.12041065532201" lon="10.01680416423804"><ele>32.857142857142854</ele><time>2026-04-19T10:02:41Z</time></trkpt><trkpt lat="45.12037270067026" lon="10.016889818627575"><ele>33.14285714285714</ele><time>2026-04-19T10:02:42Z</time></trkpt><trkpt lat="45.120334555091105" lon="10.016976618766495"><ele>33.42857142857143</ele><time>2026-04-19T10:02:43Z</time></trkpt><trkpt lat="45.1202981668228" lon="10.017063311343897"><ele>33.71428571428571</ele><time>2026-04-19T10:02:44Z</time></trkpt><trkpt lat="45.120261803759085" lon="10.0171520370644"><ele>34.0</ele><time>2026-04-19T10:02:45Z</time></trkpt><trkpt lat="45.120225709392024" lon="10.017239405512914"><ele>33.99999999999999</ele><time>2026-04-19T10:02:46Z</time></trkpt><trkpt lat="45.120188190122235" lon="10.017326281313995"><ele>34.0</ele><time>2026-04-19T10:02:47Z</time></trkpt><trkpt lat="45.12015241537586" lon="10.017414048456146"><ele>34.0</ele><time>2026-04-19T10:02:48Z</time></trkpt><trkpt lat="45.12011549971711" lon="10.01749884780069"><ele>34.0</ele><time>2026-04-19T10:02:49Z</time></trkpt><trkpt lat="45.12007580694791" lon="10.017585494749977"><ele>34.0</ele><time>2026-04-19T10:02:50Z</time></trkpt><trkpt lat="45.12003889693509" lon="10.017669899819113"><ele>33.99999999999999</ele><time>2026-04-19T10:02:51Z</time></trkpt><trkpt lat="45.1200027350488" lon="10.01775728222172"><ele>34.0</ele><time>2026-04-19T10:02:52Z</time></trkpt><trkpt lat="45.119966949172856" lon="10.017845262091056"><ele>33.99999999999999</ele><time>2026-04-19T10:02:53Z</time></trkpt><trkpt lat="45.11993022051621" lon="10.017932056504886"><ele>34.0</ele><time>2026-04-19T10:02:53.999Z</time></trkpt><trkpt lat="45.11988998626642" lon="10.018017992012899"><ele>34.0</ele><time>2026-04-19T10:02:54.999Z</time></trkpt><trkpt lat="45.119853369074015" lon="10.018104646763618"><ele>34.0</ele><time>2026-04-19T10:02:55.999Z</time></trkpt><trkpt lat="45.119816165184375" lon="10.01819426283501"><ele>34.0</ele><time>2026-04-19T10:02:56.999Z</time></trkpt><trkpt lat="45.11977963677488" lon="10.018283065087823"><ele>33.99999999999999</ele><time>2026-04-19T10:02:57.999Z</time></trkpt><trkpt lat="45.11974239064167" lon="10.018370004947965"><ele>34.0</ele><time>2026-04-19T10:02:58.999Z</time></trkpt><trkpt lat="45.11970491575701" lon="10.01845806782562"><ele>33.71428571428571</ele><time>2026-04-19T10:02:59.999Z</time></trkpt><trkpt lat="45.11966981068127" lon="10.018546156510432"><ele>33.42857142857143</ele><time>2026-04-19T10:03:00.999Z</time></trkpt><trkpt lat="45.11963249851382" lon="10.01863361965478"><ele>33.14285714285714</ele><time>2026-04-19T10:03:01.999Z</time></trkpt><trkpt lat="45.11959487107171" lon="10.018723053845463"><ele>32.857142857142854</ele><time>2026-04-19T10:03:02.999Z</time></trkpt><trkpt lat="45.119558747788766" lon="10.018811927852047"><ele>32.57142857142857</ele><time>2026-04-19T10:03:03.999Z</time></trkpt><trkpt lat="45.11950698125129" lon="10.018888961870307"><ele>32.285714285714285</ele><time>2026-04-19T10:03:04.999Z</time></trkpt><trkpt lat="45.119484585756446" lon="10.018989319839099"><ele>32.0</ele><time>2026-04-19T10:03:05.999Z</time></trkpt><trkpt lat="45.119443836522485" lon="10.019076795389488"><ele>32.14285714285714</ele><time>2026-04-19T10:03:06.999Z</time></trkpt><trkpt lat="45.119404623174525" lon="10.019164613222895"><ele>32.285714285714285</ele><time>2026-04-19T10:03:07.999Z</time></trkpt><trkpt lat="45.119367846324515" lon="10.019253834543482"><ele>32.42857142857143</ele><time>2026-04-19T10:03:08.999Z</time></trkpt><trkpt lat="45.11932963249071" lon="10.019341008716683"><ele>32.57142857142857</ele><time>2026-04-19T10:03:09.999Z</time></trkpt><trkpt lat="45.11929048747886" lon="10.019428705055292"><ele>32.714285714285715</ele><time>2026-04-19T10:03:10.999Z</time></trkpt><trkpt lat="45.119248470201406" lon="10.019514234030254"><ele>32.857142857142854</ele><time>2026-04-19T10:03:11.999Z</time></trkpt><trkpt lat="45.11920323880049" lon="10.019597335883399"><ele>33.0</ele><time>2026-04-19T10:03:12.999Z</time></trkpt><trkpt lat="45.11915582604715" lon="10.019675156491418"><ele>33.0</ele><time>2026-04-19T10:03:13.999Z</time></trkpt><trkpt lat="45.11910488975429" lon="10.01974981921005"><ele>33.0</ele><time>2026-04-19T10:03:14.999Z</time></trkpt><trkpt lat="45.119057775020856" lon="10.019826563288877"><ele>33.0</ele><time>2026-04-19T10:03:15.999Z</time></trkpt><trkpt lat="45.119007996339455" lon="10.01990270003799"><ele>33.0</ele><time>2026-04-19T10:03:16.999Z</time></trkpt><trkpt lat="45.11895831499881" lon="10.019979505315218"><ele>33.0</ele><time>2026-04-19T10:03:17.999Z</time></trkpt><trkpt lat="45.11890997728266" lon="10.02005244785158"><ele>33.0</ele><time>2026-04-19T10:03:18.999Z</time></trkpt><trkpt lat="45.118858614295966" lon="10.020123544775545"><ele>33.0</ele><time>2026-04-19T10:03:19.999Z</time></trkpt><trkpt lat="45.11880906652859" lon="10.020192650718723"><ele>33.0</ele><time>2026-04-19T10:03:20.999Z</time></trkpt><trkpt lat="45.11875896999531" lon="10.020262975433695"><ele>33.0</ele><time>2026-04-19T10:03:21.999Z</time></trkpt><trkpt lat="45.118711837302065" lon="10.020334576448775"><ele>33.0</ele><time>2026-04-19T10:03:22.999Z</time></trkpt><trkpt lat="45.11866116755676" lon="10.020404894221908"><ele>33.0</ele><time>2026-04-19T10:03:23.999Z</time></trkpt><trkpt lat="45.11861425687198" lon="10.020475322576369"><ele>33.0</ele><time>2026-04-19T10:03:24.999Z</time></trkpt><trkpt lat="45.11856541520022" lon="10.020546192046437"><ele>33.0</ele><time>2026-04-19T10:03:25.999Z</time></trkpt><trkpt lat="45.11851760357697" lon="10.020617217171816"><ele>33.0</ele><time>2026-04-19T10:03:26.999Z</time></trkpt><trkpt lat="45.11847138834417" lon="10.020687742582531"><ele>33.0</ele><time>2026-04-19T10:03:27.999Z</time></trkpt><trkpt lat="45.1184206259509" lon="10.020759079732878"><ele>33.0</ele><time>2026-04-19T10:03:28.999Z</time></trkpt><trkpt lat="45.11837302717149" lon="10.02082992998676"><ele>33.0</ele><time>2026-04-19T10:03:29.999Z</time></trkpt><trkpt lat="45.11832302214221" lon="10.020901148587726"><ele>33.0</ele><time>2026-04-19T10:03:30.999Z</time></trkpt><trkpt lat="45.11827123825374" lon="10.020969913711479"><ele>33.0</ele><time>2026-04-19T10:03:31.999Z</time></trkpt><trkpt lat="45.11821946752718" lon="10.021038109837102"><ele>33.0</ele><time>2026-04-19T10:03:32.999Z</time></trkpt><trkpt lat="45.11816602480776" lon="10.021104358864795"><ele>33.0</ele><time>2026-04-19T10:03:33.999Z</time></trkpt><trkpt lat="45.11811423039989" lon="10.021172831492766"><ele>32.857142857142854</ele><time>2026-04-19T10:03:34.999Z</time></trkpt><trkpt lat="45.11805955857797" lon="10.021235509270856"><ele>32.714285714285715</ele><time>2026-04-19T10:03:35.999Z</time></trkpt><trkpt lat="45.11800479359818" lon="10.02129925728478"><ele>32.57142857142857</ele><time>2026-04-19T10:03:36.999Z</time></trkpt><trkpt lat="45.11795112785808" lon="10.021362257458073"><ele>32.42857142857143</ele><time>2026-04-19T10:03:37.999Z</time></trkpt><trkpt lat="45.11789535236672" lon="10.021425306182735"><ele>32.285714285714285</ele><time>2026-04-19T10:03:38.999Z</time></trkpt><trkpt lat="45.11784089730853" lon="10.021488860648304"><ele>32.14285714285714</ele><time>2026-04-19T10:03:39.999Z</time></trkpt><trkpt lat="45.1177871728799" lon="10.02155245966174"><ele>32.0</ele><time>2026-04-19T10:03:40.999Z</time></trkpt><trkpt lat="45.11773323321201" lon="10.021616237246304"><ele>32.0</ele><time>2026-04-19T10:03:41.999Z</time></trkpt><trkpt lat="45.117679213606635" lon="10.02168075395192"><ele>31.999999999999996</ele><time>2026-04-19T10:03:42.999Z</time></trkpt><trkpt lat="45.11762313926158" lon="10.02174494009315"><ele>32.0</ele><time>2026-04-19T10:03:43.999Z</time></trkpt><trkpt lat="45.117567983687806" lon="10.021807057204587"><ele>32.0</ele><time>2026-04-19T10:03:44.999Z</time></trkpt><trkpt lat="45.11751098477922" lon="10.021869998570379"><ele>31.999999999999996</ele><time>2026-04-19T10:03:45.999Z</time></trkpt><trkpt lat="45.11745803984012" lon="10.021936771258797"><ele>32.0</ele><time>2026-04-19T10:03:46.998Z</time></trkpt><trkpt lat="45.11740263163664" lon="10.02200271984987"><ele>32.0</ele><time>2026-04-19T10:03:47.998Z</time></trkpt><trkpt lat="45.11734542283807" lon="10.0220681028638"><ele>32.0</ele><time>2026-04-19T10:03:48.998Z</time></trkpt><trkpt lat="45.117290426535355" lon="10.02213287507333"><ele>31.999999999999996</ele><time>2026-04-19T10:03:49.998Z</time></trkpt><trkpt lat="45.11723368547468" lon="10.022198105550945"><ele>32.0</ele><time>2026-04-19T10:03:50.998Z</time></trkpt><trkpt lat="45.11717943248787" lon="10.022263897004967"><ele>32.0</ele><time>2026-04-19T10:03:51.998Z</time></trkpt><trkpt lat="45.117123684170046" lon="10.0223291919442"><ele>31.999999999999996</ele><time>2026-04-19T10:03:52.998Z</time></trkpt><trkpt lat="45.117069833853755" lon="10.0223948449054"><ele>32.0</ele><time>2026-04-19T10:03:53.998Z</time></trkpt><trkpt lat="45.11701591494246" lon="10.02246136125015"><ele>32.0</ele><time>2026-04-19T10:03:54.998Z</time></trkpt><trkpt lat="45.11696338883378" lon="10.022531899422127"><ele>32.14285714285714</ele><time>2026-04-19T10:03:55.998Z</time></trkpt><trkpt lat="45.11691161327226" lon="10.022606007557737"><ele>32.285714285714285</ele><time>2026-04-19T10:03:56.998Z</time></trkpt><trkpt lat="45.11686258930462" lon="10.022684240289612"><ele>32.42857142857143</ele><time>2026-04-19T10:03:57.998Z</time></trkpt><trkpt lat="45.11680505132317" lon="10.022747806292166"><ele>32.57142857142857</ele><time>2026-04-19T10:03:58.998Z</time></trkpt><trkpt lat="45.1167601093487" lon="10.022826100410494"><ele>32.714285714285715</ele><time>2026-04-19T10:03:59.998Z</time></trkpt><trkpt lat="45.11671605853272" lon="10.02290506782273"><ele>32.857142857142854</ele><time>2026-04-19T10:04:00.998Z</time></trkpt><trkpt lat="45.11667182496636" lon="10.022984556954816"><ele>33.0</ele><time>2026-04-19T10:04:01.998Z</time></trkpt><trkpt lat="45.116628747697696" lon="10.023061968196656"><ele>33.0</ele><time>2026-04-19T10:04:02.998Z</time></trkpt><trkpt lat="45.116585588418005" lon="10.02313952680463"><ele>33.0</ele><time>2026-04-19T10:04:03.998Z</time></trkpt><trkpt lat="45.116542722542036" lon="10.023216558161796"><ele>33.0</ele><time>2026-04-19T10:04:04.998Z</time></trkpt><trkpt lat="45.116502334207205" lon="10.023291696385145"><ele>33.0</ele><time>2026-04-19T10:04:05.998Z</time></trkpt><trkpt lat="45.11646116577873" lon="10.023370832794788"><ele>33.0</ele><time>2026-04-19T10:04:06.998Z</time></trkpt><trkpt lat="45.11642158747799" lon="10.023452599564184"><ele>33.0</ele><time>2026-04-19T10:04:07.998Z</time></trkpt><trkpt lat="45.11638275221567" lon="10.02353473051197"><ele>33.0</ele><time>2026-04-19T10:04:08.998Z</time></trkpt><trkpt lat="45.116345202117905" lon="10.02362166292522"><ele>32.857142857142854</ele><time>2026-04-19T10:04:09.998Z</time></trkpt><trkpt lat="45.116322126520316" lon="10.023722241685142"><ele>32.714285714285715</ele><time>2026-04-19T10:04:10.998Z</time></trkpt><trkpt lat="45.11628599264621" lon="10.023807862186025"><ele>32.57142857142857</ele><time>2026-04-19T10:04:11.998Z</time></trkpt><trkpt lat="45.11625233737411" lon="10.02389870464202"><ele>32.42857142857143</ele><time>2026-04-19T10:04:12.998Z</time></trkpt><trkpt lat="45.11621979418335" lon="10.023992075559384"><ele>32.285714285714285</ele><time>2026-04-19T10:04:13.998Z</time></trkpt><trkpt lat="45.11618717519225" lon="10.0240828767759"><ele>32.14285714285714</ele><time>2026-04-19T10:04:14.998Z</time></trkpt><trkpt lat="45.11613957907354" lon="10.024163048370513"><ele>32.0</ele><time>2026-04-19T10:04:15.998Z</time></trkpt><trkpt lat="45.116106338115955" lon="10.024252531905194"><ele>32.0</ele><time>2026-04-19T10:04:16.998Z</time></trkpt><trkpt lat="45.11607377090046" lon="10.024340201783486"><ele>31.999999999999996</ele><time>2026-04-19T10:04:17.998Z</time></trkpt><trkpt lat="45.11605518816267" lon="10.02443950748388"><ele>32.0</ele><time>2026-04-19T10:04:18.998Z</time></trkpt><trkpt lat="45.11600866935479" lon="10.024515452881573"><ele>32.0</ele><time>2026-04-19T10:04:19.998Z</time></trkpt><trkpt lat="45.1159903789677" lon="10.024614589130085"><ele>31.999999999999996</ele><time>2026-04-19T10:04:20.998Z</time></trkpt><trkpt lat="45.11595668254906" lon="10.0247001285665"><ele>32.0</ele><time>2026-04-19T10:04:21.998Z</time></trkpt><trkpt lat="45.11590794869096" lon="10.024775884072776"><ele>32.0</ele><time>2026-04-19T10:04:22.998Z</time></trkpt><trkpt lat="45.11588405216276" lon="10.024873241411147"><ele>32.0</ele><time>2026-04-19T10:04:23.998Z</time></trkpt><trkpt lat="45.11584041134922" lon="10.02495424356867"><ele>31.999999999999996</ele><time>2026-04-19T10:04:24.998Z</time></trkpt><trkpt lat="45.11578607092533" lon="10.025021809998044"><ele>32.0</ele><time>2026-04-19T10:04:25.998Z</time></trkpt><trkpt lat="45.11572468462288" lon="10.025079744479353"><ele>32.0</ele><time>2026-04-19T10:04:26.998Z</time></trkpt><trkpt lat="45.115658256453216" lon="10.025126740430466"><ele>31.999999999999996</ele><time>2026-04-19T10:04:27.998Z</time></trkpt><trkpt lat="45.115589544085125" lon="10.02516410841406"><ele>32.0</ele><time>2026-04-19T10:04:29Z</time></trkpt><trkpt lat="45.11551893717419" lon="10.02519186787576"><ele>32.0</ele><time>2026-04-19T10:04:30Z</time></trkpt><trkpt lat="45.115446387858526" lon="10.025219396434398"><ele>31.857142857142854</ele><time>2026-04-19T10:04:31Z</time></trkpt><trkpt lat="45.11537559151793" lon="10.025254945881343"><ele>31.71428571428571</ele><time>2026-04-19T10:04:32Z</time></trkpt><trkpt lat="45.11530333779025" lon="10.02528034848892"><ele>31.57142857142857</ele><time>2026-04-19T10:04:33Z</time></trkpt><trkpt lat="45.1152319247198" lon="10.025305152131573"><ele>31.42857142857143</ele><time>2026-04-19T10:04:34Z</time></trkpt><trkpt lat="45.115161300498" lon="10.025329487837563"><ele>31.28571428571429</ele><time>2026-04-19T10:04:35Z</time></trkpt><trkpt lat="45.11509090557385" lon="10.025357424720141"><ele>31.142857142857146</ele><time>2026-04-19T10:04:36Z</time></trkpt><trkpt lat="45.11501925966151" lon="10.025387487284526"><ele>31.0</ele><time>2026-04-19T10:04:37Z</time></trkpt><trkpt lat="45.11494656061092" lon="10.025418526293876"><ele>31.0</ele><time>2026-04-19T10:04:38Z</time></trkpt><trkpt lat="45.11487523305573" lon="10.025444614776372"><ele>31.000000000000004</ele><time>2026-04-19T10:04:39Z</time></trkpt><trkpt lat="45.11480437870112" lon="10.025470481819967"><ele>31.0</ele><time>2026-04-19T10:04:40Z</time></trkpt><trkpt lat="45.11473287317088" lon="10.02549721216201"><ele>31.0</ele><time>2026-04-19T10:04:41Z</time></trkpt><trkpt lat="45.11466165218354" lon="10.025525542670538"><ele>31.000000000000004</ele><time>2026-04-19T10:04:42Z</time></trkpt><trkpt lat="45.114590694081365" lon="10.025550204123443"><ele>31.0</ele><time>2026-04-19T10:04:43Z</time></trkpt><trkpt lat="45.114518097257914" lon="10.025572641459638"><ele>31.0</ele><time>2026-04-19T10:04:44Z</time></trkpt><trkpt lat="45.11444703416825" lon="10.025598107470383"><ele>31.0</ele><time>2026-04-19T10:04:45Z</time></trkpt><trkpt lat="45.114373974815464" lon="10.025621076634085"><ele>31.000000000000004</ele><time>2026-04-19T10:04:46Z</time></trkpt><trkpt lat="45.11430232321817" lon="10.025640819270585"><ele>31.0</ele><time>2026-04-19T10:04:47Z</time></trkpt><trkpt lat="45.11423073504698" lon="10.025664239936097"><ele>31.0</ele><time>2026-04-19T10:04:48Z</time></trkpt><trkpt lat="45.114159091353564" lon="10.025688752660837"><ele>31.000000000000004</ele><time>2026-04-19T10:04:49Z</time></trkpt><trkpt lat="45.11408595626835" lon="10.025712824125858"><ele>31.0</ele><time>2026-04-19T10:04:50Z</time></trkpt><trkpt lat="45.11401449320406" lon="10.025737452702822"><ele>31.0</ele><time>2026-04-19T10:04:51Z</time></trkpt><trkpt lat="45.113943646955434" lon="10.025757250832578"><ele>31.28571428571429</ele><time>2026-04-19T10:04:52Z</time></trkpt><trkpt lat="45.113871962044136" lon="10.025780943404907"><ele>31.571428571428577</ele><time>2026-04-19T10:04:53Z</time></trkpt><trkpt lat="45.11380013497431" lon="10.025802634101039"><ele>31.857142857142858</ele><time>2026-04-19T10:04:54Z</time></trkpt><trkpt lat="45.11372859566024" lon="10.025822499555579"><ele>32.142857142857146</ele><time>2026-04-19T10:04:55Z</time></trkpt><trkpt lat="45.113659766057104" lon="10.025845364219679"><ele>32.42857142857143</ele><time>2026-04-19T10:04:56Z</time></trkpt><trkpt lat="45.11359055323221" lon="10.025871320684233"><ele>32.714285714285715</ele><time>2026-04-19T10:04:57Z</time></trkpt><trkpt lat="45.11352136075966" lon="10.025894040874304"><ele>33.0</ele><time>2026-04-19T10:04:58Z</time></trkpt><trkpt lat="45.11344781446339" lon="10.025914927774926"><ele>33.0</ele><time>2026-04-19T10:04:58.999Z</time></trkpt><trkpt lat="45.1133726826385" lon="10.025933409012467"><ele>33.0</ele><time>2026-04-19T10:04:59.999Z</time></trkpt><trkpt lat="45.11330063483858" lon="10.025955984185275"><ele>33.0</ele><time>2026-04-19T10:05:00.999Z</time></trkpt><trkpt lat="45.113229245935635" lon="10.025980144760377"><ele>33.0</ele><time>2026-04-19T10:05:01.999Z</time></trkpt><trkpt lat="45.11315633058148" lon="10.026005167734015"><ele>33.0</ele><time>2026-04-19T10:05:02.999Z</time></trkpt><trkpt lat="45.11308529182504" lon="10.026028746808972"><ele>33.0</ele><time>2026-04-19T10:05:03.999Z</time></trkpt><trkpt lat="45.11301412617435" lon="10.026051648430519"><ele>33.0</ele><time>2026-04-19T10:05:04.999Z</time></trkpt><trkpt lat="45.11294398446972" lon="10.026076875980658"><ele>32.857142857142854</ele><time>2026-04-19T10:05:05.999Z</time></trkpt><trkpt lat="45.11287391515257" lon="10.026101044674867"><ele>32.714285714285715</ele><time>2026-04-19T10:05:06.999Z</time></trkpt><trkpt lat="45.11280564684603" lon="10.026128917002211"><ele>32.57142857142857</ele><time>2026-04-19T10:05:07.999Z</time></trkpt><trkpt lat="45.11273585313257" lon="10.026159556830407"><ele>32.42857142857143</ele><time>2026-04-19T10:05:08.999Z</time></trkpt><trkpt lat="45.11266890808708" lon="10.026189188758817"><ele>32.285714285714285</ele><time>2026-04-19T10:05:09.999Z</time></trkpt><trkpt lat="45.11259940077809" lon="10.026217117028045"><ele>32.14285714285714</ele><time>2026-04-19T10:05:10.999Z</time></trkpt><trkpt lat="45.11253046176763" lon="10.026251058205085"><ele>32.0</ele><time>2026-04-19T10:05:11.999Z</time></trkpt><trkpt lat="45.11246154935393" lon="10.026287810412676"><ele>32.0</ele><time>2026-04-19T10:05:12.999Z</time></trkpt><trkpt lat="45.11239278504354" lon="10.026323289542253"><ele>31.999999999999996</ele><time>2026-04-19T10:05:13.999Z</time></trkpt><trkpt lat="45.11232408400384" lon="10.026361716205631"><ele>32.0</ele><time>2026-04-19T10:05:14.999Z</time></trkpt><trkpt lat="45.11225408290382" lon="10.026401007253735"><ele>32.0</ele><time>2026-04-19T10:05:15.999Z</time></trkpt><trkpt lat="45.11218569260907" lon="10.026441126849033"><ele>31.999999999999996</ele><time>2026-04-19T10:05:16.999Z</time></trkpt><trkpt lat="45.11211617433467" lon="10.026477737771204"><ele>32.0</ele><time>2026-04-19T10:05:17.999Z</time></trkpt><trkpt lat="45.112047143610404" lon="10.026514274507443"><ele>32.0</ele><time>2026-04-19T10:05:18.999Z</time></trkpt><trkpt lat="45.11197754707597" lon="10.026553230805701"><ele>32.0</ele><time>2026-04-19T10:05:19.999Z</time></trkpt><trkpt lat="45.1119093878402" lon="10.02659368883427"><ele>31.999999999999996</ele><time>2026-04-19T10:05:20.999Z</time></trkpt><trkpt lat="45.11184029489897" lon="10.02663330800297"><ele>32.0</ele><time>2026-04-19T10:05:21.999Z</time></trkpt><trkpt lat="45.11177118103269" lon="10.026671405492797"><ele>32.0</ele><time>2026-04-19T10:05:22.999Z</time></trkpt><trkpt lat="45.111703583188245" lon="10.026709898223356"><ele>31.999999999999996</ele><time>2026-04-19T10:05:23.999Z</time></trkpt><trkpt lat="45.111634974363454" lon="10.026749447609209"><ele>32.0</ele><time>2026-04-19T10:05:24.999Z</time></trkpt><trkpt lat="45.111565453080324" lon="10.026787988110469"><ele>32.0</ele><time>2026-04-19T10:05:25.999Z</time></trkpt><trkpt lat="45.11149516752229" lon="10.026826413722501"><ele>32.5</ele><time>2026-04-19T10:05:26.999Z</time></trkpt><trkpt lat="45.11142501326526" lon="10.026863939196772"><ele>33.0</ele><time>2026-04-19T10:05:27.999Z</time></trkpt><trkpt lat="45.11135617177838" lon="10.026902230626769"><ele>33.5</ele><time>2026-04-19T10:05:28.999Z</time></trkpt><trkpt lat="45.11128652910135" lon="10.02694342585676"><ele>34.0</ele><time>2026-04-19T10:05:29.999Z</time></trkpt><trkpt lat="45.111216375161156" lon="10.026983164971597"><ele>34.5</ele><time>2026-04-19T10:05:30.999Z</time></trkpt><trkpt lat="45.11114064948299" lon="10.027000564006366"><ele>35.0</ele><time>2026-04-19T10:05:31.999Z</time></trkpt><trkpt lat="45.11107143946054" lon="10.027036983054929"><ele>35.0</ele><time>2026-04-19T10:05:32.999Z</time></trkpt><trkpt lat="45.111000369944804" lon="10.027074380581258"><ele>35.0</ele><time>2026-04-19T10:05:33.999Z</time></trkpt><trkpt lat="45.11093094186965" lon="10.027110247087444"><ele>35.0</ele><time>2026-04-19T10:05:34.999Z</time></trkpt><trkpt lat="45.1108608354048" lon="10.027146358152363"><ele>35.0</ele><time>2026-04-19T10:05:35.999Z</time></trkpt><trkpt lat="45.110791465046276" lon="10.02718033883656"><ele>35.0</ele><time>2026-04-19T10:05:36.999Z</time></trkpt><trkpt lat="45.110720891782556" lon="10.02721317005069"><ele>35.0</ele><time>2026-04-19T10:05:37.999Z</time></trkpt><trkpt lat="45.110649644605104" lon="10.027244847080437"><ele>35.0</ele><time>2026-04-19T10:05:38.999Z</time></trkpt><trkpt lat="45.11058279940813" lon="10.02729693379376"><ele>34.666666666666664</ele><time>2026-04-19T10:05:39.999Z</time></trkpt><trkpt lat="45.11050836439893" lon="10.027320529695583"><ele>34.33333333333333</ele><time>2026-04-19T10:05:40.999Z</time></trkpt><trkpt lat="45.11043326582953" lon="10.027346911058682"><ele>34.0</ele><time>2026-04-19T10:05:41.999Z</time></trkpt><trkpt lat="45.110359842684026" lon="10.027370081547732"><ele>33.666666666666664</ele><time>2026-04-19T10:05:42.999Z</time></trkpt><trkpt lat="45.110286098917456" lon="10.027395596354838"><ele>33.333333333333336</ele><time>2026-04-19T10:05:43.999Z</time></trkpt><trkpt lat="45.11021137700426" lon="10.027420522560229"><ele>33.0</ele><time>2026-04-19T10:05:44.999Z</time></trkpt><trkpt lat="45.11013689030406" lon="10.027446307657952"><ele>33.0</ele><time>2026-04-19T10:05:45.999Z</time></trkpt><trkpt lat="45.11006249596344" lon="10.027469884357911"><ele>33.0</ele><time>2026-04-19T10:05:46.999Z</time></trkpt><trkpt lat="45.10998690371438" lon="10.027493694134332"><ele>33.0</ele><time>2026-04-19T10:05:47.999Z</time></trkpt><trkpt lat="45.10991305349536" lon="10.027519650899212"><ele>33.0</ele><time>2026-04-19T10:05:48.999Z</time></trkpt><trkpt lat="45.10984030834564" lon="10.027545809239301"><ele>33.0</ele><time>2026-04-19T10:05:49.999Z</time></trkpt><trkpt lat="45.109765440719414" lon="10.02757257801161"><ele>33.0</ele><time>2026-04-19T10:05:50.999Z</time></trkpt><trkpt lat="45.10969104533031" lon="10.027597671017615"><ele>32.833333333333336</ele><time>2026-04-19T10:05:51.999Z</time></trkpt><trkpt lat="45.10961580403307" lon="10.027622854373869"><ele>32.666666666666664</ele><time>2026-04-19T10:05:52.998Z</time></trkpt><trkpt lat="45.109542508213416" lon="10.027647163719578"><ele>32.5</ele><time>2026-04-19T10:05:53.998Z</time></trkpt><trkpt lat="45.109466639102706" lon="10.027672626959083"><ele>32.33333333333333</ele><time>2026-04-19T10:05:54.998Z</time></trkpt><trkpt lat="45.10939069647761" lon="10.027696455277962"><ele>32.166666666666664</ele><time>2026-04-19T10:05:55.998Z</time></trkpt><trkpt lat="45.109317403485875" lon="10.027725471546105"><ele>32.0</ele><time>2026-04-19T10:05:56.998Z</time></trkpt><trkpt lat="45.10924140530939" lon="10.027748135590251"><ele>31.999999999999996</ele><time>2026-04-19T10:05:57.998Z</time></trkpt><trkpt lat="45.109165762436554" lon="10.027773131386365"><ele>32.0</ele><time>2026-04-19T10:05:58.998Z</time></trkpt><trkpt lat="45.109090365432486" lon="10.027797022928889"><ele>32.0</ele><time>2026-04-19T10:05:59.998Z</time></trkpt><trkpt lat="45.10901398449031" lon="10.027819367870363"><ele>32.0</ele><time>2026-04-19T10:06:00.998Z</time></trkpt><trkpt lat="45.10893896791115" lon="10.027844836158032"><ele>31.999999999999996</ele><time>2026-04-19T10:06:01.998Z</time></trkpt><trkpt lat="45.10886505022962" lon="10.02786848689603"><ele>32.0</ele><time>2026-04-19T10:06:02.998Z</time></trkpt><trkpt lat="45.10879050501473" lon="10.027891022427397"><ele>32.166666666666664</ele><time>2026-04-19T10:06:03.998Z</time></trkpt><trkpt lat="45.10871581363675" lon="10.027914259555246"><ele>32.33333333333333</ele><time>2026-04-19T10:06:04.998Z</time></trkpt><trkpt lat="45.10864088605259" lon="10.027937761377949"><ele>32.5</ele><time>2026-04-19T10:06:05.998Z</time></trkpt><trkpt lat="45.10856588853088" lon="10.027955456594682"><ele>32.666666666666664</ele><time>2026-04-19T10:06:06.998Z</time></trkpt><trkpt lat="45.10849095183877" lon="10.027977258201426"><ele>32.833333333333336</ele><time>2026-04-19T10:06:07.998Z</time></trkpt><trkpt lat="45.108416096910794" lon="10.027992888842778"><ele>33.0</ele><time>2026-04-19T10:06:08.998Z</time></trkpt><trkpt lat="45.1083390306248" lon="10.02800096342855"><ele>33.0</ele><time>2026-04-19T10:06:09.998Z</time></trkpt><trkpt lat="45.10826343582809" lon="10.028004850556098"><ele>33.0</ele><time>2026-04-19T10:06:10.998Z</time></trkpt><trkpt lat="45.10818649566474" lon="10.028003623910273"><ele>33.0</ele><time>2026-04-19T10:06:11.998Z</time></trkpt><trkpt lat="45.10810771154901" lon="10.028002055286986"><ele>33.0</ele><time>2026-04-19T10:06:12.998Z</time></trkpt><trkpt lat="45.108030649404064" lon="10.028000647887113"><ele>33.0</ele><time>2026-04-19T10:06:13.998Z</time></trkpt><trkpt lat="45.10795262710719" lon="10.027997045748107"><ele>33.0</ele><time>2026-04-19T10:06:14.998Z</time></trkpt><trkpt lat="45.107873374020386" lon="10.027993524700486"><ele>32.833333333333336</ele><time>2026-04-19T10:06:15.998Z</time></trkpt><trkpt lat="45.1077967417887" lon="10.027989143345778"><ele>32.666666666666664</ele><time>2026-04-19T10:06:16.998Z</time></trkpt><trkpt lat="45.10771931445959" lon="10.027983782377792"><ele>32.5</ele><time>2026-04-19T10:06:17.998Z</time></trkpt><trkpt lat="45.10764073545507" lon="10.027981058820075"><ele>32.33333333333333</ele><time>2026-04-19T10:06:18.998Z</time></trkpt><trkpt lat="45.10756168088073" lon="10.027978255375329"><ele>32.166666666666664</ele><time>2026-04-19T10:06:19.998Z</time></trkpt><trkpt lat="45.107481786789954" lon="10.027978069476891"><ele>32.0</ele><time>2026-04-19T10:06:20.998Z</time></trkpt><trkpt lat="45.10740270163616" lon="10.02797810502964"><ele>32.5</ele><time>2026-04-19T10:06:21.998Z</time></trkpt><trkpt lat="45.10732450199673" lon="10.027978504900284"><ele>33.0</ele><time>2026-04-19T10:06:22.998Z</time></trkpt><trkpt lat="45.107242439037144" lon="10.0279766008695"><ele>33.5</ele><time>2026-04-19T10:06:23.998Z</time></trkpt><trkpt lat="45.10716727721173" lon="10.027973185527983"><ele>34.0</ele><time>2026-04-19T10:06:24.998Z</time></trkpt><trkpt lat="45.10708723862148" lon="10.027972104332502"><ele>34.5</ele><time>2026-04-19T10:06:25.998Z</time></trkpt><trkpt lat="45.107007823421235" lon="10.027969653021694"><ele>35.0</ele><time>2026-04-19T10:06:26.998Z</time></trkpt><trkpt lat="45.106929806981334" lon="10.027965280057561"><ele>35.0</ele><time>2026-04-19T10:06:27.998Z</time></trkpt><trkpt lat="45.10685052328148" lon="10.027961816646467"><ele>35.0</ele><time>2026-04-19T10:06:28.998Z</time></trkpt><trkpt lat="45.106771250366215" lon="10.027959847646903"><ele>35.0</ele><time>2026-04-19T10:06:29.998Z</time></trkpt><trkpt lat="45.10669082395753" lon="10.027958564746722"><ele>35.0</ele><time>2026-04-19T10:06:30.998Z</time></trkpt><trkpt lat="45.106614161009816" lon="10.027957399249534"><ele>35.0</ele><time>2026-04-19T10:06:31.998Z</time></trkpt><trkpt lat="45.10653517791886" lon="10.027956949304112"><ele>35.0</ele><time>2026-04-19T10:06:32.998Z</time></trkpt><trkpt lat="45.10645678916722" lon="10.027952730003191"><ele>34.666666666666664</ele><time>2026-04-19T10:06:34Z</time></trkpt><trkpt lat="45.10637917057657" lon="10.02794795110542"><ele>34.33333333333333</ele><time>2026-04-19T10:06:35Z</time></trkpt><trkpt lat="45.10630095212851" lon="10.027942810970083"><ele>34.0</ele><time>2026-04-19T10:06:36Z</time></trkpt><trkpt lat="45.10622185295716" lon="10.02794101422864"><ele>33.666666666666664</ele><time>2026-04-19T10:06:37Z</time></trkpt><trkpt lat="45.10614377820452" lon="10.027942069155083"><ele>33.333333333333336</ele><time>2026-04-19T10:06:38Z</time></trkpt><trkpt lat="45.106064308718295" lon="10.027946299203828"><ele>33.0</ele><time>2026-04-19T10:06:39Z</time></trkpt><trkpt lat="45.10598694501212" lon="10.027959322755887"><ele>33.0</ele><time>2026-04-19T10:06:40Z</time></trkpt><trkpt lat="45.10591034906512" lon="10.027976671062197"><ele>33.0</ele><time>2026-04-19T10:06:41Z</time></trkpt><trkpt lat="45.10583365294871" lon="10.028010397831292"><ele>33.0</ele><time>2026-04-19T10:06:42Z</time></trkpt><trkpt lat="45.10576018400452" lon="10.028043147510038"><ele>33.0</ele><time>2026-04-19T10:06:43Z</time></trkpt><trkpt lat="45.105687703149975" lon="10.028079095531547"><ele>33.0</ele><time>2026-04-19T10:06:44Z</time></trkpt><trkpt lat="45.105615880692056" lon="10.028118094089931"><ele>33.0</ele><time>2026-04-19T10:06:45Z</time></trkpt><trkpt lat="45.10554315635185" lon="10.028160030658361"><ele>32.666666666666664</ele><time>2026-04-19T10:06:46Z</time></trkpt><trkpt lat="45.10547083601588" lon="10.028200300449644"><ele>32.333333333333336</ele><time>2026-04-19T10:06:47Z</time></trkpt><trkpt lat="45.105398412922796" lon="10.028239555460974"><ele>32.0</ele><time>2026-04-19T10:06:48Z</time></trkpt><trkpt lat="45.105327746061" lon="10.028277752379422"><ele>31.666666666666668</ele><time>2026-04-19T10:06:49Z</time></trkpt><trkpt lat="45.105255636973276" lon="10.028312811589906"><ele>31.333333333333336</ele><time>2026-04-19T10:06:50Z</time></trkpt><trkpt lat="45.10518369061183" lon="10.028349303191911"><ele>31.0</ele><time>2026-04-19T10:06:51Z</time></trkpt><trkpt lat="45.105114323484614" lon="10.028387838749662"><ele>31.571428571428573</ele><time>2026-04-19T10:06:52Z</time></trkpt><trkpt lat="45.105045484534415" lon="10.028431041778626"><ele>32.142857142857146</ele><time>2026-04-19T10:06:53Z</time></trkpt><trkpt lat="45.10497855846861" lon="10.02847040545873"><ele>32.714285714285715</ele><time>2026-04-19T10:06:54Z</time></trkpt><trkpt lat="45.104912212471085" lon="10.028518645228509"><ele>33.285714285714285</ele><time>2026-04-19T10:06:55Z</time></trkpt><trkpt lat="45.104847900146325" lon="10.028569595760443"><ele>33.85714285714286</ele><time>2026-04-19T10:06:56Z</time></trkpt><trkpt lat="45.10478479478033" lon="10.028621716170594"><ele>34.42857142857143</ele><time>2026-04-19T10:06:57Z</time></trkpt><trkpt lat="45.104721137387486" lon="10.028675782536721"><ele>35.0</ele><time>2026-04-19T10:06:58Z</time></trkpt><trkpt lat="45.1046571844004" lon="10.028731307914015"><ele>35.285714285714285</ele><time>2026-04-19T10:06:59Z</time></trkpt><trkpt lat="45.10459424334898" lon="10.028781012429068"><ele>35.57142857142857</ele><time>2026-04-19T10:07:00Z</time></trkpt><trkpt lat="45.104533939828805" lon="10.028830375519071"><ele>35.85714285714286</ele><time>2026-04-19T10:07:01Z</time></trkpt><trkpt lat="45.104475807420556" lon="10.028885524442781"><ele>36.14285714285714</ele><time>2026-04-19T10:07:02Z</time></trkpt><trkpt lat="45.104410664156646" lon="10.028924103084217"><ele>36.42857142857143</ele><time>2026-04-19T10:07:02.999Z</time></trkpt><trkpt lat="45.10436219787699" lon="10.028996303342609"><ele>36.714285714285715</ele><time>2026-04-19T10:07:03.999Z</time></trkpt><trkpt lat="45.10432764416396" lon="10.029088654493687"><ele>37.0</ele><time>2026-04-19T10:07:04.999Z</time></trkpt><trkpt lat="45.10430485478563" lon="10.029192229026878"><ele>37.16666666666667</ele><time>2026-04-19T10:07:05.999Z</time></trkpt><trkpt lat="45.104280718766354" lon="10.029292923398147"><ele>37.333333333333336</ele><time>2026-04-19T10:07:06.999Z</time></trkpt><trkpt lat="45.10425961383885" lon="10.029398091762177"><ele>37.5</ele><time>2026-04-19T10:07:07.999Z</time></trkpt><trkpt lat="45.104241283769824" lon="10.02950972545936"><ele>37.666666666666664</ele><time>2026-04-19T10:07:08.999Z</time></trkpt><trkpt lat="45.10423202557778" lon="10.029637562788436"><ele>37.83333333333333</ele><time>2026-04-19T10:07:09.999Z</time></trkpt><trkpt lat="45.104234253508196" lon="10.029755964376022"><ele>38.0</ele><time>2026-04-19T10:07:10.999Z</time></trkpt><trkpt lat="45.104234253507606" lon="10.029870955268969"><ele>38.0</ele><time>2026-04-19T10:07:11.999Z</time></trkpt><trkpt lat="45.10423905350657" lon="10.02998787528097"><ele>38.0</ele><time>2026-04-19T10:07:12.999Z</time></trkpt><trkpt lat="45.104233504224695" lon="10.030102060725419"><ele>38.0</ele><time>2026-04-19T10:07:13.999Z</time></trkpt><trkpt lat="45.1042001848933" lon="10.030188946218475"><ele>38.0</ele><time>2026-04-19T10:07:14.999Z</time></trkpt><trkpt lat="45.1041547068401" lon="10.030264398791566"><ele>38.0</ele><time>2026-04-19T10:07:15.999Z</time></trkpt><trkpt lat="45.10410438390451" lon="10.030332586755259"><ele>38.0</ele><time>2026-04-19T10:07:16.999Z</time></trkpt><trkpt lat="45.10405144241543" lon="10.030391833434031"><ele>38.0</ele><time>2026-04-19T10:07:17.999Z</time></trkpt><trkpt lat="45.10399511920905" lon="10.030452428652492"><ele>38.33333333333333</ele><time>2026-04-19T10:07:18.999Z</time></trkpt><trkpt lat="45.10393037573183" lon="10.030525365924058"><ele>38.666666666666664</ele><time>2026-04-19T10:07:19.999Z</time></trkpt><trkpt lat="45.103860757897166" lon="10.030576017501318"><ele>39.0</ele><time>2026-04-19T10:07:20.999Z</time></trkpt><trkpt lat="45.10379395773422" lon="10.030635220817842"><ele>39.333333333333336</ele><time>2026-04-19T10:07:21.999Z</time></trkpt><trkpt lat="45.1037286557858" lon="10.030692208930622"><ele>39.66666666666667</ele><time>2026-04-19T10:07:22.999Z</time></trkpt><trkpt lat="45.10362208785605" lon="10.030763649066103"><ele>40.0</ele><time>2026-04-19T10:07:24.999Z</time></trkpt><trkpt lat="45.103567368255064" lon="10.030823411115934"><ele>39.42857142857143</ele><time>2026-04-19T10:07:25.999Z</time></trkpt><trkpt lat="45.103516725041395" lon="10.030894074142145"><ele>38.85714285714286</ele><time>2026-04-19T10:07:26.999Z</time></trkpt><trkpt lat="45.10347173442498" lon="10.030970190318147"><ele>38.28571428571429</ele><time>2026-04-19T10:07:27.999Z</time></trkpt><trkpt lat="45.10342707787068" lon="10.031047262582465"><ele>37.714285714285715</ele><time>2026-04-19T10:07:28.999Z</time></trkpt><trkpt lat="45.10338428976596" lon="10.03112303114369"><ele>37.142857142857146</ele><time>2026-04-19T10:07:29.999Z</time></trkpt><trkpt lat="45.10334241422872" lon="10.031197183849223"><ele>36.57142857142858</ele><time>2026-04-19T10:07:30.999Z</time></trkpt><trkpt lat="45.103301268934" lon="10.031270043390423"><ele>36.0</ele><time>2026-04-19T10:07:31.999Z</time></trkpt><trkpt lat="45.103276550573206" lon="10.031358794585767"><ele>35.714285714285715</ele><time>2026-04-19T10:07:32.999Z</time></trkpt><trkpt lat="45.1032370862442" lon="10.031431136986615"><ele>35.42857142857143</ele><time>2026-04-19T10:07:33.999Z</time></trkpt><trkpt lat="45.10319379677814" lon="10.031503376782753"><ele>35.14285714285714</ele><time>2026-04-19T10:07:34.999Z</time></trkpt><trkpt lat="45.10315370958314" lon="10.031576134941888"><ele>34.85714285714286</ele><time>2026-04-19T10:07:35.999Z</time></trkpt><trkpt lat="45.10311009217055" lon="10.031647868500826"><ele>34.57142857142857</ele><time>2026-04-19T10:07:36.999Z</time></trkpt><trkpt lat="45.10306944272989" lon="10.031723293490975"><ele>34.285714285714285</ele><time>2026-04-19T10:07:37.999Z</time></trkpt><trkpt lat="45.103024124446996" lon="10.031802845328581"><ele>34.0</ele><time>2026-04-19T10:07:38.999Z</time></trkpt><trkpt lat="45.10298181087751" lon="10.031879355081653"><ele>33.99999999999999</ele><time>2026-04-19T10:07:39.999Z</time></trkpt><trkpt lat="45.102924712075506" lon="10.031934777032387"><ele>34.0</ele><time>2026-04-19T10:07:40.999Z</time></trkpt><trkpt lat="45.10288418209473" lon="10.032007866359855"><ele>34.0</ele><time>2026-04-19T10:07:41.999Z</time></trkpt><trkpt lat="45.10284301240877" lon="10.032075819718388"><ele>34.0</ele><time>2026-04-19T10:07:42.999Z</time></trkpt><trkpt lat="45.10279769166418" lon="10.032148379273325"><ele>34.0</ele><time>2026-04-19T10:07:43.999Z</time></trkpt><trkpt lat="45.10275168779514" lon="10.032220985619889"><ele>33.99999999999999</ele><time>2026-04-19T10:07:44.999Z</time></trkpt><trkpt lat="45.10270489435621" lon="10.032294768151658"><ele>34.0</ele><time>2026-04-19T10:07:45.999Z</time></trkpt><trkpt lat="45.10265647837979" lon="10.032370943242743"><ele>33.99999999999999</ele><time>2026-04-19T10:07:46.999Z</time></trkpt><trkpt lat="45.10260889633031" lon="10.032445806352438"><ele>34.0</ele><time>2026-04-19T10:07:47.999Z</time></trkpt><trkpt lat="45.10256044172867" lon="10.032521102270472"><ele>34.0</ele><time>2026-04-19T10:07:48.999Z</time></trkpt><trkpt lat="45.102512880271036" lon="10.032594847595178"><ele>34.0</ele><time>2026-04-19T10:07:49.999Z</time></trkpt><trkpt lat="45.10246466856859" lon="10.032669640742577"><ele>34.0</ele><time>2026-04-19T10:07:50.999Z</time></trkpt><trkpt lat="45.102415508115826" lon="10.032743784873388"><ele>33.99999999999999</ele><time>2026-04-19T10:07:51.999Z</time></trkpt><trkpt lat="45.10236623377808" lon="10.032815176823316"><ele>34.0</ele><time>2026-04-19T10:07:52.999Z</time></trkpt><trkpt lat="45.10231656496984" lon="10.032883199517789"><ele>33.857142857142854</ele><time>2026-04-19T10:07:53.999Z</time></trkpt><trkpt lat="45.102262834490624" lon="10.032949731930996"><ele>33.714285714285715</ele><time>2026-04-19T10:07:54.999Z</time></trkpt><trkpt lat="45.10220971920098" lon="10.033008175400527"><ele>33.57142857142857</ele><time>2026-04-19T10:07:55.998Z</time></trkpt><trkpt lat="45.10215390965879" lon="10.033063212512548"><ele>33.42857142857143</ele><time>2026-04-19T10:07:56.998Z</time></trkpt><trkpt lat="45.10209521455279" lon="10.033110628727334"><ele>33.285714285714285</ele><time>2026-04-19T10:07:57.998Z</time></trkpt><trkpt lat="45.10203254724669" lon="10.033155385171161"><ele>33.14285714285714</ele><time>2026-04-19T10:07:58.998Z</time></trkpt><trkpt lat="45.10196989847999" lon="10.033194534690725"><ele>33.0</ele><time>2026-04-19T10:07:59.998Z</time></trkpt><trkpt lat="45.1019043877116" lon="10.033233813125227"><ele>33.0</ele><time>2026-04-19T10:08:00.998Z</time></trkpt><trkpt lat="45.10184046998178" lon="10.033272364352246"><ele>33.0</ele><time>2026-04-19T10:08:01.998Z</time></trkpt><trkpt lat="45.101773024466354" lon="10.033313043576776"><ele>33.0</ele><time>2026-04-19T10:08:02.998Z</time></trkpt><trkpt lat="45.101708069563436" lon="10.03335222055666"><ele>33.0</ele><time>2026-04-19T10:08:03.998Z</time></trkpt><trkpt lat="45.10164052455615" lon="10.03339295958272"><ele>33.0</ele><time>2026-04-19T10:08:04.998Z</time></trkpt><trkpt lat="45.1015727030905" lon="10.033433865550553"><ele>33.0</ele><time>2026-04-19T10:08:05.998Z</time></trkpt><trkpt lat="45.101505632673245" lon="10.033474218692142"><ele>33.0</ele><time>2026-04-19T10:08:06.998Z</time></trkpt><trkpt lat="45.101437501548226" lon="10.033515175934495"><ele>33.0</ele><time>2026-04-19T10:08:07.998Z</time></trkpt><trkpt lat="45.10136893638769" lon="10.033556969157358"><ele>33.0</ele><time>2026-04-19T10:08:08.998Z</time></trkpt><trkpt lat="45.1013017477449" lon="10.033598624336095"><ele>33.0</ele><time>2026-04-19T10:08:09.998Z</time></trkpt><trkpt lat="45.10123618640734" lon="10.033639270524134"><ele>33.0</ele><time>2026-04-19T10:08:10.998Z</time></trkpt><trkpt lat="45.101168002301804" lon="10.033681542783764"><ele>33.0</ele><time>2026-04-19T10:08:11.998Z</time></trkpt><trkpt lat="45.10109955203381" lon="10.033723980064808"><ele>33.0</ele><time>2026-04-19T10:08:12.998Z</time></trkpt><trkpt lat="45.10103362624711" lon="10.033764852283616"><ele>33.0</ele><time>2026-04-19T10:08:13.998Z</time></trkpt><trkpt lat="45.10096678090333" lon="10.033805849194724"><ele>33.0</ele><time>2026-04-19T10:08:14.998Z</time></trkpt><trkpt lat="45.10089920342766" lon="10.033847297311809"><ele>33.0</ele><time>2026-04-19T10:08:15.998Z</time></trkpt><trkpt lat="45.10083063760501" lon="10.033889894576605"><ele>33.0</ele><time>2026-04-19T10:08:16.998Z</time></trkpt><trkpt lat="45.10076197178283" lon="10.033932911208662"><ele>33.0</ele><time>2026-04-19T10:08:17.998Z</time></trkpt><trkpt lat="45.10069384933175" lon="10.033975587483217"><ele>33.0</ele><time>2026-04-19T10:08:18.998Z</time></trkpt><trkpt lat="45.100624037577596" lon="10.034019322139407"><ele>33.0</ele><time>2026-04-19T10:08:19.998Z</time></trkpt><trkpt lat="45.100554930718125" lon="10.034062615135761"><ele>33.0</ele><time>2026-04-19T10:08:20.998Z</time></trkpt><trkpt lat="45.10048568381341" lon="10.03410599590799"><ele>33.0</ele><time>2026-04-19T10:08:21.998Z</time></trkpt><trkpt lat="45.100416040776274" lon="10.034149624851503"><ele>33.0</ele><time>2026-04-19T10:08:22.998Z</time></trkpt><trkpt lat="45.10034716491652" lon="10.034192773058047"><ele>33.0</ele><time>2026-04-19T10:08:23.998Z</time></trkpt><trkpt lat="45.10027812972857" lon="10.034236021248885"><ele>33.0</ele><time>2026-04-19T10:08:24.998Z</time></trkpt><trkpt lat="45.100215211307756" lon="10.0343000410086"><ele>33.0</ele><time>2026-04-19T10:08:25.998Z</time></trkpt><trkpt lat="45.10014742607365" lon="10.03434278882461"><ele>33.166666666666664</ele><time>2026-04-19T10:08:26.998Z</time></trkpt><trkpt lat="45.1000790280588" lon="10.034388759278242"><ele>33.333333333333336</ele><time>2026-04-19T10:08:27.998Z</time></trkpt><trkpt lat="45.100005487656766" lon="10.034410957819789"><ele>33.5</ele><time>2026-04-19T10:08:28.998Z</time></trkpt><trkpt lat="45.09994211637298" lon="10.03447469136294"><ele>33.66666666666667</ele><time>2026-04-19T10:08:29.998Z</time></trkpt><trkpt lat="45.099872027249035" lon="10.034515004453834"><ele>33.833333333333336</ele><time>2026-04-19T10:08:30.998Z</time></trkpt><trkpt lat="45.099797160003824" lon="10.03453449627634"><ele>34.0</ele><time>2026-04-19T10:08:31.998Z</time></trkpt><trkpt lat="45.09972454025192" lon="10.034564039775256"><ele>33.5</ele><time>2026-04-19T10:08:32.998Z</time></trkpt><trkpt lat="45.09965259814405" lon="10.034576770769084"><ele>33.0</ele><time>2026-04-19T10:08:33.998Z</time></trkpt><trkpt lat="45.099575983796676" lon="10.034586816111233"><ele>32.5</ele><time>2026-04-19T10:08:34.998Z</time></trkpt><trkpt lat="45.09949807288337" lon="10.034596511133358"><ele>32.0</ele><time>2026-04-19T10:08:35.998Z</time></trkpt><trkpt lat="45.09941984907138" lon="10.034606245131918"><ele>31.500000000000004</ele><time>2026-04-19T10:08:36.998Z</time></trkpt><trkpt lat="45.099342982805666" lon="10.03461581013721"><ele>31.0</ele><time>2026-04-19T10:08:37.998Z</time></trkpt><trkpt lat="45.099265711768375" lon="10.034625425563823"><ele>31.000000000000004</ele><time>2026-04-19T10:08:38.998Z</time></trkpt><trkpt lat="45.09918865580313" lon="10.034636928851057"><ele>31.0</ele><time>2026-04-19T10:08:40Z</time></trkpt><trkpt lat="45.09911076315502" lon="10.034648534603939"><ele>31.0</ele><time>2026-04-19T10:08:41Z</time></trkpt><trkpt lat="45.09903400096504" lon="10.034661828807671"><ele>31.0</ele><time>2026-04-19T10:08:42Z</time></trkpt><trkpt lat="45.09895757085904" lon="10.034675923569637"><ele>31.000000000000004</ele><time>2026-04-19T10:08:43Z</time></trkpt><trkpt lat="45.0988823378465" lon="10.03468979759952"><ele>31.0</ele><time>2026-04-19T10:08:44Z</time></trkpt><trkpt lat="45.098806099075226" lon="10.034703857078703"><ele>31.333333333333336</ele><time>2026-04-19T10:08:45Z</time></trkpt><trkpt lat="45.098730004350266" lon="10.034717890012388"><ele>31.666666666666668</ele><time>2026-04-19T10:08:46Z</time></trkpt><trkpt lat="45.0986544074198" lon="10.034731831159101"><ele>32.0</ele><time>2026-04-19T10:08:47Z</time></trkpt><trkpt lat="45.09857978710349" lon="10.034741126553534"><ele>32.333333333333336</ele><time>2026-04-19T10:08:48Z</time></trkpt><trkpt lat="45.09850806080987" lon="10.034730302698716"><ele>32.666666666666664</ele><time>2026-04-19T10:08:49Z</time></trkpt><trkpt lat="45.098437678861494" lon="10.0347122085418"><ele>33.0</ele><time>2026-04-19T10:08:50Z</time></trkpt><trkpt lat="45.0983502540901" lon="10.034783710511965"><ele>33.0</ele><time>2026-04-19T10:08:51Z</time></trkpt><trkpt lat="45.09827459083952" lon="10.034783863786702"><ele>33.0</ele><time>2026-04-19T10:08:52Z</time></trkpt><trkpt lat="45.09819826199108" lon="10.034782887147713"><ele>33.0</ele><time>2026-04-19T10:08:53Z</time></trkpt><trkpt lat="45.098122431248676" lon="10.034786240847861"><ele>33.0</ele><time>2026-04-19T10:08:54Z</time></trkpt><trkpt lat="45.098047104876265" lon="10.034790405144907"><ele>33.0</ele><time>2026-04-19T10:08:55Z</time></trkpt><trkpt lat="45.097968935115674" lon="10.034794828944458"><ele>33.0</ele><time>2026-04-19T10:08:56Z</time></trkpt><trkpt lat="45.09789326594245" lon="10.03480647033918"><ele>33.42857142857143</ele><time>2026-04-19T10:08:57Z</time></trkpt><trkpt lat="45.09781674391873" lon="10.034822507977692"><ele>33.85714285714286</ele><time>2026-04-19T10:08:58Z</time></trkpt><trkpt lat="45.09774362759582" lon="10.034839034364952"><ele>34.28571428571429</ele><time>2026-04-19T10:08:59Z</time></trkpt><trkpt lat="45.0976726225512" lon="10.03485501427151"><ele>34.714285714285715</ele><time>2026-04-19T10:09:00Z</time></trkpt><trkpt lat="45.097601901766375" lon="10.034868136068253"><ele>35.142857142857146</ele><time>2026-04-19T10:09:01Z</time></trkpt><trkpt lat="45.097534403978344" lon="10.034880070224926"><ele>35.57142857142858</ele><time>2026-04-19T10:09:02Z</time></trkpt><trkpt lat="45.097466611265865" lon="10.034892056515067"><ele>36.0</ele><time>2026-04-19T10:09:03Z</time></trkpt><trkpt lat="45.09740346901695" lon="10.034902752700745"><ele>36.0</ele><time>2026-04-19T10:09:04Z</time></trkpt><trkpt lat="45.09733989041638" lon="10.034913237580394"><ele>36.0</ele><time>2026-04-19T10:09:05Z</time></trkpt><trkpt lat="45.097217668561925" lon="10.034933393494136"><ele>36.0</ele><time>2026-04-19T10:09:06.999Z</time></trkpt><trkpt lat="45.09710238996813" lon="10.034976574134644"><ele>36.0</ele><time>2026-04-19T10:09:08.999Z</time></trkpt><trkpt lat="45.09703928430823" lon="10.034972749520454"><ele>36.0</ele><time>2026-04-19T10:09:10.999Z</time></trkpt><trkpt lat="45.0970706538331" lon="10.035160385145018"><ele>35.8</ele><time>2026-04-19T10:09:11.999Z</time></trkpt><trkpt lat="45.09710801672117" lon="10.035270929501683"><ele>35.6</ele><time>2026-04-19T10:09:13.999Z</time></trkpt><trkpt lat="45.09715320444289" lon="10.035400822773315"><ele>35.4</ele><time>2026-04-19T10:09:15.999Z</time></trkpt><trkpt lat="45.09722369923816" lon="10.035546757442598"><ele>35.2</ele><time>2026-04-19T10:09:17.999Z</time></trkpt><trkpt lat="45.09725918255276" lon="10.03562894433682"><ele>35.0</ele><time>2026-04-19T10:09:18.999Z</time></trkpt><trkpt lat="45.09730033984511" lon="10.035708320740852"><ele>35.0</ele><time>2026-04-19T10:09:19.999Z</time></trkpt><trkpt lat="45.09734243243683" lon="10.035791124373608"><ele>35.0</ele><time>2026-04-19T10:09:20.999Z</time></trkpt><trkpt lat="45.09738721575978" lon="10.035868551310624"><ele>35.0</ele><time>2026-04-19T10:09:21.999Z</time></trkpt><trkpt lat="45.097436001341514" lon="10.035936738197519"><ele>35.0</ele><time>2026-04-19T10:09:22.999Z</time></trkpt><trkpt lat="45.097472757785894" lon="10.036020623406433"><ele>35.0</ele><time>2026-04-19T10:09:23.999Z</time></trkpt><trkpt lat="45.09752202515383" lon="10.036091148557727"><ele>35.0</ele><time>2026-04-19T10:09:24.999Z</time></trkpt><trkpt lat="45.0975746654382" lon="10.036165736704637"><ele>35.0</ele><time>2026-04-19T10:09:25.999Z</time></trkpt><trkpt lat="45.09762878485218" lon="10.036239054745929"><ele>35.5</ele><time>2026-04-19T10:09:26.999Z</time></trkpt><trkpt lat="45.09768385977834" lon="10.036313444475708"><ele>36.0</ele><time>2026-04-19T10:09:27.999Z</time></trkpt><trkpt lat="45.09774046800079" lon="10.036383803113628"><ele>36.5</ele><time>2026-04-19T10:09:28.999Z</time></trkpt><trkpt lat="45.09780056325428" lon="10.036453717625001"><ele>37.0</ele><time>2026-04-19T10:09:29.999Z</time></trkpt><trkpt lat="45.09787899583542" lon="10.036486601900647"><ele>37.5</ele><time>2026-04-19T10:09:30.999Z</time></trkpt><trkpt lat="45.09794699113221" lon="10.036535865264193"><ele>38.0</ele><time>2026-04-19T10:09:31.999Z</time></trkpt><trkpt lat="45.09801969560497" lon="10.036579003064979"><ele>38.0</ele><time>2026-04-19T10:09:32.999Z</time></trkpt><trkpt lat="45.09809458496059" lon="10.036617298480879"><ele>38.0</ele><time>2026-04-19T10:09:33.999Z</time></trkpt><trkpt lat="45.09816782722995" lon="10.036659763752034"><ele>38.0</ele><time>2026-04-19T10:09:34.999Z</time></trkpt><trkpt lat="45.09824011013435" lon="10.036708111907263"><ele>38.0</ele><time>2026-04-19T10:09:35.999Z</time></trkpt><trkpt lat="45.09831122989224" lon="10.036763916887105"><ele>38.0</ele><time>2026-04-19T10:09:36.999Z</time></trkpt><trkpt lat="45.098369682752676" lon="10.036848239744339"><ele>38.0</ele><time>2026-04-19T10:09:37.999Z</time></trkpt><trkpt lat="45.09843392605422" lon="10.036918614800433"><ele>37.33333333333333</ele><time>2026-04-19T10:09:38.999Z</time></trkpt><trkpt lat="45.09849675146453" lon="10.036990683966442"><ele>36.666666666666664</ele><time>2026-04-19T10:09:39.999Z</time></trkpt><trkpt lat="45.09855821705702" lon="10.037064921443509"><ele>36.0</ele><time>2026-04-19T10:09:40.999Z</time></trkpt><trkpt lat="45.098619053815284" lon="10.037138399344276"><ele>35.333333333333336</ele><time>2026-04-19T10:09:41.999Z</time></trkpt><trkpt lat="45.09867907446882" lon="10.03721089158447"><ele>34.66666666666667</ele><time>2026-04-19T10:09:42.999Z</time></trkpt><trkpt lat="45.09874027714728" lon="10.037284811584415"><ele>34.0</ele><time>2026-04-19T10:09:43.999Z</time></trkpt><trkpt lat="45.09879952862838" lon="10.03735639779984"><ele>34.0</ele><time>2026-04-19T10:09:44.999Z</time></trkpt><trkpt lat="45.09885909162032" lon="10.037426465520236"><ele>34.0</ele><time>2026-04-19T10:09:45.999Z</time></trkpt><trkpt lat="45.09891867661562" lon="10.037496333565771"><ele>34.0</ele><time>2026-04-19T10:09:46.999Z</time></trkpt><trkpt lat="45.09897869369138" lon="10.037564863677213"><ele>34.0</ele><time>2026-04-19T10:09:47.999Z</time></trkpt><trkpt lat="45.09903764416732" lon="10.037632175865946"><ele>34.0</ele><time>2026-04-19T10:09:48.999Z</time></trkpt><trkpt lat="45.099098822658966" lon="10.03769853762701"><ele>34.0</ele><time>2026-04-19T10:09:49.999Z</time></trkpt><trkpt lat="45.09916202489638" lon="10.037764847286299"><ele>34.333333333333336</ele><time>2026-04-19T10:09:50.999Z</time></trkpt><trkpt lat="45.09922649144251" lon="10.037826127982745"><ele>34.66666666666667</ele><time>2026-04-19T10:09:51.999Z</time></trkpt><trkpt lat="45.09929216519641" lon="10.037885070388608"><ele>35.0</ele><time>2026-04-19T10:09:52.999Z</time></trkpt><trkpt lat="45.09935684116801" lon="10.037942716570312"><ele>35.333333333333336</ele><time>2026-04-19T10:09:53.999Z</time></trkpt><trkpt lat="45.09942193390042" lon="10.037998914612839"><ele>35.666666666666664</ele><time>2026-04-19T10:09:54.999Z</time></trkpt><trkpt lat="45.09948689946307" lon="10.038055002854984"><ele>36.0</ele><time>2026-04-19T10:09:55.999Z</time></trkpt><trkpt lat="45.0995533372257" lon="10.03811157824331"><ele>36.0</ele><time>2026-04-19T10:09:56.999Z</time></trkpt><trkpt lat="45.099619847883616" lon="10.038167172532745"><ele>36.0</ele><time>2026-04-19T10:09:57.999Z</time></trkpt><trkpt lat="45.09969528047902" lon="10.038205755175953"><ele>36.0</ele><time>2026-04-19T10:09:58.999Z</time></trkpt><trkpt lat="45.09975341932194" lon="10.03827882064232"><ele>36.0</ele><time>2026-04-19T10:09:59.998Z</time></trkpt><trkpt lat="45.09982010852182" lon="10.038334564109531"><ele>36.0</ele><time>2026-04-19T10:10:00.998Z</time></trkpt><trkpt lat="45.09988645717464" lon="10.038390459149788"><ele>36.0</ele><time>2026-04-19T10:10:01.998Z</time></trkpt><trkpt lat="45.0999532787344" lon="10.038447784012805"><ele>36.28571428571429</ele><time>2026-04-19T10:10:02.998Z</time></trkpt><trkpt lat="45.10002083886118" lon="10.038505742365782"><ele>36.57142857142857</ele><time>2026-04-19T10:10:03.998Z</time></trkpt><trkpt lat="45.10009234134377" lon="10.038544468425762"><ele>36.85714285714286</ele><time>2026-04-19T10:10:04.998Z</time></trkpt><trkpt lat="45.100158314403636" lon="10.038598304275348"><ele>37.142857142857146</ele><time>2026-04-19T10:10:05.998Z</time></trkpt><trkpt lat="45.10022383688939" lon="10.038646663399819"><ele>37.42857142857143</ele><time>2026-04-19T10:10:06.998Z</time></trkpt><trkpt lat="45.100285847060775" lon="10.038695743497462"><ele>37.714285714285715</ele><time>2026-04-19T10:10:07.998Z</time></trkpt><trkpt lat="45.100349370660446" lon="10.038741342301973"><ele>38.0</ele><time>2026-04-19T10:10:08.998Z</time></trkpt><trkpt lat="45.100414615618334" lon="10.038787735169134"><ele>38.0</ele><time>2026-04-19T10:10:09.998Z</time></trkpt><trkpt lat="45.10048318126413" lon="10.038837334595094"><ele>38.0</ele><time>2026-04-19T10:10:10.998Z</time></trkpt><trkpt lat="45.10055692265352" lon="10.038884584445668"><ele>38.0</ele><time>2026-04-19T10:10:11.998Z</time></trkpt><trkpt lat="45.10063109496131" lon="10.038927255064038"><ele>38.0</ele><time>2026-04-19T10:10:12.998Z</time></trkpt><trkpt lat="45.10070272728858" lon="10.038968097947606"><ele>38.0</ele><time>2026-04-19T10:10:13.998Z</time></trkpt><trkpt lat="45.10077757102163" lon="10.039007256547707"><ele>38.0</ele><time>2026-04-19T10:10:14.998Z</time></trkpt><trkpt lat="45.10084876897362" lon="10.039050340904891"><ele>37.83333333333333</ele><time>2026-04-19T10:10:15.998Z</time></trkpt><trkpt lat="45.100921449622376" lon="10.039094616394664"><ele>37.666666666666664</ele><time>2026-04-19T10:10:16.998Z</time></trkpt><trkpt lat="45.10099353429085" lon="10.0391414927603"><ele>37.5</ele><time>2026-04-19T10:10:17.998Z</time></trkpt><trkpt lat="45.1010629579899" lon="10.039185780727635"><ele>37.333333333333336</ele><time>2026-04-19T10:10:18.998Z</time></trkpt><trkpt lat="45.10113790626098" lon="10.03922984143083"><ele>37.16666666666667</ele><time>2026-04-19T10:10:19.998Z</time></trkpt><trkpt lat="45.10121164458883" lon="10.039278067413187"><ele>37.0</ele><time>2026-04-19T10:10:20.998Z</time></trkpt><trkpt lat="45.10128509269116" lon="10.03932557231574"><ele>37.0</ele><time>2026-04-19T10:10:21.998Z</time></trkpt><trkpt lat="45.10135877983455" lon="10.039371916259071"><ele>37.0</ele><time>2026-04-19T10:10:22.998Z</time></trkpt><trkpt lat="45.101432279583776" lon="10.039415927368184"><ele>37.0</ele><time>2026-04-19T10:10:23.998Z</time></trkpt><trkpt lat="45.10150536486688" lon="10.039457857700526"><ele>37.0</ele><time>2026-04-19T10:10:24.998Z</time></trkpt><trkpt lat="45.101577995476234" lon="10.039499791249476"><ele>37.0</ele><time>2026-04-19T10:10:25.998Z</time></trkpt><trkpt lat="45.10164764835382" lon="10.039541079411752"><ele>37.0</ele><time>2026-04-19T10:10:26.998Z</time></trkpt><trkpt lat="45.10171727148753" lon="10.039584837270528"><ele>36.85714285714286</ele><time>2026-04-19T10:10:27.998Z</time></trkpt><trkpt lat="45.10178562795411" lon="10.039628644960038"><ele>36.714285714285715</ele><time>2026-04-19T10:10:28.998Z</time></trkpt><trkpt lat="45.101851770089894" lon="10.03967336632359"><ele>36.57142857142857</ele><time>2026-04-19T10:10:29.998Z</time></trkpt><trkpt lat="45.10191863763496" lon="10.039715844688912"><ele>36.42857142857143</ele><time>2026-04-19T10:10:30.998Z</time></trkpt><trkpt lat="45.10198958637062" lon="10.039754231240428"><ele>36.285714285714285</ele><time>2026-04-19T10:10:31.998Z</time></trkpt><trkpt lat="45.10205846467654" lon="10.039795820568646"><ele>36.142857142857146</ele><time>2026-04-19T10:10:32.998Z</time></trkpt><trkpt lat="45.10212889386517" lon="10.039833138106712"><ele>36.0</ele><time>2026-04-19T10:10:33.998Z</time></trkpt><trkpt lat="45.10220074414806" lon="10.039865966709755"><ele>36.00000000000001</ele><time>2026-04-19T10:10:34.998Z</time></trkpt><trkpt lat="45.10227151190344" lon="10.039899871233487"><ele>36.0</ele><time>2026-04-19T10:10:35.998Z</time></trkpt><trkpt lat="45.102343158806676" lon="10.039930543759132"><ele>36.0</ele><time>2026-04-19T10:10:36.998Z</time></trkpt><trkpt lat="45.1024149257952" lon="10.039966736679153"><ele>36.0</ele><time>2026-04-19T10:10:37.998Z</time></trkpt><trkpt lat="45.10248364604367" lon="10.04000524111405"><ele>36.0</ele><time>2026-04-19T10:10:38.998Z</time></trkpt><trkpt lat="45.10255369046187" lon="10.0400388770048"><ele>36.00000000000001</ele><time>2026-04-19T10:10:39.998Z</time></trkpt><trkpt lat="45.10262518264885" lon="10.040069740631571"><ele>36.0</ele><time>2026-04-19T10:10:40.998Z</time></trkpt><trkpt lat="45.102696102030905" lon="10.040100256851098"><ele>35.833333333333336</ele><time>2026-04-19T10:10:41.998Z</time></trkpt><trkpt lat="45.102767797784836" lon="10.040130681315343"><ele>35.666666666666664</ele><time>2026-04-19T10:10:42.998Z</time></trkpt><trkpt lat="45.102838414335544" lon="10.040163176097202"><ele>35.5</ele><time>2026-04-19T10:10:43.998Z</time></trkpt><trkpt lat="45.10291004814106" lon="10.040194767435732"><ele>35.33333333333333</ele><time>2026-04-19T10:10:44.998Z</time></trkpt><trkpt lat="45.10298218859037" lon="10.04022555537116"><ele>35.166666666666664</ele><time>2026-04-19T10:10:46Z</time></trkpt><trkpt lat="45.10305460240984" lon="10.040256035041239"><ele>35.0</ele><time>2026-04-19T10:10:47Z</time></trkpt><trkpt lat="45.10312667289456" lon="10.040287832248765"><ele>35.0</ele><time>2026-04-19T10:10:48Z</time></trkpt><trkpt lat="45.10319799061516" lon="10.040318666167357"><ele>35.0</ele><time>2026-04-19T10:10:49Z</time></trkpt><trkpt lat="45.10327096655566" lon="10.040348329489515"><ele>35.0</ele><time>2026-04-19T10:10:50Z</time></trkpt><trkpt lat="45.10334431192829" lon="10.040375527350676"><ele>35.0</ele><time>2026-04-19T10:10:51Z</time></trkpt><trkpt lat="45.103418073399844" lon="10.040404331498213"><ele>35.0</ele><time>2026-04-19T10:10:52Z</time></trkpt><trkpt lat="45.103494269668" lon="10.040431333666385"><ele>35.0</ele><time>2026-04-19T10:10:53Z</time></trkpt><trkpt lat="45.10356944998507" lon="10.040455557472796"><ele>35.33333333333333</ele><time>2026-04-19T10:10:54Z</time></trkpt><trkpt lat="45.10364386356361" lon="10.040477354799773"><ele>35.666666666666664</ele><time>2026-04-19T10:10:55Z</time></trkpt><trkpt lat="45.10372071485196" lon="10.040496114920002"><ele>36.0</ele><time>2026-04-19T10:10:56Z</time></trkpt><trkpt lat="45.103795847860106" lon="10.040521366201318"><ele>36.333333333333336</ele><time>2026-04-19T10:10:57Z</time></trkpt><trkpt lat="45.10386859830199" lon="10.040555548195693"><ele>36.66666666666667</ele><time>2026-04-19T10:10:58Z</time></trkpt><trkpt lat="45.10394271918957" lon="10.040579151620676"><ele>37.0</ele><time>2026-04-19T10:10:59Z</time></trkpt><trkpt lat="45.104018692625004" lon="10.040600033855279"><ele>37.333333333333336</ele><time>2026-04-19T10:11:00Z</time></trkpt><trkpt lat="45.10409325257242" lon="10.040624180219691"><ele>37.66666666666667</ele><time>2026-04-19T10:11:01Z</time></trkpt><trkpt lat="45.10416647897979" lon="10.040651691718788"><ele>38.0</ele><time>2026-04-19T10:11:02Z</time></trkpt><trkpt lat="45.10423941415353" lon="10.040677609586249"><ele>38.333333333333336</ele><time>2026-04-19T10:11:03Z</time></trkpt><trkpt lat="45.10431289653263" lon="10.040700852565852"><ele>38.666666666666664</ele><time>2026-04-19T10:11:04Z</time></trkpt><trkpt lat="45.10438612565591" lon="10.04072388451613"><ele>39.0</ele><time>2026-04-19T10:11:05Z</time></trkpt><trkpt lat="45.104459450494815" lon="10.040745213170059"><ele>39.0</ele><time>2026-04-19T10:11:06Z</time></trkpt><trkpt lat="45.104530191745354" lon="10.040768741708824"><ele>39.0</ele><time>2026-04-19T10:11:07Z</time></trkpt><trkpt lat="45.10459855436676" lon="10.040795007138984"><ele>39.0</ele><time>2026-04-19T10:11:08Z</time></trkpt><trkpt lat="45.104664346370214" lon="10.040819370850132"><ele>39.0</ele><time>2026-04-19T10:11:09Z</time></trkpt><trkpt lat="45.104730276355404" lon="10.040842303836158"><ele>39.0</ele><time>2026-04-19T10:11:10Z</time></trkpt><trkpt lat="45.10479604868494" lon="10.0408650791758"><ele>39.0</ele><time>2026-04-19T10:11:10.999Z</time></trkpt><trkpt lat="45.10486146047315" lon="10.04088136516422"><ele>39.0</ele><time>2026-04-19T10:11:11.999Z</time></trkpt><trkpt lat="45.10492583196268" lon="10.040901524008198"><ele>38.8</ele><time>2026-04-19T10:11:12.999Z</time></trkpt><trkpt lat="45.10498852288917" lon="10.04092995807917"><ele>38.599999999999994</ele><time>2026-04-19T10:11:13.999Z</time></trkpt><trkpt lat="45.10505460606429" lon="10.040956275689707"><ele>38.4</ele><time>2026-04-19T10:11:14.999Z</time></trkpt><trkpt lat="45.105162796330546" lon="10.041015405279047"><ele>38.199999999999996</ele><time>2026-04-19T10:11:16.999Z</time></trkpt><trkpt lat="45.105280739639234" lon="10.04096587816034"><ele>38.0</ele><time>2026-04-19T10:11:18.999Z</time></trkpt><trkpt lat="45.10512171681199" lon="10.041187773861056"><ele>38.0</ele><time>2026-04-19T10:11:19.999Z</time></trkpt><trkpt lat="45.10505495773103" lon="10.041305770754313"><ele>38.0</ele><time>2026-04-19T10:11:21.999Z</time></trkpt><trkpt lat="45.10498337675396" lon="10.041431842677076"><ele>38.0</ele><time>2026-04-19T10:11:23.999Z</time></trkpt><trkpt lat="45.10490464715648" lon="10.04156938717658"><ele>38.0</ele><time>2026-04-19T10:11:25.999Z</time></trkpt><trkpt lat="45.1048589926409" lon="10.041647527064228"><ele>38.0</ele><time>2026-04-19T10:11:26.999Z</time></trkpt><trkpt lat="45.10481252217778" lon="10.041726952158303"><ele>37.857142857142854</ele><time>2026-04-19T10:11:27.999Z</time></trkpt><trkpt lat="45.10476678161037" lon="10.04180511874707"><ele>37.714285714285715</ele><time>2026-04-19T10:11:28.999Z</time></trkpt><trkpt lat="45.1047244295484" lon="10.041877493880623"><ele>37.57142857142857</ele><time>2026-04-19T10:11:29.999Z</time></trkpt><trkpt lat="45.10468417082046" lon="10.041946291613256"><ele>37.42857142857143</ele><time>2026-04-19T10:11:30.999Z</time></trkpt><trkpt lat="45.10464322126547" lon="10.042016270078422"><ele>37.285714285714285</ele><time>2026-04-19T10:11:31.999Z</time></trkpt><trkpt lat="45.1046025572489" lon="10.042085760531277"><ele>37.142857142857146</ele><time>2026-04-19T10:11:32.999Z</time></trkpt><trkpt lat="45.10456066347084" lon="10.042157352557377"><ele>37.0</ele><time>2026-04-19T10:11:33.999Z</time></trkpt><trkpt lat="45.10451920642019" lon="10.04222834665416"><ele>37.0</ele><time>2026-04-19T10:11:34.999Z</time></trkpt><trkpt lat="45.10447863807966" lon="10.042298096347706"><ele>37.0</ele><time>2026-04-19T10:11:35.999Z</time></trkpt><trkpt lat="45.1044383164184" lon="10.042367421953713"><ele>37.0</ele><time>2026-04-19T10:11:36.999Z</time></trkpt><trkpt lat="45.10436016674256" lon="10.042501387138026"><ele>37.0</ele><time>2026-04-19T10:11:38.999Z</time></trkpt><trkpt lat="45.104300801642324" lon="10.04264615780061"><ele>37.0</ele><time>2026-04-19T10:11:40.999Z</time></trkpt><trkpt lat="45.104209130046634" lon="10.042759320039572"><ele>37.0</ele><time>2026-04-19T10:11:42.999Z</time></trkpt><trkpt lat="45.104128789914114" lon="10.042896159209226"><ele>37.0</ele><time>2026-04-19T10:11:44.999Z</time></trkpt><trkpt lat="45.10408781635407" lon="10.042965915460158"><ele>37.0</ele><time>2026-04-19T10:11:45.999Z</time></trkpt><trkpt lat="45.1040080604218" lon="10.043101697507057"><ele>37.0</ele><time>2026-04-19T10:11:47.999Z</time></trkpt><trkpt lat="45.103929716068635" lon="10.04322682939515"><ele>37.0</ele><time>2026-04-19T10:11:49.999Z</time></trkpt><trkpt lat="45.103919345032175" lon="10.043452054383968"><ele>36.85714285714286</ele><time>2026-04-19T10:11:51.999Z</time></trkpt><trkpt lat="45.1039637962978" lon="10.043533990732257"><ele>36.714285714285715</ele><time>2026-04-19T10:11:52.999Z</time></trkpt><trkpt lat="45.10399743841576" lon="10.043622950617726"><ele>36.57142857142857</ele><time>2026-04-19T10:11:53.999Z</time></trkpt><trkpt lat="45.10401653831462" lon="10.04372318184136"><ele>36.42857142857143</ele><time>2026-04-19T10:11:54.999Z</time></trkpt><trkpt lat="45.1040491846056" lon="10.043814664312615"><ele>36.285714285714285</ele><time>2026-04-19T10:11:55.999Z</time></trkpt><trkpt lat="45.10408258582386" lon="10.043908262345218"><ele>36.142857142857146</ele><time>2026-04-19T10:11:56.999Z</time></trkpt><trkpt lat="45.10411645386256" lon="10.044003168434662"><ele>36.0</ele><time>2026-04-19T10:11:57.999Z</time></trkpt><trkpt lat="45.10414862253329" lon="10.044098323793182"><ele>36.0</ele><time>2026-04-19T10:11:58.999Z</time></trkpt><trkpt lat="45.10418053911913" lon="10.044195198661646"><ele>36.0</ele><time>2026-04-19T10:11:59.999Z</time></trkpt><trkpt lat="45.10420860016627" lon="10.044292635277465"><ele>36.0</ele><time>2026-04-19T10:12:00.999Z</time></trkpt><trkpt lat="45.10423434762307" lon="10.044395257389548"><ele>36.0</ele><time>2026-04-19T10:12:01.999Z</time></trkpt><trkpt lat="45.10425805853203" lon="10.044498355782624"><ele>36.0</ele><time>2026-04-19T10:12:02.999Z</time></trkpt><trkpt lat="45.10428118144524" lon="10.044602665699296"><ele>36.0</ele><time>2026-04-19T10:12:03.999Z</time></trkpt><trkpt lat="45.10430358424745" lon="10.04470424461229"><ele>36.0</ele><time>2026-04-19T10:12:04.998Z</time></trkpt><trkpt lat="45.104327028940716" lon="10.044810547546446"><ele>36.0</ele><time>2026-04-19T10:12:05.998Z</time></trkpt><trkpt lat="45.10434988338048" lon="10.044914174319958"><ele>36.0</ele><time>2026-04-19T10:12:06.998Z</time></trkpt><trkpt lat="45.10437329149277" lon="10.04501890087239"><ele>36.0</ele><time>2026-04-19T10:12:07.998Z</time></trkpt><trkpt lat="45.10439696560172" lon="10.04512330589291"><ele>36.0</ele><time>2026-04-19T10:12:08.998Z</time></trkpt><trkpt lat="45.104420543527354" lon="10.045227286616393"><ele>36.0</ele><time>2026-04-19T10:12:09.998Z</time></trkpt><trkpt lat="45.104444549545576" lon="10.045333155258996"><ele>35.833333333333336</ele><time>2026-04-19T10:12:10.998Z</time></trkpt><trkpt lat="45.10446829864294" lon="10.045437890990206"><ele>35.666666666666664</ele><time>2026-04-19T10:12:11.998Z</time></trkpt><trkpt lat="45.10449192274834" lon="10.045542075582745"><ele>35.5</ele><time>2026-04-19T10:12:12.998Z</time></trkpt><trkpt lat="45.10451545942371" lon="10.045645874303567"><ele>35.33333333333333</ele><time>2026-04-19T10:12:13.998Z</time></trkpt><trkpt lat="45.1045393660761" lon="10.045750920294683"><ele>35.166666666666664</ele><time>2026-04-19T10:12:14.998Z</time></trkpt><trkpt lat="45.10456334076626" lon="10.045855617150567"><ele>35.0</ele><time>2026-04-19T10:12:15.998Z</time></trkpt><trkpt lat="45.104586566029255" lon="10.045957167203028"><ele>34.666666666666664</ele><time>2026-04-19T10:12:16.998Z</time></trkpt><trkpt lat="45.104610341657285" lon="10.046061234505673"><ele>34.33333333333333</ele><time>2026-04-19T10:12:17.998Z</time></trkpt><trkpt lat="45.104633274516324" lon="10.046161612920997"><ele>34.0</ele><time>2026-04-19T10:12:18.998Z</time></trkpt><trkpt lat="45.10465642946217" lon="10.04626296338794"><ele>33.666666666666664</ele><time>2026-04-19T10:12:19.998Z</time></trkpt><trkpt lat="45.104679888220524" lon="10.046365643732658"><ele>33.333333333333336</ele><time>2026-04-19T10:12:20.998Z</time></trkpt><trkpt lat="45.104703224338635" lon="10.04646778723815"><ele>33.0</ele><time>2026-04-19T10:12:21.998Z</time></trkpt><trkpt lat="45.10472686365228" lon="10.046571257822018"><ele>33.0</ele><time>2026-04-19T10:12:22.998Z</time></trkpt><trkpt lat="45.104750042921445" lon="10.046672714464597"><ele>33.0</ele><time>2026-04-19T10:12:23.998Z</time></trkpt><trkpt lat="45.10477334611763" lon="10.046774714184432"><ele>33.0</ele><time>2026-04-19T10:12:24.998Z</time></trkpt><trkpt lat="45.10479688302194" lon="10.046877736289108"><ele>33.0</ele><time>2026-04-19T10:12:25.998Z</time></trkpt><trkpt lat="45.104819691416" lon="10.046977569941875"><ele>33.0</ele><time>2026-04-19T10:12:26.998Z</time></trkpt><trkpt lat="45.10484272501221" lon="10.047078389341237"><ele>33.0</ele><time>2026-04-19T10:12:27.998Z</time></trkpt><trkpt lat="45.104865940045926" lon="10.047180331830674"><ele>33.0</ele><time>2026-04-19T10:12:28.998Z</time></trkpt><trkpt lat="45.10488855421379" lon="10.047280556885871"><ele>33.0</ele><time>2026-04-19T10:12:29.998Z</time></trkpt><trkpt lat="45.104911620143824" lon="10.04738129712518"><ele>33.0</ele><time>2026-04-19T10:12:30.998Z</time></trkpt><trkpt lat="45.10493562431884" lon="10.047480988003633"><ele>33.0</ele><time>2026-04-19T10:12:31.998Z</time></trkpt><trkpt lat="45.10496207419431" lon="10.047581301001784"><ele>33.0</ele><time>2026-04-19T10:12:32.998Z</time></trkpt><trkpt lat="45.104988985882834" lon="10.04768329423289"><ele>33.0</ele><time>2026-04-19T10:12:33.998Z</time></trkpt><trkpt lat="45.1050161861732" lon="10.04778638135474"><ele>33.333333333333336</ele><time>2026-04-19T10:12:34.998Z</time></trkpt><trkpt lat="45.1050382636697" lon="10.047889295484863"><ele>33.666666666666664</ele><time>2026-04-19T10:12:35.998Z</time></trkpt><trkpt lat="45.10505473164061" lon="10.047995008268572"><ele>34.0</ele><time>2026-04-19T10:12:36.998Z</time></trkpt><trkpt lat="45.105068887181645" lon="10.04810363400011"><ele>34.33333333333333</ele><time>2026-04-19T10:12:37.998Z</time></trkpt><trkpt lat="45.10508178042563" lon="10.0482107684027"><ele>34.666666666666664</ele><time>2026-04-19T10:12:38.998Z</time></trkpt><trkpt lat="45.10509463541029" lon="10.048318478630216"><ele>35.0</ele><time>2026-04-19T10:12:39.998Z</time></trkpt><trkpt lat="45.1051062029632" lon="10.048424736089933"><ele>35.0</ele><time>2026-04-19T10:12:40.998Z</time></trkpt><trkpt lat="45.1051176169511" lon="10.048529582217073"><ele>35.0</ele><time>2026-04-19T10:12:41.998Z</time></trkpt><trkpt lat="45.105128878617656" lon="10.048633029588906"><ele>35.0</ele><time>2026-04-19T10:12:42.998Z</time></trkpt><trkpt lat="45.105139888511765" lon="10.048734164139187"><ele>35.0</ele><time>2026-04-19T10:12:43.998Z</time></trkpt><trkpt lat="45.10515069411922" lon="10.048835630528583"><ele>35.0</ele><time>2026-04-19T10:12:44.998Z</time></trkpt><trkpt lat="45.10516069487591" lon="10.048939971748743"><ele>35.0</ele><time>2026-04-19T10:12:45.998Z</time></trkpt><trkpt lat="45.10516922079844" lon="10.049037052920019"><ele>35.0</ele><time>2026-04-19T10:12:46.998Z</time></trkpt><trkpt lat="45.105176455956126" lon="10.049137520135131"><ele>34.714285714285715</ele><time>2026-04-19T10:12:47.998Z</time></trkpt><trkpt lat="45.10518234984574" lon="10.049237064016255"><ele>34.42857142857143</ele><time>2026-04-19T10:12:48.998Z</time></trkpt><trkpt lat="45.10518708230713" lon="10.049335786707744"><ele>34.14285714285714</ele><time>2026-04-19T10:12:49.998Z</time></trkpt><trkpt lat="45.10519059254432" lon="10.049434039433837"><ele>33.85714285714286</ele><time>2026-04-19T10:12:50.998Z</time></trkpt><trkpt lat="45.10519415727083" lon="10.049533817629275"><ele>33.57142857142857</ele><time>2026-04-19T10:12:52Z</time></trkpt><trkpt lat="45.10519712609329" lon="10.049631814962698"><ele>33.285714285714285</ele><time>2026-04-19T10:12:53Z</time></trkpt><trkpt lat="45.10519940363597" lon="10.049730947642834"><ele>33.0</ele><time>2026-04-19T10:12:54Z</time></trkpt><trkpt lat="45.10520166435028" lon="10.049829348268064"><ele>33.0</ele><time>2026-04-19T10:12:55Z</time></trkpt><trkpt lat="45.10520312054732" lon="10.049928829106946"><ele>33.0</ele><time>2026-04-19T10:12:56Z</time></trkpt><trkpt lat="45.10520448156712" lon="10.050027006408705"><ele>33.0</ele><time>2026-04-19T10:12:57Z</time></trkpt><trkpt lat="45.10520573542813" lon="10.05012543282371"><ele>33.0</ele><time>2026-04-19T10:12:58Z</time></trkpt><trkpt lat="45.10520658958891" lon="10.050224920379131"><ele>33.0</ele><time>2026-04-19T10:12:59Z</time></trkpt><trkpt lat="45.10520744888953" lon="10.05032195670555"><ele>33.0</ele><time>2026-04-19T10:13:00Z</time></trkpt><trkpt lat="45.10520758051925" lon="10.050421008406953"><ele>33.0</ele><time>2026-04-19T10:13:01Z</time></trkpt><trkpt lat="45.1052077099015" lon="10.050518368742658"><ele>33.0</ele><time>2026-04-19T10:13:02Z</time></trkpt><trkpt lat="45.10520784108105" lon="10.050617081513254"><ele>33.0</ele><time>2026-04-19T10:13:03Z</time></trkpt><trkpt lat="45.105207973434744" lon="10.050716677789353"><ele>33.0</ele><time>2026-04-19T10:13:04Z</time></trkpt><trkpt lat="45.10520810638268" lon="10.050816720795886"><ele>33.0</ele><time>2026-04-19T10:13:05Z</time></trkpt><trkpt lat="45.10520824224183" lon="10.050918954698519"><ele>33.0</ele><time>2026-04-19T10:13:06Z</time></trkpt><trkpt lat="45.10520837249013" lon="10.051016965856618"><ele>33.0</ele><time>2026-04-19T10:13:07Z</time></trkpt><trkpt lat="45.10520824857142" lon="10.051111324073442"><ele>33.0</ele><time>2026-04-19T10:13:08Z</time></trkpt><trkpt lat="45.10520670916208" lon="10.051285633799882"><ele>33.0</ele><time>2026-04-19T10:13:10Z</time></trkpt><trkpt lat="45.105175576928836" lon="10.051410216163472"><ele>33.0</ele><time>2026-04-19T10:13:12Z</time></trkpt><trkpt lat="45.10507621582572" lon="10.051425313799353"><ele>33.0</ele><time>2026-04-19T10:13:14Z</time></trkpt><trkpt lat="45.1050132425684" lon="10.051446582618578"><ele>33.0</ele><time>2026-04-19T10:13:14.999Z</time></trkpt><trkpt lat="45.10494637136868" lon="10.051443801827654"><ele>33.0</ele><time>2026-04-19T10:13:15.999Z</time></trkpt><trkpt lat="45.10487813587175" lon="10.051445717414609"><ele>33.0</ele><time>2026-04-19T10:13:16.999Z</time></trkpt><trkpt lat="45.104809304550066" lon="10.051450852069493"><ele>33.0</ele><time>2026-04-19T10:13:17.999Z</time></trkpt><trkpt lat="45.10474024009419" lon="10.051449536846942"><ele>33.0</ele><time>2026-04-19T10:13:18.999Z</time></trkpt><trkpt lat="45.10466981507478" lon="10.05142450773706"><ele>33.0</ele><time>2026-04-19T10:13:19.999Z</time></trkpt><trkpt lat="45.10459718361627" lon="10.051417973270276"><ele>33.0</ele><time>2026-04-19T10:13:20.999Z</time></trkpt><trkpt lat="45.104524766372954" lon="10.05143037167855"><ele>33.0</ele><time>2026-04-19T10:13:21.999Z</time></trkpt><trkpt lat="45.10445144836989" lon="10.051416939317528"><ele>33.0</ele><time>2026-04-19T10:13:22.999Z</time></trkpt><trkpt lat="45.1043781233187" lon="10.051404083476108"><ele>33.0</ele><time>2026-04-19T10:13:23.999Z</time></trkpt><trkpt lat="45.10430854467411" lon="10.051367168655423"><ele>33.0</ele><time>2026-04-19T10:13:24.999Z</time></trkpt><trkpt lat="45.10423482063443" lon="10.051352959781704"><ele>33.0</ele><time>2026-04-19T10:13:25.999Z</time></trkpt><trkpt lat="45.10416073171382" lon="10.051339467806924"><ele>33.0</ele><time>2026-04-19T10:13:26.999Z</time></trkpt><trkpt lat="45.10408562347293" lon="10.051344491231541"><ele>33.0</ele><time>2026-04-19T10:13:27.999Z</time></trkpt><trkpt lat="45.10401202156729" lon="10.05132966580679"><ele>33.0</ele><time>2026-04-19T10:13:28.999Z</time></trkpt><trkpt lat="45.10393811754465" lon="10.051318491184258"><ele>33.0</ele><time>2026-04-19T10:13:29.999Z</time></trkpt><trkpt lat="45.10386397131742" lon="10.051285579017051"><ele>33.166666666666664</ele><time>2026-04-19T10:13:30.999Z</time></trkpt><trkpt lat="45.103788624569596" lon="10.051272248603365"><ele>33.333333333333336</ele><time>2026-04-19T10:13:31.999Z</time></trkpt><trkpt lat="45.10371167471821" lon="10.051281800355767"><ele>33.5</ele><time>2026-04-19T10:13:32.999Z</time></trkpt><trkpt lat="45.10363762476286" lon="10.051264697887294"><ele>33.66666666666667</ele><time>2026-04-19T10:13:33.999Z</time></trkpt><trkpt lat="45.10356342093032" lon="10.051251520870954"><ele>33.833333333333336</ele><time>2026-04-19T10:13:34.999Z</time></trkpt><trkpt lat="45.10348993768702" lon="10.051236679909382"><ele>34.0</ele><time>2026-04-19T10:13:35.999Z</time></trkpt><trkpt lat="45.10341792540006" lon="10.051221618565505"><ele>33.99999999999999</ele><time>2026-04-19T10:13:36.999Z</time></trkpt><trkpt lat="45.10334477483307" lon="10.051207941373999"><ele>34.0</ele><time>2026-04-19T10:13:37.999Z</time></trkpt><trkpt lat="45.10326998788256" lon="10.051195124120966"><ele>34.0</ele><time>2026-04-19T10:13:38.999Z</time></trkpt><trkpt lat="45.103195674099695" lon="10.051180785916507"><ele>34.0</ele><time>2026-04-19T10:13:39.999Z</time></trkpt><trkpt lat="45.103121691921" lon="10.051169191442272"><ele>34.0</ele><time>2026-04-19T10:13:40.999Z</time></trkpt><trkpt lat="45.10304855948154" lon="10.051157111730474"><ele>33.99999999999999</ele><time>2026-04-19T10:13:41.999Z</time></trkpt><trkpt lat="45.102975592644555" lon="10.051146495831187"><ele>34.0</ele><time>2026-04-19T10:13:42.999Z</time></trkpt><trkpt lat="45.102902159032375" lon="10.051137468608484"><ele>34.14285714285714</ele><time>2026-04-19T10:13:43.999Z</time></trkpt><trkpt lat="45.10282899729856" lon="10.051125831130292"><ele>34.285714285714285</ele><time>2026-04-19T10:13:44.999Z</time></trkpt><trkpt lat="45.10275406661635" lon="10.051116114200767"><ele>34.42857142857143</ele><time>2026-04-19T10:13:45.999Z</time></trkpt><trkpt lat="45.10268047936171" lon="10.051106563481605"><ele>34.57142857142857</ele><time>2026-04-19T10:13:46.999Z</time></trkpt><trkpt lat="45.10260555966468" lon="10.051101977604242"><ele>34.714285714285715</ele><time>2026-04-19T10:13:47.999Z</time></trkpt><trkpt lat="45.10253258619003" lon="10.05109598447933"><ele>34.857142857142854</ele><time>2026-04-19T10:13:48.999Z</time></trkpt><trkpt lat="45.10245909861612" lon="10.051088381216431"><ele>35.0</ele><time>2026-04-19T10:13:49.999Z</time></trkpt><trkpt lat="45.10238510476569" lon="10.051082042247328"><ele>35.285714285714285</ele><time>2026-04-19T10:13:50.999Z</time></trkpt><trkpt lat="45.10231149530816" lon="10.051074712485793"><ele>35.57142857142857</ele><time>2026-04-19T10:13:51.999Z</time></trkpt><trkpt lat="45.10224034360663" lon="10.051065334789143"><ele>35.85714285714286</ele><time>2026-04-19T10:13:52.999Z</time></trkpt><trkpt lat="45.102165157120375" lon="10.051060064089604"><ele>36.14285714285714</ele><time>2026-04-19T10:13:53.999Z</time></trkpt><trkpt lat="45.10209229625909" lon="10.051051035019489"><ele>36.42857142857143</ele><time>2026-04-19T10:13:54.999Z</time></trkpt><trkpt lat="45.102018816175" lon="10.051043527377713"><ele>36.714285714285715</ele><time>2026-04-19T10:13:55.999Z</time></trkpt><trkpt lat="45.10194633433346" lon="10.051037781428233"><ele>37.0</ele><time>2026-04-19T10:13:56.999Z</time></trkpt><trkpt lat="45.10187821881226" lon="10.051005929196318"><ele>37.0</ele><time>2026-04-19T10:13:57.999Z</time></trkpt><trkpt lat="45.10181208285619" lon="10.051015632123631"><ele>37.0</ele><time>2026-04-19T10:13:58.999Z</time></trkpt><trkpt lat="45.10174754416642" lon="10.051004218771515"><ele>37.0</ele><time>2026-04-19T10:13:59.999Z</time></trkpt><trkpt lat="45.10162248116824" lon="10.051023406377936"><ele>37.0</ele><time>2026-04-19T10:14:01.999Z</time></trkpt><trkpt lat="45.1015683831993" lon="10.051112057444886"><ele>37.0</ele><time>2026-04-19T10:14:02.999Z</time></trkpt><trkpt lat="45.10154717033554" lon="10.051222547851035"><ele>37.0</ele><time>2026-04-19T10:14:03.999Z</time></trkpt><trkpt lat="45.101545353698185" lon="10.051332657197943"><ele>37.0</ele><time>2026-04-19T10:14:04.999Z</time></trkpt><trkpt lat="45.10153706972695" lon="10.051434827379634"><ele>37.0</ele><time>2026-04-19T10:14:05.999Z</time></trkpt><trkpt lat="45.10152870196677" lon="10.0515369726039"><ele>37.0</ele><time>2026-04-19T10:14:06.999Z</time></trkpt><trkpt lat="45.10152028320253" lon="10.051639741152835"><ele>37.0</ele><time>2026-04-19T10:14:07.998Z</time></trkpt><trkpt lat="45.10151205086533" lon="10.051740561442392"><ele>37.0</ele><time>2026-04-19T10:14:08.998Z</time></trkpt><trkpt lat="45.101503689828746" lon="10.051842962935593"><ele>37.0</ele><time>2026-04-19T10:14:09.998Z</time></trkpt><trkpt lat="45.10149531839866" lon="10.0519454917843"><ele>37.0</ele><time>2026-04-19T10:14:10.998Z</time></trkpt><trkpt lat="45.10148699637679" lon="10.052047415464278"><ele>36.85714285714286</ele><time>2026-04-19T10:14:11.998Z</time></trkpt><trkpt lat="45.10147870441454" lon="10.052148970999706"><ele>36.714285714285715</ele><time>2026-04-19T10:14:12.998Z</time></trkpt><trkpt lat="45.10147031087848" lon="10.052251770472918"><ele>36.57142857142857</ele><time>2026-04-19T10:14:13.998Z</time></trkpt><trkpt lat="45.1014619341489" lon="10.05235436412715"><ele>36.42857142857143</ele><time>2026-04-19T10:14:14.998Z</time></trkpt><trkpt lat="45.10145345435655" lon="10.052458220605889"><ele>36.285714285714285</ele><time>2026-04-19T10:14:15.998Z</time></trkpt><trkpt lat="45.101444744529346" lon="10.05256079236647"><ele>36.142857142857146</ele><time>2026-04-19T10:14:16.998Z</time></trkpt><trkpt lat="45.101435710370765" lon="10.052665579629775"><ele>36.0</ele><time>2026-04-19T10:14:17.998Z</time></trkpt><trkpt lat="45.101426742241706" lon="10.05276960134406"><ele>35.833333333333336</ele><time>2026-04-19T10:14:18.998Z</time></trkpt><trkpt lat="45.10141756623137" lon="10.052876033696371"><ele>35.666666666666664</ele><time>2026-04-19T10:14:19.998Z</time></trkpt><trkpt lat="45.10140852492289" lon="10.052980903951072"><ele>35.5</ele><time>2026-04-19T10:14:20.998Z</time></trkpt><trkpt lat="45.10139925778103" lon="10.05308839332592"><ele>35.33333333333333</ele><time>2026-04-19T10:14:21.998Z</time></trkpt><trkpt lat="45.101390317987466" lon="10.05319222818225"><ele>35.166666666666664</ele><time>2026-04-19T10:14:22.998Z</time></trkpt><trkpt lat="45.10138192009142" lon="10.053297675148581"><ele>35.0</ele><time>2026-04-19T10:14:23.998Z</time></trkpt><trkpt lat="45.10137379794243" lon="10.053404926038528"><ele>35.0</ele><time>2026-04-19T10:14:24.998Z</time></trkpt><trkpt lat="45.10136650966839" lon="10.053512140315476"><ele>35.0</ele><time>2026-04-19T10:14:25.998Z</time></trkpt><trkpt lat="45.101360953781125" lon="10.053619864801872"><ele>35.0</ele><time>2026-04-19T10:14:26.998Z</time></trkpt><trkpt lat="45.10135598058906" lon="10.053730326127758"><ele>35.0</ele><time>2026-04-19T10:14:27.998Z</time></trkpt><trkpt lat="45.101352794154245" lon="10.053839056373441"><ele>35.0</ele><time>2026-04-19T10:14:28.998Z</time></trkpt><trkpt lat="45.10135083249963" lon="10.053949451976894"><ele>35.0</ele><time>2026-04-19T10:14:29.998Z</time></trkpt><trkpt lat="45.10135172768443" lon="10.054056337970136"><ele>35.0</ele><time>2026-04-19T10:14:30.998Z</time></trkpt><trkpt lat="45.101362601380586" lon="10.054168455087513"><ele>35.0</ele><time>2026-04-19T10:14:31.998Z</time></trkpt><trkpt lat="45.10139892232636" lon="10.05426997998735"><ele>35.0</ele><time>2026-04-19T10:14:32.998Z</time></trkpt><trkpt lat="45.10141885166986" lon="10.054374452813228"><ele>35.0</ele><time>2026-04-19T10:14:33.998Z</time></trkpt><trkpt lat="45.10144926767794" lon="10.054471926578273"><ele>35.0</ele><time>2026-04-19T10:14:34.998Z</time></trkpt><trkpt lat="45.10146615338542" lon="10.054575722504364"><ele>35.0</ele><time>2026-04-19T10:14:35.998Z</time></trkpt><trkpt lat="45.101495523307925" lon="10.054670775815131"><ele>35.0</ele><time>2026-04-19T10:14:36.998Z</time></trkpt><trkpt lat="45.10152462803899" lon="10.05476073206417"><ele>35.0</ele><time>2026-04-19T10:14:37.998Z</time></trkpt><trkpt lat="45.10155396065277" lon="10.05485139254717"><ele>35.0</ele><time>2026-04-19T10:14:38.998Z</time></trkpt><trkpt lat="45.10158329532487" lon="10.054942059589317"><ele>35.0</ele><time>2026-04-19T10:14:39.998Z</time></trkpt><trkpt lat="45.1016119032918" lon="10.055030480727252"><ele>35.0</ele><time>2026-04-19T10:14:40.998Z</time></trkpt><trkpt lat="45.10164110866822" lon="10.05512074781404"><ele>35.0</ele><time>2026-04-19T10:14:41.998Z</time></trkpt><trkpt lat="45.1016704245484" lon="10.05521135595518"><ele>35.0</ele><time>2026-04-19T10:14:42.998Z</time></trkpt><trkpt lat="45.101699728994646" lon="10.055301929034156"><ele>34.857142857142854</ele><time>2026-04-19T10:14:43.998Z</time></trkpt><trkpt lat="45.10172949217224" lon="10.055393920734227"><ele>34.714285714285715</ele><time>2026-04-19T10:14:44.998Z</time></trkpt><trkpt lat="45.101759509230654" lon="10.055486696713166"><ele>34.57142857142857</ele><time>2026-04-19T10:14:45.998Z</time></trkpt><trkpt lat="45.10178895708536" lon="10.055577713605254"><ele>34.42857142857143</ele><time>2026-04-19T10:14:46.998Z</time></trkpt><trkpt lat="45.10181918454388" lon="10.055671139892787"><ele>34.285714285714285</ele><time>2026-04-19T10:14:47.998Z</time></trkpt><trkpt lat="45.10184908256483" lon="10.055763547233125"><ele>34.14285714285714</ele><time>2026-04-19T10:14:48.998Z</time></trkpt><trkpt lat="45.10187933494185" lon="10.055856011134237"><ele>34.0</ele><time>2026-04-19T10:14:49.998Z</time></trkpt><trkpt lat="45.10190952346564" lon="10.055948577650106"><ele>34.285714285714285</ele><time>2026-04-19T10:14:50.998Z</time></trkpt><trkpt lat="45.101939018456605" lon="10.056039017677257"><ele>34.57142857142857</ele><time>2026-04-19T10:14:51.998Z</time></trkpt><trkpt lat="45.10196956341565" lon="10.05613076229946"><ele>34.85714285714286</ele><time>2026-04-19T10:14:52.998Z</time></trkpt><trkpt lat="45.10199971999039" lon="10.056221208619972"><ele>35.14285714285714</ele><time>2026-04-19T10:14:53.998Z</time></trkpt><trkpt lat="45.10203012444517" lon="10.056312398365067"><ele>35.42857142857143</ele><time>2026-04-19T10:14:54.998Z</time></trkpt><trkpt lat="45.10206049965261" lon="10.056403500403562"><ele>35.714285714285715</ele><time>2026-04-19T10:14:55.998Z</time></trkpt><trkpt lat="45.102091152057824" lon="10.05649514056997"><ele>36.0</ele><time>2026-04-19T10:14:56.998Z</time></trkpt><trkpt lat="45.10213504333701" lon="10.05657883183044"><ele>36.28571428571429</ele><time>2026-04-19T10:14:58Z</time></trkpt><trkpt lat="45.10216694455956" lon="10.056671861717115"><ele>36.57142857142857</ele><time>2026-04-19T10:14:59Z</time></trkpt><trkpt lat="45.102185067413174" lon="10.056775521164477"><ele>36.85714285714286</ele><time>2026-04-19T10:15:00Z</time></trkpt><trkpt lat="45.102215610858565" lon="10.056866707425577"><ele>37.142857142857146</ele><time>2026-04-19T10:15:01Z</time></trkpt><trkpt lat="45.102246676452985" lon="10.056959452549762"><ele>37.42857142857143</ele><time>2026-04-19T10:15:02Z</time></trkpt><trkpt lat="45.10227837690672" lon="10.057054093019174"><ele>37.714285714285715</ele><time>2026-04-19T10:15:03Z</time></trkpt><trkpt lat="45.10230904675071" lon="10.057145656642371"><ele>38.0</ele><time>2026-04-19T10:15:04Z</time></trkpt><trkpt lat="45.10234014495492" lon="10.057238499095211"><ele>38.0</ele><time>2026-04-19T10:15:05Z</time></trkpt><trkpt lat="45.102371716106916" lon="10.057332753520523"><ele>38.0</ele><time>2026-04-19T10:15:06Z</time></trkpt><trkpt lat="45.10240347175188" lon="10.057427558754604"><ele>38.0</ele><time>2026-04-19T10:15:07Z</time></trkpt><trkpt lat="45.10243408948749" lon="10.057518966832417"><ele>38.0</ele><time>2026-04-19T10:15:08Z</time></trkpt><trkpt lat="45.10246577713258" lon="10.057613569023104"><ele>38.0</ele><time>2026-04-19T10:15:09Z</time></trkpt><trkpt lat="45.102497779982876" lon="10.05770911227763"><ele>38.0</ele><time>2026-04-19T10:15:10Z</time></trkpt><trkpt lat="45.10252844609743" lon="10.05780066479532"><ele>38.0</ele><time>2026-04-19T10:15:11Z</time></trkpt><trkpt lat="45.102572235465274" lon="10.057884321748544"><ele>37.857142857142854</ele><time>2026-04-19T10:15:12Z</time></trkpt><trkpt lat="45.10258318125494" lon="10.057988746755768"><ele>37.714285714285715</ele><time>2026-04-19T10:15:13Z</time></trkpt><trkpt lat="45.10260607007488" lon="10.058082655634637"><ele>37.57142857142857</ele><time>2026-04-19T10:15:14Z</time></trkpt><trkpt lat="45.10262693906006" lon="10.05817650635"><ele>37.42857142857143</ele><time>2026-04-19T10:15:15Z</time></trkpt><trkpt lat="45.102648053838486" lon="10.058276300859777"><ele>37.285714285714285</ele><time>2026-04-19T10:15:16Z</time></trkpt><trkpt lat="45.102668347416085" lon="10.058372213248186"><ele>37.142857142857146</ele><time>2026-04-19T10:15:17Z</time></trkpt><trkpt lat="45.10268608615712" lon="10.058470267747786"><ele>37.0</ele><time>2026-04-19T10:15:17.999Z</time></trkpt><trkpt lat="45.10270263494661" lon="10.058568225856934"><ele>37.0</ele><time>2026-04-19T10:15:18.999Z</time></trkpt><trkpt lat="45.10271881087476" lon="10.05866622652212"><ele>37.0</ele><time>2026-04-19T10:15:19.999Z</time></trkpt><trkpt lat="45.10273512055235" lon="10.058765037295007"><ele>37.0</ele><time>2026-04-19T10:15:20.999Z</time></trkpt><trkpt lat="45.102753569844715" lon="10.058861820147241"><ele>37.0</ele><time>2026-04-19T10:15:21.999Z</time></trkpt><trkpt lat="45.102777117803804" lon="10.058959666478566"><ele>37.0</ele><time>2026-04-19T10:15:22.999Z</time></trkpt><trkpt lat="45.10281305421327" lon="10.05904929364248"><ele>37.0</ele><time>2026-04-19T10:15:23.999Z</time></trkpt><trkpt lat="45.10288147730219" lon="10.059104770914125"><ele>37.0</ele><time>2026-04-19T10:15:24.999Z</time></trkpt><trkpt lat="45.1029528041249" lon="10.059145343704145"><ele>36.85714285714286</ele><time>2026-04-19T10:15:25.999Z</time></trkpt><trkpt lat="45.10302943325638" lon="10.059159894349948"><ele>36.714285714285715</ele><time>2026-04-19T10:15:26.999Z</time></trkpt><trkpt lat="45.10310428666321" lon="10.059168045586096"><ele>36.57142857142857</ele><time>2026-04-19T10:15:27.999Z</time></trkpt><trkpt lat="45.10317463307739" lon="10.059192148217795"><ele>36.42857142857143</ele><time>2026-04-19T10:15:28.999Z</time></trkpt><trkpt lat="45.103238908178234" lon="10.059237723857677"><ele>36.285714285714285</ele><time>2026-04-19T10:15:29.999Z</time></trkpt><trkpt lat="45.10328831907725" lon="10.059312438720958"><ele>36.142857142857146</ele><time>2026-04-19T10:15:30.999Z</time></trkpt><trkpt lat="45.10328767425341" lon="10.059422063014749"><ele>36.0</ele><time>2026-04-19T10:15:31.999Z</time></trkpt><trkpt lat="45.103306547079555" lon="10.059518025466465"><ele>35.85714285714286</ele><time>2026-04-19T10:15:32.999Z</time></trkpt><trkpt lat="45.10329460993982" lon="10.05960939777447"><ele>35.714285714285715</ele><time>2026-04-19T10:15:33.999Z</time></trkpt><trkpt lat="45.1032950376424" lon="10.059705755769405"><ele>35.57142857142857</ele><time>2026-04-19T10:15:34.999Z</time></trkpt><trkpt lat="45.103293658037174" lon="10.059800200039687"><ele>35.42857142857143</ele><time>2026-04-19T10:15:35.999Z</time></trkpt><trkpt lat="45.10329174439457" lon="10.059900162663498"><ele>35.285714285714285</ele><time>2026-04-19T10:15:36.999Z</time></trkpt><trkpt lat="45.10328980231831" lon="10.060001608984397"><ele>35.142857142857146</ele><time>2026-04-19T10:15:37.999Z</time></trkpt><trkpt lat="45.10328762659184" lon="10.06009791391029"><ele>35.0</ele><time>2026-04-19T10:15:38.999Z</time></trkpt><trkpt lat="45.1032854806258" lon="10.060200040117415"><ele>34.857142857142854</ele><time>2026-04-19T10:15:39.999Z</time></trkpt><trkpt lat="45.10328342559985" lon="10.060297838544756"><ele>34.714285714285715</ele><time>2026-04-19T10:15:40.999Z</time></trkpt><trkpt lat="45.103281321611405" lon="10.060397967029349"><ele>34.57142857142857</ele><time>2026-04-19T10:15:41.999Z</time></trkpt><trkpt lat="45.10327930142032" lon="10.06049410765795"><ele>34.42857142857143</ele><time>2026-04-19T10:15:42.999Z</time></trkpt><trkpt lat="45.103277288801976" lon="10.060589887912359"><ele>34.285714285714285</ele><time>2026-04-19T10:15:43.999Z</time></trkpt><trkpt lat="45.10327523164541" lon="10.060687787709563"><ele>34.14285714285714</ele><time>2026-04-19T10:15:44.999Z</time></trkpt><trkpt lat="45.10327314790513" lon="10.060786952619521"><ele>34.0</ele><time>2026-04-19T10:15:45.999Z</time></trkpt><trkpt lat="45.10327111205227" lon="10.060883838573332"><ele>34.285714285714285</ele><time>2026-04-19T10:15:46.999Z</time></trkpt><trkpt lat="45.10326928145227" lon="10.06098108744075"><ele>34.57142857142857</ele><time>2026-04-19T10:15:47.999Z</time></trkpt><trkpt lat="45.10326796642096" lon="10.061079034184313"><ele>34.85714285714286</ele><time>2026-04-19T10:15:48.999Z</time></trkpt><trkpt lat="45.103266688458106" lon="10.061174220032742"><ele>35.14285714285714</ele><time>2026-04-19T10:15:49.999Z</time></trkpt><trkpt lat="45.10326540027116" lon="10.061270167347313"><ele>35.42857142857143</ele><time>2026-04-19T10:15:50.999Z</time></trkpt><trkpt lat="45.10326409232445" lon="10.061367586401609"><ele>35.714285714285715</ele><time>2026-04-19T10:15:51.999Z</time></trkpt><trkpt lat="45.10326276005519" lon="10.06146681711513"><ele>36.0</ele><time>2026-04-19T10:15:52.999Z</time></trkpt><trkpt lat="45.103261411512435" lon="10.061567259835142"><ele>35.85714285714286</ele><time>2026-04-19T10:15:53.999Z</time></trkpt><trkpt lat="45.10326003307682" lon="10.061669929078699"><ele>35.714285714285715</ele><time>2026-04-19T10:15:54.999Z</time></trkpt><trkpt lat="45.103258688965866" lon="10.061770041831034"><ele>35.57142857142857</ele><time>2026-04-19T10:15:55.999Z</time></trkpt><trkpt lat="45.10325687562324" lon="10.06187037770322"><ele>35.42857142857143</ele><time>2026-04-19T10:15:56.999Z</time></trkpt><trkpt lat="45.10325481436143" lon="10.061972125066887"><ele>35.285714285714285</ele><time>2026-04-19T10:15:57.999Z</time></trkpt><trkpt lat="45.10325237501931" lon="10.06207001923328"><ele>35.142857142857146</ele><time>2026-04-19T10:15:58.999Z</time></trkpt><trkpt lat="45.10324900069821" lon="10.062172709339139"><ele>35.0</ele><time>2026-04-19T10:15:59.999Z</time></trkpt><trkpt lat="45.10324450411593" lon="10.062272770908562"><ele>35.0</ele><time>2026-04-19T10:16:00.999Z</time></trkpt><trkpt lat="45.10323765737921" lon="10.062375568386384"><ele>35.0</ele><time>2026-04-19T10:16:01.999Z</time></trkpt><trkpt lat="45.10323151961217" lon="10.062473228895362"><ele>35.0</ele><time>2026-04-19T10:16:02.999Z</time></trkpt><trkpt lat="45.10322680197043" lon="10.062565896704715"><ele>35.0</ele><time>2026-04-19T10:16:03.999Z</time></trkpt><trkpt lat="45.103233714648844" lon="10.062661878993488"><ele>35.0</ele><time>2026-04-19T10:16:04.999Z</time></trkpt><trkpt lat="45.103276162620126" lon="10.062750064729062"><ele>35.0</ele><time>2026-04-19T10:16:05.999Z</time></trkpt><trkpt lat="45.103358678721165" lon="10.06277624145362"><ele>35.0</ele><time>2026-04-19T10:16:06.999Z</time></trkpt><trkpt lat="45.10343039825311" lon="10.062764613886742"><ele>34.83333333333333</ele><time>2026-04-19T10:16:07.999Z</time></trkpt><trkpt lat="45.103498787369425" lon="10.062717380623987"><ele>34.666666666666664</ele><time>2026-04-19T10:16:08.999Z</time></trkpt><trkpt lat="45.10356301269167" lon="10.06266724828393"><ele>34.5</ele><time>2026-04-19T10:16:09.999Z</time></trkpt><trkpt lat="45.10363028160276" lon="10.062623420096806"><ele>34.333333333333336</ele><time>2026-04-19T10:16:10.998Z</time></trkpt><trkpt lat="45.10370019171918" lon="10.062583193223594"><ele>34.16666666666667</ele><time>2026-04-19T10:16:11.998Z</time></trkpt><trkpt lat="45.103771147564956" lon="10.062545553630482"><ele>34.0</ele><time>2026-04-19T10:16:12.998Z</time></trkpt><trkpt lat="45.103843209965376" lon="10.062506941127277"><ele>34.0</ele><time>2026-04-19T10:16:13.998Z</time></trkpt><trkpt lat="45.10391649271061" lon="10.062469664150807"><ele>34.0</ele><time>2026-04-19T10:16:14.998Z</time></trkpt><trkpt lat="45.10398977415364" lon="10.062428992030178"><ele>34.0</ele><time>2026-04-19T10:16:15.998Z</time></trkpt><trkpt lat="45.104061600776944" lon="10.062388193996885"><ele>34.0</ele><time>2026-04-19T10:16:16.998Z</time></trkpt><trkpt lat="45.104133899736155" lon="10.062346831455304"><ele>34.0</ele><time>2026-04-19T10:16:17.998Z</time></trkpt><trkpt lat="45.10420707145298" lon="10.06230456392632"><ele>34.0</ele><time>2026-04-19T10:16:18.998Z</time></trkpt><trkpt lat="45.104277937788936" lon="10.062262169885624"><ele>33.66666666666667</ele><time>2026-04-19T10:16:19.998Z</time></trkpt><trkpt lat="45.104351898168574" lon="10.062221136916017"><ele>33.333333333333336</ele><time>2026-04-19T10:16:20.998Z</time></trkpt><trkpt lat="45.104424842273595" lon="10.062180422852911"><ele>33.0</ele><time>2026-04-19T10:16:21.998Z</time></trkpt><trkpt lat="45.104497227732296" lon="10.062138615165331"><ele>32.666666666666664</ele><time>2026-04-19T10:16:22.998Z</time></trkpt><trkpt lat="45.104571126973575" lon="10.062095932419204"><ele>32.33333333333333</ele><time>2026-04-19T10:16:23.998Z</time></trkpt><trkpt lat="45.10464573945945" lon="10.062055723564695"><ele>32.0</ele><time>2026-04-19T10:16:24.998Z</time></trkpt><trkpt lat="45.10472380283996" lon="10.06202075125575"><ele>31.999999999999996</ele><time>2026-04-19T10:16:25.998Z</time></trkpt><trkpt lat="45.10480492057057" lon="10.06200045289959"><ele>32.0</ele><time>2026-04-19T10:16:26.998Z</time></trkpt><trkpt lat="45.10488836191184" lon="10.0619934692758"><ele>32.0</ele><time>2026-04-19T10:16:27.998Z</time></trkpt><trkpt lat="45.104973070218065" lon="10.062000551700065"><ele>32.0</ele><time>2026-04-19T10:16:28.998Z</time></trkpt><trkpt lat="45.105057052244284" lon="10.062030434751932"><ele>31.999999999999996</ele><time>2026-04-19T10:16:29.998Z</time></trkpt><trkpt lat="45.105137276302095" lon="10.062078275451267"><ele>32.0</ele><time>2026-04-19T10:16:30.998Z</time></trkpt><trkpt lat="45.105211176454205" lon="10.062132997030488"><ele>31.999999999999996</ele><time>2026-04-19T10:16:31.998Z</time></trkpt><trkpt lat="45.10528364569416" lon="10.062189804403129"><ele>32.0</ele><time>2026-04-19T10:16:32.998Z</time></trkpt><trkpt lat="45.10535325076701" lon="10.0622476299328"><ele>32.0</ele><time>2026-04-19T10:16:33.998Z</time></trkpt><trkpt lat="45.10541796976814" lon="10.062309849119288"><ele>32.0</ele><time>2026-04-19T10:16:34.998Z</time></trkpt><trkpt lat="45.10547389748779" lon="10.062379573261307"><ele>31.999999999999996</ele><time>2026-04-19T10:16:35.998Z</time></trkpt><trkpt lat="45.10552418900642" lon="10.062452058697227"><ele>32.0</ele><time>2026-04-19T10:16:36.998Z</time></trkpt><trkpt lat="45.105557841716916" lon="10.062541026310718"><ele>32.285714285714285</ele><time>2026-04-19T10:16:37.998Z</time></trkpt><trkpt lat="45.10560188536005" lon="10.062611377657666"><ele>32.57142857142857</ele><time>2026-04-19T10:16:38.998Z</time></trkpt><trkpt lat="45.105647394346" lon="10.062682044926747"><ele>32.857142857142854</ele><time>2026-04-19T10:16:39.998Z</time></trkpt><trkpt lat="45.10569375110958" lon="10.062753683207502"><ele>33.14285714285714</ele><time>2026-04-19T10:16:40.998Z</time></trkpt><trkpt lat="45.105740214467964" lon="10.062825486098907"><ele>33.42857142857143</ele><time>2026-04-19T10:16:41.998Z</time></trkpt><trkpt lat="45.10579503899931" lon="10.062878903702943"><ele>33.71428571428571</ele><time>2026-04-19T10:16:42.998Z</time></trkpt><trkpt lat="45.10584022888792" lon="10.062950391887462"><ele>34.0</ele><time>2026-04-19T10:16:43.998Z</time></trkpt><trkpt lat="45.10588276504147" lon="10.063017773575794"><ele>33.99999999999999</ele><time>2026-04-19T10:16:44.998Z</time></trkpt><trkpt lat="45.10592873621228" lon="10.063088128744589"><ele>34.0</ele><time>2026-04-19T10:16:45.998Z</time></trkpt><trkpt lat="45.10597474017969" lon="10.063160717836778"><ele>34.0</ele><time>2026-04-19T10:16:46.998Z</time></trkpt><trkpt lat="45.10602059423237" lon="10.063232757964965"><ele>34.0</ele><time>2026-04-19T10:16:47.998Z</time></trkpt><trkpt lat="45.10606535059964" lon="10.063299839997596"><ele>34.0</ele><time>2026-04-19T10:16:48.998Z</time></trkpt><trkpt lat="45.10610990401019" lon="10.063368785878312"><ele>33.99999999999999</ele><time>2026-04-19T10:16:49.998Z</time></trkpt><trkpt lat="45.106141178867745" lon="10.063455779612703"><ele>34.0</ele><time>2026-04-19T10:16:50.998Z</time></trkpt><trkpt lat="45.10618732541055" lon="10.06352965579451"><ele>34.16666666666667</ele><time>2026-04-19T10:16:51.998Z</time></trkpt><trkpt lat="45.10623510943302" lon="10.0636065436931"><ele>34.333333333333336</ele><time>2026-04-19T10:16:52.998Z</time></trkpt><trkpt lat="45.10629574976836" lon="10.06367159178929"><ele>34.5</ele><time>2026-04-19T10:16:53.998Z</time></trkpt><trkpt lat="45.10634552081009" lon="10.06375181428028"><ele>34.666666666666664</ele><time>2026-04-19T10:16:54.998Z</time></trkpt><trkpt lat="45.10639654432136" lon="10.063833031385384"><ele>34.83333333333333</ele><time>2026-04-19T10:16:55.998Z</time></trkpt><trkpt lat="45.10643657795308" lon="10.06393143007428"><ele>35.0</ele><time>2026-04-19T10:16:56.998Z</time></trkpt><trkpt lat="45.106488720429155" lon="10.064015707161415"><ele>35.0</ele><time>2026-04-19T10:16:57.998Z</time></trkpt><trkpt lat="45.10655243542637" lon="10.06408564542054"><ele>35.0</ele><time>2026-04-19T10:16:58.998Z</time></trkpt><trkpt lat="45.106604531959775" lon="10.064171924967383"><ele>35.0</ele><time>2026-04-19T10:16:59.998Z</time></trkpt><trkpt lat="45.106658503735744" lon="10.064256341192044"><ele>35.0</ele><time>2026-04-19T10:17:00.998Z</time></trkpt><trkpt lat="45.10671086647499" lon="10.0643383333539"><ele>35.0</ele><time>2026-04-19T10:17:01.998Z</time></trkpt><trkpt lat="45.106762015522584" lon="10.064423027507537"><ele>35.0</ele><time>2026-04-19T10:17:02.998Z</time></trkpt><trkpt lat="45.10681252782952" lon="10.064503189972745"><ele>34.666666666666664</ele><time>2026-04-19T10:17:04Z</time></trkpt><trkpt lat="45.106849587938974" lon="10.06459767430479"><ele>34.33333333333333</ele><time>2026-04-19T10:17:05Z</time></trkpt><trkpt lat="45.10689901181014" lon="10.06467669245057"><ele>34.0</ele><time>2026-04-19T10:17:06Z</time></trkpt><trkpt lat="45.10694804822694" lon="10.064755091120363"><ele>33.666666666666664</ele><time>2026-04-19T10:17:07Z</time></trkpt><trkpt lat="45.10701037668821" lon="10.064819632226225"><ele>33.333333333333336</ele><time>2026-04-19T10:17:08Z</time></trkpt><trkpt lat="45.10705972576189" lon="10.064899654775793"><ele>33.0</ele><time>2026-04-19T10:17:09Z</time></trkpt><trkpt lat="45.107108689474224" lon="10.064978908482576"><ele>33.0</ele><time>2026-04-19T10:17:10Z</time></trkpt><trkpt lat="45.10715719237308" lon="10.065055602790395"><ele>33.0</ele><time>2026-04-19T10:17:11Z</time></trkpt><trkpt lat="45.10720498357683" lon="10.065135431427978"><ele>33.0</ele><time>2026-04-19T10:17:12Z</time></trkpt><trkpt lat="45.107254733583176" lon="10.065213989651497"><ele>33.0</ele><time>2026-04-19T10:17:13Z</time></trkpt><trkpt lat="45.10730529645061" lon="10.065292679332318"><ele>33.0</ele><time>2026-04-19T10:17:14Z</time></trkpt><trkpt lat="45.10735438115025" lon="10.06537248451527"><ele>33.0</ele><time>2026-04-19T10:17:15Z</time></trkpt><trkpt lat="45.10740293331181" lon="10.065451935725273"><ele>33.0</ele><time>2026-04-19T10:17:16Z</time></trkpt><trkpt lat="45.10745182669167" lon="10.065530519094553"><ele>33.0</ele><time>2026-04-19T10:17:17Z</time></trkpt><trkpt lat="45.10749998504495" lon="10.065609508415223"><ele>33.0</ele><time>2026-04-19T10:17:18Z</time></trkpt><trkpt lat="45.10754898763128" lon="10.065685863711108"><ele>33.0</ele><time>2026-04-19T10:17:19Z</time></trkpt><trkpt lat="45.10759717091317" lon="10.065762472491409"><ele>33.0</ele><time>2026-04-19T10:17:20Z</time></trkpt><trkpt lat="45.10764742129643" lon="10.065841539124765"><ele>33.0</ele><time>2026-04-19T10:17:21Z</time></trkpt><trkpt lat="45.1076961280005" lon="10.065917897587767"><ele>33.0</ele><time>2026-04-19T10:17:22Z</time></trkpt><trkpt lat="45.10774452298761" lon="10.065998138422886"><ele>33.0</ele><time>2026-04-19T10:17:23Z</time></trkpt><trkpt lat="45.107793365710144" lon="10.066076885726936"><ele>33.0</ele><time>2026-04-19T10:17:23.999Z</time></trkpt><trkpt lat="45.107841321584495" lon="10.066155657386574"><ele>33.0</ele><time>2026-04-19T10:17:24.999Z</time></trkpt><trkpt lat="45.10789009470298" lon="10.066234578231644"><ele>33.0</ele><time>2026-04-19T10:17:25.999Z</time></trkpt><trkpt lat="45.107939315947185" lon="10.066314731624638"><ele>33.0</ele><time>2026-04-19T10:17:26.999Z</time></trkpt><trkpt lat="45.10798786532742" lon="10.066395508019745"><ele>33.0</ele><time>2026-04-19T10:17:27.999Z</time></trkpt><trkpt lat="45.108034896524146" lon="10.06647722403244"><ele>33.0</ele><time>2026-04-19T10:17:28.999Z</time></trkpt><trkpt lat="45.10808260337874" lon="10.066558152688298"><ele>33.0</ele><time>2026-04-19T10:17:29.999Z</time></trkpt><trkpt lat="45.10813068697313" lon="10.066635788769048"><ele>33.0</ele><time>2026-04-19T10:17:30.999Z</time></trkpt><trkpt lat="45.108179616447224" lon="10.066713686112664"><ele>33.0</ele><time>2026-04-19T10:17:31.999Z</time></trkpt><trkpt lat="45.1082265279362" lon="10.066793940605129"><ele>33.0</ele><time>2026-04-19T10:17:32.999Z</time></trkpt><trkpt lat="45.10827280940935" lon="10.066873888976493"><ele>33.0</ele><time>2026-04-19T10:17:33.999Z</time></trkpt><trkpt lat="45.10832003074248" lon="10.066953574835562"><ele>33.0</ele><time>2026-04-19T10:17:34.999Z</time></trkpt><trkpt lat="45.1083688207146" lon="10.067031141028417"><ele>33.0</ele><time>2026-04-19T10:17:35.999Z</time></trkpt><trkpt lat="45.10840459749396" lon="10.067126115803998"><ele>33.0</ele><time>2026-04-19T10:17:36.999Z</time></trkpt><trkpt lat="45.10845125222657" lon="10.067205107526233"><ele>33.0</ele><time>2026-04-19T10:17:37.999Z</time></trkpt><trkpt lat="45.10849866260017" lon="10.067285378573613"><ele>33.0</ele><time>2026-04-19T10:17:38.999Z</time></trkpt><trkpt lat="45.10854598268595" lon="10.06736549681815"><ele>33.0</ele><time>2026-04-19T10:17:39.999Z</time></trkpt><trkpt lat="45.108593623891956" lon="10.067446158658953"><ele>33.0</ele><time>2026-04-19T10:17:40.999Z</time></trkpt><trkpt lat="45.10864159318213" lon="10.067526860084346"><ele>33.0</ele><time>2026-04-19T10:17:41.999Z</time></trkpt><trkpt lat="45.108688955743176" lon="10.06760650785294"><ele>33.0</ele><time>2026-04-19T10:17:42.999Z</time></trkpt><trkpt lat="45.10873485242887" lon="10.067683690526422"><ele>33.0</ele><time>2026-04-19T10:17:43.999Z</time></trkpt><trkpt lat="45.10878060527234" lon="10.06776063125843"><ele>33.0</ele><time>2026-04-19T10:17:44.999Z</time></trkpt><trkpt lat="45.10882652368475" lon="10.067837850476712"><ele>33.0</ele><time>2026-04-19T10:17:45.999Z</time></trkpt><trkpt lat="45.10887107287232" lon="10.06791276710651"><ele>33.0</ele><time>2026-04-19T10:17:46.999Z</time></trkpt><trkpt lat="45.108916979441865" lon="10.06798996632628"><ele>33.0</ele><time>2026-04-19T10:17:47.999Z</time></trkpt><trkpt lat="45.10897462534527" lon="10.068051769549811"><ele>33.0</ele><time>2026-04-19T10:17:48.999Z</time></trkpt><trkpt lat="45.109021416592576" lon="10.068129458279039"><ele>33.0</ele><time>2026-04-19T10:17:49.999Z</time></trkpt><trkpt lat="45.10905426769775" lon="10.068220838693577"><ele>33.0</ele><time>2026-04-19T10:17:50.999Z</time></trkpt><trkpt lat="45.1091008605789" lon="10.06829921526119"><ele>33.0</ele><time>2026-04-19T10:17:51.999Z</time></trkpt><trkpt lat="45.10914661295589" lon="10.068376236673462"><ele>33.0</ele><time>2026-04-19T10:17:52.999Z</time></trkpt><trkpt lat="45.10919409107752" lon="10.06845616326872"><ele>33.0</ele><time>2026-04-19T10:17:53.999Z</time></trkpt><trkpt lat="45.10924217019388" lon="10.068537101552264"><ele>33.0</ele><time>2026-04-19T10:17:54.999Z</time></trkpt><trkpt lat="45.109289483615775" lon="10.068616750963134"><ele>33.0</ele><time>2026-04-19T10:17:55.999Z</time></trkpt><trkpt lat="45.109337225082946" lon="10.068697120875564"><ele>33.0</ele><time>2026-04-19T10:17:56.999Z</time></trkpt><trkpt lat="45.1093840464127" lon="10.068775941776115"><ele>33.0</ele><time>2026-04-19T10:17:57.999Z</time></trkpt><trkpt lat="45.109432190252434" lon="10.068856881340661"><ele>33.0</ele><time>2026-04-19T10:17:58.999Z</time></trkpt><trkpt lat="45.109481285497736" lon="10.068937390941203"><ele>33.0</ele><time>2026-04-19T10:17:59.999Z</time></trkpt><trkpt lat="45.10952887836787" lon="10.069016339038958"><ele>33.0</ele><time>2026-04-19T10:18:00.999Z</time></trkpt><trkpt lat="45.10957376230928" lon="10.069098661521334"><ele>33.0</ele><time>2026-04-19T10:18:01.999Z</time></trkpt><trkpt lat="45.10961566944277" lon="10.069182529121177"><ele>33.0</ele><time>2026-04-19T10:18:02.999Z</time></trkpt><trkpt lat="45.10965126194414" lon="10.069272129575346"><ele>33.0</ele><time>2026-04-19T10:18:03.999Z</time></trkpt><trkpt lat="45.10968646453805" lon="10.069364739760102"><ele>33.0</ele><time>2026-04-19T10:18:04.999Z</time></trkpt><trkpt lat="45.10972159788889" lon="10.069460028525583"><ele>33.0</ele><time>2026-04-19T10:18:05.999Z</time></trkpt><trkpt lat="45.109754537495135" lon="10.069552749998813"><ele>33.0</ele><time>2026-04-19T10:18:06.999Z</time></trkpt><trkpt lat="45.1097876573606" lon="10.069647045049981"><ele>33.0</ele><time>2026-04-19T10:18:07.999Z</time></trkpt><trkpt lat="45.109820332598645" lon="10.069740074694725"><ele>33.0</ele><time>2026-04-19T10:18:08.999Z</time></trkpt><trkpt lat="45.10985185711428" lon="10.069835115084736"><ele>33.0</ele><time>2026-04-19T10:18:09.999Z</time></trkpt><trkpt lat="45.109882481220176" lon="10.069929289295981"><ele>33.0</ele><time>2026-04-19T10:18:10.999Z</time></trkpt><trkpt lat="45.10991352994609" lon="10.070024768976033"><ele>33.0</ele><time>2026-04-19T10:18:11.999Z</time></trkpt><trkpt lat="45.1099445467235" lon="10.070117980579962"><ele>33.57142857142857</ele><time>2026-04-19T10:18:12.999Z</time></trkpt><trkpt lat="45.1099776486178" lon="10.070211677175323"><ele>34.142857142857146</ele><time>2026-04-19T10:18:13.999Z</time></trkpt><trkpt lat="45.11001184374373" lon="10.070302160475745"><ele>34.714285714285715</ele><time>2026-04-19T10:18:14.999Z</time></trkpt><trkpt lat="45.110050834710556" lon="10.07038855633824"><ele>35.285714285714285</ele><time>2026-04-19T10:18:15.999Z</time></trkpt><trkpt lat="45.11009146034185" lon="10.0704651609013"><ele>35.857142857142854</ele><time>2026-04-19T10:18:16.998Z</time></trkpt><trkpt lat="45.1101354486138" lon="10.070534577917252"><ele>36.42857142857143</ele><time>2026-04-19T10:18:17.998Z</time></trkpt><trkpt lat="45.11019136788056" lon="10.070593981070672"><ele>37.0</ele><time>2026-04-19T10:18:18.998Z</time></trkpt><trkpt lat="45.11029723630962" lon="10.070684851269544"><ele>37.0</ele><time>2026-04-19T10:18:20.998Z</time></trkpt><trkpt lat="45.11040925947592" lon="10.070740726978071"><ele>37.0</ele><time>2026-04-19T10:18:22.998Z</time></trkpt><trkpt lat="45.11051346345609" lon="10.070813257696384"><ele>37.0</ele><time>2026-04-19T10:18:24.998Z</time></trkpt><trkpt lat="45.11061260428987" lon="10.070876408054557"><ele>37.0</ele><time>2026-04-19T10:18:26.998Z</time></trkpt><trkpt lat="45.11069340672749" lon="10.070938726145188"><ele>37.0</ele><time>2026-04-19T10:18:28.998Z</time></trkpt><trkpt lat="45.11074780012147" lon="10.071018197256276"><ele>37.8</ele><time>2026-04-19T10:18:30.998Z</time></trkpt><trkpt lat="45.11068875045889" lon="10.071144380843297"><ele>38.6</ele><time>2026-04-19T10:18:33.998Z</time></trkpt><trkpt lat="45.11065360059337" lon="10.071265210144514"><ele>39.4</ele><time>2026-04-19T10:18:35.998Z</time></trkpt><trkpt lat="45.11060851677554" lon="10.071390866774543"><ele>40.199999999999996</ele><time>2026-04-19T10:18:37.998Z</time></trkpt><trkpt lat="45.110542488262965" lon="10.07151677663263"><ele>41.0</ele><time>2026-04-19T10:18:39.998Z</time></trkpt><trkpt lat="45.110504655838206" lon="10.071672464712748"><ele>41.0</ele><time>2026-04-19T10:18:41.998Z</time></trkpt><trkpt lat="45.1104387830891" lon="10.071813662760555"><ele>41.0</ele><time>2026-04-19T10:18:43.998Z</time></trkpt><trkpt lat="45.11038349851845" lon="10.071971930711367"><ele>41.0</ele><time>2026-04-19T10:18:45.998Z</time></trkpt><trkpt lat="45.11032818264809" lon="10.0721281960261"><ele>41.0</ele><time>2026-04-19T10:18:47.998Z</time></trkpt><trkpt lat="45.11026922352013" lon="10.072283369491867"><ele>40.99999999999999</ele><time>2026-04-19T10:18:49.998Z</time></trkpt><trkpt lat="45.11023675416779" lon="10.07236257859212"><ele>41.0</ele><time>2026-04-19T10:18:50.998Z</time></trkpt><trkpt lat="45.110202418842036" lon="10.072441272579587"><ele>41.0</ele><time>2026-04-19T10:18:51.998Z</time></trkpt><trkpt lat="45.11016743854005" lon="10.072521443707428"><ele>41.0</ele><time>2026-04-19T10:18:52.998Z</time></trkpt><trkpt lat="45.110130616280124" lon="10.072597995128195"><ele>41.0</ele><time>2026-04-19T10:18:53.998Z</time></trkpt><trkpt lat="45.110091606262905" lon="10.072675416205577"><ele>40.99999999999999</ele><time>2026-04-19T10:18:54.998Z</time></trkpt><trkpt lat="45.11005252949924" lon="10.072750946623891"><ele>41.0</ele><time>2026-04-19T10:18:55.998Z</time></trkpt><trkpt lat="45.11002638551523" lon="10.072840848536968"><ele>40.99999999999999</ele><time>2026-04-19T10:18:56.998Z</time></trkpt><trkpt lat="45.1099843256899" lon="10.072918821295275"><ele>41.0</ele><time>2026-04-19T10:18:57.998Z</time></trkpt><trkpt lat="45.10994300823518" lon="10.072993969026859"><ele>41.0</ele><time>2026-04-19T10:18:58.998Z</time></trkpt><trkpt lat="45.10990113428835" lon="10.073071521194603"><ele>41.0</ele><time>2026-04-19T10:18:59.998Z</time></trkpt><trkpt lat="45.10984808418643" lon="10.073132007192843"><ele>41.0</ele><time>2026-04-19T10:19:00.998Z</time></trkpt><trkpt lat="45.10980583263871" lon="10.073210061499799"><ele>40.99999999999999</ele><time>2026-04-19T10:19:01.998Z</time></trkpt><trkpt lat="45.109763736172496" lon="10.073286691323256"><ele>41.0</ele><time>2026-04-19T10:19:02.998Z</time></trkpt><trkpt lat="45.10972089613013" lon="10.073364423150444"><ele>40.99999999999999</ele><time>2026-04-19T10:19:03.998Z</time></trkpt><trkpt lat="45.109679015687206" lon="10.073440413848761"><ele>41.0</ele><time>2026-04-19T10:19:04.998Z</time></trkpt><trkpt lat="45.10963608143753" lon="10.07351831660071"><ele>41.0</ele><time>2026-04-19T10:19:05.998Z</time></trkpt><trkpt lat="45.109593913706014" lon="10.073594828569982"><ele>41.0</ele><time>2026-04-19T10:19:06.998Z</time></trkpt><trkpt lat="45.10955091116809" lon="10.073672853747238"><ele>41.0</ele><time>2026-04-19T10:19:07.998Z</time></trkpt><trkpt lat="45.109522833397804" lon="10.073762372781616"><ele>40.99999999999999</ele><time>2026-04-19T10:19:08.998Z</time></trkpt><trkpt lat="45.10948009104726" lon="10.073842215024934"><ele>41.0</ele><time>2026-04-19T10:19:10Z</time></trkpt><trkpt lat="45.10943739042692" lon="10.073918929391848"><ele>40.99999999999999</ele><time>2026-04-19T10:19:11Z</time></trkpt><trkpt lat="45.10938234224371" lon="10.073984576787348"><ele>41.0</ele><time>2026-04-19T10:19:12Z</time></trkpt><trkpt lat="45.10934065553954" lon="10.074063717398836"><ele>41.0</ele><time>2026-04-19T10:19:13Z</time></trkpt><trkpt lat="45.10929858937438" lon="10.074142758120258"><ele>41.0</ele><time>2026-04-19T10:19:14Z</time></trkpt><trkpt lat="45.10925851754128" lon="10.07422670578186"><ele>41.0</ele><time>2026-04-19T10:19:15Z</time></trkpt><trkpt lat="45.109220333293976" lon="10.07430941497852"><ele>40.99999999999999</ele><time>2026-04-19T10:19:16Z</time></trkpt><trkpt lat="45.109183461924594" lon="10.074396276044242"><ele>41.0</ele><time>2026-04-19T10:19:17Z</time></trkpt><trkpt lat="45.10915030830796" lon="10.074484045524779"><ele>40.71428571428571</ele><time>2026-04-19T10:19:18Z</time></trkpt><trkpt lat="45.109135354339756" lon="10.074590429696103"><ele>40.42857142857143</ele><time>2026-04-19T10:19:19Z</time></trkpt><trkpt lat="45.109093988762915" lon="10.07467680244603"><ele>40.14285714285714</ele><time>2026-04-19T10:19:20Z</time></trkpt><trkpt lat="45.109067964386654" lon="10.074773080444713"><ele>39.857142857142854</ele><time>2026-04-19T10:19:21Z</time></trkpt><trkpt lat="45.1090420351094" lon="10.074869006548834"><ele>39.57142857142857</ele><time>2026-04-19T10:19:22Z</time></trkpt><trkpt lat="45.1090159761737" lon="10.074965412402287"><ele>39.285714285714285</ele><time>2026-04-19T10:19:23Z</time></trkpt><trkpt lat="45.10898912893438" lon="10.075060888318665"><ele>39.0</ele><time>2026-04-19T10:19:24Z</time></trkpt><trkpt lat="45.108962798213454" lon="10.07515452893888"><ele>39.142857142857146</ele><time>2026-04-19T10:19:25Z</time></trkpt><trkpt lat="45.10893637947681" lon="10.075248482587392"><ele>39.285714285714285</ele><time>2026-04-19T10:19:26Z</time></trkpt><trkpt lat="45.108925650669725" lon="10.075349075187692"><ele>39.42857142857143</ele><time>2026-04-19T10:19:27Z</time></trkpt><trkpt lat="45.10889613731609" lon="10.075442878734549"><ele>39.57142857142857</ele><time>2026-04-19T10:19:27.999Z</time></trkpt><trkpt lat="45.10884945748665" lon="10.07552199850163"><ele>39.714285714285715</ele><time>2026-04-19T10:19:28.999Z</time></trkpt><trkpt lat="45.10882586752114" lon="10.07562103549871"><ele>39.857142857142854</ele><time>2026-04-19T10:19:29.999Z</time></trkpt><trkpt lat="45.108779690341855" lon="10.075703948915967"><ele>40.0</ele><time>2026-04-19T10:19:30.999Z</time></trkpt><trkpt lat="45.10872943679248" lon="10.07578040836552"><ele>40.0</ele><time>2026-04-19T10:19:31.999Z</time></trkpt><trkpt lat="45.108674412623216" lon="10.075851457771508"><ele>40.0</ele><time>2026-04-19T10:19:32.999Z</time></trkpt><trkpt lat="45.10861441257816" lon="10.075913388699687"><ele>40.0</ele><time>2026-04-19T10:19:33.999Z</time></trkpt><trkpt lat="45.10855055324466" lon="10.07596542939218"><ele>40.0</ele><time>2026-04-19T10:19:34.999Z</time></trkpt><trkpt lat="45.108484220212276" lon="10.076012292295953"><ele>40.0</ele><time>2026-04-19T10:19:35.999Z</time></trkpt><trkpt lat="45.10841766240706" lon="10.076054539341545"><ele>40.0</ele><time>2026-04-19T10:19:36.999Z</time></trkpt><trkpt lat="45.10834764615139" lon="10.07609004576456"><ele>40.0</ele><time>2026-04-19T10:19:37.999Z</time></trkpt><trkpt lat="45.10827816134578" lon="10.076128147022027"><ele>39.66666666666667</ele><time>2026-04-19T10:19:38.999Z</time></trkpt><trkpt lat="45.108208809655345" lon="10.076170264434353"><ele>39.333333333333336</ele><time>2026-04-19T10:19:39.999Z</time></trkpt><trkpt lat="45.10813361299175" lon="10.076195753981185"><ele>39.0</ele><time>2026-04-19T10:19:40.999Z</time></trkpt><trkpt lat="45.108070122202875" lon="10.076261029422882"><ele>38.666666666666664</ele><time>2026-04-19T10:19:41.999Z</time></trkpt><trkpt lat="45.10800140892322" lon="10.076305933587776"><ele>38.33333333333333</ele><time>2026-04-19T10:19:42.999Z</time></trkpt><trkpt lat="45.10793394403052" lon="10.076356212359357"><ele>38.0</ele><time>2026-04-19T10:19:43.999Z</time></trkpt><trkpt lat="45.107859743477185" lon="10.076391799327816"><ele>38.0</ele><time>2026-04-19T10:19:44.999Z</time></trkpt><trkpt lat="45.10780685520461" lon="10.076472558696349"><ele>38.0</ele><time>2026-04-19T10:19:45.999Z</time></trkpt><trkpt lat="45.10774862149005" lon="10.076536841668466"><ele>38.0</ele><time>2026-04-19T10:19:46.999Z</time></trkpt><trkpt lat="45.10769204851018" lon="10.076601053452285"><ele>38.0</ele><time>2026-04-19T10:19:47.999Z</time></trkpt><trkpt lat="45.10764204983903" lon="10.07666700701238"><ele>38.0</ele><time>2026-04-19T10:19:48.999Z</time></trkpt><trkpt lat="45.10759861232547" lon="10.07673855059567"><ele>38.0</ele><time>2026-04-19T10:19:49.999Z</time></trkpt><trkpt lat="45.107546940940836" lon="10.076796174390891"><ele>38.0</ele><time>2026-04-19T10:19:50.999Z</time></trkpt><trkpt lat="45.107505133652715" lon="10.076863024536083"><ele>38.25</ele><time>2026-04-19T10:19:51.999Z</time></trkpt><trkpt lat="45.10742392400005" lon="10.076992879229438"><ele>38.5</ele><time>2026-04-19T10:19:53.999Z</time></trkpt><trkpt lat="45.10734308149181" lon="10.07712214701762"><ele>38.75</ele><time>2026-04-19T10:19:55.999Z</time></trkpt><trkpt lat="45.10726643221977" lon="10.077244709674158"><ele>39.0</ele><time>2026-04-19T10:19:57.999Z</time></trkpt><trkpt lat="45.107195208169145" lon="10.07735282730674"><ele>38.75</ele><time>2026-04-19T10:19:59.999Z</time></trkpt><trkpt lat="45.107283828664784" lon="10.07752599134124"><ele>38.5</ele><time>2026-04-19T10:20:01.999Z</time></trkpt><trkpt lat="45.10739908507287" lon="10.077568146471565"><ele>38.25</ele><time>2026-04-19T10:20:03.999Z</time></trkpt><trkpt lat="45.10750655497916" lon="10.077616385253746"><ele>38.0</ele><time>2026-04-19T10:20:05.999Z</time></trkpt><trkpt lat="45.10761401147925" lon="10.07767143522276"><ele>38.75</ele><time>2026-04-19T10:20:07.999Z</time></trkpt><trkpt lat="45.10772822350875" lon="10.077714086224354"><ele>39.5</ele><time>2026-04-19T10:20:09.999Z</time></trkpt><trkpt lat="45.10784624704937" lon="10.077753374095918"><ele>40.25</ele><time>2026-04-19T10:20:11.999Z</time></trkpt><trkpt lat="45.107965395613455" lon="10.077782004719788"><ele>41.0</ele><time>2026-04-19T10:20:13.999Z</time></trkpt><trkpt lat="45.10808162539428" lon="10.077811558057665"><ele>41.0</ele><time>2026-04-19T10:20:15.999Z</time></trkpt><trkpt lat="45.108196095839304" lon="10.077847541493032"><ele>41.0</ele><time>2026-04-19T10:20:17.999Z</time></trkpt><trkpt lat="45.108312576511494" lon="10.077868726643121"><ele>41.0</ele><time>2026-04-19T10:20:19.999Z</time></trkpt><trkpt lat="45.10842665423319" lon="10.0778919969025"><ele>41.0</ele><time>2026-04-19T10:20:21.998Z</time></trkpt><trkpt lat="45.10853788069326" lon="10.077911454151865"><ele>41.199999999999996</ele><time>2026-04-19T10:20:23.998Z</time></trkpt><trkpt lat="45.10864692046429" lon="10.077933623775287"><ele>41.4</ele><time>2026-04-19T10:20:25.998Z</time></trkpt><trkpt lat="45.10875351184741" lon="10.07795653170718"><ele>41.6</ele><time>2026-04-19T10:20:27.998Z</time></trkpt><trkpt lat="45.108818722228705" lon="10.077941182338957"><ele>41.8</ele><time>2026-04-19T10:20:29.998Z</time></trkpt><trkpt lat="45.1088006969808" lon="10.077760833975827"><ele>42.0</ele><time>2026-04-19T10:20:30.998Z</time></trkpt><trkpt lat="45.108832767395036" lon="10.077638896225364"><ele>42.0</ele><time>2026-04-19T10:20:32.998Z</time></trkpt><trkpt lat="45.108851846264194" lon="10.077505523137201"><ele>42.0</ele><time>2026-04-19T10:20:34.998Z</time></trkpt><trkpt lat="45.10886910056125" lon="10.077369041775524"><ele>42.0</ele><time>2026-04-19T10:20:36.998Z</time></trkpt><trkpt lat="45.10888353124324" lon="10.077244138908288"><ele>42.0</ele><time>2026-04-19T10:20:38.998Z</time></trkpt><trkpt lat="45.10888613995353" lon="10.077121665610331"><ele>42.0</ele><time>2026-04-19T10:20:40.998Z</time></trkpt><trkpt lat="45.10886659096209" lon="10.077000241784988"><ele>41.833333333333336</ele><time>2026-04-19T10:20:42.998Z</time></trkpt><trkpt lat="45.10881747810384" lon="10.07689213736254"><ele>41.666666666666664</ele><time>2026-04-19T10:20:44.998Z</time></trkpt><trkpt lat="45.10876069176228" lon="10.076805637032914"><ele>41.5</ele><time>2026-04-19T10:20:46.998Z</time></trkpt><trkpt lat="45.10869705892031" lon="10.0767633718135"><ele>41.33333333333333</ele><time>2026-04-19T10:20:48.998Z</time></trkpt><trkpt lat="45.1086217117452" lon="10.07672732050787"><ele>41.166666666666664</ele><time>2026-04-19T10:21:19Z</time></trkpt><trkpt lat="45.10854683773079" lon="10.076780014225823"><ele>41.0</ele><time>2026-04-19T10:21:22Z</time></trkpt><trkpt lat="45.10846897801307" lon="10.076805544910359"><ele>41.0</ele><time>2026-04-19T10:21:25Z</time></trkpt><trkpt lat="45.1083879147399" lon="10.076840105793861"><ele>41.0</ele><time>2026-04-19T10:21:28Z</time></trkpt><trkpt lat="45.10830700275948" lon="10.076856221675888"><ele>41.0</ele><time>2026-04-19T10:21:30.999Z</time></trkpt><trkpt lat="45.10821830883636" lon="10.0768430645708"><ele>41.0</ele><time>2026-04-19T10:23:11.998Z</time></trkpt><trkpt lat="45.10814751958701" lon="10.076866850809843"><ele>41.0</ele><time>2026-04-19T10:23:17.997Z</time></trkpt><trkpt lat="45.10809395205211" lon="10.076920961025772"><ele>41.0</ele><time>2026-04-19T10:23:21.999Z</time></trkpt><trkpt lat="45.10807142443211" lon="10.077005161001999"><ele>40.0</ele><time>2026-04-19T10:23:27.999Z</time></trkpt></trkseg></trk></gpx>